<?xml version="1.0" encoding="UTF-8" standalone="no" ?>
<gpx xmlns="http://www.topografix.com/GPX/1/1" xmlns:xsi="http://www.w3.org/2001/XMLSchema-instance" xsi:schemaLocation="http://www.topografix.com/GPX/1/1 http://www.topografix.com/GPX/1/1/gpx.xsd" version="1.1" creator="VisuGPX - https://www.visugpx.com">
  <metadata>
    <name>Nocturne Mercy le Bas  35km</name>
    <desc><![CDATA[Nocturne des vttvores 35 km
Demande un vrai entraînement vtt
montées techniques
descentes potentiellement dangereuses ( selon pluies)
bon éclairage requis]]></desc>
  </metadata>
  <trk>
    <name><![CDATA[Mercy-le-Bas VTT]]></name>
    <trkseg>
      <trkpt lat="49.39446" lon="5.7643">
        <ele>314.79998779297</ele>
        <time>2022-09-13T10:26:19.000Z</time>
      </trkpt>
      <trkpt lat="49.39446" lon="5.7643">
        <ele>304.79998779297</ele>
        <time>2022-09-13T10:26:20.000Z</time>
      </trkpt>
      <trkpt lat="49.39444" lon="5.76429">
        <ele>304.39999389648</ele>
        <time>2022-09-13T10:26:37.000Z</time>
      </trkpt>
      <trkpt lat="49.3944" lon="5.7643">
        <ele>304.60000610352</ele>
        <time>2022-09-13T10:26:39.000Z</time>
      </trkpt>
      <trkpt lat="49.39425" lon="5.76436">
        <ele>305</ele>
        <time>2022-09-13T10:26:45.000Z</time>
      </trkpt>
      <trkpt lat="49.39422" lon="5.76438">
        <ele>305</ele>
        <time>2022-09-13T10:26:46.000Z</time>
      </trkpt>
      <trkpt lat="49.39398" lon="5.76456">
        <ele>305.39999389648</ele>
        <time>2022-09-13T10:26:55.000Z</time>
      </trkpt>
      <trkpt lat="49.3939" lon="5.76463">
        <ele>305.60000610352</ele>
        <time>2022-09-13T10:26:59.000Z</time>
      </trkpt>
      <trkpt lat="49.39386" lon="5.76468">
        <ele>305.79998779297</ele>
        <time>2022-09-13T10:27:01.000Z</time>
      </trkpt>
      <trkpt lat="49.39383" lon="5.76471">
        <ele>305.60000610352</ele>
        <time>2022-09-13T10:27:02.000Z</time>
      </trkpt>
      <trkpt lat="49.39381" lon="5.76473">
        <ele>305.60000610352</ele>
        <time>2022-09-13T10:27:03.000Z</time>
      </trkpt>
      <trkpt lat="49.39378" lon="5.76475">
        <ele>305.79998779297</ele>
        <time>2022-09-13T10:27:04.000Z</time>
      </trkpt>
      <trkpt lat="49.39376" lon="5.76477">
        <ele>305.79998779297</ele>
        <time>2022-09-13T10:27:05.000Z</time>
      </trkpt>
      <trkpt lat="49.39374" lon="5.76479">
        <ele>305.79998779297</ele>
        <time>2022-09-13T10:27:06.000Z</time>
      </trkpt>
      <trkpt lat="49.39371" lon="5.76481">
        <ele>305.79998779297</ele>
        <time>2022-09-13T10:27:07.000Z</time>
      </trkpt>
      <trkpt lat="49.39349" lon="5.76496">
        <ele>306</ele>
        <time>2022-09-13T10:27:14.000Z</time>
      </trkpt>
      <trkpt lat="49.39339" lon="5.7651">
        <ele>306</ele>
        <time>2022-09-13T10:27:18.000Z</time>
      </trkpt>
      <trkpt lat="49.39338" lon="5.76514">
        <ele>306</ele>
        <time>2022-09-13T10:27:19.000Z</time>
      </trkpt>
      <trkpt lat="49.39337" lon="5.76519">
        <ele>306.20001220703</ele>
        <time>2022-09-13T10:27:20.000Z</time>
      </trkpt>
      <trkpt lat="49.39337" lon="5.76525">
        <ele>306.20001220703</ele>
        <time>2022-09-13T10:27:21.000Z</time>
      </trkpt>
      <trkpt lat="49.39336" lon="5.76529">
        <ele>306.39999389648</ele>
        <time>2022-09-13T10:27:22.000Z</time>
      </trkpt>
      <trkpt lat="49.39335" lon="5.76538">
        <ele>306.39999389648</ele>
        <time>2022-09-13T10:27:24.000Z</time>
      </trkpt>
      <trkpt lat="49.39335" lon="5.76543">
        <ele>306.39999389648</ele>
        <time>2022-09-13T10:27:25.000Z</time>
      </trkpt>
      <trkpt lat="49.39333" lon="5.76548">
        <ele>306.60000610352</ele>
        <time>2022-09-13T10:27:26.000Z</time>
      </trkpt>
      <trkpt lat="49.39332" lon="5.76552">
        <ele>306.60000610352</ele>
        <time>2022-09-13T10:27:27.000Z</time>
      </trkpt>
      <trkpt lat="49.39331" lon="5.76556">
        <ele>306.60000610352</ele>
        <time>2022-09-13T10:27:28.000Z</time>
      </trkpt>
      <trkpt lat="49.39324" lon="5.7657">
        <ele>307.20001220703</ele>
        <time>2022-09-13T10:27:31.000Z</time>
      </trkpt>
      <trkpt lat="49.39309" lon="5.76607">
        <ele>307.60000610352</ele>
        <time>2022-09-13T10:27:40.000Z</time>
      </trkpt>
      <trkpt lat="49.39307" lon="5.76612">
        <ele>307.60000610352</ele>
        <time>2022-09-13T10:27:41.000Z</time>
      </trkpt>
      <trkpt lat="49.39306" lon="5.76615">
        <ele>307.79998779297</ele>
        <time>2022-09-13T10:27:42.000Z</time>
      </trkpt>
      <trkpt lat="49.39304" lon="5.76618">
        <ele>308</ele>
        <time>2022-09-13T10:27:43.000Z</time>
      </trkpt>
      <trkpt lat="49.39302" lon="5.76621">
        <ele>308</ele>
        <time>2022-09-13T10:27:44.000Z</time>
      </trkpt>
      <trkpt lat="49.393" lon="5.76624">
        <ele>307.79998779297</ele>
        <time>2022-09-13T10:27:45.000Z</time>
      </trkpt>
      <trkpt lat="49.39298" lon="5.76627">
        <ele>307.79998779297</ele>
        <time>2022-09-13T10:27:46.000Z</time>
      </trkpt>
      <trkpt lat="49.39297" lon="5.76629">
        <ele>308</ele>
        <time>2022-09-13T10:27:47.000Z</time>
      </trkpt>
      <trkpt lat="49.39283" lon="5.76649">
        <ele>308</ele>
        <time>2022-09-13T10:27:52.000Z</time>
      </trkpt>
      <trkpt lat="49.39261" lon="5.76688">
        <ele>308.20001220703</ele>
        <time>2022-09-13T10:28:00.000Z</time>
      </trkpt>
      <trkpt lat="49.39239" lon="5.76735">
        <ele>307.60000610352</ele>
        <time>2022-09-13T10:28:09.000Z</time>
      </trkpt>
      <trkpt lat="49.3922" lon="5.76776">
        <ele>307.20001220703</ele>
        <time>2022-09-13T10:28:16.000Z</time>
      </trkpt>
      <trkpt lat="49.39208" lon="5.76801">
        <ele>306.60000610352</ele>
        <time>2022-09-13T10:28:20.000Z</time>
      </trkpt>
      <trkpt lat="49.39196" lon="5.7683">
        <ele>305.60000610352</ele>
        <time>2022-09-13T10:28:25.000Z</time>
      </trkpt>
      <trkpt lat="49.39186" lon="5.76854">
        <ele>305.20001220703</ele>
        <time>2022-09-13T10:28:29.000Z</time>
      </trkpt>
      <trkpt lat="49.39184" lon="5.76859">
        <ele>305</ele>
        <time>2022-09-13T10:28:30.000Z</time>
      </trkpt>
      <trkpt lat="49.39184" lon="5.76865">
        <ele>305</ele>
        <time>2022-09-13T10:28:31.000Z</time>
      </trkpt>
      <trkpt lat="49.39185" lon="5.76869">
        <ele>305.20001220703</ele>
        <time>2022-09-13T10:28:32.000Z</time>
      </trkpt>
      <trkpt lat="49.39186" lon="5.76874">
        <ele>305</ele>
        <time>2022-09-13T10:28:33.000Z</time>
      </trkpt>
      <trkpt lat="49.39188" lon="5.76877">
        <ele>305</ele>
        <time>2022-09-13T10:28:34.000Z</time>
      </trkpt>
      <trkpt lat="49.39191" lon="5.76881">
        <ele>305</ele>
        <time>2022-09-13T10:28:35.000Z</time>
      </trkpt>
      <trkpt lat="49.39193" lon="5.76885">
        <ele>304.60000610352</ele>
        <time>2022-09-13T10:28:36.000Z</time>
      </trkpt>
      <trkpt lat="49.39196" lon="5.76888">
        <ele>304.60000610352</ele>
        <time>2022-09-13T10:28:37.000Z</time>
      </trkpt>
      <trkpt lat="49.39199" lon="5.76891">
        <ele>304.39999389648</ele>
        <time>2022-09-13T10:28:38.000Z</time>
      </trkpt>
      <trkpt lat="49.39202" lon="5.76895">
        <ele>304</ele>
        <time>2022-09-13T10:28:39.000Z</time>
      </trkpt>
      <trkpt lat="49.39204" lon="5.76898">
        <ele>303.79998779297</ele>
        <time>2022-09-13T10:28:40.000Z</time>
      </trkpt>
      <trkpt lat="49.39206" lon="5.76901">
        <ele>303.60000610352</ele>
        <time>2022-09-13T10:28:41.000Z</time>
      </trkpt>
      <trkpt lat="49.39208" lon="5.76904">
        <ele>303.39999389648</ele>
        <time>2022-09-13T10:28:42.000Z</time>
      </trkpt>
      <trkpt lat="49.3921" lon="5.76908">
        <ele>303.20001220703</ele>
        <time>2022-09-13T10:28:43.000Z</time>
      </trkpt>
      <trkpt lat="49.39213" lon="5.76912">
        <ele>303.20001220703</ele>
        <time>2022-09-13T10:28:44.000Z</time>
      </trkpt>
      <trkpt lat="49.39216" lon="5.76916">
        <ele>303</ele>
        <time>2022-09-13T10:28:45.000Z</time>
      </trkpt>
      <trkpt lat="49.39218" lon="5.7692">
        <ele>303</ele>
        <time>2022-09-13T10:28:46.000Z</time>
      </trkpt>
      <trkpt lat="49.3922" lon="5.76923">
        <ele>303</ele>
        <time>2022-09-13T10:28:47.000Z</time>
      </trkpt>
      <trkpt lat="49.39223" lon="5.76926">
        <ele>302.79998779297</ele>
        <time>2022-09-13T10:28:48.000Z</time>
      </trkpt>
      <trkpt lat="49.39227" lon="5.7693">
        <ele>302.79998779297</ele>
        <time>2022-09-13T10:28:49.000Z</time>
      </trkpt>
      <trkpt lat="49.3924" lon="5.7695">
        <ele>302.39999389648</ele>
        <time>2022-09-13T10:28:53.000Z</time>
      </trkpt>
      <trkpt lat="49.39244" lon="5.76954">
        <ele>302.20001220703</ele>
        <time>2022-09-13T10:28:54.000Z</time>
      </trkpt>
      <trkpt lat="49.39249" lon="5.76958">
        <ele>301.79998779297</ele>
        <time>2022-09-13T10:28:55.000Z</time>
      </trkpt>
      <trkpt lat="49.39253" lon="5.76962">
        <ele>301.60000610352</ele>
        <time>2022-09-13T10:28:56.000Z</time>
      </trkpt>
      <trkpt lat="49.3926" lon="5.76971">
        <ele>300.20001220703</ele>
        <time>2022-09-13T10:28:59.000Z</time>
      </trkpt>
      <trkpt lat="49.39285" lon="5.76989">
        <ele>299</ele>
        <time>2022-09-13T10:29:04.000Z</time>
      </trkpt>
      <trkpt lat="49.3929" lon="5.76992">
        <ele>299</ele>
        <time>2022-09-13T10:29:05.000Z</time>
      </trkpt>
      <trkpt lat="49.39299" lon="5.76994">
        <ele>298.60000610352</ele>
        <time>2022-09-13T10:29:07.000Z</time>
      </trkpt>
      <trkpt lat="49.39301" lon="5.76995">
        <ele>298.20001220703</ele>
        <time>2022-09-13T10:29:08.000Z</time>
      </trkpt>
      <trkpt lat="49.39302" lon="5.76997">
        <ele>297.79998779297</ele>
        <time>2022-09-13T10:29:09.000Z</time>
      </trkpt>
      <trkpt lat="49.39304" lon="5.76997">
        <ele>297.60000610352</ele>
        <time>2022-09-13T10:29:10.000Z</time>
      </trkpt>
      <trkpt lat="49.39305" lon="5.76995">
        <ele>297</ele>
        <time>2022-09-13T10:29:12.000Z</time>
      </trkpt>
      <trkpt lat="49.39305" lon="5.76996">
        <ele>296.60000610352</ele>
        <time>2022-09-13T10:29:13.000Z</time>
      </trkpt>
      <trkpt lat="49.39306" lon="5.76996">
        <ele>296.39999389648</ele>
        <time>2022-09-13T10:29:14.000Z</time>
      </trkpt>
      <trkpt lat="49.39306" lon="5.76996">
        <ele>296.20001220703</ele>
        <time>2022-09-13T10:29:15.000Z</time>
      </trkpt>
      <trkpt lat="49.39307" lon="5.76996">
        <ele>296</ele>
        <time>2022-09-13T10:29:16.000Z</time>
      </trkpt>
      <trkpt lat="49.39308" lon="5.76996">
        <ele>295.79998779297</ele>
        <time>2022-09-13T10:29:17.000Z</time>
      </trkpt>
      <trkpt lat="49.39309" lon="5.76996">
        <ele>295.60000610352</ele>
        <time>2022-09-13T10:29:18.000Z</time>
      </trkpt>
      <trkpt lat="49.39312" lon="5.76997">
        <ele>295.60000610352</ele>
        <time>2022-09-13T10:29:19.000Z</time>
      </trkpt>
      <trkpt lat="49.39318" lon="5.77">
        <ele>295.39999389648</ele>
        <time>2022-09-13T10:29:21.000Z</time>
      </trkpt>
      <trkpt lat="49.39329" lon="5.77001">
        <ele>295</ele>
        <time>2022-09-13T10:29:24.000Z</time>
      </trkpt>
      <trkpt lat="49.39332" lon="5.77002">
        <ele>295</ele>
        <time>2022-09-13T10:29:25.000Z</time>
      </trkpt>
      <trkpt lat="49.39335" lon="5.77003">
        <ele>295</ele>
        <time>2022-09-13T10:29:26.000Z</time>
      </trkpt>
      <trkpt lat="49.39338" lon="5.77003">
        <ele>294.60000610352</ele>
        <time>2022-09-13T10:29:27.000Z</time>
      </trkpt>
      <trkpt lat="49.3934" lon="5.77003">
        <ele>294.60000610352</ele>
        <time>2022-09-13T10:29:28.000Z</time>
      </trkpt>
      <trkpt lat="49.39343" lon="5.77003">
        <ele>294.39999389648</ele>
        <time>2022-09-13T10:29:29.000Z</time>
      </trkpt>
      <trkpt lat="49.39345" lon="5.77002">
        <ele>294</ele>
        <time>2022-09-13T10:29:30.000Z</time>
      </trkpt>
      <trkpt lat="49.39347" lon="5.77">
        <ele>293.79998779297</ele>
        <time>2022-09-13T10:29:31.000Z</time>
      </trkpt>
      <trkpt lat="49.39349" lon="5.77">
        <ele>293.39999389648</ele>
        <time>2022-09-13T10:29:32.000Z</time>
      </trkpt>
      <trkpt lat="49.3935" lon="5.76999">
        <ele>293.20001220703</ele>
        <time>2022-09-13T10:29:33.000Z</time>
      </trkpt>
      <trkpt lat="49.39351" lon="5.76997">
        <ele>293</ele>
        <time>2022-09-13T10:29:34.000Z</time>
      </trkpt>
      <trkpt lat="49.39352" lon="5.76995">
        <ele>292.79998779297</ele>
        <time>2022-09-13T10:29:35.000Z</time>
      </trkpt>
      <trkpt lat="49.39354" lon="5.76993">
        <ele>292.39999389648</ele>
        <time>2022-09-13T10:29:36.000Z</time>
      </trkpt>
      <trkpt lat="49.39355" lon="5.76992">
        <ele>292.39999389648</ele>
        <time>2022-09-13T10:29:37.000Z</time>
      </trkpt>
      <trkpt lat="49.39361" lon="5.76985">
        <ele>292</ele>
        <time>2022-09-13T10:29:40.000Z</time>
      </trkpt>
      <trkpt lat="49.39363" lon="5.76984">
        <ele>291.79998779297</ele>
        <time>2022-09-13T10:29:41.000Z</time>
      </trkpt>
      <trkpt lat="49.39372" lon="5.76977">
        <ele>290.79998779297</ele>
        <time>2022-09-13T10:29:46.000Z</time>
      </trkpt>
      <trkpt lat="49.39376" lon="5.76971">
        <ele>290.39999389648</ele>
        <time>2022-09-13T10:29:48.000Z</time>
      </trkpt>
      <trkpt lat="49.39378" lon="5.76966">
        <ele>290.39999389648</ele>
        <time>2022-09-13T10:29:49.000Z</time>
      </trkpt>
      <trkpt lat="49.39381" lon="5.76963">
        <ele>290</ele>
        <time>2022-09-13T10:29:50.000Z</time>
      </trkpt>
      <trkpt lat="49.39383" lon="5.76961">
        <ele>289.79998779297</ele>
        <time>2022-09-13T10:29:51.000Z</time>
      </trkpt>
      <trkpt lat="49.39384" lon="5.7696">
        <ele>289.39999389648</ele>
        <time>2022-09-13T10:29:52.000Z</time>
      </trkpt>
      <trkpt lat="49.39389" lon="5.76956">
        <ele>289</ele>
        <time>2022-09-13T10:29:55.000Z</time>
      </trkpt>
      <trkpt lat="49.3939" lon="5.76954">
        <ele>288.79998779297</ele>
        <time>2022-09-13T10:29:56.000Z</time>
      </trkpt>
      <trkpt lat="49.39392" lon="5.76952">
        <ele>288.60000610352</ele>
        <time>2022-09-13T10:29:57.000Z</time>
      </trkpt>
      <trkpt lat="49.39393" lon="5.76951">
        <ele>288.60000610352</ele>
        <time>2022-09-13T10:29:58.000Z</time>
      </trkpt>
      <trkpt lat="49.394" lon="5.76942">
        <ele>288.20001220703</ele>
        <time>2022-09-13T10:30:01.000Z</time>
      </trkpt>
      <trkpt lat="49.39401" lon="5.76938">
        <ele>288</ele>
        <time>2022-09-13T10:30:02.000Z</time>
      </trkpt>
      <trkpt lat="49.39409" lon="5.76931">
        <ele>287.60000610352</ele>
        <time>2022-09-13T10:30:04.000Z</time>
      </trkpt>
      <trkpt lat="49.39419" lon="5.76918">
        <ele>286.79998779297</ele>
        <time>2022-09-13T10:30:07.000Z</time>
      </trkpt>
      <trkpt lat="49.39432" lon="5.76904">
        <ele>285.39999389648</ele>
        <time>2022-09-13T10:30:11.000Z</time>
      </trkpt>
      <trkpt lat="49.39444" lon="5.76895">
        <ele>285</ele>
        <time>2022-09-13T10:30:14.000Z</time>
      </trkpt>
      <trkpt lat="49.39453" lon="5.76889">
        <ele>284.20001220703</ele>
        <time>2022-09-13T10:30:16.000Z</time>
      </trkpt>
      <trkpt lat="49.39468" lon="5.76881">
        <ele>283.79998779297</ele>
        <time>2022-09-13T10:30:19.000Z</time>
      </trkpt>
      <trkpt lat="49.39474" lon="5.76878">
        <ele>283</ele>
        <time>2022-09-13T10:30:20.000Z</time>
      </trkpt>
      <trkpt lat="49.39491" lon="5.76872">
        <ele>281.60000610352</ele>
        <time>2022-09-13T10:30:23.000Z</time>
      </trkpt>
      <trkpt lat="49.39498" lon="5.7687">
        <ele>281.20001220703</ele>
        <time>2022-09-13T10:30:24.000Z</time>
      </trkpt>
      <trkpt lat="49.39504" lon="5.76869">
        <ele>280.39999389648</ele>
        <time>2022-09-13T10:30:25.000Z</time>
      </trkpt>
      <trkpt lat="49.39532" lon="5.76867">
        <ele>279.20001220703</ele>
        <time>2022-09-13T10:30:29.000Z</time>
      </trkpt>
      <trkpt lat="49.39539" lon="5.76866">
        <ele>278.60000610352</ele>
        <time>2022-09-13T10:30:30.000Z</time>
      </trkpt>
      <trkpt lat="49.39555" lon="5.76866">
        <ele>278</ele>
        <time>2022-09-13T10:30:32.000Z</time>
      </trkpt>
      <trkpt lat="49.39576" lon="5.76867">
        <ele>276.79998779297</ele>
        <time>2022-09-13T10:30:35.000Z</time>
      </trkpt>
      <trkpt lat="49.39582" lon="5.76869">
        <ele>276.20001220703</ele>
        <time>2022-09-13T10:30:36.000Z</time>
      </trkpt>
      <trkpt lat="49.39586" lon="5.76869">
        <ele>275.20001220703</ele>
        <time>2022-09-13T10:30:37.000Z</time>
      </trkpt>
      <trkpt lat="49.3959" lon="5.76871">
        <ele>274.79998779297</ele>
        <time>2022-09-13T10:30:38.000Z</time>
      </trkpt>
      <trkpt lat="49.39594" lon="5.76874">
        <ele>274</ele>
        <time>2022-09-13T10:30:39.000Z</time>
      </trkpt>
      <trkpt lat="49.39596" lon="5.76878">
        <ele>273.60000610352</ele>
        <time>2022-09-13T10:30:40.000Z</time>
      </trkpt>
      <trkpt lat="49.39599" lon="5.76881">
        <ele>272.79998779297</ele>
        <time>2022-09-13T10:30:41.000Z</time>
      </trkpt>
      <trkpt lat="49.39602" lon="5.76884">
        <ele>272.79998779297</ele>
        <time>2022-09-13T10:30:42.000Z</time>
      </trkpt>
      <trkpt lat="49.39604" lon="5.76887">
        <ele>272.20001220703</ele>
        <time>2022-09-13T10:30:43.000Z</time>
      </trkpt>
      <trkpt lat="49.39606" lon="5.7689">
        <ele>271.79998779297</ele>
        <time>2022-09-13T10:30:44.000Z</time>
      </trkpt>
      <trkpt lat="49.39608" lon="5.76894">
        <ele>271.39999389648</ele>
        <time>2022-09-13T10:30:45.000Z</time>
      </trkpt>
      <trkpt lat="49.39609" lon="5.76898">
        <ele>271</ele>
        <time>2022-09-13T10:30:46.000Z</time>
      </trkpt>
      <trkpt lat="49.39611" lon="5.76901">
        <ele>270.79998779297</ele>
        <time>2022-09-13T10:30:47.000Z</time>
      </trkpt>
      <trkpt lat="49.39612" lon="5.76905">
        <ele>270.60000610352</ele>
        <time>2022-09-13T10:30:48.000Z</time>
      </trkpt>
      <trkpt lat="49.39612" lon="5.76909">
        <ele>270.20001220703</ele>
        <time>2022-09-13T10:30:49.000Z</time>
      </trkpt>
      <trkpt lat="49.39615" lon="5.7693">
        <ele>269.20001220703</ele>
        <time>2022-09-13T10:30:53.000Z</time>
      </trkpt>
      <trkpt lat="49.39615" lon="5.76948">
        <ele>268.60000610352</ele>
        <time>2022-09-13T10:30:57.000Z</time>
      </trkpt>
      <trkpt lat="49.39615" lon="5.76957">
        <ele>268.60000610352</ele>
        <time>2022-09-13T10:30:59.000Z</time>
      </trkpt>
      <trkpt lat="49.39614" lon="5.7696">
        <ele>268.60000610352</ele>
        <time>2022-09-13T10:31:00.000Z</time>
      </trkpt>
      <trkpt lat="49.39613" lon="5.76963">
        <ele>268.60000610352</ele>
        <time>2022-09-13T10:31:01.000Z</time>
      </trkpt>
      <trkpt lat="49.39613" lon="5.76966">
        <ele>268.60000610352</ele>
        <time>2022-09-13T10:31:02.000Z</time>
      </trkpt>
      <trkpt lat="49.39612" lon="5.76968">
        <ele>268.60000610352</ele>
        <time>2022-09-13T10:31:03.000Z</time>
      </trkpt>
      <trkpt lat="49.39611" lon="5.76969">
        <ele>268.60000610352</ele>
        <time>2022-09-13T10:31:04.000Z</time>
      </trkpt>
      <trkpt lat="49.3961" lon="5.7697">
        <ele>268.60000610352</ele>
        <time>2022-09-13T10:31:05.000Z</time>
      </trkpt>
      <trkpt lat="49.3961" lon="5.76972">
        <ele>268.79998779297</ele>
        <time>2022-09-13T10:31:06.000Z</time>
      </trkpt>
      <trkpt lat="49.3961" lon="5.76975">
        <ele>268.79998779297</ele>
        <time>2022-09-13T10:31:07.000Z</time>
      </trkpt>
      <trkpt lat="49.39619" lon="5.76979">
        <ele>269.39999389648</ele>
        <time>2022-09-13T10:31:11.000Z</time>
      </trkpt>
      <trkpt lat="49.3962" lon="5.76981">
        <ele>269.60000610352</ele>
        <time>2022-09-13T10:31:12.000Z</time>
      </trkpt>
      <trkpt lat="49.39621" lon="5.76983">
        <ele>269.79998779297</ele>
        <time>2022-09-13T10:31:13.000Z</time>
      </trkpt>
      <trkpt lat="49.39623" lon="5.76984">
        <ele>270</ele>
        <time>2022-09-13T10:31:14.000Z</time>
      </trkpt>
      <trkpt lat="49.39624" lon="5.76984">
        <ele>270.20001220703</ele>
        <time>2022-09-13T10:31:15.000Z</time>
      </trkpt>
      <trkpt lat="49.39625" lon="5.76983">
        <ele>270.39999389648</ele>
        <time>2022-09-13T10:31:16.000Z</time>
      </trkpt>
      <trkpt lat="49.39626" lon="5.76983">
        <ele>270.39999389648</ele>
        <time>2022-09-13T10:31:17.000Z</time>
      </trkpt>
      <trkpt lat="49.39627" lon="5.76982">
        <ele>270.60000610352</ele>
        <time>2022-09-13T10:31:18.000Z</time>
      </trkpt>
      <trkpt lat="49.39629" lon="5.76982">
        <ele>270.79998779297</ele>
        <time>2022-09-13T10:31:19.000Z</time>
      </trkpt>
      <trkpt lat="49.39631" lon="5.76983">
        <ele>271</ele>
        <time>2022-09-13T10:31:20.000Z</time>
      </trkpt>
      <trkpt lat="49.39633" lon="5.76983">
        <ele>271.20001220703</ele>
        <time>2022-09-13T10:31:21.000Z</time>
      </trkpt>
      <trkpt lat="49.39634" lon="5.76983">
        <ele>271.20001220703</ele>
        <time>2022-09-13T10:31:22.000Z</time>
      </trkpt>
      <trkpt lat="49.39636" lon="5.76983">
        <ele>271.39999389648</ele>
        <time>2022-09-13T10:31:23.000Z</time>
      </trkpt>
      <trkpt lat="49.39638" lon="5.76983">
        <ele>271.39999389648</ele>
        <time>2022-09-13T10:31:24.000Z</time>
      </trkpt>
      <trkpt lat="49.3964" lon="5.76983">
        <ele>271.39999389648</ele>
        <time>2022-09-13T10:31:25.000Z</time>
      </trkpt>
      <trkpt lat="49.39641" lon="5.76983">
        <ele>271.60000610352</ele>
        <time>2022-09-13T10:31:26.000Z</time>
      </trkpt>
      <trkpt lat="49.39644" lon="5.76983">
        <ele>271.60000610352</ele>
        <time>2022-09-13T10:31:28.000Z</time>
      </trkpt>
      <trkpt lat="49.39646" lon="5.76982">
        <ele>271.79998779297</ele>
        <time>2022-09-13T10:31:29.000Z</time>
      </trkpt>
      <trkpt lat="49.39646" lon="5.76982">
        <ele>271.79998779297</ele>
        <time>2022-09-13T10:31:30.000Z</time>
      </trkpt>
      <trkpt lat="49.39648" lon="5.76982">
        <ele>271.79998779297</ele>
        <time>2022-09-13T10:31:31.000Z</time>
      </trkpt>
      <trkpt lat="49.3965" lon="5.7698">
        <ele>271.79998779297</ele>
        <time>2022-09-13T10:31:32.000Z</time>
      </trkpt>
      <trkpt lat="49.39653" lon="5.76974">
        <ele>271.79998779297</ele>
        <time>2022-09-13T10:31:33.000Z</time>
      </trkpt>
      <trkpt lat="49.39655" lon="5.76972">
        <ele>271.79998779297</ele>
        <time>2022-09-13T10:31:34.000Z</time>
      </trkpt>
      <trkpt lat="49.39658" lon="5.76971">
        <ele>271.39999389648</ele>
        <time>2022-09-13T10:31:35.000Z</time>
      </trkpt>
      <trkpt lat="49.39664" lon="5.7697">
        <ele>271.39999389648</ele>
        <time>2022-09-13T10:31:37.000Z</time>
      </trkpt>
      <trkpt lat="49.39667" lon="5.76969">
        <ele>271.39999389648</ele>
        <time>2022-09-13T10:31:38.000Z</time>
      </trkpt>
      <trkpt lat="49.39668" lon="5.7697">
        <ele>271.39999389648</ele>
        <time>2022-09-13T10:31:39.000Z</time>
      </trkpt>
      <trkpt lat="49.39671" lon="5.76968">
        <ele>271.20001220703</ele>
        <time>2022-09-13T10:31:40.000Z</time>
      </trkpt>
      <trkpt lat="49.39684" lon="5.7696">
        <ele>271</ele>
        <time>2022-09-13T10:31:44.000Z</time>
      </trkpt>
      <trkpt lat="49.39688" lon="5.76957">
        <ele>271</ele>
        <time>2022-09-13T10:31:45.000Z</time>
      </trkpt>
      <trkpt lat="49.39691" lon="5.76955">
        <ele>271</ele>
        <time>2022-09-13T10:31:46.000Z</time>
      </trkpt>
      <trkpt lat="49.39695" lon="5.76954">
        <ele>271</ele>
        <time>2022-09-13T10:31:47.000Z</time>
      </trkpt>
      <trkpt lat="49.39698" lon="5.76955">
        <ele>270.79998779297</ele>
        <time>2022-09-13T10:31:48.000Z</time>
      </trkpt>
      <trkpt lat="49.397" lon="5.76955">
        <ele>270.79998779297</ele>
        <time>2022-09-13T10:31:49.000Z</time>
      </trkpt>
      <trkpt lat="49.39703" lon="5.76956">
        <ele>270.79998779297</ele>
        <time>2022-09-13T10:31:50.000Z</time>
      </trkpt>
      <trkpt lat="49.39717" lon="5.76955">
        <ele>270.79998779297</ele>
        <time>2022-09-13T10:31:54.000Z</time>
      </trkpt>
      <trkpt lat="49.39721" lon="5.76953">
        <ele>270.79998779297</ele>
        <time>2022-09-13T10:31:55.000Z</time>
      </trkpt>
      <trkpt lat="49.39723" lon="5.76952">
        <ele>270.79998779297</ele>
        <time>2022-09-13T10:31:56.000Z</time>
      </trkpt>
      <trkpt lat="49.39732" lon="5.76947">
        <ele>270.79998779297</ele>
        <time>2022-09-13T10:31:59.000Z</time>
      </trkpt>
      <trkpt lat="49.39732" lon="5.76947">
        <ele>271</ele>
        <time>2022-09-13T10:32:00.000Z</time>
      </trkpt>
      <trkpt lat="49.39733" lon="5.76945">
        <ele>271</ele>
        <time>2022-09-13T10:32:01.000Z</time>
      </trkpt>
      <trkpt lat="49.39735" lon="5.76943">
        <ele>271</ele>
        <time>2022-09-13T10:32:02.000Z</time>
      </trkpt>
      <trkpt lat="49.39738" lon="5.76942">
        <ele>271</ele>
        <time>2022-09-13T10:32:03.000Z</time>
      </trkpt>
      <trkpt lat="49.39738" lon="5.76942">
        <ele>271</ele>
        <time>2022-09-13T10:32:04.000Z</time>
      </trkpt>
      <trkpt lat="49.39751" lon="5.76936">
        <ele>271.39999389648</ele>
        <time>2022-09-13T10:32:09.000Z</time>
      </trkpt>
      <trkpt lat="49.39753" lon="5.76935">
        <ele>271.39999389648</ele>
        <time>2022-09-13T10:32:10.000Z</time>
      </trkpt>
      <trkpt lat="49.3976" lon="5.76933">
        <ele>271.79998779297</ele>
        <time>2022-09-13T10:32:12.000Z</time>
      </trkpt>
      <trkpt lat="49.39764" lon="5.76931">
        <ele>272</ele>
        <time>2022-09-13T10:32:13.000Z</time>
      </trkpt>
      <trkpt lat="49.39767" lon="5.76929">
        <ele>272</ele>
        <time>2022-09-13T10:32:14.000Z</time>
      </trkpt>
      <trkpt lat="49.39769" lon="5.76927">
        <ele>272</ele>
        <time>2022-09-13T10:32:16.000Z</time>
      </trkpt>
      <trkpt lat="49.39771" lon="5.76926">
        <ele>272.20001220703</ele>
        <time>2022-09-13T10:32:17.000Z</time>
      </trkpt>
      <trkpt lat="49.39774" lon="5.76924">
        <ele>272.39999389648</ele>
        <time>2022-09-13T10:32:18.000Z</time>
      </trkpt>
      <trkpt lat="49.39776" lon="5.76922">
        <ele>272.39999389648</ele>
        <time>2022-09-13T10:32:19.000Z</time>
      </trkpt>
      <trkpt lat="49.39779" lon="5.7692">
        <ele>272.60000610352</ele>
        <time>2022-09-13T10:32:20.000Z</time>
      </trkpt>
      <trkpt lat="49.39783" lon="5.76916">
        <ele>272.60000610352</ele>
        <time>2022-09-13T10:32:22.000Z</time>
      </trkpt>
      <trkpt lat="49.39789" lon="5.76912">
        <ele>272.79998779297</ele>
        <time>2022-09-13T10:32:24.000Z</time>
      </trkpt>
      <trkpt lat="49.39798" lon="5.76908">
        <ele>273</ele>
        <time>2022-09-13T10:32:26.000Z</time>
      </trkpt>
      <trkpt lat="49.39799" lon="5.76908">
        <ele>273</ele>
        <time>2022-09-13T10:32:27.000Z</time>
      </trkpt>
      <trkpt lat="49.398" lon="5.76907">
        <ele>273.20001220703</ele>
        <time>2022-09-13T10:32:28.000Z</time>
      </trkpt>
      <trkpt lat="49.39802" lon="5.76906">
        <ele>273.39999389648</ele>
        <time>2022-09-13T10:32:29.000Z</time>
      </trkpt>
      <trkpt lat="49.39805" lon="5.76908">
        <ele>273.79998779297</ele>
        <time>2022-09-13T10:32:30.000Z</time>
      </trkpt>
      <trkpt lat="49.39811" lon="5.76909">
        <ele>274</ele>
        <time>2022-09-13T10:32:31.000Z</time>
      </trkpt>
      <trkpt lat="49.39815" lon="5.76911">
        <ele>274.39999389648</ele>
        <time>2022-09-13T10:32:32.000Z</time>
      </trkpt>
      <trkpt lat="49.39816" lon="5.76911">
        <ele>274.60000610352</ele>
        <time>2022-09-13T10:32:33.000Z</time>
      </trkpt>
      <trkpt lat="49.39818" lon="5.7691">
        <ele>274.79998779297</ele>
        <time>2022-09-13T10:32:34.000Z</time>
      </trkpt>
      <trkpt lat="49.39819" lon="5.76909">
        <ele>275</ele>
        <time>2022-09-13T10:32:35.000Z</time>
      </trkpt>
      <trkpt lat="49.3982" lon="5.76909">
        <ele>275.20001220703</ele>
        <time>2022-09-13T10:32:36.000Z</time>
      </trkpt>
      <trkpt lat="49.39822" lon="5.76911">
        <ele>275.79998779297</ele>
        <time>2022-09-13T10:32:37.000Z</time>
      </trkpt>
      <trkpt lat="49.39822" lon="5.76912">
        <ele>276</ele>
        <time>2022-09-13T10:32:38.000Z</time>
      </trkpt>
      <trkpt lat="49.39823" lon="5.76913">
        <ele>276.39999389648</ele>
        <time>2022-09-13T10:32:39.000Z</time>
      </trkpt>
      <trkpt lat="49.39823" lon="5.76915">
        <ele>276.60000610352</ele>
        <time>2022-09-13T10:32:40.000Z</time>
      </trkpt>
      <trkpt lat="49.39823" lon="5.76917">
        <ele>277.20001220703</ele>
        <time>2022-09-13T10:32:41.000Z</time>
      </trkpt>
      <trkpt lat="49.39823" lon="5.76917">
        <ele>277.39999389648</ele>
        <time>2022-09-13T10:32:42.000Z</time>
      </trkpt>
      <trkpt lat="49.39823" lon="5.76918">
        <ele>277.79998779297</ele>
        <time>2022-09-13T10:32:43.000Z</time>
      </trkpt>
      <trkpt lat="49.39823" lon="5.76919">
        <ele>278</ele>
        <time>2022-09-13T10:32:44.000Z</time>
      </trkpt>
      <trkpt lat="49.39824" lon="5.76921">
        <ele>278.39999389648</ele>
        <time>2022-09-13T10:32:45.000Z</time>
      </trkpt>
      <trkpt lat="49.39824" lon="5.76923">
        <ele>278.79998779297</ele>
        <time>2022-09-13T10:32:46.000Z</time>
      </trkpt>
      <trkpt lat="49.39824" lon="5.76923">
        <ele>278.79998779297</ele>
        <time>2022-09-13T10:32:47.000Z</time>
      </trkpt>
      <trkpt lat="49.39824" lon="5.76923">
        <ele>279.39999389648</ele>
        <time>2022-09-13T10:32:48.000Z</time>
      </trkpt>
      <trkpt lat="49.39824" lon="5.76926">
        <ele>280</ele>
        <time>2022-09-13T10:32:50.000Z</time>
      </trkpt>
      <trkpt lat="49.39824" lon="5.76928">
        <ele>280</ele>
        <time>2022-09-13T10:32:51.000Z</time>
      </trkpt>
      <trkpt lat="49.39824" lon="5.7693">
        <ele>280.39999389648</ele>
        <time>2022-09-13T10:32:52.000Z</time>
      </trkpt>
      <trkpt lat="49.39823" lon="5.76931">
        <ele>280.79998779297</ele>
        <time>2022-09-13T10:32:53.000Z</time>
      </trkpt>
      <trkpt lat="49.39822" lon="5.76932">
        <ele>281</ele>
        <time>2022-09-13T10:32:54.000Z</time>
      </trkpt>
      <trkpt lat="49.39821" lon="5.76935">
        <ele>281.20001220703</ele>
        <time>2022-09-13T10:32:55.000Z</time>
      </trkpt>
      <trkpt lat="49.39821" lon="5.76938">
        <ele>281.60000610352</ele>
        <time>2022-09-13T10:32:56.000Z</time>
      </trkpt>
      <trkpt lat="49.3982" lon="5.7694">
        <ele>281.79998779297</ele>
        <time>2022-09-13T10:32:57.000Z</time>
      </trkpt>
      <trkpt lat="49.39819" lon="5.76942">
        <ele>282</ele>
        <time>2022-09-13T10:32:58.000Z</time>
      </trkpt>
      <trkpt lat="49.39818" lon="5.76944">
        <ele>282.39999389648</ele>
        <time>2022-09-13T10:32:59.000Z</time>
      </trkpt>
      <trkpt lat="49.39818" lon="5.76947">
        <ele>282.79998779297</ele>
        <time>2022-09-13T10:33:00.000Z</time>
      </trkpt>
      <trkpt lat="49.39817" lon="5.7695">
        <ele>283</ele>
        <time>2022-09-13T10:33:01.000Z</time>
      </trkpt>
      <trkpt lat="49.39816" lon="5.76953">
        <ele>283.60000610352</ele>
        <time>2022-09-13T10:33:02.000Z</time>
      </trkpt>
      <trkpt lat="49.39815" lon="5.76956">
        <ele>284</ele>
        <time>2022-09-13T10:33:03.000Z</time>
      </trkpt>
      <trkpt lat="49.39814" lon="5.7696">
        <ele>284.60000610352</ele>
        <time>2022-09-13T10:33:04.000Z</time>
      </trkpt>
      <trkpt lat="49.39812" lon="5.76964">
        <ele>284.79998779297</ele>
        <time>2022-09-13T10:33:05.000Z</time>
      </trkpt>
      <trkpt lat="49.3981" lon="5.76967">
        <ele>285.39999389648</ele>
        <time>2022-09-13T10:33:06.000Z</time>
      </trkpt>
      <trkpt lat="49.39807" lon="5.76971">
        <ele>285.79998779297</ele>
        <time>2022-09-13T10:33:07.000Z</time>
      </trkpt>
      <trkpt lat="49.39805" lon="5.76974">
        <ele>286.20001220703</ele>
        <time>2022-09-13T10:33:08.000Z</time>
      </trkpt>
      <trkpt lat="49.39803" lon="5.76978">
        <ele>286.60000610352</ele>
        <time>2022-09-13T10:33:09.000Z</time>
      </trkpt>
      <trkpt lat="49.39802" lon="5.76979">
        <ele>286.60000610352</ele>
        <time>2022-09-13T10:33:10.000Z</time>
      </trkpt>
      <trkpt lat="49.39802" lon="5.7698">
        <ele>287</ele>
        <time>2022-09-13T10:33:11.000Z</time>
      </trkpt>
      <trkpt lat="49.39801" lon="5.7698">
        <ele>287.20001220703</ele>
        <time>2022-09-13T10:33:12.000Z</time>
      </trkpt>
      <trkpt lat="49.39798" lon="5.7698">
        <ele>287.60000610352</ele>
        <time>2022-09-13T10:33:13.000Z</time>
      </trkpt>
      <trkpt lat="49.39796" lon="5.76982">
        <ele>287.79998779297</ele>
        <time>2022-09-13T10:33:14.000Z</time>
      </trkpt>
      <trkpt lat="49.39794" lon="5.76983">
        <ele>288.39999389648</ele>
        <time>2022-09-13T10:33:15.000Z</time>
      </trkpt>
      <trkpt lat="49.39791" lon="5.76985">
        <ele>289</ele>
        <time>2022-09-13T10:33:16.000Z</time>
      </trkpt>
      <trkpt lat="49.3979" lon="5.76987">
        <ele>289.39999389648</ele>
        <time>2022-09-13T10:33:17.000Z</time>
      </trkpt>
      <trkpt lat="49.39788" lon="5.76988">
        <ele>289.79998779297</ele>
        <time>2022-09-13T10:33:18.000Z</time>
      </trkpt>
      <trkpt lat="49.39787" lon="5.7699">
        <ele>290</ele>
        <time>2022-09-13T10:33:19.000Z</time>
      </trkpt>
      <trkpt lat="49.39784" lon="5.76992">
        <ele>290.20001220703</ele>
        <time>2022-09-13T10:33:20.000Z</time>
      </trkpt>
      <trkpt lat="49.39781" lon="5.76994">
        <ele>290.20001220703</ele>
        <time>2022-09-13T10:33:21.000Z</time>
      </trkpt>
      <trkpt lat="49.39778" lon="5.76997">
        <ele>290.20001220703</ele>
        <time>2022-09-13T10:33:22.000Z</time>
      </trkpt>
      <trkpt lat="49.39775" lon="5.76997">
        <ele>290.39999389648</ele>
        <time>2022-09-13T10:33:23.000Z</time>
      </trkpt>
      <trkpt lat="49.39773" lon="5.76999">
        <ele>290.39999389648</ele>
        <time>2022-09-13T10:33:24.000Z</time>
      </trkpt>
      <trkpt lat="49.39772" lon="5.76999">
        <ele>290.39999389648</ele>
        <time>2022-09-13T10:33:25.000Z</time>
      </trkpt>
      <trkpt lat="49.39769" lon="5.77001">
        <ele>290.39999389648</ele>
        <time>2022-09-13T10:33:26.000Z</time>
      </trkpt>
      <trkpt lat="49.39768" lon="5.77003">
        <ele>290.39999389648</ele>
        <time>2022-09-13T10:33:27.000Z</time>
      </trkpt>
      <trkpt lat="49.39767" lon="5.77006">
        <ele>290.39999389648</ele>
        <time>2022-09-13T10:33:28.000Z</time>
      </trkpt>
      <trkpt lat="49.39764" lon="5.77008">
        <ele>290.39999389648</ele>
        <time>2022-09-13T10:33:29.000Z</time>
      </trkpt>
      <trkpt lat="49.39762" lon="5.77009">
        <ele>290.39999389648</ele>
        <time>2022-09-13T10:33:30.000Z</time>
      </trkpt>
      <trkpt lat="49.3976" lon="5.7701">
        <ele>290.39999389648</ele>
        <time>2022-09-13T10:33:31.000Z</time>
      </trkpt>
      <trkpt lat="49.39759" lon="5.77012">
        <ele>290.60000610352</ele>
        <time>2022-09-13T10:33:32.000Z</time>
      </trkpt>
      <trkpt lat="49.39758" lon="5.77012">
        <ele>290.60000610352</ele>
        <time>2022-09-13T10:33:33.000Z</time>
      </trkpt>
      <trkpt lat="49.39758" lon="5.77014">
        <ele>290.60000610352</ele>
        <time>2022-09-13T10:33:34.000Z</time>
      </trkpt>
      <trkpt lat="49.39758" lon="5.77017">
        <ele>290.79998779297</ele>
        <time>2022-09-13T10:33:35.000Z</time>
      </trkpt>
      <trkpt lat="49.39757" lon="5.77019">
        <ele>290.79998779297</ele>
        <time>2022-09-13T10:33:36.000Z</time>
      </trkpt>
      <trkpt lat="49.39756" lon="5.7702">
        <ele>290.79998779297</ele>
        <time>2022-09-13T10:33:37.000Z</time>
      </trkpt>
      <trkpt lat="49.39754" lon="5.77022">
        <ele>291</ele>
        <time>2022-09-13T10:33:38.000Z</time>
      </trkpt>
      <trkpt lat="49.39752" lon="5.77023">
        <ele>291</ele>
        <time>2022-09-13T10:33:39.000Z</time>
      </trkpt>
      <trkpt lat="49.3975" lon="5.77025">
        <ele>291.20001220703</ele>
        <time>2022-09-13T10:33:40.000Z</time>
      </trkpt>
      <trkpt lat="49.39748" lon="5.77027">
        <ele>291.20001220703</ele>
        <time>2022-09-13T10:33:41.000Z</time>
      </trkpt>
      <trkpt lat="49.39747" lon="5.77029">
        <ele>291.39999389648</ele>
        <time>2022-09-13T10:33:42.000Z</time>
      </trkpt>
      <trkpt lat="49.39746" lon="5.7703">
        <ele>291.60000610352</ele>
        <time>2022-09-13T10:33:43.000Z</time>
      </trkpt>
      <trkpt lat="49.39745" lon="5.77031">
        <ele>291.79998779297</ele>
        <time>2022-09-13T10:33:44.000Z</time>
      </trkpt>
      <trkpt lat="49.39744" lon="5.77032">
        <ele>291.79998779297</ele>
        <time>2022-09-13T10:33:45.000Z</time>
      </trkpt>
      <trkpt lat="49.39742" lon="5.77034">
        <ele>292</ele>
        <time>2022-09-13T10:33:46.000Z</time>
      </trkpt>
      <trkpt lat="49.39739" lon="5.77037">
        <ele>292.20001220703</ele>
        <time>2022-09-13T10:33:47.000Z</time>
      </trkpt>
      <trkpt lat="49.39738" lon="5.7704">
        <ele>292.39999389648</ele>
        <time>2022-09-13T10:33:48.000Z</time>
      </trkpt>
      <trkpt lat="49.39736" lon="5.77041">
        <ele>292.60000610352</ele>
        <time>2022-09-13T10:33:49.000Z</time>
      </trkpt>
      <trkpt lat="49.39734" lon="5.77043">
        <ele>292.60000610352</ele>
        <time>2022-09-13T10:33:50.000Z</time>
      </trkpt>
      <trkpt lat="49.39731" lon="5.77043">
        <ele>292.60000610352</ele>
        <time>2022-09-13T10:33:51.000Z</time>
      </trkpt>
      <trkpt lat="49.39728" lon="5.77044">
        <ele>292.60000610352</ele>
        <time>2022-09-13T10:33:52.000Z</time>
      </trkpt>
      <trkpt lat="49.39725" lon="5.77046">
        <ele>292.60000610352</ele>
        <time>2022-09-13T10:33:53.000Z</time>
      </trkpt>
      <trkpt lat="49.3972" lon="5.77047">
        <ele>292.60000610352</ele>
        <time>2022-09-13T10:33:54.000Z</time>
      </trkpt>
      <trkpt lat="49.39717" lon="5.77049">
        <ele>292.60000610352</ele>
        <time>2022-09-13T10:33:55.000Z</time>
      </trkpt>
      <trkpt lat="49.39714" lon="5.77054">
        <ele>292.60000610352</ele>
        <time>2022-09-13T10:33:56.000Z</time>
      </trkpt>
      <trkpt lat="49.39713" lon="5.7706">
        <ele>292.60000610352</ele>
        <time>2022-09-13T10:33:57.000Z</time>
      </trkpt>
      <trkpt lat="49.39711" lon="5.77065">
        <ele>292.39999389648</ele>
        <time>2022-09-13T10:33:58.000Z</time>
      </trkpt>
      <trkpt lat="49.3971" lon="5.77068">
        <ele>292.20001220703</ele>
        <time>2022-09-13T10:33:59.000Z</time>
      </trkpt>
      <trkpt lat="49.39709" lon="5.77072">
        <ele>292.20001220703</ele>
        <time>2022-09-13T10:34:00.000Z</time>
      </trkpt>
      <trkpt lat="49.39708" lon="5.77075">
        <ele>292.39999389648</ele>
        <time>2022-09-13T10:34:01.000Z</time>
      </trkpt>
      <trkpt lat="49.39709" lon="5.77078">
        <ele>292.39999389648</ele>
        <time>2022-09-13T10:34:02.000Z</time>
      </trkpt>
      <trkpt lat="49.39709" lon="5.7708">
        <ele>292.39999389648</ele>
        <time>2022-09-13T10:34:03.000Z</time>
      </trkpt>
      <trkpt lat="49.3971" lon="5.77083">
        <ele>292.39999389648</ele>
        <time>2022-09-13T10:34:04.000Z</time>
      </trkpt>
      <trkpt lat="49.39711" lon="5.77086">
        <ele>292.39999389648</ele>
        <time>2022-09-13T10:34:05.000Z</time>
      </trkpt>
      <trkpt lat="49.39713" lon="5.77089">
        <ele>292.60000610352</ele>
        <time>2022-09-13T10:34:06.000Z</time>
      </trkpt>
      <trkpt lat="49.3972" lon="5.77099">
        <ele>292.60000610352</ele>
        <time>2022-09-13T10:34:10.000Z</time>
      </trkpt>
      <trkpt lat="49.39721" lon="5.77102">
        <ele>292.79998779297</ele>
        <time>2022-09-13T10:34:11.000Z</time>
      </trkpt>
      <trkpt lat="49.39724" lon="5.77107">
        <ele>292.79998779297</ele>
        <time>2022-09-13T10:34:14.000Z</time>
      </trkpt>
      <trkpt lat="49.39724" lon="5.77108">
        <ele>292.79998779297</ele>
        <time>2022-09-13T10:34:15.000Z</time>
      </trkpt>
      <trkpt lat="49.39724" lon="5.7711">
        <ele>292.79998779297</ele>
        <time>2022-09-13T10:34:16.000Z</time>
      </trkpt>
      <trkpt lat="49.39724" lon="5.77115">
        <ele>292.79998779297</ele>
        <time>2022-09-13T10:34:17.000Z</time>
      </trkpt>
      <trkpt lat="49.39728" lon="5.77132">
        <ele>292.60000610352</ele>
        <time>2022-09-13T10:34:20.000Z</time>
      </trkpt>
      <trkpt lat="49.39726" lon="5.77143">
        <ele>292.39999389648</ele>
        <time>2022-09-13T10:34:22.000Z</time>
      </trkpt>
      <trkpt lat="49.39727" lon="5.77148">
        <ele>292.39999389648</ele>
        <time>2022-09-13T10:34:23.000Z</time>
      </trkpt>
      <trkpt lat="49.39727" lon="5.77153">
        <ele>291.60000610352</ele>
        <time>2022-09-13T10:34:25.000Z</time>
      </trkpt>
      <trkpt lat="49.39727" lon="5.77157">
        <ele>291.39999389648</ele>
        <time>2022-09-13T10:34:26.000Z</time>
      </trkpt>
      <trkpt lat="49.39726" lon="5.77159">
        <ele>291.20001220703</ele>
        <time>2022-09-13T10:34:27.000Z</time>
      </trkpt>
      <trkpt lat="49.39724" lon="5.77161">
        <ele>291</ele>
        <time>2022-09-13T10:34:28.000Z</time>
      </trkpt>
      <trkpt lat="49.3972" lon="5.77161">
        <ele>290.79998779297</ele>
        <time>2022-09-13T10:34:30.000Z</time>
      </trkpt>
      <trkpt lat="49.39718" lon="5.77161">
        <ele>290.79998779297</ele>
        <time>2022-09-13T10:34:31.000Z</time>
      </trkpt>
      <trkpt lat="49.39713" lon="5.77166">
        <ele>290.79998779297</ele>
        <time>2022-09-13T10:34:33.000Z</time>
      </trkpt>
      <trkpt lat="49.39711" lon="5.77169">
        <ele>290.79998779297</ele>
        <time>2022-09-13T10:34:34.000Z</time>
      </trkpt>
      <trkpt lat="49.39708" lon="5.77177">
        <ele>290.79998779297</ele>
        <time>2022-09-13T10:34:36.000Z</time>
      </trkpt>
      <trkpt lat="49.39706" lon="5.77181">
        <ele>290.79998779297</ele>
        <time>2022-09-13T10:34:37.000Z</time>
      </trkpt>
      <trkpt lat="49.397" lon="5.77191">
        <ele>291.20001220703</ele>
        <time>2022-09-13T10:34:40.000Z</time>
      </trkpt>
      <trkpt lat="49.39698" lon="5.77194">
        <ele>291.39999389648</ele>
        <time>2022-09-13T10:34:41.000Z</time>
      </trkpt>
      <trkpt lat="49.39697" lon="5.77198">
        <ele>291.60000610352</ele>
        <time>2022-09-13T10:34:42.000Z</time>
      </trkpt>
      <trkpt lat="49.39687" lon="5.7722">
        <ele>291.79998779297</ele>
        <time>2022-09-13T10:34:48.000Z</time>
      </trkpt>
      <trkpt lat="49.39681" lon="5.77233">
        <ele>291.79998779297</ele>
        <time>2022-09-13T10:34:52.000Z</time>
      </trkpt>
      <trkpt lat="49.3968" lon="5.77236">
        <ele>292</ele>
        <time>2022-09-13T10:34:53.000Z</time>
      </trkpt>
      <trkpt lat="49.39678" lon="5.7724">
        <ele>292.20001220703</ele>
        <time>2022-09-13T10:34:54.000Z</time>
      </trkpt>
      <trkpt lat="49.39677" lon="5.77244">
        <ele>292.39999389648</ele>
        <time>2022-09-13T10:34:55.000Z</time>
      </trkpt>
      <trkpt lat="49.39675" lon="5.77247">
        <ele>292.60000610352</ele>
        <time>2022-09-13T10:34:56.000Z</time>
      </trkpt>
      <trkpt lat="49.39672" lon="5.77254">
        <ele>292.79998779297</ele>
        <time>2022-09-13T10:34:58.000Z</time>
      </trkpt>
      <trkpt lat="49.39667" lon="5.77268">
        <ele>293.20001220703</ele>
        <time>2022-09-13T10:35:02.000Z</time>
      </trkpt>
      <trkpt lat="49.39662" lon="5.77278">
        <ele>293.39999389648</ele>
        <time>2022-09-13T10:35:05.000Z</time>
      </trkpt>
      <trkpt lat="49.39659" lon="5.77288">
        <ele>293.60000610352</ele>
        <time>2022-09-13T10:35:08.000Z</time>
      </trkpt>
      <trkpt lat="49.39657" lon="5.77291">
        <ele>293.60000610352</ele>
        <time>2022-09-13T10:35:09.000Z</time>
      </trkpt>
      <trkpt lat="49.39656" lon="5.77294">
        <ele>293.79998779297</ele>
        <time>2022-09-13T10:35:10.000Z</time>
      </trkpt>
      <trkpt lat="49.39655" lon="5.77297">
        <ele>293.79998779297</ele>
        <time>2022-09-13T10:35:11.000Z</time>
      </trkpt>
      <trkpt lat="49.39655" lon="5.77301">
        <ele>294</ele>
        <time>2022-09-13T10:35:12.000Z</time>
      </trkpt>
      <trkpt lat="49.39654" lon="5.77304">
        <ele>294.20001220703</ele>
        <time>2022-09-13T10:35:13.000Z</time>
      </trkpt>
      <trkpt lat="49.39653" lon="5.77308">
        <ele>294.20001220703</ele>
        <time>2022-09-13T10:35:14.000Z</time>
      </trkpt>
      <trkpt lat="49.39652" lon="5.77311">
        <ele>294.20001220703</ele>
        <time>2022-09-13T10:35:15.000Z</time>
      </trkpt>
      <trkpt lat="49.3965" lon="5.77316">
        <ele>294.60000610352</ele>
        <time>2022-09-13T10:35:17.000Z</time>
      </trkpt>
      <trkpt lat="49.39649" lon="5.77319">
        <ele>294.60000610352</ele>
        <time>2022-09-13T10:35:18.000Z</time>
      </trkpt>
      <trkpt lat="49.39647" lon="5.77326">
        <ele>294.79998779297</ele>
        <time>2022-09-13T10:35:20.000Z</time>
      </trkpt>
      <trkpt lat="49.39642" lon="5.77354">
        <ele>295.20001220703</ele>
        <time>2022-09-13T10:35:27.000Z</time>
      </trkpt>
      <trkpt lat="49.39641" lon="5.77362">
        <ele>295.20001220703</ele>
        <time>2022-09-13T10:35:29.000Z</time>
      </trkpt>
      <trkpt lat="49.39638" lon="5.77392">
        <ele>295</ele>
        <time>2022-09-13T10:35:36.000Z</time>
      </trkpt>
      <trkpt lat="49.39637" lon="5.7743">
        <ele>295.20001220703</ele>
        <time>2022-09-13T10:35:44.000Z</time>
      </trkpt>
      <trkpt lat="49.39638" lon="5.77462">
        <ele>295</ele>
        <time>2022-09-13T10:35:50.000Z</time>
      </trkpt>
      <trkpt lat="49.39639" lon="5.77499">
        <ele>294.79998779297</ele>
        <time>2022-09-13T10:35:57.000Z</time>
      </trkpt>
      <trkpt lat="49.39641" lon="5.77533">
        <ele>294.60000610352</ele>
        <time>2022-09-13T10:36:04.000Z</time>
      </trkpt>
      <trkpt lat="49.39642" lon="5.77538">
        <ele>294.60000610352</ele>
        <time>2022-09-13T10:36:05.000Z</time>
      </trkpt>
      <trkpt lat="49.39642" lon="5.77543">
        <ele>294.60000610352</ele>
        <time>2022-09-13T10:36:06.000Z</time>
      </trkpt>
      <trkpt lat="49.39642" lon="5.77548">
        <ele>294.60000610352</ele>
        <time>2022-09-13T10:36:07.000Z</time>
      </trkpt>
      <trkpt lat="49.39642" lon="5.77553">
        <ele>294.39999389648</ele>
        <time>2022-09-13T10:36:08.000Z</time>
      </trkpt>
      <trkpt lat="49.39642" lon="5.77558">
        <ele>294.39999389648</ele>
        <time>2022-09-13T10:36:09.000Z</time>
      </trkpt>
      <trkpt lat="49.39642" lon="5.77563">
        <ele>294.39999389648</ele>
        <time>2022-09-13T10:36:10.000Z</time>
      </trkpt>
      <trkpt lat="49.39643" lon="5.77567">
        <ele>294.60000610352</ele>
        <time>2022-09-13T10:36:11.000Z</time>
      </trkpt>
      <trkpt lat="49.39643" lon="5.77572">
        <ele>295</ele>
        <time>2022-09-13T10:36:12.000Z</time>
      </trkpt>
      <trkpt lat="49.39643" lon="5.77577">
        <ele>295</ele>
        <time>2022-09-13T10:36:13.000Z</time>
      </trkpt>
      <trkpt lat="49.39643" lon="5.77587">
        <ele>295.39999389648</ele>
        <time>2022-09-13T10:36:15.000Z</time>
      </trkpt>
      <trkpt lat="49.39644" lon="5.77592">
        <ele>295.39999389648</ele>
        <time>2022-09-13T10:36:16.000Z</time>
      </trkpt>
      <trkpt lat="49.39644" lon="5.77597">
        <ele>295.39999389648</ele>
        <time>2022-09-13T10:36:17.000Z</time>
      </trkpt>
      <trkpt lat="49.39644" lon="5.77607">
        <ele>295.60000610352</ele>
        <time>2022-09-13T10:36:19.000Z</time>
      </trkpt>
      <trkpt lat="49.39648" lon="5.77649">
        <ele>295.79998779297</ele>
        <time>2022-09-13T10:36:27.000Z</time>
      </trkpt>
      <trkpt lat="49.39649" lon="5.77659">
        <ele>296</ele>
        <time>2022-09-13T10:36:29.000Z</time>
      </trkpt>
      <trkpt lat="49.39649" lon="5.77662">
        <ele>296</ele>
        <time>2022-09-13T10:36:30.000Z</time>
      </trkpt>
      <trkpt lat="49.39649" lon="5.77667">
        <ele>296</ele>
        <time>2022-09-13T10:36:31.000Z</time>
      </trkpt>
      <trkpt lat="49.3965" lon="5.77672">
        <ele>296.20001220703</ele>
        <time>2022-09-13T10:36:32.000Z</time>
      </trkpt>
      <trkpt lat="49.3965" lon="5.77676">
        <ele>296.20001220703</ele>
        <time>2022-09-13T10:36:33.000Z</time>
      </trkpt>
      <trkpt lat="49.39651" lon="5.77681">
        <ele>296.60000610352</ele>
        <time>2022-09-13T10:36:34.000Z</time>
      </trkpt>
      <trkpt lat="49.39652" lon="5.7769">
        <ele>297.20001220703</ele>
        <time>2022-09-13T10:36:36.000Z</time>
      </trkpt>
      <trkpt lat="49.39652" lon="5.77695">
        <ele>297.39999389648</ele>
        <time>2022-09-13T10:36:37.000Z</time>
      </trkpt>
      <trkpt lat="49.39652" lon="5.77699">
        <ele>297.60000610352</ele>
        <time>2022-09-13T10:36:38.000Z</time>
      </trkpt>
      <trkpt lat="49.39653" lon="5.77713">
        <ele>297.60000610352</ele>
        <time>2022-09-13T10:36:41.000Z</time>
      </trkpt>
      <trkpt lat="49.39656" lon="5.77734">
        <ele>298.20001220703</ele>
        <time>2022-09-13T10:36:46.000Z</time>
      </trkpt>
      <trkpt lat="49.39656" lon="5.77738">
        <ele>298.39999389648</ele>
        <time>2022-09-13T10:36:47.000Z</time>
      </trkpt>
      <trkpt lat="49.39657" lon="5.77742">
        <ele>298.20001220703</ele>
        <time>2022-09-13T10:36:48.000Z</time>
      </trkpt>
      <trkpt lat="49.39657" lon="5.77747">
        <ele>298.39999389648</ele>
        <time>2022-09-13T10:36:49.000Z</time>
      </trkpt>
      <trkpt lat="49.39657" lon="5.77752">
        <ele>298.60000610352</ele>
        <time>2022-09-13T10:36:50.000Z</time>
      </trkpt>
      <trkpt lat="49.39657" lon="5.77756">
        <ele>298.60000610352</ele>
        <time>2022-09-13T10:36:51.000Z</time>
      </trkpt>
      <trkpt lat="49.39657" lon="5.77756">
        <ele>298.79998779297</ele>
        <time>2022-09-13T10:36:52.000Z</time>
      </trkpt>
      <trkpt lat="49.39657" lon="5.77765">
        <ele>298.79998779297</ele>
        <time>2022-09-13T10:36:53.000Z</time>
      </trkpt>
      <trkpt lat="49.39657" lon="5.77769">
        <ele>299</ele>
        <time>2022-09-13T10:36:54.000Z</time>
      </trkpt>
      <trkpt lat="49.39657" lon="5.77773">
        <ele>299.20001220703</ele>
        <time>2022-09-13T10:36:55.000Z</time>
      </trkpt>
      <trkpt lat="49.39656" lon="5.77777">
        <ele>299.39999389648</ele>
        <time>2022-09-13T10:36:56.000Z</time>
      </trkpt>
      <trkpt lat="49.39656" lon="5.77781">
        <ele>299.60000610352</ele>
        <time>2022-09-13T10:36:57.000Z</time>
      </trkpt>
      <trkpt lat="49.39656" lon="5.77786">
        <ele>299.79998779297</ele>
        <time>2022-09-13T10:36:58.000Z</time>
      </trkpt>
      <trkpt lat="49.39656" lon="5.77789">
        <ele>300.20001220703</ele>
        <time>2022-09-13T10:36:59.000Z</time>
      </trkpt>
      <trkpt lat="49.39656" lon="5.77793">
        <ele>300.20001220703</ele>
        <time>2022-09-13T10:37:00.000Z</time>
      </trkpt>
      <trkpt lat="49.39656" lon="5.77797">
        <ele>300.39999389648</ele>
        <time>2022-09-13T10:37:01.000Z</time>
      </trkpt>
      <trkpt lat="49.39656" lon="5.778">
        <ele>300.39999389648</ele>
        <time>2022-09-13T10:37:02.000Z</time>
      </trkpt>
      <trkpt lat="49.39657" lon="5.77804">
        <ele>300.39999389648</ele>
        <time>2022-09-13T10:37:03.000Z</time>
      </trkpt>
      <trkpt lat="49.39657" lon="5.77807">
        <ele>300.39999389648</ele>
        <time>2022-09-13T10:37:04.000Z</time>
      </trkpt>
      <trkpt lat="49.39657" lon="5.7781">
        <ele>300.79998779297</ele>
        <time>2022-09-13T10:37:05.000Z</time>
      </trkpt>
      <trkpt lat="49.39657" lon="5.77813">
        <ele>301</ele>
        <time>2022-09-13T10:37:06.000Z</time>
      </trkpt>
      <trkpt lat="49.39657" lon="5.77817">
        <ele>301</ele>
        <time>2022-09-13T10:37:07.000Z</time>
      </trkpt>
      <trkpt lat="49.39657" lon="5.77821">
        <ele>301.20001220703</ele>
        <time>2022-09-13T10:37:08.000Z</time>
      </trkpt>
      <trkpt lat="49.39656" lon="5.77825">
        <ele>301.20001220703</ele>
        <time>2022-09-13T10:37:09.000Z</time>
      </trkpt>
      <trkpt lat="49.39656" lon="5.77829">
        <ele>301.39999389648</ele>
        <time>2022-09-13T10:37:10.000Z</time>
      </trkpt>
      <trkpt lat="49.39656" lon="5.77833">
        <ele>301.39999389648</ele>
        <time>2022-09-13T10:37:11.000Z</time>
      </trkpt>
      <trkpt lat="49.39656" lon="5.77837">
        <ele>301.60000610352</ele>
        <time>2022-09-13T10:37:12.000Z</time>
      </trkpt>
      <trkpt lat="49.39656" lon="5.7784">
        <ele>301.60000610352</ele>
        <time>2022-09-13T10:37:13.000Z</time>
      </trkpt>
      <trkpt lat="49.39656" lon="5.77845">
        <ele>301.79998779297</ele>
        <time>2022-09-13T10:37:14.000Z</time>
      </trkpt>
      <trkpt lat="49.39656" lon="5.77849">
        <ele>302</ele>
        <time>2022-09-13T10:37:15.000Z</time>
      </trkpt>
      <trkpt lat="49.39656" lon="5.77853">
        <ele>302</ele>
        <time>2022-09-13T10:37:16.000Z</time>
      </trkpt>
      <trkpt lat="49.39655" lon="5.77857">
        <ele>302</ele>
        <time>2022-09-13T10:37:17.000Z</time>
      </trkpt>
      <trkpt lat="49.39655" lon="5.77862">
        <ele>302</ele>
        <time>2022-09-13T10:37:18.000Z</time>
      </trkpt>
      <trkpt lat="49.39655" lon="5.77867">
        <ele>302.20001220703</ele>
        <time>2022-09-13T10:37:19.000Z</time>
      </trkpt>
      <trkpt lat="49.39654" lon="5.77872">
        <ele>302.20001220703</ele>
        <time>2022-09-13T10:37:20.000Z</time>
      </trkpt>
      <trkpt lat="49.39654" lon="5.77876">
        <ele>302.39999389648</ele>
        <time>2022-09-13T10:37:21.000Z</time>
      </trkpt>
      <trkpt lat="49.39654" lon="5.7788">
        <ele>302.39999389648</ele>
        <time>2022-09-13T10:37:22.000Z</time>
      </trkpt>
      <trkpt lat="49.39654" lon="5.77884">
        <ele>302.60000610352</ele>
        <time>2022-09-13T10:37:23.000Z</time>
      </trkpt>
      <trkpt lat="49.39653" lon="5.77889">
        <ele>302.60000610352</ele>
        <time>2022-09-13T10:37:24.000Z</time>
      </trkpt>
      <trkpt lat="49.39653" lon="5.77894">
        <ele>302.60000610352</ele>
        <time>2022-09-13T10:37:25.000Z</time>
      </trkpt>
      <trkpt lat="49.39653" lon="5.77898">
        <ele>302.79998779297</ele>
        <time>2022-09-13T10:37:26.000Z</time>
      </trkpt>
      <trkpt lat="49.39653" lon="5.77902">
        <ele>302.79998779297</ele>
        <time>2022-09-13T10:37:27.000Z</time>
      </trkpt>
      <trkpt lat="49.39653" lon="5.77907">
        <ele>303</ele>
        <time>2022-09-13T10:37:28.000Z</time>
      </trkpt>
      <trkpt lat="49.39653" lon="5.77911">
        <ele>303.20001220703</ele>
        <time>2022-09-13T10:37:29.000Z</time>
      </trkpt>
      <trkpt lat="49.39653" lon="5.77915">
        <ele>303.20001220703</ele>
        <time>2022-09-13T10:37:30.000Z</time>
      </trkpt>
      <trkpt lat="49.39653" lon="5.7792">
        <ele>303.39999389648</ele>
        <time>2022-09-13T10:37:31.000Z</time>
      </trkpt>
      <trkpt lat="49.39654" lon="5.77924">
        <ele>303.39999389648</ele>
        <time>2022-09-13T10:37:32.000Z</time>
      </trkpt>
      <trkpt lat="49.39654" lon="5.77928">
        <ele>303.60000610352</ele>
        <time>2022-09-13T10:37:33.000Z</time>
      </trkpt>
      <trkpt lat="49.39654" lon="5.77933">
        <ele>303.60000610352</ele>
        <time>2022-09-13T10:37:34.000Z</time>
      </trkpt>
      <trkpt lat="49.39654" lon="5.77937">
        <ele>303.79998779297</ele>
        <time>2022-09-13T10:37:35.000Z</time>
      </trkpt>
      <trkpt lat="49.39654" lon="5.77942">
        <ele>304</ele>
        <time>2022-09-13T10:37:36.000Z</time>
      </trkpt>
      <trkpt lat="49.39654" lon="5.77946">
        <ele>304</ele>
        <time>2022-09-13T10:37:37.000Z</time>
      </trkpt>
      <trkpt lat="49.39654" lon="5.77951">
        <ele>304.20001220703</ele>
        <time>2022-09-13T10:37:38.000Z</time>
      </trkpt>
      <trkpt lat="49.39654" lon="5.77955">
        <ele>304.20001220703</ele>
        <time>2022-09-13T10:37:39.000Z</time>
      </trkpt>
      <trkpt lat="49.39653" lon="5.7796">
        <ele>304.60000610352</ele>
        <time>2022-09-13T10:37:40.000Z</time>
      </trkpt>
      <trkpt lat="49.39653" lon="5.77964">
        <ele>304.60000610352</ele>
        <time>2022-09-13T10:37:41.000Z</time>
      </trkpt>
      <trkpt lat="49.39653" lon="5.77969">
        <ele>304.79998779297</ele>
        <time>2022-09-13T10:37:42.000Z</time>
      </trkpt>
      <trkpt lat="49.39653" lon="5.77974">
        <ele>305</ele>
        <time>2022-09-13T10:37:43.000Z</time>
      </trkpt>
      <trkpt lat="49.39653" lon="5.77978">
        <ele>305</ele>
        <time>2022-09-13T10:37:44.000Z</time>
      </trkpt>
      <trkpt lat="49.39653" lon="5.77983">
        <ele>305</ele>
        <time>2022-09-13T10:37:45.000Z</time>
      </trkpt>
      <trkpt lat="49.39652" lon="5.77988">
        <ele>305.20001220703</ele>
        <time>2022-09-13T10:37:46.000Z</time>
      </trkpt>
      <trkpt lat="49.39652" lon="5.77993">
        <ele>305.20001220703</ele>
        <time>2022-09-13T10:37:47.000Z</time>
      </trkpt>
      <trkpt lat="49.39652" lon="5.77998">
        <ele>305.20001220703</ele>
        <time>2022-09-13T10:37:48.000Z</time>
      </trkpt>
      <trkpt lat="49.39652" lon="5.78002">
        <ele>305.39999389648</ele>
        <time>2022-09-13T10:37:49.000Z</time>
      </trkpt>
      <trkpt lat="49.39652" lon="5.78007">
        <ele>305.39999389648</ele>
        <time>2022-09-13T10:37:50.000Z</time>
      </trkpt>
      <trkpt lat="49.39652" lon="5.78012">
        <ele>305.60000610352</ele>
        <time>2022-09-13T10:37:51.000Z</time>
      </trkpt>
      <trkpt lat="49.39652" lon="5.78017">
        <ele>305.79998779297</ele>
        <time>2022-09-13T10:37:52.000Z</time>
      </trkpt>
      <trkpt lat="49.39652" lon="5.78022">
        <ele>305.79998779297</ele>
        <time>2022-09-13T10:37:53.000Z</time>
      </trkpt>
      <trkpt lat="49.39652" lon="5.78027">
        <ele>306</ele>
        <time>2022-09-13T10:37:54.000Z</time>
      </trkpt>
      <trkpt lat="49.39652" lon="5.78031">
        <ele>306</ele>
        <time>2022-09-13T10:37:55.000Z</time>
      </trkpt>
      <trkpt lat="49.39652" lon="5.78036">
        <ele>306</ele>
        <time>2022-09-13T10:37:56.000Z</time>
      </trkpt>
      <trkpt lat="49.39652" lon="5.78036">
        <ele>306.20001220703</ele>
        <time>2022-09-13T10:37:57.000Z</time>
      </trkpt>
      <trkpt lat="49.39651" lon="5.78046">
        <ele>306.20001220703</ele>
        <time>2022-09-13T10:37:58.000Z</time>
      </trkpt>
      <trkpt lat="49.39651" lon="5.78052">
        <ele>306.20001220703</ele>
        <time>2022-09-13T10:37:59.000Z</time>
      </trkpt>
      <trkpt lat="49.3965" lon="5.78056">
        <ele>306.20001220703</ele>
        <time>2022-09-13T10:38:00.000Z</time>
      </trkpt>
      <trkpt lat="49.3965" lon="5.78062">
        <ele>306.20001220703</ele>
        <time>2022-09-13T10:38:01.000Z</time>
      </trkpt>
      <trkpt lat="49.3965" lon="5.78066">
        <ele>306.20001220703</ele>
        <time>2022-09-13T10:38:02.000Z</time>
      </trkpt>
      <trkpt lat="49.3965" lon="5.7807">
        <ele>306.39999389648</ele>
        <time>2022-09-13T10:38:03.000Z</time>
      </trkpt>
      <trkpt lat="49.3965" lon="5.7808">
        <ele>306.79998779297</ele>
        <time>2022-09-13T10:38:05.000Z</time>
      </trkpt>
      <trkpt lat="49.3965" lon="5.781">
        <ele>307</ele>
        <time>2022-09-13T10:38:09.000Z</time>
      </trkpt>
      <trkpt lat="49.3965" lon="5.78105">
        <ele>307</ele>
        <time>2022-09-13T10:38:10.000Z</time>
      </trkpt>
      <trkpt lat="49.3965" lon="5.78134">
        <ele>307.39999389648</ele>
        <time>2022-09-13T10:38:16.000Z</time>
      </trkpt>
      <trkpt lat="49.3965" lon="5.78139">
        <ele>307.39999389648</ele>
        <time>2022-09-13T10:38:17.000Z</time>
      </trkpt>
      <trkpt lat="49.3965" lon="5.78173">
        <ele>307.79998779297</ele>
        <time>2022-09-13T10:38:24.000Z</time>
      </trkpt>
      <trkpt lat="49.3965" lon="5.78178">
        <ele>307.79998779297</ele>
        <time>2022-09-13T10:38:25.000Z</time>
      </trkpt>
      <trkpt lat="49.3965" lon="5.78183">
        <ele>307.79998779297</ele>
        <time>2022-09-13T10:38:26.000Z</time>
      </trkpt>
      <trkpt lat="49.3965" lon="5.78218">
        <ele>308</ele>
        <time>2022-09-13T10:38:33.000Z</time>
      </trkpt>
      <trkpt lat="49.3965" lon="5.78263">
        <ele>308.60000610352</ele>
        <time>2022-09-13T10:38:41.000Z</time>
      </trkpt>
      <trkpt lat="49.3965" lon="5.78284">
        <ele>308.79998779297</ele>
        <time>2022-09-13T10:38:45.000Z</time>
      </trkpt>
      <trkpt lat="49.3965" lon="5.78299">
        <ele>308.79998779297</ele>
        <time>2022-09-13T10:38:48.000Z</time>
      </trkpt>
      <trkpt lat="49.39649" lon="5.78306">
        <ele>308.79998779297</ele>
        <time>2022-09-13T10:38:49.000Z</time>
      </trkpt>
      <trkpt lat="49.3965" lon="5.7831">
        <ele>308.79998779297</ele>
        <time>2022-09-13T10:38:50.000Z</time>
      </trkpt>
      <trkpt lat="49.39649" lon="5.78321">
        <ele>308.79998779297</ele>
        <time>2022-09-13T10:38:52.000Z</time>
      </trkpt>
      <trkpt lat="49.39649" lon="5.7833">
        <ele>308.60000610352</ele>
        <time>2022-09-13T10:38:54.000Z</time>
      </trkpt>
      <trkpt lat="49.39649" lon="5.78335">
        <ele>308.79998779297</ele>
        <time>2022-09-13T10:38:55.000Z</time>
      </trkpt>
      <trkpt lat="49.39649" lon="5.78355">
        <ele>309.39999389648</ele>
        <time>2022-09-13T10:38:59.000Z</time>
      </trkpt>
      <trkpt lat="49.39648" lon="5.78376">
        <ele>309.60000610352</ele>
        <time>2022-09-13T10:39:03.000Z</time>
      </trkpt>
      <trkpt lat="49.39647" lon="5.78397">
        <ele>309.79998779297</ele>
        <time>2022-09-13T10:39:07.000Z</time>
      </trkpt>
      <trkpt lat="49.39647" lon="5.78406">
        <ele>309.79998779297</ele>
        <time>2022-09-13T10:39:09.000Z</time>
      </trkpt>
      <trkpt lat="49.39647" lon="5.78411">
        <ele>309.79998779297</ele>
        <time>2022-09-13T10:39:10.000Z</time>
      </trkpt>
      <trkpt lat="49.39647" lon="5.78416">
        <ele>310</ele>
        <time>2022-09-13T10:39:11.000Z</time>
      </trkpt>
      <trkpt lat="49.39648" lon="5.7842">
        <ele>309.79998779297</ele>
        <time>2022-09-13T10:39:12.000Z</time>
      </trkpt>
      <trkpt lat="49.39649" lon="5.78424">
        <ele>309.79998779297</ele>
        <time>2022-09-13T10:39:13.000Z</time>
      </trkpt>
      <trkpt lat="49.3965" lon="5.78425">
        <ele>309.79998779297</ele>
        <time>2022-09-13T10:39:14.000Z</time>
      </trkpt>
      <trkpt lat="49.39653" lon="5.78426">
        <ele>309.79998779297</ele>
        <time>2022-09-13T10:39:15.000Z</time>
      </trkpt>
      <trkpt lat="49.39655" lon="5.78426">
        <ele>309.79998779297</ele>
        <time>2022-09-13T10:39:16.000Z</time>
      </trkpt>
      <trkpt lat="49.39657" lon="5.78426">
        <ele>309.79998779297</ele>
        <time>2022-09-13T10:39:17.000Z</time>
      </trkpt>
      <trkpt lat="49.39658" lon="5.78427">
        <ele>309.79998779297</ele>
        <time>2022-09-13T10:39:18.000Z</time>
      </trkpt>
      <trkpt lat="49.39659" lon="5.78429">
        <ele>309.60000610352</ele>
        <time>2022-09-13T10:39:19.000Z</time>
      </trkpt>
      <trkpt lat="49.3966" lon="5.78431">
        <ele>309.60000610352</ele>
        <time>2022-09-13T10:39:20.000Z</time>
      </trkpt>
      <trkpt lat="49.39661" lon="5.78434">
        <ele>309.39999389648</ele>
        <time>2022-09-13T10:39:21.000Z</time>
      </trkpt>
      <trkpt lat="49.39662" lon="5.78436">
        <ele>309.39999389648</ele>
        <time>2022-09-13T10:39:22.000Z</time>
      </trkpt>
      <trkpt lat="49.39662" lon="5.78438">
        <ele>309.20001220703</ele>
        <time>2022-09-13T10:39:23.000Z</time>
      </trkpt>
      <trkpt lat="49.39662" lon="5.78441">
        <ele>309</ele>
        <time>2022-09-13T10:39:24.000Z</time>
      </trkpt>
      <trkpt lat="49.39663" lon="5.78444">
        <ele>309</ele>
        <time>2022-09-13T10:39:25.000Z</time>
      </trkpt>
      <trkpt lat="49.39664" lon="5.78448">
        <ele>309</ele>
        <time>2022-09-13T10:39:26.000Z</time>
      </trkpt>
      <trkpt lat="49.39665" lon="5.78451">
        <ele>309</ele>
        <time>2022-09-13T10:39:27.000Z</time>
      </trkpt>
      <trkpt lat="49.39665" lon="5.78465">
        <ele>309</ele>
        <time>2022-09-13T10:39:32.000Z</time>
      </trkpt>
      <trkpt lat="49.39665" lon="5.78467">
        <ele>309</ele>
        <time>2022-09-13T10:39:33.000Z</time>
      </trkpt>
      <trkpt lat="49.39665" lon="5.78469">
        <ele>309</ele>
        <time>2022-09-13T10:39:34.000Z</time>
      </trkpt>
      <trkpt lat="49.39665" lon="5.78472">
        <ele>309.20001220703</ele>
        <time>2022-09-13T10:39:35.000Z</time>
      </trkpt>
      <trkpt lat="49.39665" lon="5.78475">
        <ele>309.20001220703</ele>
        <time>2022-09-13T10:39:36.000Z</time>
      </trkpt>
      <trkpt lat="49.39666" lon="5.78489">
        <ele>309.60000610352</ele>
        <time>2022-09-13T10:39:39.000Z</time>
      </trkpt>
      <trkpt lat="49.39663" lon="5.78507">
        <ele>310</ele>
        <time>2022-09-13T10:39:43.000Z</time>
      </trkpt>
      <trkpt lat="49.39662" lon="5.7851">
        <ele>310</ele>
        <time>2022-09-13T10:39:44.000Z</time>
      </trkpt>
      <trkpt lat="49.39661" lon="5.78514">
        <ele>310</ele>
        <time>2022-09-13T10:39:45.000Z</time>
      </trkpt>
      <trkpt lat="49.3966" lon="5.78522">
        <ele>310</ele>
        <time>2022-09-13T10:39:47.000Z</time>
      </trkpt>
      <trkpt lat="49.39657" lon="5.78533">
        <ele>310</ele>
        <time>2022-09-13T10:39:50.000Z</time>
      </trkpt>
      <trkpt lat="49.39656" lon="5.78534">
        <ele>310.20001220703</ele>
        <time>2022-09-13T10:39:51.000Z</time>
      </trkpt>
      <trkpt lat="49.39656" lon="5.78537">
        <ele>310.20001220703</ele>
        <time>2022-09-13T10:39:52.000Z</time>
      </trkpt>
      <trkpt lat="49.39657" lon="5.78542">
        <ele>310.20001220703</ele>
        <time>2022-09-13T10:39:53.000Z</time>
      </trkpt>
      <trkpt lat="49.39653" lon="5.78555">
        <ele>310.39999389648</ele>
        <time>2022-09-13T10:39:56.000Z</time>
      </trkpt>
      <trkpt lat="49.39652" lon="5.78561">
        <ele>310.39999389648</ele>
        <time>2022-09-13T10:39:57.000Z</time>
      </trkpt>
      <trkpt lat="49.39653" lon="5.78565">
        <ele>310.60000610352</ele>
        <time>2022-09-13T10:39:58.000Z</time>
      </trkpt>
      <trkpt lat="49.39653" lon="5.7857">
        <ele>311</ele>
        <time>2022-09-13T10:39:59.000Z</time>
      </trkpt>
      <trkpt lat="49.39654" lon="5.78572">
        <ele>311</ele>
        <time>2022-09-13T10:40:00.000Z</time>
      </trkpt>
      <trkpt lat="49.39654" lon="5.78575">
        <ele>311.20001220703</ele>
        <time>2022-09-13T10:40:01.000Z</time>
      </trkpt>
      <trkpt lat="49.3966" lon="5.78587">
        <ele>311.39999389648</ele>
        <time>2022-09-13T10:40:04.000Z</time>
      </trkpt>
      <trkpt lat="49.39663" lon="5.78601">
        <ele>311</ele>
        <time>2022-09-13T10:40:07.000Z</time>
      </trkpt>
      <trkpt lat="49.39661" lon="5.78608">
        <ele>310.79998779297</ele>
        <time>2022-09-13T10:40:08.000Z</time>
      </trkpt>
      <trkpt lat="49.3966" lon="5.78617">
        <ele>310.79998779297</ele>
        <time>2022-09-13T10:40:09.000Z</time>
      </trkpt>
      <trkpt lat="49.3966" lon="5.78621">
        <ele>310.60000610352</ele>
        <time>2022-09-13T10:40:10.000Z</time>
      </trkpt>
      <trkpt lat="49.3966" lon="5.78622">
        <ele>310.60000610352</ele>
        <time>2022-09-13T10:40:11.000Z</time>
      </trkpt>
      <trkpt lat="49.39659" lon="5.78624">
        <ele>310.39999389648</ele>
        <time>2022-09-13T10:40:12.000Z</time>
      </trkpt>
      <trkpt lat="49.39658" lon="5.78627">
        <ele>310.39999389648</ele>
        <time>2022-09-13T10:40:13.000Z</time>
      </trkpt>
      <trkpt lat="49.39658" lon="5.78627">
        <ele>310.20001220703</ele>
        <time>2022-09-13T10:40:14.000Z</time>
      </trkpt>
      <trkpt lat="49.39658" lon="5.78629">
        <ele>310.20001220703</ele>
        <time>2022-09-13T10:40:15.000Z</time>
      </trkpt>
      <trkpt lat="49.39658" lon="5.78632">
        <ele>310</ele>
        <time>2022-09-13T10:40:16.000Z</time>
      </trkpt>
      <trkpt lat="49.39657" lon="5.78636">
        <ele>310</ele>
        <time>2022-09-13T10:40:17.000Z</time>
      </trkpt>
      <trkpt lat="49.39654" lon="5.78642">
        <ele>309.79998779297</ele>
        <time>2022-09-13T10:40:19.000Z</time>
      </trkpt>
      <trkpt lat="49.39652" lon="5.78648">
        <ele>309.79998779297</ele>
        <time>2022-09-13T10:40:20.000Z</time>
      </trkpt>
      <trkpt lat="49.3965" lon="5.78653">
        <ele>309.79998779297</ele>
        <time>2022-09-13T10:40:21.000Z</time>
      </trkpt>
      <trkpt lat="49.39649" lon="5.78656">
        <ele>309.60000610352</ele>
        <time>2022-09-13T10:40:22.000Z</time>
      </trkpt>
      <trkpt lat="49.39645" lon="5.78675">
        <ele>309.39999389648</ele>
        <time>2022-09-13T10:40:26.000Z</time>
      </trkpt>
      <trkpt lat="49.39643" lon="5.78685">
        <ele>309.39999389648</ele>
        <time>2022-09-13T10:40:27.000Z</time>
      </trkpt>
      <trkpt lat="49.39636" lon="5.78714">
        <ele>308.60000610352</ele>
        <time>2022-09-13T10:40:31.000Z</time>
      </trkpt>
      <trkpt lat="49.39636" lon="5.78722">
        <ele>308.39999389648</ele>
        <time>2022-09-13T10:40:32.000Z</time>
      </trkpt>
      <trkpt lat="49.39635" lon="5.78729">
        <ele>308</ele>
        <time>2022-09-13T10:40:33.000Z</time>
      </trkpt>
      <trkpt lat="49.39634" lon="5.78741">
        <ele>307</ele>
        <time>2022-09-13T10:40:35.000Z</time>
      </trkpt>
      <trkpt lat="49.39634" lon="5.78745">
        <ele>306</ele>
        <time>2022-09-13T10:40:36.000Z</time>
      </trkpt>
      <trkpt lat="49.39633" lon="5.78752">
        <ele>305.79998779297</ele>
        <time>2022-09-13T10:40:37.000Z</time>
      </trkpt>
      <trkpt lat="49.39632" lon="5.78758">
        <ele>305.39999389648</ele>
        <time>2022-09-13T10:40:38.000Z</time>
      </trkpt>
      <trkpt lat="49.39631" lon="5.78765">
        <ele>305.20001220703</ele>
        <time>2022-09-13T10:40:39.000Z</time>
      </trkpt>
      <trkpt lat="49.39633" lon="5.78771">
        <ele>305</ele>
        <time>2022-09-13T10:40:40.000Z</time>
      </trkpt>
      <trkpt lat="49.39635" lon="5.78778">
        <ele>304.79998779297</ele>
        <time>2022-09-13T10:40:41.000Z</time>
      </trkpt>
      <trkpt lat="49.39634" lon="5.78783">
        <ele>304.20001220703</ele>
        <time>2022-09-13T10:40:42.000Z</time>
      </trkpt>
      <trkpt lat="49.3963" lon="5.78794">
        <ele>302.79998779297</ele>
        <time>2022-09-13T10:40:44.000Z</time>
      </trkpt>
      <trkpt lat="49.39628" lon="5.78801">
        <ele>301.20001220703</ele>
        <time>2022-09-13T10:40:45.000Z</time>
      </trkpt>
      <trkpt lat="49.39622" lon="5.78815">
        <ele>300</ele>
        <time>2022-09-13T10:40:47.000Z</time>
      </trkpt>
      <trkpt lat="49.39616" lon="5.78832">
        <ele>298.79998779297</ele>
        <time>2022-09-13T10:40:49.000Z</time>
      </trkpt>
      <trkpt lat="49.39614" lon="5.78836">
        <ele>298.60000610352</ele>
        <time>2022-09-13T10:40:50.000Z</time>
      </trkpt>
      <trkpt lat="49.39614" lon="5.78837">
        <ele>298.39999389648</ele>
        <time>2022-09-13T10:40:51.000Z</time>
      </trkpt>
      <trkpt lat="49.39613" lon="5.7884">
        <ele>298.20001220703</ele>
        <time>2022-09-13T10:40:52.000Z</time>
      </trkpt>
      <trkpt lat="49.39612" lon="5.78844">
        <ele>298</ele>
        <time>2022-09-13T10:40:53.000Z</time>
      </trkpt>
      <trkpt lat="49.39609" lon="5.7885">
        <ele>297.79998779297</ele>
        <time>2022-09-13T10:40:54.000Z</time>
      </trkpt>
      <trkpt lat="49.39606" lon="5.7886">
        <ele>297.60000610352</ele>
        <time>2022-09-13T10:40:57.000Z</time>
      </trkpt>
      <trkpt lat="49.39605" lon="5.78864">
        <ele>297.60000610352</ele>
        <time>2022-09-13T10:40:58.000Z</time>
      </trkpt>
      <trkpt lat="49.39604" lon="5.78867">
        <ele>297.60000610352</ele>
        <time>2022-09-13T10:40:59.000Z</time>
      </trkpt>
      <trkpt lat="49.39603" lon="5.78871">
        <ele>297.60000610352</ele>
        <time>2022-09-13T10:41:00.000Z</time>
      </trkpt>
      <trkpt lat="49.39603" lon="5.78875">
        <ele>297.60000610352</ele>
        <time>2022-09-13T10:41:01.000Z</time>
      </trkpt>
      <trkpt lat="49.39603" lon="5.78878">
        <ele>297.60000610352</ele>
        <time>2022-09-13T10:41:02.000Z</time>
      </trkpt>
      <trkpt lat="49.39604" lon="5.78881">
        <ele>297.39999389648</ele>
        <time>2022-09-13T10:41:03.000Z</time>
      </trkpt>
      <trkpt lat="49.39604" lon="5.78885">
        <ele>297.39999389648</ele>
        <time>2022-09-13T10:41:04.000Z</time>
      </trkpt>
      <trkpt lat="49.39603" lon="5.7889">
        <ele>297.60000610352</ele>
        <time>2022-09-13T10:41:05.000Z</time>
      </trkpt>
      <trkpt lat="49.39603" lon="5.78894">
        <ele>297.60000610352</ele>
        <time>2022-09-13T10:41:06.000Z</time>
      </trkpt>
      <trkpt lat="49.39602" lon="5.78895">
        <ele>297.60000610352</ele>
        <time>2022-09-13T10:41:07.000Z</time>
      </trkpt>
      <trkpt lat="49.39602" lon="5.78898">
        <ele>297.60000610352</ele>
        <time>2022-09-13T10:41:08.000Z</time>
      </trkpt>
      <trkpt lat="49.39601" lon="5.78904">
        <ele>297.60000610352</ele>
        <time>2022-09-13T10:41:09.000Z</time>
      </trkpt>
      <trkpt lat="49.396" lon="5.78914">
        <ele>297.60000610352</ele>
        <time>2022-09-13T10:41:11.000Z</time>
      </trkpt>
      <trkpt lat="49.39595" lon="5.7893">
        <ele>297.39999389648</ele>
        <time>2022-09-13T10:41:14.000Z</time>
      </trkpt>
      <trkpt lat="49.39595" lon="5.78935">
        <ele>297.39999389648</ele>
        <time>2022-09-13T10:41:15.000Z</time>
      </trkpt>
      <trkpt lat="49.39594" lon="5.78938">
        <ele>297.39999389648</ele>
        <time>2022-09-13T10:41:16.000Z</time>
      </trkpt>
      <trkpt lat="49.39594" lon="5.78942">
        <ele>297.39999389648</ele>
        <time>2022-09-13T10:41:17.000Z</time>
      </trkpt>
      <trkpt lat="49.39594" lon="5.78946">
        <ele>297.39999389648</ele>
        <time>2022-09-13T10:41:18.000Z</time>
      </trkpt>
      <trkpt lat="49.39595" lon="5.78947">
        <ele>297.39999389648</ele>
        <time>2022-09-13T10:41:19.000Z</time>
      </trkpt>
      <trkpt lat="49.39593" lon="5.78959">
        <ele>297.39999389648</ele>
        <time>2022-09-13T10:41:23.000Z</time>
      </trkpt>
      <trkpt lat="49.3959" lon="5.78965">
        <ele>297.20001220703</ele>
        <time>2022-09-13T10:41:24.000Z</time>
      </trkpt>
      <trkpt lat="49.39589" lon="5.78971">
        <ele>297.20001220703</ele>
        <time>2022-09-13T10:41:25.000Z</time>
      </trkpt>
      <trkpt lat="49.39577" lon="5.78994">
        <ele>297.60000610352</ele>
        <time>2022-09-13T10:41:32.000Z</time>
      </trkpt>
      <trkpt lat="49.39578" lon="5.78999">
        <ele>297.79998779297</ele>
        <time>2022-09-13T10:41:34.000Z</time>
      </trkpt>
      <trkpt lat="49.3958" lon="5.79002">
        <ele>298.20001220703</ele>
        <time>2022-09-13T10:41:35.000Z</time>
      </trkpt>
      <trkpt lat="49.39581" lon="5.79007">
        <ele>298.20001220703</ele>
        <time>2022-09-13T10:41:36.000Z</time>
      </trkpt>
      <trkpt lat="49.39582" lon="5.79011">
        <ele>298.39999389648</ele>
        <time>2022-09-13T10:41:37.000Z</time>
      </trkpt>
      <trkpt lat="49.39582" lon="5.79017">
        <ele>298.39999389648</ele>
        <time>2022-09-13T10:41:38.000Z</time>
      </trkpt>
      <trkpt lat="49.39584" lon="5.79024">
        <ele>298.39999389648</ele>
        <time>2022-09-13T10:41:39.000Z</time>
      </trkpt>
      <trkpt lat="49.39585" lon="5.79031">
        <ele>298.39999389648</ele>
        <time>2022-09-13T10:41:40.000Z</time>
      </trkpt>
      <trkpt lat="49.39588" lon="5.79041">
        <ele>298.20001220703</ele>
        <time>2022-09-13T10:41:42.000Z</time>
      </trkpt>
      <trkpt lat="49.39589" lon="5.79043">
        <ele>298</ele>
        <time>2022-09-13T10:41:43.000Z</time>
      </trkpt>
      <trkpt lat="49.39591" lon="5.79043">
        <ele>297.60000610352</ele>
        <time>2022-09-13T10:41:44.000Z</time>
      </trkpt>
      <trkpt lat="49.39593" lon="5.79042">
        <ele>297</ele>
        <time>2022-09-13T10:41:45.000Z</time>
      </trkpt>
      <trkpt lat="49.39599" lon="5.79037">
        <ele>296.39999389648</ele>
        <time>2022-09-13T10:41:47.000Z</time>
      </trkpt>
      <trkpt lat="49.3961" lon="5.79029">
        <ele>295.60000610352</ele>
        <time>2022-09-13T10:41:49.000Z</time>
      </trkpt>
      <trkpt lat="49.39616" lon="5.79022">
        <ele>295.20001220703</ele>
        <time>2022-09-13T10:41:50.000Z</time>
      </trkpt>
      <trkpt lat="49.39626" lon="5.79008">
        <ele>294</ele>
        <time>2022-09-13T10:41:52.000Z</time>
      </trkpt>
      <trkpt lat="49.39631" lon="5.79">
        <ele>293.39999389648</ele>
        <time>2022-09-13T10:41:53.000Z</time>
      </trkpt>
      <trkpt lat="49.39634" lon="5.78993">
        <ele>292.60000610352</ele>
        <time>2022-09-13T10:41:54.000Z</time>
      </trkpt>
      <trkpt lat="49.39638" lon="5.78985">
        <ele>292.39999389648</ele>
        <time>2022-09-13T10:41:55.000Z</time>
      </trkpt>
      <trkpt lat="49.39641" lon="5.78977">
        <ele>291</ele>
        <time>2022-09-13T10:41:56.000Z</time>
      </trkpt>
      <trkpt lat="49.39644" lon="5.7897">
        <ele>290.20001220703</ele>
        <time>2022-09-13T10:41:57.000Z</time>
      </trkpt>
      <trkpt lat="49.39647" lon="5.78965">
        <ele>289</ele>
        <time>2022-09-13T10:41:58.000Z</time>
      </trkpt>
      <trkpt lat="49.3965" lon="5.78964">
        <ele>288.39999389648</ele>
        <time>2022-09-13T10:41:59.000Z</time>
      </trkpt>
      <trkpt lat="49.39653" lon="5.78964">
        <ele>287</ele>
        <time>2022-09-13T10:42:00.000Z</time>
      </trkpt>
      <trkpt lat="49.39655" lon="5.78968">
        <ele>285.39999389648</ele>
        <time>2022-09-13T10:42:01.000Z</time>
      </trkpt>
      <trkpt lat="49.39656" lon="5.78974">
        <ele>284.60000610352</ele>
        <time>2022-09-13T10:42:02.000Z</time>
      </trkpt>
      <trkpt lat="49.39656" lon="5.7898">
        <ele>283.39999389648</ele>
        <time>2022-09-13T10:42:03.000Z</time>
      </trkpt>
      <trkpt lat="49.39657" lon="5.78994">
        <ele>281.79998779297</ele>
        <time>2022-09-13T10:42:05.000Z</time>
      </trkpt>
      <trkpt lat="49.39655" lon="5.79004">
        <ele>281.39999389648</ele>
        <time>2022-09-13T10:42:06.000Z</time>
      </trkpt>
      <trkpt lat="49.39649" lon="5.7903">
        <ele>280.60000610352</ele>
        <time>2022-09-13T10:42:08.000Z</time>
      </trkpt>
      <trkpt lat="49.39643" lon="5.79078">
        <ele>279.39999389648</ele>
        <time>2022-09-13T10:42:11.000Z</time>
      </trkpt>
      <trkpt lat="49.39636" lon="5.79108">
        <ele>278</ele>
        <time>2022-09-13T10:42:13.000Z</time>
      </trkpt>
      <trkpt lat="49.39629" lon="5.79118">
        <ele>276.79998779297</ele>
        <time>2022-09-13T10:42:14.000Z</time>
      </trkpt>
      <trkpt lat="49.39624" lon="5.79127">
        <ele>275.60000610352</ele>
        <time>2022-09-13T10:42:15.000Z</time>
      </trkpt>
      <trkpt lat="49.3962" lon="5.79134">
        <ele>275.20001220703</ele>
        <time>2022-09-13T10:42:16.000Z</time>
      </trkpt>
      <trkpt lat="49.39616" lon="5.7914">
        <ele>274</ele>
        <time>2022-09-13T10:42:17.000Z</time>
      </trkpt>
      <trkpt lat="49.39612" lon="5.79147">
        <ele>273.39999389648</ele>
        <time>2022-09-13T10:42:18.000Z</time>
      </trkpt>
      <trkpt lat="49.39609" lon="5.79153">
        <ele>272.60000610352</ele>
        <time>2022-09-13T10:42:19.000Z</time>
      </trkpt>
      <trkpt lat="49.39605" lon="5.7916">
        <ele>272.20001220703</ele>
        <time>2022-09-13T10:42:20.000Z</time>
      </trkpt>
      <trkpt lat="49.39602" lon="5.79166">
        <ele>271.60000610352</ele>
        <time>2022-09-13T10:42:21.000Z</time>
      </trkpt>
      <trkpt lat="49.39598" lon="5.79174">
        <ele>270.60000610352</ele>
        <time>2022-09-13T10:42:22.000Z</time>
      </trkpt>
      <trkpt lat="49.39595" lon="5.7918">
        <ele>270.39999389648</ele>
        <time>2022-09-13T10:42:23.000Z</time>
      </trkpt>
      <trkpt lat="49.39592" lon="5.79184">
        <ele>270</ele>
        <time>2022-09-13T10:42:24.000Z</time>
      </trkpt>
      <trkpt lat="49.3959" lon="5.79188">
        <ele>270</ele>
        <time>2022-09-13T10:42:25.000Z</time>
      </trkpt>
      <trkpt lat="49.39589" lon="5.7919">
        <ele>269.79998779297</ele>
        <time>2022-09-13T10:42:26.000Z</time>
      </trkpt>
      <trkpt lat="49.39587" lon="5.79193">
        <ele>269.79998779297</ele>
        <time>2022-09-13T10:42:27.000Z</time>
      </trkpt>
      <trkpt lat="49.39584" lon="5.79196">
        <ele>269.79998779297</ele>
        <time>2022-09-13T10:42:28.000Z</time>
      </trkpt>
      <trkpt lat="49.39582" lon="5.792">
        <ele>269.60000610352</ele>
        <time>2022-09-13T10:42:29.000Z</time>
      </trkpt>
      <trkpt lat="49.3958" lon="5.79204">
        <ele>269.60000610352</ele>
        <time>2022-09-13T10:42:30.000Z</time>
      </trkpt>
      <trkpt lat="49.39577" lon="5.7921">
        <ele>269.60000610352</ele>
        <time>2022-09-13T10:42:32.000Z</time>
      </trkpt>
      <trkpt lat="49.39574" lon="5.79214">
        <ele>269.60000610352</ele>
        <time>2022-09-13T10:42:33.000Z</time>
      </trkpt>
      <trkpt lat="49.39571" lon="5.7922">
        <ele>269.60000610352</ele>
        <time>2022-09-13T10:42:34.000Z</time>
      </trkpt>
      <trkpt lat="49.39558" lon="5.79246">
        <ele>269.60000610352</ele>
        <time>2022-09-13T10:42:38.000Z</time>
      </trkpt>
      <trkpt lat="49.39556" lon="5.79253">
        <ele>269.79998779297</ele>
        <time>2022-09-13T10:42:39.000Z</time>
      </trkpt>
      <trkpt lat="49.39554" lon="5.79258">
        <ele>270.20001220703</ele>
        <time>2022-09-13T10:42:40.000Z</time>
      </trkpt>
      <trkpt lat="49.39549" lon="5.79283">
        <ele>270.60000610352</ele>
        <time>2022-09-13T10:42:42.000Z</time>
      </trkpt>
      <trkpt lat="49.39547" lon="5.79291">
        <ele>270.60000610352</ele>
        <time>2022-09-13T10:42:43.000Z</time>
      </trkpt>
      <trkpt lat="49.39545" lon="5.79299">
        <ele>270.79998779297</ele>
        <time>2022-09-13T10:42:44.000Z</time>
      </trkpt>
      <trkpt lat="49.39545" lon="5.79304">
        <ele>271</ele>
        <time>2022-09-13T10:42:45.000Z</time>
      </trkpt>
      <trkpt lat="49.39543" lon="5.79312">
        <ele>271</ele>
        <time>2022-09-13T10:42:46.000Z</time>
      </trkpt>
      <trkpt lat="49.39542" lon="5.79319">
        <ele>271</ele>
        <time>2022-09-13T10:42:47.000Z</time>
      </trkpt>
      <trkpt lat="49.39538" lon="5.79352">
        <ele>271.39999389648</ele>
        <time>2022-09-13T10:42:52.000Z</time>
      </trkpt>
      <trkpt lat="49.3954" lon="5.79357">
        <ele>271.60000610352</ele>
        <time>2022-09-13T10:42:53.000Z</time>
      </trkpt>
      <trkpt lat="49.3954" lon="5.79361">
        <ele>271.60000610352</ele>
        <time>2022-09-13T10:42:54.000Z</time>
      </trkpt>
      <trkpt lat="49.39538" lon="5.79367">
        <ele>271.79998779297</ele>
        <time>2022-09-13T10:42:55.000Z</time>
      </trkpt>
      <trkpt lat="49.39536" lon="5.79372">
        <ele>272</ele>
        <time>2022-09-13T10:42:56.000Z</time>
      </trkpt>
      <trkpt lat="49.39537" lon="5.79378">
        <ele>272.20001220703</ele>
        <time>2022-09-13T10:42:57.000Z</time>
      </trkpt>
      <trkpt lat="49.39539" lon="5.79384">
        <ele>272.20001220703</ele>
        <time>2022-09-13T10:42:58.000Z</time>
      </trkpt>
      <trkpt lat="49.39542" lon="5.79389">
        <ele>272.39999389648</ele>
        <time>2022-09-13T10:42:59.000Z</time>
      </trkpt>
      <trkpt lat="49.39544" lon="5.79395">
        <ele>272.39999389648</ele>
        <time>2022-09-13T10:43:00.000Z</time>
      </trkpt>
      <trkpt lat="49.39545" lon="5.79419">
        <ele>272.79998779297</ele>
        <time>2022-09-13T10:43:02.000Z</time>
      </trkpt>
      <trkpt lat="49.39546" lon="5.79429">
        <ele>272.79998779297</ele>
        <time>2022-09-13T10:43:03.000Z</time>
      </trkpt>
      <trkpt lat="49.39547" lon="5.79437">
        <ele>272.79998779297</ele>
        <time>2022-09-13T10:43:04.000Z</time>
      </trkpt>
      <trkpt lat="49.39549" lon="5.79448">
        <ele>272.79998779297</ele>
        <time>2022-09-13T10:43:06.000Z</time>
      </trkpt>
      <trkpt lat="49.39551" lon="5.79453">
        <ele>272.79998779297</ele>
        <time>2022-09-13T10:43:07.000Z</time>
      </trkpt>
      <trkpt lat="49.39555" lon="5.7946">
        <ele>272.79998779297</ele>
        <time>2022-09-13T10:43:08.000Z</time>
      </trkpt>
      <trkpt lat="49.39558" lon="5.79478">
        <ele>272.79998779297</ele>
        <time>2022-09-13T10:43:09.000Z</time>
      </trkpt>
      <trkpt lat="49.3956" lon="5.79486">
        <ele>272.60000610352</ele>
        <time>2022-09-13T10:43:10.000Z</time>
      </trkpt>
      <trkpt lat="49.39563" lon="5.79506">
        <ele>272.60000610352</ele>
        <time>2022-09-13T10:43:12.000Z</time>
      </trkpt>
      <trkpt lat="49.39564" lon="5.79518">
        <ele>272.60000610352</ele>
        <time>2022-09-13T10:43:13.000Z</time>
      </trkpt>
      <trkpt lat="49.39566" lon="5.79523">
        <ele>272.39999389648</ele>
        <time>2022-09-13T10:43:14.000Z</time>
      </trkpt>
      <trkpt lat="49.39568" lon="5.79527">
        <ele>272.39999389648</ele>
        <time>2022-09-13T10:43:15.000Z</time>
      </trkpt>
      <trkpt lat="49.3957" lon="5.79531">
        <ele>272.39999389648</ele>
        <time>2022-09-13T10:43:16.000Z</time>
      </trkpt>
      <trkpt lat="49.39572" lon="5.79536">
        <ele>272.20001220703</ele>
        <time>2022-09-13T10:43:17.000Z</time>
      </trkpt>
      <trkpt lat="49.39574" lon="5.79541">
        <ele>272.20001220703</ele>
        <time>2022-09-13T10:43:18.000Z</time>
      </trkpt>
      <trkpt lat="49.39578" lon="5.79548">
        <ele>272.20001220703</ele>
        <time>2022-09-13T10:43:19.000Z</time>
      </trkpt>
      <trkpt lat="49.39595" lon="5.79587">
        <ele>271.60000610352</ele>
        <time>2022-09-13T10:43:25.000Z</time>
      </trkpt>
      <trkpt lat="49.39599" lon="5.7959">
        <ele>271.60000610352</ele>
        <time>2022-09-13T10:43:26.000Z</time>
      </trkpt>
      <trkpt lat="49.39601" lon="5.79593">
        <ele>271.60000610352</ele>
        <time>2022-09-13T10:43:27.000Z</time>
      </trkpt>
      <trkpt lat="49.39605" lon="5.79596">
        <ele>271.60000610352</ele>
        <time>2022-09-13T10:43:28.000Z</time>
      </trkpt>
      <trkpt lat="49.39609" lon="5.79601">
        <ele>271.60000610352</ele>
        <time>2022-09-13T10:43:29.000Z</time>
      </trkpt>
      <trkpt lat="49.39613" lon="5.79608">
        <ele>271.39999389648</ele>
        <time>2022-09-13T10:43:30.000Z</time>
      </trkpt>
      <trkpt lat="49.39632" lon="5.79644">
        <ele>271.39999389648</ele>
        <time>2022-09-13T10:43:35.000Z</time>
      </trkpt>
      <trkpt lat="49.39634" lon="5.79655">
        <ele>271.39999389648</ele>
        <time>2022-09-13T10:43:37.000Z</time>
      </trkpt>
      <trkpt lat="49.39635" lon="5.79658">
        <ele>271.39999389648</ele>
        <time>2022-09-13T10:43:38.000Z</time>
      </trkpt>
      <trkpt lat="49.39635" lon="5.79663">
        <ele>271.60000610352</ele>
        <time>2022-09-13T10:43:39.000Z</time>
      </trkpt>
      <trkpt lat="49.39635" lon="5.79666">
        <ele>271.60000610352</ele>
        <time>2022-09-13T10:43:40.000Z</time>
      </trkpt>
      <trkpt lat="49.39636" lon="5.7967">
        <ele>271.60000610352</ele>
        <time>2022-09-13T10:43:41.000Z</time>
      </trkpt>
      <trkpt lat="49.39636" lon="5.79675">
        <ele>271.79998779297</ele>
        <time>2022-09-13T10:43:42.000Z</time>
      </trkpt>
      <trkpt lat="49.39651" lon="5.797">
        <ele>272.39999389648</ele>
        <time>2022-09-13T10:43:45.000Z</time>
      </trkpt>
      <trkpt lat="49.39652" lon="5.79708">
        <ele>272.79998779297</ele>
        <time>2022-09-13T10:43:46.000Z</time>
      </trkpt>
      <trkpt lat="49.39654" lon="5.79716">
        <ele>273.20001220703</ele>
        <time>2022-09-13T10:43:47.000Z</time>
      </trkpt>
      <trkpt lat="49.39656" lon="5.7972">
        <ele>273.39999389648</ele>
        <time>2022-09-13T10:43:48.000Z</time>
      </trkpt>
      <trkpt lat="49.39656" lon="5.79725">
        <ele>273.79998779297</ele>
        <time>2022-09-13T10:43:49.000Z</time>
      </trkpt>
      <trkpt lat="49.39656" lon="5.79732">
        <ele>274</ele>
        <time>2022-09-13T10:43:50.000Z</time>
      </trkpt>
      <trkpt lat="49.39656" lon="5.79742">
        <ele>274.60000610352</ele>
        <time>2022-09-13T10:43:52.000Z</time>
      </trkpt>
      <trkpt lat="49.39656" lon="5.79745">
        <ele>275</ele>
        <time>2022-09-13T10:43:53.000Z</time>
      </trkpt>
      <trkpt lat="49.39656" lon="5.79749">
        <ele>275.20001220703</ele>
        <time>2022-09-13T10:43:54.000Z</time>
      </trkpt>
      <trkpt lat="49.39657" lon="5.79752">
        <ele>275.39999389648</ele>
        <time>2022-09-13T10:43:55.000Z</time>
      </trkpt>
      <trkpt lat="49.39658" lon="5.79757">
        <ele>275.60000610352</ele>
        <time>2022-09-13T10:43:56.000Z</time>
      </trkpt>
      <trkpt lat="49.39659" lon="5.79761">
        <ele>276</ele>
        <time>2022-09-13T10:43:57.000Z</time>
      </trkpt>
      <trkpt lat="49.39661" lon="5.79765">
        <ele>276.60000610352</ele>
        <time>2022-09-13T10:43:58.000Z</time>
      </trkpt>
      <trkpt lat="49.39662" lon="5.7977">
        <ele>276.79998779297</ele>
        <time>2022-09-13T10:43:59.000Z</time>
      </trkpt>
      <trkpt lat="49.39663" lon="5.79775">
        <ele>277</ele>
        <time>2022-09-13T10:44:00.000Z</time>
      </trkpt>
      <trkpt lat="49.39663" lon="5.79779">
        <ele>277</ele>
        <time>2022-09-13T10:44:01.000Z</time>
      </trkpt>
      <trkpt lat="49.39663" lon="5.79784">
        <ele>277.60000610352</ele>
        <time>2022-09-13T10:44:02.000Z</time>
      </trkpt>
      <trkpt lat="49.39661" lon="5.79788">
        <ele>278</ele>
        <time>2022-09-13T10:44:03.000Z</time>
      </trkpt>
      <trkpt lat="49.39662" lon="5.79792">
        <ele>278.39999389648</ele>
        <time>2022-09-13T10:44:04.000Z</time>
      </trkpt>
      <trkpt lat="49.39662" lon="5.79796">
        <ele>278.79998779297</ele>
        <time>2022-09-13T10:44:05.000Z</time>
      </trkpt>
      <trkpt lat="49.39662" lon="5.798">
        <ele>279</ele>
        <time>2022-09-13T10:44:06.000Z</time>
      </trkpt>
      <trkpt lat="49.39663" lon="5.79804">
        <ele>279.20001220703</ele>
        <time>2022-09-13T10:44:07.000Z</time>
      </trkpt>
      <trkpt lat="49.39663" lon="5.79808">
        <ele>279.60000610352</ele>
        <time>2022-09-13T10:44:08.000Z</time>
      </trkpt>
      <trkpt lat="49.39662" lon="5.79812">
        <ele>280.20001220703</ele>
        <time>2022-09-13T10:44:09.000Z</time>
      </trkpt>
      <trkpt lat="49.39661" lon="5.79817">
        <ele>280.39999389648</ele>
        <time>2022-09-13T10:44:10.000Z</time>
      </trkpt>
      <trkpt lat="49.3966" lon="5.79823">
        <ele>280.60000610352</ele>
        <time>2022-09-13T10:44:11.000Z</time>
      </trkpt>
      <trkpt lat="49.3966" lon="5.79827">
        <ele>281</ele>
        <time>2022-09-13T10:44:12.000Z</time>
      </trkpt>
      <trkpt lat="49.39659" lon="5.79831">
        <ele>281.39999389648</ele>
        <time>2022-09-13T10:44:13.000Z</time>
      </trkpt>
      <trkpt lat="49.3966" lon="5.79837">
        <ele>281.79998779297</ele>
        <time>2022-09-13T10:44:14.000Z</time>
      </trkpt>
      <trkpt lat="49.39659" lon="5.79841">
        <ele>281.79998779297</ele>
        <time>2022-09-13T10:44:15.000Z</time>
      </trkpt>
      <trkpt lat="49.39658" lon="5.79846">
        <ele>282</ele>
        <time>2022-09-13T10:44:16.000Z</time>
      </trkpt>
      <trkpt lat="49.39655" lon="5.7985">
        <ele>282</ele>
        <time>2022-09-13T10:44:17.000Z</time>
      </trkpt>
      <trkpt lat="49.39652" lon="5.79854">
        <ele>282</ele>
        <time>2022-09-13T10:44:18.000Z</time>
      </trkpt>
      <trkpt lat="49.39649" lon="5.79858">
        <ele>282</ele>
        <time>2022-09-13T10:44:19.000Z</time>
      </trkpt>
      <trkpt lat="49.39645" lon="5.79863">
        <ele>282</ele>
        <time>2022-09-13T10:44:20.000Z</time>
      </trkpt>
      <trkpt lat="49.39639" lon="5.79868">
        <ele>282</ele>
        <time>2022-09-13T10:44:21.000Z</time>
      </trkpt>
      <trkpt lat="49.39633" lon="5.79872">
        <ele>282</ele>
        <time>2022-09-13T10:44:22.000Z</time>
      </trkpt>
      <trkpt lat="49.39627" lon="5.79878">
        <ele>281.79998779297</ele>
        <time>2022-09-13T10:44:23.000Z</time>
      </trkpt>
      <trkpt lat="49.39621" lon="5.79884">
        <ele>281.60000610352</ele>
        <time>2022-09-13T10:44:24.000Z</time>
      </trkpt>
      <trkpt lat="49.39615" lon="5.79891">
        <ele>281.39999389648</ele>
        <time>2022-09-13T10:44:25.000Z</time>
      </trkpt>
      <trkpt lat="49.39609" lon="5.79897">
        <ele>281</ele>
        <time>2022-09-13T10:44:26.000Z</time>
      </trkpt>
      <trkpt lat="49.39603" lon="5.79903">
        <ele>280.79998779297</ele>
        <time>2022-09-13T10:44:27.000Z</time>
      </trkpt>
      <trkpt lat="49.39598" lon="5.79909">
        <ele>280.20001220703</ele>
        <time>2022-09-13T10:44:28.000Z</time>
      </trkpt>
      <trkpt lat="49.39594" lon="5.79914">
        <ele>279.39999389648</ele>
        <time>2022-09-13T10:44:29.000Z</time>
      </trkpt>
      <trkpt lat="49.39589" lon="5.79918">
        <ele>278</ele>
        <time>2022-09-13T10:44:30.000Z</time>
      </trkpt>
      <trkpt lat="49.39584" lon="5.79924">
        <ele>277.79998779297</ele>
        <time>2022-09-13T10:44:31.000Z</time>
      </trkpt>
      <trkpt lat="49.39577" lon="5.79931">
        <ele>277</ele>
        <time>2022-09-13T10:44:32.000Z</time>
      </trkpt>
      <trkpt lat="49.39572" lon="5.79936">
        <ele>276.39999389648</ele>
        <time>2022-09-13T10:44:33.000Z</time>
      </trkpt>
      <trkpt lat="49.39568" lon="5.7994">
        <ele>276</ele>
        <time>2022-09-13T10:44:34.000Z</time>
      </trkpt>
      <trkpt lat="49.39566" lon="5.79946">
        <ele>274.79998779297</ele>
        <time>2022-09-13T10:44:35.000Z</time>
      </trkpt>
      <trkpt lat="49.39561" lon="5.79954">
        <ele>274.20001220703</ele>
        <time>2022-09-13T10:44:36.000Z</time>
      </trkpt>
      <trkpt lat="49.39556" lon="5.79959">
        <ele>273.20001220703</ele>
        <time>2022-09-13T10:44:37.000Z</time>
      </trkpt>
      <trkpt lat="49.39552" lon="5.79962">
        <ele>273</ele>
        <time>2022-09-13T10:44:38.000Z</time>
      </trkpt>
      <trkpt lat="49.39548" lon="5.79964">
        <ele>272.20001220703</ele>
        <time>2022-09-13T10:44:39.000Z</time>
      </trkpt>
      <trkpt lat="49.39546" lon="5.79966">
        <ele>272</ele>
        <time>2022-09-13T10:44:40.000Z</time>
      </trkpt>
      <trkpt lat="49.39544" lon="5.79967">
        <ele>271.60000610352</ele>
        <time>2022-09-13T10:44:41.000Z</time>
      </trkpt>
      <trkpt lat="49.39542" lon="5.79971">
        <ele>271.39999389648</ele>
        <time>2022-09-13T10:44:42.000Z</time>
      </trkpt>
      <trkpt lat="49.39538" lon="5.79974">
        <ele>271.20001220703</ele>
        <time>2022-09-13T10:44:43.000Z</time>
      </trkpt>
      <trkpt lat="49.39535" lon="5.79978">
        <ele>271</ele>
        <time>2022-09-13T10:44:44.000Z</time>
      </trkpt>
      <trkpt lat="49.39526" lon="5.79982">
        <ele>270.79998779297</ele>
        <time>2022-09-13T10:44:47.000Z</time>
      </trkpt>
      <trkpt lat="49.39523" lon="5.79983">
        <ele>270.79998779297</ele>
        <time>2022-09-13T10:44:48.000Z</time>
      </trkpt>
      <trkpt lat="49.3952" lon="5.79986">
        <ele>270.79998779297</ele>
        <time>2022-09-13T10:44:49.000Z</time>
      </trkpt>
      <trkpt lat="49.39516" lon="5.79989">
        <ele>270.79998779297</ele>
        <time>2022-09-13T10:44:50.000Z</time>
      </trkpt>
      <trkpt lat="49.39508" lon="5.79997">
        <ele>271.20001220703</ele>
        <time>2022-09-13T10:44:53.000Z</time>
      </trkpt>
      <trkpt lat="49.39502" lon="5.80005">
        <ele>271.39999389648</ele>
        <time>2022-09-13T10:44:56.000Z</time>
      </trkpt>
      <trkpt lat="49.39501" lon="5.80008">
        <ele>271.39999389648</ele>
        <time>2022-09-13T10:44:57.000Z</time>
      </trkpt>
      <trkpt lat="49.39497" lon="5.80015">
        <ele>271.39999389648</ele>
        <time>2022-09-13T10:45:00.000Z</time>
      </trkpt>
      <trkpt lat="49.39497" lon="5.80018">
        <ele>271.60000610352</ele>
        <time>2022-09-13T10:45:01.000Z</time>
      </trkpt>
      <trkpt lat="49.39495" lon="5.80021">
        <ele>271.79998779297</ele>
        <time>2022-09-13T10:45:02.000Z</time>
      </trkpt>
      <trkpt lat="49.39493" lon="5.80018">
        <ele>271.79998779297</ele>
        <time>2022-09-13T10:45:03.000Z</time>
      </trkpt>
      <trkpt lat="49.39492" lon="5.8002">
        <ele>271.79998779297</ele>
        <time>2022-09-13T10:45:04.000Z</time>
      </trkpt>
      <trkpt lat="49.3949" lon="5.80023">
        <ele>271.79998779297</ele>
        <time>2022-09-13T10:45:05.000Z</time>
      </trkpt>
      <trkpt lat="49.39488" lon="5.80027">
        <ele>271.79998779297</ele>
        <time>2022-09-13T10:45:06.000Z</time>
      </trkpt>
      <trkpt lat="49.39486" lon="5.8003">
        <ele>271.79998779297</ele>
        <time>2022-09-13T10:45:07.000Z</time>
      </trkpt>
      <trkpt lat="49.39478" lon="5.80048">
        <ele>271.79998779297</ele>
        <time>2022-09-13T10:45:11.000Z</time>
      </trkpt>
      <trkpt lat="49.39476" lon="5.80052">
        <ele>271.79998779297</ele>
        <time>2022-09-13T10:45:12.000Z</time>
      </trkpt>
      <trkpt lat="49.39475" lon="5.80054">
        <ele>271.60000610352</ele>
        <time>2022-09-13T10:45:13.000Z</time>
      </trkpt>
      <trkpt lat="49.39473" lon="5.80058">
        <ele>271.60000610352</ele>
        <time>2022-09-13T10:45:14.000Z</time>
      </trkpt>
      <trkpt lat="49.39461" lon="5.80081">
        <ele>271.60000610352</ele>
        <time>2022-09-13T10:45:19.000Z</time>
      </trkpt>
      <trkpt lat="49.39455" lon="5.80108">
        <ele>271.79998779297</ele>
        <time>2022-09-13T10:45:23.000Z</time>
      </trkpt>
      <trkpt lat="49.39453" lon="5.80116">
        <ele>271.79998779297</ele>
        <time>2022-09-13T10:45:24.000Z</time>
      </trkpt>
      <trkpt lat="49.39449" lon="5.80134">
        <ele>272</ele>
        <time>2022-09-13T10:45:26.000Z</time>
      </trkpt>
      <trkpt lat="49.39448" lon="5.80141">
        <ele>272</ele>
        <time>2022-09-13T10:45:27.000Z</time>
      </trkpt>
      <trkpt lat="49.39448" lon="5.80146">
        <ele>272</ele>
        <time>2022-09-13T10:45:28.000Z</time>
      </trkpt>
      <trkpt lat="49.39448" lon="5.80152">
        <ele>272</ele>
        <time>2022-09-13T10:45:29.000Z</time>
      </trkpt>
      <trkpt lat="49.39444" lon="5.80182">
        <ele>272</ele>
        <time>2022-09-13T10:45:33.000Z</time>
      </trkpt>
      <trkpt lat="49.39442" lon="5.80189">
        <ele>272.20001220703</ele>
        <time>2022-09-13T10:45:34.000Z</time>
      </trkpt>
      <trkpt lat="49.39442" lon="5.80194">
        <ele>272.20001220703</ele>
        <time>2022-09-13T10:45:35.000Z</time>
      </trkpt>
      <trkpt lat="49.39441" lon="5.802">
        <ele>272.20001220703</ele>
        <time>2022-09-13T10:45:36.000Z</time>
      </trkpt>
      <trkpt lat="49.3944" lon="5.80206">
        <ele>272.20001220703</ele>
        <time>2022-09-13T10:45:37.000Z</time>
      </trkpt>
      <trkpt lat="49.3944" lon="5.80212">
        <ele>272.20001220703</ele>
        <time>2022-09-13T10:45:38.000Z</time>
      </trkpt>
      <trkpt lat="49.39441" lon="5.80216">
        <ele>272.39999389648</ele>
        <time>2022-09-13T10:45:39.000Z</time>
      </trkpt>
      <trkpt lat="49.39441" lon="5.8022">
        <ele>272.60000610352</ele>
        <time>2022-09-13T10:45:40.000Z</time>
      </trkpt>
      <trkpt lat="49.3944" lon="5.80225">
        <ele>272.79998779297</ele>
        <time>2022-09-13T10:45:41.000Z</time>
      </trkpt>
      <trkpt lat="49.3944" lon="5.80231">
        <ele>272.79998779297</ele>
        <time>2022-09-13T10:45:42.000Z</time>
      </trkpt>
      <trkpt lat="49.39438" lon="5.80237">
        <ele>272.79998779297</ele>
        <time>2022-09-13T10:45:43.000Z</time>
      </trkpt>
      <trkpt lat="49.39438" lon="5.80244">
        <ele>273</ele>
        <time>2022-09-13T10:45:44.000Z</time>
      </trkpt>
      <trkpt lat="49.39437" lon="5.80249">
        <ele>272.79998779297</ele>
        <time>2022-09-13T10:45:45.000Z</time>
      </trkpt>
      <trkpt lat="49.39437" lon="5.80253">
        <ele>273</ele>
        <time>2022-09-13T10:45:46.000Z</time>
      </trkpt>
      <trkpt lat="49.39438" lon="5.80257">
        <ele>273.20001220703</ele>
        <time>2022-09-13T10:45:47.000Z</time>
      </trkpt>
      <trkpt lat="49.39438" lon="5.80262">
        <ele>273.39999389648</ele>
        <time>2022-09-13T10:45:48.000Z</time>
      </trkpt>
      <trkpt lat="49.39437" lon="5.80268">
        <ele>273.39999389648</ele>
        <time>2022-09-13T10:45:49.000Z</time>
      </trkpt>
      <trkpt lat="49.39435" lon="5.80275">
        <ele>273.60000610352</ele>
        <time>2022-09-13T10:45:50.000Z</time>
      </trkpt>
      <trkpt lat="49.39435" lon="5.8028">
        <ele>273.79998779297</ele>
        <time>2022-09-13T10:45:51.000Z</time>
      </trkpt>
      <trkpt lat="49.39435" lon="5.80284">
        <ele>274</ele>
        <time>2022-09-13T10:45:52.000Z</time>
      </trkpt>
      <trkpt lat="49.39435" lon="5.80288">
        <ele>274.20001220703</ele>
        <time>2022-09-13T10:45:53.000Z</time>
      </trkpt>
      <trkpt lat="49.39434" lon="5.80294">
        <ele>274.20001220703</ele>
        <time>2022-09-13T10:45:54.000Z</time>
      </trkpt>
      <trkpt lat="49.39433" lon="5.80315">
        <ele>274.60000610352</ele>
        <time>2022-09-13T10:45:58.000Z</time>
      </trkpt>
      <trkpt lat="49.39432" lon="5.80319">
        <ele>274.60000610352</ele>
        <time>2022-09-13T10:45:59.000Z</time>
      </trkpt>
      <trkpt lat="49.39432" lon="5.80324">
        <ele>275</ele>
        <time>2022-09-13T10:46:00.000Z</time>
      </trkpt>
      <trkpt lat="49.3943" lon="5.80331">
        <ele>275.20001220703</ele>
        <time>2022-09-13T10:46:01.000Z</time>
      </trkpt>
      <trkpt lat="49.3943" lon="5.80336">
        <ele>275.39999389648</ele>
        <time>2022-09-13T10:46:02.000Z</time>
      </trkpt>
      <trkpt lat="49.3943" lon="5.8034">
        <ele>275.60000610352</ele>
        <time>2022-09-13T10:46:03.000Z</time>
      </trkpt>
      <trkpt lat="49.39432" lon="5.80345">
        <ele>276</ele>
        <time>2022-09-13T10:46:04.000Z</time>
      </trkpt>
      <trkpt lat="49.39432" lon="5.80351">
        <ele>276.20001220703</ele>
        <time>2022-09-13T10:46:05.000Z</time>
      </trkpt>
      <trkpt lat="49.39432" lon="5.80355">
        <ele>276.79998779297</ele>
        <time>2022-09-13T10:46:06.000Z</time>
      </trkpt>
      <trkpt lat="49.39432" lon="5.8036">
        <ele>277</ele>
        <time>2022-09-13T10:46:07.000Z</time>
      </trkpt>
      <trkpt lat="49.39432" lon="5.80365">
        <ele>277.20001220703</ele>
        <time>2022-09-13T10:46:08.000Z</time>
      </trkpt>
      <trkpt lat="49.39432" lon="5.8037">
        <ele>277.39999389648</ele>
        <time>2022-09-13T10:46:09.000Z</time>
      </trkpt>
      <trkpt lat="49.39431" lon="5.80375">
        <ele>277.60000610352</ele>
        <time>2022-09-13T10:46:10.000Z</time>
      </trkpt>
      <trkpt lat="49.39429" lon="5.80381">
        <ele>278</ele>
        <time>2022-09-13T10:46:11.000Z</time>
      </trkpt>
      <trkpt lat="49.39429" lon="5.80387">
        <ele>278</ele>
        <time>2022-09-13T10:46:12.000Z</time>
      </trkpt>
      <trkpt lat="49.39428" lon="5.80391">
        <ele>278.39999389648</ele>
        <time>2022-09-13T10:46:13.000Z</time>
      </trkpt>
      <trkpt lat="49.39427" lon="5.80394">
        <ele>278.79998779297</ele>
        <time>2022-09-13T10:46:14.000Z</time>
      </trkpt>
      <trkpt lat="49.39426" lon="5.80398">
        <ele>278.79998779297</ele>
        <time>2022-09-13T10:46:15.000Z</time>
      </trkpt>
      <trkpt lat="49.39426" lon="5.80403">
        <ele>279.20001220703</ele>
        <time>2022-09-13T10:46:16.000Z</time>
      </trkpt>
      <trkpt lat="49.39426" lon="5.80407">
        <ele>279.60000610352</ele>
        <time>2022-09-13T10:46:17.000Z</time>
      </trkpt>
      <trkpt lat="49.39426" lon="5.80413">
        <ele>280</ele>
        <time>2022-09-13T10:46:18.000Z</time>
      </trkpt>
      <trkpt lat="49.39425" lon="5.80418">
        <ele>280.39999389648</ele>
        <time>2022-09-13T10:46:19.000Z</time>
      </trkpt>
      <trkpt lat="49.39424" lon="5.80421">
        <ele>280.79998779297</ele>
        <time>2022-09-13T10:46:20.000Z</time>
      </trkpt>
      <trkpt lat="49.39425" lon="5.80425">
        <ele>281</ele>
        <time>2022-09-13T10:46:21.000Z</time>
      </trkpt>
      <trkpt lat="49.39424" lon="5.80428">
        <ele>281.20001220703</ele>
        <time>2022-09-13T10:46:22.000Z</time>
      </trkpt>
      <trkpt lat="49.39424" lon="5.80432">
        <ele>281.39999389648</ele>
        <time>2022-09-13T10:46:23.000Z</time>
      </trkpt>
      <trkpt lat="49.39424" lon="5.80436">
        <ele>281.60000610352</ele>
        <time>2022-09-13T10:46:24.000Z</time>
      </trkpt>
      <trkpt lat="49.39423" lon="5.80439">
        <ele>282</ele>
        <time>2022-09-13T10:46:25.000Z</time>
      </trkpt>
      <trkpt lat="49.39423" lon="5.80443">
        <ele>282.20001220703</ele>
        <time>2022-09-13T10:46:26.000Z</time>
      </trkpt>
      <trkpt lat="49.39422" lon="5.80446">
        <ele>282.79998779297</ele>
        <time>2022-09-13T10:46:27.000Z</time>
      </trkpt>
      <trkpt lat="49.39421" lon="5.8045">
        <ele>283</ele>
        <time>2022-09-13T10:46:28.000Z</time>
      </trkpt>
      <trkpt lat="49.39421" lon="5.80453">
        <ele>283.39999389648</ele>
        <time>2022-09-13T10:46:29.000Z</time>
      </trkpt>
      <trkpt lat="49.3942" lon="5.80456">
        <ele>283.79998779297</ele>
        <time>2022-09-13T10:46:30.000Z</time>
      </trkpt>
      <trkpt lat="49.39419" lon="5.80459">
        <ele>283.79998779297</ele>
        <time>2022-09-13T10:46:31.000Z</time>
      </trkpt>
      <trkpt lat="49.39419" lon="5.80463">
        <ele>284</ele>
        <time>2022-09-13T10:46:32.000Z</time>
      </trkpt>
      <trkpt lat="49.3942" lon="5.80467">
        <ele>284.20001220703</ele>
        <time>2022-09-13T10:46:33.000Z</time>
      </trkpt>
      <trkpt lat="49.3942" lon="5.80471">
        <ele>284.39999389648</ele>
        <time>2022-09-13T10:46:34.000Z</time>
      </trkpt>
      <trkpt lat="49.39419" lon="5.80474">
        <ele>284.60000610352</ele>
        <time>2022-09-13T10:46:35.000Z</time>
      </trkpt>
      <trkpt lat="49.39418" lon="5.80478">
        <ele>285</ele>
        <time>2022-09-13T10:46:36.000Z</time>
      </trkpt>
      <trkpt lat="49.39418" lon="5.80482">
        <ele>285.20001220703</ele>
        <time>2022-09-13T10:46:37.000Z</time>
      </trkpt>
      <trkpt lat="49.39418" lon="5.80486">
        <ele>285.60000610352</ele>
        <time>2022-09-13T10:46:38.000Z</time>
      </trkpt>
      <trkpt lat="49.39418" lon="5.80491">
        <ele>286</ele>
        <time>2022-09-13T10:46:39.000Z</time>
      </trkpt>
      <trkpt lat="49.39417" lon="5.80496">
        <ele>286.20001220703</ele>
        <time>2022-09-13T10:46:40.000Z</time>
      </trkpt>
      <trkpt lat="49.39417" lon="5.80501">
        <ele>286.39999389648</ele>
        <time>2022-09-13T10:46:41.000Z</time>
      </trkpt>
      <trkpt lat="49.39417" lon="5.80507">
        <ele>286.60000610352</ele>
        <time>2022-09-13T10:46:42.000Z</time>
      </trkpt>
      <trkpt lat="49.39415" lon="5.80513">
        <ele>286.79998779297</ele>
        <time>2022-09-13T10:46:43.000Z</time>
      </trkpt>
      <trkpt lat="49.39414" lon="5.80519">
        <ele>286.79998779297</ele>
        <time>2022-09-13T10:46:44.000Z</time>
      </trkpt>
      <trkpt lat="49.39413" lon="5.80524">
        <ele>287.20001220703</ele>
        <time>2022-09-13T10:46:45.000Z</time>
      </trkpt>
      <trkpt lat="49.39413" lon="5.8053">
        <ele>287.39999389648</ele>
        <time>2022-09-13T10:46:46.000Z</time>
      </trkpt>
      <trkpt lat="49.39412" lon="5.80534">
        <ele>287.60000610352</ele>
        <time>2022-09-13T10:46:47.000Z</time>
      </trkpt>
      <trkpt lat="49.39412" lon="5.80538">
        <ele>287.79998779297</ele>
        <time>2022-09-13T10:46:48.000Z</time>
      </trkpt>
      <trkpt lat="49.3941" lon="5.80542">
        <ele>288</ele>
        <time>2022-09-13T10:46:49.000Z</time>
      </trkpt>
      <trkpt lat="49.39409" lon="5.80546">
        <ele>288.60000610352</ele>
        <time>2022-09-13T10:46:50.000Z</time>
      </trkpt>
      <trkpt lat="49.39408" lon="5.80549">
        <ele>288.79998779297</ele>
        <time>2022-09-13T10:46:51.000Z</time>
      </trkpt>
      <trkpt lat="49.39406" lon="5.80552">
        <ele>289.39999389648</ele>
        <time>2022-09-13T10:46:52.000Z</time>
      </trkpt>
      <trkpt lat="49.39404" lon="5.80556">
        <ele>289.60000610352</ele>
        <time>2022-09-13T10:46:53.000Z</time>
      </trkpt>
      <trkpt lat="49.39403" lon="5.80559">
        <ele>289.60000610352</ele>
        <time>2022-09-13T10:46:54.000Z</time>
      </trkpt>
      <trkpt lat="49.39401" lon="5.80562">
        <ele>289.79998779297</ele>
        <time>2022-09-13T10:46:55.000Z</time>
      </trkpt>
      <trkpt lat="49.39399" lon="5.80566">
        <ele>290</ele>
        <time>2022-09-13T10:46:56.000Z</time>
      </trkpt>
      <trkpt lat="49.39397" lon="5.8057">
        <ele>290</ele>
        <time>2022-09-13T10:46:57.000Z</time>
      </trkpt>
      <trkpt lat="49.39395" lon="5.80574">
        <ele>290.20001220703</ele>
        <time>2022-09-13T10:46:58.000Z</time>
      </trkpt>
      <trkpt lat="49.39393" lon="5.80577">
        <ele>290.60000610352</ele>
        <time>2022-09-13T10:46:59.000Z</time>
      </trkpt>
      <trkpt lat="49.3939" lon="5.8058">
        <ele>290.60000610352</ele>
        <time>2022-09-13T10:47:00.000Z</time>
      </trkpt>
      <trkpt lat="49.39388" lon="5.80582">
        <ele>290.79998779297</ele>
        <time>2022-09-13T10:47:01.000Z</time>
      </trkpt>
      <trkpt lat="49.39385" lon="5.80585">
        <ele>291.20001220703</ele>
        <time>2022-09-13T10:47:02.000Z</time>
      </trkpt>
      <trkpt lat="49.39382" lon="5.80588">
        <ele>291.39999389648</ele>
        <time>2022-09-13T10:47:03.000Z</time>
      </trkpt>
      <trkpt lat="49.3938" lon="5.80591">
        <ele>291.79998779297</ele>
        <time>2022-09-13T10:47:04.000Z</time>
      </trkpt>
      <trkpt lat="49.39377" lon="5.80593">
        <ele>292</ele>
        <time>2022-09-13T10:47:05.000Z</time>
      </trkpt>
      <trkpt lat="49.39375" lon="5.80596">
        <ele>292.20001220703</ele>
        <time>2022-09-13T10:47:06.000Z</time>
      </trkpt>
      <trkpt lat="49.39372" lon="5.80598">
        <ele>292.20001220703</ele>
        <time>2022-09-13T10:47:07.000Z</time>
      </trkpt>
      <trkpt lat="49.39369" lon="5.80601">
        <ele>292.60000610352</ele>
        <time>2022-09-13T10:47:08.000Z</time>
      </trkpt>
      <trkpt lat="49.39366" lon="5.80603">
        <ele>292.79998779297</ele>
        <time>2022-09-13T10:47:09.000Z</time>
      </trkpt>
      <trkpt lat="49.39364" lon="5.80605">
        <ele>293</ele>
        <time>2022-09-13T10:47:10.000Z</time>
      </trkpt>
      <trkpt lat="49.39361" lon="5.80607">
        <ele>293.20001220703</ele>
        <time>2022-09-13T10:47:11.000Z</time>
      </trkpt>
      <trkpt lat="49.39358" lon="5.80609">
        <ele>293.20001220703</ele>
        <time>2022-09-13T10:47:12.000Z</time>
      </trkpt>
      <trkpt lat="49.39355" lon="5.80611">
        <ele>293.60000610352</ele>
        <time>2022-09-13T10:47:13.000Z</time>
      </trkpt>
      <trkpt lat="49.39353" lon="5.80613">
        <ele>293.79998779297</ele>
        <time>2022-09-13T10:47:14.000Z</time>
      </trkpt>
      <trkpt lat="49.39351" lon="5.80615">
        <ele>294.20001220703</ele>
        <time>2022-09-13T10:47:15.000Z</time>
      </trkpt>
      <trkpt lat="49.39348" lon="5.80617">
        <ele>294.39999389648</ele>
        <time>2022-09-13T10:47:16.000Z</time>
      </trkpt>
      <trkpt lat="49.39346" lon="5.80618">
        <ele>294.60000610352</ele>
        <time>2022-09-13T10:47:17.000Z</time>
      </trkpt>
      <trkpt lat="49.39343" lon="5.8062">
        <ele>294.60000610352</ele>
        <time>2022-09-13T10:47:18.000Z</time>
      </trkpt>
      <trkpt lat="49.39341" lon="5.80621">
        <ele>294.60000610352</ele>
        <time>2022-09-13T10:47:19.000Z</time>
      </trkpt>
      <trkpt lat="49.39339" lon="5.80623">
        <ele>294.79998779297</ele>
        <time>2022-09-13T10:47:20.000Z</time>
      </trkpt>
      <trkpt lat="49.39337" lon="5.80624">
        <ele>295</ele>
        <time>2022-09-13T10:47:21.000Z</time>
      </trkpt>
      <trkpt lat="49.39335" lon="5.80626">
        <ele>295.20001220703</ele>
        <time>2022-09-13T10:47:22.000Z</time>
      </trkpt>
      <trkpt lat="49.39332" lon="5.80627">
        <ele>295.39999389648</ele>
        <time>2022-09-13T10:47:23.000Z</time>
      </trkpt>
      <trkpt lat="49.39329" lon="5.80628">
        <ele>295.60000610352</ele>
        <time>2022-09-13T10:47:24.000Z</time>
      </trkpt>
      <trkpt lat="49.39326" lon="5.8063">
        <ele>295.79998779297</ele>
        <time>2022-09-13T10:47:25.000Z</time>
      </trkpt>
      <trkpt lat="49.39324" lon="5.80631">
        <ele>296</ele>
        <time>2022-09-13T10:47:26.000Z</time>
      </trkpt>
      <trkpt lat="49.39321" lon="5.80633">
        <ele>296.20001220703</ele>
        <time>2022-09-13T10:47:27.000Z</time>
      </trkpt>
      <trkpt lat="49.39319" lon="5.80635">
        <ele>296.39999389648</ele>
        <time>2022-09-13T10:47:28.000Z</time>
      </trkpt>
      <trkpt lat="49.39316" lon="5.80637">
        <ele>296.79998779297</ele>
        <time>2022-09-13T10:47:29.000Z</time>
      </trkpt>
      <trkpt lat="49.39314" lon="5.80638">
        <ele>297</ele>
        <time>2022-09-13T10:47:30.000Z</time>
      </trkpt>
      <trkpt lat="49.39312" lon="5.80639">
        <ele>297.20001220703</ele>
        <time>2022-09-13T10:47:31.000Z</time>
      </trkpt>
      <trkpt lat="49.3931" lon="5.8064">
        <ele>297.39999389648</ele>
        <time>2022-09-13T10:47:32.000Z</time>
      </trkpt>
      <trkpt lat="49.39307" lon="5.80641">
        <ele>297.60000610352</ele>
        <time>2022-09-13T10:47:33.000Z</time>
      </trkpt>
      <trkpt lat="49.39305" lon="5.80643">
        <ele>298</ele>
        <time>2022-09-13T10:47:34.000Z</time>
      </trkpt>
      <trkpt lat="49.39303" lon="5.80646">
        <ele>298.20001220703</ele>
        <time>2022-09-13T10:47:35.000Z</time>
      </trkpt>
      <trkpt lat="49.39301" lon="5.80647">
        <ele>298.60000610352</ele>
        <time>2022-09-13T10:47:36.000Z</time>
      </trkpt>
      <trkpt lat="49.39298" lon="5.80649">
        <ele>298.60000610352</ele>
        <time>2022-09-13T10:47:37.000Z</time>
      </trkpt>
      <trkpt lat="49.39296" lon="5.8065">
        <ele>299.39999389648</ele>
        <time>2022-09-13T10:47:38.000Z</time>
      </trkpt>
      <trkpt lat="49.39293" lon="5.80651">
        <ele>299.20001220703</ele>
        <time>2022-09-13T10:47:39.000Z</time>
      </trkpt>
      <trkpt lat="49.3929" lon="5.80653">
        <ele>299.79998779297</ele>
        <time>2022-09-13T10:47:40.000Z</time>
      </trkpt>
      <trkpt lat="49.39288" lon="5.80655">
        <ele>300.20001220703</ele>
        <time>2022-09-13T10:47:41.000Z</time>
      </trkpt>
      <trkpt lat="49.39285" lon="5.80656">
        <ele>300.39999389648</ele>
        <time>2022-09-13T10:47:42.000Z</time>
      </trkpt>
      <trkpt lat="49.39283" lon="5.80657">
        <ele>300.60000610352</ele>
        <time>2022-09-13T10:47:43.000Z</time>
      </trkpt>
      <trkpt lat="49.3928" lon="5.80657">
        <ele>300.60000610352</ele>
        <time>2022-09-13T10:47:44.000Z</time>
      </trkpt>
      <trkpt lat="49.39278" lon="5.80657">
        <ele>301.20001220703</ele>
        <time>2022-09-13T10:47:45.000Z</time>
      </trkpt>
      <trkpt lat="49.39276" lon="5.80655">
        <ele>301.60000610352</ele>
        <time>2022-09-13T10:47:46.000Z</time>
      </trkpt>
      <trkpt lat="49.39275" lon="5.80652">
        <ele>302.20001220703</ele>
        <time>2022-09-13T10:47:47.000Z</time>
      </trkpt>
      <trkpt lat="49.39276" lon="5.80649">
        <ele>302.60000610352</ele>
        <time>2022-09-13T10:47:48.000Z</time>
      </trkpt>
      <trkpt lat="49.39277" lon="5.80645">
        <ele>302.79998779297</ele>
        <time>2022-09-13T10:47:49.000Z</time>
      </trkpt>
      <trkpt lat="49.39279" lon="5.80641">
        <ele>303.20001220703</ele>
        <time>2022-09-13T10:47:50.000Z</time>
      </trkpt>
      <trkpt lat="49.3928" lon="5.80637">
        <ele>303.20001220703</ele>
        <time>2022-09-13T10:47:51.000Z</time>
      </trkpt>
      <trkpt lat="49.39281" lon="5.80633">
        <ele>303.60000610352</ele>
        <time>2022-09-13T10:47:52.000Z</time>
      </trkpt>
      <trkpt lat="49.39283" lon="5.80629">
        <ele>303.79998779297</ele>
        <time>2022-09-13T10:47:53.000Z</time>
      </trkpt>
      <trkpt lat="49.39284" lon="5.80625">
        <ele>304.39999389648</ele>
        <time>2022-09-13T10:47:54.000Z</time>
      </trkpt>
      <trkpt lat="49.39285" lon="5.8062">
        <ele>304.60000610352</ele>
        <time>2022-09-13T10:47:55.000Z</time>
      </trkpt>
      <trkpt lat="49.39286" lon="5.80616">
        <ele>304.79998779297</ele>
        <time>2022-09-13T10:47:56.000Z</time>
      </trkpt>
      <trkpt lat="49.39287" lon="5.80612">
        <ele>305</ele>
        <time>2022-09-13T10:47:57.000Z</time>
      </trkpt>
      <trkpt lat="49.39288" lon="5.80607">
        <ele>305</ele>
        <time>2022-09-13T10:47:58.000Z</time>
      </trkpt>
      <trkpt lat="49.39289" lon="5.80603">
        <ele>305.39999389648</ele>
        <time>2022-09-13T10:47:59.000Z</time>
      </trkpt>
      <trkpt lat="49.39289" lon="5.80599">
        <ele>305.39999389648</ele>
        <time>2022-09-13T10:48:00.000Z</time>
      </trkpt>
      <trkpt lat="49.3929" lon="5.80594">
        <ele>305.60000610352</ele>
        <time>2022-09-13T10:48:01.000Z</time>
      </trkpt>
      <trkpt lat="49.39291" lon="5.80589">
        <ele>305.60000610352</ele>
        <time>2022-09-13T10:48:02.000Z</time>
      </trkpt>
      <trkpt lat="49.39292" lon="5.80585">
        <ele>306</ele>
        <time>2022-09-13T10:48:03.000Z</time>
      </trkpt>
      <trkpt lat="49.39292" lon="5.8058">
        <ele>306.20001220703</ele>
        <time>2022-09-13T10:48:04.000Z</time>
      </trkpt>
      <trkpt lat="49.39293" lon="5.80576">
        <ele>306.20001220703</ele>
        <time>2022-09-13T10:48:05.000Z</time>
      </trkpt>
      <trkpt lat="49.39293" lon="5.80571">
        <ele>306.39999389648</ele>
        <time>2022-09-13T10:48:06.000Z</time>
      </trkpt>
      <trkpt lat="49.39293" lon="5.80567">
        <ele>306.60000610352</ele>
        <time>2022-09-13T10:48:07.000Z</time>
      </trkpt>
      <trkpt lat="49.39293" lon="5.80563">
        <ele>306.79998779297</ele>
        <time>2022-09-13T10:48:08.000Z</time>
      </trkpt>
      <trkpt lat="49.39291" lon="5.80559">
        <ele>306.79998779297</ele>
        <time>2022-09-13T10:48:09.000Z</time>
      </trkpt>
      <trkpt lat="49.3929" lon="5.80555">
        <ele>307</ele>
        <time>2022-09-13T10:48:10.000Z</time>
      </trkpt>
      <trkpt lat="49.39288" lon="5.80551">
        <ele>307.20001220703</ele>
        <time>2022-09-13T10:48:11.000Z</time>
      </trkpt>
      <trkpt lat="49.39286" lon="5.80547">
        <ele>307.39999389648</ele>
        <time>2022-09-13T10:48:12.000Z</time>
      </trkpt>
      <trkpt lat="49.39284" lon="5.80544">
        <ele>307.60000610352</ele>
        <time>2022-09-13T10:48:13.000Z</time>
      </trkpt>
      <trkpt lat="49.39281" lon="5.80542">
        <ele>307.60000610352</ele>
        <time>2022-09-13T10:48:14.000Z</time>
      </trkpt>
      <trkpt lat="49.39279" lon="5.8054">
        <ele>307.79998779297</ele>
        <time>2022-09-13T10:48:15.000Z</time>
      </trkpt>
      <trkpt lat="49.39276" lon="5.80538">
        <ele>308</ele>
        <time>2022-09-13T10:48:16.000Z</time>
      </trkpt>
      <trkpt lat="49.39273" lon="5.80537">
        <ele>308.20001220703</ele>
        <time>2022-09-13T10:48:17.000Z</time>
      </trkpt>
      <trkpt lat="49.3927" lon="5.80536">
        <ele>308.60000610352</ele>
        <time>2022-09-13T10:48:18.000Z</time>
      </trkpt>
      <trkpt lat="49.39267" lon="5.80537">
        <ele>308.79998779297</ele>
        <time>2022-09-13T10:48:19.000Z</time>
      </trkpt>
      <trkpt lat="49.39264" lon="5.80538">
        <ele>309.20001220703</ele>
        <time>2022-09-13T10:48:20.000Z</time>
      </trkpt>
      <trkpt lat="49.39261" lon="5.80539">
        <ele>309.39999389648</ele>
        <time>2022-09-13T10:48:21.000Z</time>
      </trkpt>
      <trkpt lat="49.39258" lon="5.80541">
        <ele>310</ele>
        <time>2022-09-13T10:48:22.000Z</time>
      </trkpt>
      <trkpt lat="49.39255" lon="5.80542">
        <ele>310.20001220703</ele>
        <time>2022-09-13T10:48:23.000Z</time>
      </trkpt>
      <trkpt lat="49.39253" lon="5.80544">
        <ele>310.79998779297</ele>
        <time>2022-09-13T10:48:24.000Z</time>
      </trkpt>
      <trkpt lat="49.39251" lon="5.80547">
        <ele>311</ele>
        <time>2022-09-13T10:48:25.000Z</time>
      </trkpt>
      <trkpt lat="49.39248" lon="5.8055">
        <ele>311.39999389648</ele>
        <time>2022-09-13T10:48:26.000Z</time>
      </trkpt>
      <trkpt lat="49.39246" lon="5.80553">
        <ele>311.60000610352</ele>
        <time>2022-09-13T10:48:27.000Z</time>
      </trkpt>
      <trkpt lat="49.39243" lon="5.80555">
        <ele>311.79998779297</ele>
        <time>2022-09-13T10:48:28.000Z</time>
      </trkpt>
      <trkpt lat="49.39241" lon="5.80558">
        <ele>312</ele>
        <time>2022-09-13T10:48:29.000Z</time>
      </trkpt>
      <trkpt lat="49.39239" lon="5.80561">
        <ele>312.20001220703</ele>
        <time>2022-09-13T10:48:30.000Z</time>
      </trkpt>
      <trkpt lat="49.39236" lon="5.80564">
        <ele>312.79998779297</ele>
        <time>2022-09-13T10:48:31.000Z</time>
      </trkpt>
      <trkpt lat="49.39234" lon="5.80567">
        <ele>313</ele>
        <time>2022-09-13T10:48:32.000Z</time>
      </trkpt>
      <trkpt lat="49.39231" lon="5.80569">
        <ele>313.39999389648</ele>
        <time>2022-09-13T10:48:33.000Z</time>
      </trkpt>
      <trkpt lat="49.39228" lon="5.80572">
        <ele>313.79998779297</ele>
        <time>2022-09-13T10:48:34.000Z</time>
      </trkpt>
      <trkpt lat="49.39225" lon="5.80575">
        <ele>314</ele>
        <time>2022-09-13T10:48:35.000Z</time>
      </trkpt>
      <trkpt lat="49.39223" lon="5.80578">
        <ele>314.39999389648</ele>
        <time>2022-09-13T10:48:36.000Z</time>
      </trkpt>
      <trkpt lat="49.39221" lon="5.8058">
        <ele>314.60000610352</ele>
        <time>2022-09-13T10:48:37.000Z</time>
      </trkpt>
      <trkpt lat="49.39218" lon="5.80583">
        <ele>314.79998779297</ele>
        <time>2022-09-13T10:48:38.000Z</time>
      </trkpt>
      <trkpt lat="49.39216" lon="5.80586">
        <ele>315</ele>
        <time>2022-09-13T10:48:39.000Z</time>
      </trkpt>
      <trkpt lat="49.39213" lon="5.80589">
        <ele>315.20001220703</ele>
        <time>2022-09-13T10:48:40.000Z</time>
      </trkpt>
      <trkpt lat="49.39211" lon="5.80591">
        <ele>315.39999389648</ele>
        <time>2022-09-13T10:48:41.000Z</time>
      </trkpt>
      <trkpt lat="49.39209" lon="5.80594">
        <ele>315.60000610352</ele>
        <time>2022-09-13T10:48:42.000Z</time>
      </trkpt>
      <trkpt lat="49.39206" lon="5.80596">
        <ele>315.79998779297</ele>
        <time>2022-09-13T10:48:43.000Z</time>
      </trkpt>
      <trkpt lat="49.39204" lon="5.80598">
        <ele>316</ele>
        <time>2022-09-13T10:48:44.000Z</time>
      </trkpt>
      <trkpt lat="49.39202" lon="5.806">
        <ele>316.39999389648</ele>
        <time>2022-09-13T10:48:45.000Z</time>
      </trkpt>
      <trkpt lat="49.39199" lon="5.80603">
        <ele>316.60000610352</ele>
        <time>2022-09-13T10:48:46.000Z</time>
      </trkpt>
      <trkpt lat="49.39197" lon="5.80606">
        <ele>316.79998779297</ele>
        <time>2022-09-13T10:48:47.000Z</time>
      </trkpt>
      <trkpt lat="49.39195" lon="5.80608">
        <ele>317.20001220703</ele>
        <time>2022-09-13T10:48:48.000Z</time>
      </trkpt>
      <trkpt lat="49.39192" lon="5.80611">
        <ele>317.39999389648</ele>
        <time>2022-09-13T10:48:49.000Z</time>
      </trkpt>
      <trkpt lat="49.3919" lon="5.80613">
        <ele>317.60000610352</ele>
        <time>2022-09-13T10:48:50.000Z</time>
      </trkpt>
      <trkpt lat="49.39188" lon="5.80615">
        <ele>318</ele>
        <time>2022-09-13T10:48:51.000Z</time>
      </trkpt>
      <trkpt lat="49.39185" lon="5.80618">
        <ele>318.20001220703</ele>
        <time>2022-09-13T10:48:52.000Z</time>
      </trkpt>
      <trkpt lat="49.39183" lon="5.80621">
        <ele>318.39999389648</ele>
        <time>2022-09-13T10:48:53.000Z</time>
      </trkpt>
      <trkpt lat="49.3918" lon="5.80623">
        <ele>318.39999389648</ele>
        <time>2022-09-13T10:48:54.000Z</time>
      </trkpt>
      <trkpt lat="49.39177" lon="5.80625">
        <ele>318.39999389648</ele>
        <time>2022-09-13T10:48:55.000Z</time>
      </trkpt>
      <trkpt lat="49.39175" lon="5.80627">
        <ele>318.60000610352</ele>
        <time>2022-09-13T10:48:56.000Z</time>
      </trkpt>
      <trkpt lat="49.39172" lon="5.80628">
        <ele>318.79998779297</ele>
        <time>2022-09-13T10:48:57.000Z</time>
      </trkpt>
      <trkpt lat="49.39169" lon="5.80629">
        <ele>318.79998779297</ele>
        <time>2022-09-13T10:48:58.000Z</time>
      </trkpt>
      <trkpt lat="49.39166" lon="5.8063">
        <ele>319.20001220703</ele>
        <time>2022-09-13T10:48:59.000Z</time>
      </trkpt>
      <trkpt lat="49.39164" lon="5.8063">
        <ele>319.39999389648</ele>
        <time>2022-09-13T10:49:00.000Z</time>
      </trkpt>
      <trkpt lat="49.39161" lon="5.80631">
        <ele>319.79998779297</ele>
        <time>2022-09-13T10:49:01.000Z</time>
      </trkpt>
      <trkpt lat="49.39158" lon="5.80632">
        <ele>320</ele>
        <time>2022-09-13T10:49:02.000Z</time>
      </trkpt>
      <trkpt lat="49.39156" lon="5.80635">
        <ele>320.20001220703</ele>
        <time>2022-09-13T10:49:03.000Z</time>
      </trkpt>
      <trkpt lat="49.39155" lon="5.80638">
        <ele>320.39999389648</ele>
        <time>2022-09-13T10:49:04.000Z</time>
      </trkpt>
      <trkpt lat="49.39154" lon="5.8064">
        <ele>320.79998779297</ele>
        <time>2022-09-13T10:49:05.000Z</time>
      </trkpt>
      <trkpt lat="49.39154" lon="5.80643">
        <ele>321.20001220703</ele>
        <time>2022-09-13T10:49:06.000Z</time>
      </trkpt>
      <trkpt lat="49.39155" lon="5.80647">
        <ele>321.39999389648</ele>
        <time>2022-09-13T10:49:07.000Z</time>
      </trkpt>
      <trkpt lat="49.39155" lon="5.80651">
        <ele>321.79998779297</ele>
        <time>2022-09-13T10:49:08.000Z</time>
      </trkpt>
      <trkpt lat="49.39156" lon="5.80655">
        <ele>322</ele>
        <time>2022-09-13T10:49:09.000Z</time>
      </trkpt>
      <trkpt lat="49.39157" lon="5.8066">
        <ele>322</ele>
        <time>2022-09-13T10:49:10.000Z</time>
      </trkpt>
      <trkpt lat="49.39158" lon="5.80665">
        <ele>322</ele>
        <time>2022-09-13T10:49:11.000Z</time>
      </trkpt>
      <trkpt lat="49.39159" lon="5.80671">
        <ele>322</ele>
        <time>2022-09-13T10:49:12.000Z</time>
      </trkpt>
      <trkpt lat="49.3916" lon="5.80676">
        <ele>322</ele>
        <time>2022-09-13T10:49:13.000Z</time>
      </trkpt>
      <trkpt lat="49.39162" lon="5.80683">
        <ele>322</ele>
        <time>2022-09-13T10:49:14.000Z</time>
      </trkpt>
      <trkpt lat="49.39162" lon="5.8069">
        <ele>321.60000610352</ele>
        <time>2022-09-13T10:49:15.000Z</time>
      </trkpt>
      <trkpt lat="49.39162" lon="5.80695">
        <ele>321.39999389648</ele>
        <time>2022-09-13T10:49:16.000Z</time>
      </trkpt>
      <trkpt lat="49.39161" lon="5.80703">
        <ele>321.20001220703</ele>
        <time>2022-09-13T10:49:17.000Z</time>
      </trkpt>
      <trkpt lat="49.3916" lon="5.80708">
        <ele>321</ele>
        <time>2022-09-13T10:49:18.000Z</time>
      </trkpt>
      <trkpt lat="49.3916" lon="5.80713">
        <ele>320.39999389648</ele>
        <time>2022-09-13T10:49:19.000Z</time>
      </trkpt>
      <trkpt lat="49.39159" lon="5.80718">
        <ele>320</ele>
        <time>2022-09-13T10:49:20.000Z</time>
      </trkpt>
      <trkpt lat="49.39159" lon="5.80722">
        <ele>320</ele>
        <time>2022-09-13T10:49:21.000Z</time>
      </trkpt>
      <trkpt lat="49.39158" lon="5.80725">
        <ele>319.79998779297</ele>
        <time>2022-09-13T10:49:22.000Z</time>
      </trkpt>
      <trkpt lat="49.39158" lon="5.80729">
        <ele>319.79998779297</ele>
        <time>2022-09-13T10:49:23.000Z</time>
      </trkpt>
      <trkpt lat="49.39158" lon="5.80732">
        <ele>319.60000610352</ele>
        <time>2022-09-13T10:49:24.000Z</time>
      </trkpt>
      <trkpt lat="49.39157" lon="5.80735">
        <ele>319.60000610352</ele>
        <time>2022-09-13T10:49:25.000Z</time>
      </trkpt>
      <trkpt lat="49.39153" lon="5.80748">
        <ele>319.79998779297</ele>
        <time>2022-09-13T10:49:29.000Z</time>
      </trkpt>
      <trkpt lat="49.39153" lon="5.8075">
        <ele>319.79998779297</ele>
        <time>2022-09-13T10:49:30.000Z</time>
      </trkpt>
      <trkpt lat="49.39152" lon="5.80753">
        <ele>319.79998779297</ele>
        <time>2022-09-13T10:49:31.000Z</time>
      </trkpt>
      <trkpt lat="49.39151" lon="5.80756">
        <ele>319.79998779297</ele>
        <time>2022-09-13T10:49:32.000Z</time>
      </trkpt>
      <trkpt lat="49.39151" lon="5.80759">
        <ele>320</ele>
        <time>2022-09-13T10:49:33.000Z</time>
      </trkpt>
      <trkpt lat="49.39151" lon="5.80764">
        <ele>320</ele>
        <time>2022-09-13T10:49:34.000Z</time>
      </trkpt>
      <trkpt lat="49.39151" lon="5.80768">
        <ele>319.79998779297</ele>
        <time>2022-09-13T10:49:35.000Z</time>
      </trkpt>
      <trkpt lat="49.39147" lon="5.80778">
        <ele>320</ele>
        <time>2022-09-13T10:49:37.000Z</time>
      </trkpt>
      <trkpt lat="49.39146" lon="5.80783">
        <ele>320</ele>
        <time>2022-09-13T10:49:38.000Z</time>
      </trkpt>
      <trkpt lat="49.39144" lon="5.80801">
        <ele>319.79998779297</ele>
        <time>2022-09-13T10:49:41.000Z</time>
      </trkpt>
      <trkpt lat="49.39133" lon="5.8085">
        <ele>319.39999389648</ele>
        <time>2022-09-13T10:49:49.000Z</time>
      </trkpt>
      <trkpt lat="49.39132" lon="5.80854">
        <ele>319.39999389648</ele>
        <time>2022-09-13T10:49:50.000Z</time>
      </trkpt>
      <trkpt lat="49.39131" lon="5.80868">
        <ele>319</ele>
        <time>2022-09-13T10:49:53.000Z</time>
      </trkpt>
      <trkpt lat="49.3913" lon="5.80875">
        <ele>318.79998779297</ele>
        <time>2022-09-13T10:49:54.000Z</time>
      </trkpt>
      <trkpt lat="49.39124" lon="5.8092">
        <ele>318</ele>
        <time>2022-09-13T10:49:59.000Z</time>
      </trkpt>
      <trkpt lat="49.39124" lon="5.80938">
        <ele>317.79998779297</ele>
        <time>2022-09-13T10:50:01.000Z</time>
      </trkpt>
      <trkpt lat="49.39123" lon="5.80945">
        <ele>317.79998779297</ele>
        <time>2022-09-13T10:50:02.000Z</time>
      </trkpt>
      <trkpt lat="49.39123" lon="5.80953">
        <ele>317.60000610352</ele>
        <time>2022-09-13T10:50:03.000Z</time>
      </trkpt>
      <trkpt lat="49.39122" lon="5.80963">
        <ele>317.60000610352</ele>
        <time>2022-09-13T10:50:04.000Z</time>
      </trkpt>
      <trkpt lat="49.39124" lon="5.80972">
        <ele>317.20001220703</ele>
        <time>2022-09-13T10:50:05.000Z</time>
      </trkpt>
      <trkpt lat="49.39127" lon="5.80981">
        <ele>317</ele>
        <time>2022-09-13T10:50:06.000Z</time>
      </trkpt>
      <trkpt lat="49.3913" lon="5.80993">
        <ele>316.79998779297</ele>
        <time>2022-09-13T10:50:07.000Z</time>
      </trkpt>
      <trkpt lat="49.39132" lon="5.81004">
        <ele>316.60000610352</ele>
        <time>2022-09-13T10:50:08.000Z</time>
      </trkpt>
      <trkpt lat="49.39134" lon="5.81016">
        <ele>316.20001220703</ele>
        <time>2022-09-13T10:50:09.000Z</time>
      </trkpt>
      <trkpt lat="49.39137" lon="5.81047">
        <ele>315.60000610352</ele>
        <time>2022-09-13T10:50:11.000Z</time>
      </trkpt>
      <trkpt lat="49.39139" lon="5.81064">
        <ele>314.60000610352</ele>
        <time>2022-09-13T10:50:12.000Z</time>
      </trkpt>
      <trkpt lat="49.39141" lon="5.8108">
        <ele>314.39999389648</ele>
        <time>2022-09-13T10:50:13.000Z</time>
      </trkpt>
      <trkpt lat="49.39143" lon="5.81093">
        <ele>313</ele>
        <time>2022-09-13T10:50:14.000Z</time>
      </trkpt>
      <trkpt lat="49.39146" lon="5.81112">
        <ele>311.20001220703</ele>
        <time>2022-09-13T10:50:15.000Z</time>
      </trkpt>
      <trkpt lat="49.39149" lon="5.81128">
        <ele>310.79998779297</ele>
        <time>2022-09-13T10:50:16.000Z</time>
      </trkpt>
      <trkpt lat="49.3915" lon="5.81142">
        <ele>310.39999389648</ele>
        <time>2022-09-13T10:50:17.000Z</time>
      </trkpt>
      <trkpt lat="49.39152" lon="5.81156">
        <ele>309.60000610352</ele>
        <time>2022-09-13T10:50:18.000Z</time>
      </trkpt>
      <trkpt lat="49.39152" lon="5.81169">
        <ele>308.79998779297</ele>
        <time>2022-09-13T10:50:19.000Z</time>
      </trkpt>
      <trkpt lat="49.39154" lon="5.81183">
        <ele>308.60000610352</ele>
        <time>2022-09-13T10:50:20.000Z</time>
      </trkpt>
      <trkpt lat="49.39156" lon="5.81196">
        <ele>307.79998779297</ele>
        <time>2022-09-13T10:50:21.000Z</time>
      </trkpt>
      <trkpt lat="49.39159" lon="5.81213">
        <ele>307.39999389648</ele>
        <time>2022-09-13T10:50:22.000Z</time>
      </trkpt>
      <trkpt lat="49.39162" lon="5.81228">
        <ele>307</ele>
        <time>2022-09-13T10:50:23.000Z</time>
      </trkpt>
      <trkpt lat="49.39165" lon="5.81237">
        <ele>306.39999389648</ele>
        <time>2022-09-13T10:50:24.000Z</time>
      </trkpt>
      <trkpt lat="49.39169" lon="5.81247">
        <ele>306.20001220703</ele>
        <time>2022-09-13T10:50:25.000Z</time>
      </trkpt>
      <trkpt lat="49.39174" lon="5.81255">
        <ele>305.20001220703</ele>
        <time>2022-09-13T10:50:26.000Z</time>
      </trkpt>
      <trkpt lat="49.39179" lon="5.8126">
        <ele>304.79998779297</ele>
        <time>2022-09-13T10:50:27.000Z</time>
      </trkpt>
      <trkpt lat="49.39184" lon="5.81265">
        <ele>304.20001220703</ele>
        <time>2022-09-13T10:50:28.000Z</time>
      </trkpt>
      <trkpt lat="49.39188" lon="5.8127">
        <ele>303.79998779297</ele>
        <time>2022-09-13T10:50:29.000Z</time>
      </trkpt>
      <trkpt lat="49.39193" lon="5.81275">
        <ele>303.20001220703</ele>
        <time>2022-09-13T10:50:30.000Z</time>
      </trkpt>
      <trkpt lat="49.39196" lon="5.81285">
        <ele>302.20001220703</ele>
        <time>2022-09-13T10:50:31.000Z</time>
      </trkpt>
      <trkpt lat="49.39199" lon="5.81291">
        <ele>302</ele>
        <time>2022-09-13T10:50:32.000Z</time>
      </trkpt>
      <trkpt lat="49.39198" lon="5.81298">
        <ele>301.39999389648</ele>
        <time>2022-09-13T10:50:33.000Z</time>
      </trkpt>
      <trkpt lat="49.39196" lon="5.81303">
        <ele>301.20001220703</ele>
        <time>2022-09-13T10:50:34.000Z</time>
      </trkpt>
      <trkpt lat="49.39194" lon="5.81307">
        <ele>300.79998779297</ele>
        <time>2022-09-13T10:50:35.000Z</time>
      </trkpt>
      <trkpt lat="49.39192" lon="5.81309">
        <ele>300.79998779297</ele>
        <time>2022-09-13T10:50:36.000Z</time>
      </trkpt>
      <trkpt lat="49.39192" lon="5.8131">
        <ele>300.60000610352</ele>
        <time>2022-09-13T10:50:37.000Z</time>
      </trkpt>
      <trkpt lat="49.3919" lon="5.81312">
        <ele>300.60000610352</ele>
        <time>2022-09-13T10:50:38.000Z</time>
      </trkpt>
      <trkpt lat="49.39188" lon="5.81315">
        <ele>300.60000610352</ele>
        <time>2022-09-13T10:50:39.000Z</time>
      </trkpt>
      <trkpt lat="49.39187" lon="5.8132">
        <ele>300.60000610352</ele>
        <time>2022-09-13T10:50:40.000Z</time>
      </trkpt>
      <trkpt lat="49.39187" lon="5.81323">
        <ele>300.60000610352</ele>
        <time>2022-09-13T10:50:41.000Z</time>
      </trkpt>
      <trkpt lat="49.39187" lon="5.81327">
        <ele>300.79998779297</ele>
        <time>2022-09-13T10:50:42.000Z</time>
      </trkpt>
      <trkpt lat="49.39187" lon="5.8133">
        <ele>300.79998779297</ele>
        <time>2022-09-13T10:50:43.000Z</time>
      </trkpt>
      <trkpt lat="49.39188" lon="5.81336">
        <ele>301</ele>
        <time>2022-09-13T10:50:44.000Z</time>
      </trkpt>
      <trkpt lat="49.39188" lon="5.81338">
        <ele>301.20001220703</ele>
        <time>2022-09-13T10:50:45.000Z</time>
      </trkpt>
      <trkpt lat="49.39189" lon="5.81342">
        <ele>301.20001220703</ele>
        <time>2022-09-13T10:50:46.000Z</time>
      </trkpt>
      <trkpt lat="49.39187" lon="5.81346">
        <ele>301.20001220703</ele>
        <time>2022-09-13T10:50:47.000Z</time>
      </trkpt>
      <trkpt lat="49.39186" lon="5.81349">
        <ele>301.39999389648</ele>
        <time>2022-09-13T10:50:48.000Z</time>
      </trkpt>
      <trkpt lat="49.39186" lon="5.81353">
        <ele>301.60000610352</ele>
        <time>2022-09-13T10:50:49.000Z</time>
      </trkpt>
      <trkpt lat="49.39184" lon="5.81356">
        <ele>301.60000610352</ele>
        <time>2022-09-13T10:50:50.000Z</time>
      </trkpt>
      <trkpt lat="49.39184" lon="5.81359">
        <ele>301.79998779297</ele>
        <time>2022-09-13T10:50:51.000Z</time>
      </trkpt>
      <trkpt lat="49.39184" lon="5.81365">
        <ele>302.20001220703</ele>
        <time>2022-09-13T10:50:53.000Z</time>
      </trkpt>
      <trkpt lat="49.39184" lon="5.81368">
        <ele>302.60000610352</ele>
        <time>2022-09-13T10:50:54.000Z</time>
      </trkpt>
      <trkpt lat="49.39183" lon="5.81372">
        <ele>302.60000610352</ele>
        <time>2022-09-13T10:50:55.000Z</time>
      </trkpt>
      <trkpt lat="49.39183" lon="5.81376">
        <ele>302.79998779297</ele>
        <time>2022-09-13T10:50:56.000Z</time>
      </trkpt>
      <trkpt lat="49.39182" lon="5.81393">
        <ele>303.39999389648</ele>
        <time>2022-09-13T10:51:00.000Z</time>
      </trkpt>
      <trkpt lat="49.39182" lon="5.81398">
        <ele>303.79998779297</ele>
        <time>2022-09-13T10:51:01.000Z</time>
      </trkpt>
      <trkpt lat="49.39183" lon="5.81404">
        <ele>304</ele>
        <time>2022-09-13T10:51:03.000Z</time>
      </trkpt>
      <trkpt lat="49.39183" lon="5.81411">
        <ele>304.20001220703</ele>
        <time>2022-09-13T10:51:05.000Z</time>
      </trkpt>
      <trkpt lat="49.39182" lon="5.81414">
        <ele>304.39999389648</ele>
        <time>2022-09-13T10:51:06.000Z</time>
      </trkpt>
      <trkpt lat="49.39181" lon="5.81419">
        <ele>304.60000610352</ele>
        <time>2022-09-13T10:51:07.000Z</time>
      </trkpt>
      <trkpt lat="49.39178" lon="5.81439">
        <ele>305.20001220703</ele>
        <time>2022-09-13T10:51:09.000Z</time>
      </trkpt>
      <trkpt lat="49.39177" lon="5.81444">
        <ele>305.39999389648</ele>
        <time>2022-09-13T10:51:10.000Z</time>
      </trkpt>
      <trkpt lat="49.39177" lon="5.81449">
        <ele>305.60000610352</ele>
        <time>2022-09-13T10:51:11.000Z</time>
      </trkpt>
      <trkpt lat="49.39175" lon="5.81456">
        <ele>305.79998779297</ele>
        <time>2022-09-13T10:51:12.000Z</time>
      </trkpt>
      <trkpt lat="49.39174" lon="5.81461">
        <ele>305.79998779297</ele>
        <time>2022-09-13T10:51:13.000Z</time>
      </trkpt>
      <trkpt lat="49.39174" lon="5.81466">
        <ele>306</ele>
        <time>2022-09-13T10:51:14.000Z</time>
      </trkpt>
      <trkpt lat="49.39172" lon="5.81473">
        <ele>306</ele>
        <time>2022-09-13T10:51:15.000Z</time>
      </trkpt>
      <trkpt lat="49.39173" lon="5.81479">
        <ele>306.20001220703</ele>
        <time>2022-09-13T10:51:16.000Z</time>
      </trkpt>
      <trkpt lat="49.39174" lon="5.81486">
        <ele>306.20001220703</ele>
        <time>2022-09-13T10:51:17.000Z</time>
      </trkpt>
      <trkpt lat="49.39174" lon="5.81492">
        <ele>306.20001220703</ele>
        <time>2022-09-13T10:51:18.000Z</time>
      </trkpt>
      <trkpt lat="49.39175" lon="5.81497">
        <ele>306.20001220703</ele>
        <time>2022-09-13T10:51:19.000Z</time>
      </trkpt>
      <trkpt lat="49.39174" lon="5.81502">
        <ele>306.39999389648</ele>
        <time>2022-09-13T10:51:20.000Z</time>
      </trkpt>
      <trkpt lat="49.39173" lon="5.81508">
        <ele>306.39999389648</ele>
        <time>2022-09-13T10:51:21.000Z</time>
      </trkpt>
      <trkpt lat="49.39172" lon="5.81512">
        <ele>306.39999389648</ele>
        <time>2022-09-13T10:51:22.000Z</time>
      </trkpt>
      <trkpt lat="49.39171" lon="5.81517">
        <ele>306.39999389648</ele>
        <time>2022-09-13T10:51:23.000Z</time>
      </trkpt>
      <trkpt lat="49.39172" lon="5.81522">
        <ele>306.79998779297</ele>
        <time>2022-09-13T10:51:24.000Z</time>
      </trkpt>
      <trkpt lat="49.39172" lon="5.81526">
        <ele>306.79998779297</ele>
        <time>2022-09-13T10:51:25.000Z</time>
      </trkpt>
      <trkpt lat="49.39173" lon="5.81529">
        <ele>306.79998779297</ele>
        <time>2022-09-13T10:51:26.000Z</time>
      </trkpt>
      <trkpt lat="49.39172" lon="5.81531">
        <ele>306.79998779297</ele>
        <time>2022-09-13T10:51:27.000Z</time>
      </trkpt>
      <trkpt lat="49.39173" lon="5.81532">
        <ele>306.79998779297</ele>
        <time>2022-09-13T10:51:28.000Z</time>
      </trkpt>
      <trkpt lat="49.39173" lon="5.81534">
        <ele>307</ele>
        <time>2022-09-13T10:51:29.000Z</time>
      </trkpt>
      <trkpt lat="49.39172" lon="5.81536">
        <ele>307</ele>
        <time>2022-09-13T10:51:30.000Z</time>
      </trkpt>
      <trkpt lat="49.39169" lon="5.81539">
        <ele>307.20001220703</ele>
        <time>2022-09-13T10:51:31.000Z</time>
      </trkpt>
      <trkpt lat="49.39168" lon="5.81538">
        <ele>307.39999389648</ele>
        <time>2022-09-13T10:51:32.000Z</time>
      </trkpt>
      <trkpt lat="49.39166" lon="5.8154">
        <ele>307.79998779297</ele>
        <time>2022-09-13T10:51:33.000Z</time>
      </trkpt>
      <trkpt lat="49.39165" lon="5.81542">
        <ele>308.20001220703</ele>
        <time>2022-09-13T10:51:34.000Z</time>
      </trkpt>
      <trkpt lat="49.39164" lon="5.81543">
        <ele>308.79998779297</ele>
        <time>2022-09-13T10:51:35.000Z</time>
      </trkpt>
      <trkpt lat="49.39163" lon="5.81545">
        <ele>308.79998779297</ele>
        <time>2022-09-13T10:51:36.000Z</time>
      </trkpt>
      <trkpt lat="49.39161" lon="5.81546">
        <ele>309.39999389648</ele>
        <time>2022-09-13T10:51:37.000Z</time>
      </trkpt>
      <trkpt lat="49.3916" lon="5.81548">
        <ele>309.79998779297</ele>
        <time>2022-09-13T10:51:38.000Z</time>
      </trkpt>
      <trkpt lat="49.39158" lon="5.81551">
        <ele>310.39999389648</ele>
        <time>2022-09-13T10:51:39.000Z</time>
      </trkpt>
      <trkpt lat="49.39157" lon="5.81553">
        <ele>311.39999389648</ele>
        <time>2022-09-13T10:51:40.000Z</time>
      </trkpt>
      <trkpt lat="49.39155" lon="5.81555">
        <ele>311.60000610352</ele>
        <time>2022-09-13T10:51:41.000Z</time>
      </trkpt>
      <trkpt lat="49.39154" lon="5.81557">
        <ele>312.20001220703</ele>
        <time>2022-09-13T10:51:42.000Z</time>
      </trkpt>
      <trkpt lat="49.39153" lon="5.81559">
        <ele>312.39999389648</ele>
        <time>2022-09-13T10:51:43.000Z</time>
      </trkpt>
      <trkpt lat="49.39151" lon="5.81561">
        <ele>313.20001220703</ele>
        <time>2022-09-13T10:51:44.000Z</time>
      </trkpt>
      <trkpt lat="49.3915" lon="5.81564">
        <ele>313.39999389648</ele>
        <time>2022-09-13T10:51:45.000Z</time>
      </trkpt>
      <trkpt lat="49.39149" lon="5.81567">
        <ele>314</ele>
        <time>2022-09-13T10:51:46.000Z</time>
      </trkpt>
      <trkpt lat="49.39147" lon="5.8157">
        <ele>314.39999389648</ele>
        <time>2022-09-13T10:51:47.000Z</time>
      </trkpt>
      <trkpt lat="49.39146" lon="5.81573">
        <ele>314.60000610352</ele>
        <time>2022-09-13T10:51:48.000Z</time>
      </trkpt>
      <trkpt lat="49.39145" lon="5.81575">
        <ele>315.60000610352</ele>
        <time>2022-09-13T10:51:49.000Z</time>
      </trkpt>
      <trkpt lat="49.39144" lon="5.81577">
        <ele>315.79998779297</ele>
        <time>2022-09-13T10:51:50.000Z</time>
      </trkpt>
      <trkpt lat="49.39142" lon="5.81579">
        <ele>316.20001220703</ele>
        <time>2022-09-13T10:51:51.000Z</time>
      </trkpt>
      <trkpt lat="49.39141" lon="5.81581">
        <ele>316.39999389648</ele>
        <time>2022-09-13T10:51:52.000Z</time>
      </trkpt>
      <trkpt lat="49.3914" lon="5.81583">
        <ele>316.79998779297</ele>
        <time>2022-09-13T10:51:53.000Z</time>
      </trkpt>
      <trkpt lat="49.39139" lon="5.81586">
        <ele>317.20001220703</ele>
        <time>2022-09-13T10:51:54.000Z</time>
      </trkpt>
      <trkpt lat="49.39137" lon="5.8159">
        <ele>317.60000610352</ele>
        <time>2022-09-13T10:51:55.000Z</time>
      </trkpt>
      <trkpt lat="49.39136" lon="5.81591">
        <ele>317.79998779297</ele>
        <time>2022-09-13T10:51:56.000Z</time>
      </trkpt>
      <trkpt lat="49.39136" lon="5.81591">
        <ele>318</ele>
        <time>2022-09-13T10:51:57.000Z</time>
      </trkpt>
      <trkpt lat="49.39135" lon="5.81592">
        <ele>318.39999389648</ele>
        <time>2022-09-13T10:51:58.000Z</time>
      </trkpt>
      <trkpt lat="49.39134" lon="5.81593">
        <ele>318.60000610352</ele>
        <time>2022-09-13T10:51:59.000Z</time>
      </trkpt>
      <trkpt lat="49.39133" lon="5.81595">
        <ele>319.20001220703</ele>
        <time>2022-09-13T10:52:00.000Z</time>
      </trkpt>
      <trkpt lat="49.39133" lon="5.81596">
        <ele>319.39999389648</ele>
        <time>2022-09-13T10:52:01.000Z</time>
      </trkpt>
      <trkpt lat="49.39132" lon="5.81597">
        <ele>319.60000610352</ele>
        <time>2022-09-13T10:52:02.000Z</time>
      </trkpt>
      <trkpt lat="49.3913" lon="5.81598">
        <ele>320</ele>
        <time>2022-09-13T10:52:03.000Z</time>
      </trkpt>
      <trkpt lat="49.39128" lon="5.816">
        <ele>320.39999389648</ele>
        <time>2022-09-13T10:52:04.000Z</time>
      </trkpt>
      <trkpt lat="49.39126" lon="5.81603">
        <ele>320.79998779297</ele>
        <time>2022-09-13T10:52:05.000Z</time>
      </trkpt>
      <trkpt lat="49.39124" lon="5.81605">
        <ele>321</ele>
        <time>2022-09-13T10:52:06.000Z</time>
      </trkpt>
      <trkpt lat="49.39123" lon="5.81608">
        <ele>321.39999389648</ele>
        <time>2022-09-13T10:52:07.000Z</time>
      </trkpt>
      <trkpt lat="49.39122" lon="5.8161">
        <ele>321.60000610352</ele>
        <time>2022-09-13T10:52:08.000Z</time>
      </trkpt>
      <trkpt lat="49.3912" lon="5.81613">
        <ele>321.79998779297</ele>
        <time>2022-09-13T10:52:09.000Z</time>
      </trkpt>
      <trkpt lat="49.39119" lon="5.81615">
        <ele>322.39999389648</ele>
        <time>2022-09-13T10:52:10.000Z</time>
      </trkpt>
      <trkpt lat="49.39118" lon="5.81618">
        <ele>322.60000610352</ele>
        <time>2022-09-13T10:52:11.000Z</time>
      </trkpt>
      <trkpt lat="49.39117" lon="5.81621">
        <ele>323.20001220703</ele>
        <time>2022-09-13T10:52:12.000Z</time>
      </trkpt>
      <trkpt lat="49.39116" lon="5.81624">
        <ele>323.39999389648</ele>
        <time>2022-09-13T10:52:13.000Z</time>
      </trkpt>
      <trkpt lat="49.39115" lon="5.81629">
        <ele>323.79998779297</ele>
        <time>2022-09-13T10:52:14.000Z</time>
      </trkpt>
      <trkpt lat="49.39113" lon="5.81633">
        <ele>324</ele>
        <time>2022-09-13T10:52:15.000Z</time>
      </trkpt>
      <trkpt lat="49.39112" lon="5.81637">
        <ele>324.20001220703</ele>
        <time>2022-09-13T10:52:16.000Z</time>
      </trkpt>
      <trkpt lat="49.39111" lon="5.8164">
        <ele>324.39999389648</ele>
        <time>2022-09-13T10:52:17.000Z</time>
      </trkpt>
      <trkpt lat="49.39109" lon="5.81643">
        <ele>324.60000610352</ele>
        <time>2022-09-13T10:52:18.000Z</time>
      </trkpt>
      <trkpt lat="49.39108" lon="5.81645">
        <ele>325</ele>
        <time>2022-09-13T10:52:19.000Z</time>
      </trkpt>
      <trkpt lat="49.39106" lon="5.81648">
        <ele>325</ele>
        <time>2022-09-13T10:52:20.000Z</time>
      </trkpt>
      <trkpt lat="49.39105" lon="5.81651">
        <ele>325.20001220703</ele>
        <time>2022-09-13T10:52:21.000Z</time>
      </trkpt>
      <trkpt lat="49.39104" lon="5.81656">
        <ele>325.39999389648</ele>
        <time>2022-09-13T10:52:22.000Z</time>
      </trkpt>
      <trkpt lat="49.39103" lon="5.81661">
        <ele>325.39999389648</ele>
        <time>2022-09-13T10:52:23.000Z</time>
      </trkpt>
      <trkpt lat="49.39102" lon="5.81666">
        <ele>325.60000610352</ele>
        <time>2022-09-13T10:52:24.000Z</time>
      </trkpt>
      <trkpt lat="49.39102" lon="5.8167">
        <ele>325.79998779297</ele>
        <time>2022-09-13T10:52:25.000Z</time>
      </trkpt>
      <trkpt lat="49.39103" lon="5.81675">
        <ele>326</ele>
        <time>2022-09-13T10:52:26.000Z</time>
      </trkpt>
      <trkpt lat="49.39103" lon="5.8168">
        <ele>326</ele>
        <time>2022-09-13T10:52:27.000Z</time>
      </trkpt>
      <trkpt lat="49.39103" lon="5.81685">
        <ele>326.20001220703</ele>
        <time>2022-09-13T10:52:28.000Z</time>
      </trkpt>
      <trkpt lat="49.39103" lon="5.81689">
        <ele>326.20001220703</ele>
        <time>2022-09-13T10:52:29.000Z</time>
      </trkpt>
      <trkpt lat="49.39104" lon="5.81692">
        <ele>326.39999389648</ele>
        <time>2022-09-13T10:52:30.000Z</time>
      </trkpt>
      <trkpt lat="49.39102" lon="5.81698">
        <ele>326.60000610352</ele>
        <time>2022-09-13T10:52:31.000Z</time>
      </trkpt>
      <trkpt lat="49.39104" lon="5.81702">
        <ele>326.60000610352</ele>
        <time>2022-09-13T10:52:32.000Z</time>
      </trkpt>
      <trkpt lat="49.39105" lon="5.81706">
        <ele>326.60000610352</ele>
        <time>2022-09-13T10:52:33.000Z</time>
      </trkpt>
      <trkpt lat="49.39106" lon="5.8171">
        <ele>326.60000610352</ele>
        <time>2022-09-13T10:52:34.000Z</time>
      </trkpt>
      <trkpt lat="49.39106" lon="5.81716">
        <ele>326.60000610352</ele>
        <time>2022-09-13T10:52:35.000Z</time>
      </trkpt>
      <trkpt lat="49.39107" lon="5.8172">
        <ele>326.79998779297</ele>
        <time>2022-09-13T10:52:36.000Z</time>
      </trkpt>
      <trkpt lat="49.39107" lon="5.81725">
        <ele>326.79998779297</ele>
        <time>2022-09-13T10:52:37.000Z</time>
      </trkpt>
      <trkpt lat="49.39108" lon="5.81729">
        <ele>326.79998779297</ele>
        <time>2022-09-13T10:52:38.000Z</time>
      </trkpt>
      <trkpt lat="49.3911" lon="5.81734">
        <ele>327</ele>
        <time>2022-09-13T10:52:39.000Z</time>
      </trkpt>
      <trkpt lat="49.3911" lon="5.81739">
        <ele>327</ele>
        <time>2022-09-13T10:52:40.000Z</time>
      </trkpt>
      <trkpt lat="49.3911" lon="5.81744">
        <ele>327.20001220703</ele>
        <time>2022-09-13T10:52:41.000Z</time>
      </trkpt>
      <trkpt lat="49.3911" lon="5.81749">
        <ele>327</ele>
        <time>2022-09-13T10:52:42.000Z</time>
      </trkpt>
      <trkpt lat="49.39111" lon="5.81755">
        <ele>327</ele>
        <time>2022-09-13T10:52:43.000Z</time>
      </trkpt>
      <trkpt lat="49.39111" lon="5.8176">
        <ele>327.20001220703</ele>
        <time>2022-09-13T10:52:44.000Z</time>
      </trkpt>
      <trkpt lat="49.39112" lon="5.81764">
        <ele>327.20001220703</ele>
        <time>2022-09-13T10:52:45.000Z</time>
      </trkpt>
      <trkpt lat="49.39113" lon="5.81768">
        <ele>327.20001220703</ele>
        <time>2022-09-13T10:52:46.000Z</time>
      </trkpt>
      <trkpt lat="49.39112" lon="5.81772">
        <ele>327.20001220703</ele>
        <time>2022-09-13T10:52:47.000Z</time>
      </trkpt>
      <trkpt lat="49.39111" lon="5.81776">
        <ele>327.20001220703</ele>
        <time>2022-09-13T10:52:48.000Z</time>
      </trkpt>
      <trkpt lat="49.39111" lon="5.81779">
        <ele>327.20001220703</ele>
        <time>2022-09-13T10:52:49.000Z</time>
      </trkpt>
      <trkpt lat="49.39112" lon="5.81784">
        <ele>327.20001220703</ele>
        <time>2022-09-13T10:52:50.000Z</time>
      </trkpt>
      <trkpt lat="49.39112" lon="5.81787">
        <ele>327.20001220703</ele>
        <time>2022-09-13T10:52:51.000Z</time>
      </trkpt>
      <trkpt lat="49.39111" lon="5.81791">
        <ele>327.20001220703</ele>
        <time>2022-09-13T10:52:52.000Z</time>
      </trkpt>
      <trkpt lat="49.39112" lon="5.818">
        <ele>327.20001220703</ele>
        <time>2022-09-13T10:52:54.000Z</time>
      </trkpt>
      <trkpt lat="49.39113" lon="5.8182">
        <ele>327.60000610352</ele>
        <time>2022-09-13T10:52:59.000Z</time>
      </trkpt>
      <trkpt lat="49.39113" lon="5.81822">
        <ele>327.79998779297</ele>
        <time>2022-09-13T10:53:00.000Z</time>
      </trkpt>
      <trkpt lat="49.39116" lon="5.81829">
        <ele>328</ele>
        <time>2022-09-13T10:53:02.000Z</time>
      </trkpt>
      <trkpt lat="49.39117" lon="5.81833">
        <ele>328</ele>
        <time>2022-09-13T10:53:03.000Z</time>
      </trkpt>
      <trkpt lat="49.39117" lon="5.81837">
        <ele>328.20001220703</ele>
        <time>2022-09-13T10:53:04.000Z</time>
      </trkpt>
      <trkpt lat="49.39118" lon="5.8184">
        <ele>328.39999389648</ele>
        <time>2022-09-13T10:53:05.000Z</time>
      </trkpt>
      <trkpt lat="49.39118" lon="5.81844">
        <ele>328.39999389648</ele>
        <time>2022-09-13T10:53:06.000Z</time>
      </trkpt>
      <trkpt lat="49.39119" lon="5.81849">
        <ele>328.39999389648</ele>
        <time>2022-09-13T10:53:07.000Z</time>
      </trkpt>
      <trkpt lat="49.39119" lon="5.81853">
        <ele>328.39999389648</ele>
        <time>2022-09-13T10:53:08.000Z</time>
      </trkpt>
      <trkpt lat="49.3912" lon="5.8186">
        <ele>328.60000610352</ele>
        <time>2022-09-13T10:53:10.000Z</time>
      </trkpt>
      <trkpt lat="49.39121" lon="5.81867">
        <ele>328.60000610352</ele>
        <time>2022-09-13T10:53:12.000Z</time>
      </trkpt>
      <trkpt lat="49.39121" lon="5.8187">
        <ele>328.79998779297</ele>
        <time>2022-09-13T10:53:13.000Z</time>
      </trkpt>
      <trkpt lat="49.39124" lon="5.81871">
        <ele>328.79998779297</ele>
        <time>2022-09-13T10:53:14.000Z</time>
      </trkpt>
      <trkpt lat="49.39126" lon="5.81875">
        <ele>328.79998779297</ele>
        <time>2022-09-13T10:53:15.000Z</time>
      </trkpt>
      <trkpt lat="49.3913" lon="5.81889">
        <ele>328.60000610352</ele>
        <time>2022-09-13T10:53:19.000Z</time>
      </trkpt>
      <trkpt lat="49.39132" lon="5.81891">
        <ele>328.60000610352</ele>
        <time>2022-09-13T10:53:20.000Z</time>
      </trkpt>
      <trkpt lat="49.39136" lon="5.81895">
        <ele>328.60000610352</ele>
        <time>2022-09-13T10:53:21.000Z</time>
      </trkpt>
      <trkpt lat="49.39138" lon="5.81899">
        <ele>328.60000610352</ele>
        <time>2022-09-13T10:53:22.000Z</time>
      </trkpt>
      <trkpt lat="49.3914" lon="5.81903">
        <ele>328.60000610352</ele>
        <time>2022-09-13T10:53:23.000Z</time>
      </trkpt>
      <trkpt lat="49.39147" lon="5.81912">
        <ele>328.20001220703</ele>
        <time>2022-09-13T10:53:25.000Z</time>
      </trkpt>
      <trkpt lat="49.39163" lon="5.81923">
        <ele>328</ele>
        <time>2022-09-13T10:53:29.000Z</time>
      </trkpt>
      <trkpt lat="49.39168" lon="5.81922">
        <ele>328</ele>
        <time>2022-09-13T10:53:30.000Z</time>
      </trkpt>
      <trkpt lat="49.39172" lon="5.81922">
        <ele>327.79998779297</ele>
        <time>2022-09-13T10:53:31.000Z</time>
      </trkpt>
      <trkpt lat="49.39177" lon="5.81921">
        <ele>327.60000610352</ele>
        <time>2022-09-13T10:53:32.000Z</time>
      </trkpt>
      <trkpt lat="49.39186" lon="5.81919">
        <ele>326.79998779297</ele>
        <time>2022-09-13T10:53:34.000Z</time>
      </trkpt>
      <trkpt lat="49.39191" lon="5.81917">
        <ele>326.20001220703</ele>
        <time>2022-09-13T10:53:35.000Z</time>
      </trkpt>
      <trkpt lat="49.39203" lon="5.81916">
        <ele>325.60000610352</ele>
        <time>2022-09-13T10:53:37.000Z</time>
      </trkpt>
      <trkpt lat="49.39214" lon="5.81916">
        <ele>324.60000610352</ele>
        <time>2022-09-13T10:53:39.000Z</time>
      </trkpt>
      <trkpt lat="49.39219" lon="5.81919">
        <ele>324.39999389648</ele>
        <time>2022-09-13T10:53:40.000Z</time>
      </trkpt>
      <trkpt lat="49.39223" lon="5.81923">
        <ele>324</ele>
        <time>2022-09-13T10:53:41.000Z</time>
      </trkpt>
      <trkpt lat="49.39227" lon="5.81927">
        <ele>323.39999389648</ele>
        <time>2022-09-13T10:53:42.000Z</time>
      </trkpt>
      <trkpt lat="49.3923" lon="5.81934">
        <ele>323</ele>
        <time>2022-09-13T10:53:43.000Z</time>
      </trkpt>
      <trkpt lat="49.39232" lon="5.81941">
        <ele>322.20001220703</ele>
        <time>2022-09-13T10:53:44.000Z</time>
      </trkpt>
      <trkpt lat="49.39234" lon="5.81945">
        <ele>322</ele>
        <time>2022-09-13T10:53:45.000Z</time>
      </trkpt>
      <trkpt lat="49.39235" lon="5.81949">
        <ele>321.79998779297</ele>
        <time>2022-09-13T10:53:46.000Z</time>
      </trkpt>
      <trkpt lat="49.39235" lon="5.81952">
        <ele>321.60000610352</ele>
        <time>2022-09-13T10:53:47.000Z</time>
      </trkpt>
      <trkpt lat="49.39235" lon="5.81955">
        <ele>320.79998779297</ele>
        <time>2022-09-13T10:53:48.000Z</time>
      </trkpt>
      <trkpt lat="49.39237" lon="5.81958">
        <ele>320.39999389648</ele>
        <time>2022-09-13T10:53:49.000Z</time>
      </trkpt>
      <trkpt lat="49.39237" lon="5.81961">
        <ele>320</ele>
        <time>2022-09-13T10:53:50.000Z</time>
      </trkpt>
      <trkpt lat="49.39238" lon="5.81963">
        <ele>319.60000610352</ele>
        <time>2022-09-13T10:53:51.000Z</time>
      </trkpt>
      <trkpt lat="49.39241" lon="5.81973">
        <ele>319.39999389648</ele>
        <time>2022-09-13T10:53:53.000Z</time>
      </trkpt>
      <trkpt lat="49.39243" lon="5.81977">
        <ele>319.39999389648</ele>
        <time>2022-09-13T10:53:54.000Z</time>
      </trkpt>
      <trkpt lat="49.39243" lon="5.81979">
        <ele>319.20001220703</ele>
        <time>2022-09-13T10:53:55.000Z</time>
      </trkpt>
      <trkpt lat="49.39243" lon="5.81982">
        <ele>319.20001220703</ele>
        <time>2022-09-13T10:53:56.000Z</time>
      </trkpt>
      <trkpt lat="49.39243" lon="5.81983">
        <ele>319.20001220703</ele>
        <time>2022-09-13T10:53:57.000Z</time>
      </trkpt>
      <trkpt lat="49.39244" lon="5.81986">
        <ele>319.20001220703</ele>
        <time>2022-09-13T10:53:58.000Z</time>
      </trkpt>
      <trkpt lat="49.39245" lon="5.8199">
        <ele>319.20001220703</ele>
        <time>2022-09-13T10:53:59.000Z</time>
      </trkpt>
      <trkpt lat="49.39247" lon="5.81993">
        <ele>319.20001220703</ele>
        <time>2022-09-13T10:54:00.000Z</time>
      </trkpt>
      <trkpt lat="49.39249" lon="5.81996">
        <ele>319.20001220703</ele>
        <time>2022-09-13T10:54:01.000Z</time>
      </trkpt>
      <trkpt lat="49.39249" lon="5.81999">
        <ele>319.20001220703</ele>
        <time>2022-09-13T10:54:02.000Z</time>
      </trkpt>
      <trkpt lat="49.39253" lon="5.82008">
        <ele>319.20001220703</ele>
        <time>2022-09-13T10:54:04.000Z</time>
      </trkpt>
      <trkpt lat="49.39266" lon="5.82028">
        <ele>319.20001220703</ele>
        <time>2022-09-13T10:54:09.000Z</time>
      </trkpt>
      <trkpt lat="49.39269" lon="5.82031">
        <ele>319</ele>
        <time>2022-09-13T10:54:10.000Z</time>
      </trkpt>
      <trkpt lat="49.39271" lon="5.82035">
        <ele>319</ele>
        <time>2022-09-13T10:54:11.000Z</time>
      </trkpt>
      <trkpt lat="49.39273" lon="5.82038">
        <ele>319</ele>
        <time>2022-09-13T10:54:12.000Z</time>
      </trkpt>
      <trkpt lat="49.39277" lon="5.82048">
        <ele>318.20001220703</ele>
        <time>2022-09-13T10:54:14.000Z</time>
      </trkpt>
      <trkpt lat="49.39281" lon="5.82054">
        <ele>318</ele>
        <time>2022-09-13T10:54:15.000Z</time>
      </trkpt>
      <trkpt lat="49.39297" lon="5.82084">
        <ele>316.60000610352</ele>
        <time>2022-09-13T10:54:20.000Z</time>
      </trkpt>
      <trkpt lat="49.39301" lon="5.82093">
        <ele>316.20001220703</ele>
        <time>2022-09-13T10:54:21.000Z</time>
      </trkpt>
      <trkpt lat="49.39305" lon="5.821">
        <ele>316</ele>
        <time>2022-09-13T10:54:22.000Z</time>
      </trkpt>
      <trkpt lat="49.39315" lon="5.82124">
        <ele>315.20001220703</ele>
        <time>2022-09-13T10:54:25.000Z</time>
      </trkpt>
      <trkpt lat="49.39318" lon="5.82132">
        <ele>315</ele>
        <time>2022-09-13T10:54:26.000Z</time>
      </trkpt>
      <trkpt lat="49.39321" lon="5.82139">
        <ele>314.79998779297</ele>
        <time>2022-09-13T10:54:27.000Z</time>
      </trkpt>
      <trkpt lat="49.39324" lon="5.8215">
        <ele>314.60000610352</ele>
        <time>2022-09-13T10:54:28.000Z</time>
      </trkpt>
      <trkpt lat="49.39327" lon="5.82158">
        <ele>314.39999389648</ele>
        <time>2022-09-13T10:54:29.000Z</time>
      </trkpt>
      <trkpt lat="49.3933" lon="5.82163">
        <ele>314.20001220703</ele>
        <time>2022-09-13T10:54:30.000Z</time>
      </trkpt>
      <trkpt lat="49.39332" lon="5.82167">
        <ele>314</ele>
        <time>2022-09-13T10:54:31.000Z</time>
      </trkpt>
      <trkpt lat="49.39334" lon="5.82171">
        <ele>313.60000610352</ele>
        <time>2022-09-13T10:54:32.000Z</time>
      </trkpt>
      <trkpt lat="49.39336" lon="5.82174">
        <ele>313.60000610352</ele>
        <time>2022-09-13T10:54:33.000Z</time>
      </trkpt>
      <trkpt lat="49.39344" lon="5.82186">
        <ele>313</ele>
        <time>2022-09-13T10:54:36.000Z</time>
      </trkpt>
      <trkpt lat="49.39352" lon="5.82204">
        <ele>312.20001220703</ele>
        <time>2022-09-13T10:54:39.000Z</time>
      </trkpt>
      <trkpt lat="49.39353" lon="5.82207">
        <ele>312.20001220703</ele>
        <time>2022-09-13T10:54:40.000Z</time>
      </trkpt>
      <trkpt lat="49.39354" lon="5.8221">
        <ele>312</ele>
        <time>2022-09-13T10:54:41.000Z</time>
      </trkpt>
      <trkpt lat="49.39355" lon="5.82213">
        <ele>312</ele>
        <time>2022-09-13T10:54:42.000Z</time>
      </trkpt>
      <trkpt lat="49.39355" lon="5.82216">
        <ele>311.79998779297</ele>
        <time>2022-09-13T10:54:43.000Z</time>
      </trkpt>
      <trkpt lat="49.39354" lon="5.82217">
        <ele>311.60000610352</ele>
        <time>2022-09-13T10:54:44.000Z</time>
      </trkpt>
      <trkpt lat="49.39353" lon="5.82218">
        <ele>311.39999389648</ele>
        <time>2022-09-13T10:54:45.000Z</time>
      </trkpt>
      <trkpt lat="49.39346" lon="5.82217">
        <ele>311.20001220703</ele>
        <time>2022-09-13T10:54:48.000Z</time>
      </trkpt>
      <trkpt lat="49.39343" lon="5.82219">
        <ele>311</ele>
        <time>2022-09-13T10:54:49.000Z</time>
      </trkpt>
      <trkpt lat="49.39341" lon="5.82221">
        <ele>311</ele>
        <time>2022-09-13T10:54:50.000Z</time>
      </trkpt>
      <trkpt lat="49.39339" lon="5.82222">
        <ele>311</ele>
        <time>2022-09-13T10:54:51.000Z</time>
      </trkpt>
      <trkpt lat="49.39333" lon="5.82222">
        <ele>311.39999389648</ele>
        <time>2022-09-13T10:54:54.000Z</time>
      </trkpt>
      <trkpt lat="49.39331" lon="5.82222">
        <ele>311.79998779297</ele>
        <time>2022-09-13T10:54:55.000Z</time>
      </trkpt>
      <trkpt lat="49.39327" lon="5.82222">
        <ele>312.20001220703</ele>
        <time>2022-09-13T10:54:57.000Z</time>
      </trkpt>
      <trkpt lat="49.39325" lon="5.82222">
        <ele>312.39999389648</ele>
        <time>2022-09-13T10:54:58.000Z</time>
      </trkpt>
      <trkpt lat="49.39323" lon="5.82222">
        <ele>313.39999389648</ele>
        <time>2022-09-13T10:54:59.000Z</time>
      </trkpt>
      <trkpt lat="49.39315" lon="5.8222">
        <ele>314.39999389648</ele>
        <time>2022-09-13T10:55:02.000Z</time>
      </trkpt>
      <trkpt lat="49.39313" lon="5.82218">
        <ele>314.60000610352</ele>
        <time>2022-09-13T10:55:03.000Z</time>
      </trkpt>
      <trkpt lat="49.3931" lon="5.82216">
        <ele>314.79998779297</ele>
        <time>2022-09-13T10:55:04.000Z</time>
      </trkpt>
      <trkpt lat="49.39304" lon="5.82212">
        <ele>315.20001220703</ele>
        <time>2022-09-13T10:55:06.000Z</time>
      </trkpt>
      <trkpt lat="49.39301" lon="5.82214">
        <ele>315.39999389648</ele>
        <time>2022-09-13T10:55:07.000Z</time>
      </trkpt>
      <trkpt lat="49.39298" lon="5.82214">
        <ele>315.79998779297</ele>
        <time>2022-09-13T10:55:08.000Z</time>
      </trkpt>
      <trkpt lat="49.39295" lon="5.82214">
        <ele>316.20001220703</ele>
        <time>2022-09-13T10:55:09.000Z</time>
      </trkpt>
      <trkpt lat="49.39293" lon="5.82214">
        <ele>316.39999389648</ele>
        <time>2022-09-13T10:55:10.000Z</time>
      </trkpt>
      <trkpt lat="49.3929" lon="5.82213">
        <ele>317.20001220703</ele>
        <time>2022-09-13T10:55:11.000Z</time>
      </trkpt>
      <trkpt lat="49.39287" lon="5.82213">
        <ele>317.39999389648</ele>
        <time>2022-09-13T10:55:12.000Z</time>
      </trkpt>
      <trkpt lat="49.39285" lon="5.82211">
        <ele>317.60000610352</ele>
        <time>2022-09-13T10:55:13.000Z</time>
      </trkpt>
      <trkpt lat="49.39282" lon="5.8221">
        <ele>317.60000610352</ele>
        <time>2022-09-13T10:55:14.000Z</time>
      </trkpt>
      <trkpt lat="49.39279" lon="5.82209">
        <ele>317.79998779297</ele>
        <time>2022-09-13T10:55:15.000Z</time>
      </trkpt>
      <trkpt lat="49.39277" lon="5.82208">
        <ele>318.20001220703</ele>
        <time>2022-09-13T10:55:16.000Z</time>
      </trkpt>
      <trkpt lat="49.39276" lon="5.82208">
        <ele>318.60000610352</ele>
        <time>2022-09-13T10:55:17.000Z</time>
      </trkpt>
      <trkpt lat="49.39272" lon="5.82206">
        <ele>319.20001220703</ele>
        <time>2022-09-13T10:55:18.000Z</time>
      </trkpt>
      <trkpt lat="49.39268" lon="5.82203">
        <ele>319.39999389648</ele>
        <time>2022-09-13T10:55:19.000Z</time>
      </trkpt>
      <trkpt lat="49.39266" lon="5.82203">
        <ele>319.60000610352</ele>
        <time>2022-09-13T10:55:20.000Z</time>
      </trkpt>
      <trkpt lat="49.39264" lon="5.82204">
        <ele>319.79998779297</ele>
        <time>2022-09-13T10:55:21.000Z</time>
      </trkpt>
      <trkpt lat="49.39261" lon="5.82203">
        <ele>320.20001220703</ele>
        <time>2022-09-13T10:55:22.000Z</time>
      </trkpt>
      <trkpt lat="49.39259" lon="5.82202">
        <ele>320.39999389648</ele>
        <time>2022-09-13T10:55:23.000Z</time>
      </trkpt>
      <trkpt lat="49.39257" lon="5.822">
        <ele>320.60000610352</ele>
        <time>2022-09-13T10:55:24.000Z</time>
      </trkpt>
      <trkpt lat="49.39254" lon="5.82199">
        <ele>320.79998779297</ele>
        <time>2022-09-13T10:55:25.000Z</time>
      </trkpt>
      <trkpt lat="49.39251" lon="5.82196">
        <ele>321</ele>
        <time>2022-09-13T10:55:26.000Z</time>
      </trkpt>
      <trkpt lat="49.39248" lon="5.82195">
        <ele>321.20001220703</ele>
        <time>2022-09-13T10:55:27.000Z</time>
      </trkpt>
      <trkpt lat="49.39247" lon="5.82194">
        <ele>321.39999389648</ele>
        <time>2022-09-13T10:55:28.000Z</time>
      </trkpt>
      <trkpt lat="49.39245" lon="5.82193">
        <ele>321.60000610352</ele>
        <time>2022-09-13T10:55:29.000Z</time>
      </trkpt>
      <trkpt lat="49.39241" lon="5.82191">
        <ele>321.79998779297</ele>
        <time>2022-09-13T10:55:30.000Z</time>
      </trkpt>
      <trkpt lat="49.39237" lon="5.82188">
        <ele>322</ele>
        <time>2022-09-13T10:55:31.000Z</time>
      </trkpt>
      <trkpt lat="49.39234" lon="5.82186">
        <ele>322.20001220703</ele>
        <time>2022-09-13T10:55:32.000Z</time>
      </trkpt>
      <trkpt lat="49.39232" lon="5.82188">
        <ele>322.20001220703</ele>
        <time>2022-09-13T10:55:33.000Z</time>
      </trkpt>
      <trkpt lat="49.3923" lon="5.82188">
        <ele>322.60000610352</ele>
        <time>2022-09-13T10:55:34.000Z</time>
      </trkpt>
      <trkpt lat="49.39228" lon="5.82186">
        <ele>322.79998779297</ele>
        <time>2022-09-13T10:55:35.000Z</time>
      </trkpt>
      <trkpt lat="49.39225" lon="5.82185">
        <ele>323</ele>
        <time>2022-09-13T10:55:36.000Z</time>
      </trkpt>
      <trkpt lat="49.39223" lon="5.82184">
        <ele>323.20001220703</ele>
        <time>2022-09-13T10:55:37.000Z</time>
      </trkpt>
      <trkpt lat="49.3922" lon="5.82184">
        <ele>323.39999389648</ele>
        <time>2022-09-13T10:55:38.000Z</time>
      </trkpt>
      <trkpt lat="49.39218" lon="5.82183">
        <ele>323.60000610352</ele>
        <time>2022-09-13T10:55:39.000Z</time>
      </trkpt>
      <trkpt lat="49.39215" lon="5.82182">
        <ele>323.79998779297</ele>
        <time>2022-09-13T10:55:40.000Z</time>
      </trkpt>
      <trkpt lat="49.39211" lon="5.82181">
        <ele>324</ele>
        <time>2022-09-13T10:55:41.000Z</time>
      </trkpt>
      <trkpt lat="49.39207" lon="5.8218">
        <ele>324.20001220703</ele>
        <time>2022-09-13T10:55:42.000Z</time>
      </trkpt>
      <trkpt lat="49.39204" lon="5.82181">
        <ele>324.39999389648</ele>
        <time>2022-09-13T10:55:43.000Z</time>
      </trkpt>
      <trkpt lat="49.39201" lon="5.82182">
        <ele>324.39999389648</ele>
        <time>2022-09-13T10:55:44.000Z</time>
      </trkpt>
      <trkpt lat="49.392" lon="5.82182">
        <ele>324.79998779297</ele>
        <time>2022-09-13T10:55:45.000Z</time>
      </trkpt>
      <trkpt lat="49.39198" lon="5.82183">
        <ele>325</ele>
        <time>2022-09-13T10:55:46.000Z</time>
      </trkpt>
      <trkpt lat="49.39196" lon="5.82183">
        <ele>325</ele>
        <time>2022-09-13T10:55:47.000Z</time>
      </trkpt>
      <trkpt lat="49.39192" lon="5.82182">
        <ele>325</ele>
        <time>2022-09-13T10:55:48.000Z</time>
      </trkpt>
      <trkpt lat="49.3919" lon="5.82181">
        <ele>325.20001220703</ele>
        <time>2022-09-13T10:55:49.000Z</time>
      </trkpt>
      <trkpt lat="49.39186" lon="5.82181">
        <ele>325.20001220703</ele>
        <time>2022-09-13T10:55:50.000Z</time>
      </trkpt>
      <trkpt lat="49.39183" lon="5.82182">
        <ele>325.20001220703</ele>
        <time>2022-09-13T10:55:51.000Z</time>
      </trkpt>
      <trkpt lat="49.39181" lon="5.82183">
        <ele>325.60000610352</ele>
        <time>2022-09-13T10:55:52.000Z</time>
      </trkpt>
      <trkpt lat="49.39177" lon="5.82183">
        <ele>325.79998779297</ele>
        <time>2022-09-13T10:55:53.000Z</time>
      </trkpt>
      <trkpt lat="49.39174" lon="5.82183">
        <ele>326</ele>
        <time>2022-09-13T10:55:54.000Z</time>
      </trkpt>
      <trkpt lat="49.39172" lon="5.82183">
        <ele>326.20001220703</ele>
        <time>2022-09-13T10:55:55.000Z</time>
      </trkpt>
      <trkpt lat="49.3917" lon="5.82183">
        <ele>326.39999389648</ele>
        <time>2022-09-13T10:55:56.000Z</time>
      </trkpt>
      <trkpt lat="49.39168" lon="5.82184">
        <ele>326.60000610352</ele>
        <time>2022-09-13T10:55:57.000Z</time>
      </trkpt>
      <trkpt lat="49.39166" lon="5.82185">
        <ele>326.79998779297</ele>
        <time>2022-09-13T10:55:58.000Z</time>
      </trkpt>
      <trkpt lat="49.39163" lon="5.82185">
        <ele>327</ele>
        <time>2022-09-13T10:55:59.000Z</time>
      </trkpt>
      <trkpt lat="49.39161" lon="5.82186">
        <ele>327.20001220703</ele>
        <time>2022-09-13T10:56:00.000Z</time>
      </trkpt>
      <trkpt lat="49.39158" lon="5.82185">
        <ele>327.39999389648</ele>
        <time>2022-09-13T10:56:01.000Z</time>
      </trkpt>
      <trkpt lat="49.39155" lon="5.82184">
        <ele>327.60000610352</ele>
        <time>2022-09-13T10:56:02.000Z</time>
      </trkpt>
      <trkpt lat="49.39152" lon="5.82182">
        <ele>327.79998779297</ele>
        <time>2022-09-13T10:56:03.000Z</time>
      </trkpt>
      <trkpt lat="49.39148" lon="5.8218">
        <ele>328</ele>
        <time>2022-09-13T10:56:04.000Z</time>
      </trkpt>
      <trkpt lat="49.39146" lon="5.82178">
        <ele>328.20001220703</ele>
        <time>2022-09-13T10:56:05.000Z</time>
      </trkpt>
      <trkpt lat="49.39142" lon="5.82176">
        <ele>328.60000610352</ele>
        <time>2022-09-13T10:56:06.000Z</time>
      </trkpt>
      <trkpt lat="49.39139" lon="5.82174">
        <ele>328.79998779297</ele>
        <time>2022-09-13T10:56:07.000Z</time>
      </trkpt>
      <trkpt lat="49.39136" lon="5.82175">
        <ele>329</ele>
        <time>2022-09-13T10:56:08.000Z</time>
      </trkpt>
      <trkpt lat="49.39134" lon="5.82175">
        <ele>329.39999389648</ele>
        <time>2022-09-13T10:56:09.000Z</time>
      </trkpt>
      <trkpt lat="49.39131" lon="5.82175">
        <ele>329.39999389648</ele>
        <time>2022-09-13T10:56:10.000Z</time>
      </trkpt>
      <trkpt lat="49.39129" lon="5.82176">
        <ele>329.60000610352</ele>
        <time>2022-09-13T10:56:11.000Z</time>
      </trkpt>
      <trkpt lat="49.39126" lon="5.82176">
        <ele>329.79998779297</ele>
        <time>2022-09-13T10:56:12.000Z</time>
      </trkpt>
      <trkpt lat="49.39124" lon="5.82177">
        <ele>330</ele>
        <time>2022-09-13T10:56:13.000Z</time>
      </trkpt>
      <trkpt lat="49.39122" lon="5.82178">
        <ele>330.20001220703</ele>
        <time>2022-09-13T10:56:14.000Z</time>
      </trkpt>
      <trkpt lat="49.39119" lon="5.82178">
        <ele>330.39999389648</ele>
        <time>2022-09-13T10:56:15.000Z</time>
      </trkpt>
      <trkpt lat="49.39116" lon="5.8218">
        <ele>330.60000610352</ele>
        <time>2022-09-13T10:56:16.000Z</time>
      </trkpt>
      <trkpt lat="49.39113" lon="5.82182">
        <ele>330.79998779297</ele>
        <time>2022-09-13T10:56:17.000Z</time>
      </trkpt>
      <trkpt lat="49.39111" lon="5.82185">
        <ele>331</ele>
        <time>2022-09-13T10:56:18.000Z</time>
      </trkpt>
      <trkpt lat="49.39108" lon="5.82187">
        <ele>331.20001220703</ele>
        <time>2022-09-13T10:56:19.000Z</time>
      </trkpt>
      <trkpt lat="49.39106" lon="5.8219">
        <ele>331.39999389648</ele>
        <time>2022-09-13T10:56:20.000Z</time>
      </trkpt>
      <trkpt lat="49.39104" lon="5.82192">
        <ele>331.60000610352</ele>
        <time>2022-09-13T10:56:21.000Z</time>
      </trkpt>
      <trkpt lat="49.39101" lon="5.82195">
        <ele>331.60000610352</ele>
        <time>2022-09-13T10:56:22.000Z</time>
      </trkpt>
      <trkpt lat="49.39098" lon="5.82196">
        <ele>331.79998779297</ele>
        <time>2022-09-13T10:56:23.000Z</time>
      </trkpt>
      <trkpt lat="49.39096" lon="5.82198">
        <ele>331.79998779297</ele>
        <time>2022-09-13T10:56:24.000Z</time>
      </trkpt>
      <trkpt lat="49.39095" lon="5.82199">
        <ele>331.79998779297</ele>
        <time>2022-09-13T10:56:25.000Z</time>
      </trkpt>
      <trkpt lat="49.39092" lon="5.82201">
        <ele>332</ele>
        <time>2022-09-13T10:56:26.000Z</time>
      </trkpt>
      <trkpt lat="49.39091" lon="5.82205">
        <ele>332</ele>
        <time>2022-09-13T10:56:27.000Z</time>
      </trkpt>
      <trkpt lat="49.39089" lon="5.82207">
        <ele>332.20001220703</ele>
        <time>2022-09-13T10:56:28.000Z</time>
      </trkpt>
      <trkpt lat="49.39087" lon="5.82211">
        <ele>332.39999389648</ele>
        <time>2022-09-13T10:56:29.000Z</time>
      </trkpt>
      <trkpt lat="49.39085" lon="5.82213">
        <ele>332.39999389648</ele>
        <time>2022-09-13T10:56:30.000Z</time>
      </trkpt>
      <trkpt lat="49.39082" lon="5.82216">
        <ele>332.39999389648</ele>
        <time>2022-09-13T10:56:31.000Z</time>
      </trkpt>
      <trkpt lat="49.3908" lon="5.8222">
        <ele>332.60000610352</ele>
        <time>2022-09-13T10:56:32.000Z</time>
      </trkpt>
      <trkpt lat="49.39079" lon="5.82224">
        <ele>332.60000610352</ele>
        <time>2022-09-13T10:56:33.000Z</time>
      </trkpt>
      <trkpt lat="49.39077" lon="5.82229">
        <ele>332.60000610352</ele>
        <time>2022-09-13T10:56:34.000Z</time>
      </trkpt>
      <trkpt lat="49.39075" lon="5.82232">
        <ele>332.60000610352</ele>
        <time>2022-09-13T10:56:35.000Z</time>
      </trkpt>
      <trkpt lat="49.39072" lon="5.82236">
        <ele>332.39999389648</ele>
        <time>2022-09-13T10:56:36.000Z</time>
      </trkpt>
      <trkpt lat="49.3907" lon="5.82239">
        <ele>332.60000610352</ele>
        <time>2022-09-13T10:56:37.000Z</time>
      </trkpt>
      <trkpt lat="49.39067" lon="5.8224">
        <ele>332.39999389648</ele>
        <time>2022-09-13T10:56:38.000Z</time>
      </trkpt>
      <trkpt lat="49.39065" lon="5.82244">
        <ele>332.39999389648</ele>
        <time>2022-09-13T10:56:39.000Z</time>
      </trkpt>
      <trkpt lat="49.39062" lon="5.82249">
        <ele>332.39999389648</ele>
        <time>2022-09-13T10:56:40.000Z</time>
      </trkpt>
      <trkpt lat="49.3906" lon="5.82252">
        <ele>332.39999389648</ele>
        <time>2022-09-13T10:56:41.000Z</time>
      </trkpt>
      <trkpt lat="49.39058" lon="5.82255">
        <ele>332.39999389648</ele>
        <time>2022-09-13T10:56:42.000Z</time>
      </trkpt>
      <trkpt lat="49.39056" lon="5.82257">
        <ele>332.39999389648</ele>
        <time>2022-09-13T10:56:43.000Z</time>
      </trkpt>
      <trkpt lat="49.39051" lon="5.82262">
        <ele>332.39999389648</ele>
        <time>2022-09-13T10:56:45.000Z</time>
      </trkpt>
      <trkpt lat="49.3905" lon="5.82265">
        <ele>332.39999389648</ele>
        <time>2022-09-13T10:56:46.000Z</time>
      </trkpt>
      <trkpt lat="49.39048" lon="5.82269">
        <ele>332.39999389648</ele>
        <time>2022-09-13T10:56:47.000Z</time>
      </trkpt>
      <trkpt lat="49.39046" lon="5.82271">
        <ele>332.20001220703</ele>
        <time>2022-09-13T10:56:48.000Z</time>
      </trkpt>
      <trkpt lat="49.39044" lon="5.82274">
        <ele>332.20001220703</ele>
        <time>2022-09-13T10:56:49.000Z</time>
      </trkpt>
      <trkpt lat="49.39041" lon="5.82274">
        <ele>332</ele>
        <time>2022-09-13T10:56:50.000Z</time>
      </trkpt>
      <trkpt lat="49.39039" lon="5.82276">
        <ele>332</ele>
        <time>2022-09-13T10:56:51.000Z</time>
      </trkpt>
      <trkpt lat="49.39027" lon="5.8229">
        <ele>331.60000610352</ele>
        <time>2022-09-13T10:56:56.000Z</time>
      </trkpt>
      <trkpt lat="49.39024" lon="5.82297">
        <ele>331.60000610352</ele>
        <time>2022-09-13T10:56:58.000Z</time>
      </trkpt>
      <trkpt lat="49.39024" lon="5.82301">
        <ele>331.60000610352</ele>
        <time>2022-09-13T10:56:59.000Z</time>
      </trkpt>
      <trkpt lat="49.39023" lon="5.82306">
        <ele>331.39999389648</ele>
        <time>2022-09-13T10:57:00.000Z</time>
      </trkpt>
      <trkpt lat="49.39024" lon="5.82309">
        <ele>331.39999389648</ele>
        <time>2022-09-13T10:57:01.000Z</time>
      </trkpt>
      <trkpt lat="49.39024" lon="5.82314">
        <ele>331.39999389648</ele>
        <time>2022-09-13T10:57:02.000Z</time>
      </trkpt>
      <trkpt lat="49.39019" lon="5.82333">
        <ele>330.79998779297</ele>
        <time>2022-09-13T10:57:05.000Z</time>
      </trkpt>
      <trkpt lat="49.39017" lon="5.8234">
        <ele>330.20001220703</ele>
        <time>2022-09-13T10:57:06.000Z</time>
      </trkpt>
      <trkpt lat="49.39004" lon="5.82387">
        <ele>329</ele>
        <time>2022-09-13T10:57:11.000Z</time>
      </trkpt>
      <trkpt lat="49.38995" lon="5.82419">
        <ele>327.79998779297</ele>
        <time>2022-09-13T10:57:14.000Z</time>
      </trkpt>
      <trkpt lat="49.38992" lon="5.82429">
        <ele>327.39999389648</ele>
        <time>2022-09-13T10:57:15.000Z</time>
      </trkpt>
      <trkpt lat="49.38987" lon="5.82448">
        <ele>326</ele>
        <time>2022-09-13T10:57:17.000Z</time>
      </trkpt>
      <trkpt lat="49.38981" lon="5.82464">
        <ele>325</ele>
        <time>2022-09-13T10:57:19.000Z</time>
      </trkpt>
      <trkpt lat="49.38977" lon="5.82469">
        <ele>324.60000610352</ele>
        <time>2022-09-13T10:57:20.000Z</time>
      </trkpt>
      <trkpt lat="49.38971" lon="5.82475">
        <ele>324.39999389648</ele>
        <time>2022-09-13T10:57:21.000Z</time>
      </trkpt>
      <trkpt lat="49.38967" lon="5.82478">
        <ele>323</ele>
        <time>2022-09-13T10:57:22.000Z</time>
      </trkpt>
      <trkpt lat="49.38963" lon="5.82481">
        <ele>322</ele>
        <time>2022-09-13T10:57:23.000Z</time>
      </trkpt>
      <trkpt lat="49.38962" lon="5.82486">
        <ele>320.20001220703</ele>
        <time>2022-09-13T10:57:24.000Z</time>
      </trkpt>
      <trkpt lat="49.38963" lon="5.82491">
        <ele>319.79998779297</ele>
        <time>2022-09-13T10:57:25.000Z</time>
      </trkpt>
      <trkpt lat="49.38965" lon="5.82496">
        <ele>319.20001220703</ele>
        <time>2022-09-13T10:57:26.000Z</time>
      </trkpt>
      <trkpt lat="49.38968" lon="5.825">
        <ele>318.60000610352</ele>
        <time>2022-09-13T10:57:27.000Z</time>
      </trkpt>
      <trkpt lat="49.38969" lon="5.82505">
        <ele>318.60000610352</ele>
        <time>2022-09-13T10:57:28.000Z</time>
      </trkpt>
      <trkpt lat="49.38969" lon="5.8251">
        <ele>318.39999389648</ele>
        <time>2022-09-13T10:57:29.000Z</time>
      </trkpt>
      <trkpt lat="49.38969" lon="5.82515">
        <ele>318</ele>
        <time>2022-09-13T10:57:30.000Z</time>
      </trkpt>
      <trkpt lat="49.38967" lon="5.82519">
        <ele>317.39999389648</ele>
        <time>2022-09-13T10:57:31.000Z</time>
      </trkpt>
      <trkpt lat="49.38967" lon="5.82524">
        <ele>317.39999389648</ele>
        <time>2022-09-13T10:57:32.000Z</time>
      </trkpt>
      <trkpt lat="49.38966" lon="5.82528">
        <ele>317</ele>
        <time>2022-09-13T10:57:33.000Z</time>
      </trkpt>
      <trkpt lat="49.38965" lon="5.82532">
        <ele>316.39999389648</ele>
        <time>2022-09-13T10:57:34.000Z</time>
      </trkpt>
      <trkpt lat="49.38966" lon="5.82534">
        <ele>316.20001220703</ele>
        <time>2022-09-13T10:57:35.000Z</time>
      </trkpt>
      <trkpt lat="49.38968" lon="5.82537">
        <ele>315.79998779297</ele>
        <time>2022-09-13T10:57:36.000Z</time>
      </trkpt>
      <trkpt lat="49.38969" lon="5.82541">
        <ele>315.60000610352</ele>
        <time>2022-09-13T10:57:37.000Z</time>
      </trkpt>
      <trkpt lat="49.38969" lon="5.82545">
        <ele>315.39999389648</ele>
        <time>2022-09-13T10:57:38.000Z</time>
      </trkpt>
      <trkpt lat="49.38971" lon="5.82556">
        <ele>315</ele>
        <time>2022-09-13T10:57:40.000Z</time>
      </trkpt>
      <trkpt lat="49.38972" lon="5.82565">
        <ele>314.79998779297</ele>
        <time>2022-09-13T10:57:42.000Z</time>
      </trkpt>
      <trkpt lat="49.38973" lon="5.82597">
        <ele>315</ele>
        <time>2022-09-13T10:57:48.000Z</time>
      </trkpt>
      <trkpt lat="49.38975" lon="5.82604">
        <ele>315.20001220703</ele>
        <time>2022-09-13T10:57:50.000Z</time>
      </trkpt>
      <trkpt lat="49.38976" lon="5.82609">
        <ele>315.20001220703</ele>
        <time>2022-09-13T10:57:51.000Z</time>
      </trkpt>
      <trkpt lat="49.38977" lon="5.82615">
        <ele>315.39999389648</ele>
        <time>2022-09-13T10:57:52.000Z</time>
      </trkpt>
      <trkpt lat="49.38979" lon="5.8262">
        <ele>315.60000610352</ele>
        <time>2022-09-13T10:57:53.000Z</time>
      </trkpt>
      <trkpt lat="49.38979" lon="5.82624">
        <ele>315.79998779297</ele>
        <time>2022-09-13T10:57:54.000Z</time>
      </trkpt>
      <trkpt lat="49.38981" lon="5.82628">
        <ele>316</ele>
        <time>2022-09-13T10:57:55.000Z</time>
      </trkpt>
      <trkpt lat="49.3898" lon="5.82634">
        <ele>316.39999389648</ele>
        <time>2022-09-13T10:57:56.000Z</time>
      </trkpt>
      <trkpt lat="49.38981" lon="5.82641">
        <ele>316.60000610352</ele>
        <time>2022-09-13T10:57:57.000Z</time>
      </trkpt>
      <trkpt lat="49.38982" lon="5.82644">
        <ele>316.79998779297</ele>
        <time>2022-09-13T10:57:58.000Z</time>
      </trkpt>
      <trkpt lat="49.38984" lon="5.82649">
        <ele>317</ele>
        <time>2022-09-13T10:57:59.000Z</time>
      </trkpt>
      <trkpt lat="49.38986" lon="5.82655">
        <ele>317</ele>
        <time>2022-09-13T10:58:00.000Z</time>
      </trkpt>
      <trkpt lat="49.38986" lon="5.82659">
        <ele>317.20001220703</ele>
        <time>2022-09-13T10:58:01.000Z</time>
      </trkpt>
      <trkpt lat="49.38986" lon="5.82664">
        <ele>317.20001220703</ele>
        <time>2022-09-13T10:58:02.000Z</time>
      </trkpt>
      <trkpt lat="49.38987" lon="5.82667">
        <ele>317.39999389648</ele>
        <time>2022-09-13T10:58:03.000Z</time>
      </trkpt>
      <trkpt lat="49.38987" lon="5.8267">
        <ele>317.39999389648</ele>
        <time>2022-09-13T10:58:04.000Z</time>
      </trkpt>
      <trkpt lat="49.38988" lon="5.82672">
        <ele>317.39999389648</ele>
        <time>2022-09-13T10:58:05.000Z</time>
      </trkpt>
      <trkpt lat="49.3899" lon="5.82675">
        <ele>317.60000610352</ele>
        <time>2022-09-13T10:58:06.000Z</time>
      </trkpt>
      <trkpt lat="49.38992" lon="5.82686">
        <ele>318</ele>
        <time>2022-09-13T10:58:10.000Z</time>
      </trkpt>
      <trkpt lat="49.38988" lon="5.82692">
        <ele>318</ele>
        <time>2022-09-13T10:58:11.000Z</time>
      </trkpt>
      <trkpt lat="49.38989" lon="5.82696">
        <ele>318</ele>
        <time>2022-09-13T10:58:12.000Z</time>
      </trkpt>
      <trkpt lat="49.38991" lon="5.82701">
        <ele>318.20001220703</ele>
        <time>2022-09-13T10:58:13.000Z</time>
      </trkpt>
      <trkpt lat="49.38993" lon="5.82706">
        <ele>318.20001220703</ele>
        <time>2022-09-13T10:58:14.000Z</time>
      </trkpt>
      <trkpt lat="49.38993" lon="5.8271">
        <ele>318.39999389648</ele>
        <time>2022-09-13T10:58:15.000Z</time>
      </trkpt>
      <trkpt lat="49.38995" lon="5.82714">
        <ele>318.39999389648</ele>
        <time>2022-09-13T10:58:16.000Z</time>
      </trkpt>
      <trkpt lat="49.38995" lon="5.82718">
        <ele>318.39999389648</ele>
        <time>2022-09-13T10:58:17.000Z</time>
      </trkpt>
      <trkpt lat="49.38996" lon="5.82722">
        <ele>318.39999389648</ele>
        <time>2022-09-13T10:58:18.000Z</time>
      </trkpt>
      <trkpt lat="49.38999" lon="5.82734">
        <ele>318.60000610352</ele>
        <time>2022-09-13T10:58:20.000Z</time>
      </trkpt>
      <trkpt lat="49.39002" lon="5.82745">
        <ele>318.79998779297</ele>
        <time>2022-09-13T10:58:23.000Z</time>
      </trkpt>
      <trkpt lat="49.39005" lon="5.82752">
        <ele>318.79998779297</ele>
        <time>2022-09-13T10:58:25.000Z</time>
      </trkpt>
      <trkpt lat="49.39015" lon="5.82774">
        <ele>318.79998779297</ele>
        <time>2022-09-13T10:58:28.000Z</time>
      </trkpt>
      <trkpt lat="49.39019" lon="5.82781">
        <ele>318.60000610352</ele>
        <time>2022-09-13T10:58:29.000Z</time>
      </trkpt>
      <trkpt lat="49.39022" lon="5.82791">
        <ele>318.39999389648</ele>
        <time>2022-09-13T10:58:31.000Z</time>
      </trkpt>
      <trkpt lat="49.39021" lon="5.82796">
        <ele>318.39999389648</ele>
        <time>2022-09-13T10:58:32.000Z</time>
      </trkpt>
      <trkpt lat="49.3902" lon="5.82802">
        <ele>318</ele>
        <time>2022-09-13T10:58:33.000Z</time>
      </trkpt>
      <trkpt lat="49.39019" lon="5.8281">
        <ele>318</ele>
        <time>2022-09-13T10:58:34.000Z</time>
      </trkpt>
      <trkpt lat="49.39019" lon="5.82817">
        <ele>317.79998779297</ele>
        <time>2022-09-13T10:58:35.000Z</time>
      </trkpt>
      <trkpt lat="49.3902" lon="5.82822">
        <ele>317.39999389648</ele>
        <time>2022-09-13T10:58:36.000Z</time>
      </trkpt>
      <trkpt lat="49.39019" lon="5.8283">
        <ele>317</ele>
        <time>2022-09-13T10:58:37.000Z</time>
      </trkpt>
      <trkpt lat="49.39019" lon="5.82835">
        <ele>316.39999389648</ele>
        <time>2022-09-13T10:58:38.000Z</time>
      </trkpt>
      <trkpt lat="49.39019" lon="5.82841">
        <ele>316.20001220703</ele>
        <time>2022-09-13T10:58:39.000Z</time>
      </trkpt>
      <trkpt lat="49.39019" lon="5.82847">
        <ele>315.60000610352</ele>
        <time>2022-09-13T10:58:40.000Z</time>
      </trkpt>
      <trkpt lat="49.39018" lon="5.82851">
        <ele>315.20001220703</ele>
        <time>2022-09-13T10:58:41.000Z</time>
      </trkpt>
      <trkpt lat="49.39017" lon="5.82855">
        <ele>314.39999389648</ele>
        <time>2022-09-13T10:58:42.000Z</time>
      </trkpt>
      <trkpt lat="49.39017" lon="5.82858">
        <ele>313.39999389648</ele>
        <time>2022-09-13T10:58:43.000Z</time>
      </trkpt>
      <trkpt lat="49.39016" lon="5.82858">
        <ele>312.79998779297</ele>
        <time>2022-09-13T10:58:44.000Z</time>
      </trkpt>
      <trkpt lat="49.39015" lon="5.82859">
        <ele>312</ele>
        <time>2022-09-13T10:58:45.000Z</time>
      </trkpt>
      <trkpt lat="49.39014" lon="5.8286">
        <ele>311.60000610352</ele>
        <time>2022-09-13T10:58:46.000Z</time>
      </trkpt>
      <trkpt lat="49.39013" lon="5.82862">
        <ele>311.20001220703</ele>
        <time>2022-09-13T10:58:47.000Z</time>
      </trkpt>
      <trkpt lat="49.39011" lon="5.82864">
        <ele>311.20001220703</ele>
        <time>2022-09-13T10:58:48.000Z</time>
      </trkpt>
      <trkpt lat="49.39003" lon="5.82872">
        <ele>311.20001220703</ele>
        <time>2022-09-13T10:58:52.000Z</time>
      </trkpt>
      <trkpt lat="49.38992" lon="5.82878">
        <ele>312.60000610352</ele>
        <time>2022-09-13T10:58:56.000Z</time>
      </trkpt>
      <trkpt lat="49.38991" lon="5.82878">
        <ele>312.79998779297</ele>
        <time>2022-09-13T10:58:57.000Z</time>
      </trkpt>
      <trkpt lat="49.38988" lon="5.82878">
        <ele>313.39999389648</ele>
        <time>2022-09-13T10:58:58.000Z</time>
      </trkpt>
      <trkpt lat="49.38986" lon="5.82877">
        <ele>314</ele>
        <time>2022-09-13T10:58:59.000Z</time>
      </trkpt>
      <trkpt lat="49.38982" lon="5.8288">
        <ele>314.79998779297</ele>
        <time>2022-09-13T10:59:01.000Z</time>
      </trkpt>
      <trkpt lat="49.3898" lon="5.82882">
        <ele>315.20001220703</ele>
        <time>2022-09-13T10:59:02.000Z</time>
      </trkpt>
      <trkpt lat="49.38979" lon="5.82885">
        <ele>315.79998779297</ele>
        <time>2022-09-13T10:59:03.000Z</time>
      </trkpt>
      <trkpt lat="49.38976" lon="5.82887">
        <ele>316</ele>
        <time>2022-09-13T10:59:04.000Z</time>
      </trkpt>
      <trkpt lat="49.38973" lon="5.82891">
        <ele>316.39999389648</ele>
        <time>2022-09-13T10:59:05.000Z</time>
      </trkpt>
      <trkpt lat="49.38971" lon="5.82894">
        <ele>316.60000610352</ele>
        <time>2022-09-13T10:59:06.000Z</time>
      </trkpt>
      <trkpt lat="49.3897" lon="5.82895">
        <ele>316.79998779297</ele>
        <time>2022-09-13T10:59:07.000Z</time>
      </trkpt>
      <trkpt lat="49.38968" lon="5.82896">
        <ele>316.79998779297</ele>
        <time>2022-09-13T10:59:08.000Z</time>
      </trkpt>
      <trkpt lat="49.38966" lon="5.82897">
        <ele>316.79998779297</ele>
        <time>2022-09-13T10:59:09.000Z</time>
      </trkpt>
      <trkpt lat="49.38965" lon="5.82898">
        <ele>317</ele>
        <time>2022-09-13T10:59:10.000Z</time>
      </trkpt>
      <trkpt lat="49.38963" lon="5.829">
        <ele>317</ele>
        <time>2022-09-13T10:59:11.000Z</time>
      </trkpt>
      <trkpt lat="49.38961" lon="5.82901">
        <ele>317</ele>
        <time>2022-09-13T10:59:12.000Z</time>
      </trkpt>
      <trkpt lat="49.38959" lon="5.82902">
        <ele>317</ele>
        <time>2022-09-13T10:59:13.000Z</time>
      </trkpt>
      <trkpt lat="49.38957" lon="5.82902">
        <ele>317</ele>
        <time>2022-09-13T10:59:14.000Z</time>
      </trkpt>
      <trkpt lat="49.38954" lon="5.82903">
        <ele>317</ele>
        <time>2022-09-13T10:59:15.000Z</time>
      </trkpt>
      <trkpt lat="49.38951" lon="5.82902">
        <ele>317</ele>
        <time>2022-09-13T10:59:16.000Z</time>
      </trkpt>
      <trkpt lat="49.38948" lon="5.82901">
        <ele>316.79998779297</ele>
        <time>2022-09-13T10:59:17.000Z</time>
      </trkpt>
      <trkpt lat="49.38944" lon="5.82901">
        <ele>316.60000610352</ele>
        <time>2022-09-13T10:59:18.000Z</time>
      </trkpt>
      <trkpt lat="49.38939" lon="5.829">
        <ele>316.60000610352</ele>
        <time>2022-09-13T10:59:19.000Z</time>
      </trkpt>
      <trkpt lat="49.38934" lon="5.829">
        <ele>316.39999389648</ele>
        <time>2022-09-13T10:59:20.000Z</time>
      </trkpt>
      <trkpt lat="49.38929" lon="5.82903">
        <ele>316</ele>
        <time>2022-09-13T10:59:21.000Z</time>
      </trkpt>
      <trkpt lat="49.38922" lon="5.82908">
        <ele>315.79998779297</ele>
        <time>2022-09-13T10:59:22.000Z</time>
      </trkpt>
      <trkpt lat="49.38916" lon="5.8291">
        <ele>315.60000610352</ele>
        <time>2022-09-13T10:59:23.000Z</time>
      </trkpt>
      <trkpt lat="49.38912" lon="5.82911">
        <ele>315.20001220703</ele>
        <time>2022-09-13T10:59:24.000Z</time>
      </trkpt>
      <trkpt lat="49.38909" lon="5.82912">
        <ele>315.20001220703</ele>
        <time>2022-09-13T10:59:25.000Z</time>
      </trkpt>
      <trkpt lat="49.38908" lon="5.82913">
        <ele>315.20001220703</ele>
        <time>2022-09-13T10:59:26.000Z</time>
      </trkpt>
      <trkpt lat="49.38906" lon="5.82912">
        <ele>315.20001220703</ele>
        <time>2022-09-13T10:59:27.000Z</time>
      </trkpt>
      <trkpt lat="49.38904" lon="5.82912">
        <ele>315.20001220703</ele>
        <time>2022-09-13T10:59:28.000Z</time>
      </trkpt>
      <trkpt lat="49.38902" lon="5.82914">
        <ele>315.20001220703</ele>
        <time>2022-09-13T10:59:29.000Z</time>
      </trkpt>
      <trkpt lat="49.389" lon="5.82915">
        <ele>315.60000610352</ele>
        <time>2022-09-13T10:59:30.000Z</time>
      </trkpt>
      <trkpt lat="49.38897" lon="5.82915">
        <ele>316.39999389648</ele>
        <time>2022-09-13T10:59:31.000Z</time>
      </trkpt>
      <trkpt lat="49.38892" lon="5.82915">
        <ele>317.79998779297</ele>
        <time>2022-09-13T10:59:33.000Z</time>
      </trkpt>
      <trkpt lat="49.38884" lon="5.82916">
        <ele>319</ele>
        <time>2022-09-13T10:59:36.000Z</time>
      </trkpt>
      <trkpt lat="49.38878" lon="5.82918">
        <ele>320.20001220703</ele>
        <time>2022-09-13T10:59:38.000Z</time>
      </trkpt>
      <trkpt lat="49.38875" lon="5.82919">
        <ele>320.60000610352</ele>
        <time>2022-09-13T10:59:39.000Z</time>
      </trkpt>
      <trkpt lat="49.38873" lon="5.82921">
        <ele>321</ele>
        <time>2022-09-13T10:59:40.000Z</time>
      </trkpt>
      <trkpt lat="49.38869" lon="5.82922">
        <ele>321.20001220703</ele>
        <time>2022-09-13T10:59:41.000Z</time>
      </trkpt>
      <trkpt lat="49.38867" lon="5.82923">
        <ele>322</ele>
        <time>2022-09-13T10:59:42.000Z</time>
      </trkpt>
      <trkpt lat="49.38865" lon="5.82925">
        <ele>322.39999389648</ele>
        <time>2022-09-13T10:59:43.000Z</time>
      </trkpt>
      <trkpt lat="49.38863" lon="5.82927">
        <ele>323.20001220703</ele>
        <time>2022-09-13T10:59:44.000Z</time>
      </trkpt>
      <trkpt lat="49.3886" lon="5.82928">
        <ele>323.79998779297</ele>
        <time>2022-09-13T10:59:45.000Z</time>
      </trkpt>
      <trkpt lat="49.38858" lon="5.82929">
        <ele>324</ele>
        <time>2022-09-13T10:59:46.000Z</time>
      </trkpt>
      <trkpt lat="49.38855" lon="5.82929">
        <ele>324.60000610352</ele>
        <time>2022-09-13T10:59:47.000Z</time>
      </trkpt>
      <trkpt lat="49.38852" lon="5.82929">
        <ele>325</ele>
        <time>2022-09-13T10:59:48.000Z</time>
      </trkpt>
      <trkpt lat="49.38849" lon="5.8293">
        <ele>325.39999389648</ele>
        <time>2022-09-13T10:59:49.000Z</time>
      </trkpt>
      <trkpt lat="49.38847" lon="5.82932">
        <ele>325.60000610352</ele>
        <time>2022-09-13T10:59:50.000Z</time>
      </trkpt>
      <trkpt lat="49.38845" lon="5.82933">
        <ele>326</ele>
        <time>2022-09-13T10:59:51.000Z</time>
      </trkpt>
      <trkpt lat="49.38844" lon="5.82933">
        <ele>326.20001220703</ele>
        <time>2022-09-13T10:59:52.000Z</time>
      </trkpt>
      <trkpt lat="49.38841" lon="5.82931">
        <ele>326.60000610352</ele>
        <time>2022-09-13T10:59:53.000Z</time>
      </trkpt>
      <trkpt lat="49.38839" lon="5.82931">
        <ele>326.79998779297</ele>
        <time>2022-09-13T10:59:54.000Z</time>
      </trkpt>
      <trkpt lat="49.38837" lon="5.82932">
        <ele>327</ele>
        <time>2022-09-13T10:59:55.000Z</time>
      </trkpt>
      <trkpt lat="49.38835" lon="5.82932">
        <ele>327.20001220703</ele>
        <time>2022-09-13T10:59:56.000Z</time>
      </trkpt>
      <trkpt lat="49.38831" lon="5.82932">
        <ele>327.39999389648</ele>
        <time>2022-09-13T10:59:57.000Z</time>
      </trkpt>
      <trkpt lat="49.38828" lon="5.82934">
        <ele>327.79998779297</ele>
        <time>2022-09-13T10:59:58.000Z</time>
      </trkpt>
      <trkpt lat="49.38826" lon="5.82936">
        <ele>328</ele>
        <time>2022-09-13T10:59:59.000Z</time>
      </trkpt>
      <trkpt lat="49.38824" lon="5.82936">
        <ele>328.20001220703</ele>
        <time>2022-09-13T11:00:00.000Z</time>
      </trkpt>
      <trkpt lat="49.38822" lon="5.82939">
        <ele>328.39999389648</ele>
        <time>2022-09-13T11:00:01.000Z</time>
      </trkpt>
      <trkpt lat="49.38819" lon="5.82939">
        <ele>328.60000610352</ele>
        <time>2022-09-13T11:00:02.000Z</time>
      </trkpt>
      <trkpt lat="49.38817" lon="5.82939">
        <ele>329</ele>
        <time>2022-09-13T11:00:03.000Z</time>
      </trkpt>
      <trkpt lat="49.38815" lon="5.82942">
        <ele>329.20001220703</ele>
        <time>2022-09-13T11:00:04.000Z</time>
      </trkpt>
      <trkpt lat="49.38812" lon="5.82944">
        <ele>329.60000610352</ele>
        <time>2022-09-13T11:00:05.000Z</time>
      </trkpt>
      <trkpt lat="49.38808" lon="5.82945">
        <ele>329.60000610352</ele>
        <time>2022-09-13T11:00:06.000Z</time>
      </trkpt>
      <trkpt lat="49.38805" lon="5.82946">
        <ele>329.79998779297</ele>
        <time>2022-09-13T11:00:07.000Z</time>
      </trkpt>
      <trkpt lat="49.38802" lon="5.82948">
        <ele>330</ele>
        <time>2022-09-13T11:00:08.000Z</time>
      </trkpt>
      <trkpt lat="49.388" lon="5.82948">
        <ele>330</ele>
        <time>2022-09-13T11:00:09.000Z</time>
      </trkpt>
      <trkpt lat="49.38799" lon="5.82949">
        <ele>330.20001220703</ele>
        <time>2022-09-13T11:00:10.000Z</time>
      </trkpt>
      <trkpt lat="49.38797" lon="5.82949">
        <ele>330.20001220703</ele>
        <time>2022-09-13T11:00:11.000Z</time>
      </trkpt>
      <trkpt lat="49.38793" lon="5.8295">
        <ele>330.39999389648</ele>
        <time>2022-09-13T11:00:12.000Z</time>
      </trkpt>
      <trkpt lat="49.38789" lon="5.82949">
        <ele>330.39999389648</ele>
        <time>2022-09-13T11:00:13.000Z</time>
      </trkpt>
      <trkpt lat="49.38786" lon="5.8295">
        <ele>330.39999389648</ele>
        <time>2022-09-13T11:00:14.000Z</time>
      </trkpt>
      <trkpt lat="49.38784" lon="5.8295">
        <ele>330.60000610352</ele>
        <time>2022-09-13T11:00:15.000Z</time>
      </trkpt>
      <trkpt lat="49.38781" lon="5.8295">
        <ele>330.60000610352</ele>
        <time>2022-09-13T11:00:16.000Z</time>
      </trkpt>
      <trkpt lat="49.3878" lon="5.82952">
        <ele>330.79998779297</ele>
        <time>2022-09-13T11:00:17.000Z</time>
      </trkpt>
      <trkpt lat="49.38777" lon="5.82953">
        <ele>330.79998779297</ele>
        <time>2022-09-13T11:00:18.000Z</time>
      </trkpt>
      <trkpt lat="49.38772" lon="5.82953">
        <ele>330.79998779297</ele>
        <time>2022-09-13T11:00:19.000Z</time>
      </trkpt>
      <trkpt lat="49.38769" lon="5.82953">
        <ele>330.79998779297</ele>
        <time>2022-09-13T11:00:20.000Z</time>
      </trkpt>
      <trkpt lat="49.38767" lon="5.82953">
        <ele>330.79998779297</ele>
        <time>2022-09-13T11:00:21.000Z</time>
      </trkpt>
      <trkpt lat="49.38764" lon="5.82953">
        <ele>331</ele>
        <time>2022-09-13T11:00:22.000Z</time>
      </trkpt>
      <trkpt lat="49.38761" lon="5.82953">
        <ele>331.20001220703</ele>
        <time>2022-09-13T11:00:23.000Z</time>
      </trkpt>
      <trkpt lat="49.38757" lon="5.82951">
        <ele>331.20001220703</ele>
        <time>2022-09-13T11:00:24.000Z</time>
      </trkpt>
      <trkpt lat="49.38754" lon="5.8295">
        <ele>331.39999389648</ele>
        <time>2022-09-13T11:00:25.000Z</time>
      </trkpt>
      <trkpt lat="49.38752" lon="5.82948">
        <ele>331.60000610352</ele>
        <time>2022-09-13T11:00:26.000Z</time>
      </trkpt>
      <trkpt lat="49.3875" lon="5.82946">
        <ele>331.60000610352</ele>
        <time>2022-09-13T11:00:27.000Z</time>
      </trkpt>
      <trkpt lat="49.38747" lon="5.82944">
        <ele>331.60000610352</ele>
        <time>2022-09-13T11:00:28.000Z</time>
      </trkpt>
      <trkpt lat="49.38745" lon="5.82943">
        <ele>331.60000610352</ele>
        <time>2022-09-13T11:00:29.000Z</time>
      </trkpt>
      <trkpt lat="49.3874" lon="5.82939">
        <ele>331.79998779297</ele>
        <time>2022-09-13T11:00:30.000Z</time>
      </trkpt>
      <trkpt lat="49.38737" lon="5.82937">
        <ele>331.79998779297</ele>
        <time>2022-09-13T11:00:31.000Z</time>
      </trkpt>
      <trkpt lat="49.38734" lon="5.82934">
        <ele>331.79998779297</ele>
        <time>2022-09-13T11:00:32.000Z</time>
      </trkpt>
      <trkpt lat="49.38732" lon="5.82933">
        <ele>331.79998779297</ele>
        <time>2022-09-13T11:00:33.000Z</time>
      </trkpt>
      <trkpt lat="49.3873" lon="5.82932">
        <ele>332</ele>
        <time>2022-09-13T11:00:34.000Z</time>
      </trkpt>
      <trkpt lat="49.38728" lon="5.82933">
        <ele>332.20001220703</ele>
        <time>2022-09-13T11:00:35.000Z</time>
      </trkpt>
      <trkpt lat="49.38725" lon="5.82933">
        <ele>332.39999389648</ele>
        <time>2022-09-13T11:00:36.000Z</time>
      </trkpt>
      <trkpt lat="49.38723" lon="5.82932">
        <ele>332.60000610352</ele>
        <time>2022-09-13T11:00:37.000Z</time>
      </trkpt>
      <trkpt lat="49.38722" lon="5.82933">
        <ele>332.60000610352</ele>
        <time>2022-09-13T11:00:38.000Z</time>
      </trkpt>
      <trkpt lat="49.38719" lon="5.82934">
        <ele>332.79998779297</ele>
        <time>2022-09-13T11:00:39.000Z</time>
      </trkpt>
      <trkpt lat="49.38716" lon="5.82934">
        <ele>332.79998779297</ele>
        <time>2022-09-13T11:00:40.000Z</time>
      </trkpt>
      <trkpt lat="49.38712" lon="5.82934">
        <ele>333</ele>
        <time>2022-09-13T11:00:41.000Z</time>
      </trkpt>
      <trkpt lat="49.38708" lon="5.82935">
        <ele>333</ele>
        <time>2022-09-13T11:00:42.000Z</time>
      </trkpt>
      <trkpt lat="49.38706" lon="5.82935">
        <ele>333.20001220703</ele>
        <time>2022-09-13T11:00:43.000Z</time>
      </trkpt>
      <trkpt lat="49.38703" lon="5.82936">
        <ele>333.20001220703</ele>
        <time>2022-09-13T11:00:44.000Z</time>
      </trkpt>
      <trkpt lat="49.387" lon="5.82937">
        <ele>333.39999389648</ele>
        <time>2022-09-13T11:00:45.000Z</time>
      </trkpt>
      <trkpt lat="49.38699" lon="5.8294">
        <ele>333.39999389648</ele>
        <time>2022-09-13T11:00:46.000Z</time>
      </trkpt>
      <trkpt lat="49.38699" lon="5.82942">
        <ele>333.60000610352</ele>
        <time>2022-09-13T11:00:47.000Z</time>
      </trkpt>
      <trkpt lat="49.38697" lon="5.82944">
        <ele>333.60000610352</ele>
        <time>2022-09-13T11:00:48.000Z</time>
      </trkpt>
      <trkpt lat="49.38696" lon="5.82946">
        <ele>333.79998779297</ele>
        <time>2022-09-13T11:00:49.000Z</time>
      </trkpt>
      <trkpt lat="49.38696" lon="5.82949">
        <ele>333.79998779297</ele>
        <time>2022-09-13T11:00:50.000Z</time>
      </trkpt>
      <trkpt lat="49.38696" lon="5.82952">
        <ele>333.79998779297</ele>
        <time>2022-09-13T11:00:51.000Z</time>
      </trkpt>
      <trkpt lat="49.38696" lon="5.82955">
        <ele>333.79998779297</ele>
        <time>2022-09-13T11:00:52.000Z</time>
      </trkpt>
      <trkpt lat="49.38697" lon="5.82959">
        <ele>333.79998779297</ele>
        <time>2022-09-13T11:00:53.000Z</time>
      </trkpt>
      <trkpt lat="49.38698" lon="5.82963">
        <ele>333.79998779297</ele>
        <time>2022-09-13T11:00:54.000Z</time>
      </trkpt>
      <trkpt lat="49.387" lon="5.82977">
        <ele>334</ele>
        <time>2022-09-13T11:00:57.000Z</time>
      </trkpt>
      <trkpt lat="49.387" lon="5.82981">
        <ele>334</ele>
        <time>2022-09-13T11:00:58.000Z</time>
      </trkpt>
      <trkpt lat="49.38695" lon="5.83009">
        <ele>333.60000610352</ele>
        <time>2022-09-13T11:01:04.000Z</time>
      </trkpt>
      <trkpt lat="49.38681" lon="5.83045">
        <ele>333.39999389648</ele>
        <time>2022-09-13T11:01:13.000Z</time>
      </trkpt>
      <trkpt lat="49.38661" lon="5.83092">
        <ele>333.39999389648</ele>
        <time>2022-09-13T11:01:23.000Z</time>
      </trkpt>
      <trkpt lat="49.3865" lon="5.83118">
        <ele>332.60000610352</ele>
        <time>2022-09-13T11:01:29.000Z</time>
      </trkpt>
      <trkpt lat="49.38649" lon="5.83123">
        <ele>332.79998779297</ele>
        <time>2022-09-13T11:01:30.000Z</time>
      </trkpt>
      <trkpt lat="49.38647" lon="5.83127">
        <ele>332.79998779297</ele>
        <time>2022-09-13T11:01:31.000Z</time>
      </trkpt>
      <trkpt lat="49.38645" lon="5.83132">
        <ele>332.60000610352</ele>
        <time>2022-09-13T11:01:32.000Z</time>
      </trkpt>
      <trkpt lat="49.38639" lon="5.83146">
        <ele>332.60000610352</ele>
        <time>2022-09-13T11:01:35.000Z</time>
      </trkpt>
      <trkpt lat="49.3863" lon="5.83168">
        <ele>332.79998779297</ele>
        <time>2022-09-13T11:01:39.000Z</time>
      </trkpt>
      <trkpt lat="49.38612" lon="5.83213">
        <ele>332.20001220703</ele>
        <time>2022-09-13T11:01:47.000Z</time>
      </trkpt>
      <trkpt lat="49.38598" lon="5.83245">
        <ele>331.79998779297</ele>
        <time>2022-09-13T11:01:53.000Z</time>
      </trkpt>
      <trkpt lat="49.38596" lon="5.83251">
        <ele>331.79998779297</ele>
        <time>2022-09-13T11:01:54.000Z</time>
      </trkpt>
      <trkpt lat="49.38594" lon="5.83255">
        <ele>332</ele>
        <time>2022-09-13T11:01:55.000Z</time>
      </trkpt>
      <trkpt lat="49.38591" lon="5.83261">
        <ele>331.79998779297</ele>
        <time>2022-09-13T11:01:56.000Z</time>
      </trkpt>
      <trkpt lat="49.38589" lon="5.83266">
        <ele>332</ele>
        <time>2022-09-13T11:01:57.000Z</time>
      </trkpt>
      <trkpt lat="49.38587" lon="5.83271">
        <ele>332</ele>
        <time>2022-09-13T11:01:58.000Z</time>
      </trkpt>
      <trkpt lat="49.38585" lon="5.83277">
        <ele>332</ele>
        <time>2022-09-13T11:01:59.000Z</time>
      </trkpt>
      <trkpt lat="49.38583" lon="5.83282">
        <ele>332</ele>
        <time>2022-09-13T11:02:00.000Z</time>
      </trkpt>
      <trkpt lat="49.3858" lon="5.83292">
        <ele>332</ele>
        <time>2022-09-13T11:02:02.000Z</time>
      </trkpt>
      <trkpt lat="49.38578" lon="5.83297">
        <ele>332</ele>
        <time>2022-09-13T11:02:03.000Z</time>
      </trkpt>
      <trkpt lat="49.38576" lon="5.83301">
        <ele>332</ele>
        <time>2022-09-13T11:02:04.000Z</time>
      </trkpt>
      <trkpt lat="49.38575" lon="5.83304">
        <ele>332.20001220703</ele>
        <time>2022-09-13T11:02:05.000Z</time>
      </trkpt>
      <trkpt lat="49.38573" lon="5.83309">
        <ele>332.39999389648</ele>
        <time>2022-09-13T11:02:06.000Z</time>
      </trkpt>
      <trkpt lat="49.38572" lon="5.83313">
        <ele>332.60000610352</ele>
        <time>2022-09-13T11:02:07.000Z</time>
      </trkpt>
      <trkpt lat="49.38571" lon="5.83318">
        <ele>332.60000610352</ele>
        <time>2022-09-13T11:02:08.000Z</time>
      </trkpt>
      <trkpt lat="49.3857" lon="5.83322">
        <ele>332.60000610352</ele>
        <time>2022-09-13T11:02:09.000Z</time>
      </trkpt>
      <trkpt lat="49.38569" lon="5.83327">
        <ele>332.60000610352</ele>
        <time>2022-09-13T11:02:10.000Z</time>
      </trkpt>
      <trkpt lat="49.38568" lon="5.83332">
        <ele>333</ele>
        <time>2022-09-13T11:02:11.000Z</time>
      </trkpt>
      <trkpt lat="49.38568" lon="5.83335">
        <ele>333.20001220703</ele>
        <time>2022-09-13T11:02:12.000Z</time>
      </trkpt>
      <trkpt lat="49.38567" lon="5.83339">
        <ele>333.20001220703</ele>
        <time>2022-09-13T11:02:13.000Z</time>
      </trkpt>
      <trkpt lat="49.38566" lon="5.83342">
        <ele>333.60000610352</ele>
        <time>2022-09-13T11:02:14.000Z</time>
      </trkpt>
      <trkpt lat="49.38563" lon="5.83348">
        <ele>333.60000610352</ele>
        <time>2022-09-13T11:02:16.000Z</time>
      </trkpt>
      <trkpt lat="49.38561" lon="5.83355">
        <ele>333.79998779297</ele>
        <time>2022-09-13T11:02:18.000Z</time>
      </trkpt>
      <trkpt lat="49.38559" lon="5.83358">
        <ele>333.79998779297</ele>
        <time>2022-09-13T11:02:19.000Z</time>
      </trkpt>
      <trkpt lat="49.38558" lon="5.83361">
        <ele>334</ele>
        <time>2022-09-13T11:02:20.000Z</time>
      </trkpt>
      <trkpt lat="49.38558" lon="5.83365">
        <ele>334</ele>
        <time>2022-09-13T11:02:21.000Z</time>
      </trkpt>
      <trkpt lat="49.38558" lon="5.83367">
        <ele>334</ele>
        <time>2022-09-13T11:02:22.000Z</time>
      </trkpt>
      <trkpt lat="49.38557" lon="5.8337">
        <ele>334</ele>
        <time>2022-09-13T11:02:23.000Z</time>
      </trkpt>
      <trkpt lat="49.38554" lon="5.83377">
        <ele>334</ele>
        <time>2022-09-13T11:02:25.000Z</time>
      </trkpt>
      <trkpt lat="49.38546" lon="5.83395">
        <ele>334.20001220703</ele>
        <time>2022-09-13T11:02:29.000Z</time>
      </trkpt>
      <trkpt lat="49.38544" lon="5.834">
        <ele>334.20001220703</ele>
        <time>2022-09-13T11:02:30.000Z</time>
      </trkpt>
      <trkpt lat="49.38542" lon="5.83408">
        <ele>334.20001220703</ele>
        <time>2022-09-13T11:02:31.000Z</time>
      </trkpt>
      <trkpt lat="49.3854" lon="5.83413">
        <ele>334.39999389648</ele>
        <time>2022-09-13T11:02:32.000Z</time>
      </trkpt>
      <trkpt lat="49.38538" lon="5.83417">
        <ele>334.39999389648</ele>
        <time>2022-09-13T11:02:33.000Z</time>
      </trkpt>
      <trkpt lat="49.38528" lon="5.83436">
        <ele>334.60000610352</ele>
        <time>2022-09-13T11:02:37.000Z</time>
      </trkpt>
      <trkpt lat="49.38525" lon="5.8344">
        <ele>334.60000610352</ele>
        <time>2022-09-13T11:02:38.000Z</time>
      </trkpt>
      <trkpt lat="49.38523" lon="5.83443">
        <ele>334.60000610352</ele>
        <time>2022-09-13T11:02:39.000Z</time>
      </trkpt>
      <trkpt lat="49.38521" lon="5.83449">
        <ele>334.60000610352</ele>
        <time>2022-09-13T11:02:40.000Z</time>
      </trkpt>
      <trkpt lat="49.38519" lon="5.83454">
        <ele>334.79998779297</ele>
        <time>2022-09-13T11:02:41.000Z</time>
      </trkpt>
      <trkpt lat="49.38517" lon="5.83459">
        <ele>334.79998779297</ele>
        <time>2022-09-13T11:02:42.000Z</time>
      </trkpt>
      <trkpt lat="49.38513" lon="5.83464">
        <ele>334.79998779297</ele>
        <time>2022-09-13T11:02:44.000Z</time>
      </trkpt>
      <trkpt lat="49.38507" lon="5.83472">
        <ele>335</ele>
        <time>2022-09-13T11:02:46.000Z</time>
      </trkpt>
      <trkpt lat="49.38496" lon="5.83493">
        <ele>335</ele>
        <time>2022-09-13T11:02:49.000Z</time>
      </trkpt>
      <trkpt lat="49.38494" lon="5.83495">
        <ele>335</ele>
        <time>2022-09-13T11:02:50.000Z</time>
      </trkpt>
      <trkpt lat="49.38488" lon="5.83502">
        <ele>335.20001220703</ele>
        <time>2022-09-13T11:02:52.000Z</time>
      </trkpt>
      <trkpt lat="49.38477" lon="5.83516">
        <ele>335.20001220703</ele>
        <time>2022-09-13T11:02:56.000Z</time>
      </trkpt>
      <trkpt lat="49.38472" lon="5.8352">
        <ele>335.20001220703</ele>
        <time>2022-09-13T11:02:57.000Z</time>
      </trkpt>
      <trkpt lat="49.38463" lon="5.83529">
        <ele>335</ele>
        <time>2022-09-13T11:02:59.000Z</time>
      </trkpt>
      <trkpt lat="49.3846" lon="5.83531">
        <ele>335</ele>
        <time>2022-09-13T11:03:00.000Z</time>
      </trkpt>
      <trkpt lat="49.38456" lon="5.83534">
        <ele>335</ele>
        <time>2022-09-13T11:03:01.000Z</time>
      </trkpt>
      <trkpt lat="49.38441" lon="5.83551">
        <ele>334.39999389648</ele>
        <time>2022-09-13T11:03:05.000Z</time>
      </trkpt>
      <trkpt lat="49.3843" lon="5.83568">
        <ele>334</ele>
        <time>2022-09-13T11:03:08.000Z</time>
      </trkpt>
      <trkpt lat="49.38427" lon="5.83575">
        <ele>334</ele>
        <time>2022-09-13T11:03:09.000Z</time>
      </trkpt>
      <trkpt lat="49.38423" lon="5.83582">
        <ele>333.60000610352</ele>
        <time>2022-09-13T11:03:11.000Z</time>
      </trkpt>
      <trkpt lat="49.38419" lon="5.83588">
        <ele>333.39999389648</ele>
        <time>2022-09-13T11:03:12.000Z</time>
      </trkpt>
      <trkpt lat="49.38415" lon="5.83591">
        <ele>333.39999389648</ele>
        <time>2022-09-13T11:03:13.000Z</time>
      </trkpt>
      <trkpt lat="49.38411" lon="5.83594">
        <ele>333.20001220703</ele>
        <time>2022-09-13T11:03:14.000Z</time>
      </trkpt>
      <trkpt lat="49.38408" lon="5.83596">
        <ele>333.20001220703</ele>
        <time>2022-09-13T11:03:15.000Z</time>
      </trkpt>
      <trkpt lat="49.38405" lon="5.83599">
        <ele>333</ele>
        <time>2022-09-13T11:03:16.000Z</time>
      </trkpt>
      <trkpt lat="49.38402" lon="5.83603">
        <ele>332.79998779297</ele>
        <time>2022-09-13T11:03:17.000Z</time>
      </trkpt>
      <trkpt lat="49.384" lon="5.83608">
        <ele>332.79998779297</ele>
        <time>2022-09-13T11:03:18.000Z</time>
      </trkpt>
      <trkpt lat="49.38398" lon="5.83611">
        <ele>332.79998779297</ele>
        <time>2022-09-13T11:03:19.000Z</time>
      </trkpt>
      <trkpt lat="49.38396" lon="5.83613">
        <ele>332.79998779297</ele>
        <time>2022-09-13T11:03:20.000Z</time>
      </trkpt>
      <trkpt lat="49.38385" lon="5.83637">
        <ele>333.20001220703</ele>
        <time>2022-09-13T11:03:26.000Z</time>
      </trkpt>
      <trkpt lat="49.38384" lon="5.8364">
        <ele>333.39999389648</ele>
        <time>2022-09-13T11:03:27.000Z</time>
      </trkpt>
      <trkpt lat="49.38378" lon="5.83671">
        <ele>334</ele>
        <time>2022-09-13T11:03:35.000Z</time>
      </trkpt>
      <trkpt lat="49.38377" lon="5.83674">
        <ele>334</ele>
        <time>2022-09-13T11:03:36.000Z</time>
      </trkpt>
      <trkpt lat="49.38377" lon="5.83678">
        <ele>334.39999389648</ele>
        <time>2022-09-13T11:03:37.000Z</time>
      </trkpt>
      <trkpt lat="49.38378" lon="5.83681">
        <ele>334.60000610352</ele>
        <time>2022-09-13T11:03:38.000Z</time>
      </trkpt>
      <trkpt lat="49.38378" lon="5.83684">
        <ele>335.20001220703</ele>
        <time>2022-09-13T11:03:39.000Z</time>
      </trkpt>
      <trkpt lat="49.38377" lon="5.83688">
        <ele>335.39999389648</ele>
        <time>2022-09-13T11:03:40.000Z</time>
      </trkpt>
      <trkpt lat="49.38377" lon="5.83691">
        <ele>335.79998779297</ele>
        <time>2022-09-13T11:03:41.000Z</time>
      </trkpt>
      <trkpt lat="49.38377" lon="5.83696">
        <ele>335.79998779297</ele>
        <time>2022-09-13T11:03:42.000Z</time>
      </trkpt>
      <trkpt lat="49.38375" lon="5.83707">
        <ele>336</ele>
        <time>2022-09-13T11:03:44.000Z</time>
      </trkpt>
      <trkpt lat="49.38374" lon="5.83711">
        <ele>336.20001220703</ele>
        <time>2022-09-13T11:03:45.000Z</time>
      </trkpt>
      <trkpt lat="49.38373" lon="5.83718">
        <ele>336.20001220703</ele>
        <time>2022-09-13T11:03:47.000Z</time>
      </trkpt>
      <trkpt lat="49.38372" lon="5.83723">
        <ele>336.20001220703</ele>
        <time>2022-09-13T11:03:48.000Z</time>
      </trkpt>
      <trkpt lat="49.38371" lon="5.8373">
        <ele>336.39999389648</ele>
        <time>2022-09-13T11:03:49.000Z</time>
      </trkpt>
      <trkpt lat="49.3837" lon="5.83737">
        <ele>336.39999389648</ele>
        <time>2022-09-13T11:03:50.000Z</time>
      </trkpt>
      <trkpt lat="49.38371" lon="5.83742">
        <ele>336.60000610352</ele>
        <time>2022-09-13T11:03:51.000Z</time>
      </trkpt>
      <trkpt lat="49.38372" lon="5.83747">
        <ele>336.60000610352</ele>
        <time>2022-09-13T11:03:52.000Z</time>
      </trkpt>
      <trkpt lat="49.38372" lon="5.83752">
        <ele>336.60000610352</ele>
        <time>2022-09-13T11:03:53.000Z</time>
      </trkpt>
      <trkpt lat="49.38372" lon="5.83758">
        <ele>336.60000610352</ele>
        <time>2022-09-13T11:03:54.000Z</time>
      </trkpt>
      <trkpt lat="49.38372" lon="5.83764">
        <ele>336.60000610352</ele>
        <time>2022-09-13T11:03:55.000Z</time>
      </trkpt>
      <trkpt lat="49.38372" lon="5.83769">
        <ele>336.60000610352</ele>
        <time>2022-09-13T11:03:56.000Z</time>
      </trkpt>
      <trkpt lat="49.38372" lon="5.83774">
        <ele>336.60000610352</ele>
        <time>2022-09-13T11:03:57.000Z</time>
      </trkpt>
      <trkpt lat="49.38372" lon="5.83777">
        <ele>336.60000610352</ele>
        <time>2022-09-13T11:03:58.000Z</time>
      </trkpt>
      <trkpt lat="49.38372" lon="5.83781">
        <ele>336.79998779297</ele>
        <time>2022-09-13T11:03:59.000Z</time>
      </trkpt>
      <trkpt lat="49.38372" lon="5.83787">
        <ele>336.79998779297</ele>
        <time>2022-09-13T11:04:00.000Z</time>
      </trkpt>
      <trkpt lat="49.38373" lon="5.83792">
        <ele>336.79998779297</ele>
        <time>2022-09-13T11:04:01.000Z</time>
      </trkpt>
      <trkpt lat="49.38374" lon="5.83797">
        <ele>337</ele>
        <time>2022-09-13T11:04:02.000Z</time>
      </trkpt>
      <trkpt lat="49.38374" lon="5.83801">
        <ele>337</ele>
        <time>2022-09-13T11:04:03.000Z</time>
      </trkpt>
      <trkpt lat="49.38374" lon="5.83806">
        <ele>337</ele>
        <time>2022-09-13T11:04:04.000Z</time>
      </trkpt>
      <trkpt lat="49.38373" lon="5.8381">
        <ele>337</ele>
        <time>2022-09-13T11:04:05.000Z</time>
      </trkpt>
      <trkpt lat="49.38372" lon="5.83816">
        <ele>337.20001220703</ele>
        <time>2022-09-13T11:04:06.000Z</time>
      </trkpt>
      <trkpt lat="49.38373" lon="5.83821">
        <ele>337.20001220703</ele>
        <time>2022-09-13T11:04:07.000Z</time>
      </trkpt>
      <trkpt lat="49.38374" lon="5.83826">
        <ele>337.20001220703</ele>
        <time>2022-09-13T11:04:08.000Z</time>
      </trkpt>
      <trkpt lat="49.38375" lon="5.83831">
        <ele>337.20001220703</ele>
        <time>2022-09-13T11:04:09.000Z</time>
      </trkpt>
      <trkpt lat="49.38376" lon="5.83835">
        <ele>337.20001220703</ele>
        <time>2022-09-13T11:04:10.000Z</time>
      </trkpt>
      <trkpt lat="49.38376" lon="5.83842">
        <ele>337.20001220703</ele>
        <time>2022-09-13T11:04:11.000Z</time>
      </trkpt>
      <trkpt lat="49.38375" lon="5.83846">
        <ele>337.20001220703</ele>
        <time>2022-09-13T11:04:12.000Z</time>
      </trkpt>
      <trkpt lat="49.38375" lon="5.8385">
        <ele>337.20001220703</ele>
        <time>2022-09-13T11:04:13.000Z</time>
      </trkpt>
      <trkpt lat="49.38375" lon="5.83855">
        <ele>337</ele>
        <time>2022-09-13T11:04:14.000Z</time>
      </trkpt>
      <trkpt lat="49.38374" lon="5.83868">
        <ele>336.39999389648</ele>
        <time>2022-09-13T11:04:17.000Z</time>
      </trkpt>
      <trkpt lat="49.38373" lon="5.83872">
        <ele>336.39999389648</ele>
        <time>2022-09-13T11:04:18.000Z</time>
      </trkpt>
      <trkpt lat="49.38373" lon="5.83875">
        <ele>336.39999389648</ele>
        <time>2022-09-13T11:04:19.000Z</time>
      </trkpt>
      <trkpt lat="49.38372" lon="5.83879">
        <ele>336.20001220703</ele>
        <time>2022-09-13T11:04:20.000Z</time>
      </trkpt>
      <trkpt lat="49.38371" lon="5.83883">
        <ele>336.20001220703</ele>
        <time>2022-09-13T11:04:21.000Z</time>
      </trkpt>
      <trkpt lat="49.38372" lon="5.83889">
        <ele>336.20001220703</ele>
        <time>2022-09-13T11:04:22.000Z</time>
      </trkpt>
      <trkpt lat="49.38374" lon="5.83896">
        <ele>336</ele>
        <time>2022-09-13T11:04:23.000Z</time>
      </trkpt>
      <trkpt lat="49.38372" lon="5.83903">
        <ele>336</ele>
        <time>2022-09-13T11:04:24.000Z</time>
      </trkpt>
      <trkpt lat="49.38362" lon="5.83917">
        <ele>336.20001220703</ele>
        <time>2022-09-13T11:04:28.000Z</time>
      </trkpt>
      <trkpt lat="49.38361" lon="5.83919">
        <ele>336.20001220703</ele>
        <time>2022-09-13T11:04:29.000Z</time>
      </trkpt>
      <trkpt lat="49.38359" lon="5.8392">
        <ele>336.20001220703</ele>
        <time>2022-09-13T11:04:30.000Z</time>
      </trkpt>
      <trkpt lat="49.38357" lon="5.83922">
        <ele>336.39999389648</ele>
        <time>2022-09-13T11:04:31.000Z</time>
      </trkpt>
      <trkpt lat="49.38356" lon="5.83925">
        <ele>336.39999389648</ele>
        <time>2022-09-13T11:04:32.000Z</time>
      </trkpt>
      <trkpt lat="49.38355" lon="5.83929">
        <ele>336.39999389648</ele>
        <time>2022-09-13T11:04:33.000Z</time>
      </trkpt>
      <trkpt lat="49.3835" lon="5.83937">
        <ele>336.60000610352</ele>
        <time>2022-09-13T11:04:35.000Z</time>
      </trkpt>
      <trkpt lat="49.38349" lon="5.83939">
        <ele>336.60000610352</ele>
        <time>2022-09-13T11:04:36.000Z</time>
      </trkpt>
      <trkpt lat="49.38348" lon="5.83942">
        <ele>336.79998779297</ele>
        <time>2022-09-13T11:04:37.000Z</time>
      </trkpt>
      <trkpt lat="49.38346" lon="5.83944">
        <ele>337</ele>
        <time>2022-09-13T11:04:38.000Z</time>
      </trkpt>
      <trkpt lat="49.38344" lon="5.83947">
        <ele>337.20001220703</ele>
        <time>2022-09-13T11:04:39.000Z</time>
      </trkpt>
      <trkpt lat="49.38343" lon="5.83949">
        <ele>337.20001220703</ele>
        <time>2022-09-13T11:04:40.000Z</time>
      </trkpt>
      <trkpt lat="49.38342" lon="5.83951">
        <ele>337.39999389648</ele>
        <time>2022-09-13T11:04:41.000Z</time>
      </trkpt>
      <trkpt lat="49.38337" lon="5.83959">
        <ele>338</ele>
        <time>2022-09-13T11:04:43.000Z</time>
      </trkpt>
      <trkpt lat="49.38335" lon="5.83961">
        <ele>338</ele>
        <time>2022-09-13T11:04:45.000Z</time>
      </trkpt>
      <trkpt lat="49.38315" lon="5.83992">
        <ele>339</ele>
        <time>2022-09-13T11:04:52.000Z</time>
      </trkpt>
      <trkpt lat="49.38313" lon="5.83993">
        <ele>339.39999389648</ele>
        <time>2022-09-13T11:04:53.000Z</time>
      </trkpt>
      <trkpt lat="49.38309" lon="5.83999">
        <ele>339.39999389648</ele>
        <time>2022-09-13T11:04:54.000Z</time>
      </trkpt>
      <trkpt lat="49.38307" lon="5.84003">
        <ele>339.60000610352</ele>
        <time>2022-09-13T11:04:55.000Z</time>
      </trkpt>
      <trkpt lat="49.38305" lon="5.84005">
        <ele>339.79998779297</ele>
        <time>2022-09-13T11:04:56.000Z</time>
      </trkpt>
      <trkpt lat="49.38304" lon="5.84008">
        <ele>340</ele>
        <time>2022-09-13T11:04:57.000Z</time>
      </trkpt>
      <trkpt lat="49.38302" lon="5.84011">
        <ele>340.20001220703</ele>
        <time>2022-09-13T11:04:58.000Z</time>
      </trkpt>
      <trkpt lat="49.383" lon="5.84013">
        <ele>340.39999389648</ele>
        <time>2022-09-13T11:04:59.000Z</time>
      </trkpt>
      <trkpt lat="49.38298" lon="5.84015">
        <ele>340.60000610352</ele>
        <time>2022-09-13T11:05:00.000Z</time>
      </trkpt>
      <trkpt lat="49.38296" lon="5.84018">
        <ele>340.60000610352</ele>
        <time>2022-09-13T11:05:01.000Z</time>
      </trkpt>
      <trkpt lat="49.38295" lon="5.8402">
        <ele>340.79998779297</ele>
        <time>2022-09-13T11:05:02.000Z</time>
      </trkpt>
      <trkpt lat="49.38294" lon="5.84022">
        <ele>341</ele>
        <time>2022-09-13T11:05:03.000Z</time>
      </trkpt>
      <trkpt lat="49.38292" lon="5.84026">
        <ele>341.20001220703</ele>
        <time>2022-09-13T11:05:04.000Z</time>
      </trkpt>
      <trkpt lat="49.3829" lon="5.8403">
        <ele>341.39999389648</ele>
        <time>2022-09-13T11:05:05.000Z</time>
      </trkpt>
      <trkpt lat="49.38287" lon="5.84036">
        <ele>341.60000610352</ele>
        <time>2022-09-13T11:05:06.000Z</time>
      </trkpt>
      <trkpt lat="49.38284" lon="5.84043">
        <ele>341.60000610352</ele>
        <time>2022-09-13T11:05:07.000Z</time>
      </trkpt>
      <trkpt lat="49.38281" lon="5.84049">
        <ele>341.79998779297</ele>
        <time>2022-09-13T11:05:08.000Z</time>
      </trkpt>
      <trkpt lat="49.3828" lon="5.84055">
        <ele>341.79998779297</ele>
        <time>2022-09-13T11:05:09.000Z</time>
      </trkpt>
      <trkpt lat="49.38278" lon="5.8406">
        <ele>341.79998779297</ele>
        <time>2022-09-13T11:05:10.000Z</time>
      </trkpt>
      <trkpt lat="49.38276" lon="5.84064">
        <ele>341.79998779297</ele>
        <time>2022-09-13T11:05:11.000Z</time>
      </trkpt>
      <trkpt lat="49.38276" lon="5.84067">
        <ele>342</ele>
        <time>2022-09-13T11:05:12.000Z</time>
      </trkpt>
      <trkpt lat="49.38275" lon="5.8407">
        <ele>342</ele>
        <time>2022-09-13T11:05:13.000Z</time>
      </trkpt>
      <trkpt lat="49.38275" lon="5.84075">
        <ele>342</ele>
        <time>2022-09-13T11:05:14.000Z</time>
      </trkpt>
      <trkpt lat="49.38274" lon="5.84077">
        <ele>341.79998779297</ele>
        <time>2022-09-13T11:05:15.000Z</time>
      </trkpt>
      <trkpt lat="49.38273" lon="5.84078">
        <ele>341.79998779297</ele>
        <time>2022-09-13T11:05:16.000Z</time>
      </trkpt>
      <trkpt lat="49.38271" lon="5.84083">
        <ele>341.79998779297</ele>
        <time>2022-09-13T11:05:17.000Z</time>
      </trkpt>
      <trkpt lat="49.38268" lon="5.84088">
        <ele>341.60000610352</ele>
        <time>2022-09-13T11:05:18.000Z</time>
      </trkpt>
      <trkpt lat="49.38266" lon="5.84095">
        <ele>341.60000610352</ele>
        <time>2022-09-13T11:05:19.000Z</time>
      </trkpt>
      <trkpt lat="49.38265" lon="5.84105">
        <ele>341.60000610352</ele>
        <time>2022-09-13T11:05:20.000Z</time>
      </trkpt>
      <trkpt lat="49.38264" lon="5.84109">
        <ele>341.60000610352</ele>
        <time>2022-09-13T11:05:21.000Z</time>
      </trkpt>
      <trkpt lat="49.38261" lon="5.84115">
        <ele>341.60000610352</ele>
        <time>2022-09-13T11:05:22.000Z</time>
      </trkpt>
      <trkpt lat="49.38254" lon="5.84133">
        <ele>341.20001220703</ele>
        <time>2022-09-13T11:05:25.000Z</time>
      </trkpt>
      <trkpt lat="49.38251" lon="5.84141">
        <ele>341.20001220703</ele>
        <time>2022-09-13T11:05:26.000Z</time>
      </trkpt>
      <trkpt lat="49.3825" lon="5.8415">
        <ele>341</ele>
        <time>2022-09-13T11:05:27.000Z</time>
      </trkpt>
      <trkpt lat="49.3825" lon="5.84158">
        <ele>340.79998779297</ele>
        <time>2022-09-13T11:05:28.000Z</time>
      </trkpt>
      <trkpt lat="49.38249" lon="5.84165">
        <ele>340.60000610352</ele>
        <time>2022-09-13T11:05:29.000Z</time>
      </trkpt>
      <trkpt lat="49.38248" lon="5.8417">
        <ele>339.79998779297</ele>
        <time>2022-09-13T11:05:30.000Z</time>
      </trkpt>
      <trkpt lat="49.38247" lon="5.84178">
        <ele>339.60000610352</ele>
        <time>2022-09-13T11:05:31.000Z</time>
      </trkpt>
      <trkpt lat="49.38245" lon="5.84187">
        <ele>339.39999389648</ele>
        <time>2022-09-13T11:05:32.000Z</time>
      </trkpt>
      <trkpt lat="49.38243" lon="5.84198">
        <ele>339.20001220703</ele>
        <time>2022-09-13T11:05:33.000Z</time>
      </trkpt>
      <trkpt lat="49.38242" lon="5.84204">
        <ele>339</ele>
        <time>2022-09-13T11:05:34.000Z</time>
      </trkpt>
      <trkpt lat="49.38241" lon="5.84209">
        <ele>338.79998779297</ele>
        <time>2022-09-13T11:05:35.000Z</time>
      </trkpt>
      <trkpt lat="49.38239" lon="5.84214">
        <ele>338.39999389648</ele>
        <time>2022-09-13T11:05:36.000Z</time>
      </trkpt>
      <trkpt lat="49.38238" lon="5.84222">
        <ele>338.39999389648</ele>
        <time>2022-09-13T11:05:37.000Z</time>
      </trkpt>
      <trkpt lat="49.38237" lon="5.84227">
        <ele>338.39999389648</ele>
        <time>2022-09-13T11:05:38.000Z</time>
      </trkpt>
      <trkpt lat="49.38236" lon="5.84232">
        <ele>338.20001220703</ele>
        <time>2022-09-13T11:05:39.000Z</time>
      </trkpt>
      <trkpt lat="49.38235" lon="5.84238">
        <ele>338.20001220703</ele>
        <time>2022-09-13T11:05:40.000Z</time>
      </trkpt>
      <trkpt lat="49.38234" lon="5.84243">
        <ele>338</ele>
        <time>2022-09-13T11:05:41.000Z</time>
      </trkpt>
      <trkpt lat="49.38231" lon="5.84269">
        <ele>337.60000610352</ele>
        <time>2022-09-13T11:05:44.000Z</time>
      </trkpt>
      <trkpt lat="49.38231" lon="5.84271">
        <ele>337.39999389648</ele>
        <time>2022-09-13T11:05:45.000Z</time>
      </trkpt>
      <trkpt lat="49.3823" lon="5.84276">
        <ele>337</ele>
        <time>2022-09-13T11:05:46.000Z</time>
      </trkpt>
      <trkpt lat="49.38229" lon="5.84281">
        <ele>336.60000610352</ele>
        <time>2022-09-13T11:05:47.000Z</time>
      </trkpt>
      <trkpt lat="49.38228" lon="5.84288">
        <ele>336.60000610352</ele>
        <time>2022-09-13T11:05:48.000Z</time>
      </trkpt>
      <trkpt lat="49.38227" lon="5.84293">
        <ele>336.79998779297</ele>
        <time>2022-09-13T11:05:49.000Z</time>
      </trkpt>
      <trkpt lat="49.38226" lon="5.84301">
        <ele>336.79998779297</ele>
        <time>2022-09-13T11:05:50.000Z</time>
      </trkpt>
      <trkpt lat="49.38225" lon="5.84307">
        <ele>336.60000610352</ele>
        <time>2022-09-13T11:05:51.000Z</time>
      </trkpt>
      <trkpt lat="49.38224" lon="5.84313">
        <ele>336.60000610352</ele>
        <time>2022-09-13T11:05:52.000Z</time>
      </trkpt>
      <trkpt lat="49.38223" lon="5.8432">
        <ele>336.20001220703</ele>
        <time>2022-09-13T11:05:53.000Z</time>
      </trkpt>
      <trkpt lat="49.38222" lon="5.84324">
        <ele>336.20001220703</ele>
        <time>2022-09-13T11:05:54.000Z</time>
      </trkpt>
      <trkpt lat="49.3822" lon="5.84331">
        <ele>336</ele>
        <time>2022-09-13T11:05:55.000Z</time>
      </trkpt>
      <trkpt lat="49.3822" lon="5.84337">
        <ele>336</ele>
        <time>2022-09-13T11:05:56.000Z</time>
      </trkpt>
      <trkpt lat="49.3822" lon="5.84341">
        <ele>335.79998779297</ele>
        <time>2022-09-13T11:05:57.000Z</time>
      </trkpt>
      <trkpt lat="49.38221" lon="5.84346">
        <ele>335.79998779297</ele>
        <time>2022-09-13T11:05:58.000Z</time>
      </trkpt>
      <trkpt lat="49.38221" lon="5.84351">
        <ele>335.79998779297</ele>
        <time>2022-09-13T11:05:59.000Z</time>
      </trkpt>
      <trkpt lat="49.38217" lon="5.84364">
        <ele>335.79998779297</ele>
        <time>2022-09-13T11:06:02.000Z</time>
      </trkpt>
      <trkpt lat="49.38214" lon="5.84369">
        <ele>335.79998779297</ele>
        <time>2022-09-13T11:06:03.000Z</time>
      </trkpt>
      <trkpt lat="49.38199" lon="5.84404">
        <ele>336.60000610352</ele>
        <time>2022-09-13T11:06:10.000Z</time>
      </trkpt>
      <trkpt lat="49.38199" lon="5.84408">
        <ele>336.60000610352</ele>
        <time>2022-09-13T11:06:11.000Z</time>
      </trkpt>
      <trkpt lat="49.38199" lon="5.84413">
        <ele>336.60000610352</ele>
        <time>2022-09-13T11:06:12.000Z</time>
      </trkpt>
      <trkpt lat="49.38197" lon="5.84419">
        <ele>336.79998779297</ele>
        <time>2022-09-13T11:06:13.000Z</time>
      </trkpt>
      <trkpt lat="49.38191" lon="5.84426">
        <ele>336.79998779297</ele>
        <time>2022-09-13T11:06:15.000Z</time>
      </trkpt>
      <trkpt lat="49.38176" lon="5.84421">
        <ele>336.20001220703</ele>
        <time>2022-09-13T11:06:20.000Z</time>
      </trkpt>
      <trkpt lat="49.38174" lon="5.84421">
        <ele>336.20001220703</ele>
        <time>2022-09-13T11:06:21.000Z</time>
      </trkpt>
      <trkpt lat="49.38172" lon="5.84422">
        <ele>336.20001220703</ele>
        <time>2022-09-13T11:06:22.000Z</time>
      </trkpt>
      <trkpt lat="49.38169" lon="5.84424">
        <ele>336</ele>
        <time>2022-09-13T11:06:23.000Z</time>
      </trkpt>
      <trkpt lat="49.38163" lon="5.84427">
        <ele>335.79998779297</ele>
        <time>2022-09-13T11:06:25.000Z</time>
      </trkpt>
      <trkpt lat="49.38161" lon="5.84428">
        <ele>335.79998779297</ele>
        <time>2022-09-13T11:06:26.000Z</time>
      </trkpt>
      <trkpt lat="49.38158" lon="5.8443">
        <ele>335.79998779297</ele>
        <time>2022-09-13T11:06:27.000Z</time>
      </trkpt>
      <trkpt lat="49.38156" lon="5.84431">
        <ele>335.79998779297</ele>
        <time>2022-09-13T11:06:28.000Z</time>
      </trkpt>
      <trkpt lat="49.38153" lon="5.84433">
        <ele>335.79998779297</ele>
        <time>2022-09-13T11:06:29.000Z</time>
      </trkpt>
      <trkpt lat="49.38148" lon="5.84436">
        <ele>335.79998779297</ele>
        <time>2022-09-13T11:06:31.000Z</time>
      </trkpt>
      <trkpt lat="49.38145" lon="5.84438">
        <ele>335.79998779297</ele>
        <time>2022-09-13T11:06:32.000Z</time>
      </trkpt>
      <trkpt lat="49.38119" lon="5.84451">
        <ele>336</ele>
        <time>2022-09-13T11:06:39.000Z</time>
      </trkpt>
      <trkpt lat="49.38106" lon="5.84459">
        <ele>335.79998779297</ele>
        <time>2022-09-13T11:06:42.000Z</time>
      </trkpt>
      <trkpt lat="49.38092" lon="5.84471">
        <ele>335.39999389648</ele>
        <time>2022-09-13T11:06:45.000Z</time>
      </trkpt>
      <trkpt lat="49.38086" lon="5.84473">
        <ele>335.20001220703</ele>
        <time>2022-09-13T11:06:46.000Z</time>
      </trkpt>
      <trkpt lat="49.38082" lon="5.84476">
        <ele>335</ele>
        <time>2022-09-13T11:06:47.000Z</time>
      </trkpt>
      <trkpt lat="49.38077" lon="5.8448">
        <ele>334.60000610352</ele>
        <time>2022-09-13T11:06:48.000Z</time>
      </trkpt>
      <trkpt lat="49.3807" lon="5.84485">
        <ele>334.60000610352</ele>
        <time>2022-09-13T11:06:49.000Z</time>
      </trkpt>
      <trkpt lat="49.38064" lon="5.84489">
        <ele>333.79998779297</ele>
        <time>2022-09-13T11:06:50.000Z</time>
      </trkpt>
      <trkpt lat="49.3805" lon="5.84495">
        <ele>332.79998779297</ele>
        <time>2022-09-13T11:06:52.000Z</time>
      </trkpt>
      <trkpt lat="49.38042" lon="5.84497">
        <ele>332.20001220703</ele>
        <time>2022-09-13T11:06:53.000Z</time>
      </trkpt>
      <trkpt lat="49.38026" lon="5.845">
        <ele>331.79998779297</ele>
        <time>2022-09-13T11:06:55.000Z</time>
      </trkpt>
      <trkpt lat="49.3801" lon="5.84506">
        <ele>330.20001220703</ele>
        <time>2022-09-13T11:06:57.000Z</time>
      </trkpt>
      <trkpt lat="49.37992" lon="5.84517">
        <ele>328.79998779297</ele>
        <time>2022-09-13T11:06:59.000Z</time>
      </trkpt>
      <trkpt lat="49.37983" lon="5.8452">
        <ele>327.79998779297</ele>
        <time>2022-09-13T11:07:00.000Z</time>
      </trkpt>
      <trkpt lat="49.37967" lon="5.84522">
        <ele>326.20001220703</ele>
        <time>2022-09-13T11:07:02.000Z</time>
      </trkpt>
      <trkpt lat="49.37962" lon="5.84523">
        <ele>325.79998779297</ele>
        <time>2022-09-13T11:07:03.000Z</time>
      </trkpt>
      <trkpt lat="49.37954" lon="5.84525">
        <ele>325.20001220703</ele>
        <time>2022-09-13T11:07:04.000Z</time>
      </trkpt>
      <trkpt lat="49.37948" lon="5.84526">
        <ele>324.79998779297</ele>
        <time>2022-09-13T11:07:05.000Z</time>
      </trkpt>
      <trkpt lat="49.37943" lon="5.84526">
        <ele>324.20001220703</ele>
        <time>2022-09-13T11:07:06.000Z</time>
      </trkpt>
      <trkpt lat="49.37937" lon="5.84525">
        <ele>323.39999389648</ele>
        <time>2022-09-13T11:07:07.000Z</time>
      </trkpt>
      <trkpt lat="49.37927" lon="5.84521">
        <ele>322.79998779297</ele>
        <time>2022-09-13T11:07:09.000Z</time>
      </trkpt>
      <trkpt lat="49.37922" lon="5.84521">
        <ele>322.39999389648</ele>
        <time>2022-09-13T11:07:10.000Z</time>
      </trkpt>
      <trkpt lat="49.37918" lon="5.8452">
        <ele>322.20001220703</ele>
        <time>2022-09-13T11:07:11.000Z</time>
      </trkpt>
      <trkpt lat="49.37914" lon="5.8452">
        <ele>322</ele>
        <time>2022-09-13T11:07:12.000Z</time>
      </trkpt>
      <trkpt lat="49.37911" lon="5.84519">
        <ele>322</ele>
        <time>2022-09-13T11:07:13.000Z</time>
      </trkpt>
      <trkpt lat="49.37908" lon="5.84517">
        <ele>322</ele>
        <time>2022-09-13T11:07:14.000Z</time>
      </trkpt>
      <trkpt lat="49.37894" lon="5.84503">
        <ele>322.39999389648</ele>
        <time>2022-09-13T11:07:18.000Z</time>
      </trkpt>
      <trkpt lat="49.37892" lon="5.84502">
        <ele>322.60000610352</ele>
        <time>2022-09-13T11:07:19.000Z</time>
      </trkpt>
      <trkpt lat="49.3789" lon="5.84502">
        <ele>323</ele>
        <time>2022-09-13T11:07:20.000Z</time>
      </trkpt>
      <trkpt lat="49.37887" lon="5.84502">
        <ele>323.39999389648</ele>
        <time>2022-09-13T11:07:21.000Z</time>
      </trkpt>
      <trkpt lat="49.37884" lon="5.84504">
        <ele>323.60000610352</ele>
        <time>2022-09-13T11:07:22.000Z</time>
      </trkpt>
      <trkpt lat="49.3788" lon="5.84503">
        <ele>323.79998779297</ele>
        <time>2022-09-13T11:07:23.000Z</time>
      </trkpt>
      <trkpt lat="49.37868" lon="5.845">
        <ele>324.79998779297</ele>
        <time>2022-09-13T11:07:26.000Z</time>
      </trkpt>
      <trkpt lat="49.37862" lon="5.845">
        <ele>325</ele>
        <time>2022-09-13T11:07:27.000Z</time>
      </trkpt>
      <trkpt lat="49.37859" lon="5.84499">
        <ele>325.20001220703</ele>
        <time>2022-09-13T11:07:28.000Z</time>
      </trkpt>
      <trkpt lat="49.37848" lon="5.84495">
        <ele>326</ele>
        <time>2022-09-13T11:07:32.000Z</time>
      </trkpt>
      <trkpt lat="49.37842" lon="5.84494">
        <ele>326.79998779297</ele>
        <time>2022-09-13T11:07:35.000Z</time>
      </trkpt>
      <trkpt lat="49.3784" lon="5.84494">
        <ele>326.79998779297</ele>
        <time>2022-09-13T11:07:36.000Z</time>
      </trkpt>
      <trkpt lat="49.37838" lon="5.84493">
        <ele>327</ele>
        <time>2022-09-13T11:07:37.000Z</time>
      </trkpt>
      <trkpt lat="49.37835" lon="5.84492">
        <ele>327.39999389648</ele>
        <time>2022-09-13T11:07:38.000Z</time>
      </trkpt>
      <trkpt lat="49.37832" lon="5.84493">
        <ele>327.60000610352</ele>
        <time>2022-09-13T11:07:39.000Z</time>
      </trkpt>
      <trkpt lat="49.3783" lon="5.84492">
        <ele>327.79998779297</ele>
        <time>2022-09-13T11:07:40.000Z</time>
      </trkpt>
      <trkpt lat="49.37828" lon="5.84491">
        <ele>328.39999389648</ele>
        <time>2022-09-13T11:07:41.000Z</time>
      </trkpt>
      <trkpt lat="49.37826" lon="5.8449">
        <ele>328.60000610352</ele>
        <time>2022-09-13T11:07:42.000Z</time>
      </trkpt>
      <trkpt lat="49.37824" lon="5.84489">
        <ele>328.79998779297</ele>
        <time>2022-09-13T11:07:43.000Z</time>
      </trkpt>
      <trkpt lat="49.37821" lon="5.84487">
        <ele>329.20001220703</ele>
        <time>2022-09-13T11:07:44.000Z</time>
      </trkpt>
      <trkpt lat="49.37818" lon="5.84485">
        <ele>329.20001220703</ele>
        <time>2022-09-13T11:07:45.000Z</time>
      </trkpt>
      <trkpt lat="49.37814" lon="5.84483">
        <ele>329.39999389648</ele>
        <time>2022-09-13T11:07:46.000Z</time>
      </trkpt>
      <trkpt lat="49.37811" lon="5.84481">
        <ele>329.60000610352</ele>
        <time>2022-09-13T11:07:47.000Z</time>
      </trkpt>
      <trkpt lat="49.37808" lon="5.84479">
        <ele>330.20001220703</ele>
        <time>2022-09-13T11:07:48.000Z</time>
      </trkpt>
      <trkpt lat="49.37805" lon="5.84477">
        <ele>330.39999389648</ele>
        <time>2022-09-13T11:07:49.000Z</time>
      </trkpt>
      <trkpt lat="49.37803" lon="5.84477">
        <ele>331</ele>
        <time>2022-09-13T11:07:50.000Z</time>
      </trkpt>
      <trkpt lat="49.37802" lon="5.84476">
        <ele>331.39999389648</ele>
        <time>2022-09-13T11:07:51.000Z</time>
      </trkpt>
      <trkpt lat="49.37801" lon="5.84474">
        <ele>332</ele>
        <time>2022-09-13T11:07:52.000Z</time>
      </trkpt>
      <trkpt lat="49.37801" lon="5.84472">
        <ele>333</ele>
        <time>2022-09-13T11:07:53.000Z</time>
      </trkpt>
      <trkpt lat="49.378" lon="5.84471">
        <ele>333.20001220703</ele>
        <time>2022-09-13T11:07:54.000Z</time>
      </trkpt>
      <trkpt lat="49.37798" lon="5.84469">
        <ele>333.79998779297</ele>
        <time>2022-09-13T11:07:55.000Z</time>
      </trkpt>
      <trkpt lat="49.37796" lon="5.84467">
        <ele>334.20001220703</ele>
        <time>2022-09-13T11:07:56.000Z</time>
      </trkpt>
      <trkpt lat="49.37795" lon="5.84466">
        <ele>334.39999389648</ele>
        <time>2022-09-13T11:07:57.000Z</time>
      </trkpt>
      <trkpt lat="49.37792" lon="5.84464">
        <ele>334.79998779297</ele>
        <time>2022-09-13T11:07:58.000Z</time>
      </trkpt>
      <trkpt lat="49.3779" lon="5.84462">
        <ele>335.60000610352</ele>
        <time>2022-09-13T11:07:59.000Z</time>
      </trkpt>
      <trkpt lat="49.37788" lon="5.8446">
        <ele>336</ele>
        <time>2022-09-13T11:08:00.000Z</time>
      </trkpt>
      <trkpt lat="49.37785" lon="5.84458">
        <ele>336.39999389648</ele>
        <time>2022-09-13T11:08:01.000Z</time>
      </trkpt>
      <trkpt lat="49.37782" lon="5.84456">
        <ele>336.79998779297</ele>
        <time>2022-09-13T11:08:02.000Z</time>
      </trkpt>
      <trkpt lat="49.37778" lon="5.84453">
        <ele>337</ele>
        <time>2022-09-13T11:08:03.000Z</time>
      </trkpt>
      <trkpt lat="49.37776" lon="5.84451">
        <ele>337.20001220703</ele>
        <time>2022-09-13T11:08:04.000Z</time>
      </trkpt>
      <trkpt lat="49.37774" lon="5.8445">
        <ele>337.39999389648</ele>
        <time>2022-09-13T11:08:05.000Z</time>
      </trkpt>
      <trkpt lat="49.37774" lon="5.8445">
        <ele>337.79998779297</ele>
        <time>2022-09-13T11:08:06.000Z</time>
      </trkpt>
      <trkpt lat="49.37772" lon="5.84448">
        <ele>338.20001220703</ele>
        <time>2022-09-13T11:08:07.000Z</time>
      </trkpt>
      <trkpt lat="49.37771" lon="5.84447">
        <ele>338.39999389648</ele>
        <time>2022-09-13T11:08:08.000Z</time>
      </trkpt>
      <trkpt lat="49.37769" lon="5.84447">
        <ele>338.79998779297</ele>
        <time>2022-09-13T11:08:09.000Z</time>
      </trkpt>
      <trkpt lat="49.37766" lon="5.84443">
        <ele>338.79998779297</ele>
        <time>2022-09-13T11:08:10.000Z</time>
      </trkpt>
      <trkpt lat="49.37763" lon="5.8444">
        <ele>339.20001220703</ele>
        <time>2022-09-13T11:08:11.000Z</time>
      </trkpt>
      <trkpt lat="49.37759" lon="5.84438">
        <ele>339.39999389648</ele>
        <time>2022-09-13T11:08:12.000Z</time>
      </trkpt>
      <trkpt lat="49.37753" lon="5.84436">
        <ele>339.60000610352</ele>
        <time>2022-09-13T11:08:13.000Z</time>
      </trkpt>
      <trkpt lat="49.37745" lon="5.84432">
        <ele>339.79998779297</ele>
        <time>2022-09-13T11:08:14.000Z</time>
      </trkpt>
      <trkpt lat="49.37742" lon="5.84431">
        <ele>340.20001220703</ele>
        <time>2022-09-13T11:08:15.000Z</time>
      </trkpt>
      <trkpt lat="49.3774" lon="5.84431">
        <ele>340.39999389648</ele>
        <time>2022-09-13T11:08:16.000Z</time>
      </trkpt>
      <trkpt lat="49.37738" lon="5.8443">
        <ele>340.39999389648</ele>
        <time>2022-09-13T11:08:17.000Z</time>
      </trkpt>
      <trkpt lat="49.37735" lon="5.8443">
        <ele>340.60000610352</ele>
        <time>2022-09-13T11:08:18.000Z</time>
      </trkpt>
      <trkpt lat="49.37733" lon="5.8443">
        <ele>340.79998779297</ele>
        <time>2022-09-13T11:08:19.000Z</time>
      </trkpt>
      <trkpt lat="49.37731" lon="5.84429">
        <ele>341</ele>
        <time>2022-09-13T11:08:20.000Z</time>
      </trkpt>
      <trkpt lat="49.37729" lon="5.84429">
        <ele>341</ele>
        <time>2022-09-13T11:08:21.000Z</time>
      </trkpt>
      <trkpt lat="49.37727" lon="5.84428">
        <ele>341.20001220703</ele>
        <time>2022-09-13T11:08:22.000Z</time>
      </trkpt>
      <trkpt lat="49.37725" lon="5.84431">
        <ele>341.20001220703</ele>
        <time>2022-09-13T11:08:23.000Z</time>
      </trkpt>
      <trkpt lat="49.3772" lon="5.84432">
        <ele>341.20001220703</ele>
        <time>2022-09-13T11:08:24.000Z</time>
      </trkpt>
      <trkpt lat="49.37718" lon="5.84431">
        <ele>341.20001220703</ele>
        <time>2022-09-13T11:08:25.000Z</time>
      </trkpt>
      <trkpt lat="49.37714" lon="5.84429">
        <ele>341.20001220703</ele>
        <time>2022-09-13T11:08:26.000Z</time>
      </trkpt>
      <trkpt lat="49.37711" lon="5.84427">
        <ele>341.20001220703</ele>
        <time>2022-09-13T11:08:27.000Z</time>
      </trkpt>
      <trkpt lat="49.37708" lon="5.84426">
        <ele>341.20001220703</ele>
        <time>2022-09-13T11:08:28.000Z</time>
      </trkpt>
      <trkpt lat="49.37705" lon="5.84425">
        <ele>341.39999389648</ele>
        <time>2022-09-13T11:08:29.000Z</time>
      </trkpt>
      <trkpt lat="49.37702" lon="5.84423">
        <ele>341.60000610352</ele>
        <time>2022-09-13T11:08:30.000Z</time>
      </trkpt>
      <trkpt lat="49.37698" lon="5.84422">
        <ele>341.79998779297</ele>
        <time>2022-09-13T11:08:31.000Z</time>
      </trkpt>
      <trkpt lat="49.37692" lon="5.8442">
        <ele>342</ele>
        <time>2022-09-13T11:08:32.000Z</time>
      </trkpt>
      <trkpt lat="49.37689" lon="5.8442">
        <ele>342.20001220703</ele>
        <time>2022-09-13T11:08:33.000Z</time>
      </trkpt>
      <trkpt lat="49.37687" lon="5.8442">
        <ele>342.20001220703</ele>
        <time>2022-09-13T11:08:34.000Z</time>
      </trkpt>
      <trkpt lat="49.37685" lon="5.84419">
        <ele>342.20001220703</ele>
        <time>2022-09-13T11:08:35.000Z</time>
      </trkpt>
      <trkpt lat="49.37683" lon="5.84419">
        <ele>342.39999389648</ele>
        <time>2022-09-13T11:08:36.000Z</time>
      </trkpt>
      <trkpt lat="49.37679" lon="5.84416">
        <ele>342.39999389648</ele>
        <time>2022-09-13T11:08:37.000Z</time>
      </trkpt>
      <trkpt lat="49.37676" lon="5.84414">
        <ele>342.60000610352</ele>
        <time>2022-09-13T11:08:38.000Z</time>
      </trkpt>
      <trkpt lat="49.37674" lon="5.84412">
        <ele>342.60000610352</ele>
        <time>2022-09-13T11:08:39.000Z</time>
      </trkpt>
      <trkpt lat="49.37673" lon="5.84408">
        <ele>342.79998779297</ele>
        <time>2022-09-13T11:08:40.000Z</time>
      </trkpt>
      <trkpt lat="49.37673" lon="5.84406">
        <ele>342.79998779297</ele>
        <time>2022-09-13T11:08:41.000Z</time>
      </trkpt>
      <trkpt lat="49.37672" lon="5.84404">
        <ele>342.79998779297</ele>
        <time>2022-09-13T11:08:42.000Z</time>
      </trkpt>
      <trkpt lat="49.37668" lon="5.844">
        <ele>342.79998779297</ele>
        <time>2022-09-13T11:08:43.000Z</time>
      </trkpt>
      <trkpt lat="49.37663" lon="5.84393">
        <ele>342.79998779297</ele>
        <time>2022-09-13T11:08:44.000Z</time>
      </trkpt>
      <trkpt lat="49.37662" lon="5.84391">
        <ele>343.39999389648</ele>
        <time>2022-09-13T11:08:45.000Z</time>
      </trkpt>
      <trkpt lat="49.3766" lon="5.84389">
        <ele>344.20001220703</ele>
        <time>2022-09-13T11:08:46.000Z</time>
      </trkpt>
      <trkpt lat="49.37658" lon="5.84389">
        <ele>344.39999389648</ele>
        <time>2022-09-13T11:08:47.000Z</time>
      </trkpt>
      <trkpt lat="49.37657" lon="5.84389">
        <ele>344.79998779297</ele>
        <time>2022-09-13T11:08:48.000Z</time>
      </trkpt>
      <trkpt lat="49.37656" lon="5.84389">
        <ele>345.20001220703</ele>
        <time>2022-09-13T11:08:49.000Z</time>
      </trkpt>
      <trkpt lat="49.37655" lon="5.84388">
        <ele>345.39999389648</ele>
        <time>2022-09-13T11:08:50.000Z</time>
      </trkpt>
      <trkpt lat="49.37654" lon="5.84388">
        <ele>345.79998779297</ele>
        <time>2022-09-13T11:08:51.000Z</time>
      </trkpt>
      <trkpt lat="49.37652" lon="5.84389">
        <ele>346.39999389648</ele>
        <time>2022-09-13T11:08:52.000Z</time>
      </trkpt>
      <trkpt lat="49.37652" lon="5.84389">
        <ele>346.79998779297</ele>
        <time>2022-09-13T11:08:53.000Z</time>
      </trkpt>
      <trkpt lat="49.3765" lon="5.84389">
        <ele>346.79998779297</ele>
        <time>2022-09-13T11:08:54.000Z</time>
      </trkpt>
      <trkpt lat="49.37648" lon="5.8439">
        <ele>347</ele>
        <time>2022-09-13T11:08:55.000Z</time>
      </trkpt>
      <trkpt lat="49.37647" lon="5.84391">
        <ele>347.20001220703</ele>
        <time>2022-09-13T11:08:56.000Z</time>
      </trkpt>
      <trkpt lat="49.37644" lon="5.84391">
        <ele>347.79998779297</ele>
        <time>2022-09-13T11:08:57.000Z</time>
      </trkpt>
      <trkpt lat="49.37642" lon="5.84392">
        <ele>348.20001220703</ele>
        <time>2022-09-13T11:08:58.000Z</time>
      </trkpt>
      <trkpt lat="49.37641" lon="5.84392">
        <ele>348.60000610352</ele>
        <time>2022-09-13T11:08:59.000Z</time>
      </trkpt>
      <trkpt lat="49.3764" lon="5.84393">
        <ele>349</ele>
        <time>2022-09-13T11:09:00.000Z</time>
      </trkpt>
      <trkpt lat="49.37637" lon="5.84393">
        <ele>349.20001220703</ele>
        <time>2022-09-13T11:09:01.000Z</time>
      </trkpt>
      <trkpt lat="49.37636" lon="5.84393">
        <ele>349.79998779297</ele>
        <time>2022-09-13T11:09:02.000Z</time>
      </trkpt>
      <trkpt lat="49.37633" lon="5.84394">
        <ele>350.20001220703</ele>
        <time>2022-09-13T11:09:03.000Z</time>
      </trkpt>
      <trkpt lat="49.37631" lon="5.84396">
        <ele>350.60000610352</ele>
        <time>2022-09-13T11:09:04.000Z</time>
      </trkpt>
      <trkpt lat="49.3763" lon="5.84397">
        <ele>350.60000610352</ele>
        <time>2022-09-13T11:09:05.000Z</time>
      </trkpt>
      <trkpt lat="49.37629" lon="5.84399">
        <ele>351.20001220703</ele>
        <time>2022-09-13T11:09:06.000Z</time>
      </trkpt>
      <trkpt lat="49.37628" lon="5.84401">
        <ele>351.39999389648</ele>
        <time>2022-09-13T11:09:07.000Z</time>
      </trkpt>
      <trkpt lat="49.37626" lon="5.84403">
        <ele>352</ele>
        <time>2022-09-13T11:09:08.000Z</time>
      </trkpt>
      <trkpt lat="49.37625" lon="5.84404">
        <ele>352.39999389648</ele>
        <time>2022-09-13T11:09:09.000Z</time>
      </trkpt>
      <trkpt lat="49.37623" lon="5.84405">
        <ele>352.60000610352</ele>
        <time>2022-09-13T11:09:10.000Z</time>
      </trkpt>
      <trkpt lat="49.3762" lon="5.84405">
        <ele>353</ele>
        <time>2022-09-13T11:09:11.000Z</time>
      </trkpt>
      <trkpt lat="49.37618" lon="5.84407">
        <ele>353</ele>
        <time>2022-09-13T11:09:12.000Z</time>
      </trkpt>
      <trkpt lat="49.37616" lon="5.84407">
        <ele>353.60000610352</ele>
        <time>2022-09-13T11:09:13.000Z</time>
      </trkpt>
      <trkpt lat="49.37615" lon="5.84409">
        <ele>354</ele>
        <time>2022-09-13T11:09:14.000Z</time>
      </trkpt>
      <trkpt lat="49.37613" lon="5.8441">
        <ele>354.39999389648</ele>
        <time>2022-09-13T11:09:15.000Z</time>
      </trkpt>
      <trkpt lat="49.37611" lon="5.84412">
        <ele>354.79998779297</ele>
        <time>2022-09-13T11:09:16.000Z</time>
      </trkpt>
      <trkpt lat="49.37608" lon="5.84417">
        <ele>354.79998779297</ele>
        <time>2022-09-13T11:09:17.000Z</time>
      </trkpt>
      <trkpt lat="49.37605" lon="5.8442">
        <ele>355.39999389648</ele>
        <time>2022-09-13T11:09:18.000Z</time>
      </trkpt>
      <trkpt lat="49.37603" lon="5.84422">
        <ele>355.60000610352</ele>
        <time>2022-09-13T11:09:19.000Z</time>
      </trkpt>
      <trkpt lat="49.376" lon="5.84422">
        <ele>356.20001220703</ele>
        <time>2022-09-13T11:09:20.000Z</time>
      </trkpt>
      <trkpt lat="49.37597" lon="5.84423">
        <ele>356.20001220703</ele>
        <time>2022-09-13T11:09:21.000Z</time>
      </trkpt>
      <trkpt lat="49.37595" lon="5.84425">
        <ele>356.60000610352</ele>
        <time>2022-09-13T11:09:22.000Z</time>
      </trkpt>
      <trkpt lat="49.37593" lon="5.84426">
        <ele>356.79998779297</ele>
        <time>2022-09-13T11:09:23.000Z</time>
      </trkpt>
      <trkpt lat="49.37591" lon="5.84429">
        <ele>357</ele>
        <time>2022-09-13T11:09:24.000Z</time>
      </trkpt>
      <trkpt lat="49.3759" lon="5.84431">
        <ele>357.20001220703</ele>
        <time>2022-09-13T11:09:25.000Z</time>
      </trkpt>
      <trkpt lat="49.37589" lon="5.84433">
        <ele>357.39999389648</ele>
        <time>2022-09-13T11:09:26.000Z</time>
      </trkpt>
      <trkpt lat="49.37588" lon="5.84435">
        <ele>358</ele>
        <time>2022-09-13T11:09:27.000Z</time>
      </trkpt>
      <trkpt lat="49.37586" lon="5.84437">
        <ele>358</ele>
        <time>2022-09-13T11:09:28.000Z</time>
      </trkpt>
      <trkpt lat="49.37584" lon="5.8444">
        <ele>358.20001220703</ele>
        <time>2022-09-13T11:09:29.000Z</time>
      </trkpt>
      <trkpt lat="49.37581" lon="5.8444">
        <ele>358.39999389648</ele>
        <time>2022-09-13T11:09:30.000Z</time>
      </trkpt>
      <trkpt lat="49.37579" lon="5.8444">
        <ele>358.39999389648</ele>
        <time>2022-09-13T11:09:31.000Z</time>
      </trkpt>
      <trkpt lat="49.37576" lon="5.84442">
        <ele>358.60000610352</ele>
        <time>2022-09-13T11:09:32.000Z</time>
      </trkpt>
      <trkpt lat="49.37573" lon="5.84443">
        <ele>358.60000610352</ele>
        <time>2022-09-13T11:09:33.000Z</time>
      </trkpt>
      <trkpt lat="49.3757" lon="5.84444">
        <ele>358.79998779297</ele>
        <time>2022-09-13T11:09:34.000Z</time>
      </trkpt>
      <trkpt lat="49.37568" lon="5.84446">
        <ele>358.79998779297</ele>
        <time>2022-09-13T11:09:35.000Z</time>
      </trkpt>
      <trkpt lat="49.37567" lon="5.84449">
        <ele>359.20001220703</ele>
        <time>2022-09-13T11:09:36.000Z</time>
      </trkpt>
      <trkpt lat="49.37565" lon="5.84452">
        <ele>359.39999389648</ele>
        <time>2022-09-13T11:09:37.000Z</time>
      </trkpt>
      <trkpt lat="49.37563" lon="5.84456">
        <ele>359.39999389648</ele>
        <time>2022-09-13T11:09:38.000Z</time>
      </trkpt>
      <trkpt lat="49.37561" lon="5.84459">
        <ele>359.60000610352</ele>
        <time>2022-09-13T11:09:39.000Z</time>
      </trkpt>
      <trkpt lat="49.37558" lon="5.84461">
        <ele>359.79998779297</ele>
        <time>2022-09-13T11:09:40.000Z</time>
      </trkpt>
      <trkpt lat="49.37556" lon="5.84462">
        <ele>360.20001220703</ele>
        <time>2022-09-13T11:09:41.000Z</time>
      </trkpt>
      <trkpt lat="49.37555" lon="5.84463">
        <ele>360.39999389648</ele>
        <time>2022-09-13T11:09:42.000Z</time>
      </trkpt>
      <trkpt lat="49.37552" lon="5.84467">
        <ele>360.79998779297</ele>
        <time>2022-09-13T11:09:43.000Z</time>
      </trkpt>
      <trkpt lat="49.3755" lon="5.8447">
        <ele>361</ele>
        <time>2022-09-13T11:09:44.000Z</time>
      </trkpt>
      <trkpt lat="49.37548" lon="5.84472">
        <ele>361.20001220703</ele>
        <time>2022-09-13T11:09:45.000Z</time>
      </trkpt>
      <trkpt lat="49.37547" lon="5.84473">
        <ele>361.60000610352</ele>
        <time>2022-09-13T11:09:46.000Z</time>
      </trkpt>
      <trkpt lat="49.37546" lon="5.84474">
        <ele>361.60000610352</ele>
        <time>2022-09-13T11:09:47.000Z</time>
      </trkpt>
      <trkpt lat="49.37545" lon="5.84475">
        <ele>361.60000610352</ele>
        <time>2022-09-13T11:09:48.000Z</time>
      </trkpt>
      <trkpt lat="49.37543" lon="5.84475">
        <ele>361.79998779297</ele>
        <time>2022-09-13T11:09:49.000Z</time>
      </trkpt>
      <trkpt lat="49.37542" lon="5.84476">
        <ele>362</ele>
        <time>2022-09-13T11:09:50.000Z</time>
      </trkpt>
      <trkpt lat="49.3754" lon="5.84478">
        <ele>362.20001220703</ele>
        <time>2022-09-13T11:09:51.000Z</time>
      </trkpt>
      <trkpt lat="49.37538" lon="5.8448">
        <ele>362.60000610352</ele>
        <time>2022-09-13T11:09:52.000Z</time>
      </trkpt>
      <trkpt lat="49.37536" lon="5.84481">
        <ele>363</ele>
        <time>2022-09-13T11:09:53.000Z</time>
      </trkpt>
      <trkpt lat="49.37534" lon="5.84483">
        <ele>363.20001220703</ele>
        <time>2022-09-13T11:09:54.000Z</time>
      </trkpt>
      <trkpt lat="49.37531" lon="5.84484">
        <ele>363.39999389648</ele>
        <time>2022-09-13T11:09:55.000Z</time>
      </trkpt>
      <trkpt lat="49.37529" lon="5.84485">
        <ele>363.60000610352</ele>
        <time>2022-09-13T11:09:56.000Z</time>
      </trkpt>
      <trkpt lat="49.37528" lon="5.84486">
        <ele>364</ele>
        <time>2022-09-13T11:09:57.000Z</time>
      </trkpt>
      <trkpt lat="49.37526" lon="5.84488">
        <ele>364</ele>
        <time>2022-09-13T11:09:58.000Z</time>
      </trkpt>
      <trkpt lat="49.37524" lon="5.84489">
        <ele>364.39999389648</ele>
        <time>2022-09-13T11:09:59.000Z</time>
      </trkpt>
      <trkpt lat="49.37523" lon="5.84491">
        <ele>364.60000610352</ele>
        <time>2022-09-13T11:10:00.000Z</time>
      </trkpt>
      <trkpt lat="49.37521" lon="5.84494">
        <ele>364.79998779297</ele>
        <time>2022-09-13T11:10:01.000Z</time>
      </trkpt>
      <trkpt lat="49.3752" lon="5.84496">
        <ele>365.20001220703</ele>
        <time>2022-09-13T11:10:02.000Z</time>
      </trkpt>
      <trkpt lat="49.37518" lon="5.84499">
        <ele>365.39999389648</ele>
        <time>2022-09-13T11:10:03.000Z</time>
      </trkpt>
      <trkpt lat="49.37516" lon="5.84501">
        <ele>365.79998779297</ele>
        <time>2022-09-13T11:10:04.000Z</time>
      </trkpt>
      <trkpt lat="49.37514" lon="5.84503">
        <ele>365.79998779297</ele>
        <time>2022-09-13T11:10:05.000Z</time>
      </trkpt>
      <trkpt lat="49.37512" lon="5.84505">
        <ele>365.79998779297</ele>
        <time>2022-09-13T11:10:06.000Z</time>
      </trkpt>
      <trkpt lat="49.3751" lon="5.84507">
        <ele>366</ele>
        <time>2022-09-13T11:10:07.000Z</time>
      </trkpt>
      <trkpt lat="49.37508" lon="5.84508">
        <ele>366.20001220703</ele>
        <time>2022-09-13T11:10:08.000Z</time>
      </trkpt>
      <trkpt lat="49.37506" lon="5.8451">
        <ele>366.79998779297</ele>
        <time>2022-09-13T11:10:09.000Z</time>
      </trkpt>
      <trkpt lat="49.37504" lon="5.84513">
        <ele>367</ele>
        <time>2022-09-13T11:10:10.000Z</time>
      </trkpt>
      <trkpt lat="49.37501" lon="5.84515">
        <ele>367.20001220703</ele>
        <time>2022-09-13T11:10:11.000Z</time>
      </trkpt>
      <trkpt lat="49.37499" lon="5.84519">
        <ele>367.39999389648</ele>
        <time>2022-09-13T11:10:12.000Z</time>
      </trkpt>
      <trkpt lat="49.37497" lon="5.84521">
        <ele>367.60000610352</ele>
        <time>2022-09-13T11:10:13.000Z</time>
      </trkpt>
      <trkpt lat="49.37494" lon="5.84523">
        <ele>368</ele>
        <time>2022-09-13T11:10:14.000Z</time>
      </trkpt>
      <trkpt lat="49.37492" lon="5.84526">
        <ele>368.20001220703</ele>
        <time>2022-09-13T11:10:15.000Z</time>
      </trkpt>
      <trkpt lat="49.37489" lon="5.84529">
        <ele>368.39999389648</ele>
        <time>2022-09-13T11:10:16.000Z</time>
      </trkpt>
      <trkpt lat="49.37486" lon="5.84532">
        <ele>368.39999389648</ele>
        <time>2022-09-13T11:10:17.000Z</time>
      </trkpt>
      <trkpt lat="49.37484" lon="5.84533">
        <ele>368.60000610352</ele>
        <time>2022-09-13T11:10:18.000Z</time>
      </trkpt>
      <trkpt lat="49.37482" lon="5.84534">
        <ele>368.60000610352</ele>
        <time>2022-09-13T11:10:19.000Z</time>
      </trkpt>
      <trkpt lat="49.3748" lon="5.84536">
        <ele>368.60000610352</ele>
        <time>2022-09-13T11:10:20.000Z</time>
      </trkpt>
      <trkpt lat="49.37477" lon="5.8454">
        <ele>368.60000610352</ele>
        <time>2022-09-13T11:10:21.000Z</time>
      </trkpt>
      <trkpt lat="49.37475" lon="5.84542">
        <ele>368.79998779297</ele>
        <time>2022-09-13T11:10:22.000Z</time>
      </trkpt>
      <trkpt lat="49.37472" lon="5.84543">
        <ele>368.79998779297</ele>
        <time>2022-09-13T11:10:23.000Z</time>
      </trkpt>
      <trkpt lat="49.3747" lon="5.84546">
        <ele>369</ele>
        <time>2022-09-13T11:10:24.000Z</time>
      </trkpt>
      <trkpt lat="49.37466" lon="5.8455">
        <ele>369</ele>
        <time>2022-09-13T11:10:25.000Z</time>
      </trkpt>
      <trkpt lat="49.37464" lon="5.84552">
        <ele>369.20001220703</ele>
        <time>2022-09-13T11:10:26.000Z</time>
      </trkpt>
      <trkpt lat="49.37462" lon="5.84555">
        <ele>369.20001220703</ele>
        <time>2022-09-13T11:10:27.000Z</time>
      </trkpt>
      <trkpt lat="49.3746" lon="5.84557">
        <ele>369.20001220703</ele>
        <time>2022-09-13T11:10:28.000Z</time>
      </trkpt>
      <trkpt lat="49.37459" lon="5.84559">
        <ele>369.20001220703</ele>
        <time>2022-09-13T11:10:29.000Z</time>
      </trkpt>
      <trkpt lat="49.37457" lon="5.8456">
        <ele>369.20001220703</ele>
        <time>2022-09-13T11:10:30.000Z</time>
      </trkpt>
      <trkpt lat="49.37455" lon="5.84563">
        <ele>369.20001220703</ele>
        <time>2022-09-13T11:10:31.000Z</time>
      </trkpt>
      <trkpt lat="49.37452" lon="5.84566">
        <ele>369.20001220703</ele>
        <time>2022-09-13T11:10:32.000Z</time>
      </trkpt>
      <trkpt lat="49.3745" lon="5.84569">
        <ele>369.20001220703</ele>
        <time>2022-09-13T11:10:33.000Z</time>
      </trkpt>
      <trkpt lat="49.37448" lon="5.84573">
        <ele>369.20001220703</ele>
        <time>2022-09-13T11:10:34.000Z</time>
      </trkpt>
      <trkpt lat="49.37446" lon="5.84577">
        <ele>369.20001220703</ele>
        <time>2022-09-13T11:10:35.000Z</time>
      </trkpt>
      <trkpt lat="49.37444" lon="5.84582">
        <ele>369</ele>
        <time>2022-09-13T11:10:36.000Z</time>
      </trkpt>
      <trkpt lat="49.37443" lon="5.84586">
        <ele>369</ele>
        <time>2022-09-13T11:10:37.000Z</time>
      </trkpt>
      <trkpt lat="49.37441" lon="5.84592">
        <ele>368.79998779297</ele>
        <time>2022-09-13T11:10:38.000Z</time>
      </trkpt>
      <trkpt lat="49.37443" lon="5.84595">
        <ele>368.60000610352</ele>
        <time>2022-09-13T11:10:39.000Z</time>
      </trkpt>
      <trkpt lat="49.37446" lon="5.846">
        <ele>368.39999389648</ele>
        <time>2022-09-13T11:10:41.000Z</time>
      </trkpt>
      <trkpt lat="49.37448" lon="5.84604">
        <ele>368.39999389648</ele>
        <time>2022-09-13T11:10:42.000Z</time>
      </trkpt>
      <trkpt lat="49.37455" lon="5.84621">
        <ele>367.79998779297</ele>
        <time>2022-09-13T11:10:47.000Z</time>
      </trkpt>
      <trkpt lat="49.37454" lon="5.84626">
        <ele>367.79998779297</ele>
        <time>2022-09-13T11:10:48.000Z</time>
      </trkpt>
      <trkpt lat="49.37465" lon="5.84648">
        <ele>367.20001220703</ele>
        <time>2022-09-13T11:10:51.000Z</time>
      </trkpt>
      <trkpt lat="49.37468" lon="5.84654">
        <ele>366.79998779297</ele>
        <time>2022-09-13T11:10:52.000Z</time>
      </trkpt>
      <trkpt lat="49.37471" lon="5.84659">
        <ele>366.60000610352</ele>
        <time>2022-09-13T11:10:53.000Z</time>
      </trkpt>
      <trkpt lat="49.37479" lon="5.84669">
        <ele>365.79998779297</ele>
        <time>2022-09-13T11:10:55.000Z</time>
      </trkpt>
      <trkpt lat="49.37482" lon="5.84675">
        <ele>365.79998779297</ele>
        <time>2022-09-13T11:10:56.000Z</time>
      </trkpt>
      <trkpt lat="49.37485" lon="5.84682">
        <ele>365.39999389648</ele>
        <time>2022-09-13T11:10:57.000Z</time>
      </trkpt>
      <trkpt lat="49.37487" lon="5.84687">
        <ele>365.20001220703</ele>
        <time>2022-09-13T11:10:58.000Z</time>
      </trkpt>
      <trkpt lat="49.37488" lon="5.84693">
        <ele>364.39999389648</ele>
        <time>2022-09-13T11:10:59.000Z</time>
      </trkpt>
      <trkpt lat="49.37489" lon="5.84697">
        <ele>364</ele>
        <time>2022-09-13T11:11:00.000Z</time>
      </trkpt>
      <trkpt lat="49.3749" lon="5.84702">
        <ele>363</ele>
        <time>2022-09-13T11:11:01.000Z</time>
      </trkpt>
      <trkpt lat="49.37492" lon="5.84707">
        <ele>361.20001220703</ele>
        <time>2022-09-13T11:11:02.000Z</time>
      </trkpt>
      <trkpt lat="49.37495" lon="5.84713">
        <ele>360.39999389648</ele>
        <time>2022-09-13T11:11:03.000Z</time>
      </trkpt>
      <trkpt lat="49.37498" lon="5.84717">
        <ele>359.20001220703</ele>
        <time>2022-09-13T11:11:04.000Z</time>
      </trkpt>
      <trkpt lat="49.37501" lon="5.84726">
        <ele>358.60000610352</ele>
        <time>2022-09-13T11:11:05.000Z</time>
      </trkpt>
      <trkpt lat="49.37503" lon="5.84732">
        <ele>357</ele>
        <time>2022-09-13T11:11:06.000Z</time>
      </trkpt>
      <trkpt lat="49.37506" lon="5.84736">
        <ele>356.20001220703</ele>
        <time>2022-09-13T11:11:07.000Z</time>
      </trkpt>
      <trkpt lat="49.37508" lon="5.84741">
        <ele>354.39999389648</ele>
        <time>2022-09-13T11:11:08.000Z</time>
      </trkpt>
      <trkpt lat="49.37511" lon="5.84749">
        <ele>352.60000610352</ele>
        <time>2022-09-13T11:11:09.000Z</time>
      </trkpt>
      <trkpt lat="49.37516" lon="5.84758">
        <ele>350.20001220703</ele>
        <time>2022-09-13T11:11:11.000Z</time>
      </trkpt>
      <trkpt lat="49.37519" lon="5.84761">
        <ele>349.20001220703</ele>
        <time>2022-09-13T11:11:12.000Z</time>
      </trkpt>
      <trkpt lat="49.37521" lon="5.84768">
        <ele>348</ele>
        <time>2022-09-13T11:11:13.000Z</time>
      </trkpt>
      <trkpt lat="49.37524" lon="5.84774">
        <ele>347</ele>
        <time>2022-09-13T11:11:14.000Z</time>
      </trkpt>
      <trkpt lat="49.37527" lon="5.8478">
        <ele>344.79998779297</ele>
        <time>2022-09-13T11:11:15.000Z</time>
      </trkpt>
      <trkpt lat="49.37529" lon="5.84785">
        <ele>343.79998779297</ele>
        <time>2022-09-13T11:11:16.000Z</time>
      </trkpt>
      <trkpt lat="49.37532" lon="5.84792">
        <ele>342.20001220703</ele>
        <time>2022-09-13T11:11:17.000Z</time>
      </trkpt>
      <trkpt lat="49.37535" lon="5.84798">
        <ele>340.20001220703</ele>
        <time>2022-09-13T11:11:18.000Z</time>
      </trkpt>
      <trkpt lat="49.37538" lon="5.84803">
        <ele>339.39999389648</ele>
        <time>2022-09-13T11:11:19.000Z</time>
      </trkpt>
      <trkpt lat="49.37542" lon="5.84811">
        <ele>337.39999389648</ele>
        <time>2022-09-13T11:11:20.000Z</time>
      </trkpt>
      <trkpt lat="49.37545" lon="5.84819">
        <ele>336.39999389648</ele>
        <time>2022-09-13T11:11:21.000Z</time>
      </trkpt>
      <trkpt lat="49.37548" lon="5.84822">
        <ele>334.79998779297</ele>
        <time>2022-09-13T11:11:22.000Z</time>
      </trkpt>
      <trkpt lat="49.3755" lon="5.84826">
        <ele>334.20001220703</ele>
        <time>2022-09-13T11:11:23.000Z</time>
      </trkpt>
      <trkpt lat="49.37552" lon="5.84828">
        <ele>331.39999389648</ele>
        <time>2022-09-13T11:11:24.000Z</time>
      </trkpt>
      <trkpt lat="49.37557" lon="5.84831">
        <ele>329.60000610352</ele>
        <time>2022-09-13T11:11:25.000Z</time>
      </trkpt>
      <trkpt lat="49.3756" lon="5.84832">
        <ele>328.79998779297</ele>
        <time>2022-09-13T11:11:26.000Z</time>
      </trkpt>
      <trkpt lat="49.37564" lon="5.84833">
        <ele>327.79998779297</ele>
        <time>2022-09-13T11:11:27.000Z</time>
      </trkpt>
      <trkpt lat="49.37568" lon="5.84833">
        <ele>327.60000610352</ele>
        <time>2022-09-13T11:11:28.000Z</time>
      </trkpt>
      <trkpt lat="49.37574" lon="5.84831">
        <ele>326</ele>
        <time>2022-09-13T11:11:29.000Z</time>
      </trkpt>
      <trkpt lat="49.37581" lon="5.84829">
        <ele>325</ele>
        <time>2022-09-13T11:11:30.000Z</time>
      </trkpt>
      <trkpt lat="49.37588" lon="5.84827">
        <ele>324</ele>
        <time>2022-09-13T11:11:31.000Z</time>
      </trkpt>
      <trkpt lat="49.37595" lon="5.84826">
        <ele>322.79998779297</ele>
        <time>2022-09-13T11:11:32.000Z</time>
      </trkpt>
      <trkpt lat="49.37603" lon="5.84825">
        <ele>321</ele>
        <time>2022-09-13T11:11:33.000Z</time>
      </trkpt>
      <trkpt lat="49.37611" lon="5.84823">
        <ele>319.39999389648</ele>
        <time>2022-09-13T11:11:34.000Z</time>
      </trkpt>
      <trkpt lat="49.37623" lon="5.8482">
        <ele>317.79998779297</ele>
        <time>2022-09-13T11:11:36.000Z</time>
      </trkpt>
      <trkpt lat="49.37626" lon="5.84821">
        <ele>317</ele>
        <time>2022-09-13T11:11:37.000Z</time>
      </trkpt>
      <trkpt lat="49.37633" lon="5.84823">
        <ele>314.79998779297</ele>
        <time>2022-09-13T11:11:38.000Z</time>
      </trkpt>
      <trkpt lat="49.37638" lon="5.84825">
        <ele>314</ele>
        <time>2022-09-13T11:11:39.000Z</time>
      </trkpt>
      <trkpt lat="49.37643" lon="5.84827">
        <ele>312</ele>
        <time>2022-09-13T11:11:40.000Z</time>
      </trkpt>
      <trkpt lat="49.37646" lon="5.84827">
        <ele>310.20001220703</ele>
        <time>2022-09-13T11:11:41.000Z</time>
      </trkpt>
      <trkpt lat="49.3765" lon="5.84828">
        <ele>309.60000610352</ele>
        <time>2022-09-13T11:11:42.000Z</time>
      </trkpt>
      <trkpt lat="49.37654" lon="5.84829">
        <ele>308.79998779297</ele>
        <time>2022-09-13T11:11:43.000Z</time>
      </trkpt>
      <trkpt lat="49.37658" lon="5.84833">
        <ele>308.39999389648</ele>
        <time>2022-09-13T11:11:44.000Z</time>
      </trkpt>
      <trkpt lat="49.37659" lon="5.84837">
        <ele>307.60000610352</ele>
        <time>2022-09-13T11:11:45.000Z</time>
      </trkpt>
      <trkpt lat="49.3766" lon="5.8484">
        <ele>307.20001220703</ele>
        <time>2022-09-13T11:11:46.000Z</time>
      </trkpt>
      <trkpt lat="49.37661" lon="5.84843">
        <ele>306.39999389648</ele>
        <time>2022-09-13T11:11:47.000Z</time>
      </trkpt>
      <trkpt lat="49.37661" lon="5.84844">
        <ele>305.79998779297</ele>
        <time>2022-09-13T11:11:48.000Z</time>
      </trkpt>
      <trkpt lat="49.37662" lon="5.84845">
        <ele>305.60000610352</ele>
        <time>2022-09-13T11:11:49.000Z</time>
      </trkpt>
      <trkpt lat="49.37663" lon="5.84849">
        <ele>305.39999389648</ele>
        <time>2022-09-13T11:11:50.000Z</time>
      </trkpt>
      <trkpt lat="49.37669" lon="5.84859">
        <ele>305.20001220703</ele>
        <time>2022-09-13T11:11:53.000Z</time>
      </trkpt>
      <trkpt lat="49.37671" lon="5.8486">
        <ele>305</ele>
        <time>2022-09-13T11:11:54.000Z</time>
      </trkpt>
      <trkpt lat="49.37674" lon="5.84862">
        <ele>305</ele>
        <time>2022-09-13T11:11:55.000Z</time>
      </trkpt>
      <trkpt lat="49.37676" lon="5.84863">
        <ele>305</ele>
        <time>2022-09-13T11:11:56.000Z</time>
      </trkpt>
      <trkpt lat="49.37678" lon="5.84864">
        <ele>304.79998779297</ele>
        <time>2022-09-13T11:11:57.000Z</time>
      </trkpt>
      <trkpt lat="49.37678" lon="5.84864">
        <ele>304.79998779297</ele>
        <time>2022-09-13T11:11:58.000Z</time>
      </trkpt>
      <trkpt lat="49.37678" lon="5.84864">
        <ele>304.60000610352</ele>
        <time>2022-09-13T11:12:00.000Z</time>
      </trkpt>
      <trkpt lat="49.37678" lon="5.84864">
        <ele>304.60000610352</ele>
        <time>2022-09-13T11:12:12.000Z</time>
      </trkpt>
      <trkpt lat="49.37679" lon="5.84869">
        <ele>304.60000610352</ele>
        <time>2022-09-13T11:12:42.000Z</time>
      </trkpt>
      <trkpt lat="49.37678" lon="5.84869">
        <ele>304.60000610352</ele>
        <time>2022-09-13T11:12:45.000Z</time>
      </trkpt>
      <trkpt lat="49.37678" lon="5.8487">
        <ele>304.39999389648</ele>
        <time>2022-09-13T11:13:00.000Z</time>
      </trkpt>
      <trkpt lat="49.37678" lon="5.8487">
        <ele>304.60000610352</ele>
        <time>2022-09-13T11:13:01.000Z</time>
      </trkpt>
      <trkpt lat="49.37678" lon="5.8487">
        <ele>304.60000610352</ele>
        <time>2022-09-13T11:13:08.000Z</time>
      </trkpt>
      <trkpt lat="49.37679" lon="5.84869">
        <ele>304.79998779297</ele>
        <time>2022-09-13T11:13:13.000Z</time>
      </trkpt>
      <trkpt lat="49.3768" lon="5.84868">
        <ele>305</ele>
        <time>2022-09-13T11:13:16.000Z</time>
      </trkpt>
      <trkpt lat="49.37686" lon="5.84869">
        <ele>305.60000610352</ele>
        <time>2022-09-13T11:13:25.000Z</time>
      </trkpt>
      <trkpt lat="49.37688" lon="5.84868">
        <ele>305.39999389648</ele>
        <time>2022-09-13T11:13:26.000Z</time>
      </trkpt>
      <trkpt lat="49.3769" lon="5.84867">
        <ele>305.60000610352</ele>
        <time>2022-09-13T11:13:27.000Z</time>
      </trkpt>
      <trkpt lat="49.37691" lon="5.84866">
        <ele>305.60000610352</ele>
        <time>2022-09-13T11:13:28.000Z</time>
      </trkpt>
      <trkpt lat="49.37692" lon="5.84865">
        <ele>305.60000610352</ele>
        <time>2022-09-13T11:13:29.000Z</time>
      </trkpt>
      <trkpt lat="49.37695" lon="5.84861">
        <ele>305.60000610352</ele>
        <time>2022-09-13T11:13:31.000Z</time>
      </trkpt>
      <trkpt lat="49.37697" lon="5.84859">
        <ele>305.79998779297</ele>
        <time>2022-09-13T11:13:33.000Z</time>
      </trkpt>
      <trkpt lat="49.37698" lon="5.84858">
        <ele>305.79998779297</ele>
        <time>2022-09-13T11:13:34.000Z</time>
      </trkpt>
      <trkpt lat="49.37698" lon="5.84858">
        <ele>306.39999389648</ele>
        <time>2022-09-13T11:13:35.000Z</time>
      </trkpt>
      <trkpt lat="49.37698" lon="5.84858">
        <ele>306.60000610352</ele>
        <time>2022-09-13T11:13:36.000Z</time>
      </trkpt>
      <trkpt lat="49.37698" lon="5.84858">
        <ele>307.60000610352</ele>
        <time>2022-09-13T11:13:40.000Z</time>
      </trkpt>
      <trkpt lat="49.377" lon="5.84857">
        <ele>307.79998779297</ele>
        <time>2022-09-13T11:13:42.000Z</time>
      </trkpt>
      <trkpt lat="49.37702" lon="5.84857">
        <ele>307.79998779297</ele>
        <time>2022-09-13T11:13:43.000Z</time>
      </trkpt>
      <trkpt lat="49.37705" lon="5.84857">
        <ele>308</ele>
        <time>2022-09-13T11:13:44.000Z</time>
      </trkpt>
      <trkpt lat="49.37711" lon="5.84853">
        <ele>308.20001220703</ele>
        <time>2022-09-13T11:13:46.000Z</time>
      </trkpt>
      <trkpt lat="49.37712" lon="5.84852">
        <ele>308.60000610352</ele>
        <time>2022-09-13T11:13:47.000Z</time>
      </trkpt>
      <trkpt lat="49.37714" lon="5.84851">
        <ele>308.79998779297</ele>
        <time>2022-09-13T11:13:48.000Z</time>
      </trkpt>
      <trkpt lat="49.37717" lon="5.84849">
        <ele>309</ele>
        <time>2022-09-13T11:13:49.000Z</time>
      </trkpt>
      <trkpt lat="49.3772" lon="5.84849">
        <ele>309.39999389648</ele>
        <time>2022-09-13T11:13:50.000Z</time>
      </trkpt>
      <trkpt lat="49.37721" lon="5.8485">
        <ele>310</ele>
        <time>2022-09-13T11:13:51.000Z</time>
      </trkpt>
      <trkpt lat="49.37723" lon="5.84851">
        <ele>310.60000610352</ele>
        <time>2022-09-13T11:13:52.000Z</time>
      </trkpt>
      <trkpt lat="49.37725" lon="5.84852">
        <ele>310.79998779297</ele>
        <time>2022-09-13T11:13:53.000Z</time>
      </trkpt>
      <trkpt lat="49.37725" lon="5.84852">
        <ele>311.39999389648</ele>
        <time>2022-09-13T11:13:54.000Z</time>
      </trkpt>
      <trkpt lat="49.37725" lon="5.84852">
        <ele>312.60000610352</ele>
        <time>2022-09-13T11:13:57.000Z</time>
      </trkpt>
      <trkpt lat="49.37726" lon="5.84848">
        <ele>313.60000610352</ele>
        <time>2022-09-13T11:14:01.000Z</time>
      </trkpt>
      <trkpt lat="49.37727" lon="5.84845">
        <ele>313.60000610352</ele>
        <time>2022-09-13T11:14:02.000Z</time>
      </trkpt>
      <trkpt lat="49.37729" lon="5.84841">
        <ele>313.79998779297</ele>
        <time>2022-09-13T11:14:03.000Z</time>
      </trkpt>
      <trkpt lat="49.37731" lon="5.84838">
        <ele>313.79998779297</ele>
        <time>2022-09-13T11:14:04.000Z</time>
      </trkpt>
      <trkpt lat="49.37733" lon="5.84837">
        <ele>313.79998779297</ele>
        <time>2022-09-13T11:14:05.000Z</time>
      </trkpt>
      <trkpt lat="49.37735" lon="5.84836">
        <ele>313.79998779297</ele>
        <time>2022-09-13T11:14:06.000Z</time>
      </trkpt>
      <trkpt lat="49.37739" lon="5.84835">
        <ele>314</ele>
        <time>2022-09-13T11:14:07.000Z</time>
      </trkpt>
      <trkpt lat="49.37741" lon="5.84834">
        <ele>314.20001220703</ele>
        <time>2022-09-13T11:14:08.000Z</time>
      </trkpt>
      <trkpt lat="49.37743" lon="5.84835">
        <ele>314.39999389648</ele>
        <time>2022-09-13T11:14:09.000Z</time>
      </trkpt>
      <trkpt lat="49.37744" lon="5.84836">
        <ele>315</ele>
        <time>2022-09-13T11:14:10.000Z</time>
      </trkpt>
      <trkpt lat="49.37746" lon="5.84837">
        <ele>315.20001220703</ele>
        <time>2022-09-13T11:14:11.000Z</time>
      </trkpt>
      <trkpt lat="49.37747" lon="5.84837">
        <ele>315.60000610352</ele>
        <time>2022-09-13T11:14:12.000Z</time>
      </trkpt>
      <trkpt lat="49.37749" lon="5.84836">
        <ele>315.79998779297</ele>
        <time>2022-09-13T11:14:13.000Z</time>
      </trkpt>
      <trkpt lat="49.37751" lon="5.84836">
        <ele>316</ele>
        <time>2022-09-13T11:14:14.000Z</time>
      </trkpt>
      <trkpt lat="49.37752" lon="5.84835">
        <ele>316.20001220703</ele>
        <time>2022-09-13T11:14:15.000Z</time>
      </trkpt>
      <trkpt lat="49.37753" lon="5.84834">
        <ele>316.39999389648</ele>
        <time>2022-09-13T11:14:16.000Z</time>
      </trkpt>
      <trkpt lat="49.37754" lon="5.84833">
        <ele>317.39999389648</ele>
        <time>2022-09-13T11:14:17.000Z</time>
      </trkpt>
      <trkpt lat="49.37756" lon="5.84832">
        <ele>317.79998779297</ele>
        <time>2022-09-13T11:14:18.000Z</time>
      </trkpt>
      <trkpt lat="49.37758" lon="5.84831">
        <ele>318.39999389648</ele>
        <time>2022-09-13T11:14:19.000Z</time>
      </trkpt>
      <trkpt lat="49.37759" lon="5.8483">
        <ele>318.60000610352</ele>
        <time>2022-09-13T11:14:20.000Z</time>
      </trkpt>
      <trkpt lat="49.37761" lon="5.84829">
        <ele>319.20001220703</ele>
        <time>2022-09-13T11:14:21.000Z</time>
      </trkpt>
      <trkpt lat="49.37762" lon="5.84827">
        <ele>319.39999389648</ele>
        <time>2022-09-13T11:14:22.000Z</time>
      </trkpt>
      <trkpt lat="49.37764" lon="5.84826">
        <ele>319.39999389648</ele>
        <time>2022-09-13T11:14:23.000Z</time>
      </trkpt>
      <trkpt lat="49.37767" lon="5.84824">
        <ele>319.60000610352</ele>
        <time>2022-09-13T11:14:24.000Z</time>
      </trkpt>
      <trkpt lat="49.37769" lon="5.84822">
        <ele>319.60000610352</ele>
        <time>2022-09-13T11:14:25.000Z</time>
      </trkpt>
      <trkpt lat="49.37773" lon="5.84819">
        <ele>319.79998779297</ele>
        <time>2022-09-13T11:14:26.000Z</time>
      </trkpt>
      <trkpt lat="49.37776" lon="5.84816">
        <ele>319.79998779297</ele>
        <time>2022-09-13T11:14:27.000Z</time>
      </trkpt>
      <trkpt lat="49.3778" lon="5.84812">
        <ele>319.79998779297</ele>
        <time>2022-09-13T11:14:28.000Z</time>
      </trkpt>
      <trkpt lat="49.37785" lon="5.84807">
        <ele>319.79998779297</ele>
        <time>2022-09-13T11:14:29.000Z</time>
      </trkpt>
      <trkpt lat="49.37791" lon="5.84803">
        <ele>319.79998779297</ele>
        <time>2022-09-13T11:14:30.000Z</time>
      </trkpt>
      <trkpt lat="49.37797" lon="5.84798">
        <ele>319.60000610352</ele>
        <time>2022-09-13T11:14:31.000Z</time>
      </trkpt>
      <trkpt lat="49.37802" lon="5.84794">
        <ele>319</ele>
        <time>2022-09-13T11:14:32.000Z</time>
      </trkpt>
      <trkpt lat="49.37809" lon="5.8479">
        <ele>318</ele>
        <time>2022-09-13T11:14:33.000Z</time>
      </trkpt>
      <trkpt lat="49.37816" lon="5.84786">
        <ele>317.79998779297</ele>
        <time>2022-09-13T11:14:34.000Z</time>
      </trkpt>
      <trkpt lat="49.37822" lon="5.84782">
        <ele>317.20001220703</ele>
        <time>2022-09-13T11:14:35.000Z</time>
      </trkpt>
      <trkpt lat="49.37828" lon="5.84779">
        <ele>316.79998779297</ele>
        <time>2022-09-13T11:14:36.000Z</time>
      </trkpt>
      <trkpt lat="49.37833" lon="5.84776">
        <ele>316.20001220703</ele>
        <time>2022-09-13T11:14:37.000Z</time>
      </trkpt>
      <trkpt lat="49.37839" lon="5.84773">
        <ele>315.60000610352</ele>
        <time>2022-09-13T11:14:38.000Z</time>
      </trkpt>
      <trkpt lat="49.37852" lon="5.84766">
        <ele>314.60000610352</ele>
        <time>2022-09-13T11:14:40.000Z</time>
      </trkpt>
      <trkpt lat="49.37865" lon="5.84756">
        <ele>313.60000610352</ele>
        <time>2022-09-13T11:14:42.000Z</time>
      </trkpt>
      <trkpt lat="49.3787" lon="5.84753">
        <ele>313.39999389648</ele>
        <time>2022-09-13T11:14:43.000Z</time>
      </trkpt>
      <trkpt lat="49.37877" lon="5.84748">
        <ele>313</ele>
        <time>2022-09-13T11:14:44.000Z</time>
      </trkpt>
      <trkpt lat="49.37883" lon="5.84746">
        <ele>312.60000610352</ele>
        <time>2022-09-13T11:14:45.000Z</time>
      </trkpt>
      <trkpt lat="49.37889" lon="5.84744">
        <ele>312.60000610352</ele>
        <time>2022-09-13T11:14:46.000Z</time>
      </trkpt>
      <trkpt lat="49.37894" lon="5.84742">
        <ele>311.79998779297</ele>
        <time>2022-09-13T11:14:47.000Z</time>
      </trkpt>
      <trkpt lat="49.37907" lon="5.84736">
        <ele>310.60000610352</ele>
        <time>2022-09-13T11:14:49.000Z</time>
      </trkpt>
      <trkpt lat="49.37912" lon="5.84732">
        <ele>310.20001220703</ele>
        <time>2022-09-13T11:14:50.000Z</time>
      </trkpt>
      <trkpt lat="49.37917" lon="5.84729">
        <ele>309.60000610352</ele>
        <time>2022-09-13T11:14:51.000Z</time>
      </trkpt>
      <trkpt lat="49.37923" lon="5.84726">
        <ele>309.20001220703</ele>
        <time>2022-09-13T11:14:52.000Z</time>
      </trkpt>
      <trkpt lat="49.37937" lon="5.84721">
        <ele>308</ele>
        <time>2022-09-13T11:14:54.000Z</time>
      </trkpt>
      <trkpt lat="49.37964" lon="5.84708">
        <ele>307.39999389648</ele>
        <time>2022-09-13T11:14:58.000Z</time>
      </trkpt>
      <trkpt lat="49.37971" lon="5.84706">
        <ele>307.39999389648</ele>
        <time>2022-09-13T11:14:59.000Z</time>
      </trkpt>
      <trkpt lat="49.37977" lon="5.84705">
        <ele>306.39999389648</ele>
        <time>2022-09-13T11:15:00.000Z</time>
      </trkpt>
      <trkpt lat="49.37983" lon="5.84703">
        <ele>305.79998779297</ele>
        <time>2022-09-13T11:15:01.000Z</time>
      </trkpt>
      <trkpt lat="49.37987" lon="5.84703">
        <ele>305.79998779297</ele>
        <time>2022-09-13T11:15:02.000Z</time>
      </trkpt>
      <trkpt lat="49.37992" lon="5.84701">
        <ele>305.60000610352</ele>
        <time>2022-09-13T11:15:03.000Z</time>
      </trkpt>
      <trkpt lat="49.37997" lon="5.84699">
        <ele>305.39999389648</ele>
        <time>2022-09-13T11:15:04.000Z</time>
      </trkpt>
      <trkpt lat="49.38013" lon="5.84689">
        <ele>304.39999389648</ele>
        <time>2022-09-13T11:15:07.000Z</time>
      </trkpt>
      <trkpt lat="49.38016" lon="5.84688">
        <ele>304.20001220703</ele>
        <time>2022-09-13T11:15:08.000Z</time>
      </trkpt>
      <trkpt lat="49.3802" lon="5.84687">
        <ele>303.79998779297</ele>
        <time>2022-09-13T11:15:09.000Z</time>
      </trkpt>
      <trkpt lat="49.38024" lon="5.84685">
        <ele>303.39999389648</ele>
        <time>2022-09-13T11:15:10.000Z</time>
      </trkpt>
      <trkpt lat="49.38028" lon="5.84683">
        <ele>303.20001220703</ele>
        <time>2022-09-13T11:15:11.000Z</time>
      </trkpt>
      <trkpt lat="49.38035" lon="5.84681">
        <ele>302.79998779297</ele>
        <time>2022-09-13T11:15:13.000Z</time>
      </trkpt>
      <trkpt lat="49.38038" lon="5.8468">
        <ele>302.39999389648</ele>
        <time>2022-09-13T11:15:14.000Z</time>
      </trkpt>
      <trkpt lat="49.38041" lon="5.84678">
        <ele>302.20001220703</ele>
        <time>2022-09-13T11:15:15.000Z</time>
      </trkpt>
      <trkpt lat="49.38045" lon="5.84677">
        <ele>302</ele>
        <time>2022-09-13T11:15:16.000Z</time>
      </trkpt>
      <trkpt lat="49.38053" lon="5.84677">
        <ele>301.79998779297</ele>
        <time>2022-09-13T11:15:18.000Z</time>
      </trkpt>
      <trkpt lat="49.38056" lon="5.84678">
        <ele>301.79998779297</ele>
        <time>2022-09-13T11:15:19.000Z</time>
      </trkpt>
      <trkpt lat="49.38059" lon="5.84678">
        <ele>301.60000610352</ele>
        <time>2022-09-13T11:15:20.000Z</time>
      </trkpt>
      <trkpt lat="49.38063" lon="5.84678">
        <ele>301.60000610352</ele>
        <time>2022-09-13T11:15:21.000Z</time>
      </trkpt>
      <trkpt lat="49.38066" lon="5.84678">
        <ele>301.39999389648</ele>
        <time>2022-09-13T11:15:22.000Z</time>
      </trkpt>
      <trkpt lat="49.3807" lon="5.84676">
        <ele>301.39999389648</ele>
        <time>2022-09-13T11:15:23.000Z</time>
      </trkpt>
      <trkpt lat="49.38073" lon="5.84674">
        <ele>301.20001220703</ele>
        <time>2022-09-13T11:15:24.000Z</time>
      </trkpt>
      <trkpt lat="49.38079" lon="5.8467">
        <ele>301</ele>
        <time>2022-09-13T11:15:26.000Z</time>
      </trkpt>
      <trkpt lat="49.38083" lon="5.84668">
        <ele>300.79998779297</ele>
        <time>2022-09-13T11:15:27.000Z</time>
      </trkpt>
      <trkpt lat="49.38087" lon="5.84665">
        <ele>300.79998779297</ele>
        <time>2022-09-13T11:15:28.000Z</time>
      </trkpt>
      <trkpt lat="49.38106" lon="5.84656">
        <ele>300</ele>
        <time>2022-09-13T11:15:32.000Z</time>
      </trkpt>
      <trkpt lat="49.38112" lon="5.84652">
        <ele>300</ele>
        <time>2022-09-13T11:15:33.000Z</time>
      </trkpt>
      <trkpt lat="49.38116" lon="5.84648">
        <ele>299.79998779297</ele>
        <time>2022-09-13T11:15:34.000Z</time>
      </trkpt>
      <trkpt lat="49.3812" lon="5.84646">
        <ele>299.79998779297</ele>
        <time>2022-09-13T11:15:35.000Z</time>
      </trkpt>
      <trkpt lat="49.38125" lon="5.84645">
        <ele>299.79998779297</ele>
        <time>2022-09-13T11:15:36.000Z</time>
      </trkpt>
      <trkpt lat="49.38129" lon="5.84644">
        <ele>299.60000610352</ele>
        <time>2022-09-13T11:15:37.000Z</time>
      </trkpt>
      <trkpt lat="49.38134" lon="5.84643">
        <ele>299.60000610352</ele>
        <time>2022-09-13T11:15:38.000Z</time>
      </trkpt>
      <trkpt lat="49.38146" lon="5.84641">
        <ele>299</ele>
        <time>2022-09-13T11:15:41.000Z</time>
      </trkpt>
      <trkpt lat="49.38149" lon="5.84641">
        <ele>299</ele>
        <time>2022-09-13T11:15:42.000Z</time>
      </trkpt>
      <trkpt lat="49.38157" lon="5.84639">
        <ele>299</ele>
        <time>2022-09-13T11:15:44.000Z</time>
      </trkpt>
      <trkpt lat="49.38162" lon="5.84641">
        <ele>299</ele>
        <time>2022-09-13T11:15:46.000Z</time>
      </trkpt>
      <trkpt lat="49.38167" lon="5.84642">
        <ele>299</ele>
        <time>2022-09-13T11:15:47.000Z</time>
      </trkpt>
      <trkpt lat="49.38181" lon="5.84636">
        <ele>298.60000610352</ele>
        <time>2022-09-13T11:15:50.000Z</time>
      </trkpt>
      <trkpt lat="49.38186" lon="5.84635">
        <ele>298.60000610352</ele>
        <time>2022-09-13T11:15:51.000Z</time>
      </trkpt>
      <trkpt lat="49.38202" lon="5.84635">
        <ele>298.39999389648</ele>
        <time>2022-09-13T11:15:54.000Z</time>
      </trkpt>
      <trkpt lat="49.38206" lon="5.84634">
        <ele>298.39999389648</ele>
        <time>2022-09-13T11:15:55.000Z</time>
      </trkpt>
      <trkpt lat="49.38211" lon="5.84633">
        <ele>298.20001220703</ele>
        <time>2022-09-13T11:15:56.000Z</time>
      </trkpt>
      <trkpt lat="49.38243" lon="5.84631">
        <ele>298</ele>
        <time>2022-09-13T11:16:03.000Z</time>
      </trkpt>
      <trkpt lat="49.38245" lon="5.84631">
        <ele>297.79998779297</ele>
        <time>2022-09-13T11:16:04.000Z</time>
      </trkpt>
      <trkpt lat="49.38246" lon="5.84632">
        <ele>297.79998779297</ele>
        <time>2022-09-13T11:16:05.000Z</time>
      </trkpt>
      <trkpt lat="49.38248" lon="5.84633">
        <ele>297.79998779297</ele>
        <time>2022-09-13T11:16:06.000Z</time>
      </trkpt>
      <trkpt lat="49.38252" lon="5.84629">
        <ele>297.79998779297</ele>
        <time>2022-09-13T11:16:07.000Z</time>
      </trkpt>
      <trkpt lat="49.38256" lon="5.84626">
        <ele>297.79998779297</ele>
        <time>2022-09-13T11:16:08.000Z</time>
      </trkpt>
      <trkpt lat="49.38261" lon="5.84623">
        <ele>297.79998779297</ele>
        <time>2022-09-13T11:16:09.000Z</time>
      </trkpt>
      <trkpt lat="49.38267" lon="5.84619">
        <ele>297.79998779297</ele>
        <time>2022-09-13T11:16:10.000Z</time>
      </trkpt>
      <trkpt lat="49.38271" lon="5.84615">
        <ele>297.79998779297</ele>
        <time>2022-09-13T11:16:12.000Z</time>
      </trkpt>
      <trkpt lat="49.38273" lon="5.84613">
        <ele>297.79998779297</ele>
        <time>2022-09-13T11:16:13.000Z</time>
      </trkpt>
      <trkpt lat="49.38277" lon="5.84609">
        <ele>297.79998779297</ele>
        <time>2022-09-13T11:16:14.000Z</time>
      </trkpt>
      <trkpt lat="49.38287" lon="5.84606">
        <ele>298</ele>
        <time>2022-09-13T11:16:16.000Z</time>
      </trkpt>
      <trkpt lat="49.38293" lon="5.84604">
        <ele>298</ele>
        <time>2022-09-13T11:16:17.000Z</time>
      </trkpt>
      <trkpt lat="49.38301" lon="5.84595">
        <ele>298.20001220703</ele>
        <time>2022-09-13T11:16:19.000Z</time>
      </trkpt>
      <trkpt lat="49.38304" lon="5.84592">
        <ele>298.20001220703</ele>
        <time>2022-09-13T11:16:20.000Z</time>
      </trkpt>
      <trkpt lat="49.38307" lon="5.8459">
        <ele>298</ele>
        <time>2022-09-13T11:16:21.000Z</time>
      </trkpt>
      <trkpt lat="49.38309" lon="5.84588">
        <ele>298</ele>
        <time>2022-09-13T11:16:22.000Z</time>
      </trkpt>
      <trkpt lat="49.38316" lon="5.84579">
        <ele>298.20001220703</ele>
        <time>2022-09-13T11:16:25.000Z</time>
      </trkpt>
      <trkpt lat="49.38318" lon="5.84576">
        <ele>298.20001220703</ele>
        <time>2022-09-13T11:16:26.000Z</time>
      </trkpt>
      <trkpt lat="49.38319" lon="5.84572">
        <ele>298.20001220703</ele>
        <time>2022-09-13T11:16:27.000Z</time>
      </trkpt>
      <trkpt lat="49.3832" lon="5.8457">
        <ele>298.20001220703</ele>
        <time>2022-09-13T11:16:28.000Z</time>
      </trkpt>
      <trkpt lat="49.38321" lon="5.84567">
        <ele>298.20001220703</ele>
        <time>2022-09-13T11:16:29.000Z</time>
      </trkpt>
      <trkpt lat="49.38334" lon="5.84549">
        <ele>298.20001220703</ele>
        <time>2022-09-13T11:16:32.000Z</time>
      </trkpt>
      <trkpt lat="49.3834" lon="5.84539">
        <ele>298.39999389648</ele>
        <time>2022-09-13T11:16:35.000Z</time>
      </trkpt>
      <trkpt lat="49.38341" lon="5.84537">
        <ele>298.39999389648</ele>
        <time>2022-09-13T11:16:36.000Z</time>
      </trkpt>
      <trkpt lat="49.38342" lon="5.84533">
        <ele>298.39999389648</ele>
        <time>2022-09-13T11:16:37.000Z</time>
      </trkpt>
      <trkpt lat="49.38344" lon="5.84528">
        <ele>298.60000610352</ele>
        <time>2022-09-13T11:16:38.000Z</time>
      </trkpt>
      <trkpt lat="49.38344" lon="5.84524">
        <ele>298.60000610352</ele>
        <time>2022-09-13T11:16:39.000Z</time>
      </trkpt>
      <trkpt lat="49.38344" lon="5.84519">
        <ele>298.60000610352</ele>
        <time>2022-09-13T11:16:40.000Z</time>
      </trkpt>
      <trkpt lat="49.38346" lon="5.84511">
        <ele>298.60000610352</ele>
        <time>2022-09-13T11:16:41.000Z</time>
      </trkpt>
      <trkpt lat="49.38356" lon="5.84493">
        <ele>298.39999389648</ele>
        <time>2022-09-13T11:16:43.000Z</time>
      </trkpt>
      <trkpt lat="49.38358" lon="5.84485">
        <ele>297.60000610352</ele>
        <time>2022-09-13T11:16:44.000Z</time>
      </trkpt>
      <trkpt lat="49.38359" lon="5.84479">
        <ele>297.60000610352</ele>
        <time>2022-09-13T11:16:45.000Z</time>
      </trkpt>
      <trkpt lat="49.38361" lon="5.84471">
        <ele>297.20001220703</ele>
        <time>2022-09-13T11:16:46.000Z</time>
      </trkpt>
      <trkpt lat="49.38362" lon="5.84463">
        <ele>297.20001220703</ele>
        <time>2022-09-13T11:16:47.000Z</time>
      </trkpt>
      <trkpt lat="49.38365" lon="5.84446">
        <ele>296.39999389648</ele>
        <time>2022-09-13T11:16:49.000Z</time>
      </trkpt>
      <trkpt lat="49.38367" lon="5.84437">
        <ele>296.39999389648</ele>
        <time>2022-09-13T11:16:50.000Z</time>
      </trkpt>
      <trkpt lat="49.3837" lon="5.84428">
        <ele>296</ele>
        <time>2022-09-13T11:16:51.000Z</time>
      </trkpt>
      <trkpt lat="49.38374" lon="5.8441">
        <ele>295.39999389648</ele>
        <time>2022-09-13T11:16:53.000Z</time>
      </trkpt>
      <trkpt lat="49.38375" lon="5.84401">
        <ele>295.20001220703</ele>
        <time>2022-09-13T11:16:54.000Z</time>
      </trkpt>
      <trkpt lat="49.38378" lon="5.84393">
        <ele>295</ele>
        <time>2022-09-13T11:16:55.000Z</time>
      </trkpt>
      <trkpt lat="49.38381" lon="5.84379">
        <ele>294.20001220703</ele>
        <time>2022-09-13T11:16:57.000Z</time>
      </trkpt>
      <trkpt lat="49.38385" lon="5.84365">
        <ele>293.79998779297</ele>
        <time>2022-09-13T11:16:59.000Z</time>
      </trkpt>
      <trkpt lat="49.3839" lon="5.84357">
        <ele>293.60000610352</ele>
        <time>2022-09-13T11:17:00.000Z</time>
      </trkpt>
      <trkpt lat="49.38392" lon="5.8435">
        <ele>293.60000610352</ele>
        <time>2022-09-13T11:17:01.000Z</time>
      </trkpt>
      <trkpt lat="49.38393" lon="5.84343">
        <ele>293.39999389648</ele>
        <time>2022-09-13T11:17:02.000Z</time>
      </trkpt>
      <trkpt lat="49.38393" lon="5.84336">
        <ele>293.39999389648</ele>
        <time>2022-09-13T11:17:03.000Z</time>
      </trkpt>
      <trkpt lat="49.38395" lon="5.84329">
        <ele>293.39999389648</ele>
        <time>2022-09-13T11:17:04.000Z</time>
      </trkpt>
      <trkpt lat="49.38395" lon="5.84323">
        <ele>293.20001220703</ele>
        <time>2022-09-13T11:17:05.000Z</time>
      </trkpt>
      <trkpt lat="49.38396" lon="5.84315">
        <ele>293</ele>
        <time>2022-09-13T11:17:06.000Z</time>
      </trkpt>
      <trkpt lat="49.38396" lon="5.84308">
        <ele>292.79998779297</ele>
        <time>2022-09-13T11:17:07.000Z</time>
      </trkpt>
      <trkpt lat="49.38397" lon="5.84296">
        <ele>292.79998779297</ele>
        <time>2022-09-13T11:17:09.000Z</time>
      </trkpt>
      <trkpt lat="49.38399" lon="5.84285">
        <ele>292.79998779297</ele>
        <time>2022-09-13T11:17:11.000Z</time>
      </trkpt>
      <trkpt lat="49.38401" lon="5.8428">
        <ele>292.79998779297</ele>
        <time>2022-09-13T11:17:12.000Z</time>
      </trkpt>
      <trkpt lat="49.38402" lon="5.84276">
        <ele>292.79998779297</ele>
        <time>2022-09-13T11:17:13.000Z</time>
      </trkpt>
      <trkpt lat="49.38403" lon="5.84271">
        <ele>292.79998779297</ele>
        <time>2022-09-13T11:17:14.000Z</time>
      </trkpt>
      <trkpt lat="49.38405" lon="5.84265">
        <ele>292.79998779297</ele>
        <time>2022-09-13T11:17:15.000Z</time>
      </trkpt>
      <trkpt lat="49.38409" lon="5.84255">
        <ele>292.79998779297</ele>
        <time>2022-09-13T11:17:17.000Z</time>
      </trkpt>
      <trkpt lat="49.38413" lon="5.84245">
        <ele>292.60000610352</ele>
        <time>2022-09-13T11:17:19.000Z</time>
      </trkpt>
      <trkpt lat="49.38414" lon="5.84241">
        <ele>292.60000610352</ele>
        <time>2022-09-13T11:17:20.000Z</time>
      </trkpt>
      <trkpt lat="49.38415" lon="5.84236">
        <ele>292.60000610352</ele>
        <time>2022-09-13T11:17:21.000Z</time>
      </trkpt>
      <trkpt lat="49.38416" lon="5.84231">
        <ele>292.60000610352</ele>
        <time>2022-09-13T11:17:22.000Z</time>
      </trkpt>
      <trkpt lat="49.38422" lon="5.84225">
        <ele>292.60000610352</ele>
        <time>2022-09-13T11:17:23.000Z</time>
      </trkpt>
      <trkpt lat="49.38428" lon="5.84218">
        <ele>292.60000610352</ele>
        <time>2022-09-13T11:17:24.000Z</time>
      </trkpt>
      <trkpt lat="49.38432" lon="5.84213">
        <ele>292.60000610352</ele>
        <time>2022-09-13T11:17:25.000Z</time>
      </trkpt>
      <trkpt lat="49.38442" lon="5.84196">
        <ele>292.60000610352</ele>
        <time>2022-09-13T11:17:28.000Z</time>
      </trkpt>
      <trkpt lat="49.38446" lon="5.84191">
        <ele>292.60000610352</ele>
        <time>2022-09-13T11:17:29.000Z</time>
      </trkpt>
      <trkpt lat="49.38456" lon="5.8418">
        <ele>292.60000610352</ele>
        <time>2022-09-13T11:17:31.000Z</time>
      </trkpt>
      <trkpt lat="49.3846" lon="5.84175">
        <ele>292.60000610352</ele>
        <time>2022-09-13T11:17:32.000Z</time>
      </trkpt>
      <trkpt lat="49.38464" lon="5.84171">
        <ele>292.60000610352</ele>
        <time>2022-09-13T11:17:33.000Z</time>
      </trkpt>
      <trkpt lat="49.38479" lon="5.84153">
        <ele>292.39999389648</ele>
        <time>2022-09-13T11:17:37.000Z</time>
      </trkpt>
      <trkpt lat="49.38505" lon="5.84133">
        <ele>292.20001220703</ele>
        <time>2022-09-13T11:17:43.000Z</time>
      </trkpt>
      <trkpt lat="49.38509" lon="5.8413">
        <ele>291.79998779297</ele>
        <time>2022-09-13T11:17:44.000Z</time>
      </trkpt>
      <trkpt lat="49.38518" lon="5.84123">
        <ele>291.60000610352</ele>
        <time>2022-09-13T11:17:46.000Z</time>
      </trkpt>
      <trkpt lat="49.38523" lon="5.8412">
        <ele>291.60000610352</ele>
        <time>2022-09-13T11:17:47.000Z</time>
      </trkpt>
      <trkpt lat="49.38527" lon="5.84117">
        <ele>291.60000610352</ele>
        <time>2022-09-13T11:17:48.000Z</time>
      </trkpt>
      <trkpt lat="49.38531" lon="5.84113">
        <ele>291.60000610352</ele>
        <time>2022-09-13T11:17:49.000Z</time>
      </trkpt>
      <trkpt lat="49.38535" lon="5.84111">
        <ele>291.39999389648</ele>
        <time>2022-09-13T11:17:50.000Z</time>
      </trkpt>
      <trkpt lat="49.38539" lon="5.84109">
        <ele>291.39999389648</ele>
        <time>2022-09-13T11:17:51.000Z</time>
      </trkpt>
      <trkpt lat="49.38545" lon="5.84104">
        <ele>291.39999389648</ele>
        <time>2022-09-13T11:17:53.000Z</time>
      </trkpt>
      <trkpt lat="49.38547" lon="5.84102">
        <ele>291.39999389648</ele>
        <time>2022-09-13T11:17:54.000Z</time>
      </trkpt>
      <trkpt lat="49.38574" lon="5.84086">
        <ele>291.20001220703</ele>
        <time>2022-09-13T11:18:00.000Z</time>
      </trkpt>
      <trkpt lat="49.38578" lon="5.84084">
        <ele>291.20001220703</ele>
        <time>2022-09-13T11:18:01.000Z</time>
      </trkpt>
      <trkpt lat="49.38584" lon="5.84079">
        <ele>291.20001220703</ele>
        <time>2022-09-13T11:18:03.000Z</time>
      </trkpt>
      <trkpt lat="49.38587" lon="5.84075">
        <ele>291.39999389648</ele>
        <time>2022-09-13T11:18:04.000Z</time>
      </trkpt>
      <trkpt lat="49.3859" lon="5.84071">
        <ele>291.39999389648</ele>
        <time>2022-09-13T11:18:05.000Z</time>
      </trkpt>
      <trkpt lat="49.38593" lon="5.84066">
        <ele>291.39999389648</ele>
        <time>2022-09-13T11:18:06.000Z</time>
      </trkpt>
      <trkpt lat="49.38596" lon="5.84062">
        <ele>291.20001220703</ele>
        <time>2022-09-13T11:18:07.000Z</time>
      </trkpt>
      <trkpt lat="49.38603" lon="5.84051">
        <ele>291</ele>
        <time>2022-09-13T11:18:09.000Z</time>
      </trkpt>
      <trkpt lat="49.38613" lon="5.84034">
        <ele>291</ele>
        <time>2022-09-13T11:18:12.000Z</time>
      </trkpt>
      <trkpt lat="49.3862" lon="5.84023">
        <ele>290.60000610352</ele>
        <time>2022-09-13T11:18:14.000Z</time>
      </trkpt>
      <trkpt lat="49.38624" lon="5.84017">
        <ele>290.60000610352</ele>
        <time>2022-09-13T11:18:15.000Z</time>
      </trkpt>
      <trkpt lat="49.38629" lon="5.84009">
        <ele>290.60000610352</ele>
        <time>2022-09-13T11:18:17.000Z</time>
      </trkpt>
      <trkpt lat="49.38632" lon="5.84005">
        <ele>290.20001220703</ele>
        <time>2022-09-13T11:18:18.000Z</time>
      </trkpt>
      <trkpt lat="49.38635" lon="5.84002">
        <ele>290.20001220703</ele>
        <time>2022-09-13T11:18:19.000Z</time>
      </trkpt>
      <trkpt lat="49.38637" lon="5.83997">
        <ele>290</ele>
        <time>2022-09-13T11:18:20.000Z</time>
      </trkpt>
      <trkpt lat="49.38639" lon="5.83988">
        <ele>290</ele>
        <time>2022-09-13T11:18:22.000Z</time>
      </trkpt>
      <trkpt lat="49.38642" lon="5.83982">
        <ele>289.79998779297</ele>
        <time>2022-09-13T11:18:23.000Z</time>
      </trkpt>
      <trkpt lat="49.38644" lon="5.83976">
        <ele>289.79998779297</ele>
        <time>2022-09-13T11:18:24.000Z</time>
      </trkpt>
      <trkpt lat="49.38649" lon="5.83958">
        <ele>289.60000610352</ele>
        <time>2022-09-13T11:18:27.000Z</time>
      </trkpt>
      <trkpt lat="49.38652" lon="5.83942">
        <ele>289.60000610352</ele>
        <time>2022-09-13T11:18:30.000Z</time>
      </trkpt>
      <trkpt lat="49.38658" lon="5.83913">
        <ele>289.39999389648</ele>
        <time>2022-09-13T11:18:35.000Z</time>
      </trkpt>
      <trkpt lat="49.38668" lon="5.83887">
        <ele>289.39999389648</ele>
        <time>2022-09-13T11:18:39.000Z</time>
      </trkpt>
      <trkpt lat="49.38669" lon="5.83881">
        <ele>289.39999389648</ele>
        <time>2022-09-13T11:18:40.000Z</time>
      </trkpt>
      <trkpt lat="49.38669" lon="5.83874">
        <ele>289.39999389648</ele>
        <time>2022-09-13T11:18:41.000Z</time>
      </trkpt>
      <trkpt lat="49.38669" lon="5.83869">
        <ele>289.20001220703</ele>
        <time>2022-09-13T11:18:42.000Z</time>
      </trkpt>
      <trkpt lat="49.3867" lon="5.83864">
        <ele>289.20001220703</ele>
        <time>2022-09-13T11:18:43.000Z</time>
      </trkpt>
      <trkpt lat="49.38675" lon="5.83848">
        <ele>289.39999389648</ele>
        <time>2022-09-13T11:18:46.000Z</time>
      </trkpt>
      <trkpt lat="49.38676" lon="5.83844">
        <ele>289.39999389648</ele>
        <time>2022-09-13T11:18:47.000Z</time>
      </trkpt>
      <trkpt lat="49.38678" lon="5.8384">
        <ele>289.20001220703</ele>
        <time>2022-09-13T11:18:48.000Z</time>
      </trkpt>
      <trkpt lat="49.38681" lon="5.83837">
        <ele>289.39999389648</ele>
        <time>2022-09-13T11:18:49.000Z</time>
      </trkpt>
      <trkpt lat="49.38683" lon="5.83832">
        <ele>289.60000610352</ele>
        <time>2022-09-13T11:18:50.000Z</time>
      </trkpt>
      <trkpt lat="49.38684" lon="5.83827">
        <ele>289.60000610352</ele>
        <time>2022-09-13T11:18:51.000Z</time>
      </trkpt>
      <trkpt lat="49.38685" lon="5.83823">
        <ele>289.79998779297</ele>
        <time>2022-09-13T11:18:52.000Z</time>
      </trkpt>
      <trkpt lat="49.38686" lon="5.83818">
        <ele>290</ele>
        <time>2022-09-13T11:18:53.000Z</time>
      </trkpt>
      <trkpt lat="49.38688" lon="5.83814">
        <ele>290.20001220703</ele>
        <time>2022-09-13T11:18:54.000Z</time>
      </trkpt>
      <trkpt lat="49.38691" lon="5.83805">
        <ele>290.39999389648</ele>
        <time>2022-09-13T11:18:56.000Z</time>
      </trkpt>
      <trkpt lat="49.38692" lon="5.838">
        <ele>290.79998779297</ele>
        <time>2022-09-13T11:18:57.000Z</time>
      </trkpt>
      <trkpt lat="49.38691" lon="5.83796">
        <ele>290.79998779297</ele>
        <time>2022-09-13T11:18:58.000Z</time>
      </trkpt>
      <trkpt lat="49.38692" lon="5.83791">
        <ele>291</ele>
        <time>2022-09-13T11:18:59.000Z</time>
      </trkpt>
      <trkpt lat="49.38692" lon="5.83788">
        <ele>291</ele>
        <time>2022-09-13T11:19:00.000Z</time>
      </trkpt>
      <trkpt lat="49.3869" lon="5.83784">
        <ele>291</ele>
        <time>2022-09-13T11:19:01.000Z</time>
      </trkpt>
      <trkpt lat="49.38687" lon="5.83782">
        <ele>291</ele>
        <time>2022-09-13T11:19:02.000Z</time>
      </trkpt>
      <trkpt lat="49.38679" lon="5.83775">
        <ele>291</ele>
        <time>2022-09-13T11:19:04.000Z</time>
      </trkpt>
      <trkpt lat="49.38675" lon="5.83771">
        <ele>290.79998779297</ele>
        <time>2022-09-13T11:19:05.000Z</time>
      </trkpt>
      <trkpt lat="49.38673" lon="5.83769">
        <ele>290.79998779297</ele>
        <time>2022-09-13T11:19:06.000Z</time>
      </trkpt>
      <trkpt lat="49.38672" lon="5.83767">
        <ele>290.79998779297</ele>
        <time>2022-09-13T11:19:07.000Z</time>
      </trkpt>
      <trkpt lat="49.3867" lon="5.83765">
        <ele>290.79998779297</ele>
        <time>2022-09-13T11:19:08.000Z</time>
      </trkpt>
      <trkpt lat="49.3867" lon="5.83763">
        <ele>290.79998779297</ele>
        <time>2022-09-13T11:19:09.000Z</time>
      </trkpt>
      <trkpt lat="49.38666" lon="5.83759">
        <ele>290.60000610352</ele>
        <time>2022-09-13T11:19:10.000Z</time>
      </trkpt>
      <trkpt lat="49.38665" lon="5.83756">
        <ele>290.60000610352</ele>
        <time>2022-09-13T11:19:11.000Z</time>
      </trkpt>
      <trkpt lat="49.38658" lon="5.83747">
        <ele>290.39999389648</ele>
        <time>2022-09-13T11:19:14.000Z</time>
      </trkpt>
      <trkpt lat="49.38658" lon="5.83743">
        <ele>290.39999389648</ele>
        <time>2022-09-13T11:19:15.000Z</time>
      </trkpt>
      <trkpt lat="49.38658" lon="5.83739">
        <ele>290.39999389648</ele>
        <time>2022-09-13T11:19:16.000Z</time>
      </trkpt>
      <trkpt lat="49.38661" lon="5.83722">
        <ele>290.60000610352</ele>
        <time>2022-09-13T11:19:20.000Z</time>
      </trkpt>
      <trkpt lat="49.38664" lon="5.83717">
        <ele>291</ele>
        <time>2022-09-13T11:19:21.000Z</time>
      </trkpt>
      <trkpt lat="49.38666" lon="5.83713">
        <ele>291.60000610352</ele>
        <time>2022-09-13T11:19:22.000Z</time>
      </trkpt>
      <trkpt lat="49.38667" lon="5.83708">
        <ele>291.79998779297</ele>
        <time>2022-09-13T11:19:23.000Z</time>
      </trkpt>
      <trkpt lat="49.38668" lon="5.83702">
        <ele>292</ele>
        <time>2022-09-13T11:19:25.000Z</time>
      </trkpt>
      <trkpt lat="49.38669" lon="5.837">
        <ele>292</ele>
        <time>2022-09-13T11:19:26.000Z</time>
      </trkpt>
      <trkpt lat="49.3867" lon="5.83698">
        <ele>292.20001220703</ele>
        <time>2022-09-13T11:19:27.000Z</time>
      </trkpt>
      <trkpt lat="49.38671" lon="5.83694">
        <ele>292.39999389648</ele>
        <time>2022-09-13T11:19:28.000Z</time>
      </trkpt>
      <trkpt lat="49.38676" lon="5.83689">
        <ele>292.60000610352</ele>
        <time>2022-09-13T11:19:29.000Z</time>
      </trkpt>
      <trkpt lat="49.38679" lon="5.83685">
        <ele>292.79998779297</ele>
        <time>2022-09-13T11:19:30.000Z</time>
      </trkpt>
      <trkpt lat="49.38682" lon="5.83681">
        <ele>293</ele>
        <time>2022-09-13T11:19:31.000Z</time>
      </trkpt>
      <trkpt lat="49.38685" lon="5.83676">
        <ele>293.20001220703</ele>
        <time>2022-09-13T11:19:32.000Z</time>
      </trkpt>
      <trkpt lat="49.38689" lon="5.83668">
        <ele>293.79998779297</ele>
        <time>2022-09-13T11:19:34.000Z</time>
      </trkpt>
      <trkpt lat="49.3869" lon="5.83663">
        <ele>294</ele>
        <time>2022-09-13T11:19:35.000Z</time>
      </trkpt>
      <trkpt lat="49.3869" lon="5.83659">
        <ele>294.39999389648</ele>
        <time>2022-09-13T11:19:36.000Z</time>
      </trkpt>
      <trkpt lat="49.38692" lon="5.83655">
        <ele>294.39999389648</ele>
        <time>2022-09-13T11:19:37.000Z</time>
      </trkpt>
      <trkpt lat="49.38695" lon="5.8365">
        <ele>295</ele>
        <time>2022-09-13T11:19:38.000Z</time>
      </trkpt>
      <trkpt lat="49.38697" lon="5.83645">
        <ele>295.39999389648</ele>
        <time>2022-09-13T11:19:39.000Z</time>
      </trkpt>
      <trkpt lat="49.387" lon="5.8364">
        <ele>295.60000610352</ele>
        <time>2022-09-13T11:19:40.000Z</time>
      </trkpt>
      <trkpt lat="49.38704" lon="5.83635">
        <ele>296.20001220703</ele>
        <time>2022-09-13T11:19:41.000Z</time>
      </trkpt>
      <trkpt lat="49.38706" lon="5.83631">
        <ele>296.20001220703</ele>
        <time>2022-09-13T11:19:42.000Z</time>
      </trkpt>
      <trkpt lat="49.38707" lon="5.83628">
        <ele>296.39999389648</ele>
        <time>2022-09-13T11:19:43.000Z</time>
      </trkpt>
      <trkpt lat="49.3871" lon="5.83624">
        <ele>296.60000610352</ele>
        <time>2022-09-13T11:19:44.000Z</time>
      </trkpt>
      <trkpt lat="49.38713" lon="5.83622">
        <ele>297</ele>
        <time>2022-09-13T11:19:45.000Z</time>
      </trkpt>
      <trkpt lat="49.38715" lon="5.83619">
        <ele>297.60000610352</ele>
        <time>2022-09-13T11:19:46.000Z</time>
      </trkpt>
      <trkpt lat="49.38717" lon="5.83616">
        <ele>297.79998779297</ele>
        <time>2022-09-13T11:19:47.000Z</time>
      </trkpt>
      <trkpt lat="49.38718" lon="5.83613">
        <ele>298.39999389648</ele>
        <time>2022-09-13T11:19:48.000Z</time>
      </trkpt>
      <trkpt lat="49.38721" lon="5.83609">
        <ele>298.60000610352</ele>
        <time>2022-09-13T11:19:49.000Z</time>
      </trkpt>
      <trkpt lat="49.38723" lon="5.83604">
        <ele>299</ele>
        <time>2022-09-13T11:19:50.000Z</time>
      </trkpt>
      <trkpt lat="49.38724" lon="5.836">
        <ele>299.20001220703</ele>
        <time>2022-09-13T11:19:51.000Z</time>
      </trkpt>
      <trkpt lat="49.38727" lon="5.83594">
        <ele>299.39999389648</ele>
        <time>2022-09-13T11:19:52.000Z</time>
      </trkpt>
      <trkpt lat="49.38726" lon="5.8359">
        <ele>299.60000610352</ele>
        <time>2022-09-13T11:19:53.000Z</time>
      </trkpt>
      <trkpt lat="49.38724" lon="5.83585">
        <ele>300.20001220703</ele>
        <time>2022-09-13T11:19:54.000Z</time>
      </trkpt>
      <trkpt lat="49.38723" lon="5.83581">
        <ele>300.60000610352</ele>
        <time>2022-09-13T11:19:55.000Z</time>
      </trkpt>
      <trkpt lat="49.38722" lon="5.83577">
        <ele>300.79998779297</ele>
        <time>2022-09-13T11:19:56.000Z</time>
      </trkpt>
      <trkpt lat="49.3872" lon="5.83574">
        <ele>301.20001220703</ele>
        <time>2022-09-13T11:19:57.000Z</time>
      </trkpt>
      <trkpt lat="49.38718" lon="5.83571">
        <ele>301.39999389648</ele>
        <time>2022-09-13T11:19:58.000Z</time>
      </trkpt>
      <trkpt lat="49.38715" lon="5.83567">
        <ele>302</ele>
        <time>2022-09-13T11:19:59.000Z</time>
      </trkpt>
      <trkpt lat="49.38712" lon="5.83564">
        <ele>302.39999389648</ele>
        <time>2022-09-13T11:20:00.000Z</time>
      </trkpt>
      <trkpt lat="49.3871" lon="5.83561">
        <ele>302.79998779297</ele>
        <time>2022-09-13T11:20:01.000Z</time>
      </trkpt>
      <trkpt lat="49.38708" lon="5.83559">
        <ele>303.20001220703</ele>
        <time>2022-09-13T11:20:02.000Z</time>
      </trkpt>
      <trkpt lat="49.38705" lon="5.83557">
        <ele>303.39999389648</ele>
        <time>2022-09-13T11:20:03.000Z</time>
      </trkpt>
      <trkpt lat="49.38704" lon="5.83554">
        <ele>303.39999389648</ele>
        <time>2022-09-13T11:20:04.000Z</time>
      </trkpt>
      <trkpt lat="49.38702" lon="5.83552">
        <ele>303.60000610352</ele>
        <time>2022-09-13T11:20:05.000Z</time>
      </trkpt>
      <trkpt lat="49.387" lon="5.8355">
        <ele>303.79998779297</ele>
        <time>2022-09-13T11:20:06.000Z</time>
      </trkpt>
      <trkpt lat="49.38699" lon="5.83548">
        <ele>303.79998779297</ele>
        <time>2022-09-13T11:20:07.000Z</time>
      </trkpt>
      <trkpt lat="49.38698" lon="5.83547">
        <ele>304</ele>
        <time>2022-09-13T11:20:08.000Z</time>
      </trkpt>
      <trkpt lat="49.38697" lon="5.83545">
        <ele>304.20001220703</ele>
        <time>2022-09-13T11:20:09.000Z</time>
      </trkpt>
      <trkpt lat="49.38696" lon="5.83545">
        <ele>304.20001220703</ele>
        <time>2022-09-13T11:20:10.000Z</time>
      </trkpt>
      <trkpt lat="49.38695" lon="5.83544">
        <ele>304.20001220703</ele>
        <time>2022-09-13T11:20:11.000Z</time>
      </trkpt>
      <trkpt lat="49.38695" lon="5.83544">
        <ele>304.20001220703</ele>
        <time>2022-09-13T11:20:12.000Z</time>
      </trkpt>
      <trkpt lat="49.38695" lon="5.83543">
        <ele>304.20001220703</ele>
        <time>2022-09-13T11:20:13.000Z</time>
      </trkpt>
      <trkpt lat="49.38695" lon="5.83543">
        <ele>304.20001220703</ele>
        <time>2022-09-13T11:20:14.000Z</time>
      </trkpt>
      <trkpt lat="49.38696" lon="5.83542">
        <ele>304.20001220703</ele>
        <time>2022-09-13T11:20:15.000Z</time>
      </trkpt>
      <trkpt lat="49.38697" lon="5.83541">
        <ele>304.20001220703</ele>
        <time>2022-09-13T11:20:16.000Z</time>
      </trkpt>
      <trkpt lat="49.38699" lon="5.83538">
        <ele>304</ele>
        <time>2022-09-13T11:20:17.000Z</time>
      </trkpt>
      <trkpt lat="49.387" lon="5.83536">
        <ele>304</ele>
        <time>2022-09-13T11:20:18.000Z</time>
      </trkpt>
      <trkpt lat="49.38702" lon="5.83533">
        <ele>303.79998779297</ele>
        <time>2022-09-13T11:20:19.000Z</time>
      </trkpt>
      <trkpt lat="49.38703" lon="5.8353">
        <ele>303.79998779297</ele>
        <time>2022-09-13T11:20:20.000Z</time>
      </trkpt>
      <trkpt lat="49.38705" lon="5.83527">
        <ele>303.60000610352</ele>
        <time>2022-09-13T11:20:21.000Z</time>
      </trkpt>
      <trkpt lat="49.38708" lon="5.83522">
        <ele>303.39999389648</ele>
        <time>2022-09-13T11:20:22.000Z</time>
      </trkpt>
      <trkpt lat="49.38712" lon="5.83517">
        <ele>303</ele>
        <time>2022-09-13T11:20:23.000Z</time>
      </trkpt>
      <trkpt lat="49.38715" lon="5.83511">
        <ele>302.60000610352</ele>
        <time>2022-09-13T11:20:24.000Z</time>
      </trkpt>
      <trkpt lat="49.38717" lon="5.83507">
        <ele>302</ele>
        <time>2022-09-13T11:20:25.000Z</time>
      </trkpt>
      <trkpt lat="49.3872" lon="5.83503">
        <ele>301.79998779297</ele>
        <time>2022-09-13T11:20:26.000Z</time>
      </trkpt>
      <trkpt lat="49.38722" lon="5.83498">
        <ele>301</ele>
        <time>2022-09-13T11:20:27.000Z</time>
      </trkpt>
      <trkpt lat="49.38724" lon="5.83494">
        <ele>300.39999389648</ele>
        <time>2022-09-13T11:20:28.000Z</time>
      </trkpt>
      <trkpt lat="49.38725" lon="5.8349">
        <ele>299</ele>
        <time>2022-09-13T11:20:29.000Z</time>
      </trkpt>
      <trkpt lat="49.38727" lon="5.83486">
        <ele>298.39999389648</ele>
        <time>2022-09-13T11:20:30.000Z</time>
      </trkpt>
      <trkpt lat="49.3873" lon="5.83481">
        <ele>296.60000610352</ele>
        <time>2022-09-13T11:20:31.000Z</time>
      </trkpt>
      <trkpt lat="49.38735" lon="5.83472">
        <ele>295.20001220703</ele>
        <time>2022-09-13T11:20:33.000Z</time>
      </trkpt>
      <trkpt lat="49.38735" lon="5.83469">
        <ele>294</ele>
        <time>2022-09-13T11:20:34.000Z</time>
      </trkpt>
      <trkpt lat="49.38735" lon="5.83467">
        <ele>293.39999389648</ele>
        <time>2022-09-13T11:20:35.000Z</time>
      </trkpt>
      <trkpt lat="49.38734" lon="5.83464">
        <ele>291.60000610352</ele>
        <time>2022-09-13T11:20:36.000Z</time>
      </trkpt>
      <trkpt lat="49.38734" lon="5.83462">
        <ele>291.20001220703</ele>
        <time>2022-09-13T11:20:37.000Z</time>
      </trkpt>
      <trkpt lat="49.38733" lon="5.83458">
        <ele>290.60000610352</ele>
        <time>2022-09-13T11:20:38.000Z</time>
      </trkpt>
      <trkpt lat="49.38735" lon="5.83451">
        <ele>289.79998779297</ele>
        <time>2022-09-13T11:20:40.000Z</time>
      </trkpt>
      <trkpt lat="49.38736" lon="5.8345">
        <ele>289.60000610352</ele>
        <time>2022-09-13T11:20:41.000Z</time>
      </trkpt>
      <trkpt lat="49.38737" lon="5.83446">
        <ele>289.39999389648</ele>
        <time>2022-09-13T11:20:42.000Z</time>
      </trkpt>
      <trkpt lat="49.38741" lon="5.83441">
        <ele>289.20001220703</ele>
        <time>2022-09-13T11:20:43.000Z</time>
      </trkpt>
      <trkpt lat="49.38742" lon="5.83438">
        <ele>289</ele>
        <time>2022-09-13T11:20:44.000Z</time>
      </trkpt>
      <trkpt lat="49.38742" lon="5.83437">
        <ele>288.60000610352</ele>
        <time>2022-09-13T11:20:45.000Z</time>
      </trkpt>
      <trkpt lat="49.38742" lon="5.83437">
        <ele>288.20001220703</ele>
        <time>2022-09-13T11:20:47.000Z</time>
      </trkpt>
      <trkpt lat="49.38747" lon="5.83431">
        <ele>287.39999389648</ele>
        <time>2022-09-13T11:20:49.000Z</time>
      </trkpt>
      <trkpt lat="49.3875" lon="5.83429">
        <ele>286.79998779297</ele>
        <time>2022-09-13T11:20:50.000Z</time>
      </trkpt>
      <trkpt lat="49.38755" lon="5.83425">
        <ele>286</ele>
        <time>2022-09-13T11:20:54.000Z</time>
      </trkpt>
      <trkpt lat="49.38758" lon="5.83421">
        <ele>285.79998779297</ele>
        <time>2022-09-13T11:20:55.000Z</time>
      </trkpt>
      <trkpt lat="49.38761" lon="5.83416">
        <ele>285.79998779297</ele>
        <time>2022-09-13T11:20:56.000Z</time>
      </trkpt>
      <trkpt lat="49.38761" lon="5.83413">
        <ele>285.79998779297</ele>
        <time>2022-09-13T11:20:57.000Z</time>
      </trkpt>
      <trkpt lat="49.38763" lon="5.83409">
        <ele>285.79998779297</ele>
        <time>2022-09-13T11:20:58.000Z</time>
      </trkpt>
      <trkpt lat="49.38766" lon="5.83404">
        <ele>285.79998779297</ele>
        <time>2022-09-13T11:20:59.000Z</time>
      </trkpt>
      <trkpt lat="49.38769" lon="5.83402">
        <ele>285.79998779297</ele>
        <time>2022-09-13T11:21:00.000Z</time>
      </trkpt>
      <trkpt lat="49.38772" lon="5.83398">
        <ele>285.79998779297</ele>
        <time>2022-09-13T11:21:01.000Z</time>
      </trkpt>
      <trkpt lat="49.38774" lon="5.83396">
        <ele>285.79998779297</ele>
        <time>2022-09-13T11:21:02.000Z</time>
      </trkpt>
      <trkpt lat="49.38777" lon="5.83392">
        <ele>285.60000610352</ele>
        <time>2022-09-13T11:21:04.000Z</time>
      </trkpt>
      <trkpt lat="49.38785" lon="5.8339">
        <ele>285.60000610352</ele>
        <time>2022-09-13T11:21:07.000Z</time>
      </trkpt>
      <trkpt lat="49.38786" lon="5.83391">
        <ele>285.60000610352</ele>
        <time>2022-09-13T11:21:08.000Z</time>
      </trkpt>
      <trkpt lat="49.38787" lon="5.83391">
        <ele>285.60000610352</ele>
        <time>2022-09-13T11:21:09.000Z</time>
      </trkpt>
      <trkpt lat="49.38788" lon="5.83392">
        <ele>285.60000610352</ele>
        <time>2022-09-13T11:21:10.000Z</time>
      </trkpt>
      <trkpt lat="49.3879" lon="5.83393">
        <ele>285.60000610352</ele>
        <time>2022-09-13T11:21:11.000Z</time>
      </trkpt>
      <trkpt lat="49.38794" lon="5.83392">
        <ele>285.60000610352</ele>
        <time>2022-09-13T11:21:12.000Z</time>
      </trkpt>
      <trkpt lat="49.38797" lon="5.83391">
        <ele>285.60000610352</ele>
        <time>2022-09-13T11:21:13.000Z</time>
      </trkpt>
      <trkpt lat="49.38802" lon="5.83392">
        <ele>285.60000610352</ele>
        <time>2022-09-13T11:21:14.000Z</time>
      </trkpt>
      <trkpt lat="49.38805" lon="5.83395">
        <ele>285.79998779297</ele>
        <time>2022-09-13T11:21:15.000Z</time>
      </trkpt>
      <trkpt lat="49.38806" lon="5.83398">
        <ele>285.79998779297</ele>
        <time>2022-09-13T11:21:16.000Z</time>
      </trkpt>
      <trkpt lat="49.38808" lon="5.83402">
        <ele>286</ele>
        <time>2022-09-13T11:21:17.000Z</time>
      </trkpt>
      <trkpt lat="49.3881" lon="5.83406">
        <ele>286</ele>
        <time>2022-09-13T11:21:18.000Z</time>
      </trkpt>
      <trkpt lat="49.38812" lon="5.8341">
        <ele>286</ele>
        <time>2022-09-13T11:21:19.000Z</time>
      </trkpt>
      <trkpt lat="49.38814" lon="5.83414">
        <ele>286</ele>
        <time>2022-09-13T11:21:20.000Z</time>
      </trkpt>
      <trkpt lat="49.38818" lon="5.83429">
        <ele>286.20001220703</ele>
        <time>2022-09-13T11:21:24.000Z</time>
      </trkpt>
      <trkpt lat="49.38818" lon="5.83432">
        <ele>286.20001220703</ele>
        <time>2022-09-13T11:21:25.000Z</time>
      </trkpt>
      <trkpt lat="49.38816" lon="5.83435">
        <ele>286.20001220703</ele>
        <time>2022-09-13T11:21:26.000Z</time>
      </trkpt>
      <trkpt lat="49.38811" lon="5.8345">
        <ele>286.20001220703</ele>
        <time>2022-09-13T11:21:31.000Z</time>
      </trkpt>
      <trkpt lat="49.38809" lon="5.83454">
        <ele>286.20001220703</ele>
        <time>2022-09-13T11:21:32.000Z</time>
      </trkpt>
      <trkpt lat="49.38807" lon="5.83457">
        <ele>286.20001220703</ele>
        <time>2022-09-13T11:21:33.000Z</time>
      </trkpt>
      <trkpt lat="49.38806" lon="5.83461">
        <ele>286</ele>
        <time>2022-09-13T11:21:34.000Z</time>
      </trkpt>
      <trkpt lat="49.38804" lon="5.83465">
        <ele>286</ele>
        <time>2022-09-13T11:21:35.000Z</time>
      </trkpt>
      <trkpt lat="49.38804" lon="5.83468">
        <ele>286</ele>
        <time>2022-09-13T11:21:36.000Z</time>
      </trkpt>
      <trkpt lat="49.38803" lon="5.83471">
        <ele>285.79998779297</ele>
        <time>2022-09-13T11:21:37.000Z</time>
      </trkpt>
      <trkpt lat="49.38804" lon="5.83473">
        <ele>285.79998779297</ele>
        <time>2022-09-13T11:21:38.000Z</time>
      </trkpt>
      <trkpt lat="49.38805" lon="5.83477">
        <ele>285.60000610352</ele>
        <time>2022-09-13T11:21:39.000Z</time>
      </trkpt>
      <trkpt lat="49.38809" lon="5.83484">
        <ele>285.60000610352</ele>
        <time>2022-09-13T11:21:41.000Z</time>
      </trkpt>
      <trkpt lat="49.38812" lon="5.83485">
        <ele>285.60000610352</ele>
        <time>2022-09-13T11:21:42.000Z</time>
      </trkpt>
      <trkpt lat="49.38814" lon="5.83485">
        <ele>285.60000610352</ele>
        <time>2022-09-13T11:21:43.000Z</time>
      </trkpt>
      <trkpt lat="49.38816" lon="5.83485">
        <ele>285.60000610352</ele>
        <time>2022-09-13T11:21:44.000Z</time>
      </trkpt>
      <trkpt lat="49.38818" lon="5.83485">
        <ele>285.60000610352</ele>
        <time>2022-09-13T11:21:45.000Z</time>
      </trkpt>
      <trkpt lat="49.3882" lon="5.83485">
        <ele>285.60000610352</ele>
        <time>2022-09-13T11:21:46.000Z</time>
      </trkpt>
      <trkpt lat="49.38824" lon="5.83483">
        <ele>285.60000610352</ele>
        <time>2022-09-13T11:21:48.000Z</time>
      </trkpt>
      <trkpt lat="49.38826" lon="5.8348">
        <ele>285.60000610352</ele>
        <time>2022-09-13T11:21:49.000Z</time>
      </trkpt>
      <trkpt lat="49.38828" lon="5.83477">
        <ele>285.60000610352</ele>
        <time>2022-09-13T11:21:50.000Z</time>
      </trkpt>
      <trkpt lat="49.3883" lon="5.83476">
        <ele>285.60000610352</ele>
        <time>2022-09-13T11:21:51.000Z</time>
      </trkpt>
      <trkpt lat="49.38832" lon="5.83474">
        <ele>285.79998779297</ele>
        <time>2022-09-13T11:21:52.000Z</time>
      </trkpt>
      <trkpt lat="49.38839" lon="5.83461">
        <ele>286.20001220703</ele>
        <time>2022-09-13T11:21:56.000Z</time>
      </trkpt>
      <trkpt lat="49.38841" lon="5.83454">
        <ele>286.79998779297</ele>
        <time>2022-09-13T11:21:59.000Z</time>
      </trkpt>
      <trkpt lat="49.38841" lon="5.83451">
        <ele>287</ele>
        <time>2022-09-13T11:22:00.000Z</time>
      </trkpt>
      <trkpt lat="49.38842" lon="5.83449">
        <ele>287.39999389648</ele>
        <time>2022-09-13T11:22:01.000Z</time>
      </trkpt>
      <trkpt lat="49.38843" lon="5.83447">
        <ele>287.60000610352</ele>
        <time>2022-09-13T11:22:02.000Z</time>
      </trkpt>
      <trkpt lat="49.38843" lon="5.83444">
        <ele>288</ele>
        <time>2022-09-13T11:22:03.000Z</time>
      </trkpt>
      <trkpt lat="49.38843" lon="5.83442">
        <ele>289</ele>
        <time>2022-09-13T11:22:04.000Z</time>
      </trkpt>
      <trkpt lat="49.38842" lon="5.83439">
        <ele>289.60000610352</ele>
        <time>2022-09-13T11:22:05.000Z</time>
      </trkpt>
      <trkpt lat="49.38842" lon="5.83435">
        <ele>290.39999389648</ele>
        <time>2022-09-13T11:22:06.000Z</time>
      </trkpt>
      <trkpt lat="49.38843" lon="5.83433">
        <ele>290.79998779297</ele>
        <time>2022-09-13T11:22:07.000Z</time>
      </trkpt>
      <trkpt lat="49.38844" lon="5.83431">
        <ele>291.20001220703</ele>
        <time>2022-09-13T11:22:08.000Z</time>
      </trkpt>
      <trkpt lat="49.38846" lon="5.83428">
        <ele>291.39999389648</ele>
        <time>2022-09-13T11:22:09.000Z</time>
      </trkpt>
      <trkpt lat="49.38847" lon="5.83426">
        <ele>292.20001220703</ele>
        <time>2022-09-13T11:22:10.000Z</time>
      </trkpt>
      <trkpt lat="49.38849" lon="5.83424">
        <ele>293.20001220703</ele>
        <time>2022-09-13T11:22:11.000Z</time>
      </trkpt>
      <trkpt lat="49.38849" lon="5.83422">
        <ele>293.60000610352</ele>
        <time>2022-09-13T11:22:12.000Z</time>
      </trkpt>
      <trkpt lat="49.3885" lon="5.8342">
        <ele>294</ele>
        <time>2022-09-13T11:22:13.000Z</time>
      </trkpt>
      <trkpt lat="49.38852" lon="5.83419">
        <ele>294.39999389648</ele>
        <time>2022-09-13T11:22:14.000Z</time>
      </trkpt>
      <trkpt lat="49.38853" lon="5.83419">
        <ele>294.79998779297</ele>
        <time>2022-09-13T11:22:15.000Z</time>
      </trkpt>
      <trkpt lat="49.38854" lon="5.83419">
        <ele>295.20001220703</ele>
        <time>2022-09-13T11:22:16.000Z</time>
      </trkpt>
      <trkpt lat="49.38855" lon="5.8342">
        <ele>296</ele>
        <time>2022-09-13T11:22:17.000Z</time>
      </trkpt>
      <trkpt lat="49.38857" lon="5.83422">
        <ele>296.79998779297</ele>
        <time>2022-09-13T11:22:18.000Z</time>
      </trkpt>
      <trkpt lat="49.38858" lon="5.83422">
        <ele>297.20001220703</ele>
        <time>2022-09-13T11:22:19.000Z</time>
      </trkpt>
      <trkpt lat="49.3886" lon="5.83421">
        <ele>297.60000610352</ele>
        <time>2022-09-13T11:22:20.000Z</time>
      </trkpt>
      <trkpt lat="49.38862" lon="5.83422">
        <ele>298</ele>
        <time>2022-09-13T11:22:21.000Z</time>
      </trkpt>
      <trkpt lat="49.38865" lon="5.83423">
        <ele>298.60000610352</ele>
        <time>2022-09-13T11:22:22.000Z</time>
      </trkpt>
      <trkpt lat="49.38866" lon="5.83424">
        <ele>298.79998779297</ele>
        <time>2022-09-13T11:22:23.000Z</time>
      </trkpt>
      <trkpt lat="49.38868" lon="5.83425">
        <ele>299.20001220703</ele>
        <time>2022-09-13T11:22:24.000Z</time>
      </trkpt>
      <trkpt lat="49.3887" lon="5.83425">
        <ele>299.79998779297</ele>
        <time>2022-09-13T11:22:25.000Z</time>
      </trkpt>
      <trkpt lat="49.3887" lon="5.83426">
        <ele>300.39999389648</ele>
        <time>2022-09-13T11:22:26.000Z</time>
      </trkpt>
      <trkpt lat="49.38872" lon="5.83427">
        <ele>301</ele>
        <time>2022-09-13T11:22:27.000Z</time>
      </trkpt>
      <trkpt lat="49.38873" lon="5.83426">
        <ele>301.39999389648</ele>
        <time>2022-09-13T11:22:28.000Z</time>
      </trkpt>
      <trkpt lat="49.38874" lon="5.83426">
        <ele>302</ele>
        <time>2022-09-13T11:22:29.000Z</time>
      </trkpt>
      <trkpt lat="49.38876" lon="5.83427">
        <ele>302.20001220703</ele>
        <time>2022-09-13T11:22:30.000Z</time>
      </trkpt>
      <trkpt lat="49.38877" lon="5.83427">
        <ele>303</ele>
        <time>2022-09-13T11:22:31.000Z</time>
      </trkpt>
      <trkpt lat="49.38878" lon="5.83429">
        <ele>303.39999389648</ele>
        <time>2022-09-13T11:22:32.000Z</time>
      </trkpt>
      <trkpt lat="49.3888" lon="5.8343">
        <ele>303.79998779297</ele>
        <time>2022-09-13T11:22:33.000Z</time>
      </trkpt>
      <trkpt lat="49.38883" lon="5.83432">
        <ele>304.20001220703</ele>
        <time>2022-09-13T11:22:34.000Z</time>
      </trkpt>
      <trkpt lat="49.38885" lon="5.83433">
        <ele>304.39999389648</ele>
        <time>2022-09-13T11:22:35.000Z</time>
      </trkpt>
      <trkpt lat="49.38886" lon="5.83433">
        <ele>305.20001220703</ele>
        <time>2022-09-13T11:22:36.000Z</time>
      </trkpt>
      <trkpt lat="49.38888" lon="5.83435">
        <ele>305.79998779297</ele>
        <time>2022-09-13T11:22:37.000Z</time>
      </trkpt>
      <trkpt lat="49.3889" lon="5.83436">
        <ele>306.60000610352</ele>
        <time>2022-09-13T11:22:38.000Z</time>
      </trkpt>
      <trkpt lat="49.38892" lon="5.83437">
        <ele>306.79998779297</ele>
        <time>2022-09-13T11:22:39.000Z</time>
      </trkpt>
      <trkpt lat="49.38894" lon="5.83436">
        <ele>307.20001220703</ele>
        <time>2022-09-13T11:22:40.000Z</time>
      </trkpt>
      <trkpt lat="49.38896" lon="5.83435">
        <ele>307.79998779297</ele>
        <time>2022-09-13T11:22:41.000Z</time>
      </trkpt>
      <trkpt lat="49.38898" lon="5.83433">
        <ele>308.20001220703</ele>
        <time>2022-09-13T11:22:42.000Z</time>
      </trkpt>
      <trkpt lat="49.389" lon="5.83433">
        <ele>308.79998779297</ele>
        <time>2022-09-13T11:22:43.000Z</time>
      </trkpt>
      <trkpt lat="49.38903" lon="5.83434">
        <ele>309</ele>
        <time>2022-09-13T11:22:44.000Z</time>
      </trkpt>
      <trkpt lat="49.38904" lon="5.83435">
        <ele>309.60000610352</ele>
        <time>2022-09-13T11:22:45.000Z</time>
      </trkpt>
      <trkpt lat="49.38905" lon="5.83436">
        <ele>310</ele>
        <time>2022-09-13T11:22:46.000Z</time>
      </trkpt>
      <trkpt lat="49.38907" lon="5.83437">
        <ele>310.39999389648</ele>
        <time>2022-09-13T11:22:47.000Z</time>
      </trkpt>
      <trkpt lat="49.38909" lon="5.83439">
        <ele>310.60000610352</ele>
        <time>2022-09-13T11:22:48.000Z</time>
      </trkpt>
      <trkpt lat="49.38911" lon="5.8344">
        <ele>311.20001220703</ele>
        <time>2022-09-13T11:22:49.000Z</time>
      </trkpt>
      <trkpt lat="49.38914" lon="5.83442">
        <ele>311.39999389648</ele>
        <time>2022-09-13T11:22:50.000Z</time>
      </trkpt>
      <trkpt lat="49.38915" lon="5.83443">
        <ele>311.39999389648</ele>
        <time>2022-09-13T11:22:51.000Z</time>
      </trkpt>
      <trkpt lat="49.38917" lon="5.83445">
        <ele>312</ele>
        <time>2022-09-13T11:22:52.000Z</time>
      </trkpt>
      <trkpt lat="49.38919" lon="5.83446">
        <ele>312</ele>
        <time>2022-09-13T11:22:53.000Z</time>
      </trkpt>
      <trkpt lat="49.3892" lon="5.83448">
        <ele>312.39999389648</ele>
        <time>2022-09-13T11:22:54.000Z</time>
      </trkpt>
      <trkpt lat="49.38921" lon="5.83448">
        <ele>312.60000610352</ele>
        <time>2022-09-13T11:22:55.000Z</time>
      </trkpt>
      <trkpt lat="49.38922" lon="5.83449">
        <ele>313</ele>
        <time>2022-09-13T11:22:56.000Z</time>
      </trkpt>
      <trkpt lat="49.38924" lon="5.83448">
        <ele>313.20001220703</ele>
        <time>2022-09-13T11:22:57.000Z</time>
      </trkpt>
      <trkpt lat="49.38926" lon="5.83449">
        <ele>313.39999389648</ele>
        <time>2022-09-13T11:22:58.000Z</time>
      </trkpt>
      <trkpt lat="49.38928" lon="5.83449">
        <ele>313.79998779297</ele>
        <time>2022-09-13T11:22:59.000Z</time>
      </trkpt>
      <trkpt lat="49.3893" lon="5.8345">
        <ele>314</ele>
        <time>2022-09-13T11:23:00.000Z</time>
      </trkpt>
      <trkpt lat="49.38932" lon="5.8345">
        <ele>314.39999389648</ele>
        <time>2022-09-13T11:23:01.000Z</time>
      </trkpt>
      <trkpt lat="49.38934" lon="5.8345">
        <ele>314.39999389648</ele>
        <time>2022-09-13T11:23:02.000Z</time>
      </trkpt>
      <trkpt lat="49.38935" lon="5.8345">
        <ele>314.60000610352</ele>
        <time>2022-09-13T11:23:03.000Z</time>
      </trkpt>
      <trkpt lat="49.38936" lon="5.83451">
        <ele>315</ele>
        <time>2022-09-13T11:23:04.000Z</time>
      </trkpt>
      <trkpt lat="49.38937" lon="5.83452">
        <ele>315.39999389648</ele>
        <time>2022-09-13T11:23:05.000Z</time>
      </trkpt>
      <trkpt lat="49.38938" lon="5.83453">
        <ele>315.60000610352</ele>
        <time>2022-09-13T11:23:06.000Z</time>
      </trkpt>
      <trkpt lat="49.3894" lon="5.83455">
        <ele>315.79998779297</ele>
        <time>2022-09-13T11:23:07.000Z</time>
      </trkpt>
      <trkpt lat="49.38943" lon="5.83457">
        <ele>316.20001220703</ele>
        <time>2022-09-13T11:23:08.000Z</time>
      </trkpt>
      <trkpt lat="49.38945" lon="5.83459">
        <ele>316.20001220703</ele>
        <time>2022-09-13T11:23:09.000Z</time>
      </trkpt>
      <trkpt lat="49.38947" lon="5.8346">
        <ele>316.39999389648</ele>
        <time>2022-09-13T11:23:10.000Z</time>
      </trkpt>
      <trkpt lat="49.38949" lon="5.83461">
        <ele>316.60000610352</ele>
        <time>2022-09-13T11:23:11.000Z</time>
      </trkpt>
      <trkpt lat="49.38952" lon="5.83462">
        <ele>316.79998779297</ele>
        <time>2022-09-13T11:23:12.000Z</time>
      </trkpt>
      <trkpt lat="49.38953" lon="5.83463">
        <ele>317</ele>
        <time>2022-09-13T11:23:13.000Z</time>
      </trkpt>
      <trkpt lat="49.38954" lon="5.83463">
        <ele>317.20001220703</ele>
        <time>2022-09-13T11:23:14.000Z</time>
      </trkpt>
      <trkpt lat="49.38955" lon="5.83462">
        <ele>317.39999389648</ele>
        <time>2022-09-13T11:23:15.000Z</time>
      </trkpt>
      <trkpt lat="49.38957" lon="5.83462">
        <ele>317.60000610352</ele>
        <time>2022-09-13T11:23:16.000Z</time>
      </trkpt>
      <trkpt lat="49.38959" lon="5.83463">
        <ele>318</ele>
        <time>2022-09-13T11:23:17.000Z</time>
      </trkpt>
      <trkpt lat="49.38961" lon="5.83465">
        <ele>318</ele>
        <time>2022-09-13T11:23:18.000Z</time>
      </trkpt>
      <trkpt lat="49.38963" lon="5.83464">
        <ele>318.39999389648</ele>
        <time>2022-09-13T11:23:19.000Z</time>
      </trkpt>
      <trkpt lat="49.38964" lon="5.83463">
        <ele>318.60000610352</ele>
        <time>2022-09-13T11:23:20.000Z</time>
      </trkpt>
      <trkpt lat="49.38965" lon="5.83464">
        <ele>319</ele>
        <time>2022-09-13T11:23:21.000Z</time>
      </trkpt>
      <trkpt lat="49.38966" lon="5.83466">
        <ele>319.39999389648</ele>
        <time>2022-09-13T11:23:22.000Z</time>
      </trkpt>
      <trkpt lat="49.38968" lon="5.83467">
        <ele>319.60000610352</ele>
        <time>2022-09-13T11:23:23.000Z</time>
      </trkpt>
      <trkpt lat="49.38969" lon="5.83468">
        <ele>319.79998779297</ele>
        <time>2022-09-13T11:23:24.000Z</time>
      </trkpt>
      <trkpt lat="49.38971" lon="5.83467">
        <ele>320</ele>
        <time>2022-09-13T11:23:25.000Z</time>
      </trkpt>
      <trkpt lat="49.38973" lon="5.83469">
        <ele>320.39999389648</ele>
        <time>2022-09-13T11:23:26.000Z</time>
      </trkpt>
      <trkpt lat="49.38975" lon="5.8347">
        <ele>320.60000610352</ele>
        <time>2022-09-13T11:23:27.000Z</time>
      </trkpt>
      <trkpt lat="49.38976" lon="5.83471">
        <ele>320.79998779297</ele>
        <time>2022-09-13T11:23:28.000Z</time>
      </trkpt>
      <trkpt lat="49.38978" lon="5.83472">
        <ele>321</ele>
        <time>2022-09-13T11:23:29.000Z</time>
      </trkpt>
      <trkpt lat="49.38979" lon="5.83472">
        <ele>321.20001220703</ele>
        <time>2022-09-13T11:23:30.000Z</time>
      </trkpt>
      <trkpt lat="49.38981" lon="5.83473">
        <ele>321.39999389648</ele>
        <time>2022-09-13T11:23:31.000Z</time>
      </trkpt>
      <trkpt lat="49.38987" lon="5.83473">
        <ele>321.60000610352</ele>
        <time>2022-09-13T11:23:32.000Z</time>
      </trkpt>
      <trkpt lat="49.38989" lon="5.83473">
        <ele>322</ele>
        <time>2022-09-13T11:23:33.000Z</time>
      </trkpt>
      <trkpt lat="49.3899" lon="5.83472">
        <ele>322.20001220703</ele>
        <time>2022-09-13T11:23:34.000Z</time>
      </trkpt>
      <trkpt lat="49.38993" lon="5.83471">
        <ele>322.39999389648</ele>
        <time>2022-09-13T11:23:35.000Z</time>
      </trkpt>
      <trkpt lat="49.38993" lon="5.83471">
        <ele>322.79998779297</ele>
        <time>2022-09-13T11:23:36.000Z</time>
      </trkpt>
      <trkpt lat="49.38994" lon="5.83468">
        <ele>323</ele>
        <time>2022-09-13T11:23:37.000Z</time>
      </trkpt>
      <trkpt lat="49.38994" lon="5.83465">
        <ele>323.20001220703</ele>
        <time>2022-09-13T11:23:38.000Z</time>
      </trkpt>
      <trkpt lat="49.38993" lon="5.83463">
        <ele>323.39999389648</ele>
        <time>2022-09-13T11:23:39.000Z</time>
      </trkpt>
      <trkpt lat="49.38994" lon="5.83461">
        <ele>323.60000610352</ele>
        <time>2022-09-13T11:23:40.000Z</time>
      </trkpt>
      <trkpt lat="49.38994" lon="5.83457">
        <ele>323.79998779297</ele>
        <time>2022-09-13T11:23:41.000Z</time>
      </trkpt>
      <trkpt lat="49.38994" lon="5.83453">
        <ele>323.79998779297</ele>
        <time>2022-09-13T11:23:42.000Z</time>
      </trkpt>
      <trkpt lat="49.38994" lon="5.83449">
        <ele>323.79998779297</ele>
        <time>2022-09-13T11:23:43.000Z</time>
      </trkpt>
      <trkpt lat="49.38994" lon="5.83445">
        <ele>323.79998779297</ele>
        <time>2022-09-13T11:23:44.000Z</time>
      </trkpt>
      <trkpt lat="49.38994" lon="5.83441">
        <ele>324</ele>
        <time>2022-09-13T11:23:45.000Z</time>
      </trkpt>
      <trkpt lat="49.38994" lon="5.83436">
        <ele>323.79998779297</ele>
        <time>2022-09-13T11:23:46.000Z</time>
      </trkpt>
      <trkpt lat="49.38996" lon="5.8343">
        <ele>323.79998779297</ele>
        <time>2022-09-13T11:23:47.000Z</time>
      </trkpt>
      <trkpt lat="49.38996" lon="5.83425">
        <ele>323.79998779297</ele>
        <time>2022-09-13T11:23:48.000Z</time>
      </trkpt>
      <trkpt lat="49.38995" lon="5.83416">
        <ele>323.79998779297</ele>
        <time>2022-09-13T11:23:49.000Z</time>
      </trkpt>
      <trkpt lat="49.38995" lon="5.83405">
        <ele>323.79998779297</ele>
        <time>2022-09-13T11:23:50.000Z</time>
      </trkpt>
      <trkpt lat="49.38997" lon="5.83394">
        <ele>323.79998779297</ele>
        <time>2022-09-13T11:23:51.000Z</time>
      </trkpt>
      <trkpt lat="49.39" lon="5.83382">
        <ele>323.60000610352</ele>
        <time>2022-09-13T11:23:52.000Z</time>
      </trkpt>
      <trkpt lat="49.39005" lon="5.8337">
        <ele>323.39999389648</ele>
        <time>2022-09-13T11:23:53.000Z</time>
      </trkpt>
      <trkpt lat="49.39009" lon="5.8336">
        <ele>323.20001220703</ele>
        <time>2022-09-13T11:23:54.000Z</time>
      </trkpt>
      <trkpt lat="49.39014" lon="5.8335">
        <ele>323</ele>
        <time>2022-09-13T11:23:55.000Z</time>
      </trkpt>
      <trkpt lat="49.3902" lon="5.83343">
        <ele>321.39999389648</ele>
        <time>2022-09-13T11:23:56.000Z</time>
      </trkpt>
      <trkpt lat="49.39027" lon="5.83337">
        <ele>320.20001220703</ele>
        <time>2022-09-13T11:23:57.000Z</time>
      </trkpt>
      <trkpt lat="49.39035" lon="5.83332">
        <ele>319.79998779297</ele>
        <time>2022-09-13T11:23:58.000Z</time>
      </trkpt>
      <trkpt lat="49.39043" lon="5.83328">
        <ele>319</ele>
        <time>2022-09-13T11:23:59.000Z</time>
      </trkpt>
      <trkpt lat="49.39059" lon="5.83321">
        <ele>317.39999389648</ele>
        <time>2022-09-13T11:24:01.000Z</time>
      </trkpt>
      <trkpt lat="49.39075" lon="5.83317">
        <ele>315.39999389648</ele>
        <time>2022-09-13T11:24:03.000Z</time>
      </trkpt>
      <trkpt lat="49.39096" lon="5.83315">
        <ele>314.60000610352</ele>
        <time>2022-09-13T11:24:05.000Z</time>
      </trkpt>
      <trkpt lat="49.39105" lon="5.83313">
        <ele>313.79998779297</ele>
        <time>2022-09-13T11:24:06.000Z</time>
      </trkpt>
      <trkpt lat="49.39113" lon="5.83311">
        <ele>313.60000610352</ele>
        <time>2022-09-13T11:24:07.000Z</time>
      </trkpt>
      <trkpt lat="49.39119" lon="5.83308">
        <ele>312.39999389648</ele>
        <time>2022-09-13T11:24:08.000Z</time>
      </trkpt>
      <trkpt lat="49.39125" lon="5.83304">
        <ele>312.20001220703</ele>
        <time>2022-09-13T11:24:09.000Z</time>
      </trkpt>
      <trkpt lat="49.39132" lon="5.83298">
        <ele>311</ele>
        <time>2022-09-13T11:24:10.000Z</time>
      </trkpt>
      <trkpt lat="49.3914" lon="5.83293">
        <ele>310.60000610352</ele>
        <time>2022-09-13T11:24:11.000Z</time>
      </trkpt>
      <trkpt lat="49.39147" lon="5.83288">
        <ele>310</ele>
        <time>2022-09-13T11:24:12.000Z</time>
      </trkpt>
      <trkpt lat="49.39161" lon="5.83281">
        <ele>308.79998779297</ele>
        <time>2022-09-13T11:24:14.000Z</time>
      </trkpt>
      <trkpt lat="49.39168" lon="5.83277">
        <ele>308.20001220703</ele>
        <time>2022-09-13T11:24:15.000Z</time>
      </trkpt>
      <trkpt lat="49.39175" lon="5.83275">
        <ele>307.79998779297</ele>
        <time>2022-09-13T11:24:16.000Z</time>
      </trkpt>
      <trkpt lat="49.3918" lon="5.83275">
        <ele>307.39999389648</ele>
        <time>2022-09-13T11:24:17.000Z</time>
      </trkpt>
      <trkpt lat="49.39185" lon="5.83273">
        <ele>307.20001220703</ele>
        <time>2022-09-13T11:24:18.000Z</time>
      </trkpt>
      <trkpt lat="49.3919" lon="5.8327">
        <ele>306.39999389648</ele>
        <time>2022-09-13T11:24:19.000Z</time>
      </trkpt>
      <trkpt lat="49.39193" lon="5.83268">
        <ele>305.60000610352</ele>
        <time>2022-09-13T11:24:20.000Z</time>
      </trkpt>
      <trkpt lat="49.39197" lon="5.83264">
        <ele>305.39999389648</ele>
        <time>2022-09-13T11:24:21.000Z</time>
      </trkpt>
      <trkpt lat="49.392" lon="5.83261">
        <ele>305.20001220703</ele>
        <time>2022-09-13T11:24:22.000Z</time>
      </trkpt>
      <trkpt lat="49.39204" lon="5.83258">
        <ele>305</ele>
        <time>2022-09-13T11:24:23.000Z</time>
      </trkpt>
      <trkpt lat="49.39207" lon="5.83256">
        <ele>304.79998779297</ele>
        <time>2022-09-13T11:24:24.000Z</time>
      </trkpt>
      <trkpt lat="49.39211" lon="5.83254">
        <ele>304.79998779297</ele>
        <time>2022-09-13T11:24:25.000Z</time>
      </trkpt>
      <trkpt lat="49.39214" lon="5.8325">
        <ele>304.60000610352</ele>
        <time>2022-09-13T11:24:26.000Z</time>
      </trkpt>
      <trkpt lat="49.39221" lon="5.83246">
        <ele>304.39999389648</ele>
        <time>2022-09-13T11:24:28.000Z</time>
      </trkpt>
      <trkpt lat="49.39222" lon="5.83245">
        <ele>304</ele>
        <time>2022-09-13T11:24:29.000Z</time>
      </trkpt>
      <trkpt lat="49.39225" lon="5.83243">
        <ele>304</ele>
        <time>2022-09-13T11:24:30.000Z</time>
      </trkpt>
      <trkpt lat="49.39228" lon="5.8324">
        <ele>303.79998779297</ele>
        <time>2022-09-13T11:24:31.000Z</time>
      </trkpt>
      <trkpt lat="49.39231" lon="5.83238">
        <ele>303.79998779297</ele>
        <time>2022-09-13T11:24:32.000Z</time>
      </trkpt>
      <trkpt lat="49.39236" lon="5.83235">
        <ele>303.60000610352</ele>
        <time>2022-09-13T11:24:34.000Z</time>
      </trkpt>
      <trkpt lat="49.39239" lon="5.83233">
        <ele>303.60000610352</ele>
        <time>2022-09-13T11:24:35.000Z</time>
      </trkpt>
      <trkpt lat="49.39243" lon="5.83229">
        <ele>303.60000610352</ele>
        <time>2022-09-13T11:24:36.000Z</time>
      </trkpt>
      <trkpt lat="49.39245" lon="5.83227">
        <ele>303.60000610352</ele>
        <time>2022-09-13T11:24:37.000Z</time>
      </trkpt>
      <trkpt lat="49.39248" lon="5.83223">
        <ele>303.60000610352</ele>
        <time>2022-09-13T11:24:38.000Z</time>
      </trkpt>
      <trkpt lat="49.3925" lon="5.83221">
        <ele>303.79998779297</ele>
        <time>2022-09-13T11:24:39.000Z</time>
      </trkpt>
      <trkpt lat="49.39252" lon="5.83218">
        <ele>303.79998779297</ele>
        <time>2022-09-13T11:24:40.000Z</time>
      </trkpt>
      <trkpt lat="49.39253" lon="5.83217">
        <ele>303.79998779297</ele>
        <time>2022-09-13T11:24:41.000Z</time>
      </trkpt>
      <trkpt lat="49.39255" lon="5.83215">
        <ele>303.79998779297</ele>
        <time>2022-09-13T11:24:42.000Z</time>
      </trkpt>
      <trkpt lat="49.39262" lon="5.83211">
        <ele>303.79998779297</ele>
        <time>2022-09-13T11:24:43.000Z</time>
      </trkpt>
      <trkpt lat="49.39269" lon="5.83204">
        <ele>304</ele>
        <time>2022-09-13T11:24:45.000Z</time>
      </trkpt>
      <trkpt lat="49.39273" lon="5.832">
        <ele>304</ele>
        <time>2022-09-13T11:24:46.000Z</time>
      </trkpt>
      <trkpt lat="49.39279" lon="5.83193">
        <ele>304.20001220703</ele>
        <time>2022-09-13T11:24:48.000Z</time>
      </trkpt>
      <trkpt lat="49.39281" lon="5.8319">
        <ele>304.39999389648</ele>
        <time>2022-09-13T11:24:49.000Z</time>
      </trkpt>
      <trkpt lat="49.39282" lon="5.83186">
        <ele>304.60000610352</ele>
        <time>2022-09-13T11:24:50.000Z</time>
      </trkpt>
      <trkpt lat="49.39284" lon="5.83183">
        <ele>304.60000610352</ele>
        <time>2022-09-13T11:24:51.000Z</time>
      </trkpt>
      <trkpt lat="49.39286" lon="5.8318">
        <ele>304.60000610352</ele>
        <time>2022-09-13T11:24:52.000Z</time>
      </trkpt>
      <trkpt lat="49.39285" lon="5.83176">
        <ele>304.79998779297</ele>
        <time>2022-09-13T11:24:53.000Z</time>
      </trkpt>
      <trkpt lat="49.39286" lon="5.83173">
        <ele>304.79998779297</ele>
        <time>2022-09-13T11:24:54.000Z</time>
      </trkpt>
      <trkpt lat="49.39286" lon="5.8317">
        <ele>304.79998779297</ele>
        <time>2022-09-13T11:24:55.000Z</time>
      </trkpt>
      <trkpt lat="49.39287" lon="5.83166">
        <ele>304.79998779297</ele>
        <time>2022-09-13T11:24:56.000Z</time>
      </trkpt>
      <trkpt lat="49.39293" lon="5.83154">
        <ele>305.60000610352</ele>
        <time>2022-09-13T11:24:59.000Z</time>
      </trkpt>
      <trkpt lat="49.39299" lon="5.83143">
        <ele>306.20001220703</ele>
        <time>2022-09-13T11:25:03.000Z</time>
      </trkpt>
      <trkpt lat="49.39304" lon="5.83138">
        <ele>306.60000610352</ele>
        <time>2022-09-13T11:25:05.000Z</time>
      </trkpt>
      <trkpt lat="49.39305" lon="5.83135">
        <ele>307</ele>
        <time>2022-09-13T11:25:06.000Z</time>
      </trkpt>
      <trkpt lat="49.39308" lon="5.83132">
        <ele>307</ele>
        <time>2022-09-13T11:25:07.000Z</time>
      </trkpt>
      <trkpt lat="49.39313" lon="5.83125">
        <ele>307.20001220703</ele>
        <time>2022-09-13T11:25:09.000Z</time>
      </trkpt>
      <trkpt lat="49.39314" lon="5.83119">
        <ele>307.39999389648</ele>
        <time>2022-09-13T11:25:10.000Z</time>
      </trkpt>
      <trkpt lat="49.39317" lon="5.83113">
        <ele>307.39999389648</ele>
        <time>2022-09-13T11:25:11.000Z</time>
      </trkpt>
      <trkpt lat="49.39318" lon="5.83108">
        <ele>307.39999389648</ele>
        <time>2022-09-13T11:25:12.000Z</time>
      </trkpt>
      <trkpt lat="49.39319" lon="5.83103">
        <ele>307.39999389648</ele>
        <time>2022-09-13T11:25:13.000Z</time>
      </trkpt>
      <trkpt lat="49.3932" lon="5.83097">
        <ele>307.39999389648</ele>
        <time>2022-09-13T11:25:14.000Z</time>
      </trkpt>
      <trkpt lat="49.39321" lon="5.83092">
        <ele>307.39999389648</ele>
        <time>2022-09-13T11:25:15.000Z</time>
      </trkpt>
      <trkpt lat="49.39323" lon="5.83088">
        <ele>307.60000610352</ele>
        <time>2022-09-13T11:25:16.000Z</time>
      </trkpt>
      <trkpt lat="49.39323" lon="5.83084">
        <ele>307.60000610352</ele>
        <time>2022-09-13T11:25:17.000Z</time>
      </trkpt>
      <trkpt lat="49.39324" lon="5.8308">
        <ele>307.60000610352</ele>
        <time>2022-09-13T11:25:18.000Z</time>
      </trkpt>
      <trkpt lat="49.39327" lon="5.83076">
        <ele>307.60000610352</ele>
        <time>2022-09-13T11:25:19.000Z</time>
      </trkpt>
      <trkpt lat="49.3933" lon="5.83071">
        <ele>307.79998779297</ele>
        <time>2022-09-13T11:25:20.000Z</time>
      </trkpt>
      <trkpt lat="49.3933" lon="5.83068">
        <ele>307.79998779297</ele>
        <time>2022-09-13T11:25:21.000Z</time>
      </trkpt>
      <trkpt lat="49.39331" lon="5.83064">
        <ele>308</ele>
        <time>2022-09-13T11:25:22.000Z</time>
      </trkpt>
      <trkpt lat="49.39332" lon="5.8306">
        <ele>308</ele>
        <time>2022-09-13T11:25:23.000Z</time>
      </trkpt>
      <trkpt lat="49.39334" lon="5.83056">
        <ele>308</ele>
        <time>2022-09-13T11:25:24.000Z</time>
      </trkpt>
      <trkpt lat="49.39335" lon="5.83053">
        <ele>308.20001220703</ele>
        <time>2022-09-13T11:25:25.000Z</time>
      </trkpt>
      <trkpt lat="49.39336" lon="5.8305">
        <ele>308.20001220703</ele>
        <time>2022-09-13T11:25:26.000Z</time>
      </trkpt>
      <trkpt lat="49.39338" lon="5.83047">
        <ele>308.20001220703</ele>
        <time>2022-09-13T11:25:27.000Z</time>
      </trkpt>
      <trkpt lat="49.3934" lon="5.83043">
        <ele>308.39999389648</ele>
        <time>2022-09-13T11:25:28.000Z</time>
      </trkpt>
      <trkpt lat="49.39344" lon="5.83034">
        <ele>308.60000610352</ele>
        <time>2022-09-13T11:25:31.000Z</time>
      </trkpt>
      <trkpt lat="49.39349" lon="5.83009">
        <ele>308.60000610352</ele>
        <time>2022-09-13T11:25:36.000Z</time>
      </trkpt>
      <trkpt lat="49.39351" lon="5.83005">
        <ele>308.60000610352</ele>
        <time>2022-09-13T11:25:37.000Z</time>
      </trkpt>
      <trkpt lat="49.39355" lon="5.83001">
        <ele>308.60000610352</ele>
        <time>2022-09-13T11:25:38.000Z</time>
      </trkpt>
      <trkpt lat="49.39357" lon="5.82997">
        <ele>308.60000610352</ele>
        <time>2022-09-13T11:25:39.000Z</time>
      </trkpt>
      <trkpt lat="49.3936" lon="5.82992">
        <ele>308.39999389648</ele>
        <time>2022-09-13T11:25:40.000Z</time>
      </trkpt>
      <trkpt lat="49.39364" lon="5.82988">
        <ele>308.39999389648</ele>
        <time>2022-09-13T11:25:41.000Z</time>
      </trkpt>
      <trkpt lat="49.39365" lon="5.82984">
        <ele>308.20001220703</ele>
        <time>2022-09-13T11:25:42.000Z</time>
      </trkpt>
      <trkpt lat="49.39365" lon="5.82979">
        <ele>308</ele>
        <time>2022-09-13T11:25:43.000Z</time>
      </trkpt>
      <trkpt lat="49.39366" lon="5.82975">
        <ele>308</ele>
        <time>2022-09-13T11:25:44.000Z</time>
      </trkpt>
      <trkpt lat="49.39365" lon="5.82971">
        <ele>307.79998779297</ele>
        <time>2022-09-13T11:25:45.000Z</time>
      </trkpt>
      <trkpt lat="49.39363" lon="5.82966">
        <ele>307.79998779297</ele>
        <time>2022-09-13T11:25:46.000Z</time>
      </trkpt>
      <trkpt lat="49.39361" lon="5.82961">
        <ele>307.60000610352</ele>
        <time>2022-09-13T11:25:47.000Z</time>
      </trkpt>
      <trkpt lat="49.39356" lon="5.82955">
        <ele>307.39999389648</ele>
        <time>2022-09-13T11:25:48.000Z</time>
      </trkpt>
      <trkpt lat="49.39354" lon="5.82948">
        <ele>307</ele>
        <time>2022-09-13T11:25:49.000Z</time>
      </trkpt>
      <trkpt lat="49.39349" lon="5.82944">
        <ele>306.60000610352</ele>
        <time>2022-09-13T11:25:50.000Z</time>
      </trkpt>
      <trkpt lat="49.39341" lon="5.82937">
        <ele>305.60000610352</ele>
        <time>2022-09-13T11:25:52.000Z</time>
      </trkpt>
      <trkpt lat="49.39338" lon="5.82934">
        <ele>305.39999389648</ele>
        <time>2022-09-13T11:25:53.000Z</time>
      </trkpt>
      <trkpt lat="49.39335" lon="5.8293">
        <ele>305</ele>
        <time>2022-09-13T11:25:54.000Z</time>
      </trkpt>
      <trkpt lat="49.39331" lon="5.82918">
        <ele>304.20001220703</ele>
        <time>2022-09-13T11:25:56.000Z</time>
      </trkpt>
      <trkpt lat="49.3933" lon="5.82911">
        <ele>304</ele>
        <time>2022-09-13T11:25:57.000Z</time>
      </trkpt>
      <trkpt lat="49.39329" lon="5.82904">
        <ele>303</ele>
        <time>2022-09-13T11:25:58.000Z</time>
      </trkpt>
      <trkpt lat="49.39327" lon="5.82898">
        <ele>302.39999389648</ele>
        <time>2022-09-13T11:25:59.000Z</time>
      </trkpt>
      <trkpt lat="49.39323" lon="5.82891">
        <ele>301.79998779297</ele>
        <time>2022-09-13T11:26:00.000Z</time>
      </trkpt>
      <trkpt lat="49.39319" lon="5.82886">
        <ele>301</ele>
        <time>2022-09-13T11:26:01.000Z</time>
      </trkpt>
      <trkpt lat="49.39316" lon="5.82884">
        <ele>300.39999389648</ele>
        <time>2022-09-13T11:26:02.000Z</time>
      </trkpt>
      <trkpt lat="49.3931" lon="5.82881">
        <ele>299</ele>
        <time>2022-09-13T11:26:03.000Z</time>
      </trkpt>
      <trkpt lat="49.39303" lon="5.82877">
        <ele>298.39999389648</ele>
        <time>2022-09-13T11:26:04.000Z</time>
      </trkpt>
      <trkpt lat="49.39296" lon="5.82869">
        <ele>297.39999389648</ele>
        <time>2022-09-13T11:26:05.000Z</time>
      </trkpt>
      <trkpt lat="49.39292" lon="5.82863">
        <ele>296.60000610352</ele>
        <time>2022-09-13T11:26:06.000Z</time>
      </trkpt>
      <trkpt lat="49.39287" lon="5.82857">
        <ele>296.20001220703</ele>
        <time>2022-09-13T11:26:07.000Z</time>
      </trkpt>
      <trkpt lat="49.3928" lon="5.82851">
        <ele>295.20001220703</ele>
        <time>2022-09-13T11:26:08.000Z</time>
      </trkpt>
      <trkpt lat="49.39274" lon="5.82846">
        <ele>294.39999389648</ele>
        <time>2022-09-13T11:26:09.000Z</time>
      </trkpt>
      <trkpt lat="49.39269" lon="5.8284">
        <ele>293.20001220703</ele>
        <time>2022-09-13T11:26:10.000Z</time>
      </trkpt>
      <trkpt lat="49.39267" lon="5.82831">
        <ele>292.39999389648</ele>
        <time>2022-09-13T11:26:11.000Z</time>
      </trkpt>
      <trkpt lat="49.39268" lon="5.82823">
        <ele>291.20001220703</ele>
        <time>2022-09-13T11:26:12.000Z</time>
      </trkpt>
      <trkpt lat="49.39267" lon="5.82814">
        <ele>290.39999389648</ele>
        <time>2022-09-13T11:26:13.000Z</time>
      </trkpt>
      <trkpt lat="49.39262" lon="5.82807">
        <ele>289.39999389648</ele>
        <time>2022-09-13T11:26:14.000Z</time>
      </trkpt>
      <trkpt lat="49.39258" lon="5.82802">
        <ele>288.60000610352</ele>
        <time>2022-09-13T11:26:15.000Z</time>
      </trkpt>
      <trkpt lat="49.39255" lon="5.82798">
        <ele>288.20001220703</ele>
        <time>2022-09-13T11:26:16.000Z</time>
      </trkpt>
      <trkpt lat="49.39254" lon="5.82795">
        <ele>287.60000610352</ele>
        <time>2022-09-13T11:26:17.000Z</time>
      </trkpt>
      <trkpt lat="49.39254" lon="5.82791">
        <ele>287.39999389648</ele>
        <time>2022-09-13T11:26:18.000Z</time>
      </trkpt>
      <trkpt lat="49.39254" lon="5.82787">
        <ele>287</ele>
        <time>2022-09-13T11:26:19.000Z</time>
      </trkpt>
      <trkpt lat="49.39255" lon="5.82784">
        <ele>286.79998779297</ele>
        <time>2022-09-13T11:26:20.000Z</time>
      </trkpt>
      <trkpt lat="49.39256" lon="5.82782">
        <ele>286.79998779297</ele>
        <time>2022-09-13T11:26:21.000Z</time>
      </trkpt>
      <trkpt lat="49.39257" lon="5.8278">
        <ele>286.79998779297</ele>
        <time>2022-09-13T11:26:22.000Z</time>
      </trkpt>
      <trkpt lat="49.39258" lon="5.82779">
        <ele>286.79998779297</ele>
        <time>2022-09-13T11:26:23.000Z</time>
      </trkpt>
      <trkpt lat="49.39258" lon="5.82777">
        <ele>286.79998779297</ele>
        <time>2022-09-13T11:26:24.000Z</time>
      </trkpt>
      <trkpt lat="49.39259" lon="5.82775">
        <ele>286.79998779297</ele>
        <time>2022-09-13T11:26:25.000Z</time>
      </trkpt>
      <trkpt lat="49.39261" lon="5.82773">
        <ele>287</ele>
        <time>2022-09-13T11:26:26.000Z</time>
      </trkpt>
      <trkpt lat="49.39261" lon="5.82771">
        <ele>287.20001220703</ele>
        <time>2022-09-13T11:26:27.000Z</time>
      </trkpt>
      <trkpt lat="49.39262" lon="5.82769">
        <ele>287.20001220703</ele>
        <time>2022-09-13T11:26:28.000Z</time>
      </trkpt>
      <trkpt lat="49.39262" lon="5.82767">
        <ele>287.60000610352</ele>
        <time>2022-09-13T11:26:29.000Z</time>
      </trkpt>
      <trkpt lat="49.39264" lon="5.82764">
        <ele>287.79998779297</ele>
        <time>2022-09-13T11:26:30.000Z</time>
      </trkpt>
      <trkpt lat="49.39265" lon="5.8276">
        <ele>288</ele>
        <time>2022-09-13T11:26:31.000Z</time>
      </trkpt>
      <trkpt lat="49.39265" lon="5.82757">
        <ele>288</ele>
        <time>2022-09-13T11:26:32.000Z</time>
      </trkpt>
      <trkpt lat="49.39269" lon="5.82749">
        <ele>289.20001220703</ele>
        <time>2022-09-13T11:26:35.000Z</time>
      </trkpt>
      <trkpt lat="49.39278" lon="5.82741">
        <ele>290</ele>
        <time>2022-09-13T11:26:39.000Z</time>
      </trkpt>
      <trkpt lat="49.3928" lon="5.82738">
        <ele>290.39999389648</ele>
        <time>2022-09-13T11:26:40.000Z</time>
      </trkpt>
      <trkpt lat="49.39288" lon="5.82727">
        <ele>291.60000610352</ele>
        <time>2022-09-13T11:26:45.000Z</time>
      </trkpt>
      <trkpt lat="49.39292" lon="5.82723">
        <ele>292.39999389648</ele>
        <time>2022-09-13T11:26:47.000Z</time>
      </trkpt>
      <trkpt lat="49.39294" lon="5.82721">
        <ele>292.79998779297</ele>
        <time>2022-09-13T11:26:48.000Z</time>
      </trkpt>
      <trkpt lat="49.39297" lon="5.82718">
        <ele>293.20001220703</ele>
        <time>2022-09-13T11:26:49.000Z</time>
      </trkpt>
      <trkpt lat="49.393" lon="5.82716">
        <ele>293.60000610352</ele>
        <time>2022-09-13T11:26:50.000Z</time>
      </trkpt>
      <trkpt lat="49.39303" lon="5.82714">
        <ele>294</ele>
        <time>2022-09-13T11:26:51.000Z</time>
      </trkpt>
      <trkpt lat="49.39306" lon="5.82712">
        <ele>294.60000610352</ele>
        <time>2022-09-13T11:26:52.000Z</time>
      </trkpt>
      <trkpt lat="49.39308" lon="5.82711">
        <ele>295</ele>
        <time>2022-09-13T11:26:53.000Z</time>
      </trkpt>
      <trkpt lat="49.39311" lon="5.82709">
        <ele>295.39999389648</ele>
        <time>2022-09-13T11:26:54.000Z</time>
      </trkpt>
      <trkpt lat="49.39313" lon="5.82706">
        <ele>295.79998779297</ele>
        <time>2022-09-13T11:26:55.000Z</time>
      </trkpt>
      <trkpt lat="49.39315" lon="5.82704">
        <ele>296.20001220703</ele>
        <time>2022-09-13T11:26:56.000Z</time>
      </trkpt>
      <trkpt lat="49.39317" lon="5.82703">
        <ele>296.39999389648</ele>
        <time>2022-09-13T11:26:57.000Z</time>
      </trkpt>
      <trkpt lat="49.3932" lon="5.82701">
        <ele>297</ele>
        <time>2022-09-13T11:26:58.000Z</time>
      </trkpt>
      <trkpt lat="49.39322" lon="5.82699">
        <ele>297.20001220703</ele>
        <time>2022-09-13T11:26:59.000Z</time>
      </trkpt>
      <trkpt lat="49.39323" lon="5.82696">
        <ele>297.79998779297</ele>
        <time>2022-09-13T11:27:00.000Z</time>
      </trkpt>
      <trkpt lat="49.39325" lon="5.82693">
        <ele>298.39999389648</ele>
        <time>2022-09-13T11:27:01.000Z</time>
      </trkpt>
      <trkpt lat="49.39326" lon="5.82691">
        <ele>298.79998779297</ele>
        <time>2022-09-13T11:27:02.000Z</time>
      </trkpt>
      <trkpt lat="49.39328" lon="5.8269">
        <ele>299.20001220703</ele>
        <time>2022-09-13T11:27:03.000Z</time>
      </trkpt>
      <trkpt lat="49.3933" lon="5.82688">
        <ele>299.39999389648</ele>
        <time>2022-09-13T11:27:04.000Z</time>
      </trkpt>
      <trkpt lat="49.39332" lon="5.82686">
        <ele>299.60000610352</ele>
        <time>2022-09-13T11:27:05.000Z</time>
      </trkpt>
      <trkpt lat="49.39334" lon="5.82684">
        <ele>299.79998779297</ele>
        <time>2022-09-13T11:27:06.000Z</time>
      </trkpt>
      <trkpt lat="49.39336" lon="5.82683">
        <ele>300</ele>
        <time>2022-09-13T11:27:07.000Z</time>
      </trkpt>
      <trkpt lat="49.39338" lon="5.82681">
        <ele>300.20001220703</ele>
        <time>2022-09-13T11:27:08.000Z</time>
      </trkpt>
      <trkpt lat="49.3934" lon="5.8268">
        <ele>300.60000610352</ele>
        <time>2022-09-13T11:27:09.000Z</time>
      </trkpt>
      <trkpt lat="49.39342" lon="5.82679">
        <ele>301</ele>
        <time>2022-09-13T11:27:10.000Z</time>
      </trkpt>
      <trkpt lat="49.39344" lon="5.82677">
        <ele>301.20001220703</ele>
        <time>2022-09-13T11:27:11.000Z</time>
      </trkpt>
      <trkpt lat="49.39346" lon="5.82676">
        <ele>301.39999389648</ele>
        <time>2022-09-13T11:27:12.000Z</time>
      </trkpt>
      <trkpt lat="49.39349" lon="5.82675">
        <ele>301.60000610352</ele>
        <time>2022-09-13T11:27:13.000Z</time>
      </trkpt>
      <trkpt lat="49.3935" lon="5.82674">
        <ele>301.79998779297</ele>
        <time>2022-09-13T11:27:14.000Z</time>
      </trkpt>
      <trkpt lat="49.39351" lon="5.82672">
        <ele>302</ele>
        <time>2022-09-13T11:27:15.000Z</time>
      </trkpt>
      <trkpt lat="49.39352" lon="5.82671">
        <ele>302</ele>
        <time>2022-09-13T11:27:16.000Z</time>
      </trkpt>
      <trkpt lat="49.39353" lon="5.82669">
        <ele>302.39999389648</ele>
        <time>2022-09-13T11:27:17.000Z</time>
      </trkpt>
      <trkpt lat="49.39354" lon="5.82666">
        <ele>302.39999389648</ele>
        <time>2022-09-13T11:27:18.000Z</time>
      </trkpt>
      <trkpt lat="49.39355" lon="5.82663">
        <ele>302.60000610352</ele>
        <time>2022-09-13T11:27:19.000Z</time>
      </trkpt>
      <trkpt lat="49.39357" lon="5.82659">
        <ele>302.60000610352</ele>
        <time>2022-09-13T11:27:20.000Z</time>
      </trkpt>
      <trkpt lat="49.39359" lon="5.82655">
        <ele>302.60000610352</ele>
        <time>2022-09-13T11:27:21.000Z</time>
      </trkpt>
      <trkpt lat="49.39362" lon="5.8265">
        <ele>302.60000610352</ele>
        <time>2022-09-13T11:27:22.000Z</time>
      </trkpt>
      <trkpt lat="49.39366" lon="5.82646">
        <ele>302.60000610352</ele>
        <time>2022-09-13T11:27:23.000Z</time>
      </trkpt>
      <trkpt lat="49.3937" lon="5.82641">
        <ele>302.60000610352</ele>
        <time>2022-09-13T11:27:24.000Z</time>
      </trkpt>
      <trkpt lat="49.39375" lon="5.82635">
        <ele>302.60000610352</ele>
        <time>2022-09-13T11:27:25.000Z</time>
      </trkpt>
      <trkpt lat="49.39378" lon="5.8263">
        <ele>302.39999389648</ele>
        <time>2022-09-13T11:27:26.000Z</time>
      </trkpt>
      <trkpt lat="49.39382" lon="5.82626">
        <ele>302.20001220703</ele>
        <time>2022-09-13T11:27:27.000Z</time>
      </trkpt>
      <trkpt lat="49.39385" lon="5.82623">
        <ele>301.79998779297</ele>
        <time>2022-09-13T11:27:28.000Z</time>
      </trkpt>
      <trkpt lat="49.3939" lon="5.8262">
        <ele>301.79998779297</ele>
        <time>2022-09-13T11:27:29.000Z</time>
      </trkpt>
      <trkpt lat="49.39395" lon="5.82617">
        <ele>301.60000610352</ele>
        <time>2022-09-13T11:27:30.000Z</time>
      </trkpt>
      <trkpt lat="49.39401" lon="5.82615">
        <ele>301.20001220703</ele>
        <time>2022-09-13T11:27:31.000Z</time>
      </trkpt>
      <trkpt lat="49.39407" lon="5.82612">
        <ele>300.79998779297</ele>
        <time>2022-09-13T11:27:32.000Z</time>
      </trkpt>
      <trkpt lat="49.39413" lon="5.82608">
        <ele>300</ele>
        <time>2022-09-13T11:27:33.000Z</time>
      </trkpt>
      <trkpt lat="49.39425" lon="5.82604">
        <ele>298.60000610352</ele>
        <time>2022-09-13T11:27:35.000Z</time>
      </trkpt>
      <trkpt lat="49.39429" lon="5.82602">
        <ele>298</ele>
        <time>2022-09-13T11:27:36.000Z</time>
      </trkpt>
      <trkpt lat="49.39434" lon="5.826">
        <ele>297.39999389648</ele>
        <time>2022-09-13T11:27:37.000Z</time>
      </trkpt>
      <trkpt lat="49.39439" lon="5.82597">
        <ele>297</ele>
        <time>2022-09-13T11:27:38.000Z</time>
      </trkpt>
      <trkpt lat="49.39445" lon="5.82595">
        <ele>296.79998779297</ele>
        <time>2022-09-13T11:27:39.000Z</time>
      </trkpt>
      <trkpt lat="49.3945" lon="5.82594">
        <ele>296.60000610352</ele>
        <time>2022-09-13T11:27:40.000Z</time>
      </trkpt>
      <trkpt lat="49.39453" lon="5.82593">
        <ele>296.39999389648</ele>
        <time>2022-09-13T11:27:41.000Z</time>
      </trkpt>
      <trkpt lat="49.39457" lon="5.82594">
        <ele>296.20001220703</ele>
        <time>2022-09-13T11:27:42.000Z</time>
      </trkpt>
      <trkpt lat="49.39463" lon="5.82594">
        <ele>295.79998779297</ele>
        <time>2022-09-13T11:27:43.000Z</time>
      </trkpt>
      <trkpt lat="49.3947" lon="5.82593">
        <ele>295.20001220703</ele>
        <time>2022-09-13T11:27:44.000Z</time>
      </trkpt>
      <trkpt lat="49.39478" lon="5.82588">
        <ele>294.79998779297</ele>
        <time>2022-09-13T11:27:45.000Z</time>
      </trkpt>
      <trkpt lat="49.39486" lon="5.82584">
        <ele>294.60000610352</ele>
        <time>2022-09-13T11:27:46.000Z</time>
      </trkpt>
      <trkpt lat="49.39494" lon="5.82578">
        <ele>294</ele>
        <time>2022-09-13T11:27:47.000Z</time>
      </trkpt>
      <trkpt lat="49.39502" lon="5.82575">
        <ele>293.79998779297</ele>
        <time>2022-09-13T11:27:48.000Z</time>
      </trkpt>
      <trkpt lat="49.39509" lon="5.82571">
        <ele>293.39999389648</ele>
        <time>2022-09-13T11:27:49.000Z</time>
      </trkpt>
      <trkpt lat="49.39517" lon="5.82568">
        <ele>293</ele>
        <time>2022-09-13T11:27:50.000Z</time>
      </trkpt>
      <trkpt lat="49.39523" lon="5.82565">
        <ele>292.79998779297</ele>
        <time>2022-09-13T11:27:51.000Z</time>
      </trkpt>
      <trkpt lat="49.39529" lon="5.82562">
        <ele>292.60000610352</ele>
        <time>2022-09-13T11:27:52.000Z</time>
      </trkpt>
      <trkpt lat="49.39535" lon="5.82558">
        <ele>292.39999389648</ele>
        <time>2022-09-13T11:27:53.000Z</time>
      </trkpt>
      <trkpt lat="49.39541" lon="5.82554">
        <ele>292.20001220703</ele>
        <time>2022-09-13T11:27:54.000Z</time>
      </trkpt>
      <trkpt lat="49.39547" lon="5.8255">
        <ele>292.20001220703</ele>
        <time>2022-09-13T11:27:55.000Z</time>
      </trkpt>
      <trkpt lat="49.39559" lon="5.8254">
        <ele>292</ele>
        <time>2022-09-13T11:27:57.000Z</time>
      </trkpt>
      <trkpt lat="49.39573" lon="5.82528">
        <ele>291.79998779297</ele>
        <time>2022-09-13T11:27:59.000Z</time>
      </trkpt>
      <trkpt lat="49.39585" lon="5.82515">
        <ele>290.79998779297</ele>
        <time>2022-09-13T11:28:01.000Z</time>
      </trkpt>
      <trkpt lat="49.39599" lon="5.82502">
        <ele>289.79998779297</ele>
        <time>2022-09-13T11:28:03.000Z</time>
      </trkpt>
      <trkpt lat="49.39606" lon="5.82496">
        <ele>289.60000610352</ele>
        <time>2022-09-13T11:28:04.000Z</time>
      </trkpt>
      <trkpt lat="49.39628" lon="5.82478">
        <ele>288.20001220703</ele>
        <time>2022-09-13T11:28:07.000Z</time>
      </trkpt>
      <trkpt lat="49.39635" lon="5.82472">
        <ele>287.60000610352</ele>
        <time>2022-09-13T11:28:08.000Z</time>
      </trkpt>
      <trkpt lat="49.39642" lon="5.82465">
        <ele>287.39999389648</ele>
        <time>2022-09-13T11:28:09.000Z</time>
      </trkpt>
      <trkpt lat="49.39648" lon="5.82459">
        <ele>286.79998779297</ele>
        <time>2022-09-13T11:28:10.000Z</time>
      </trkpt>
      <trkpt lat="49.39654" lon="5.82453">
        <ele>286.79998779297</ele>
        <time>2022-09-13T11:28:11.000Z</time>
      </trkpt>
      <trkpt lat="49.39659" lon="5.82448">
        <ele>286.60000610352</ele>
        <time>2022-09-13T11:28:12.000Z</time>
      </trkpt>
      <trkpt lat="49.39663" lon="5.82446">
        <ele>286.39999389648</ele>
        <time>2022-09-13T11:28:13.000Z</time>
      </trkpt>
      <trkpt lat="49.39665" lon="5.82444">
        <ele>286.39999389648</ele>
        <time>2022-09-13T11:28:14.000Z</time>
      </trkpt>
      <trkpt lat="49.39667" lon="5.82444">
        <ele>286.39999389648</ele>
        <time>2022-09-13T11:28:15.000Z</time>
      </trkpt>
      <trkpt lat="49.39668" lon="5.82442">
        <ele>286.39999389648</ele>
        <time>2022-09-13T11:28:16.000Z</time>
      </trkpt>
      <trkpt lat="49.3967" lon="5.82441">
        <ele>286.39999389648</ele>
        <time>2022-09-13T11:28:17.000Z</time>
      </trkpt>
      <trkpt lat="49.3967" lon="5.82441">
        <ele>286.60000610352</ele>
        <time>2022-09-13T11:28:18.000Z</time>
      </trkpt>
      <trkpt lat="49.39671" lon="5.82438">
        <ele>286.79998779297</ele>
        <time>2022-09-13T11:28:19.000Z</time>
      </trkpt>
      <trkpt lat="49.39674" lon="5.82435">
        <ele>287</ele>
        <time>2022-09-13T11:28:20.000Z</time>
      </trkpt>
      <trkpt lat="49.39679" lon="5.82429">
        <ele>287.60000610352</ele>
        <time>2022-09-13T11:28:22.000Z</time>
      </trkpt>
      <trkpt lat="49.3968" lon="5.82428">
        <ele>288.20001220703</ele>
        <time>2022-09-13T11:28:23.000Z</time>
      </trkpt>
      <trkpt lat="49.39682" lon="5.82427">
        <ele>289</ele>
        <time>2022-09-13T11:28:24.000Z</time>
      </trkpt>
      <trkpt lat="49.39683" lon="5.82424">
        <ele>289.20001220703</ele>
        <time>2022-09-13T11:28:25.000Z</time>
      </trkpt>
      <trkpt lat="49.39685" lon="5.82422">
        <ele>289.79998779297</ele>
        <time>2022-09-13T11:28:26.000Z</time>
      </trkpt>
      <trkpt lat="49.39687" lon="5.82421">
        <ele>290.20001220703</ele>
        <time>2022-09-13T11:28:27.000Z</time>
      </trkpt>
      <trkpt lat="49.39687" lon="5.8242">
        <ele>290.60000610352</ele>
        <time>2022-09-13T11:28:28.000Z</time>
      </trkpt>
      <trkpt lat="49.39689" lon="5.82418">
        <ele>290.79998779297</ele>
        <time>2022-09-13T11:28:29.000Z</time>
      </trkpt>
      <trkpt lat="49.39692" lon="5.82416">
        <ele>291.20001220703</ele>
        <time>2022-09-13T11:28:30.000Z</time>
      </trkpt>
      <trkpt lat="49.39693" lon="5.82415">
        <ele>291.79998779297</ele>
        <time>2022-09-13T11:28:31.000Z</time>
      </trkpt>
      <trkpt lat="49.39693" lon="5.82415">
        <ele>292</ele>
        <time>2022-09-13T11:28:32.000Z</time>
      </trkpt>
      <trkpt lat="49.39694" lon="5.82415">
        <ele>292.60000610352</ele>
        <time>2022-09-13T11:28:33.000Z</time>
      </trkpt>
      <trkpt lat="49.39695" lon="5.82415">
        <ele>292.79998779297</ele>
        <time>2022-09-13T11:28:34.000Z</time>
      </trkpt>
      <trkpt lat="49.39697" lon="5.82414">
        <ele>293.20001220703</ele>
        <time>2022-09-13T11:28:35.000Z</time>
      </trkpt>
      <trkpt lat="49.39697" lon="5.82412">
        <ele>293.39999389648</ele>
        <time>2022-09-13T11:28:36.000Z</time>
      </trkpt>
      <trkpt lat="49.39698" lon="5.82412">
        <ele>293.60000610352</ele>
        <time>2022-09-13T11:28:37.000Z</time>
      </trkpt>
      <trkpt lat="49.39699" lon="5.8241">
        <ele>294</ele>
        <time>2022-09-13T11:28:38.000Z</time>
      </trkpt>
      <trkpt lat="49.397" lon="5.82409">
        <ele>294.60000610352</ele>
        <time>2022-09-13T11:28:39.000Z</time>
      </trkpt>
      <trkpt lat="49.39701" lon="5.82407">
        <ele>295</ele>
        <time>2022-09-13T11:28:40.000Z</time>
      </trkpt>
      <trkpt lat="49.39702" lon="5.82406">
        <ele>295.20001220703</ele>
        <time>2022-09-13T11:28:41.000Z</time>
      </trkpt>
      <trkpt lat="49.39703" lon="5.82404">
        <ele>295.79998779297</ele>
        <time>2022-09-13T11:28:42.000Z</time>
      </trkpt>
      <trkpt lat="49.39704" lon="5.82402">
        <ele>296</ele>
        <time>2022-09-13T11:28:43.000Z</time>
      </trkpt>
      <trkpt lat="49.39705" lon="5.824">
        <ele>296.60000610352</ele>
        <time>2022-09-13T11:28:44.000Z</time>
      </trkpt>
      <trkpt lat="49.39706" lon="5.82397">
        <ele>296.79998779297</ele>
        <time>2022-09-13T11:28:45.000Z</time>
      </trkpt>
      <trkpt lat="49.39707" lon="5.82395">
        <ele>297.39999389648</ele>
        <time>2022-09-13T11:28:46.000Z</time>
      </trkpt>
      <trkpt lat="49.39708" lon="5.82393">
        <ele>298</ele>
        <time>2022-09-13T11:28:47.000Z</time>
      </trkpt>
      <trkpt lat="49.39709" lon="5.8239">
        <ele>298.20001220703</ele>
        <time>2022-09-13T11:28:48.000Z</time>
      </trkpt>
      <trkpt lat="49.3971" lon="5.82387">
        <ele>298.60000610352</ele>
        <time>2022-09-13T11:28:49.000Z</time>
      </trkpt>
      <trkpt lat="49.39711" lon="5.82385">
        <ele>298.79998779297</ele>
        <time>2022-09-13T11:28:50.000Z</time>
      </trkpt>
      <trkpt lat="49.39711" lon="5.82384">
        <ele>299</ele>
        <time>2022-09-13T11:28:51.000Z</time>
      </trkpt>
      <trkpt lat="49.39712" lon="5.82382">
        <ele>299</ele>
        <time>2022-09-13T11:28:52.000Z</time>
      </trkpt>
      <trkpt lat="49.39712" lon="5.8238">
        <ele>299.20001220703</ele>
        <time>2022-09-13T11:28:53.000Z</time>
      </trkpt>
      <trkpt lat="49.39714" lon="5.82375">
        <ele>299.39999389648</ele>
        <time>2022-09-13T11:28:54.000Z</time>
      </trkpt>
      <trkpt lat="49.39715" lon="5.82372">
        <ele>299.60000610352</ele>
        <time>2022-09-13T11:28:55.000Z</time>
      </trkpt>
      <trkpt lat="49.39716" lon="5.8237">
        <ele>299.60000610352</ele>
        <time>2022-09-13T11:28:56.000Z</time>
      </trkpt>
      <trkpt lat="49.39717" lon="5.82367">
        <ele>299.79998779297</ele>
        <time>2022-09-13T11:28:57.000Z</time>
      </trkpt>
      <trkpt lat="49.39718" lon="5.82363">
        <ele>299.79998779297</ele>
        <time>2022-09-13T11:28:58.000Z</time>
      </trkpt>
      <trkpt lat="49.39717" lon="5.82359">
        <ele>299.79998779297</ele>
        <time>2022-09-13T11:28:59.000Z</time>
      </trkpt>
      <trkpt lat="49.39719" lon="5.82354">
        <ele>300</ele>
        <time>2022-09-13T11:29:00.000Z</time>
      </trkpt>
      <trkpt lat="49.3972" lon="5.8235">
        <ele>300.20001220703</ele>
        <time>2022-09-13T11:29:01.000Z</time>
      </trkpt>
      <trkpt lat="49.39721" lon="5.82345">
        <ele>300.20001220703</ele>
        <time>2022-09-13T11:29:02.000Z</time>
      </trkpt>
      <trkpt lat="49.39722" lon="5.82341">
        <ele>300.20001220703</ele>
        <time>2022-09-13T11:29:03.000Z</time>
      </trkpt>
      <trkpt lat="49.39723" lon="5.82336">
        <ele>300.20001220703</ele>
        <time>2022-09-13T11:29:04.000Z</time>
      </trkpt>
      <trkpt lat="49.39723" lon="5.82331">
        <ele>300.20001220703</ele>
        <time>2022-09-13T11:29:05.000Z</time>
      </trkpt>
      <trkpt lat="49.39724" lon="5.82327">
        <ele>300.20001220703</ele>
        <time>2022-09-13T11:29:06.000Z</time>
      </trkpt>
      <trkpt lat="49.39723" lon="5.82321">
        <ele>300.20001220703</ele>
        <time>2022-09-13T11:29:07.000Z</time>
      </trkpt>
      <trkpt lat="49.39723" lon="5.82316">
        <ele>300.20001220703</ele>
        <time>2022-09-13T11:29:08.000Z</time>
      </trkpt>
      <trkpt lat="49.39724" lon="5.82312">
        <ele>300.39999389648</ele>
        <time>2022-09-13T11:29:09.000Z</time>
      </trkpt>
      <trkpt lat="49.39726" lon="5.82307">
        <ele>300.39999389648</ele>
        <time>2022-09-13T11:29:10.000Z</time>
      </trkpt>
      <trkpt lat="49.39729" lon="5.82301">
        <ele>300.39999389648</ele>
        <time>2022-09-13T11:29:11.000Z</time>
      </trkpt>
      <trkpt lat="49.39729" lon="5.82296">
        <ele>300.39999389648</ele>
        <time>2022-09-13T11:29:12.000Z</time>
      </trkpt>
      <trkpt lat="49.39728" lon="5.82291">
        <ele>300.39999389648</ele>
        <time>2022-09-13T11:29:13.000Z</time>
      </trkpt>
      <trkpt lat="49.39728" lon="5.82286">
        <ele>300.39999389648</ele>
        <time>2022-09-13T11:29:14.000Z</time>
      </trkpt>
      <trkpt lat="49.39728" lon="5.82282">
        <ele>300.39999389648</ele>
        <time>2022-09-13T11:29:15.000Z</time>
      </trkpt>
      <trkpt lat="49.39728" lon="5.82278">
        <ele>300.39999389648</ele>
        <time>2022-09-13T11:29:16.000Z</time>
      </trkpt>
      <trkpt lat="49.39728" lon="5.82274">
        <ele>300.60000610352</ele>
        <time>2022-09-13T11:29:17.000Z</time>
      </trkpt>
      <trkpt lat="49.39729" lon="5.82271">
        <ele>300.60000610352</ele>
        <time>2022-09-13T11:29:18.000Z</time>
      </trkpt>
      <trkpt lat="49.39729" lon="5.82268">
        <ele>300.60000610352</ele>
        <time>2022-09-13T11:29:19.000Z</time>
      </trkpt>
      <trkpt lat="49.39727" lon="5.82265">
        <ele>300.79998779297</ele>
        <time>2022-09-13T11:29:20.000Z</time>
      </trkpt>
      <trkpt lat="49.39726" lon="5.82262">
        <ele>300.79998779297</ele>
        <time>2022-09-13T11:29:21.000Z</time>
      </trkpt>
      <trkpt lat="49.39725" lon="5.8226">
        <ele>300.79998779297</ele>
        <time>2022-09-13T11:29:22.000Z</time>
      </trkpt>
      <trkpt lat="49.39725" lon="5.82257">
        <ele>300.79998779297</ele>
        <time>2022-09-13T11:29:23.000Z</time>
      </trkpt>
      <trkpt lat="49.39726" lon="5.82253">
        <ele>300.79998779297</ele>
        <time>2022-09-13T11:29:24.000Z</time>
      </trkpt>
      <trkpt lat="49.39726" lon="5.8225">
        <ele>300.79998779297</ele>
        <time>2022-09-13T11:29:25.000Z</time>
      </trkpt>
      <trkpt lat="49.39725" lon="5.82246">
        <ele>300.79998779297</ele>
        <time>2022-09-13T11:29:26.000Z</time>
      </trkpt>
      <trkpt lat="49.39725" lon="5.82242">
        <ele>301</ele>
        <time>2022-09-13T11:29:27.000Z</time>
      </trkpt>
      <trkpt lat="49.39725" lon="5.82238">
        <ele>301</ele>
        <time>2022-09-13T11:29:28.000Z</time>
      </trkpt>
      <trkpt lat="49.39724" lon="5.82231">
        <ele>301.39999389648</ele>
        <time>2022-09-13T11:29:30.000Z</time>
      </trkpt>
      <trkpt lat="49.39725" lon="5.82228">
        <ele>301.39999389648</ele>
        <time>2022-09-13T11:29:31.000Z</time>
      </trkpt>
      <trkpt lat="49.39725" lon="5.82225">
        <ele>301.60000610352</ele>
        <time>2022-09-13T11:29:32.000Z</time>
      </trkpt>
      <trkpt lat="49.39726" lon="5.82222">
        <ele>301.79998779297</ele>
        <time>2022-09-13T11:29:33.000Z</time>
      </trkpt>
      <trkpt lat="49.39726" lon="5.82218">
        <ele>302</ele>
        <time>2022-09-13T11:29:34.000Z</time>
      </trkpt>
      <trkpt lat="49.39725" lon="5.82214">
        <ele>302</ele>
        <time>2022-09-13T11:29:35.000Z</time>
      </trkpt>
      <trkpt lat="49.39726" lon="5.8221">
        <ele>302.20001220703</ele>
        <time>2022-09-13T11:29:36.000Z</time>
      </trkpt>
      <trkpt lat="49.39726" lon="5.82204">
        <ele>302.20001220703</ele>
        <time>2022-09-13T11:29:37.000Z</time>
      </trkpt>
      <trkpt lat="49.39725" lon="5.82196">
        <ele>302.20001220703</ele>
        <time>2022-09-13T11:29:39.000Z</time>
      </trkpt>
      <trkpt lat="49.39724" lon="5.82187">
        <ele>302.20001220703</ele>
        <time>2022-09-13T11:29:41.000Z</time>
      </trkpt>
      <trkpt lat="49.39721" lon="5.82182">
        <ele>302.20001220703</ele>
        <time>2022-09-13T11:29:42.000Z</time>
      </trkpt>
      <trkpt lat="49.39718" lon="5.82175">
        <ele>302.20001220703</ele>
        <time>2022-09-13T11:29:43.000Z</time>
      </trkpt>
      <trkpt lat="49.39715" lon="5.8217">
        <ele>302.20001220703</ele>
        <time>2022-09-13T11:29:44.000Z</time>
      </trkpt>
      <trkpt lat="49.39714" lon="5.82165">
        <ele>302.20001220703</ele>
        <time>2022-09-13T11:29:45.000Z</time>
      </trkpt>
      <trkpt lat="49.39704" lon="5.82152">
        <ele>302.20001220703</ele>
        <time>2022-09-13T11:29:49.000Z</time>
      </trkpt>
      <trkpt lat="49.39703" lon="5.82149">
        <ele>302.20001220703</ele>
        <time>2022-09-13T11:29:50.000Z</time>
      </trkpt>
      <trkpt lat="49.39702" lon="5.82145">
        <ele>302</ele>
        <time>2022-09-13T11:29:51.000Z</time>
      </trkpt>
      <trkpt lat="49.397" lon="5.82136">
        <ele>302</ele>
        <time>2022-09-13T11:29:53.000Z</time>
      </trkpt>
      <trkpt lat="49.397" lon="5.82132">
        <ele>302</ele>
        <time>2022-09-13T11:29:54.000Z</time>
      </trkpt>
      <trkpt lat="49.39704" lon="5.82128">
        <ele>302</ele>
        <time>2022-09-13T11:29:55.000Z</time>
      </trkpt>
      <trkpt lat="49.39706" lon="5.82118">
        <ele>302</ele>
        <time>2022-09-13T11:29:57.000Z</time>
      </trkpt>
      <trkpt lat="49.39704" lon="5.82114">
        <ele>302.20001220703</ele>
        <time>2022-09-13T11:29:58.000Z</time>
      </trkpt>
      <trkpt lat="49.39695" lon="5.82098">
        <ele>302.20001220703</ele>
        <time>2022-09-13T11:30:02.000Z</time>
      </trkpt>
      <trkpt lat="49.39693" lon="5.82094">
        <ele>302.39999389648</ele>
        <time>2022-09-13T11:30:03.000Z</time>
      </trkpt>
      <trkpt lat="49.39689" lon="5.82089">
        <ele>302.39999389648</ele>
        <time>2022-09-13T11:30:04.000Z</time>
      </trkpt>
      <trkpt lat="49.39684" lon="5.82083">
        <ele>302.39999389648</ele>
        <time>2022-09-13T11:30:06.000Z</time>
      </trkpt>
      <trkpt lat="49.3968" lon="5.82079">
        <ele>302.39999389648</ele>
        <time>2022-09-13T11:30:07.000Z</time>
      </trkpt>
      <trkpt lat="49.39677" lon="5.82075">
        <ele>302.39999389648</ele>
        <time>2022-09-13T11:30:08.000Z</time>
      </trkpt>
      <trkpt lat="49.39676" lon="5.82073">
        <ele>302.39999389648</ele>
        <time>2022-09-13T11:30:09.000Z</time>
      </trkpt>
      <trkpt lat="49.39674" lon="5.8207">
        <ele>302.39999389648</ele>
        <time>2022-09-13T11:30:10.000Z</time>
      </trkpt>
      <trkpt lat="49.39671" lon="5.82064">
        <ele>302.39999389648</ele>
        <time>2022-09-13T11:30:11.000Z</time>
      </trkpt>
      <trkpt lat="49.3967" lon="5.8206">
        <ele>302.39999389648</ele>
        <time>2022-09-13T11:30:12.000Z</time>
      </trkpt>
      <trkpt lat="49.39669" lon="5.82057">
        <ele>302.39999389648</ele>
        <time>2022-09-13T11:30:13.000Z</time>
      </trkpt>
      <trkpt lat="49.39666" lon="5.82054">
        <ele>302.39999389648</ele>
        <time>2022-09-13T11:30:14.000Z</time>
      </trkpt>
      <trkpt lat="49.39664" lon="5.8205">
        <ele>302.39999389648</ele>
        <time>2022-09-13T11:30:15.000Z</time>
      </trkpt>
      <trkpt lat="49.39657" lon="5.82045">
        <ele>302.39999389648</ele>
        <time>2022-09-13T11:30:17.000Z</time>
      </trkpt>
      <trkpt lat="49.39654" lon="5.82041">
        <ele>302.39999389648</ele>
        <time>2022-09-13T11:30:18.000Z</time>
      </trkpt>
      <trkpt lat="49.39651" lon="5.82038">
        <ele>302.39999389648</ele>
        <time>2022-09-13T11:30:19.000Z</time>
      </trkpt>
      <trkpt lat="49.3965" lon="5.82035">
        <ele>302.39999389648</ele>
        <time>2022-09-13T11:30:20.000Z</time>
      </trkpt>
      <trkpt lat="49.39647" lon="5.82032">
        <ele>302.39999389648</ele>
        <time>2022-09-13T11:30:21.000Z</time>
      </trkpt>
      <trkpt lat="49.39643" lon="5.82028">
        <ele>302.39999389648</ele>
        <time>2022-09-13T11:30:22.000Z</time>
      </trkpt>
      <trkpt lat="49.3964" lon="5.82025">
        <ele>302.39999389648</ele>
        <time>2022-09-13T11:30:24.000Z</time>
      </trkpt>
      <trkpt lat="49.39628" lon="5.82008">
        <ele>301.79998779297</ele>
        <time>2022-09-13T11:30:28.000Z</time>
      </trkpt>
      <trkpt lat="49.39625" lon="5.82004">
        <ele>301.79998779297</ele>
        <time>2022-09-13T11:30:29.000Z</time>
      </trkpt>
      <trkpt lat="49.39623" lon="5.82001">
        <ele>301.60000610352</ele>
        <time>2022-09-13T11:30:30.000Z</time>
      </trkpt>
      <trkpt lat="49.3962" lon="5.81997">
        <ele>301.60000610352</ele>
        <time>2022-09-13T11:30:31.000Z</time>
      </trkpt>
      <trkpt lat="49.39614" lon="5.81989">
        <ele>301.60000610352</ele>
        <time>2022-09-13T11:30:33.000Z</time>
      </trkpt>
      <trkpt lat="49.39614" lon="5.81987">
        <ele>301.39999389648</ele>
        <time>2022-09-13T11:30:34.000Z</time>
      </trkpt>
      <trkpt lat="49.39613" lon="5.81984">
        <ele>301.39999389648</ele>
        <time>2022-09-13T11:30:35.000Z</time>
      </trkpt>
      <trkpt lat="49.39611" lon="5.81978">
        <ele>301.20001220703</ele>
        <time>2022-09-13T11:30:37.000Z</time>
      </trkpt>
      <trkpt lat="49.39609" lon="5.81974">
        <ele>301.20001220703</ele>
        <time>2022-09-13T11:30:38.000Z</time>
      </trkpt>
      <trkpt lat="49.39606" lon="5.81969">
        <ele>300.79998779297</ele>
        <time>2022-09-13T11:30:39.000Z</time>
      </trkpt>
      <trkpt lat="49.39601" lon="5.81964">
        <ele>300.79998779297</ele>
        <time>2022-09-13T11:30:40.000Z</time>
      </trkpt>
      <trkpt lat="49.39578" lon="5.81936">
        <ele>300</ele>
        <time>2022-09-13T11:30:45.000Z</time>
      </trkpt>
      <trkpt lat="49.39573" lon="5.81929">
        <ele>299.79998779297</ele>
        <time>2022-09-13T11:30:46.000Z</time>
      </trkpt>
      <trkpt lat="49.39563" lon="5.81916">
        <ele>299.60000610352</ele>
        <time>2022-09-13T11:30:48.000Z</time>
      </trkpt>
      <trkpt lat="49.39551" lon="5.819">
        <ele>299.39999389648</ele>
        <time>2022-09-13T11:30:50.000Z</time>
      </trkpt>
      <trkpt lat="49.39546" lon="5.81893">
        <ele>298.79998779297</ele>
        <time>2022-09-13T11:30:51.000Z</time>
      </trkpt>
      <trkpt lat="49.39533" lon="5.81876">
        <ele>297.20001220703</ele>
        <time>2022-09-13T11:30:53.000Z</time>
      </trkpt>
      <trkpt lat="49.39531" lon="5.81868">
        <ele>297</ele>
        <time>2022-09-13T11:30:54.000Z</time>
      </trkpt>
      <trkpt lat="49.39528" lon="5.8186">
        <ele>296.39999389648</ele>
        <time>2022-09-13T11:30:55.000Z</time>
      </trkpt>
      <trkpt lat="49.39526" lon="5.81853">
        <ele>296.39999389648</ele>
        <time>2022-09-13T11:30:56.000Z</time>
      </trkpt>
      <trkpt lat="49.39524" lon="5.81847">
        <ele>296</ele>
        <time>2022-09-13T11:30:57.000Z</time>
      </trkpt>
      <trkpt lat="49.39522" lon="5.81843">
        <ele>295.60000610352</ele>
        <time>2022-09-13T11:30:58.000Z</time>
      </trkpt>
      <trkpt lat="49.39519" lon="5.81838">
        <ele>295.60000610352</ele>
        <time>2022-09-13T11:30:59.000Z</time>
      </trkpt>
      <trkpt lat="49.39518" lon="5.81836">
        <ele>295.60000610352</ele>
        <time>2022-09-13T11:31:00.000Z</time>
      </trkpt>
      <trkpt lat="49.39516" lon="5.81832">
        <ele>295.39999389648</ele>
        <time>2022-09-13T11:31:01.000Z</time>
      </trkpt>
      <trkpt lat="49.39514" lon="5.81829">
        <ele>295.39999389648</ele>
        <time>2022-09-13T11:31:02.000Z</time>
      </trkpt>
      <trkpt lat="49.39514" lon="5.81827">
        <ele>295.39999389648</ele>
        <time>2022-09-13T11:31:03.000Z</time>
      </trkpt>
      <trkpt lat="49.39513" lon="5.81825">
        <ele>295.60000610352</ele>
        <time>2022-09-13T11:31:04.000Z</time>
      </trkpt>
      <trkpt lat="49.39513" lon="5.81821">
        <ele>295.60000610352</ele>
        <time>2022-09-13T11:31:05.000Z</time>
      </trkpt>
      <trkpt lat="49.39513" lon="5.81817">
        <ele>295.60000610352</ele>
        <time>2022-09-13T11:31:06.000Z</time>
      </trkpt>
      <trkpt lat="49.39511" lon="5.81813">
        <ele>295.79998779297</ele>
        <time>2022-09-13T11:31:07.000Z</time>
      </trkpt>
      <trkpt lat="49.3951" lon="5.81809">
        <ele>296</ele>
        <time>2022-09-13T11:31:08.000Z</time>
      </trkpt>
      <trkpt lat="49.3951" lon="5.81806">
        <ele>296.20001220703</ele>
        <time>2022-09-13T11:31:09.000Z</time>
      </trkpt>
      <trkpt lat="49.39512" lon="5.81803">
        <ele>296.20001220703</ele>
        <time>2022-09-13T11:31:10.000Z</time>
      </trkpt>
      <trkpt lat="49.39513" lon="5.81801">
        <ele>296.39999389648</ele>
        <time>2022-09-13T11:31:11.000Z</time>
      </trkpt>
      <trkpt lat="49.39513" lon="5.81798">
        <ele>296.79998779297</ele>
        <time>2022-09-13T11:31:12.000Z</time>
      </trkpt>
      <trkpt lat="49.39513" lon="5.81794">
        <ele>297</ele>
        <time>2022-09-13T11:31:13.000Z</time>
      </trkpt>
      <trkpt lat="49.39512" lon="5.81787">
        <ele>297.79998779297</ele>
        <time>2022-09-13T11:31:15.000Z</time>
      </trkpt>
      <trkpt lat="49.39512" lon="5.81785">
        <ele>298.20001220703</ele>
        <time>2022-09-13T11:31:16.000Z</time>
      </trkpt>
      <trkpt lat="49.3951" lon="5.81781">
        <ele>298.39999389648</ele>
        <time>2022-09-13T11:31:17.000Z</time>
      </trkpt>
      <trkpt lat="49.39509" lon="5.81779">
        <ele>298.60000610352</ele>
        <time>2022-09-13T11:31:18.000Z</time>
      </trkpt>
      <trkpt lat="49.39508" lon="5.81775">
        <ele>298.60000610352</ele>
        <time>2022-09-13T11:31:19.000Z</time>
      </trkpt>
      <trkpt lat="49.39497" lon="5.8176">
        <ele>298.79998779297</ele>
        <time>2022-09-13T11:31:22.000Z</time>
      </trkpt>
      <trkpt lat="49.39474" lon="5.81734">
        <ele>298.60000610352</ele>
        <time>2022-09-13T11:31:26.000Z</time>
      </trkpt>
      <trkpt lat="49.39463" lon="5.81718">
        <ele>297.79998779297</ele>
        <time>2022-09-13T11:31:28.000Z</time>
      </trkpt>
      <trkpt lat="49.39454" lon="5.81696">
        <ele>296.79998779297</ele>
        <time>2022-09-13T11:31:30.000Z</time>
      </trkpt>
      <trkpt lat="49.39446" lon="5.8167">
        <ele>295.79998779297</ele>
        <time>2022-09-13T11:31:32.000Z</time>
      </trkpt>
      <trkpt lat="49.39442" lon="5.81643">
        <ele>294.79998779297</ele>
        <time>2022-09-13T11:31:34.000Z</time>
      </trkpt>
      <trkpt lat="49.39432" lon="5.81601">
        <ele>293.60000610352</ele>
        <time>2022-09-13T11:31:37.000Z</time>
      </trkpt>
      <trkpt lat="49.39425" lon="5.81571">
        <ele>292</ele>
        <time>2022-09-13T11:31:39.000Z</time>
      </trkpt>
      <trkpt lat="49.39419" lon="5.8154">
        <ele>290.79998779297</ele>
        <time>2022-09-13T11:31:41.000Z</time>
      </trkpt>
      <trkpt lat="49.39416" lon="5.81506">
        <ele>289.79998779297</ele>
        <time>2022-09-13T11:31:43.000Z</time>
      </trkpt>
      <trkpt lat="49.39414" lon="5.81472">
        <ele>288.79998779297</ele>
        <time>2022-09-13T11:31:45.000Z</time>
      </trkpt>
      <trkpt lat="49.39412" lon="5.81436">
        <ele>287.39999389648</ele>
        <time>2022-09-13T11:31:47.000Z</time>
      </trkpt>
      <trkpt lat="49.39412" lon="5.81418">
        <ele>286.20001220703</ele>
        <time>2022-09-13T11:31:48.000Z</time>
      </trkpt>
      <trkpt lat="49.39411" lon="5.814">
        <ele>285.79998779297</ele>
        <time>2022-09-13T11:31:49.000Z</time>
      </trkpt>
      <trkpt lat="49.3941" lon="5.81384">
        <ele>285</ele>
        <time>2022-09-13T11:31:50.000Z</time>
      </trkpt>
      <trkpt lat="49.39408" lon="5.81369">
        <ele>283.79998779297</ele>
        <time>2022-09-13T11:31:51.000Z</time>
      </trkpt>
      <trkpt lat="49.39406" lon="5.81358">
        <ele>283.39999389648</ele>
        <time>2022-09-13T11:31:52.000Z</time>
      </trkpt>
      <trkpt lat="49.39404" lon="5.8135">
        <ele>282.60000610352</ele>
        <time>2022-09-13T11:31:53.000Z</time>
      </trkpt>
      <trkpt lat="49.39404" lon="5.81343">
        <ele>282</ele>
        <time>2022-09-13T11:31:54.000Z</time>
      </trkpt>
      <trkpt lat="49.39404" lon="5.81337">
        <ele>281.20001220703</ele>
        <time>2022-09-13T11:31:55.000Z</time>
      </trkpt>
      <trkpt lat="49.39403" lon="5.81332">
        <ele>280.60000610352</ele>
        <time>2022-09-13T11:31:56.000Z</time>
      </trkpt>
      <trkpt lat="49.39403" lon="5.81327">
        <ele>279.60000610352</ele>
        <time>2022-09-13T11:31:57.000Z</time>
      </trkpt>
      <trkpt lat="49.39404" lon="5.81322">
        <ele>278.79998779297</ele>
        <time>2022-09-13T11:31:58.000Z</time>
      </trkpt>
      <trkpt lat="49.39404" lon="5.81317">
        <ele>278.39999389648</ele>
        <time>2022-09-13T11:31:59.000Z</time>
      </trkpt>
      <trkpt lat="49.39403" lon="5.81314">
        <ele>278.20001220703</ele>
        <time>2022-09-13T11:32:00.000Z</time>
      </trkpt>
      <trkpt lat="49.39403" lon="5.8131">
        <ele>278</ele>
        <time>2022-09-13T11:32:01.000Z</time>
      </trkpt>
      <trkpt lat="49.39404" lon="5.81307">
        <ele>278</ele>
        <time>2022-09-13T11:32:02.000Z</time>
      </trkpt>
      <trkpt lat="49.39404" lon="5.81304">
        <ele>277.79998779297</ele>
        <time>2022-09-13T11:32:03.000Z</time>
      </trkpt>
      <trkpt lat="49.39405" lon="5.81302">
        <ele>277.79998779297</ele>
        <time>2022-09-13T11:32:04.000Z</time>
      </trkpt>
      <trkpt lat="49.39405" lon="5.813">
        <ele>277.79998779297</ele>
        <time>2022-09-13T11:32:05.000Z</time>
      </trkpt>
      <trkpt lat="49.39405" lon="5.81298">
        <ele>277.60000610352</ele>
        <time>2022-09-13T11:32:06.000Z</time>
      </trkpt>
      <trkpt lat="49.39405" lon="5.81296">
        <ele>277.60000610352</ele>
        <time>2022-09-13T11:32:07.000Z</time>
      </trkpt>
      <trkpt lat="49.39405" lon="5.81295">
        <ele>277.60000610352</ele>
        <time>2022-09-13T11:32:08.000Z</time>
      </trkpt>
      <trkpt lat="49.39404" lon="5.81293">
        <ele>277.39999389648</ele>
        <time>2022-09-13T11:32:09.000Z</time>
      </trkpt>
      <trkpt lat="49.39403" lon="5.81291">
        <ele>277.39999389648</ele>
        <time>2022-09-13T11:32:10.000Z</time>
      </trkpt>
      <trkpt lat="49.39403" lon="5.81289">
        <ele>277.39999389648</ele>
        <time>2022-09-13T11:32:11.000Z</time>
      </trkpt>
      <trkpt lat="49.39402" lon="5.81286">
        <ele>277.39999389648</ele>
        <time>2022-09-13T11:32:12.000Z</time>
      </trkpt>
      <trkpt lat="49.39403" lon="5.81282">
        <ele>277.39999389648</ele>
        <time>2022-09-13T11:32:13.000Z</time>
      </trkpt>
      <trkpt lat="49.39403" lon="5.81278">
        <ele>277.39999389648</ele>
        <time>2022-09-13T11:32:14.000Z</time>
      </trkpt>
      <trkpt lat="49.39403" lon="5.81274">
        <ele>277.39999389648</ele>
        <time>2022-09-13T11:32:15.000Z</time>
      </trkpt>
      <trkpt lat="49.39403" lon="5.81264">
        <ele>277.60000610352</ele>
        <time>2022-09-13T11:32:17.000Z</time>
      </trkpt>
      <trkpt lat="49.39403" lon="5.81254">
        <ele>277.60000610352</ele>
        <time>2022-09-13T11:32:19.000Z</time>
      </trkpt>
      <trkpt lat="49.39403" lon="5.81239">
        <ele>277.60000610352</ele>
        <time>2022-09-13T11:32:22.000Z</time>
      </trkpt>
      <trkpt lat="49.39403" lon="5.81218">
        <ele>277.60000610352</ele>
        <time>2022-09-13T11:32:26.000Z</time>
      </trkpt>
      <trkpt lat="49.39401" lon="5.81203">
        <ele>277.60000610352</ele>
        <time>2022-09-13T11:32:29.000Z</time>
      </trkpt>
      <trkpt lat="49.394" lon="5.81199">
        <ele>277.60000610352</ele>
        <time>2022-09-13T11:32:30.000Z</time>
      </trkpt>
      <trkpt lat="49.394" lon="5.81194">
        <ele>277.60000610352</ele>
        <time>2022-09-13T11:32:31.000Z</time>
      </trkpt>
      <trkpt lat="49.394" lon="5.8119">
        <ele>277.60000610352</ele>
        <time>2022-09-13T11:32:32.000Z</time>
      </trkpt>
      <trkpt lat="49.394" lon="5.81187">
        <ele>277.60000610352</ele>
        <time>2022-09-13T11:32:33.000Z</time>
      </trkpt>
      <trkpt lat="49.394" lon="5.81185">
        <ele>277.79998779297</ele>
        <time>2022-09-13T11:32:34.000Z</time>
      </trkpt>
      <trkpt lat="49.394" lon="5.81179">
        <ele>278.60000610352</ele>
        <time>2022-09-13T11:32:36.000Z</time>
      </trkpt>
      <trkpt lat="49.394" lon="5.81176">
        <ele>278.79998779297</ele>
        <time>2022-09-13T11:32:37.000Z</time>
      </trkpt>
      <trkpt lat="49.394" lon="5.81174">
        <ele>278.79998779297</ele>
        <time>2022-09-13T11:32:38.000Z</time>
      </trkpt>
      <trkpt lat="49.394" lon="5.81171">
        <ele>279.39999389648</ele>
        <time>2022-09-13T11:32:39.000Z</time>
      </trkpt>
      <trkpt lat="49.39401" lon="5.81169">
        <ele>279.60000610352</ele>
        <time>2022-09-13T11:32:40.000Z</time>
      </trkpt>
      <trkpt lat="49.39401" lon="5.81166">
        <ele>279.79998779297</ele>
        <time>2022-09-13T11:32:41.000Z</time>
      </trkpt>
      <trkpt lat="49.394" lon="5.81164">
        <ele>280</ele>
        <time>2022-09-13T11:32:42.000Z</time>
      </trkpt>
      <trkpt lat="49.394" lon="5.81162">
        <ele>280.39999389648</ele>
        <time>2022-09-13T11:32:43.000Z</time>
      </trkpt>
      <trkpt lat="49.394" lon="5.8116">
        <ele>280.60000610352</ele>
        <time>2022-09-13T11:32:44.000Z</time>
      </trkpt>
      <trkpt lat="49.39401" lon="5.81158">
        <ele>281</ele>
        <time>2022-09-13T11:32:45.000Z</time>
      </trkpt>
      <trkpt lat="49.39402" lon="5.81155">
        <ele>281.20001220703</ele>
        <time>2022-09-13T11:32:46.000Z</time>
      </trkpt>
      <trkpt lat="49.39402" lon="5.81153">
        <ele>281.60000610352</ele>
        <time>2022-09-13T11:32:47.000Z</time>
      </trkpt>
      <trkpt lat="49.39403" lon="5.81151">
        <ele>282.20001220703</ele>
        <time>2022-09-13T11:32:48.000Z</time>
      </trkpt>
      <trkpt lat="49.39403" lon="5.81148">
        <ele>282.39999389648</ele>
        <time>2022-09-13T11:32:49.000Z</time>
      </trkpt>
      <trkpt lat="49.39403" lon="5.81146">
        <ele>282.60000610352</ele>
        <time>2022-09-13T11:32:50.000Z</time>
      </trkpt>
      <trkpt lat="49.39404" lon="5.81143">
        <ele>283</ele>
        <time>2022-09-13T11:32:51.000Z</time>
      </trkpt>
      <trkpt lat="49.39404" lon="5.8114">
        <ele>283.20001220703</ele>
        <time>2022-09-13T11:32:52.000Z</time>
      </trkpt>
      <trkpt lat="49.39405" lon="5.81138">
        <ele>283.39999389648</ele>
        <time>2022-09-13T11:32:53.000Z</time>
      </trkpt>
      <trkpt lat="49.39405" lon="5.81135">
        <ele>283.60000610352</ele>
        <time>2022-09-13T11:32:54.000Z</time>
      </trkpt>
      <trkpt lat="49.39406" lon="5.81133">
        <ele>283.60000610352</ele>
        <time>2022-09-13T11:32:55.000Z</time>
      </trkpt>
      <trkpt lat="49.39407" lon="5.81132">
        <ele>283.79998779297</ele>
        <time>2022-09-13T11:32:56.000Z</time>
      </trkpt>
      <trkpt lat="49.39408" lon="5.81129">
        <ele>284.20001220703</ele>
        <time>2022-09-13T11:32:57.000Z</time>
      </trkpt>
      <trkpt lat="49.39409" lon="5.81127">
        <ele>284.60000610352</ele>
        <time>2022-09-13T11:32:58.000Z</time>
      </trkpt>
      <trkpt lat="49.3941" lon="5.81124">
        <ele>285.20001220703</ele>
        <time>2022-09-13T11:32:59.000Z</time>
      </trkpt>
      <trkpt lat="49.39411" lon="5.81122">
        <ele>285.79998779297</ele>
        <time>2022-09-13T11:33:00.000Z</time>
      </trkpt>
      <trkpt lat="49.39412" lon="5.81119">
        <ele>286</ele>
        <time>2022-09-13T11:33:01.000Z</time>
      </trkpt>
      <trkpt lat="49.39413" lon="5.81116">
        <ele>286.39999389648</ele>
        <time>2022-09-13T11:33:02.000Z</time>
      </trkpt>
      <trkpt lat="49.39414" lon="5.81113">
        <ele>286.60000610352</ele>
        <time>2022-09-13T11:33:03.000Z</time>
      </trkpt>
      <trkpt lat="49.39413" lon="5.8111">
        <ele>286.79998779297</ele>
        <time>2022-09-13T11:33:04.000Z</time>
      </trkpt>
      <trkpt lat="49.39413" lon="5.81109">
        <ele>287</ele>
        <time>2022-09-13T11:33:05.000Z</time>
      </trkpt>
      <trkpt lat="49.39415" lon="5.81106">
        <ele>287.20001220703</ele>
        <time>2022-09-13T11:33:06.000Z</time>
      </trkpt>
      <trkpt lat="49.39417" lon="5.81104">
        <ele>287.60000610352</ele>
        <time>2022-09-13T11:33:07.000Z</time>
      </trkpt>
      <trkpt lat="49.39418" lon="5.81103">
        <ele>287.79998779297</ele>
        <time>2022-09-13T11:33:08.000Z</time>
      </trkpt>
      <trkpt lat="49.39419" lon="5.81101">
        <ele>288</ele>
        <time>2022-09-13T11:33:09.000Z</time>
      </trkpt>
      <trkpt lat="49.39421" lon="5.811">
        <ele>288.20001220703</ele>
        <time>2022-09-13T11:33:10.000Z</time>
      </trkpt>
      <trkpt lat="49.39422" lon="5.81098">
        <ele>288.60000610352</ele>
        <time>2022-09-13T11:33:11.000Z</time>
      </trkpt>
      <trkpt lat="49.39423" lon="5.81096">
        <ele>288.60000610352</ele>
        <time>2022-09-13T11:33:12.000Z</time>
      </trkpt>
      <trkpt lat="49.39424" lon="5.81095">
        <ele>289</ele>
        <time>2022-09-13T11:33:13.000Z</time>
      </trkpt>
      <trkpt lat="49.39425" lon="5.81093">
        <ele>289.39999389648</ele>
        <time>2022-09-13T11:33:14.000Z</time>
      </trkpt>
      <trkpt lat="49.39426" lon="5.81091">
        <ele>289.79998779297</ele>
        <time>2022-09-13T11:33:15.000Z</time>
      </trkpt>
      <trkpt lat="49.39427" lon="5.81089">
        <ele>290</ele>
        <time>2022-09-13T11:33:16.000Z</time>
      </trkpt>
      <trkpt lat="49.39428" lon="5.81087">
        <ele>290.20001220703</ele>
        <time>2022-09-13T11:33:17.000Z</time>
      </trkpt>
      <trkpt lat="49.39429" lon="5.81084">
        <ele>290.79998779297</ele>
        <time>2022-09-13T11:33:18.000Z</time>
      </trkpt>
      <trkpt lat="49.39431" lon="5.81081">
        <ele>291</ele>
        <time>2022-09-13T11:33:19.000Z</time>
      </trkpt>
      <trkpt lat="49.39432" lon="5.81079">
        <ele>291.20001220703</ele>
        <time>2022-09-13T11:33:20.000Z</time>
      </trkpt>
      <trkpt lat="49.39433" lon="5.81076">
        <ele>292</ele>
        <time>2022-09-13T11:33:21.000Z</time>
      </trkpt>
      <trkpt lat="49.39434" lon="5.81073">
        <ele>292.20001220703</ele>
        <time>2022-09-13T11:33:22.000Z</time>
      </trkpt>
      <trkpt lat="49.39435" lon="5.81071">
        <ele>292.39999389648</ele>
        <time>2022-09-13T11:33:23.000Z</time>
      </trkpt>
      <trkpt lat="49.39436" lon="5.8107">
        <ele>292.60000610352</ele>
        <time>2022-09-13T11:33:24.000Z</time>
      </trkpt>
      <trkpt lat="49.39437" lon="5.81068">
        <ele>292.79998779297</ele>
        <time>2022-09-13T11:33:25.000Z</time>
      </trkpt>
      <trkpt lat="49.39438" lon="5.81065">
        <ele>292.79998779297</ele>
        <time>2022-09-13T11:33:26.000Z</time>
      </trkpt>
      <trkpt lat="49.39438" lon="5.8106">
        <ele>293</ele>
        <time>2022-09-13T11:33:27.000Z</time>
      </trkpt>
      <trkpt lat="49.39439" lon="5.81058">
        <ele>293.20001220703</ele>
        <time>2022-09-13T11:33:28.000Z</time>
      </trkpt>
      <trkpt lat="49.39439" lon="5.81056">
        <ele>294</ele>
        <time>2022-09-13T11:33:29.000Z</time>
      </trkpt>
      <trkpt lat="49.39441" lon="5.81054">
        <ele>294.39999389648</ele>
        <time>2022-09-13T11:33:30.000Z</time>
      </trkpt>
      <trkpt lat="49.39441" lon="5.81052">
        <ele>294.79998779297</ele>
        <time>2022-09-13T11:33:31.000Z</time>
      </trkpt>
      <trkpt lat="49.39442" lon="5.81049">
        <ele>295.39999389648</ele>
        <time>2022-09-13T11:33:32.000Z</time>
      </trkpt>
      <trkpt lat="49.39442" lon="5.81047">
        <ele>295.60000610352</ele>
        <time>2022-09-13T11:33:33.000Z</time>
      </trkpt>
      <trkpt lat="49.39443" lon="5.81045">
        <ele>296.20001220703</ele>
        <time>2022-09-13T11:33:34.000Z</time>
      </trkpt>
      <trkpt lat="49.39444" lon="5.81044">
        <ele>296.39999389648</ele>
        <time>2022-09-13T11:33:35.000Z</time>
      </trkpt>
      <trkpt lat="49.39446" lon="5.81042">
        <ele>296.79998779297</ele>
        <time>2022-09-13T11:33:36.000Z</time>
      </trkpt>
      <trkpt lat="49.39446" lon="5.81042">
        <ele>297</ele>
        <time>2022-09-13T11:33:37.000Z</time>
      </trkpt>
      <trkpt lat="49.39448" lon="5.8104">
        <ele>297.20001220703</ele>
        <time>2022-09-13T11:33:38.000Z</time>
      </trkpt>
      <trkpt lat="49.39449" lon="5.81038">
        <ele>297.39999389648</ele>
        <time>2022-09-13T11:33:39.000Z</time>
      </trkpt>
      <trkpt lat="49.39451" lon="5.81036">
        <ele>297.60000610352</ele>
        <time>2022-09-13T11:33:40.000Z</time>
      </trkpt>
      <trkpt lat="49.39453" lon="5.81034">
        <ele>298.39999389648</ele>
        <time>2022-09-13T11:33:41.000Z</time>
      </trkpt>
      <trkpt lat="49.39455" lon="5.81032">
        <ele>298.60000610352</ele>
        <time>2022-09-13T11:33:42.000Z</time>
      </trkpt>
      <trkpt lat="49.39456" lon="5.81029">
        <ele>299.20001220703</ele>
        <time>2022-09-13T11:33:43.000Z</time>
      </trkpt>
      <trkpt lat="49.39458" lon="5.81027">
        <ele>299.39999389648</ele>
        <time>2022-09-13T11:33:44.000Z</time>
      </trkpt>
      <trkpt lat="49.3946" lon="5.81025">
        <ele>299.79998779297</ele>
        <time>2022-09-13T11:33:45.000Z</time>
      </trkpt>
      <trkpt lat="49.39461" lon="5.81022">
        <ele>300.20001220703</ele>
        <time>2022-09-13T11:33:46.000Z</time>
      </trkpt>
      <trkpt lat="49.39462" lon="5.81021">
        <ele>300.39999389648</ele>
        <time>2022-09-13T11:33:47.000Z</time>
      </trkpt>
      <trkpt lat="49.39464" lon="5.8102">
        <ele>300.60000610352</ele>
        <time>2022-09-13T11:33:48.000Z</time>
      </trkpt>
      <trkpt lat="49.39467" lon="5.81019">
        <ele>300.79998779297</ele>
        <time>2022-09-13T11:33:49.000Z</time>
      </trkpt>
      <trkpt lat="49.39468" lon="5.81017">
        <ele>301.20001220703</ele>
        <time>2022-09-13T11:33:50.000Z</time>
      </trkpt>
      <trkpt lat="49.3947" lon="5.81015">
        <ele>301.60000610352</ele>
        <time>2022-09-13T11:33:51.000Z</time>
      </trkpt>
      <trkpt lat="49.3947" lon="5.81014">
        <ele>301.79998779297</ele>
        <time>2022-09-13T11:33:52.000Z</time>
      </trkpt>
      <trkpt lat="49.39471" lon="5.81013">
        <ele>302.20001220703</ele>
        <time>2022-09-13T11:33:53.000Z</time>
      </trkpt>
      <trkpt lat="49.39472" lon="5.81012">
        <ele>302.20001220703</ele>
        <time>2022-09-13T11:33:54.000Z</time>
      </trkpt>
      <trkpt lat="49.39474" lon="5.8101">
        <ele>302.60000610352</ele>
        <time>2022-09-13T11:33:55.000Z</time>
      </trkpt>
      <trkpt lat="49.39475" lon="5.81009">
        <ele>302.60000610352</ele>
        <time>2022-09-13T11:33:56.000Z</time>
      </trkpt>
      <trkpt lat="49.39477" lon="5.81008">
        <ele>302.79998779297</ele>
        <time>2022-09-13T11:33:57.000Z</time>
      </trkpt>
      <trkpt lat="49.39477" lon="5.81007">
        <ele>303</ele>
        <time>2022-09-13T11:33:58.000Z</time>
      </trkpt>
      <trkpt lat="49.39478" lon="5.81006">
        <ele>303.20001220703</ele>
        <time>2022-09-13T11:33:59.000Z</time>
      </trkpt>
      <trkpt lat="49.39479" lon="5.81005">
        <ele>303.39999389648</ele>
        <time>2022-09-13T11:34:00.000Z</time>
      </trkpt>
      <trkpt lat="49.39482" lon="5.81004">
        <ele>303.39999389648</ele>
        <time>2022-09-13T11:34:01.000Z</time>
      </trkpt>
      <trkpt lat="49.39483" lon="5.81003">
        <ele>303.60000610352</ele>
        <time>2022-09-13T11:34:02.000Z</time>
      </trkpt>
      <trkpt lat="49.39488" lon="5.81002">
        <ele>303.79998779297</ele>
        <time>2022-09-13T11:34:03.000Z</time>
      </trkpt>
      <trkpt lat="49.39489" lon="5.81001">
        <ele>304.20001220703</ele>
        <time>2022-09-13T11:34:04.000Z</time>
      </trkpt>
      <trkpt lat="49.39491" lon="5.81001">
        <ele>304.20001220703</ele>
        <time>2022-09-13T11:34:05.000Z</time>
      </trkpt>
      <trkpt lat="49.39491" lon="5.81002">
        <ele>304.39999389648</ele>
        <time>2022-09-13T11:34:06.000Z</time>
      </trkpt>
      <trkpt lat="49.39492" lon="5.81002">
        <ele>304.60000610352</ele>
        <time>2022-09-13T11:34:07.000Z</time>
      </trkpt>
      <trkpt lat="49.39492" lon="5.81001">
        <ele>304.60000610352</ele>
        <time>2022-09-13T11:34:08.000Z</time>
      </trkpt>
      <trkpt lat="49.39492" lon="5.81001">
        <ele>304.79998779297</ele>
        <time>2022-09-13T11:34:09.000Z</time>
      </trkpt>
      <trkpt lat="49.39495" lon="5.80998">
        <ele>304.79998779297</ele>
        <time>2022-09-13T11:34:10.000Z</time>
      </trkpt>
      <trkpt lat="49.39497" lon="5.80997">
        <ele>305.20001220703</ele>
        <time>2022-09-13T11:34:11.000Z</time>
      </trkpt>
      <trkpt lat="49.39498" lon="5.80997">
        <ele>305.39999389648</ele>
        <time>2022-09-13T11:34:12.000Z</time>
      </trkpt>
      <trkpt lat="49.39498" lon="5.80997">
        <ele>305.60000610352</ele>
        <time>2022-09-13T11:34:13.000Z</time>
      </trkpt>
      <trkpt lat="49.39499" lon="5.80997">
        <ele>306</ele>
        <time>2022-09-13T11:34:14.000Z</time>
      </trkpt>
      <trkpt lat="49.395" lon="5.80997">
        <ele>306</ele>
        <time>2022-09-13T11:34:15.000Z</time>
      </trkpt>
      <trkpt lat="49.39501" lon="5.80997">
        <ele>306.20001220703</ele>
        <time>2022-09-13T11:34:16.000Z</time>
      </trkpt>
      <trkpt lat="49.39503" lon="5.80996">
        <ele>306.39999389648</ele>
        <time>2022-09-13T11:34:17.000Z</time>
      </trkpt>
      <trkpt lat="49.39505" lon="5.80995">
        <ele>306.60000610352</ele>
        <time>2022-09-13T11:34:18.000Z</time>
      </trkpt>
      <trkpt lat="49.39506" lon="5.80995">
        <ele>306.79998779297</ele>
        <time>2022-09-13T11:34:19.000Z</time>
      </trkpt>
      <trkpt lat="49.39508" lon="5.80995">
        <ele>307</ele>
        <time>2022-09-13T11:34:20.000Z</time>
      </trkpt>
      <trkpt lat="49.39509" lon="5.80995">
        <ele>307.39999389648</ele>
        <time>2022-09-13T11:34:21.000Z</time>
      </trkpt>
      <trkpt lat="49.3951" lon="5.80995">
        <ele>307.39999389648</ele>
        <time>2022-09-13T11:34:22.000Z</time>
      </trkpt>
      <trkpt lat="49.39512" lon="5.80995">
        <ele>307.60000610352</ele>
        <time>2022-09-13T11:34:23.000Z</time>
      </trkpt>
      <trkpt lat="49.39514" lon="5.80993">
        <ele>307.79998779297</ele>
        <time>2022-09-13T11:34:24.000Z</time>
      </trkpt>
      <trkpt lat="49.39516" lon="5.80992">
        <ele>308.20001220703</ele>
        <time>2022-09-13T11:34:25.000Z</time>
      </trkpt>
      <trkpt lat="49.39519" lon="5.80992">
        <ele>308.20001220703</ele>
        <time>2022-09-13T11:34:26.000Z</time>
      </trkpt>
      <trkpt lat="49.39521" lon="5.80993">
        <ele>308.60000610352</ele>
        <time>2022-09-13T11:34:27.000Z</time>
      </trkpt>
      <trkpt lat="49.39523" lon="5.80993">
        <ele>309</ele>
        <time>2022-09-13T11:34:28.000Z</time>
      </trkpt>
      <trkpt lat="49.39525" lon="5.80992">
        <ele>309.20001220703</ele>
        <time>2022-09-13T11:34:29.000Z</time>
      </trkpt>
      <trkpt lat="49.39526" lon="5.80993">
        <ele>309.39999389648</ele>
        <time>2022-09-13T11:34:30.000Z</time>
      </trkpt>
      <trkpt lat="49.39529" lon="5.80993">
        <ele>309.60000610352</ele>
        <time>2022-09-13T11:34:31.000Z</time>
      </trkpt>
      <trkpt lat="49.39531" lon="5.80993">
        <ele>309.79998779297</ele>
        <time>2022-09-13T11:34:32.000Z</time>
      </trkpt>
      <trkpt lat="49.39533" lon="5.80993">
        <ele>310</ele>
        <time>2022-09-13T11:34:33.000Z</time>
      </trkpt>
      <trkpt lat="49.39534" lon="5.80993">
        <ele>310.39999389648</ele>
        <time>2022-09-13T11:34:34.000Z</time>
      </trkpt>
      <trkpt lat="49.39536" lon="5.80994">
        <ele>310.60000610352</ele>
        <time>2022-09-13T11:34:35.000Z</time>
      </trkpt>
      <trkpt lat="49.39538" lon="5.80994">
        <ele>311</ele>
        <time>2022-09-13T11:34:36.000Z</time>
      </trkpt>
      <trkpt lat="49.3954" lon="5.80993">
        <ele>311.60000610352</ele>
        <time>2022-09-13T11:34:37.000Z</time>
      </trkpt>
      <trkpt lat="49.39543" lon="5.80992">
        <ele>312</ele>
        <time>2022-09-13T11:34:38.000Z</time>
      </trkpt>
      <trkpt lat="49.39545" lon="5.80991">
        <ele>312.39999389648</ele>
        <time>2022-09-13T11:34:39.000Z</time>
      </trkpt>
      <trkpt lat="49.39547" lon="5.80992">
        <ele>312.60000610352</ele>
        <time>2022-09-13T11:34:40.000Z</time>
      </trkpt>
      <trkpt lat="49.39549" lon="5.80993">
        <ele>312.79998779297</ele>
        <time>2022-09-13T11:34:41.000Z</time>
      </trkpt>
      <trkpt lat="49.39552" lon="5.80994">
        <ele>313</ele>
        <time>2022-09-13T11:34:42.000Z</time>
      </trkpt>
      <trkpt lat="49.39555" lon="5.80993">
        <ele>313.39999389648</ele>
        <time>2022-09-13T11:34:43.000Z</time>
      </trkpt>
      <trkpt lat="49.39558" lon="5.80993">
        <ele>313.60000610352</ele>
        <time>2022-09-13T11:34:44.000Z</time>
      </trkpt>
      <trkpt lat="49.39559" lon="5.80994">
        <ele>313.79998779297</ele>
        <time>2022-09-13T11:34:45.000Z</time>
      </trkpt>
      <trkpt lat="49.39562" lon="5.80993">
        <ele>314.20001220703</ele>
        <time>2022-09-13T11:34:46.000Z</time>
      </trkpt>
      <trkpt lat="49.39564" lon="5.80993">
        <ele>314.39999389648</ele>
        <time>2022-09-13T11:34:47.000Z</time>
      </trkpt>
      <trkpt lat="49.39565" lon="5.80991">
        <ele>314.39999389648</ele>
        <time>2022-09-13T11:34:48.000Z</time>
      </trkpt>
      <trkpt lat="49.39567" lon="5.8099">
        <ele>314.60000610352</ele>
        <time>2022-09-13T11:34:49.000Z</time>
      </trkpt>
      <trkpt lat="49.3957" lon="5.80988">
        <ele>314.79998779297</ele>
        <time>2022-09-13T11:34:50.000Z</time>
      </trkpt>
      <trkpt lat="49.39573" lon="5.80986">
        <ele>315</ele>
        <time>2022-09-13T11:34:51.000Z</time>
      </trkpt>
      <trkpt lat="49.39575" lon="5.80987">
        <ele>315.20001220703</ele>
        <time>2022-09-13T11:34:52.000Z</time>
      </trkpt>
      <trkpt lat="49.39578" lon="5.80986">
        <ele>315.39999389648</ele>
        <time>2022-09-13T11:34:53.000Z</time>
      </trkpt>
      <trkpt lat="49.39579" lon="5.80984">
        <ele>315.60000610352</ele>
        <time>2022-09-13T11:34:54.000Z</time>
      </trkpt>
      <trkpt lat="49.39581" lon="5.80983">
        <ele>315.60000610352</ele>
        <time>2022-09-13T11:34:55.000Z</time>
      </trkpt>
      <trkpt lat="49.39582" lon="5.80984">
        <ele>315.79998779297</ele>
        <time>2022-09-13T11:34:56.000Z</time>
      </trkpt>
      <trkpt lat="49.39583" lon="5.80984">
        <ele>316</ele>
        <time>2022-09-13T11:34:57.000Z</time>
      </trkpt>
      <trkpt lat="49.39584" lon="5.80985">
        <ele>316.39999389648</ele>
        <time>2022-09-13T11:34:58.000Z</time>
      </trkpt>
      <trkpt lat="49.39586" lon="5.80986">
        <ele>316.39999389648</ele>
        <time>2022-09-13T11:34:59.000Z</time>
      </trkpt>
      <trkpt lat="49.39587" lon="5.80986">
        <ele>316.79998779297</ele>
        <time>2022-09-13T11:35:00.000Z</time>
      </trkpt>
      <trkpt lat="49.39588" lon="5.80986">
        <ele>316.79998779297</ele>
        <time>2022-09-13T11:35:01.000Z</time>
      </trkpt>
      <trkpt lat="49.3959" lon="5.80986">
        <ele>317</ele>
        <time>2022-09-13T11:35:02.000Z</time>
      </trkpt>
      <trkpt lat="49.39591" lon="5.80986">
        <ele>317.20001220703</ele>
        <time>2022-09-13T11:35:03.000Z</time>
      </trkpt>
      <trkpt lat="49.39592" lon="5.80986">
        <ele>317.39999389648</ele>
        <time>2022-09-13T11:35:04.000Z</time>
      </trkpt>
      <trkpt lat="49.39595" lon="5.80984">
        <ele>317.60000610352</ele>
        <time>2022-09-13T11:35:05.000Z</time>
      </trkpt>
      <trkpt lat="49.39595" lon="5.80985">
        <ele>317.79998779297</ele>
        <time>2022-09-13T11:35:06.000Z</time>
      </trkpt>
      <trkpt lat="49.39598" lon="5.80982">
        <ele>318</ele>
        <time>2022-09-13T11:35:07.000Z</time>
      </trkpt>
      <trkpt lat="49.39603" lon="5.80979">
        <ele>318.20001220703</ele>
        <time>2022-09-13T11:35:08.000Z</time>
      </trkpt>
      <trkpt lat="49.39606" lon="5.80977">
        <ele>318.39999389648</ele>
        <time>2022-09-13T11:35:09.000Z</time>
      </trkpt>
      <trkpt lat="49.39609" lon="5.80975">
        <ele>318.39999389648</ele>
        <time>2022-09-13T11:35:10.000Z</time>
      </trkpt>
      <trkpt lat="49.39611" lon="5.80974">
        <ele>318.60000610352</ele>
        <time>2022-09-13T11:35:11.000Z</time>
      </trkpt>
      <trkpt lat="49.39611" lon="5.80974">
        <ele>318.79998779297</ele>
        <time>2022-09-13T11:35:12.000Z</time>
      </trkpt>
      <trkpt lat="49.39613" lon="5.80974">
        <ele>319</ele>
        <time>2022-09-13T11:35:13.000Z</time>
      </trkpt>
      <trkpt lat="49.39614" lon="5.80975">
        <ele>319.20001220703</ele>
        <time>2022-09-13T11:35:14.000Z</time>
      </trkpt>
      <trkpt lat="49.39617" lon="5.80973">
        <ele>319.20001220703</ele>
        <time>2022-09-13T11:35:15.000Z</time>
      </trkpt>
      <trkpt lat="49.39619" lon="5.80972">
        <ele>319.60000610352</ele>
        <time>2022-09-13T11:35:16.000Z</time>
      </trkpt>
      <trkpt lat="49.39621" lon="5.8097">
        <ele>319.79998779297</ele>
        <time>2022-09-13T11:35:17.000Z</time>
      </trkpt>
      <trkpt lat="49.39624" lon="5.80968">
        <ele>319.79998779297</ele>
        <time>2022-09-13T11:35:18.000Z</time>
      </trkpt>
      <trkpt lat="49.39625" lon="5.80968">
        <ele>320</ele>
        <time>2022-09-13T11:35:19.000Z</time>
      </trkpt>
      <trkpt lat="49.39627" lon="5.80967">
        <ele>320.20001220703</ele>
        <time>2022-09-13T11:35:20.000Z</time>
      </trkpt>
      <trkpt lat="49.39632" lon="5.80962">
        <ele>320.39999389648</ele>
        <time>2022-09-13T11:35:21.000Z</time>
      </trkpt>
      <trkpt lat="49.39635" lon="5.80959">
        <ele>320.60000610352</ele>
        <time>2022-09-13T11:35:22.000Z</time>
      </trkpt>
      <trkpt lat="49.39637" lon="5.80957">
        <ele>320.60000610352</ele>
        <time>2022-09-13T11:35:23.000Z</time>
      </trkpt>
      <trkpt lat="49.39639" lon="5.80955">
        <ele>320.60000610352</ele>
        <time>2022-09-13T11:35:24.000Z</time>
      </trkpt>
      <trkpt lat="49.3964" lon="5.80955">
        <ele>320.79998779297</ele>
        <time>2022-09-13T11:35:25.000Z</time>
      </trkpt>
      <trkpt lat="49.39641" lon="5.80953">
        <ele>320.79998779297</ele>
        <time>2022-09-13T11:35:26.000Z</time>
      </trkpt>
      <trkpt lat="49.39644" lon="5.80953">
        <ele>320.79998779297</ele>
        <time>2022-09-13T11:35:27.000Z</time>
      </trkpt>
      <trkpt lat="49.39646" lon="5.80952">
        <ele>320.79998779297</ele>
        <time>2022-09-13T11:35:28.000Z</time>
      </trkpt>
      <trkpt lat="49.39647" lon="5.80952">
        <ele>321</ele>
        <time>2022-09-13T11:35:29.000Z</time>
      </trkpt>
      <trkpt lat="49.39648" lon="5.80952">
        <ele>321.20001220703</ele>
        <time>2022-09-13T11:35:30.000Z</time>
      </trkpt>
      <trkpt lat="49.39649" lon="5.80951">
        <ele>321.20001220703</ele>
        <time>2022-09-13T11:35:31.000Z</time>
      </trkpt>
      <trkpt lat="49.39651" lon="5.8095">
        <ele>321.20001220703</ele>
        <time>2022-09-13T11:35:32.000Z</time>
      </trkpt>
      <trkpt lat="49.39654" lon="5.80951">
        <ele>321.20001220703</ele>
        <time>2022-09-13T11:35:33.000Z</time>
      </trkpt>
      <trkpt lat="49.39656" lon="5.8095">
        <ele>321.39999389648</ele>
        <time>2022-09-13T11:35:34.000Z</time>
      </trkpt>
      <trkpt lat="49.3966" lon="5.80947">
        <ele>321.60000610352</ele>
        <time>2022-09-13T11:35:35.000Z</time>
      </trkpt>
      <trkpt lat="49.39662" lon="5.80944">
        <ele>321.79998779297</ele>
        <time>2022-09-13T11:35:36.000Z</time>
      </trkpt>
      <trkpt lat="49.39661" lon="5.80941">
        <ele>321.79998779297</ele>
        <time>2022-09-13T11:35:37.000Z</time>
      </trkpt>
      <trkpt lat="49.3966" lon="5.80939">
        <ele>321.79998779297</ele>
        <time>2022-09-13T11:35:38.000Z</time>
      </trkpt>
      <trkpt lat="49.39659" lon="5.80935">
        <ele>321.79998779297</ele>
        <time>2022-09-13T11:35:39.000Z</time>
      </trkpt>
      <trkpt lat="49.39659" lon="5.80931">
        <ele>321.79998779297</ele>
        <time>2022-09-13T11:35:40.000Z</time>
      </trkpt>
      <trkpt lat="49.3966" lon="5.80927">
        <ele>321.79998779297</ele>
        <time>2022-09-13T11:35:41.000Z</time>
      </trkpt>
      <trkpt lat="49.39662" lon="5.80923">
        <ele>321.79998779297</ele>
        <time>2022-09-13T11:35:42.000Z</time>
      </trkpt>
      <trkpt lat="49.39663" lon="5.80918">
        <ele>321.79998779297</ele>
        <time>2022-09-13T11:35:43.000Z</time>
      </trkpt>
      <trkpt lat="49.39665" lon="5.80914">
        <ele>321.79998779297</ele>
        <time>2022-09-13T11:35:44.000Z</time>
      </trkpt>
      <trkpt lat="49.39668" lon="5.8091">
        <ele>321.79998779297</ele>
        <time>2022-09-13T11:35:45.000Z</time>
      </trkpt>
      <trkpt lat="49.39672" lon="5.80897">
        <ele>321.39999389648</ele>
        <time>2022-09-13T11:35:48.000Z</time>
      </trkpt>
      <trkpt lat="49.39673" lon="5.80892">
        <ele>321.39999389648</ele>
        <time>2022-09-13T11:35:49.000Z</time>
      </trkpt>
      <trkpt lat="49.3968" lon="5.80878">
        <ele>321</ele>
        <time>2022-09-13T11:35:52.000Z</time>
      </trkpt>
      <trkpt lat="49.39682" lon="5.80873">
        <ele>320.79998779297</ele>
        <time>2022-09-13T11:35:53.000Z</time>
      </trkpt>
      <trkpt lat="49.39683" lon="5.80868">
        <ele>320.79998779297</ele>
        <time>2022-09-13T11:35:54.000Z</time>
      </trkpt>
      <trkpt lat="49.39684" lon="5.80864">
        <ele>320.79998779297</ele>
        <time>2022-09-13T11:35:55.000Z</time>
      </trkpt>
      <trkpt lat="49.39686" lon="5.80859">
        <ele>320.60000610352</ele>
        <time>2022-09-13T11:35:56.000Z</time>
      </trkpt>
      <trkpt lat="49.39687" lon="5.80855">
        <ele>320.60000610352</ele>
        <time>2022-09-13T11:35:57.000Z</time>
      </trkpt>
      <trkpt lat="49.39688" lon="5.8085">
        <ele>320.39999389648</ele>
        <time>2022-09-13T11:35:58.000Z</time>
      </trkpt>
      <trkpt lat="49.39688" lon="5.80847">
        <ele>320.39999389648</ele>
        <time>2022-09-13T11:35:59.000Z</time>
      </trkpt>
      <trkpt lat="49.39689" lon="5.80843">
        <ele>320.20001220703</ele>
        <time>2022-09-13T11:36:00.000Z</time>
      </trkpt>
      <trkpt lat="49.39689" lon="5.8084">
        <ele>320.20001220703</ele>
        <time>2022-09-13T11:36:01.000Z</time>
      </trkpt>
      <trkpt lat="49.3969" lon="5.80837">
        <ele>320</ele>
        <time>2022-09-13T11:36:02.000Z</time>
      </trkpt>
      <trkpt lat="49.39692" lon="5.80833">
        <ele>320</ele>
        <time>2022-09-13T11:36:03.000Z</time>
      </trkpt>
      <trkpt lat="49.39693" lon="5.80829">
        <ele>320</ele>
        <time>2022-09-13T11:36:04.000Z</time>
      </trkpt>
      <trkpt lat="49.39693" lon="5.80825">
        <ele>320</ele>
        <time>2022-09-13T11:36:05.000Z</time>
      </trkpt>
      <trkpt lat="49.39693" lon="5.80821">
        <ele>320</ele>
        <time>2022-09-13T11:36:06.000Z</time>
      </trkpt>
      <trkpt lat="49.39694" lon="5.80818">
        <ele>320</ele>
        <time>2022-09-13T11:36:07.000Z</time>
      </trkpt>
      <trkpt lat="49.39694" lon="5.80815">
        <ele>320.20001220703</ele>
        <time>2022-09-13T11:36:08.000Z</time>
      </trkpt>
      <trkpt lat="49.39697" lon="5.80811">
        <ele>320.20001220703</ele>
        <time>2022-09-13T11:36:09.000Z</time>
      </trkpt>
      <trkpt lat="49.39698" lon="5.80809">
        <ele>320.20001220703</ele>
        <time>2022-09-13T11:36:10.000Z</time>
      </trkpt>
      <trkpt lat="49.397" lon="5.80806">
        <ele>320.39999389648</ele>
        <time>2022-09-13T11:36:11.000Z</time>
      </trkpt>
      <trkpt lat="49.39702" lon="5.80802">
        <ele>320.39999389648</ele>
        <time>2022-09-13T11:36:12.000Z</time>
      </trkpt>
      <trkpt lat="49.39702" lon="5.80799">
        <ele>320.39999389648</ele>
        <time>2022-09-13T11:36:13.000Z</time>
      </trkpt>
      <trkpt lat="49.39705" lon="5.80796">
        <ele>320.39999389648</ele>
        <time>2022-09-13T11:36:14.000Z</time>
      </trkpt>
      <trkpt lat="49.39708" lon="5.80792">
        <ele>320.39999389648</ele>
        <time>2022-09-13T11:36:15.000Z</time>
      </trkpt>
      <trkpt lat="49.39708" lon="5.80789">
        <ele>320.60000610352</ele>
        <time>2022-09-13T11:36:16.000Z</time>
      </trkpt>
      <trkpt lat="49.3971" lon="5.80782">
        <ele>320.60000610352</ele>
        <time>2022-09-13T11:36:18.000Z</time>
      </trkpt>
      <trkpt lat="49.39711" lon="5.80779">
        <ele>320.60000610352</ele>
        <time>2022-09-13T11:36:19.000Z</time>
      </trkpt>
      <trkpt lat="49.39716" lon="5.80765">
        <ele>320.79998779297</ele>
        <time>2022-09-13T11:36:23.000Z</time>
      </trkpt>
      <trkpt lat="49.39715" lon="5.80762">
        <ele>320.79998779297</ele>
        <time>2022-09-13T11:36:24.000Z</time>
      </trkpt>
      <trkpt lat="49.39716" lon="5.80759">
        <ele>320.79998779297</ele>
        <time>2022-09-13T11:36:25.000Z</time>
      </trkpt>
      <trkpt lat="49.3972" lon="5.8075">
        <ele>321.20001220703</ele>
        <time>2022-09-13T11:36:28.000Z</time>
      </trkpt>
      <trkpt lat="49.3972" lon="5.80746">
        <ele>321.39999389648</ele>
        <time>2022-09-13T11:36:29.000Z</time>
      </trkpt>
      <trkpt lat="49.39719" lon="5.80742">
        <ele>321.39999389648</ele>
        <time>2022-09-13T11:36:30.000Z</time>
      </trkpt>
      <trkpt lat="49.3972" lon="5.80737">
        <ele>321.39999389648</ele>
        <time>2022-09-13T11:36:31.000Z</time>
      </trkpt>
      <trkpt lat="49.39721" lon="5.80733">
        <ele>321.60000610352</ele>
        <time>2022-09-13T11:36:32.000Z</time>
      </trkpt>
      <trkpt lat="49.39723" lon="5.80729">
        <ele>321.60000610352</ele>
        <time>2022-09-13T11:36:33.000Z</time>
      </trkpt>
      <trkpt lat="49.39725" lon="5.80725">
        <ele>321.60000610352</ele>
        <time>2022-09-13T11:36:34.000Z</time>
      </trkpt>
      <trkpt lat="49.3973" lon="5.80717">
        <ele>321.79998779297</ele>
        <time>2022-09-13T11:36:37.000Z</time>
      </trkpt>
      <trkpt lat="49.39743" lon="5.80684">
        <ele>322.20001220703</ele>
        <time>2022-09-13T11:36:46.000Z</time>
      </trkpt>
      <trkpt lat="49.39747" lon="5.80676">
        <ele>322.20001220703</ele>
        <time>2022-09-13T11:36:49.000Z</time>
      </trkpt>
      <trkpt lat="49.3975" lon="5.80672">
        <ele>322.20001220703</ele>
        <time>2022-09-13T11:36:50.000Z</time>
      </trkpt>
      <trkpt lat="49.39755" lon="5.8066">
        <ele>322.20001220703</ele>
        <time>2022-09-13T11:36:53.000Z</time>
      </trkpt>
      <trkpt lat="49.39759" lon="5.80654">
        <ele>322.20001220703</ele>
        <time>2022-09-13T11:36:55.000Z</time>
      </trkpt>
      <trkpt lat="49.39759" lon="5.8065">
        <ele>322.20001220703</ele>
        <time>2022-09-13T11:36:56.000Z</time>
      </trkpt>
      <trkpt lat="49.39758" lon="5.80644">
        <ele>322.39999389648</ele>
        <time>2022-09-13T11:36:57.000Z</time>
      </trkpt>
      <trkpt lat="49.39759" lon="5.8064">
        <ele>322.39999389648</ele>
        <time>2022-09-13T11:36:58.000Z</time>
      </trkpt>
      <trkpt lat="49.3976" lon="5.80637">
        <ele>322.39999389648</ele>
        <time>2022-09-13T11:36:59.000Z</time>
      </trkpt>
      <trkpt lat="49.39761" lon="5.80634">
        <ele>322.20001220703</ele>
        <time>2022-09-13T11:37:00.000Z</time>
      </trkpt>
      <trkpt lat="49.39762" lon="5.8063">
        <ele>322.20001220703</ele>
        <time>2022-09-13T11:37:01.000Z</time>
      </trkpt>
      <trkpt lat="49.39763" lon="5.80627">
        <ele>322.20001220703</ele>
        <time>2022-09-13T11:37:02.000Z</time>
      </trkpt>
      <trkpt lat="49.39763" lon="5.80624">
        <ele>322.20001220703</ele>
        <time>2022-09-13T11:37:03.000Z</time>
      </trkpt>
      <trkpt lat="49.39765" lon="5.80621">
        <ele>322.20001220703</ele>
        <time>2022-09-13T11:37:04.000Z</time>
      </trkpt>
      <trkpt lat="49.39766" lon="5.80618">
        <ele>322.20001220703</ele>
        <time>2022-09-13T11:37:05.000Z</time>
      </trkpt>
      <trkpt lat="49.39769" lon="5.80604">
        <ele>322.20001220703</ele>
        <time>2022-09-13T11:37:08.000Z</time>
      </trkpt>
      <trkpt lat="49.39769" lon="5.80599">
        <ele>322</ele>
        <time>2022-09-13T11:37:09.000Z</time>
      </trkpt>
      <trkpt lat="49.39769" lon="5.80594">
        <ele>322</ele>
        <time>2022-09-13T11:37:10.000Z</time>
      </trkpt>
      <trkpt lat="49.39768" lon="5.80588">
        <ele>321.79998779297</ele>
        <time>2022-09-13T11:37:11.000Z</time>
      </trkpt>
      <trkpt lat="49.39768" lon="5.80582">
        <ele>321.79998779297</ele>
        <time>2022-09-13T11:37:12.000Z</time>
      </trkpt>
      <trkpt lat="49.39761" lon="5.80554">
        <ele>321</ele>
        <time>2022-09-13T11:37:16.000Z</time>
      </trkpt>
      <trkpt lat="49.39748" lon="5.80515">
        <ele>320.60000610352</ele>
        <time>2022-09-13T11:37:21.000Z</time>
      </trkpt>
      <trkpt lat="49.39743" lon="5.80505">
        <ele>320.39999389648</ele>
        <time>2022-09-13T11:37:22.000Z</time>
      </trkpt>
      <trkpt lat="49.39736" lon="5.80486">
        <ele>320</ele>
        <time>2022-09-13T11:37:24.000Z</time>
      </trkpt>
      <trkpt lat="49.39734" lon="5.80477">
        <ele>319.20001220703</ele>
        <time>2022-09-13T11:37:25.000Z</time>
      </trkpt>
      <trkpt lat="49.39734" lon="5.80467">
        <ele>319</ele>
        <time>2022-09-13T11:37:26.000Z</time>
      </trkpt>
      <trkpt lat="49.39734" lon="5.80458">
        <ele>318.39999389648</ele>
        <time>2022-09-13T11:37:27.000Z</time>
      </trkpt>
      <trkpt lat="49.39732" lon="5.80448">
        <ele>318.20001220703</ele>
        <time>2022-09-13T11:37:28.000Z</time>
      </trkpt>
      <trkpt lat="49.3973" lon="5.80436">
        <ele>317.39999389648</ele>
        <time>2022-09-13T11:37:29.000Z</time>
      </trkpt>
      <trkpt lat="49.39724" lon="5.80403">
        <ele>315.79998779297</ele>
        <time>2022-09-13T11:37:32.000Z</time>
      </trkpt>
      <trkpt lat="49.39721" lon="5.8039">
        <ele>315.60000610352</ele>
        <time>2022-09-13T11:37:33.000Z</time>
      </trkpt>
      <trkpt lat="49.39718" lon="5.80378">
        <ele>315.20001220703</ele>
        <time>2022-09-13T11:37:34.000Z</time>
      </trkpt>
      <trkpt lat="49.3971" lon="5.80354">
        <ele>314.39999389648</ele>
        <time>2022-09-13T11:37:36.000Z</time>
      </trkpt>
      <trkpt lat="49.39702" lon="5.8033">
        <ele>313</ele>
        <time>2022-09-13T11:37:38.000Z</time>
      </trkpt>
      <trkpt lat="49.397" lon="5.80319">
        <ele>312.20001220703</ele>
        <time>2022-09-13T11:37:39.000Z</time>
      </trkpt>
      <trkpt lat="49.39698" lon="5.80309">
        <ele>311.79998779297</ele>
        <time>2022-09-13T11:37:40.000Z</time>
      </trkpt>
      <trkpt lat="49.39698" lon="5.80298">
        <ele>311.20001220703</ele>
        <time>2022-09-13T11:37:41.000Z</time>
      </trkpt>
      <trkpt lat="49.39699" lon="5.80288">
        <ele>310.79998779297</ele>
        <time>2022-09-13T11:37:42.000Z</time>
      </trkpt>
      <trkpt lat="49.39701" lon="5.80279">
        <ele>309.20001220703</ele>
        <time>2022-09-13T11:37:43.000Z</time>
      </trkpt>
      <trkpt lat="49.39703" lon="5.80267">
        <ele>308.60000610352</ele>
        <time>2022-09-13T11:37:44.000Z</time>
      </trkpt>
      <trkpt lat="49.39706" lon="5.80256">
        <ele>307</ele>
        <time>2022-09-13T11:37:45.000Z</time>
      </trkpt>
      <trkpt lat="49.39709" lon="5.80243">
        <ele>306</ele>
        <time>2022-09-13T11:37:46.000Z</time>
      </trkpt>
      <trkpt lat="49.39711" lon="5.80232">
        <ele>305.60000610352</ele>
        <time>2022-09-13T11:37:47.000Z</time>
      </trkpt>
      <trkpt lat="49.39719" lon="5.80209">
        <ele>304</ele>
        <time>2022-09-13T11:37:49.000Z</time>
      </trkpt>
      <trkpt lat="49.39721" lon="5.80201">
        <ele>302.39999389648</ele>
        <time>2022-09-13T11:37:50.000Z</time>
      </trkpt>
      <trkpt lat="49.39724" lon="5.80193">
        <ele>301.39999389648</ele>
        <time>2022-09-13T11:37:51.000Z</time>
      </trkpt>
      <trkpt lat="49.39728" lon="5.80183">
        <ele>299.79998779297</ele>
        <time>2022-09-13T11:37:52.000Z</time>
      </trkpt>
      <trkpt lat="49.39732" lon="5.80174">
        <ele>297.79998779297</ele>
        <time>2022-09-13T11:37:53.000Z</time>
      </trkpt>
      <trkpt lat="49.39737" lon="5.80167">
        <ele>297.20001220703</ele>
        <time>2022-09-13T11:37:54.000Z</time>
      </trkpt>
      <trkpt lat="49.3974" lon="5.80161">
        <ele>295.20001220703</ele>
        <time>2022-09-13T11:37:55.000Z</time>
      </trkpt>
      <trkpt lat="49.39743" lon="5.80154">
        <ele>294</ele>
        <time>2022-09-13T11:37:56.000Z</time>
      </trkpt>
      <trkpt lat="49.39746" lon="5.80149">
        <ele>292.39999389648</ele>
        <time>2022-09-13T11:37:57.000Z</time>
      </trkpt>
      <trkpt lat="49.39751" lon="5.80144">
        <ele>292</ele>
        <time>2022-09-13T11:37:58.000Z</time>
      </trkpt>
      <trkpt lat="49.39754" lon="5.80138">
        <ele>291</ele>
        <time>2022-09-13T11:37:59.000Z</time>
      </trkpt>
      <trkpt lat="49.39758" lon="5.80132">
        <ele>289.79998779297</ele>
        <time>2022-09-13T11:38:00.000Z</time>
      </trkpt>
      <trkpt lat="49.39767" lon="5.80124">
        <ele>289.20001220703</ele>
        <time>2022-09-13T11:38:01.000Z</time>
      </trkpt>
      <trkpt lat="49.39775" lon="5.80118">
        <ele>288</ele>
        <time>2022-09-13T11:38:02.000Z</time>
      </trkpt>
      <trkpt lat="49.39783" lon="5.80112">
        <ele>287</ele>
        <time>2022-09-13T11:38:03.000Z</time>
      </trkpt>
      <trkpt lat="49.3979" lon="5.80106">
        <ele>284.39999389648</ele>
        <time>2022-09-13T11:38:04.000Z</time>
      </trkpt>
      <trkpt lat="49.39797" lon="5.80101">
        <ele>283.60000610352</ele>
        <time>2022-09-13T11:38:05.000Z</time>
      </trkpt>
      <trkpt lat="49.39808" lon="5.80094">
        <ele>282.60000610352</ele>
        <time>2022-09-13T11:38:06.000Z</time>
      </trkpt>
      <trkpt lat="49.39826" lon="5.8008">
        <ele>280.79998779297</ele>
        <time>2022-09-13T11:38:08.000Z</time>
      </trkpt>
      <trkpt lat="49.39828" lon="5.80074">
        <ele>280</ele>
        <time>2022-09-13T11:38:09.000Z</time>
      </trkpt>
      <trkpt lat="49.39832" lon="5.80068">
        <ele>279.60000610352</ele>
        <time>2022-09-13T11:38:10.000Z</time>
      </trkpt>
      <trkpt lat="49.39837" lon="5.80062">
        <ele>279.39999389648</ele>
        <time>2022-09-13T11:38:11.000Z</time>
      </trkpt>
      <trkpt lat="49.39841" lon="5.80057">
        <ele>279.20001220703</ele>
        <time>2022-09-13T11:38:12.000Z</time>
      </trkpt>
      <trkpt lat="49.39845" lon="5.80054">
        <ele>279</ele>
        <time>2022-09-13T11:38:13.000Z</time>
      </trkpt>
      <trkpt lat="49.39848" lon="5.80051">
        <ele>278.60000610352</ele>
        <time>2022-09-13T11:38:14.000Z</time>
      </trkpt>
      <trkpt lat="49.3985" lon="5.80048">
        <ele>278.39999389648</ele>
        <time>2022-09-13T11:38:15.000Z</time>
      </trkpt>
      <trkpt lat="49.39852" lon="5.80046">
        <ele>278.20001220703</ele>
        <time>2022-09-13T11:38:16.000Z</time>
      </trkpt>
      <trkpt lat="49.39853" lon="5.80043">
        <ele>278.20001220703</ele>
        <time>2022-09-13T11:38:17.000Z</time>
      </trkpt>
      <trkpt lat="49.39854" lon="5.80041">
        <ele>278.20001220703</ele>
        <time>2022-09-13T11:38:18.000Z</time>
      </trkpt>
      <trkpt lat="49.39855" lon="5.80039">
        <ele>278</ele>
        <time>2022-09-13T11:38:19.000Z</time>
      </trkpt>
      <trkpt lat="49.39857" lon="5.80038">
        <ele>278</ele>
        <time>2022-09-13T11:38:20.000Z</time>
      </trkpt>
      <trkpt lat="49.39858" lon="5.80036">
        <ele>278</ele>
        <time>2022-09-13T11:38:21.000Z</time>
      </trkpt>
      <trkpt lat="49.39863" lon="5.80028">
        <ele>278.20001220703</ele>
        <time>2022-09-13T11:38:25.000Z</time>
      </trkpt>
      <trkpt lat="49.39864" lon="5.80026">
        <ele>278.20001220703</ele>
        <time>2022-09-13T11:38:26.000Z</time>
      </trkpt>
      <trkpt lat="49.39865" lon="5.80024">
        <ele>278.20001220703</ele>
        <time>2022-09-13T11:38:27.000Z</time>
      </trkpt>
      <trkpt lat="49.39867" lon="5.80022">
        <ele>278.20001220703</ele>
        <time>2022-09-13T11:38:28.000Z</time>
      </trkpt>
      <trkpt lat="49.39872" lon="5.80017">
        <ele>278.39999389648</ele>
        <time>2022-09-13T11:38:30.000Z</time>
      </trkpt>
      <trkpt lat="49.39874" lon="5.80015">
        <ele>278.79998779297</ele>
        <time>2022-09-13T11:38:31.000Z</time>
      </trkpt>
      <trkpt lat="49.39881" lon="5.8001">
        <ele>279.60000610352</ele>
        <time>2022-09-13T11:38:34.000Z</time>
      </trkpt>
      <trkpt lat="49.39896" lon="5.8">
        <ele>280.39999389648</ele>
        <time>2022-09-13T11:38:41.000Z</time>
      </trkpt>
      <trkpt lat="49.39899" lon="5.79999">
        <ele>280.60000610352</ele>
        <time>2022-09-13T11:38:42.000Z</time>
      </trkpt>
      <trkpt lat="49.39904" lon="5.79997">
        <ele>280.79998779297</ele>
        <time>2022-09-13T11:38:44.000Z</time>
      </trkpt>
      <trkpt lat="49.39905" lon="5.79996">
        <ele>281</ele>
        <time>2022-09-13T11:38:45.000Z</time>
      </trkpt>
      <trkpt lat="49.39906" lon="5.79996">
        <ele>281.20001220703</ele>
        <time>2022-09-13T11:38:46.000Z</time>
      </trkpt>
      <trkpt lat="49.39909" lon="5.79996">
        <ele>281.20001220703</ele>
        <time>2022-09-13T11:38:47.000Z</time>
      </trkpt>
      <trkpt lat="49.39912" lon="5.79995">
        <ele>281.39999389648</ele>
        <time>2022-09-13T11:38:48.000Z</time>
      </trkpt>
      <trkpt lat="49.39915" lon="5.79994">
        <ele>281.39999389648</ele>
        <time>2022-09-13T11:38:49.000Z</time>
      </trkpt>
      <trkpt lat="49.3992" lon="5.79988">
        <ele>281.60000610352</ele>
        <time>2022-09-13T11:38:50.000Z</time>
      </trkpt>
      <trkpt lat="49.39921" lon="5.79984">
        <ele>281.60000610352</ele>
        <time>2022-09-13T11:38:51.000Z</time>
      </trkpt>
      <trkpt lat="49.39922" lon="5.79981">
        <ele>281.79998779297</ele>
        <time>2022-09-13T11:38:52.000Z</time>
      </trkpt>
      <trkpt lat="49.39922" lon="5.79977">
        <ele>281.79998779297</ele>
        <time>2022-09-13T11:38:53.000Z</time>
      </trkpt>
      <trkpt lat="49.3992" lon="5.79964">
        <ele>282</ele>
        <time>2022-09-13T11:38:55.000Z</time>
      </trkpt>
      <trkpt lat="49.3992" lon="5.79955">
        <ele>282</ele>
        <time>2022-09-13T11:38:56.000Z</time>
      </trkpt>
      <trkpt lat="49.39923" lon="5.79946">
        <ele>281.79998779297</ele>
        <time>2022-09-13T11:38:57.000Z</time>
      </trkpt>
      <trkpt lat="49.39926" lon="5.79923">
        <ele>281.60000610352</ele>
        <time>2022-09-13T11:38:59.000Z</time>
      </trkpt>
      <trkpt lat="49.39931" lon="5.79901">
        <ele>280.60000610352</ele>
        <time>2022-09-13T11:39:01.000Z</time>
      </trkpt>
      <trkpt lat="49.39931" lon="5.7989">
        <ele>279.79998779297</ele>
        <time>2022-09-13T11:39:02.000Z</time>
      </trkpt>
      <trkpt lat="49.39929" lon="5.79879">
        <ele>279.39999389648</ele>
        <time>2022-09-13T11:39:03.000Z</time>
      </trkpt>
      <trkpt lat="49.39929" lon="5.79871">
        <ele>279</ele>
        <time>2022-09-13T11:39:04.000Z</time>
      </trkpt>
      <trkpt lat="49.39928" lon="5.79864">
        <ele>278.79998779297</ele>
        <time>2022-09-13T11:39:05.000Z</time>
      </trkpt>
      <trkpt lat="49.39927" lon="5.79857">
        <ele>278.60000610352</ele>
        <time>2022-09-13T11:39:06.000Z</time>
      </trkpt>
      <trkpt lat="49.39926" lon="5.79851">
        <ele>278.39999389648</ele>
        <time>2022-09-13T11:39:07.000Z</time>
      </trkpt>
      <trkpt lat="49.39925" lon="5.79844">
        <ele>278</ele>
        <time>2022-09-13T11:39:08.000Z</time>
      </trkpt>
      <trkpt lat="49.39923" lon="5.79837">
        <ele>277.60000610352</ele>
        <time>2022-09-13T11:39:09.000Z</time>
      </trkpt>
      <trkpt lat="49.39922" lon="5.79831">
        <ele>277.60000610352</ele>
        <time>2022-09-13T11:39:10.000Z</time>
      </trkpt>
      <trkpt lat="49.3992" lon="5.79825">
        <ele>277.20001220703</ele>
        <time>2022-09-13T11:39:11.000Z</time>
      </trkpt>
      <trkpt lat="49.39919" lon="5.79819">
        <ele>277.20001220703</ele>
        <time>2022-09-13T11:39:12.000Z</time>
      </trkpt>
      <trkpt lat="49.39917" lon="5.79814">
        <ele>277.20001220703</ele>
        <time>2022-09-13T11:39:13.000Z</time>
      </trkpt>
      <trkpt lat="49.39917" lon="5.79808">
        <ele>277</ele>
        <time>2022-09-13T11:39:14.000Z</time>
      </trkpt>
      <trkpt lat="49.39917" lon="5.79802">
        <ele>276.79998779297</ele>
        <time>2022-09-13T11:39:15.000Z</time>
      </trkpt>
      <trkpt lat="49.39915" lon="5.79796">
        <ele>276.60000610352</ele>
        <time>2022-09-13T11:39:16.000Z</time>
      </trkpt>
      <trkpt lat="49.39912" lon="5.79789">
        <ele>276.60000610352</ele>
        <time>2022-09-13T11:39:17.000Z</time>
      </trkpt>
      <trkpt lat="49.3991" lon="5.79783">
        <ele>276.60000610352</ele>
        <time>2022-09-13T11:39:18.000Z</time>
      </trkpt>
      <trkpt lat="49.39907" lon="5.79777">
        <ele>276.39999389648</ele>
        <time>2022-09-13T11:39:19.000Z</time>
      </trkpt>
      <trkpt lat="49.39905" lon="5.79772">
        <ele>276.39999389648</ele>
        <time>2022-09-13T11:39:20.000Z</time>
      </trkpt>
      <trkpt lat="49.39903" lon="5.79766">
        <ele>276.39999389648</ele>
        <time>2022-09-13T11:39:21.000Z</time>
      </trkpt>
      <trkpt lat="49.39901" lon="5.7976">
        <ele>276.20001220703</ele>
        <time>2022-09-13T11:39:22.000Z</time>
      </trkpt>
      <trkpt lat="49.39899" lon="5.79754">
        <ele>276.20001220703</ele>
        <time>2022-09-13T11:39:23.000Z</time>
      </trkpt>
      <trkpt lat="49.39899" lon="5.79747">
        <ele>276.20001220703</ele>
        <time>2022-09-13T11:39:24.000Z</time>
      </trkpt>
      <trkpt lat="49.399" lon="5.79741">
        <ele>276.20001220703</ele>
        <time>2022-09-13T11:39:25.000Z</time>
      </trkpt>
      <trkpt lat="49.39901" lon="5.79737">
        <ele>276.20001220703</ele>
        <time>2022-09-13T11:39:26.000Z</time>
      </trkpt>
      <trkpt lat="49.399" lon="5.79732">
        <ele>276.20001220703</ele>
        <time>2022-09-13T11:39:27.000Z</time>
      </trkpt>
      <trkpt lat="49.39898" lon="5.79726">
        <ele>276.20001220703</ele>
        <time>2022-09-13T11:39:28.000Z</time>
      </trkpt>
      <trkpt lat="49.39893" lon="5.79721">
        <ele>276.20001220703</ele>
        <time>2022-09-13T11:39:29.000Z</time>
      </trkpt>
      <trkpt lat="49.3989" lon="5.79717">
        <ele>276.20001220703</ele>
        <time>2022-09-13T11:39:30.000Z</time>
      </trkpt>
      <trkpt lat="49.3989" lon="5.79712">
        <ele>276.20001220703</ele>
        <time>2022-09-13T11:39:31.000Z</time>
      </trkpt>
      <trkpt lat="49.3989" lon="5.79707">
        <ele>276.20001220703</ele>
        <time>2022-09-13T11:39:32.000Z</time>
      </trkpt>
      <trkpt lat="49.39889" lon="5.79704">
        <ele>276.20001220703</ele>
        <time>2022-09-13T11:39:33.000Z</time>
      </trkpt>
      <trkpt lat="49.39883" lon="5.79695">
        <ele>276.39999389648</ele>
        <time>2022-09-13T11:39:35.000Z</time>
      </trkpt>
      <trkpt lat="49.39879" lon="5.7969">
        <ele>276.39999389648</ele>
        <time>2022-09-13T11:39:36.000Z</time>
      </trkpt>
      <trkpt lat="49.39877" lon="5.79685">
        <ele>276.60000610352</ele>
        <time>2022-09-13T11:39:37.000Z</time>
      </trkpt>
      <trkpt lat="49.39877" lon="5.79679">
        <ele>276.60000610352</ele>
        <time>2022-09-13T11:39:38.000Z</time>
      </trkpt>
      <trkpt lat="49.39877" lon="5.79676">
        <ele>276.79998779297</ele>
        <time>2022-09-13T11:39:39.000Z</time>
      </trkpt>
      <trkpt lat="49.39878" lon="5.79673">
        <ele>277</ele>
        <time>2022-09-13T11:39:40.000Z</time>
      </trkpt>
      <trkpt lat="49.39879" lon="5.79669">
        <ele>277.20001220703</ele>
        <time>2022-09-13T11:39:41.000Z</time>
      </trkpt>
      <trkpt lat="49.39877" lon="5.79665">
        <ele>277.39999389648</ele>
        <time>2022-09-13T11:39:42.000Z</time>
      </trkpt>
      <trkpt lat="49.39876" lon="5.7966">
        <ele>277.60000610352</ele>
        <time>2022-09-13T11:39:43.000Z</time>
      </trkpt>
      <trkpt lat="49.39874" lon="5.79655">
        <ele>277.60000610352</ele>
        <time>2022-09-13T11:39:44.000Z</time>
      </trkpt>
      <trkpt lat="49.39868" lon="5.79645">
        <ele>277.79998779297</ele>
        <time>2022-09-13T11:39:46.000Z</time>
      </trkpt>
      <trkpt lat="49.39864" lon="5.79629">
        <ele>278.39999389648</ele>
        <time>2022-09-13T11:39:51.000Z</time>
      </trkpt>
      <trkpt lat="49.39863" lon="5.79626">
        <ele>278.39999389648</ele>
        <time>2022-09-13T11:39:52.000Z</time>
      </trkpt>
      <trkpt lat="49.39851" lon="5.79616">
        <ele>278.60000610352</ele>
        <time>2022-09-13T11:39:55.000Z</time>
      </trkpt>
      <trkpt lat="49.39848" lon="5.79613">
        <ele>278.60000610352</ele>
        <time>2022-09-13T11:39:56.000Z</time>
      </trkpt>
      <trkpt lat="49.39847" lon="5.79611">
        <ele>278.60000610352</ele>
        <time>2022-09-13T11:39:57.000Z</time>
      </trkpt>
      <trkpt lat="49.39844" lon="5.79608">
        <ele>278.60000610352</ele>
        <time>2022-09-13T11:39:58.000Z</time>
      </trkpt>
      <trkpt lat="49.39841" lon="5.79605">
        <ele>278.60000610352</ele>
        <time>2022-09-13T11:39:59.000Z</time>
      </trkpt>
      <trkpt lat="49.3984" lon="5.79603">
        <ele>278.60000610352</ele>
        <time>2022-09-13T11:40:00.000Z</time>
      </trkpt>
      <trkpt lat="49.3984" lon="5.79601">
        <ele>278.39999389648</ele>
        <time>2022-09-13T11:40:01.000Z</time>
      </trkpt>
      <trkpt lat="49.39837" lon="5.79598">
        <ele>278.20001220703</ele>
        <time>2022-09-13T11:40:02.000Z</time>
      </trkpt>
      <trkpt lat="49.39834" lon="5.79596">
        <ele>278.20001220703</ele>
        <time>2022-09-13T11:40:03.000Z</time>
      </trkpt>
      <trkpt lat="49.39831" lon="5.79594">
        <ele>278</ele>
        <time>2022-09-13T11:40:04.000Z</time>
      </trkpt>
      <trkpt lat="49.39827" lon="5.79589">
        <ele>278</ele>
        <time>2022-09-13T11:40:05.000Z</time>
      </trkpt>
      <trkpt lat="49.39823" lon="5.79585">
        <ele>277.79998779297</ele>
        <time>2022-09-13T11:40:06.000Z</time>
      </trkpt>
      <trkpt lat="49.3981" lon="5.79571">
        <ele>277.39999389648</ele>
        <time>2022-09-13T11:40:09.000Z</time>
      </trkpt>
      <trkpt lat="49.39804" lon="5.79564">
        <ele>277.20001220703</ele>
        <time>2022-09-13T11:40:11.000Z</time>
      </trkpt>
      <trkpt lat="49.398" lon="5.7956">
        <ele>277</ele>
        <time>2022-09-13T11:40:12.000Z</time>
      </trkpt>
      <trkpt lat="49.39796" lon="5.79557">
        <ele>276.79998779297</ele>
        <time>2022-09-13T11:40:13.000Z</time>
      </trkpt>
      <trkpt lat="49.39791" lon="5.79553">
        <ele>276.79998779297</ele>
        <time>2022-09-13T11:40:14.000Z</time>
      </trkpt>
      <trkpt lat="49.39788" lon="5.79551">
        <ele>276.60000610352</ele>
        <time>2022-09-13T11:40:15.000Z</time>
      </trkpt>
      <trkpt lat="49.39785" lon="5.79549">
        <ele>276.60000610352</ele>
        <time>2022-09-13T11:40:16.000Z</time>
      </trkpt>
      <trkpt lat="49.39783" lon="5.79545">
        <ele>276.20001220703</ele>
        <time>2022-09-13T11:40:17.000Z</time>
      </trkpt>
      <trkpt lat="49.39781" lon="5.79539">
        <ele>276.20001220703</ele>
        <time>2022-09-13T11:40:18.000Z</time>
      </trkpt>
      <trkpt lat="49.39778" lon="5.79534">
        <ele>276.20001220703</ele>
        <time>2022-09-13T11:40:19.000Z</time>
      </trkpt>
      <trkpt lat="49.39777" lon="5.79531">
        <ele>276.20001220703</ele>
        <time>2022-09-13T11:40:20.000Z</time>
      </trkpt>
      <trkpt lat="49.39775" lon="5.79528">
        <ele>276.20001220703</ele>
        <time>2022-09-13T11:40:21.000Z</time>
      </trkpt>
      <trkpt lat="49.39773" lon="5.79527">
        <ele>276.20001220703</ele>
        <time>2022-09-13T11:40:22.000Z</time>
      </trkpt>
      <trkpt lat="49.39772" lon="5.79527">
        <ele>276.20001220703</ele>
        <time>2022-09-13T11:40:23.000Z</time>
      </trkpt>
      <trkpt lat="49.39772" lon="5.79526">
        <ele>276.20001220703</ele>
        <time>2022-09-13T11:40:24.000Z</time>
      </trkpt>
      <trkpt lat="49.39771" lon="5.79525">
        <ele>276.20001220703</ele>
        <time>2022-09-13T11:40:25.000Z</time>
      </trkpt>
      <trkpt lat="49.39769" lon="5.79523">
        <ele>276.20001220703</ele>
        <time>2022-09-13T11:40:26.000Z</time>
      </trkpt>
      <trkpt lat="49.39763" lon="5.79516">
        <ele>276.20001220703</ele>
        <time>2022-09-13T11:40:28.000Z</time>
      </trkpt>
      <trkpt lat="49.39762" lon="5.79514">
        <ele>276.20001220703</ele>
        <time>2022-09-13T11:40:29.000Z</time>
      </trkpt>
      <trkpt lat="49.3976" lon="5.79513">
        <ele>276.20001220703</ele>
        <time>2022-09-13T11:40:30.000Z</time>
      </trkpt>
      <trkpt lat="49.39759" lon="5.7951">
        <ele>276.39999389648</ele>
        <time>2022-09-13T11:40:31.000Z</time>
      </trkpt>
      <trkpt lat="49.39756" lon="5.79507">
        <ele>276.39999389648</ele>
        <time>2022-09-13T11:40:32.000Z</time>
      </trkpt>
      <trkpt lat="49.39742" lon="5.7949">
        <ele>276.39999389648</ele>
        <time>2022-09-13T11:40:38.000Z</time>
      </trkpt>
      <trkpt lat="49.3974" lon="5.79487">
        <ele>276.20001220703</ele>
        <time>2022-09-13T11:40:39.000Z</time>
      </trkpt>
      <trkpt lat="49.39725" lon="5.79462">
        <ele>276</ele>
        <time>2022-09-13T11:40:45.000Z</time>
      </trkpt>
      <trkpt lat="49.39721" lon="5.79448">
        <ele>276</ele>
        <time>2022-09-13T11:40:48.000Z</time>
      </trkpt>
      <trkpt lat="49.39716" lon="5.79436">
        <ele>276</ele>
        <time>2022-09-13T11:40:50.000Z</time>
      </trkpt>
      <trkpt lat="49.39713" lon="5.79432">
        <ele>276</ele>
        <time>2022-09-13T11:40:51.000Z</time>
      </trkpt>
      <trkpt lat="49.3971" lon="5.79425">
        <ele>276</ele>
        <time>2022-09-13T11:40:52.000Z</time>
      </trkpt>
      <trkpt lat="49.39706" lon="5.79411">
        <ele>276</ele>
        <time>2022-09-13T11:40:55.000Z</time>
      </trkpt>
      <trkpt lat="49.39705" lon="5.79405">
        <ele>276</ele>
        <time>2022-09-13T11:40:56.000Z</time>
      </trkpt>
      <trkpt lat="49.39703" lon="5.79397">
        <ele>276</ele>
        <time>2022-09-13T11:40:57.000Z</time>
      </trkpt>
      <trkpt lat="49.39702" lon="5.7939">
        <ele>276</ele>
        <time>2022-09-13T11:40:58.000Z</time>
      </trkpt>
      <trkpt lat="49.39701" lon="5.79374">
        <ele>276</ele>
        <time>2022-09-13T11:41:01.000Z</time>
      </trkpt>
      <trkpt lat="49.39701" lon="5.79356">
        <ele>275.79998779297</ele>
        <time>2022-09-13T11:41:05.000Z</time>
      </trkpt>
      <trkpt lat="49.39702" lon="5.79351">
        <ele>275.79998779297</ele>
        <time>2022-09-13T11:41:06.000Z</time>
      </trkpt>
      <trkpt lat="49.39702" lon="5.79346">
        <ele>275.79998779297</ele>
        <time>2022-09-13T11:41:07.000Z</time>
      </trkpt>
      <trkpt lat="49.39705" lon="5.79317">
        <ele>276.60000610352</ele>
        <time>2022-09-13T11:41:13.000Z</time>
      </trkpt>
      <trkpt lat="49.39704" lon="5.79309">
        <ele>276.60000610352</ele>
        <time>2022-09-13T11:41:15.000Z</time>
      </trkpt>
      <trkpt lat="49.39705" lon="5.79306">
        <ele>276.60000610352</ele>
        <time>2022-09-13T11:41:16.000Z</time>
      </trkpt>
      <trkpt lat="49.39705" lon="5.79303">
        <ele>276.39999389648</ele>
        <time>2022-09-13T11:41:17.000Z</time>
      </trkpt>
      <trkpt lat="49.39705" lon="5.793">
        <ele>276.39999389648</ele>
        <time>2022-09-13T11:41:18.000Z</time>
      </trkpt>
      <trkpt lat="49.39706" lon="5.79297">
        <ele>276.39999389648</ele>
        <time>2022-09-13T11:41:19.000Z</time>
      </trkpt>
      <trkpt lat="49.39708" lon="5.79294">
        <ele>276.20001220703</ele>
        <time>2022-09-13T11:41:20.000Z</time>
      </trkpt>
      <trkpt lat="49.39709" lon="5.79292">
        <ele>276.20001220703</ele>
        <time>2022-09-13T11:41:21.000Z</time>
      </trkpt>
      <trkpt lat="49.39711" lon="5.7929">
        <ele>276.20001220703</ele>
        <time>2022-09-13T11:41:22.000Z</time>
      </trkpt>
      <trkpt lat="49.39713" lon="5.79287">
        <ele>276.20001220703</ele>
        <time>2022-09-13T11:41:23.000Z</time>
      </trkpt>
      <trkpt lat="49.39713" lon="5.79285">
        <ele>276.20001220703</ele>
        <time>2022-09-13T11:41:24.000Z</time>
      </trkpt>
      <trkpt lat="49.39713" lon="5.79283">
        <ele>276.20001220703</ele>
        <time>2022-09-13T11:41:25.000Z</time>
      </trkpt>
      <trkpt lat="49.39714" lon="5.79281">
        <ele>276.20001220703</ele>
        <time>2022-09-13T11:41:26.000Z</time>
      </trkpt>
      <trkpt lat="49.39719" lon="5.7927">
        <ele>276.20001220703</ele>
        <time>2022-09-13T11:41:30.000Z</time>
      </trkpt>
      <trkpt lat="49.39722" lon="5.79268">
        <ele>276.20001220703</ele>
        <time>2022-09-13T11:41:31.000Z</time>
      </trkpt>
      <trkpt lat="49.39724" lon="5.79266">
        <ele>276.39999389648</ele>
        <time>2022-09-13T11:41:32.000Z</time>
      </trkpt>
      <trkpt lat="49.39727" lon="5.79261">
        <ele>276.39999389648</ele>
        <time>2022-09-13T11:41:34.000Z</time>
      </trkpt>
      <trkpt lat="49.39728" lon="5.79258">
        <ele>276.39999389648</ele>
        <time>2022-09-13T11:41:35.000Z</time>
      </trkpt>
      <trkpt lat="49.39729" lon="5.79254">
        <ele>276.39999389648</ele>
        <time>2022-09-13T11:41:36.000Z</time>
      </trkpt>
      <trkpt lat="49.39735" lon="5.7924">
        <ele>276.79998779297</ele>
        <time>2022-09-13T11:41:40.000Z</time>
      </trkpt>
      <trkpt lat="49.39736" lon="5.79238">
        <ele>276.79998779297</ele>
        <time>2022-09-13T11:41:41.000Z</time>
      </trkpt>
      <trkpt lat="49.39738" lon="5.79236">
        <ele>276.79998779297</ele>
        <time>2022-09-13T11:41:42.000Z</time>
      </trkpt>
      <trkpt lat="49.3974" lon="5.79232">
        <ele>277</ele>
        <time>2022-09-13T11:41:43.000Z</time>
      </trkpt>
      <trkpt lat="49.39743" lon="5.79228">
        <ele>277</ele>
        <time>2022-09-13T11:41:45.000Z</time>
      </trkpt>
      <trkpt lat="49.39744" lon="5.79227">
        <ele>277</ele>
        <time>2022-09-13T11:41:46.000Z</time>
      </trkpt>
      <trkpt lat="49.39747" lon="5.79223">
        <ele>277.39999389648</ele>
        <time>2022-09-13T11:41:47.000Z</time>
      </trkpt>
      <trkpt lat="49.39749" lon="5.7922">
        <ele>277.60000610352</ele>
        <time>2022-09-13T11:41:48.000Z</time>
      </trkpt>
      <trkpt lat="49.3975" lon="5.7922">
        <ele>277.60000610352</ele>
        <time>2022-09-13T11:41:49.000Z</time>
      </trkpt>
      <trkpt lat="49.39752" lon="5.79213">
        <ele>278.79998779297</ele>
        <time>2022-09-13T11:41:52.000Z</time>
      </trkpt>
      <trkpt lat="49.39752" lon="5.79213">
        <ele>279.20001220703</ele>
        <time>2022-09-13T11:41:53.000Z</time>
      </trkpt>
      <trkpt lat="49.39752" lon="5.79213">
        <ele>279.60000610352</ele>
        <time>2022-09-13T11:41:54.000Z</time>
      </trkpt>
      <trkpt lat="49.39754" lon="5.79213">
        <ele>280.39999389648</ele>
        <time>2022-09-13T11:41:55.000Z</time>
      </trkpt>
      <trkpt lat="49.39756" lon="5.79213">
        <ele>280.60000610352</ele>
        <time>2022-09-13T11:41:56.000Z</time>
      </trkpt>
      <trkpt lat="49.39756" lon="5.79213">
        <ele>281.60000610352</ele>
        <time>2022-09-13T11:41:57.000Z</time>
      </trkpt>
      <trkpt lat="49.39756" lon="5.79213">
        <ele>282</ele>
        <time>2022-09-13T11:41:58.000Z</time>
      </trkpt>
      <trkpt lat="49.39759" lon="5.79212">
        <ele>282.60000610352</ele>
        <time>2022-09-13T11:41:59.000Z</time>
      </trkpt>
      <trkpt lat="49.39761" lon="5.79211">
        <ele>282.60000610352</ele>
        <time>2022-09-13T11:42:00.000Z</time>
      </trkpt>
      <trkpt lat="49.39764" lon="5.7921">
        <ele>283.20001220703</ele>
        <time>2022-09-13T11:42:01.000Z</time>
      </trkpt>
      <trkpt lat="49.39766" lon="5.79208">
        <ele>283.60000610352</ele>
        <time>2022-09-13T11:42:02.000Z</time>
      </trkpt>
      <trkpt lat="49.39768" lon="5.79208">
        <ele>284.39999389648</ele>
        <time>2022-09-13T11:42:03.000Z</time>
      </trkpt>
      <trkpt lat="49.39773" lon="5.79206">
        <ele>284.79998779297</ele>
        <time>2022-09-13T11:42:04.000Z</time>
      </trkpt>
      <trkpt lat="49.39773" lon="5.79206">
        <ele>285.20001220703</ele>
        <time>2022-09-13T11:42:05.000Z</time>
      </trkpt>
      <trkpt lat="49.3978" lon="5.79205">
        <ele>286</ele>
        <time>2022-09-13T11:42:06.000Z</time>
      </trkpt>
      <trkpt lat="49.39783" lon="5.79204">
        <ele>286.39999389648</ele>
        <time>2022-09-13T11:42:07.000Z</time>
      </trkpt>
      <trkpt lat="49.39785" lon="5.79203">
        <ele>287.20001220703</ele>
        <time>2022-09-13T11:42:08.000Z</time>
      </trkpt>
      <trkpt lat="49.39787" lon="5.79203">
        <ele>287.39999389648</ele>
        <time>2022-09-13T11:42:09.000Z</time>
      </trkpt>
      <trkpt lat="49.39788" lon="5.79202">
        <ele>287.79998779297</ele>
        <time>2022-09-13T11:42:10.000Z</time>
      </trkpt>
      <trkpt lat="49.3979" lon="5.79202">
        <ele>288.60000610352</ele>
        <time>2022-09-13T11:42:11.000Z</time>
      </trkpt>
      <trkpt lat="49.39794" lon="5.79202">
        <ele>288.79998779297</ele>
        <time>2022-09-13T11:42:12.000Z</time>
      </trkpt>
      <trkpt lat="49.39797" lon="5.79201">
        <ele>289.20001220703</ele>
        <time>2022-09-13T11:42:13.000Z</time>
      </trkpt>
      <trkpt lat="49.39799" lon="5.79201">
        <ele>289.39999389648</ele>
        <time>2022-09-13T11:42:14.000Z</time>
      </trkpt>
      <trkpt lat="49.398" lon="5.79201">
        <ele>290</ele>
        <time>2022-09-13T11:42:15.000Z</time>
      </trkpt>
      <trkpt lat="49.39802" lon="5.79201">
        <ele>290.39999389648</ele>
        <time>2022-09-13T11:42:16.000Z</time>
      </trkpt>
      <trkpt lat="49.39804" lon="5.79201">
        <ele>291.20001220703</ele>
        <time>2022-09-13T11:42:17.000Z</time>
      </trkpt>
      <trkpt lat="49.39806" lon="5.79201">
        <ele>291.60000610352</ele>
        <time>2022-09-13T11:42:18.000Z</time>
      </trkpt>
      <trkpt lat="49.39808" lon="5.79202">
        <ele>291.79998779297</ele>
        <time>2022-09-13T11:42:19.000Z</time>
      </trkpt>
      <trkpt lat="49.39808" lon="5.79201">
        <ele>292.39999389648</ele>
        <time>2022-09-13T11:42:20.000Z</time>
      </trkpt>
      <trkpt lat="49.3981" lon="5.79201">
        <ele>292.60000610352</ele>
        <time>2022-09-13T11:42:21.000Z</time>
      </trkpt>
      <trkpt lat="49.39811" lon="5.79202">
        <ele>293.20001220703</ele>
        <time>2022-09-13T11:42:22.000Z</time>
      </trkpt>
      <trkpt lat="49.39814" lon="5.79199">
        <ele>293.39999389648</ele>
        <time>2022-09-13T11:42:23.000Z</time>
      </trkpt>
      <trkpt lat="49.39816" lon="5.79199">
        <ele>294</ele>
        <time>2022-09-13T11:42:24.000Z</time>
      </trkpt>
      <trkpt lat="49.39817" lon="5.79199">
        <ele>294.39999389648</ele>
        <time>2022-09-13T11:42:25.000Z</time>
      </trkpt>
      <trkpt lat="49.39819" lon="5.79199">
        <ele>294.60000610352</ele>
        <time>2022-09-13T11:42:26.000Z</time>
      </trkpt>
      <trkpt lat="49.39821" lon="5.79198">
        <ele>295</ele>
        <time>2022-09-13T11:42:27.000Z</time>
      </trkpt>
      <trkpt lat="49.39823" lon="5.79197">
        <ele>295.20001220703</ele>
        <time>2022-09-13T11:42:28.000Z</time>
      </trkpt>
      <trkpt lat="49.39825" lon="5.79197">
        <ele>295.60000610352</ele>
        <time>2022-09-13T11:42:29.000Z</time>
      </trkpt>
      <trkpt lat="49.39827" lon="5.79198">
        <ele>295.79998779297</ele>
        <time>2022-09-13T11:42:30.000Z</time>
      </trkpt>
      <trkpt lat="49.3983" lon="5.79198">
        <ele>296.20001220703</ele>
        <time>2022-09-13T11:42:31.000Z</time>
      </trkpt>
      <trkpt lat="49.39835" lon="5.79194">
        <ele>296.39999389648</ele>
        <time>2022-09-13T11:42:32.000Z</time>
      </trkpt>
      <trkpt lat="49.39837" lon="5.79193">
        <ele>296.79998779297</ele>
        <time>2022-09-13T11:42:33.000Z</time>
      </trkpt>
      <trkpt lat="49.39838" lon="5.79194">
        <ele>297</ele>
        <time>2022-09-13T11:42:34.000Z</time>
      </trkpt>
      <trkpt lat="49.39839" lon="5.79195">
        <ele>297</ele>
        <time>2022-09-13T11:42:35.000Z</time>
      </trkpt>
      <trkpt lat="49.39841" lon="5.79196">
        <ele>297.20001220703</ele>
        <time>2022-09-13T11:42:36.000Z</time>
      </trkpt>
      <trkpt lat="49.39844" lon="5.79197">
        <ele>297.39999389648</ele>
        <time>2022-09-13T11:42:37.000Z</time>
      </trkpt>
      <trkpt lat="49.39846" lon="5.79197">
        <ele>297.60000610352</ele>
        <time>2022-09-13T11:42:38.000Z</time>
      </trkpt>
      <trkpt lat="49.39848" lon="5.79198">
        <ele>297.79998779297</ele>
        <time>2022-09-13T11:42:39.000Z</time>
      </trkpt>
      <trkpt lat="49.3985" lon="5.79198">
        <ele>298</ele>
        <time>2022-09-13T11:42:40.000Z</time>
      </trkpt>
      <trkpt lat="49.39852" lon="5.79197">
        <ele>298.39999389648</ele>
        <time>2022-09-13T11:42:41.000Z</time>
      </trkpt>
      <trkpt lat="49.39854" lon="5.79196">
        <ele>298.60000610352</ele>
        <time>2022-09-13T11:42:42.000Z</time>
      </trkpt>
      <trkpt lat="49.39856" lon="5.79195">
        <ele>298.79998779297</ele>
        <time>2022-09-13T11:42:43.000Z</time>
      </trkpt>
      <trkpt lat="49.39858" lon="5.79195">
        <ele>299</ele>
        <time>2022-09-13T11:42:44.000Z</time>
      </trkpt>
      <trkpt lat="49.39861" lon="5.79194">
        <ele>299.20001220703</ele>
        <time>2022-09-13T11:42:45.000Z</time>
      </trkpt>
      <trkpt lat="49.39863" lon="5.79193">
        <ele>299.20001220703</ele>
        <time>2022-09-13T11:42:46.000Z</time>
      </trkpt>
      <trkpt lat="49.39864" lon="5.79193">
        <ele>299.39999389648</ele>
        <time>2022-09-13T11:42:47.000Z</time>
      </trkpt>
      <trkpt lat="49.39866" lon="5.79194">
        <ele>299.60000610352</ele>
        <time>2022-09-13T11:42:48.000Z</time>
      </trkpt>
      <trkpt lat="49.39869" lon="5.79195">
        <ele>299.60000610352</ele>
        <time>2022-09-13T11:42:49.000Z</time>
      </trkpt>
      <trkpt lat="49.39872" lon="5.79194">
        <ele>299.60000610352</ele>
        <time>2022-09-13T11:42:50.000Z</time>
      </trkpt>
      <trkpt lat="49.39874" lon="5.79193">
        <ele>299.60000610352</ele>
        <time>2022-09-13T11:42:51.000Z</time>
      </trkpt>
      <trkpt lat="49.39877" lon="5.79192">
        <ele>299.79998779297</ele>
        <time>2022-09-13T11:42:52.000Z</time>
      </trkpt>
      <trkpt lat="49.39879" lon="5.79192">
        <ele>299.79998779297</ele>
        <time>2022-09-13T11:42:53.000Z</time>
      </trkpt>
      <trkpt lat="49.3988" lon="5.79193">
        <ele>300</ele>
        <time>2022-09-13T11:42:54.000Z</time>
      </trkpt>
      <trkpt lat="49.39884" lon="5.79194">
        <ele>300</ele>
        <time>2022-09-13T11:42:55.000Z</time>
      </trkpt>
      <trkpt lat="49.39885" lon="5.79195">
        <ele>300</ele>
        <time>2022-09-13T11:42:56.000Z</time>
      </trkpt>
      <trkpt lat="49.39887" lon="5.79196">
        <ele>300</ele>
        <time>2022-09-13T11:42:57.000Z</time>
      </trkpt>
      <trkpt lat="49.39891" lon="5.79196">
        <ele>300</ele>
        <time>2022-09-13T11:42:58.000Z</time>
      </trkpt>
      <trkpt lat="49.39894" lon="5.79195">
        <ele>300</ele>
        <time>2022-09-13T11:42:59.000Z</time>
      </trkpt>
      <trkpt lat="49.39899" lon="5.79193">
        <ele>300</ele>
        <time>2022-09-13T11:43:00.000Z</time>
      </trkpt>
      <trkpt lat="49.39904" lon="5.7919">
        <ele>300</ele>
        <time>2022-09-13T11:43:01.000Z</time>
      </trkpt>
      <trkpt lat="49.39906" lon="5.7919">
        <ele>300</ele>
        <time>2022-09-13T11:43:02.000Z</time>
      </trkpt>
      <trkpt lat="49.3991" lon="5.7919">
        <ele>300</ele>
        <time>2022-09-13T11:43:03.000Z</time>
      </trkpt>
      <trkpt lat="49.39913" lon="5.7919">
        <ele>300</ele>
        <time>2022-09-13T11:43:04.000Z</time>
      </trkpt>
      <trkpt lat="49.3992" lon="5.7919">
        <ele>300</ele>
        <time>2022-09-13T11:43:05.000Z</time>
      </trkpt>
      <trkpt lat="49.39929" lon="5.79188">
        <ele>299.79998779297</ele>
        <time>2022-09-13T11:43:06.000Z</time>
      </trkpt>
      <trkpt lat="49.39938" lon="5.79187">
        <ele>299.60000610352</ele>
        <time>2022-09-13T11:43:07.000Z</time>
      </trkpt>
      <trkpt lat="49.39949" lon="5.79186">
        <ele>298.79998779297</ele>
        <time>2022-09-13T11:43:08.000Z</time>
      </trkpt>
      <trkpt lat="49.39964" lon="5.79187">
        <ele>297.79998779297</ele>
        <time>2022-09-13T11:43:10.000Z</time>
      </trkpt>
      <trkpt lat="49.3997" lon="5.79187">
        <ele>297</ele>
        <time>2022-09-13T11:43:11.000Z</time>
      </trkpt>
      <trkpt lat="49.39977" lon="5.79187">
        <ele>296.79998779297</ele>
        <time>2022-09-13T11:43:12.000Z</time>
      </trkpt>
      <trkpt lat="49.39982" lon="5.79185">
        <ele>296.39999389648</ele>
        <time>2022-09-13T11:43:13.000Z</time>
      </trkpt>
      <trkpt lat="49.39991" lon="5.79181">
        <ele>296.20001220703</ele>
        <time>2022-09-13T11:43:14.000Z</time>
      </trkpt>
      <trkpt lat="49.4" lon="5.79179">
        <ele>295.79998779297</ele>
        <time>2022-09-13T11:43:15.000Z</time>
      </trkpt>
      <trkpt lat="49.40006" lon="5.79181">
        <ele>295.39999389648</ele>
        <time>2022-09-13T11:43:16.000Z</time>
      </trkpt>
      <trkpt lat="49.4001" lon="5.79181">
        <ele>295</ele>
        <time>2022-09-13T11:43:17.000Z</time>
      </trkpt>
      <trkpt lat="49.40012" lon="5.79181">
        <ele>294.39999389648</ele>
        <time>2022-09-13T11:43:18.000Z</time>
      </trkpt>
      <trkpt lat="49.40015" lon="5.7918">
        <ele>294.20001220703</ele>
        <time>2022-09-13T11:43:19.000Z</time>
      </trkpt>
      <trkpt lat="49.40018" lon="5.79179">
        <ele>294.20001220703</ele>
        <time>2022-09-13T11:43:20.000Z</time>
      </trkpt>
      <trkpt lat="49.40022" lon="5.79179">
        <ele>294.20001220703</ele>
        <time>2022-09-13T11:43:21.000Z</time>
      </trkpt>
      <trkpt lat="49.40024" lon="5.79179">
        <ele>294</ele>
        <time>2022-09-13T11:43:22.000Z</time>
      </trkpt>
      <trkpt lat="49.40031" lon="5.7918">
        <ele>294</ele>
        <time>2022-09-13T11:43:24.000Z</time>
      </trkpt>
      <trkpt lat="49.40034" lon="5.79179">
        <ele>294</ele>
        <time>2022-09-13T11:43:25.000Z</time>
      </trkpt>
      <trkpt lat="49.40037" lon="5.7918">
        <ele>294</ele>
        <time>2022-09-13T11:43:26.000Z</time>
      </trkpt>
      <trkpt lat="49.4004" lon="5.79179">
        <ele>294</ele>
        <time>2022-09-13T11:43:27.000Z</time>
      </trkpt>
      <trkpt lat="49.40044" lon="5.79179">
        <ele>294</ele>
        <time>2022-09-13T11:43:28.000Z</time>
      </trkpt>
      <trkpt lat="49.40052" lon="5.79178">
        <ele>294.39999389648</ele>
        <time>2022-09-13T11:43:31.000Z</time>
      </trkpt>
      <trkpt lat="49.40053" lon="5.79178">
        <ele>294.39999389648</ele>
        <time>2022-09-13T11:43:32.000Z</time>
      </trkpt>
      <trkpt lat="49.40058" lon="5.79178">
        <ele>294.39999389648</ele>
        <time>2022-09-13T11:43:33.000Z</time>
      </trkpt>
      <trkpt lat="49.4006" lon="5.79179">
        <ele>294.39999389648</ele>
        <time>2022-09-13T11:43:34.000Z</time>
      </trkpt>
      <trkpt lat="49.40061" lon="5.79179">
        <ele>294.60000610352</ele>
        <time>2022-09-13T11:43:35.000Z</time>
      </trkpt>
      <trkpt lat="49.40063" lon="5.7918">
        <ele>294.79998779297</ele>
        <time>2022-09-13T11:43:36.000Z</time>
      </trkpt>
      <trkpt lat="49.40067" lon="5.79181">
        <ele>295.39999389648</ele>
        <time>2022-09-13T11:43:38.000Z</time>
      </trkpt>
      <trkpt lat="49.40072" lon="5.7918">
        <ele>295.20001220703</ele>
        <time>2022-09-13T11:43:39.000Z</time>
      </trkpt>
      <trkpt lat="49.4008" lon="5.7918">
        <ele>295.60000610352</ele>
        <time>2022-09-13T11:43:40.000Z</time>
      </trkpt>
      <trkpt lat="49.40083" lon="5.7918">
        <ele>295.79998779297</ele>
        <time>2022-09-13T11:43:41.000Z</time>
      </trkpt>
      <trkpt lat="49.40085" lon="5.79179">
        <ele>295.79998779297</ele>
        <time>2022-09-13T11:43:42.000Z</time>
      </trkpt>
      <trkpt lat="49.40087" lon="5.79179">
        <ele>295.79998779297</ele>
        <time>2022-09-13T11:43:43.000Z</time>
      </trkpt>
      <trkpt lat="49.40111" lon="5.79175">
        <ele>296.60000610352</ele>
        <time>2022-09-13T11:43:49.000Z</time>
      </trkpt>
      <trkpt lat="49.40114" lon="5.79174">
        <ele>296.60000610352</ele>
        <time>2022-09-13T11:43:50.000Z</time>
      </trkpt>
      <trkpt lat="49.40126" lon="5.79171">
        <ele>296.60000610352</ele>
        <time>2022-09-13T11:43:54.000Z</time>
      </trkpt>
      <trkpt lat="49.4013" lon="5.79172">
        <ele>296.79998779297</ele>
        <time>2022-09-13T11:43:55.000Z</time>
      </trkpt>
      <trkpt lat="49.40138" lon="5.79171">
        <ele>296.79998779297</ele>
        <time>2022-09-13T11:43:57.000Z</time>
      </trkpt>
      <trkpt lat="49.40142" lon="5.79171">
        <ele>296.79998779297</ele>
        <time>2022-09-13T11:43:58.000Z</time>
      </trkpt>
      <trkpt lat="49.40147" lon="5.79171">
        <ele>296.79998779297</ele>
        <time>2022-09-13T11:44:01.000Z</time>
      </trkpt>
      <trkpt lat="49.4015" lon="5.7917">
        <ele>296.79998779297</ele>
        <time>2022-09-13T11:44:02.000Z</time>
      </trkpt>
      <trkpt lat="49.40156" lon="5.79168">
        <ele>297</ele>
        <time>2022-09-13T11:44:03.000Z</time>
      </trkpt>
      <trkpt lat="49.4016" lon="5.79169">
        <ele>297</ele>
        <time>2022-09-13T11:44:04.000Z</time>
      </trkpt>
      <trkpt lat="49.40178" lon="5.7917">
        <ele>296.79998779297</ele>
        <time>2022-09-13T11:44:08.000Z</time>
      </trkpt>
      <trkpt lat="49.40209" lon="5.79167">
        <ele>296</ele>
        <time>2022-09-13T11:44:14.000Z</time>
      </trkpt>
      <trkpt lat="49.40228" lon="5.79161">
        <ele>295.39999389648</ele>
        <time>2022-09-13T11:44:17.000Z</time>
      </trkpt>
      <trkpt lat="49.40228" lon="5.79159">
        <ele>295.20001220703</ele>
        <time>2022-09-13T11:44:18.000Z</time>
      </trkpt>
      <trkpt lat="49.40229" lon="5.79157">
        <ele>295.20001220703</ele>
        <time>2022-09-13T11:44:19.000Z</time>
      </trkpt>
      <trkpt lat="49.40233" lon="5.79154">
        <ele>295</ele>
        <time>2022-09-13T11:44:20.000Z</time>
      </trkpt>
      <trkpt lat="49.40236" lon="5.7913">
        <ele>295</ele>
        <time>2022-09-13T11:44:25.000Z</time>
      </trkpt>
      <trkpt lat="49.40235" lon="5.79125">
        <ele>294.79998779297</ele>
        <time>2022-09-13T11:44:26.000Z</time>
      </trkpt>
      <trkpt lat="49.40235" lon="5.79119">
        <ele>294.79998779297</ele>
        <time>2022-09-13T11:44:27.000Z</time>
      </trkpt>
      <trkpt lat="49.40235" lon="5.79114">
        <ele>294.60000610352</ele>
        <time>2022-09-13T11:44:28.000Z</time>
      </trkpt>
      <trkpt lat="49.40236" lon="5.79109">
        <ele>294.39999389648</ele>
        <time>2022-09-13T11:44:29.000Z</time>
      </trkpt>
      <trkpt lat="49.40236" lon="5.79105">
        <ele>294.20001220703</ele>
        <time>2022-09-13T11:44:30.000Z</time>
      </trkpt>
      <trkpt lat="49.40237" lon="5.79101">
        <ele>294.20001220703</ele>
        <time>2022-09-13T11:44:31.000Z</time>
      </trkpt>
      <trkpt lat="49.40238" lon="5.79099">
        <ele>294</ele>
        <time>2022-09-13T11:44:32.000Z</time>
      </trkpt>
      <trkpt lat="49.4024" lon="5.79098">
        <ele>293.79998779297</ele>
        <time>2022-09-13T11:44:33.000Z</time>
      </trkpt>
      <trkpt lat="49.4024" lon="5.79098">
        <ele>293.60000610352</ele>
        <time>2022-09-13T11:44:34.000Z</time>
      </trkpt>
      <trkpt lat="49.40242" lon="5.79094">
        <ele>293.60000610352</ele>
        <time>2022-09-13T11:44:38.000Z</time>
      </trkpt>
      <trkpt lat="49.40244" lon="5.79091">
        <ele>293.60000610352</ele>
        <time>2022-09-13T11:44:39.000Z</time>
      </trkpt>
      <trkpt lat="49.40246" lon="5.7909">
        <ele>294.20001220703</ele>
        <time>2022-09-13T11:44:41.000Z</time>
      </trkpt>
      <trkpt lat="49.40246" lon="5.79089">
        <ele>294.39999389648</ele>
        <time>2022-09-13T11:44:42.000Z</time>
      </trkpt>
      <trkpt lat="49.40248" lon="5.79088">
        <ele>294.39999389648</ele>
        <time>2022-09-13T11:44:43.000Z</time>
      </trkpt>
      <trkpt lat="49.40253" lon="5.79082">
        <ele>294.79998779297</ele>
        <time>2022-09-13T11:44:45.000Z</time>
      </trkpt>
      <trkpt lat="49.40255" lon="5.79079">
        <ele>295</ele>
        <time>2022-09-13T11:44:46.000Z</time>
      </trkpt>
      <trkpt lat="49.40256" lon="5.79075">
        <ele>295.20001220703</ele>
        <time>2022-09-13T11:44:47.000Z</time>
      </trkpt>
      <trkpt lat="49.40257" lon="5.79072">
        <ele>295.39999389648</ele>
        <time>2022-09-13T11:44:48.000Z</time>
      </trkpt>
      <trkpt lat="49.40271" lon="5.7906">
        <ele>296</ele>
        <time>2022-09-13T11:44:52.000Z</time>
      </trkpt>
      <trkpt lat="49.40274" lon="5.79056">
        <ele>296</ele>
        <time>2022-09-13T11:44:53.000Z</time>
      </trkpt>
      <trkpt lat="49.40276" lon="5.79052">
        <ele>296.39999389648</ele>
        <time>2022-09-13T11:44:54.000Z</time>
      </trkpt>
      <trkpt lat="49.40277" lon="5.79049">
        <ele>296.60000610352</ele>
        <time>2022-09-13T11:44:55.000Z</time>
      </trkpt>
      <trkpt lat="49.40278" lon="5.79046">
        <ele>297</ele>
        <time>2022-09-13T11:44:56.000Z</time>
      </trkpt>
      <trkpt lat="49.40281" lon="5.79043">
        <ele>297.60000610352</ele>
        <time>2022-09-13T11:44:57.000Z</time>
      </trkpt>
      <trkpt lat="49.40285" lon="5.7904">
        <ele>297.79998779297</ele>
        <time>2022-09-13T11:44:58.000Z</time>
      </trkpt>
      <trkpt lat="49.4029" lon="5.79037">
        <ele>298.20001220703</ele>
        <time>2022-09-13T11:44:59.000Z</time>
      </trkpt>
      <trkpt lat="49.40291" lon="5.79034">
        <ele>298.39999389648</ele>
        <time>2022-09-13T11:45:00.000Z</time>
      </trkpt>
      <trkpt lat="49.40293" lon="5.79031">
        <ele>298.79998779297</ele>
        <time>2022-09-13T11:45:01.000Z</time>
      </trkpt>
      <trkpt lat="49.40293" lon="5.79028">
        <ele>299</ele>
        <time>2022-09-13T11:45:02.000Z</time>
      </trkpt>
      <trkpt lat="49.40294" lon="5.79024">
        <ele>299.39999389648</ele>
        <time>2022-09-13T11:45:03.000Z</time>
      </trkpt>
      <trkpt lat="49.40295" lon="5.79021">
        <ele>299.79998779297</ele>
        <time>2022-09-13T11:45:04.000Z</time>
      </trkpt>
      <trkpt lat="49.40295" lon="5.79018">
        <ele>300.20001220703</ele>
        <time>2022-09-13T11:45:05.000Z</time>
      </trkpt>
      <trkpt lat="49.40295" lon="5.79016">
        <ele>300.60000610352</ele>
        <time>2022-09-13T11:45:06.000Z</time>
      </trkpt>
      <trkpt lat="49.40297" lon="5.79014">
        <ele>301</ele>
        <time>2022-09-13T11:45:07.000Z</time>
      </trkpt>
      <trkpt lat="49.403" lon="5.79012">
        <ele>301.60000610352</ele>
        <time>2022-09-13T11:45:08.000Z</time>
      </trkpt>
      <trkpt lat="49.40301" lon="5.79009">
        <ele>301.79998779297</ele>
        <time>2022-09-13T11:45:09.000Z</time>
      </trkpt>
      <trkpt lat="49.40303" lon="5.79006">
        <ele>302.20001220703</ele>
        <time>2022-09-13T11:45:10.000Z</time>
      </trkpt>
      <trkpt lat="49.40304" lon="5.79003">
        <ele>302.39999389648</ele>
        <time>2022-09-13T11:45:11.000Z</time>
      </trkpt>
      <trkpt lat="49.40304" lon="5.79">
        <ele>302.60000610352</ele>
        <time>2022-09-13T11:45:12.000Z</time>
      </trkpt>
      <trkpt lat="49.40306" lon="5.78996">
        <ele>303.20001220703</ele>
        <time>2022-09-13T11:45:13.000Z</time>
      </trkpt>
      <trkpt lat="49.40308" lon="5.78993">
        <ele>303.39999389648</ele>
        <time>2022-09-13T11:45:14.000Z</time>
      </trkpt>
      <trkpt lat="49.40308" lon="5.7899">
        <ele>303.79998779297</ele>
        <time>2022-09-13T11:45:15.000Z</time>
      </trkpt>
      <trkpt lat="49.40309" lon="5.78988">
        <ele>303.79998779297</ele>
        <time>2022-09-13T11:45:16.000Z</time>
      </trkpt>
      <trkpt lat="49.4031" lon="5.78987">
        <ele>304.20001220703</ele>
        <time>2022-09-13T11:45:17.000Z</time>
      </trkpt>
      <trkpt lat="49.40312" lon="5.78985">
        <ele>304.60000610352</ele>
        <time>2022-09-13T11:45:18.000Z</time>
      </trkpt>
      <trkpt lat="49.40315" lon="5.78983">
        <ele>305</ele>
        <time>2022-09-13T11:45:19.000Z</time>
      </trkpt>
      <trkpt lat="49.40319" lon="5.7898">
        <ele>305.20001220703</ele>
        <time>2022-09-13T11:45:20.000Z</time>
      </trkpt>
      <trkpt lat="49.4032" lon="5.78976">
        <ele>305.39999389648</ele>
        <time>2022-09-13T11:45:21.000Z</time>
      </trkpt>
      <trkpt lat="49.40321" lon="5.78974">
        <ele>305.79998779297</ele>
        <time>2022-09-13T11:45:22.000Z</time>
      </trkpt>
      <trkpt lat="49.40322" lon="5.78973">
        <ele>306</ele>
        <time>2022-09-13T11:45:23.000Z</time>
      </trkpt>
      <trkpt lat="49.40323" lon="5.78971">
        <ele>306.39999389648</ele>
        <time>2022-09-13T11:45:24.000Z</time>
      </trkpt>
      <trkpt lat="49.40323" lon="5.78969">
        <ele>306.60000610352</ele>
        <time>2022-09-13T11:45:25.000Z</time>
      </trkpt>
      <trkpt lat="49.40324" lon="5.78968">
        <ele>307.20001220703</ele>
        <time>2022-09-13T11:45:26.000Z</time>
      </trkpt>
      <trkpt lat="49.40325" lon="5.78966">
        <ele>307.60000610352</ele>
        <time>2022-09-13T11:45:27.000Z</time>
      </trkpt>
      <trkpt lat="49.40326" lon="5.78964">
        <ele>307.79998779297</ele>
        <time>2022-09-13T11:45:28.000Z</time>
      </trkpt>
      <trkpt lat="49.40327" lon="5.78962">
        <ele>308</ele>
        <time>2022-09-13T11:45:29.000Z</time>
      </trkpt>
      <trkpt lat="49.40329" lon="5.78959">
        <ele>308.20001220703</ele>
        <time>2022-09-13T11:45:30.000Z</time>
      </trkpt>
      <trkpt lat="49.40331" lon="5.78957">
        <ele>308.60000610352</ele>
        <time>2022-09-13T11:45:31.000Z</time>
      </trkpt>
      <trkpt lat="49.40332" lon="5.78955">
        <ele>308.60000610352</ele>
        <time>2022-09-13T11:45:32.000Z</time>
      </trkpt>
      <trkpt lat="49.40333" lon="5.78952">
        <ele>308.79998779297</ele>
        <time>2022-09-13T11:45:33.000Z</time>
      </trkpt>
      <trkpt lat="49.40335" lon="5.7895">
        <ele>309.20001220703</ele>
        <time>2022-09-13T11:45:34.000Z</time>
      </trkpt>
      <trkpt lat="49.4034" lon="5.78947">
        <ele>309.20001220703</ele>
        <time>2022-09-13T11:45:35.000Z</time>
      </trkpt>
      <trkpt lat="49.40343" lon="5.78945">
        <ele>309.39999389648</ele>
        <time>2022-09-13T11:45:36.000Z</time>
      </trkpt>
      <trkpt lat="49.40345" lon="5.78944">
        <ele>309.60000610352</ele>
        <time>2022-09-13T11:45:37.000Z</time>
      </trkpt>
      <trkpt lat="49.40345" lon="5.78944">
        <ele>310</ele>
        <time>2022-09-13T11:45:38.000Z</time>
      </trkpt>
      <trkpt lat="49.40346" lon="5.78943">
        <ele>310</ele>
        <time>2022-09-13T11:45:39.000Z</time>
      </trkpt>
      <trkpt lat="49.40346" lon="5.78943">
        <ele>310.20001220703</ele>
        <time>2022-09-13T11:45:40.000Z</time>
      </trkpt>
      <trkpt lat="49.40347" lon="5.78943">
        <ele>310.60000610352</ele>
        <time>2022-09-13T11:45:41.000Z</time>
      </trkpt>
      <trkpt lat="49.40348" lon="5.78942">
        <ele>310.60000610352</ele>
        <time>2022-09-13T11:45:42.000Z</time>
      </trkpt>
      <trkpt lat="49.40349" lon="5.78941">
        <ele>311</ele>
        <time>2022-09-13T11:45:43.000Z</time>
      </trkpt>
      <trkpt lat="49.40351" lon="5.7894">
        <ele>311.20001220703</ele>
        <time>2022-09-13T11:45:44.000Z</time>
      </trkpt>
      <trkpt lat="49.40352" lon="5.78939">
        <ele>311.39999389648</ele>
        <time>2022-09-13T11:45:45.000Z</time>
      </trkpt>
      <trkpt lat="49.40354" lon="5.78938">
        <ele>311.39999389648</ele>
        <time>2022-09-13T11:45:46.000Z</time>
      </trkpt>
      <trkpt lat="49.40355" lon="5.78937">
        <ele>311.79998779297</ele>
        <time>2022-09-13T11:45:47.000Z</time>
      </trkpt>
      <trkpt lat="49.40357" lon="5.78936">
        <ele>312.20001220703</ele>
        <time>2022-09-13T11:45:48.000Z</time>
      </trkpt>
      <trkpt lat="49.40358" lon="5.78934">
        <ele>312.20001220703</ele>
        <time>2022-09-13T11:45:49.000Z</time>
      </trkpt>
      <trkpt lat="49.40359" lon="5.78933">
        <ele>312.79998779297</ele>
        <time>2022-09-13T11:45:50.000Z</time>
      </trkpt>
      <trkpt lat="49.4036" lon="5.78932">
        <ele>313</ele>
        <time>2022-09-13T11:45:51.000Z</time>
      </trkpt>
      <trkpt lat="49.40361" lon="5.78932">
        <ele>313.39999389648</ele>
        <time>2022-09-13T11:45:52.000Z</time>
      </trkpt>
      <trkpt lat="49.40362" lon="5.7893">
        <ele>313.60000610352</ele>
        <time>2022-09-13T11:45:53.000Z</time>
      </trkpt>
      <trkpt lat="49.40364" lon="5.78929">
        <ele>314.20001220703</ele>
        <time>2022-09-13T11:45:54.000Z</time>
      </trkpt>
      <trkpt lat="49.40366" lon="5.78928">
        <ele>314.39999389648</ele>
        <time>2022-09-13T11:45:55.000Z</time>
      </trkpt>
      <trkpt lat="49.40368" lon="5.78926">
        <ele>314.60000610352</ele>
        <time>2022-09-13T11:45:56.000Z</time>
      </trkpt>
      <trkpt lat="49.40369" lon="5.78925">
        <ele>315</ele>
        <time>2022-09-13T11:45:57.000Z</time>
      </trkpt>
      <trkpt lat="49.40371" lon="5.78923">
        <ele>315</ele>
        <time>2022-09-13T11:45:58.000Z</time>
      </trkpt>
      <trkpt lat="49.40372" lon="5.78922">
        <ele>315.39999389648</ele>
        <time>2022-09-13T11:45:59.000Z</time>
      </trkpt>
      <trkpt lat="49.40372" lon="5.78921">
        <ele>315.39999389648</ele>
        <time>2022-09-13T11:46:00.000Z</time>
      </trkpt>
      <trkpt lat="49.40373" lon="5.78919">
        <ele>315.60000610352</ele>
        <time>2022-09-13T11:46:01.000Z</time>
      </trkpt>
      <trkpt lat="49.40374" lon="5.78918">
        <ele>315.60000610352</ele>
        <time>2022-09-13T11:46:02.000Z</time>
      </trkpt>
      <trkpt lat="49.40375" lon="5.78917">
        <ele>315.79998779297</ele>
        <time>2022-09-13T11:46:03.000Z</time>
      </trkpt>
      <trkpt lat="49.40376" lon="5.78914">
        <ele>316</ele>
        <time>2022-09-13T11:46:04.000Z</time>
      </trkpt>
      <trkpt lat="49.40379" lon="5.78912">
        <ele>316.20001220703</ele>
        <time>2022-09-13T11:46:05.000Z</time>
      </trkpt>
      <trkpt lat="49.40382" lon="5.78909">
        <ele>316.39999389648</ele>
        <time>2022-09-13T11:46:06.000Z</time>
      </trkpt>
      <trkpt lat="49.40384" lon="5.78907">
        <ele>316.79998779297</ele>
        <time>2022-09-13T11:46:07.000Z</time>
      </trkpt>
      <trkpt lat="49.40385" lon="5.78906">
        <ele>317.20001220703</ele>
        <time>2022-09-13T11:46:08.000Z</time>
      </trkpt>
      <trkpt lat="49.40387" lon="5.78906">
        <ele>317.20001220703</ele>
        <time>2022-09-13T11:46:09.000Z</time>
      </trkpt>
      <trkpt lat="49.40389" lon="5.78904">
        <ele>317.39999389648</ele>
        <time>2022-09-13T11:46:10.000Z</time>
      </trkpt>
      <trkpt lat="49.40391" lon="5.78902">
        <ele>317.60000610352</ele>
        <time>2022-09-13T11:46:11.000Z</time>
      </trkpt>
      <trkpt lat="49.40393" lon="5.789">
        <ele>317.60000610352</ele>
        <time>2022-09-13T11:46:12.000Z</time>
      </trkpt>
      <trkpt lat="49.40395" lon="5.78898">
        <ele>318</ele>
        <time>2022-09-13T11:46:13.000Z</time>
      </trkpt>
      <trkpt lat="49.40398" lon="5.78897">
        <ele>318</ele>
        <time>2022-09-13T11:46:14.000Z</time>
      </trkpt>
      <trkpt lat="49.40402" lon="5.78894">
        <ele>318.39999389648</ele>
        <time>2022-09-13T11:46:15.000Z</time>
      </trkpt>
      <trkpt lat="49.40406" lon="5.78892">
        <ele>318.60000610352</ele>
        <time>2022-09-13T11:46:16.000Z</time>
      </trkpt>
      <trkpt lat="49.40411" lon="5.78889">
        <ele>318.79998779297</ele>
        <time>2022-09-13T11:46:17.000Z</time>
      </trkpt>
      <trkpt lat="49.40413" lon="5.78887">
        <ele>319</ele>
        <time>2022-09-13T11:46:18.000Z</time>
      </trkpt>
      <trkpt lat="49.40414" lon="5.78885">
        <ele>319.20001220703</ele>
        <time>2022-09-13T11:46:19.000Z</time>
      </trkpt>
      <trkpt lat="49.40416" lon="5.78883">
        <ele>319.20001220703</ele>
        <time>2022-09-13T11:46:20.000Z</time>
      </trkpt>
      <trkpt lat="49.40417" lon="5.78882">
        <ele>319.39999389648</ele>
        <time>2022-09-13T11:46:21.000Z</time>
      </trkpt>
      <trkpt lat="49.40419" lon="5.78883">
        <ele>319.39999389648</ele>
        <time>2022-09-13T11:46:22.000Z</time>
      </trkpt>
      <trkpt lat="49.4042" lon="5.78882">
        <ele>319.39999389648</ele>
        <time>2022-09-13T11:46:23.000Z</time>
      </trkpt>
      <trkpt lat="49.40422" lon="5.7888">
        <ele>319.39999389648</ele>
        <time>2022-09-13T11:46:24.000Z</time>
      </trkpt>
      <trkpt lat="49.40425" lon="5.78878">
        <ele>319.39999389648</ele>
        <time>2022-09-13T11:46:25.000Z</time>
      </trkpt>
      <trkpt lat="49.40425" lon="5.78875">
        <ele>319.60000610352</ele>
        <time>2022-09-13T11:46:26.000Z</time>
      </trkpt>
      <trkpt lat="49.40427" lon="5.78874">
        <ele>319.79998779297</ele>
        <time>2022-09-13T11:46:27.000Z</time>
      </trkpt>
      <trkpt lat="49.40428" lon="5.78873">
        <ele>319.79998779297</ele>
        <time>2022-09-13T11:46:28.000Z</time>
      </trkpt>
      <trkpt lat="49.40429" lon="5.78876">
        <ele>320.20001220703</ele>
        <time>2022-09-13T11:46:29.000Z</time>
      </trkpt>
      <trkpt lat="49.40432" lon="5.78875">
        <ele>320.20001220703</ele>
        <time>2022-09-13T11:46:30.000Z</time>
      </trkpt>
      <trkpt lat="49.40434" lon="5.78874">
        <ele>320</ele>
        <time>2022-09-13T11:46:31.000Z</time>
      </trkpt>
      <trkpt lat="49.40436" lon="5.78871">
        <ele>320.20001220703</ele>
        <time>2022-09-13T11:46:32.000Z</time>
      </trkpt>
      <trkpt lat="49.40436" lon="5.78869">
        <ele>320</ele>
        <time>2022-09-13T11:46:33.000Z</time>
      </trkpt>
      <trkpt lat="49.40435" lon="5.78867">
        <ele>320.20001220703</ele>
        <time>2022-09-13T11:46:34.000Z</time>
      </trkpt>
      <trkpt lat="49.40434" lon="5.78865">
        <ele>320.20001220703</ele>
        <time>2022-09-13T11:46:35.000Z</time>
      </trkpt>
      <trkpt lat="49.40432" lon="5.78864">
        <ele>320</ele>
        <time>2022-09-13T11:46:36.000Z</time>
      </trkpt>
      <trkpt lat="49.4043" lon="5.78863">
        <ele>320</ele>
        <time>2022-09-13T11:46:37.000Z</time>
      </trkpt>
      <trkpt lat="49.40427" lon="5.78863">
        <ele>319.79998779297</ele>
        <time>2022-09-13T11:46:38.000Z</time>
      </trkpt>
      <trkpt lat="49.40423" lon="5.78862">
        <ele>319.79998779297</ele>
        <time>2022-09-13T11:46:39.000Z</time>
      </trkpt>
      <trkpt lat="49.40421" lon="5.78861">
        <ele>319.79998779297</ele>
        <time>2022-09-13T11:46:40.000Z</time>
      </trkpt>
      <trkpt lat="49.40396" lon="5.78854">
        <ele>318.79998779297</ele>
        <time>2022-09-13T11:46:46.000Z</time>
      </trkpt>
      <trkpt lat="49.40393" lon="5.78855">
        <ele>318.60000610352</ele>
        <time>2022-09-13T11:46:47.000Z</time>
      </trkpt>
      <trkpt lat="49.40391" lon="5.78854">
        <ele>318.60000610352</ele>
        <time>2022-09-13T11:46:48.000Z</time>
      </trkpt>
      <trkpt lat="49.40389" lon="5.78852">
        <ele>318.20001220703</ele>
        <time>2022-09-13T11:46:49.000Z</time>
      </trkpt>
      <trkpt lat="49.40388" lon="5.7885">
        <ele>317.60000610352</ele>
        <time>2022-09-13T11:46:50.000Z</time>
      </trkpt>
      <trkpt lat="49.40388" lon="5.78848">
        <ele>317.39999389648</ele>
        <time>2022-09-13T11:46:51.000Z</time>
      </trkpt>
      <trkpt lat="49.40388" lon="5.78846">
        <ele>316.60000610352</ele>
        <time>2022-09-13T11:46:52.000Z</time>
      </trkpt>
      <trkpt lat="49.40389" lon="5.78843">
        <ele>316.39999389648</ele>
        <time>2022-09-13T11:46:53.000Z</time>
      </trkpt>
      <trkpt lat="49.4039" lon="5.78838">
        <ele>316</ele>
        <time>2022-09-13T11:46:54.000Z</time>
      </trkpt>
      <trkpt lat="49.40391" lon="5.78832">
        <ele>315.79998779297</ele>
        <time>2022-09-13T11:46:55.000Z</time>
      </trkpt>
      <trkpt lat="49.40393" lon="5.78816">
        <ele>315</ele>
        <time>2022-09-13T11:46:58.000Z</time>
      </trkpt>
      <trkpt lat="49.40394" lon="5.78814">
        <ele>314</ele>
        <time>2022-09-13T11:46:59.000Z</time>
      </trkpt>
      <trkpt lat="49.40394" lon="5.78811">
        <ele>313.39999389648</ele>
        <time>2022-09-13T11:47:00.000Z</time>
      </trkpt>
      <trkpt lat="49.40394" lon="5.78807">
        <ele>312.39999389648</ele>
        <time>2022-09-13T11:47:01.000Z</time>
      </trkpt>
      <trkpt lat="49.40399" lon="5.78798">
        <ele>311.39999389648</ele>
        <time>2022-09-13T11:47:03.000Z</time>
      </trkpt>
      <trkpt lat="49.40403" lon="5.78794">
        <ele>311.20001220703</ele>
        <time>2022-09-13T11:47:04.000Z</time>
      </trkpt>
      <trkpt lat="49.40404" lon="5.7879">
        <ele>311</ele>
        <time>2022-09-13T11:47:05.000Z</time>
      </trkpt>
      <trkpt lat="49.40406" lon="5.78786">
        <ele>310.79998779297</ele>
        <time>2022-09-13T11:47:06.000Z</time>
      </trkpt>
      <trkpt lat="49.40408" lon="5.78781">
        <ele>310.79998779297</ele>
        <time>2022-09-13T11:47:07.000Z</time>
      </trkpt>
      <trkpt lat="49.40408" lon="5.78778">
        <ele>310.79998779297</ele>
        <time>2022-09-13T11:47:08.000Z</time>
      </trkpt>
      <trkpt lat="49.40408" lon="5.78772">
        <ele>311.39999389648</ele>
        <time>2022-09-13T11:47:10.000Z</time>
      </trkpt>
      <trkpt lat="49.40409" lon="5.78771">
        <ele>311.60000610352</ele>
        <time>2022-09-13T11:47:11.000Z</time>
      </trkpt>
      <trkpt lat="49.40409" lon="5.78769">
        <ele>312</ele>
        <time>2022-09-13T11:47:12.000Z</time>
      </trkpt>
      <trkpt lat="49.4041" lon="5.78768">
        <ele>312.79998779297</ele>
        <time>2022-09-13T11:47:13.000Z</time>
      </trkpt>
      <trkpt lat="49.40412" lon="5.78766">
        <ele>313</ele>
        <time>2022-09-13T11:47:14.000Z</time>
      </trkpt>
      <trkpt lat="49.40413" lon="5.78763">
        <ele>313.39999389648</ele>
        <time>2022-09-13T11:47:15.000Z</time>
      </trkpt>
      <trkpt lat="49.40412" lon="5.78761">
        <ele>313.60000610352</ele>
        <time>2022-09-13T11:47:16.000Z</time>
      </trkpt>
      <trkpt lat="49.40413" lon="5.7876">
        <ele>314.39999389648</ele>
        <time>2022-09-13T11:47:17.000Z</time>
      </trkpt>
      <trkpt lat="49.40413" lon="5.78758">
        <ele>315</ele>
        <time>2022-09-13T11:47:18.000Z</time>
      </trkpt>
      <trkpt lat="49.40414" lon="5.78757">
        <ele>316</ele>
        <time>2022-09-13T11:47:19.000Z</time>
      </trkpt>
      <trkpt lat="49.40416" lon="5.78755">
        <ele>316.79998779297</ele>
        <time>2022-09-13T11:47:20.000Z</time>
      </trkpt>
      <trkpt lat="49.40417" lon="5.78752">
        <ele>317</ele>
        <time>2022-09-13T11:47:21.000Z</time>
      </trkpt>
      <trkpt lat="49.40417" lon="5.7875">
        <ele>317.60000610352</ele>
        <time>2022-09-13T11:47:22.000Z</time>
      </trkpt>
      <trkpt lat="49.40416" lon="5.78748">
        <ele>317.79998779297</ele>
        <time>2022-09-13T11:47:23.000Z</time>
      </trkpt>
      <trkpt lat="49.40415" lon="5.78746">
        <ele>318.39999389648</ele>
        <time>2022-09-13T11:47:24.000Z</time>
      </trkpt>
      <trkpt lat="49.40413" lon="5.78744">
        <ele>318.60000610352</ele>
        <time>2022-09-13T11:47:25.000Z</time>
      </trkpt>
      <trkpt lat="49.40411" lon="5.78743">
        <ele>318.79998779297</ele>
        <time>2022-09-13T11:47:26.000Z</time>
      </trkpt>
      <trkpt lat="49.40409" lon="5.78741">
        <ele>318.79998779297</ele>
        <time>2022-09-13T11:47:27.000Z</time>
      </trkpt>
      <trkpt lat="49.40406" lon="5.7874">
        <ele>318.79998779297</ele>
        <time>2022-09-13T11:47:28.000Z</time>
      </trkpt>
      <trkpt lat="49.40403" lon="5.78738">
        <ele>319</ele>
        <time>2022-09-13T11:47:29.000Z</time>
      </trkpt>
      <trkpt lat="49.40399" lon="5.78736">
        <ele>319</ele>
        <time>2022-09-13T11:47:30.000Z</time>
      </trkpt>
      <trkpt lat="49.40395" lon="5.78734">
        <ele>319</ele>
        <time>2022-09-13T11:47:31.000Z</time>
      </trkpt>
      <trkpt lat="49.4039" lon="5.78731">
        <ele>319</ele>
        <time>2022-09-13T11:47:32.000Z</time>
      </trkpt>
      <trkpt lat="49.40385" lon="5.78728">
        <ele>318.60000610352</ele>
        <time>2022-09-13T11:47:33.000Z</time>
      </trkpt>
      <trkpt lat="49.4038" lon="5.78725">
        <ele>318.79998779297</ele>
        <time>2022-09-13T11:47:34.000Z</time>
      </trkpt>
      <trkpt lat="49.40375" lon="5.78723">
        <ele>318.60000610352</ele>
        <time>2022-09-13T11:47:35.000Z</time>
      </trkpt>
      <trkpt lat="49.40369" lon="5.7872">
        <ele>318.39999389648</ele>
        <time>2022-09-13T11:47:36.000Z</time>
      </trkpt>
      <trkpt lat="49.40363" lon="5.78716">
        <ele>318.20001220703</ele>
        <time>2022-09-13T11:47:37.000Z</time>
      </trkpt>
      <trkpt lat="49.40358" lon="5.78712">
        <ele>318</ele>
        <time>2022-09-13T11:47:38.000Z</time>
      </trkpt>
      <trkpt lat="49.40354" lon="5.78708">
        <ele>317.79998779297</ele>
        <time>2022-09-13T11:47:39.000Z</time>
      </trkpt>
      <trkpt lat="49.4035" lon="5.78705">
        <ele>317.39999389648</ele>
        <time>2022-09-13T11:47:40.000Z</time>
      </trkpt>
      <trkpt lat="49.40347" lon="5.78701">
        <ele>317.39999389648</ele>
        <time>2022-09-13T11:47:41.000Z</time>
      </trkpt>
      <trkpt lat="49.40343" lon="5.78696">
        <ele>317.20001220703</ele>
        <time>2022-09-13T11:47:42.000Z</time>
      </trkpt>
      <trkpt lat="49.40339" lon="5.78692">
        <ele>316.79998779297</ele>
        <time>2022-09-13T11:47:43.000Z</time>
      </trkpt>
      <trkpt lat="49.40336" lon="5.7869">
        <ele>316.60000610352</ele>
        <time>2022-09-13T11:47:44.000Z</time>
      </trkpt>
      <trkpt lat="49.40332" lon="5.78687">
        <ele>316.20001220703</ele>
        <time>2022-09-13T11:47:45.000Z</time>
      </trkpt>
      <trkpt lat="49.40329" lon="5.78685">
        <ele>316.20001220703</ele>
        <time>2022-09-13T11:47:46.000Z</time>
      </trkpt>
      <trkpt lat="49.40326" lon="5.78681">
        <ele>316</ele>
        <time>2022-09-13T11:47:47.000Z</time>
      </trkpt>
      <trkpt lat="49.40323" lon="5.78679">
        <ele>316</ele>
        <time>2022-09-13T11:47:48.000Z</time>
      </trkpt>
      <trkpt lat="49.40321" lon="5.78676">
        <ele>315.79998779297</ele>
        <time>2022-09-13T11:47:49.000Z</time>
      </trkpt>
      <trkpt lat="49.40317" lon="5.78673">
        <ele>315.79998779297</ele>
        <time>2022-09-13T11:47:50.000Z</time>
      </trkpt>
      <trkpt lat="49.40314" lon="5.78672">
        <ele>315.79998779297</ele>
        <time>2022-09-13T11:47:51.000Z</time>
      </trkpt>
      <trkpt lat="49.4031" lon="5.78669">
        <ele>315.79998779297</ele>
        <time>2022-09-13T11:47:52.000Z</time>
      </trkpt>
      <trkpt lat="49.40307" lon="5.78666">
        <ele>315.79998779297</ele>
        <time>2022-09-13T11:47:53.000Z</time>
      </trkpt>
      <trkpt lat="49.40304" lon="5.78663">
        <ele>315.79998779297</ele>
        <time>2022-09-13T11:47:54.000Z</time>
      </trkpt>
      <trkpt lat="49.40301" lon="5.78661">
        <ele>315.79998779297</ele>
        <time>2022-09-13T11:47:55.000Z</time>
      </trkpt>
      <trkpt lat="49.40299" lon="5.78659">
        <ele>315.79998779297</ele>
        <time>2022-09-13T11:47:56.000Z</time>
      </trkpt>
      <trkpt lat="49.40294" lon="5.78654">
        <ele>315.60000610352</ele>
        <time>2022-09-13T11:47:58.000Z</time>
      </trkpt>
      <trkpt lat="49.40293" lon="5.78652">
        <ele>315.60000610352</ele>
        <time>2022-09-13T11:47:59.000Z</time>
      </trkpt>
      <trkpt lat="49.40291" lon="5.78649">
        <ele>315.60000610352</ele>
        <time>2022-09-13T11:48:00.000Z</time>
      </trkpt>
      <trkpt lat="49.40288" lon="5.78648">
        <ele>315.60000610352</ele>
        <time>2022-09-13T11:48:01.000Z</time>
      </trkpt>
      <trkpt lat="49.40286" lon="5.78646">
        <ele>315.60000610352</ele>
        <time>2022-09-13T11:48:02.000Z</time>
      </trkpt>
      <trkpt lat="49.40284" lon="5.78645">
        <ele>315.39999389648</ele>
        <time>2022-09-13T11:48:03.000Z</time>
      </trkpt>
      <trkpt lat="49.40282" lon="5.78644">
        <ele>315.39999389648</ele>
        <time>2022-09-13T11:48:04.000Z</time>
      </trkpt>
      <trkpt lat="49.40272" lon="5.78642">
        <ele>315.39999389648</ele>
        <time>2022-09-13T11:48:07.000Z</time>
      </trkpt>
      <trkpt lat="49.40263" lon="5.78639">
        <ele>315.20001220703</ele>
        <time>2022-09-13T11:48:10.000Z</time>
      </trkpt>
      <trkpt lat="49.40263" lon="5.78638">
        <ele>315.20001220703</ele>
        <time>2022-09-13T11:48:11.000Z</time>
      </trkpt>
      <trkpt lat="49.40263" lon="5.78635">
        <ele>315</ele>
        <time>2022-09-13T11:48:12.000Z</time>
      </trkpt>
      <trkpt lat="49.40263" lon="5.78632">
        <ele>315</ele>
        <time>2022-09-13T11:48:13.000Z</time>
      </trkpt>
      <trkpt lat="49.40264" lon="5.78622">
        <ele>314.79998779297</ele>
        <time>2022-09-13T11:48:16.000Z</time>
      </trkpt>
      <trkpt lat="49.40263" lon="5.78619">
        <ele>314.60000610352</ele>
        <time>2022-09-13T11:48:17.000Z</time>
      </trkpt>
      <trkpt lat="49.40263" lon="5.78615">
        <ele>314.60000610352</ele>
        <time>2022-09-13T11:48:18.000Z</time>
      </trkpt>
      <trkpt lat="49.40264" lon="5.78609">
        <ele>314.79998779297</ele>
        <time>2022-09-13T11:48:20.000Z</time>
      </trkpt>
      <trkpt lat="49.40265" lon="5.78606">
        <ele>315</ele>
        <time>2022-09-13T11:48:21.000Z</time>
      </trkpt>
      <trkpt lat="49.40266" lon="5.78604">
        <ele>315.20001220703</ele>
        <time>2022-09-13T11:48:22.000Z</time>
      </trkpt>
      <trkpt lat="49.40266" lon="5.78601">
        <ele>315.20001220703</ele>
        <time>2022-09-13T11:48:23.000Z</time>
      </trkpt>
      <trkpt lat="49.40267" lon="5.78598">
        <ele>315.20001220703</ele>
        <time>2022-09-13T11:48:24.000Z</time>
      </trkpt>
      <trkpt lat="49.40271" lon="5.78586">
        <ele>315.79998779297</ele>
        <time>2022-09-13T11:48:28.000Z</time>
      </trkpt>
      <trkpt lat="49.40272" lon="5.78584">
        <ele>315.79998779297</ele>
        <time>2022-09-13T11:48:29.000Z</time>
      </trkpt>
      <trkpt lat="49.40273" lon="5.78582">
        <ele>316</ele>
        <time>2022-09-13T11:48:30.000Z</time>
      </trkpt>
      <trkpt lat="49.40274" lon="5.7858">
        <ele>316.20001220703</ele>
        <time>2022-09-13T11:48:31.000Z</time>
      </trkpt>
      <trkpt lat="49.40275" lon="5.78578">
        <ele>316.20001220703</ele>
        <time>2022-09-13T11:48:32.000Z</time>
      </trkpt>
      <trkpt lat="49.40276" lon="5.78575">
        <ele>316.20001220703</ele>
        <time>2022-09-13T11:48:33.000Z</time>
      </trkpt>
      <trkpt lat="49.40277" lon="5.78572">
        <ele>316.20001220703</ele>
        <time>2022-09-13T11:48:34.000Z</time>
      </trkpt>
      <trkpt lat="49.40278" lon="5.78569">
        <ele>316.39999389648</ele>
        <time>2022-09-13T11:48:35.000Z</time>
      </trkpt>
      <trkpt lat="49.40277" lon="5.78564">
        <ele>316.60000610352</ele>
        <time>2022-09-13T11:48:36.000Z</time>
      </trkpt>
      <trkpt lat="49.40278" lon="5.78554">
        <ele>316.79998779297</ele>
        <time>2022-09-13T11:48:39.000Z</time>
      </trkpt>
      <trkpt lat="49.40277" lon="5.7855">
        <ele>317</ele>
        <time>2022-09-13T11:48:40.000Z</time>
      </trkpt>
      <trkpt lat="49.40275" lon="5.78545">
        <ele>317</ele>
        <time>2022-09-13T11:48:41.000Z</time>
      </trkpt>
      <trkpt lat="49.40274" lon="5.7854">
        <ele>317.39999389648</ele>
        <time>2022-09-13T11:48:42.000Z</time>
      </trkpt>
      <trkpt lat="49.40274" lon="5.78534">
        <ele>317.60000610352</ele>
        <time>2022-09-13T11:48:43.000Z</time>
      </trkpt>
      <trkpt lat="49.40273" lon="5.78529">
        <ele>317.60000610352</ele>
        <time>2022-09-13T11:48:44.000Z</time>
      </trkpt>
      <trkpt lat="49.40278" lon="5.78513">
        <ele>318</ele>
        <time>2022-09-13T11:48:48.000Z</time>
      </trkpt>
      <trkpt lat="49.40279" lon="5.78509">
        <ele>318</ele>
        <time>2022-09-13T11:48:49.000Z</time>
      </trkpt>
      <trkpt lat="49.40279" lon="5.78487">
        <ele>318.20001220703</ele>
        <time>2022-09-13T11:48:53.000Z</time>
      </trkpt>
      <trkpt lat="49.40278" lon="5.78481">
        <ele>318.39999389648</ele>
        <time>2022-09-13T11:48:54.000Z</time>
      </trkpt>
      <trkpt lat="49.40278" lon="5.78475">
        <ele>318.39999389648</ele>
        <time>2022-09-13T11:48:55.000Z</time>
      </trkpt>
      <trkpt lat="49.40277" lon="5.78468">
        <ele>318.39999389648</ele>
        <time>2022-09-13T11:48:56.000Z</time>
      </trkpt>
      <trkpt lat="49.40274" lon="5.78451">
        <ele>318.60000610352</ele>
        <time>2022-09-13T11:48:59.000Z</time>
      </trkpt>
      <trkpt lat="49.40275" lon="5.78447">
        <ele>318.60000610352</ele>
        <time>2022-09-13T11:49:00.000Z</time>
      </trkpt>
      <trkpt lat="49.40275" lon="5.78442">
        <ele>318.60000610352</ele>
        <time>2022-09-13T11:49:01.000Z</time>
      </trkpt>
      <trkpt lat="49.40274" lon="5.78437">
        <ele>318.60000610352</ele>
        <time>2022-09-13T11:49:02.000Z</time>
      </trkpt>
      <trkpt lat="49.40275" lon="5.78422">
        <ele>318.20001220703</ele>
        <time>2022-09-13T11:49:05.000Z</time>
      </trkpt>
      <trkpt lat="49.40278" lon="5.78417">
        <ele>318</ele>
        <time>2022-09-13T11:49:06.000Z</time>
      </trkpt>
      <trkpt lat="49.4028" lon="5.78414">
        <ele>317.79998779297</ele>
        <time>2022-09-13T11:49:07.000Z</time>
      </trkpt>
      <trkpt lat="49.40287" lon="5.7841">
        <ele>317.39999389648</ele>
        <time>2022-09-13T11:49:08.000Z</time>
      </trkpt>
      <trkpt lat="49.40294" lon="5.78406">
        <ele>317.20001220703</ele>
        <time>2022-09-13T11:49:09.000Z</time>
      </trkpt>
      <trkpt lat="49.40299" lon="5.78403">
        <ele>317.20001220703</ele>
        <time>2022-09-13T11:49:10.000Z</time>
      </trkpt>
      <trkpt lat="49.40305" lon="5.78399">
        <ele>317</ele>
        <time>2022-09-13T11:49:11.000Z</time>
      </trkpt>
      <trkpt lat="49.40309" lon="5.78398">
        <ele>317</ele>
        <time>2022-09-13T11:49:12.000Z</time>
      </trkpt>
      <trkpt lat="49.40312" lon="5.78397">
        <ele>316.79998779297</ele>
        <time>2022-09-13T11:49:13.000Z</time>
      </trkpt>
      <trkpt lat="49.40314" lon="5.78395">
        <ele>316.60000610352</ele>
        <time>2022-09-13T11:49:14.000Z</time>
      </trkpt>
      <trkpt lat="49.40316" lon="5.78395">
        <ele>316.20001220703</ele>
        <time>2022-09-13T11:49:15.000Z</time>
      </trkpt>
      <trkpt lat="49.40318" lon="5.78395">
        <ele>316</ele>
        <time>2022-09-13T11:49:16.000Z</time>
      </trkpt>
      <trkpt lat="49.40321" lon="5.78395">
        <ele>315.60000610352</ele>
        <time>2022-09-13T11:49:17.000Z</time>
      </trkpt>
      <trkpt lat="49.40322" lon="5.78394">
        <ele>315.60000610352</ele>
        <time>2022-09-13T11:49:18.000Z</time>
      </trkpt>
      <trkpt lat="49.40325" lon="5.78394">
        <ele>315.60000610352</ele>
        <time>2022-09-13T11:49:19.000Z</time>
      </trkpt>
      <trkpt lat="49.40327" lon="5.78393">
        <ele>315.60000610352</ele>
        <time>2022-09-13T11:49:20.000Z</time>
      </trkpt>
      <trkpt lat="49.4033" lon="5.78393">
        <ele>315.60000610352</ele>
        <time>2022-09-13T11:49:21.000Z</time>
      </trkpt>
      <trkpt lat="49.40334" lon="5.78393">
        <ele>315.60000610352</ele>
        <time>2022-09-13T11:49:22.000Z</time>
      </trkpt>
      <trkpt lat="49.40336" lon="5.78392">
        <ele>315.60000610352</ele>
        <time>2022-09-13T11:49:23.000Z</time>
      </trkpt>
      <trkpt lat="49.40339" lon="5.78391">
        <ele>315.60000610352</ele>
        <time>2022-09-13T11:49:24.000Z</time>
      </trkpt>
      <trkpt lat="49.40343" lon="5.78391">
        <ele>315.60000610352</ele>
        <time>2022-09-13T11:49:25.000Z</time>
      </trkpt>
      <trkpt lat="49.40349" lon="5.78391">
        <ele>315.79998779297</ele>
        <time>2022-09-13T11:49:26.000Z</time>
      </trkpt>
      <trkpt lat="49.40381" lon="5.78387">
        <ele>316.20001220703</ele>
        <time>2022-09-13T11:49:35.000Z</time>
      </trkpt>
      <trkpt lat="49.40386" lon="5.78385">
        <ele>316.39999389648</ele>
        <time>2022-09-13T11:49:36.000Z</time>
      </trkpt>
      <trkpt lat="49.40389" lon="5.78385">
        <ele>316.39999389648</ele>
        <time>2022-09-13T11:49:37.000Z</time>
      </trkpt>
      <trkpt lat="49.40392" lon="5.78383">
        <ele>316.79998779297</ele>
        <time>2022-09-13T11:49:38.000Z</time>
      </trkpt>
      <trkpt lat="49.40407" lon="5.78374">
        <ele>317.39999389648</ele>
        <time>2022-09-13T11:49:44.000Z</time>
      </trkpt>
      <trkpt lat="49.40415" lon="5.78369">
        <ele>317.39999389648</ele>
        <time>2022-09-13T11:49:46.000Z</time>
      </trkpt>
      <trkpt lat="49.40419" lon="5.78368">
        <ele>317.39999389648</ele>
        <time>2022-09-13T11:49:47.000Z</time>
      </trkpt>
      <trkpt lat="49.40423" lon="5.78366">
        <ele>317.39999389648</ele>
        <time>2022-09-13T11:49:48.000Z</time>
      </trkpt>
      <trkpt lat="49.40428" lon="5.78361">
        <ele>317.39999389648</ele>
        <time>2022-09-13T11:49:51.000Z</time>
      </trkpt>
      <trkpt lat="49.40429" lon="5.78358">
        <ele>317.39999389648</ele>
        <time>2022-09-13T11:49:52.000Z</time>
      </trkpt>
      <trkpt lat="49.40431" lon="5.78355">
        <ele>317.20001220703</ele>
        <time>2022-09-13T11:49:53.000Z</time>
      </trkpt>
      <trkpt lat="49.40443" lon="5.78348">
        <ele>317.20001220703</ele>
        <time>2022-09-13T11:49:55.000Z</time>
      </trkpt>
      <trkpt lat="49.40451" lon="5.78344">
        <ele>317.20001220703</ele>
        <time>2022-09-13T11:49:56.000Z</time>
      </trkpt>
      <trkpt lat="49.40455" lon="5.78341">
        <ele>317.20001220703</ele>
        <time>2022-09-13T11:49:57.000Z</time>
      </trkpt>
      <trkpt lat="49.40457" lon="5.78337">
        <ele>317.20001220703</ele>
        <time>2022-09-13T11:49:58.000Z</time>
      </trkpt>
      <trkpt lat="49.40459" lon="5.78327">
        <ele>317.20001220703</ele>
        <time>2022-09-13T11:50:00.000Z</time>
      </trkpt>
      <trkpt lat="49.40462" lon="5.78319">
        <ele>317.20001220703</ele>
        <time>2022-09-13T11:50:01.000Z</time>
      </trkpt>
      <trkpt lat="49.40467" lon="5.78313">
        <ele>317</ele>
        <time>2022-09-13T11:50:02.000Z</time>
      </trkpt>
      <trkpt lat="49.40472" lon="5.78306">
        <ele>317</ele>
        <time>2022-09-13T11:50:03.000Z</time>
      </trkpt>
      <trkpt lat="49.40478" lon="5.783">
        <ele>316.79998779297</ele>
        <time>2022-09-13T11:50:04.000Z</time>
      </trkpt>
      <trkpt lat="49.40487" lon="5.78291">
        <ele>316.79998779297</ele>
        <time>2022-09-13T11:50:06.000Z</time>
      </trkpt>
      <trkpt lat="49.40491" lon="5.78288">
        <ele>316.60000610352</ele>
        <time>2022-09-13T11:50:07.000Z</time>
      </trkpt>
      <trkpt lat="49.40492" lon="5.78286">
        <ele>316.39999389648</ele>
        <time>2022-09-13T11:50:08.000Z</time>
      </trkpt>
      <trkpt lat="49.40496" lon="5.78283">
        <ele>316.20001220703</ele>
        <time>2022-09-13T11:50:09.000Z</time>
      </trkpt>
      <trkpt lat="49.40501" lon="5.78281">
        <ele>316</ele>
        <time>2022-09-13T11:50:10.000Z</time>
      </trkpt>
      <trkpt lat="49.40504" lon="5.78278">
        <ele>316</ele>
        <time>2022-09-13T11:50:11.000Z</time>
      </trkpt>
      <trkpt lat="49.40508" lon="5.78274">
        <ele>315.79998779297</ele>
        <time>2022-09-13T11:50:13.000Z</time>
      </trkpt>
      <trkpt lat="49.4051" lon="5.78272">
        <ele>315.79998779297</ele>
        <time>2022-09-13T11:50:14.000Z</time>
      </trkpt>
      <trkpt lat="49.40513" lon="5.7827">
        <ele>315.60000610352</ele>
        <time>2022-09-13T11:50:15.000Z</time>
      </trkpt>
      <trkpt lat="49.40517" lon="5.78268">
        <ele>315.60000610352</ele>
        <time>2022-09-13T11:50:16.000Z</time>
      </trkpt>
      <trkpt lat="49.4052" lon="5.78267">
        <ele>315.60000610352</ele>
        <time>2022-09-13T11:50:17.000Z</time>
      </trkpt>
      <trkpt lat="49.40527" lon="5.78262">
        <ele>315.39999389648</ele>
        <time>2022-09-13T11:50:19.000Z</time>
      </trkpt>
      <trkpt lat="49.40554" lon="5.7825">
        <ele>315</ele>
        <time>2022-09-13T11:50:24.000Z</time>
      </trkpt>
      <trkpt lat="49.40556" lon="5.78247">
        <ele>315</ele>
        <time>2022-09-13T11:50:25.000Z</time>
      </trkpt>
      <trkpt lat="49.40559" lon="5.78245">
        <ele>314.79998779297</ele>
        <time>2022-09-13T11:50:26.000Z</time>
      </trkpt>
      <trkpt lat="49.4056" lon="5.78243">
        <ele>314.79998779297</ele>
        <time>2022-09-13T11:50:27.000Z</time>
      </trkpt>
      <trkpt lat="49.40563" lon="5.78241">
        <ele>314.60000610352</ele>
        <time>2022-09-13T11:50:28.000Z</time>
      </trkpt>
      <trkpt lat="49.40565" lon="5.78239">
        <ele>314.20001220703</ele>
        <time>2022-09-13T11:50:29.000Z</time>
      </trkpt>
      <trkpt lat="49.40572" lon="5.78222">
        <ele>314</ele>
        <time>2022-09-13T11:50:32.000Z</time>
      </trkpt>
      <trkpt lat="49.40576" lon="5.78213">
        <ele>313.60000610352</ele>
        <time>2022-09-13T11:50:33.000Z</time>
      </trkpt>
      <trkpt lat="49.4058" lon="5.78201">
        <ele>313.39999389648</ele>
        <time>2022-09-13T11:50:34.000Z</time>
      </trkpt>
      <trkpt lat="49.40583" lon="5.78192">
        <ele>313</ele>
        <time>2022-09-13T11:50:35.000Z</time>
      </trkpt>
      <trkpt lat="49.40587" lon="5.78174">
        <ele>312.20001220703</ele>
        <time>2022-09-13T11:50:37.000Z</time>
      </trkpt>
      <trkpt lat="49.40587" lon="5.7817">
        <ele>311.39999389648</ele>
        <time>2022-09-13T11:50:38.000Z</time>
      </trkpt>
      <trkpt lat="49.40583" lon="5.78167">
        <ele>310.60000610352</ele>
        <time>2022-09-13T11:50:39.000Z</time>
      </trkpt>
      <trkpt lat="49.40578" lon="5.78166">
        <ele>309</ele>
        <time>2022-09-13T11:50:40.000Z</time>
      </trkpt>
      <trkpt lat="49.40576" lon="5.78165">
        <ele>308.20001220703</ele>
        <time>2022-09-13T11:50:41.000Z</time>
      </trkpt>
      <trkpt lat="49.40571" lon="5.78165">
        <ele>307.60000610352</ele>
        <time>2022-09-13T11:50:42.000Z</time>
      </trkpt>
      <trkpt lat="49.40565" lon="5.78163">
        <ele>307.39999389648</ele>
        <time>2022-09-13T11:50:43.000Z</time>
      </trkpt>
      <trkpt lat="49.4055" lon="5.78166">
        <ele>306.39999389648</ele>
        <time>2022-09-13T11:50:47.000Z</time>
      </trkpt>
      <trkpt lat="49.40514" lon="5.78181">
        <ele>305.39999389648</ele>
        <time>2022-09-13T11:50:55.000Z</time>
      </trkpt>
      <trkpt lat="49.40492" lon="5.78189">
        <ele>304.60000610352</ele>
        <time>2022-09-13T11:50:59.000Z</time>
      </trkpt>
      <trkpt lat="49.40471" lon="5.78193">
        <ele>304.20001220703</ele>
        <time>2022-09-13T11:51:02.000Z</time>
      </trkpt>
      <trkpt lat="49.40451" lon="5.782">
        <ele>303.60000610352</ele>
        <time>2022-09-13T11:51:05.000Z</time>
      </trkpt>
      <trkpt lat="49.40446" lon="5.78203">
        <ele>303.39999389648</ele>
        <time>2022-09-13T11:51:06.000Z</time>
      </trkpt>
      <trkpt lat="49.40442" lon="5.78204">
        <ele>302.20001220703</ele>
        <time>2022-09-13T11:51:07.000Z</time>
      </trkpt>
      <trkpt lat="49.40438" lon="5.78205">
        <ele>301.39999389648</ele>
        <time>2022-09-13T11:51:08.000Z</time>
      </trkpt>
      <trkpt lat="49.40435" lon="5.78205">
        <ele>300.79998779297</ele>
        <time>2022-09-13T11:51:09.000Z</time>
      </trkpt>
      <trkpt lat="49.40432" lon="5.78202">
        <ele>300</ele>
        <time>2022-09-13T11:51:10.000Z</time>
      </trkpt>
      <trkpt lat="49.40431" lon="5.78201">
        <ele>299.79998779297</ele>
        <time>2022-09-13T11:51:11.000Z</time>
      </trkpt>
      <trkpt lat="49.40429" lon="5.78198">
        <ele>299.60000610352</ele>
        <time>2022-09-13T11:51:12.000Z</time>
      </trkpt>
      <trkpt lat="49.40427" lon="5.78198">
        <ele>299.39999389648</ele>
        <time>2022-09-13T11:51:13.000Z</time>
      </trkpt>
      <trkpt lat="49.40425" lon="5.78198">
        <ele>299.20001220703</ele>
        <time>2022-09-13T11:51:14.000Z</time>
      </trkpt>
      <trkpt lat="49.40423" lon="5.78198">
        <ele>299.20001220703</ele>
        <time>2022-09-13T11:51:15.000Z</time>
      </trkpt>
      <trkpt lat="49.40416" lon="5.78202">
        <ele>299</ele>
        <time>2022-09-13T11:51:18.000Z</time>
      </trkpt>
      <trkpt lat="49.40414" lon="5.78203">
        <ele>299</ele>
        <time>2022-09-13T11:51:19.000Z</time>
      </trkpt>
      <trkpt lat="49.40403" lon="5.78208">
        <ele>299</ele>
        <time>2022-09-13T11:51:23.000Z</time>
      </trkpt>
      <trkpt lat="49.40394" lon="5.78212">
        <ele>299</ele>
        <time>2022-09-13T11:51:27.000Z</time>
      </trkpt>
      <trkpt lat="49.40392" lon="5.78213">
        <ele>299</ele>
        <time>2022-09-13T11:51:28.000Z</time>
      </trkpt>
      <trkpt lat="49.4039" lon="5.78214">
        <ele>299</ele>
        <time>2022-09-13T11:51:29.000Z</time>
      </trkpt>
      <trkpt lat="49.40388" lon="5.78215">
        <ele>299</ele>
        <time>2022-09-13T11:51:30.000Z</time>
      </trkpt>
      <trkpt lat="49.40386" lon="5.78215">
        <ele>299</ele>
        <time>2022-09-13T11:51:31.000Z</time>
      </trkpt>
      <trkpt lat="49.40383" lon="5.78216">
        <ele>299.20001220703</ele>
        <time>2022-09-13T11:51:32.000Z</time>
      </trkpt>
      <trkpt lat="49.40381" lon="5.78217">
        <ele>299.20001220703</ele>
        <time>2022-09-13T11:51:33.000Z</time>
      </trkpt>
      <trkpt lat="49.40379" lon="5.78218">
        <ele>299.39999389648</ele>
        <time>2022-09-13T11:51:34.000Z</time>
      </trkpt>
      <trkpt lat="49.40376" lon="5.78219">
        <ele>299.60000610352</ele>
        <time>2022-09-13T11:51:35.000Z</time>
      </trkpt>
      <trkpt lat="49.40374" lon="5.7822">
        <ele>299.60000610352</ele>
        <time>2022-09-13T11:51:36.000Z</time>
      </trkpt>
      <trkpt lat="49.40353" lon="5.78224">
        <ele>299.60000610352</ele>
        <time>2022-09-13T11:51:44.000Z</time>
      </trkpt>
      <trkpt lat="49.40334" lon="5.78223">
        <ele>298.60000610352</ele>
        <time>2022-09-13T11:51:51.000Z</time>
      </trkpt>
      <trkpt lat="49.40332" lon="5.78221">
        <ele>298.60000610352</ele>
        <time>2022-09-13T11:51:52.000Z</time>
      </trkpt>
      <trkpt lat="49.40331" lon="5.78221">
        <ele>298.60000610352</ele>
        <time>2022-09-13T11:51:53.000Z</time>
      </trkpt>
      <trkpt lat="49.4033" lon="5.78219">
        <ele>298.60000610352</ele>
        <time>2022-09-13T11:51:54.000Z</time>
      </trkpt>
      <trkpt lat="49.40328" lon="5.78218">
        <ele>298.60000610352</ele>
        <time>2022-09-13T11:51:55.000Z</time>
      </trkpt>
      <trkpt lat="49.40325" lon="5.78219">
        <ele>298.60000610352</ele>
        <time>2022-09-13T11:51:56.000Z</time>
      </trkpt>
      <trkpt lat="49.40324" lon="5.7822">
        <ele>298.60000610352</ele>
        <time>2022-09-13T11:51:57.000Z</time>
      </trkpt>
      <trkpt lat="49.4032" lon="5.78224">
        <ele>298.60000610352</ele>
        <time>2022-09-13T11:51:59.000Z</time>
      </trkpt>
      <trkpt lat="49.40318" lon="5.78224">
        <ele>298.60000610352</ele>
        <time>2022-09-13T11:52:00.000Z</time>
      </trkpt>
      <trkpt lat="49.40317" lon="5.78223">
        <ele>298.60000610352</ele>
        <time>2022-09-13T11:52:01.000Z</time>
      </trkpt>
      <trkpt lat="49.40315" lon="5.78221">
        <ele>298.60000610352</ele>
        <time>2022-09-13T11:52:02.000Z</time>
      </trkpt>
      <trkpt lat="49.40313" lon="5.78219">
        <ele>298.39999389648</ele>
        <time>2022-09-13T11:52:03.000Z</time>
      </trkpt>
      <trkpt lat="49.40311" lon="5.78218">
        <ele>298.39999389648</ele>
        <time>2022-09-13T11:52:04.000Z</time>
      </trkpt>
      <trkpt lat="49.40309" lon="5.78214">
        <ele>298.20001220703</ele>
        <time>2022-09-13T11:52:06.000Z</time>
      </trkpt>
      <trkpt lat="49.40307" lon="5.78212">
        <ele>298.20001220703</ele>
        <time>2022-09-13T11:52:07.000Z</time>
      </trkpt>
      <trkpt lat="49.40294" lon="5.78214">
        <ele>298.60000610352</ele>
        <time>2022-09-13T11:52:11.000Z</time>
      </trkpt>
      <trkpt lat="49.4029" lon="5.78212">
        <ele>298.79998779297</ele>
        <time>2022-09-13T11:52:12.000Z</time>
      </trkpt>
      <trkpt lat="49.40288" lon="5.7821">
        <ele>298.79998779297</ele>
        <time>2022-09-13T11:52:13.000Z</time>
      </trkpt>
      <trkpt lat="49.40286" lon="5.78207">
        <ele>298.79998779297</ele>
        <time>2022-09-13T11:52:14.000Z</time>
      </trkpt>
      <trkpt lat="49.40271" lon="5.78197">
        <ele>299.39999389648</ele>
        <time>2022-09-13T11:52:18.000Z</time>
      </trkpt>
      <trkpt lat="49.40269" lon="5.78197">
        <ele>299.39999389648</ele>
        <time>2022-09-13T11:52:19.000Z</time>
      </trkpt>
      <trkpt lat="49.40264" lon="5.78197">
        <ele>299.20001220703</ele>
        <time>2022-09-13T11:52:21.000Z</time>
      </trkpt>
      <trkpt lat="49.40261" lon="5.78197">
        <ele>299.20001220703</ele>
        <time>2022-09-13T11:52:22.000Z</time>
      </trkpt>
      <trkpt lat="49.40254" lon="5.78191">
        <ele>299</ele>
        <time>2022-09-13T11:52:25.000Z</time>
      </trkpt>
      <trkpt lat="49.4025" lon="5.78189">
        <ele>299</ele>
        <time>2022-09-13T11:52:26.000Z</time>
      </trkpt>
      <trkpt lat="49.40245" lon="5.78187">
        <ele>299</ele>
        <time>2022-09-13T11:52:27.000Z</time>
      </trkpt>
      <trkpt lat="49.40234" lon="5.7818">
        <ele>298.60000610352</ele>
        <time>2022-09-13T11:52:30.000Z</time>
      </trkpt>
      <trkpt lat="49.4023" lon="5.78179">
        <ele>298.60000610352</ele>
        <time>2022-09-13T11:52:31.000Z</time>
      </trkpt>
      <trkpt lat="49.40228" lon="5.78178">
        <ele>298.39999389648</ele>
        <time>2022-09-13T11:52:32.000Z</time>
      </trkpt>
      <trkpt lat="49.4022" lon="5.78174">
        <ele>298.20001220703</ele>
        <time>2022-09-13T11:52:34.000Z</time>
      </trkpt>
      <trkpt lat="49.4021" lon="5.78165">
        <ele>297.60000610352</ele>
        <time>2022-09-13T11:52:39.000Z</time>
      </trkpt>
      <trkpt lat="49.40207" lon="5.78164">
        <ele>297.60000610352</ele>
        <time>2022-09-13T11:52:40.000Z</time>
      </trkpt>
      <trkpt lat="49.40198" lon="5.78159">
        <ele>297.39999389648</ele>
        <time>2022-09-13T11:52:43.000Z</time>
      </trkpt>
      <trkpt lat="49.40192" lon="5.78152">
        <ele>297.20001220703</ele>
        <time>2022-09-13T11:52:45.000Z</time>
      </trkpt>
      <trkpt lat="49.40188" lon="5.78149">
        <ele>297.20001220703</ele>
        <time>2022-09-13T11:52:46.000Z</time>
      </trkpt>
      <trkpt lat="49.40184" lon="5.78148">
        <ele>297.20001220703</ele>
        <time>2022-09-13T11:52:47.000Z</time>
      </trkpt>
      <trkpt lat="49.4017" lon="5.78142">
        <ele>297.20001220703</ele>
        <time>2022-09-13T11:52:51.000Z</time>
      </trkpt>
      <trkpt lat="49.40161" lon="5.78134">
        <ele>297.20001220703</ele>
        <time>2022-09-13T11:52:54.000Z</time>
      </trkpt>
      <trkpt lat="49.40159" lon="5.78132">
        <ele>297.20001220703</ele>
        <time>2022-09-13T11:52:55.000Z</time>
      </trkpt>
      <trkpt lat="49.40156" lon="5.78133">
        <ele>297.20001220703</ele>
        <time>2022-09-13T11:52:56.000Z</time>
      </trkpt>
      <trkpt lat="49.40154" lon="5.78135">
        <ele>297.20001220703</ele>
        <time>2022-09-13T11:52:57.000Z</time>
      </trkpt>
      <trkpt lat="49.40151" lon="5.78135">
        <ele>297.39999389648</ele>
        <time>2022-09-13T11:52:58.000Z</time>
      </trkpt>
      <trkpt lat="49.40147" lon="5.78134">
        <ele>297.39999389648</ele>
        <time>2022-09-13T11:52:59.000Z</time>
      </trkpt>
      <trkpt lat="49.4014" lon="5.78132">
        <ele>297.39999389648</ele>
        <time>2022-09-13T11:53:01.000Z</time>
      </trkpt>
      <trkpt lat="49.40135" lon="5.78131">
        <ele>297.39999389648</ele>
        <time>2022-09-13T11:53:02.000Z</time>
      </trkpt>
      <trkpt lat="49.40131" lon="5.78131">
        <ele>297.20001220703</ele>
        <time>2022-09-13T11:53:03.000Z</time>
      </trkpt>
      <trkpt lat="49.40127" lon="5.78129">
        <ele>297.20001220703</ele>
        <time>2022-09-13T11:53:04.000Z</time>
      </trkpt>
      <trkpt lat="49.40123" lon="5.78127">
        <ele>297</ele>
        <time>2022-09-13T11:53:05.000Z</time>
      </trkpt>
      <trkpt lat="49.40119" lon="5.78124">
        <ele>296.60000610352</ele>
        <time>2022-09-13T11:53:06.000Z</time>
      </trkpt>
      <trkpt lat="49.40116" lon="5.78121">
        <ele>296.39999389648</ele>
        <time>2022-09-13T11:53:07.000Z</time>
      </trkpt>
      <trkpt lat="49.40113" lon="5.78119">
        <ele>296.20001220703</ele>
        <time>2022-09-13T11:53:08.000Z</time>
      </trkpt>
      <trkpt lat="49.40111" lon="5.78117">
        <ele>296</ele>
        <time>2022-09-13T11:53:09.000Z</time>
      </trkpt>
      <trkpt lat="49.40109" lon="5.78115">
        <ele>295.79998779297</ele>
        <time>2022-09-13T11:53:10.000Z</time>
      </trkpt>
      <trkpt lat="49.40107" lon="5.78114">
        <ele>295.60000610352</ele>
        <time>2022-09-13T11:53:11.000Z</time>
      </trkpt>
      <trkpt lat="49.40104" lon="5.78111">
        <ele>295.39999389648</ele>
        <time>2022-09-13T11:53:12.000Z</time>
      </trkpt>
      <trkpt lat="49.40102" lon="5.7811">
        <ele>295.39999389648</ele>
        <time>2022-09-13T11:53:13.000Z</time>
      </trkpt>
      <trkpt lat="49.40096" lon="5.78105">
        <ele>295.20001220703</ele>
        <time>2022-09-13T11:53:15.000Z</time>
      </trkpt>
      <trkpt lat="49.40074" lon="5.78101">
        <ele>295.20001220703</ele>
        <time>2022-09-13T11:53:20.000Z</time>
      </trkpt>
      <trkpt lat="49.40067" lon="5.78102">
        <ele>295.20001220703</ele>
        <time>2022-09-13T11:53:21.000Z</time>
      </trkpt>
      <trkpt lat="49.40056" lon="5.78101">
        <ele>295</ele>
        <time>2022-09-13T11:53:23.000Z</time>
      </trkpt>
      <trkpt lat="49.40049" lon="5.781">
        <ele>294.79998779297</ele>
        <time>2022-09-13T11:53:24.000Z</time>
      </trkpt>
      <trkpt lat="49.40034" lon="5.78093">
        <ele>293.60000610352</ele>
        <time>2022-09-13T11:53:26.000Z</time>
      </trkpt>
      <trkpt lat="49.40027" lon="5.78089">
        <ele>293.39999389648</ele>
        <time>2022-09-13T11:53:27.000Z</time>
      </trkpt>
      <trkpt lat="49.40023" lon="5.78086">
        <ele>293</ele>
        <time>2022-09-13T11:53:28.000Z</time>
      </trkpt>
      <trkpt lat="49.40019" lon="5.78084">
        <ele>292.79998779297</ele>
        <time>2022-09-13T11:53:29.000Z</time>
      </trkpt>
      <trkpt lat="49.40016" lon="5.78082">
        <ele>292.60000610352</ele>
        <time>2022-09-13T11:53:30.000Z</time>
      </trkpt>
      <trkpt lat="49.40013" lon="5.7808">
        <ele>292.60000610352</ele>
        <time>2022-09-13T11:53:31.000Z</time>
      </trkpt>
      <trkpt lat="49.4001" lon="5.78079">
        <ele>292.60000610352</ele>
        <time>2022-09-13T11:53:32.000Z</time>
      </trkpt>
      <trkpt lat="49.40009" lon="5.78077">
        <ele>292.79998779297</ele>
        <time>2022-09-13T11:53:33.000Z</time>
      </trkpt>
      <trkpt lat="49.40006" lon="5.78076">
        <ele>292.79998779297</ele>
        <time>2022-09-13T11:53:34.000Z</time>
      </trkpt>
      <trkpt lat="49.40003" lon="5.78074">
        <ele>293.20001220703</ele>
        <time>2022-09-13T11:53:35.000Z</time>
      </trkpt>
      <trkpt lat="49.39988" lon="5.78067">
        <ele>294</ele>
        <time>2022-09-13T11:53:39.000Z</time>
      </trkpt>
      <trkpt lat="49.39986" lon="5.78065">
        <ele>294.20001220703</ele>
        <time>2022-09-13T11:53:40.000Z</time>
      </trkpt>
      <trkpt lat="49.39984" lon="5.78064">
        <ele>294.20001220703</ele>
        <time>2022-09-13T11:53:41.000Z</time>
      </trkpt>
      <trkpt lat="49.39982" lon="5.78063">
        <ele>294.79998779297</ele>
        <time>2022-09-13T11:53:42.000Z</time>
      </trkpt>
      <trkpt lat="49.39973" lon="5.78059">
        <ele>296</ele>
        <time>2022-09-13T11:53:45.000Z</time>
      </trkpt>
      <trkpt lat="49.39972" lon="5.78057">
        <ele>296</ele>
        <time>2022-09-13T11:53:46.000Z</time>
      </trkpt>
      <trkpt lat="49.39971" lon="5.78055">
        <ele>296.39999389648</ele>
        <time>2022-09-13T11:53:47.000Z</time>
      </trkpt>
      <trkpt lat="49.3997" lon="5.78052">
        <ele>296.39999389648</ele>
        <time>2022-09-13T11:53:48.000Z</time>
      </trkpt>
      <trkpt lat="49.39968" lon="5.78048">
        <ele>296.60000610352</ele>
        <time>2022-09-13T11:53:49.000Z</time>
      </trkpt>
      <trkpt lat="49.39966" lon="5.78044">
        <ele>296.60000610352</ele>
        <time>2022-09-13T11:53:50.000Z</time>
      </trkpt>
      <trkpt lat="49.39961" lon="5.78038">
        <ele>296.79998779297</ele>
        <time>2022-09-13T11:53:52.000Z</time>
      </trkpt>
      <trkpt lat="49.3996" lon="5.78036">
        <ele>296.79998779297</ele>
        <time>2022-09-13T11:53:53.000Z</time>
      </trkpt>
      <trkpt lat="49.39958" lon="5.78034">
        <ele>296.79998779297</ele>
        <time>2022-09-13T11:53:54.000Z</time>
      </trkpt>
      <trkpt lat="49.39957" lon="5.78033">
        <ele>296.79998779297</ele>
        <time>2022-09-13T11:53:55.000Z</time>
      </trkpt>
      <trkpt lat="49.39956" lon="5.78031">
        <ele>296.79998779297</ele>
        <time>2022-09-13T11:53:56.000Z</time>
      </trkpt>
      <trkpt lat="49.39956" lon="5.78027">
        <ele>296.79998779297</ele>
        <time>2022-09-13T11:53:57.000Z</time>
      </trkpt>
      <trkpt lat="49.39955" lon="5.78025">
        <ele>296.79998779297</ele>
        <time>2022-09-13T11:53:58.000Z</time>
      </trkpt>
      <trkpt lat="49.39955" lon="5.78021">
        <ele>296.79998779297</ele>
        <time>2022-09-13T11:53:59.000Z</time>
      </trkpt>
      <trkpt lat="49.39955" lon="5.78017">
        <ele>296.79998779297</ele>
        <time>2022-09-13T11:54:00.000Z</time>
      </trkpt>
      <trkpt lat="49.39955" lon="5.78013">
        <ele>296.79998779297</ele>
        <time>2022-09-13T11:54:01.000Z</time>
      </trkpt>
      <trkpt lat="49.39956" lon="5.78009">
        <ele>296.79998779297</ele>
        <time>2022-09-13T11:54:02.000Z</time>
      </trkpt>
      <trkpt lat="49.39957" lon="5.78001">
        <ele>296.79998779297</ele>
        <time>2022-09-13T11:54:04.000Z</time>
      </trkpt>
      <trkpt lat="49.39959" lon="5.77993">
        <ele>296.60000610352</ele>
        <time>2022-09-13T11:54:07.000Z</time>
      </trkpt>
      <trkpt lat="49.39961" lon="5.77984">
        <ele>296.60000610352</ele>
        <time>2022-09-13T11:54:10.000Z</time>
      </trkpt>
      <trkpt lat="49.39962" lon="5.77981">
        <ele>296.60000610352</ele>
        <time>2022-09-13T11:54:11.000Z</time>
      </trkpt>
      <trkpt lat="49.39963" lon="5.77978">
        <ele>296.60000610352</ele>
        <time>2022-09-13T11:54:12.000Z</time>
      </trkpt>
      <trkpt lat="49.39963" lon="5.77967">
        <ele>296.60000610352</ele>
        <time>2022-09-13T11:54:15.000Z</time>
      </trkpt>
      <trkpt lat="49.39964" lon="5.77964">
        <ele>296.60000610352</ele>
        <time>2022-09-13T11:54:16.000Z</time>
      </trkpt>
      <trkpt lat="49.39965" lon="5.77961">
        <ele>296.60000610352</ele>
        <time>2022-09-13T11:54:17.000Z</time>
      </trkpt>
      <trkpt lat="49.39966" lon="5.77958">
        <ele>296.60000610352</ele>
        <time>2022-09-13T11:54:18.000Z</time>
      </trkpt>
      <trkpt lat="49.39967" lon="5.77954">
        <ele>296.60000610352</ele>
        <time>2022-09-13T11:54:19.000Z</time>
      </trkpt>
      <trkpt lat="49.39967" lon="5.77951">
        <ele>296.60000610352</ele>
        <time>2022-09-13T11:54:20.000Z</time>
      </trkpt>
      <trkpt lat="49.39968" lon="5.77948">
        <ele>296.79998779297</ele>
        <time>2022-09-13T11:54:21.000Z</time>
      </trkpt>
      <trkpt lat="49.39967" lon="5.77944">
        <ele>296.79998779297</ele>
        <time>2022-09-13T11:54:22.000Z</time>
      </trkpt>
      <trkpt lat="49.39966" lon="5.7794">
        <ele>296.79998779297</ele>
        <time>2022-09-13T11:54:23.000Z</time>
      </trkpt>
      <trkpt lat="49.39966" lon="5.77937">
        <ele>296.79998779297</ele>
        <time>2022-09-13T11:54:24.000Z</time>
      </trkpt>
      <trkpt lat="49.39967" lon="5.77929">
        <ele>297</ele>
        <time>2022-09-13T11:54:26.000Z</time>
      </trkpt>
      <trkpt lat="49.39967" lon="5.77924">
        <ele>297</ele>
        <time>2022-09-13T11:54:27.000Z</time>
      </trkpt>
      <trkpt lat="49.39966" lon="5.7792">
        <ele>297</ele>
        <time>2022-09-13T11:54:28.000Z</time>
      </trkpt>
      <trkpt lat="49.39967" lon="5.77916">
        <ele>297.20001220703</ele>
        <time>2022-09-13T11:54:29.000Z</time>
      </trkpt>
      <trkpt lat="49.39968" lon="5.77908">
        <ele>297.20001220703</ele>
        <time>2022-09-13T11:54:31.000Z</time>
      </trkpt>
      <trkpt lat="49.3997" lon="5.77883">
        <ele>297.20001220703</ele>
        <time>2022-09-13T11:54:36.000Z</time>
      </trkpt>
      <trkpt lat="49.39972" lon="5.77855">
        <ele>296.79998779297</ele>
        <time>2022-09-13T11:54:42.000Z</time>
      </trkpt>
      <trkpt lat="49.39972" lon="5.77851">
        <ele>297</ele>
        <time>2022-09-13T11:54:43.000Z</time>
      </trkpt>
      <trkpt lat="49.39972" lon="5.77847">
        <ele>297</ele>
        <time>2022-09-13T11:54:44.000Z</time>
      </trkpt>
      <trkpt lat="49.39972" lon="5.77842">
        <ele>297.20001220703</ele>
        <time>2022-09-13T11:54:45.000Z</time>
      </trkpt>
      <trkpt lat="49.39974" lon="5.77828">
        <ele>297.20001220703</ele>
        <time>2022-09-13T11:54:48.000Z</time>
      </trkpt>
      <trkpt lat="49.39975" lon="5.77815">
        <ele>297.39999389648</ele>
        <time>2022-09-13T11:54:51.000Z</time>
      </trkpt>
      <trkpt lat="49.39975" lon="5.77812">
        <ele>297.39999389648</ele>
        <time>2022-09-13T11:54:52.000Z</time>
      </trkpt>
      <trkpt lat="49.39975" lon="5.77803">
        <ele>297.60000610352</ele>
        <time>2022-09-13T11:54:54.000Z</time>
      </trkpt>
      <trkpt lat="49.39976" lon="5.778">
        <ele>297.60000610352</ele>
        <time>2022-09-13T11:54:55.000Z</time>
      </trkpt>
      <trkpt lat="49.39976" lon="5.77796">
        <ele>297.79998779297</ele>
        <time>2022-09-13T11:54:56.000Z</time>
      </trkpt>
      <trkpt lat="49.39976" lon="5.77793">
        <ele>297.79998779297</ele>
        <time>2022-09-13T11:54:57.000Z</time>
      </trkpt>
      <trkpt lat="49.39976" lon="5.77789">
        <ele>298.20001220703</ele>
        <time>2022-09-13T11:54:58.000Z</time>
      </trkpt>
      <trkpt lat="49.39976" lon="5.77785">
        <ele>298.39999389648</ele>
        <time>2022-09-13T11:54:59.000Z</time>
      </trkpt>
      <trkpt lat="49.39975" lon="5.77782">
        <ele>298.39999389648</ele>
        <time>2022-09-13T11:55:00.000Z</time>
      </trkpt>
      <trkpt lat="49.39975" lon="5.77778">
        <ele>298.39999389648</ele>
        <time>2022-09-13T11:55:01.000Z</time>
      </trkpt>
      <trkpt lat="49.39974" lon="5.77771">
        <ele>298.79998779297</ele>
        <time>2022-09-13T11:55:03.000Z</time>
      </trkpt>
      <trkpt lat="49.39976" lon="5.77767">
        <ele>298.79998779297</ele>
        <time>2022-09-13T11:55:04.000Z</time>
      </trkpt>
      <trkpt lat="49.39977" lon="5.77764">
        <ele>299</ele>
        <time>2022-09-13T11:55:05.000Z</time>
      </trkpt>
      <trkpt lat="49.39977" lon="5.77761">
        <ele>299.20001220703</ele>
        <time>2022-09-13T11:55:06.000Z</time>
      </trkpt>
      <trkpt lat="49.39979" lon="5.77756">
        <ele>299.20001220703</ele>
        <time>2022-09-13T11:55:07.000Z</time>
      </trkpt>
      <trkpt lat="49.39979" lon="5.77753">
        <ele>299.39999389648</ele>
        <time>2022-09-13T11:55:08.000Z</time>
      </trkpt>
      <trkpt lat="49.39981" lon="5.7775">
        <ele>299.39999389648</ele>
        <time>2022-09-13T11:55:09.000Z</time>
      </trkpt>
      <trkpt lat="49.39981" lon="5.77721">
        <ele>300.39999389648</ele>
        <time>2022-09-13T11:55:16.000Z</time>
      </trkpt>
      <trkpt lat="49.39981" lon="5.77717">
        <ele>300.79998779297</ele>
        <time>2022-09-13T11:55:17.000Z</time>
      </trkpt>
      <trkpt lat="49.39981" lon="5.77714">
        <ele>300.79998779297</ele>
        <time>2022-09-13T11:55:18.000Z</time>
      </trkpt>
      <trkpt lat="49.39981" lon="5.77711">
        <ele>300.79998779297</ele>
        <time>2022-09-13T11:55:19.000Z</time>
      </trkpt>
      <trkpt lat="49.39982" lon="5.77707">
        <ele>301</ele>
        <time>2022-09-13T11:55:20.000Z</time>
      </trkpt>
      <trkpt lat="49.39983" lon="5.77703">
        <ele>301.20001220703</ele>
        <time>2022-09-13T11:55:21.000Z</time>
      </trkpt>
      <trkpt lat="49.39983" lon="5.777">
        <ele>301.20001220703</ele>
        <time>2022-09-13T11:55:22.000Z</time>
      </trkpt>
      <trkpt lat="49.39984" lon="5.77697">
        <ele>301.39999389648</ele>
        <time>2022-09-13T11:55:23.000Z</time>
      </trkpt>
      <trkpt lat="49.39985" lon="5.77692">
        <ele>301.39999389648</ele>
        <time>2022-09-13T11:55:24.000Z</time>
      </trkpt>
      <trkpt lat="49.39984" lon="5.77686">
        <ele>301.39999389648</ele>
        <time>2022-09-13T11:55:25.000Z</time>
      </trkpt>
      <trkpt lat="49.39984" lon="5.77681">
        <ele>301.60000610352</ele>
        <time>2022-09-13T11:55:26.000Z</time>
      </trkpt>
      <trkpt lat="49.39983" lon="5.77677">
        <ele>301.60000610352</ele>
        <time>2022-09-13T11:55:27.000Z</time>
      </trkpt>
      <trkpt lat="49.39983" lon="5.77673">
        <ele>301.60000610352</ele>
        <time>2022-09-13T11:55:28.000Z</time>
      </trkpt>
      <trkpt lat="49.39983" lon="5.77669">
        <ele>301.60000610352</ele>
        <time>2022-09-13T11:55:29.000Z</time>
      </trkpt>
      <trkpt lat="49.39983" lon="5.77666">
        <ele>301.79998779297</ele>
        <time>2022-09-13T11:55:30.000Z</time>
      </trkpt>
      <trkpt lat="49.39982" lon="5.77661">
        <ele>301.79998779297</ele>
        <time>2022-09-13T11:55:31.000Z</time>
      </trkpt>
      <trkpt lat="49.39982" lon="5.77655">
        <ele>301.79998779297</ele>
        <time>2022-09-13T11:55:32.000Z</time>
      </trkpt>
      <trkpt lat="49.39983" lon="5.77649">
        <ele>302</ele>
        <time>2022-09-13T11:55:33.000Z</time>
      </trkpt>
      <trkpt lat="49.39984" lon="5.77643">
        <ele>302</ele>
        <time>2022-09-13T11:55:34.000Z</time>
      </trkpt>
      <trkpt lat="49.39984" lon="5.7764">
        <ele>302.20001220703</ele>
        <time>2022-09-13T11:55:35.000Z</time>
      </trkpt>
      <trkpt lat="49.39984" lon="5.77637">
        <ele>302.20001220703</ele>
        <time>2022-09-13T11:55:36.000Z</time>
      </trkpt>
      <trkpt lat="49.39984" lon="5.77633">
        <ele>302.39999389648</ele>
        <time>2022-09-13T11:55:37.000Z</time>
      </trkpt>
      <trkpt lat="49.39983" lon="5.77629">
        <ele>302.60000610352</ele>
        <time>2022-09-13T11:55:38.000Z</time>
      </trkpt>
      <trkpt lat="49.39982" lon="5.77623">
        <ele>302.79998779297</ele>
        <time>2022-09-13T11:55:39.000Z</time>
      </trkpt>
      <trkpt lat="49.39982" lon="5.77611">
        <ele>303.20001220703</ele>
        <time>2022-09-13T11:55:42.000Z</time>
      </trkpt>
      <trkpt lat="49.39982" lon="5.77608">
        <ele>303.39999389648</ele>
        <time>2022-09-13T11:55:43.000Z</time>
      </trkpt>
      <trkpt lat="49.39982" lon="5.77606">
        <ele>303.39999389648</ele>
        <time>2022-09-13T11:55:44.000Z</time>
      </trkpt>
      <trkpt lat="49.39983" lon="5.77602">
        <ele>303.60000610352</ele>
        <time>2022-09-13T11:55:45.000Z</time>
      </trkpt>
      <trkpt lat="49.39984" lon="5.77599">
        <ele>303.60000610352</ele>
        <time>2022-09-13T11:55:46.000Z</time>
      </trkpt>
      <trkpt lat="49.39985" lon="5.77595">
        <ele>303.60000610352</ele>
        <time>2022-09-13T11:55:47.000Z</time>
      </trkpt>
      <trkpt lat="49.39986" lon="5.77593">
        <ele>303.79998779297</ele>
        <time>2022-09-13T11:55:48.000Z</time>
      </trkpt>
      <trkpt lat="49.39987" lon="5.7759">
        <ele>304</ele>
        <time>2022-09-13T11:55:49.000Z</time>
      </trkpt>
      <trkpt lat="49.39988" lon="5.77588">
        <ele>304.20001220703</ele>
        <time>2022-09-13T11:55:50.000Z</time>
      </trkpt>
      <trkpt lat="49.3999" lon="5.77587">
        <ele>304.20001220703</ele>
        <time>2022-09-13T11:55:51.000Z</time>
      </trkpt>
      <trkpt lat="49.39992" lon="5.77586">
        <ele>304.39999389648</ele>
        <time>2022-09-13T11:55:52.000Z</time>
      </trkpt>
      <trkpt lat="49.39994" lon="5.77585">
        <ele>304.39999389648</ele>
        <time>2022-09-13T11:55:53.000Z</time>
      </trkpt>
      <trkpt lat="49.39997" lon="5.77584">
        <ele>304.79998779297</ele>
        <time>2022-09-13T11:55:54.000Z</time>
      </trkpt>
      <trkpt lat="49.39999" lon="5.77584">
        <ele>305</ele>
        <time>2022-09-13T11:55:55.000Z</time>
      </trkpt>
      <trkpt lat="49.40002" lon="5.77585">
        <ele>305.39999389648</ele>
        <time>2022-09-13T11:55:56.000Z</time>
      </trkpt>
      <trkpt lat="49.40006" lon="5.77586">
        <ele>305.79998779297</ele>
        <time>2022-09-13T11:55:57.000Z</time>
      </trkpt>
      <trkpt lat="49.4001" lon="5.77587">
        <ele>306</ele>
        <time>2022-09-13T11:55:58.000Z</time>
      </trkpt>
      <trkpt lat="49.40011" lon="5.77586">
        <ele>306.39999389648</ele>
        <time>2022-09-13T11:55:59.000Z</time>
      </trkpt>
      <trkpt lat="49.40014" lon="5.77585">
        <ele>306.39999389648</ele>
        <time>2022-09-13T11:56:00.000Z</time>
      </trkpt>
      <trkpt lat="49.40016" lon="5.77584">
        <ele>306.79998779297</ele>
        <time>2022-09-13T11:56:01.000Z</time>
      </trkpt>
      <trkpt lat="49.40018" lon="5.77583">
        <ele>307</ele>
        <time>2022-09-13T11:56:02.000Z</time>
      </trkpt>
      <trkpt lat="49.40021" lon="5.77583">
        <ele>307.20001220703</ele>
        <time>2022-09-13T11:56:03.000Z</time>
      </trkpt>
      <trkpt lat="49.40022" lon="5.77582">
        <ele>307.60000610352</ele>
        <time>2022-09-13T11:56:04.000Z</time>
      </trkpt>
      <trkpt lat="49.40024" lon="5.77581">
        <ele>307.79998779297</ele>
        <time>2022-09-13T11:56:05.000Z</time>
      </trkpt>
      <trkpt lat="49.40026" lon="5.77581">
        <ele>308.20001220703</ele>
        <time>2022-09-13T11:56:06.000Z</time>
      </trkpt>
      <trkpt lat="49.4003" lon="5.77581">
        <ele>308.20001220703</ele>
        <time>2022-09-13T11:56:07.000Z</time>
      </trkpt>
      <trkpt lat="49.40031" lon="5.77581">
        <ele>308.60000610352</ele>
        <time>2022-09-13T11:56:08.000Z</time>
      </trkpt>
      <trkpt lat="49.40033" lon="5.77581">
        <ele>308.60000610352</ele>
        <time>2022-09-13T11:56:09.000Z</time>
      </trkpt>
      <trkpt lat="49.40035" lon="5.7758">
        <ele>309</ele>
        <time>2022-09-13T11:56:10.000Z</time>
      </trkpt>
      <trkpt lat="49.40038" lon="5.7758">
        <ele>309</ele>
        <time>2022-09-13T11:56:11.000Z</time>
      </trkpt>
      <trkpt lat="49.40039" lon="5.77581">
        <ele>309.39999389648</ele>
        <time>2022-09-13T11:56:12.000Z</time>
      </trkpt>
      <trkpt lat="49.40041" lon="5.77581">
        <ele>309.60000610352</ele>
        <time>2022-09-13T11:56:13.000Z</time>
      </trkpt>
      <trkpt lat="49.40045" lon="5.77581">
        <ele>309.79998779297</ele>
        <time>2022-09-13T11:56:14.000Z</time>
      </trkpt>
      <trkpt lat="49.40049" lon="5.77581">
        <ele>310</ele>
        <time>2022-09-13T11:56:15.000Z</time>
      </trkpt>
      <trkpt lat="49.40051" lon="5.7758">
        <ele>310</ele>
        <time>2022-09-13T11:56:16.000Z</time>
      </trkpt>
      <trkpt lat="49.40053" lon="5.77581">
        <ele>310.20001220703</ele>
        <time>2022-09-13T11:56:17.000Z</time>
      </trkpt>
      <trkpt lat="49.40056" lon="5.77581">
        <ele>310.39999389648</ele>
        <time>2022-09-13T11:56:18.000Z</time>
      </trkpt>
      <trkpt lat="49.40059" lon="5.7758">
        <ele>310.60000610352</ele>
        <time>2022-09-13T11:56:19.000Z</time>
      </trkpt>
      <trkpt lat="49.40063" lon="5.7758">
        <ele>310.79998779297</ele>
        <time>2022-09-13T11:56:20.000Z</time>
      </trkpt>
      <trkpt lat="49.40065" lon="5.77579">
        <ele>310.79998779297</ele>
        <time>2022-09-13T11:56:21.000Z</time>
      </trkpt>
      <trkpt lat="49.40067" lon="5.77579">
        <ele>310.79998779297</ele>
        <time>2022-09-13T11:56:22.000Z</time>
      </trkpt>
      <trkpt lat="49.40071" lon="5.77579">
        <ele>310.79998779297</ele>
        <time>2022-09-13T11:56:23.000Z</time>
      </trkpt>
      <trkpt lat="49.40075" lon="5.77578">
        <ele>310.79998779297</ele>
        <time>2022-09-13T11:56:24.000Z</time>
      </trkpt>
      <trkpt lat="49.40078" lon="5.77577">
        <ele>310.79998779297</ele>
        <time>2022-09-13T11:56:25.000Z</time>
      </trkpt>
      <trkpt lat="49.4008" lon="5.77574">
        <ele>311</ele>
        <time>2022-09-13T11:56:26.000Z</time>
      </trkpt>
      <trkpt lat="49.40081" lon="5.77573">
        <ele>311.39999389648</ele>
        <time>2022-09-13T11:56:27.000Z</time>
      </trkpt>
      <trkpt lat="49.40084" lon="5.77571">
        <ele>311.39999389648</ele>
        <time>2022-09-13T11:56:28.000Z</time>
      </trkpt>
      <trkpt lat="49.40086" lon="5.77569">
        <ele>312</ele>
        <time>2022-09-13T11:56:29.000Z</time>
      </trkpt>
      <trkpt lat="49.40089" lon="5.77568">
        <ele>312.20001220703</ele>
        <time>2022-09-13T11:56:30.000Z</time>
      </trkpt>
      <trkpt lat="49.40091" lon="5.77568">
        <ele>312.60000610352</ele>
        <time>2022-09-13T11:56:31.000Z</time>
      </trkpt>
      <trkpt lat="49.40094" lon="5.77567">
        <ele>312.79998779297</ele>
        <time>2022-09-13T11:56:32.000Z</time>
      </trkpt>
      <trkpt lat="49.40097" lon="5.77567">
        <ele>313</ele>
        <time>2022-09-13T11:56:33.000Z</time>
      </trkpt>
      <trkpt lat="49.401" lon="5.77567">
        <ele>313</ele>
        <time>2022-09-13T11:56:34.000Z</time>
      </trkpt>
      <trkpt lat="49.40103" lon="5.77567">
        <ele>313.20001220703</ele>
        <time>2022-09-13T11:56:35.000Z</time>
      </trkpt>
      <trkpt lat="49.40106" lon="5.77567">
        <ele>313.20001220703</ele>
        <time>2022-09-13T11:56:36.000Z</time>
      </trkpt>
      <trkpt lat="49.40108" lon="5.77566">
        <ele>313.20001220703</ele>
        <time>2022-09-13T11:56:37.000Z</time>
      </trkpt>
      <trkpt lat="49.40111" lon="5.77566">
        <ele>313.20001220703</ele>
        <time>2022-09-13T11:56:38.000Z</time>
      </trkpt>
      <trkpt lat="49.40114" lon="5.77566">
        <ele>313.20001220703</ele>
        <time>2022-09-13T11:56:39.000Z</time>
      </trkpt>
      <trkpt lat="49.40117" lon="5.77566">
        <ele>313.20001220703</ele>
        <time>2022-09-13T11:56:40.000Z</time>
      </trkpt>
      <trkpt lat="49.40119" lon="5.77566">
        <ele>313.79998779297</ele>
        <time>2022-09-13T11:56:41.000Z</time>
      </trkpt>
      <trkpt lat="49.40122" lon="5.77566">
        <ele>313.79998779297</ele>
        <time>2022-09-13T11:56:42.000Z</time>
      </trkpt>
      <trkpt lat="49.40125" lon="5.77566">
        <ele>314</ele>
        <time>2022-09-13T11:56:43.000Z</time>
      </trkpt>
      <trkpt lat="49.40128" lon="5.77565">
        <ele>314</ele>
        <time>2022-09-13T11:56:44.000Z</time>
      </trkpt>
      <trkpt lat="49.40131" lon="5.77565">
        <ele>314</ele>
        <time>2022-09-13T11:56:45.000Z</time>
      </trkpt>
      <trkpt lat="49.40134" lon="5.77565">
        <ele>314.20001220703</ele>
        <time>2022-09-13T11:56:46.000Z</time>
      </trkpt>
      <trkpt lat="49.40138" lon="5.77564">
        <ele>314.20001220703</ele>
        <time>2022-09-13T11:56:47.000Z</time>
      </trkpt>
      <trkpt lat="49.40141" lon="5.77564">
        <ele>314.20001220703</ele>
        <time>2022-09-13T11:56:48.000Z</time>
      </trkpt>
      <trkpt lat="49.40145" lon="5.77564">
        <ele>314.20001220703</ele>
        <time>2022-09-13T11:56:49.000Z</time>
      </trkpt>
      <trkpt lat="49.40149" lon="5.77563">
        <ele>314.20001220703</ele>
        <time>2022-09-13T11:56:50.000Z</time>
      </trkpt>
      <trkpt lat="49.40152" lon="5.77563">
        <ele>314.20001220703</ele>
        <time>2022-09-13T11:56:51.000Z</time>
      </trkpt>
      <trkpt lat="49.40155" lon="5.77563">
        <ele>314.20001220703</ele>
        <time>2022-09-13T11:56:52.000Z</time>
      </trkpt>
      <trkpt lat="49.4016" lon="5.77562">
        <ele>314.20001220703</ele>
        <time>2022-09-13T11:56:53.000Z</time>
      </trkpt>
      <trkpt lat="49.40163" lon="5.77562">
        <ele>314.39999389648</ele>
        <time>2022-09-13T11:56:54.000Z</time>
      </trkpt>
      <trkpt lat="49.40167" lon="5.77561">
        <ele>314.39999389648</ele>
        <time>2022-09-13T11:56:55.000Z</time>
      </trkpt>
      <trkpt lat="49.40169" lon="5.77561">
        <ele>314.39999389648</ele>
        <time>2022-09-13T11:56:56.000Z</time>
      </trkpt>
      <trkpt lat="49.40181" lon="5.77561">
        <ele>315.20001220703</ele>
        <time>2022-09-13T11:56:59.000Z</time>
      </trkpt>
      <trkpt lat="49.40187" lon="5.7756">
        <ele>315.60000610352</ele>
        <time>2022-09-13T11:57:01.000Z</time>
      </trkpt>
      <trkpt lat="49.40216" lon="5.77561">
        <ele>315.79998779297</ele>
        <time>2022-09-13T11:57:09.000Z</time>
      </trkpt>
      <trkpt lat="49.40228" lon="5.77566">
        <ele>316.39999389648</ele>
        <time>2022-09-13T11:57:13.000Z</time>
      </trkpt>
      <trkpt lat="49.40238" lon="5.77572">
        <ele>317</ele>
        <time>2022-09-13T11:57:16.000Z</time>
      </trkpt>
      <trkpt lat="49.40241" lon="5.77574">
        <ele>317.20001220703</ele>
        <time>2022-09-13T11:57:17.000Z</time>
      </trkpt>
      <trkpt lat="49.40244" lon="5.77576">
        <ele>317.39999389648</ele>
        <time>2022-09-13T11:57:18.000Z</time>
      </trkpt>
      <trkpt lat="49.40248" lon="5.77578">
        <ele>317.39999389648</ele>
        <time>2022-09-13T11:57:19.000Z</time>
      </trkpt>
      <trkpt lat="49.4025" lon="5.77579">
        <ele>317.79998779297</ele>
        <time>2022-09-13T11:57:20.000Z</time>
      </trkpt>
      <trkpt lat="49.40254" lon="5.77581">
        <ele>317.79998779297</ele>
        <time>2022-09-13T11:57:21.000Z</time>
      </trkpt>
      <trkpt lat="49.40257" lon="5.77584">
        <ele>317.79998779297</ele>
        <time>2022-09-13T11:57:22.000Z</time>
      </trkpt>
      <trkpt lat="49.4026" lon="5.77585">
        <ele>318</ele>
        <time>2022-09-13T11:57:23.000Z</time>
      </trkpt>
      <trkpt lat="49.40263" lon="5.77587">
        <ele>318</ele>
        <time>2022-09-13T11:57:24.000Z</time>
      </trkpt>
      <trkpt lat="49.40266" lon="5.77588">
        <ele>318.20001220703</ele>
        <time>2022-09-13T11:57:25.000Z</time>
      </trkpt>
      <trkpt lat="49.40269" lon="5.7759">
        <ele>318.39999389648</ele>
        <time>2022-09-13T11:57:26.000Z</time>
      </trkpt>
      <trkpt lat="49.40272" lon="5.77591">
        <ele>318.39999389648</ele>
        <time>2022-09-13T11:57:27.000Z</time>
      </trkpt>
      <trkpt lat="49.40276" lon="5.77594">
        <ele>318.60000610352</ele>
        <time>2022-09-13T11:57:28.000Z</time>
      </trkpt>
      <trkpt lat="49.40279" lon="5.77595">
        <ele>318.60000610352</ele>
        <time>2022-09-13T11:57:29.000Z</time>
      </trkpt>
      <trkpt lat="49.40282" lon="5.77597">
        <ele>318.79998779297</ele>
        <time>2022-09-13T11:57:30.000Z</time>
      </trkpt>
      <trkpt lat="49.40285" lon="5.77598">
        <ele>318.79998779297</ele>
        <time>2022-09-13T11:57:31.000Z</time>
      </trkpt>
      <trkpt lat="49.40288" lon="5.776">
        <ele>319</ele>
        <time>2022-09-13T11:57:32.000Z</time>
      </trkpt>
      <trkpt lat="49.40292" lon="5.77602">
        <ele>319.20001220703</ele>
        <time>2022-09-13T11:57:33.000Z</time>
      </trkpt>
      <trkpt lat="49.40296" lon="5.77604">
        <ele>319.20001220703</ele>
        <time>2022-09-13T11:57:34.000Z</time>
      </trkpt>
      <trkpt lat="49.40298" lon="5.77606">
        <ele>319.39999389648</ele>
        <time>2022-09-13T11:57:35.000Z</time>
      </trkpt>
      <trkpt lat="49.40302" lon="5.77608">
        <ele>319.60000610352</ele>
        <time>2022-09-13T11:57:36.000Z</time>
      </trkpt>
      <trkpt lat="49.40305" lon="5.77609">
        <ele>319.60000610352</ele>
        <time>2022-09-13T11:57:37.000Z</time>
      </trkpt>
      <trkpt lat="49.40309" lon="5.77612">
        <ele>319.79998779297</ele>
        <time>2022-09-13T11:57:38.000Z</time>
      </trkpt>
      <trkpt lat="49.40312" lon="5.77613">
        <ele>319.79998779297</ele>
        <time>2022-09-13T11:57:39.000Z</time>
      </trkpt>
      <trkpt lat="49.40315" lon="5.77615">
        <ele>319.79998779297</ele>
        <time>2022-09-13T11:57:40.000Z</time>
      </trkpt>
      <trkpt lat="49.40318" lon="5.77617">
        <ele>320.20001220703</ele>
        <time>2022-09-13T11:57:41.000Z</time>
      </trkpt>
      <trkpt lat="49.40321" lon="5.77619">
        <ele>320.60000610352</ele>
        <time>2022-09-13T11:57:42.000Z</time>
      </trkpt>
      <trkpt lat="49.40325" lon="5.77621">
        <ele>321</ele>
        <time>2022-09-13T11:57:43.000Z</time>
      </trkpt>
      <trkpt lat="49.40328" lon="5.77622">
        <ele>321.20001220703</ele>
        <time>2022-09-13T11:57:44.000Z</time>
      </trkpt>
      <trkpt lat="49.40331" lon="5.77624">
        <ele>321.39999389648</ele>
        <time>2022-09-13T11:57:45.000Z</time>
      </trkpt>
      <trkpt lat="49.40334" lon="5.77626">
        <ele>321.39999389648</ele>
        <time>2022-09-13T11:57:46.000Z</time>
      </trkpt>
      <trkpt lat="49.40337" lon="5.77627">
        <ele>321.60000610352</ele>
        <time>2022-09-13T11:57:47.000Z</time>
      </trkpt>
      <trkpt lat="49.40341" lon="5.7763">
        <ele>321.60000610352</ele>
        <time>2022-09-13T11:57:48.000Z</time>
      </trkpt>
      <trkpt lat="49.40343" lon="5.77631">
        <ele>321.79998779297</ele>
        <time>2022-09-13T11:57:49.000Z</time>
      </trkpt>
      <trkpt lat="49.40346" lon="5.77632">
        <ele>321.79998779297</ele>
        <time>2022-09-13T11:57:50.000Z</time>
      </trkpt>
      <trkpt lat="49.40348" lon="5.77634">
        <ele>321.79998779297</ele>
        <time>2022-09-13T11:57:51.000Z</time>
      </trkpt>
      <trkpt lat="49.40351" lon="5.77636">
        <ele>322.20001220703</ele>
        <time>2022-09-13T11:57:52.000Z</time>
      </trkpt>
      <trkpt lat="49.40354" lon="5.77638">
        <ele>322.20001220703</ele>
        <time>2022-09-13T11:57:53.000Z</time>
      </trkpt>
      <trkpt lat="49.40357" lon="5.77639">
        <ele>322.39999389648</ele>
        <time>2022-09-13T11:57:54.000Z</time>
      </trkpt>
      <trkpt lat="49.4036" lon="5.77641">
        <ele>322.79998779297</ele>
        <time>2022-09-13T11:57:55.000Z</time>
      </trkpt>
      <trkpt lat="49.40363" lon="5.77644">
        <ele>323</ele>
        <time>2022-09-13T11:57:56.000Z</time>
      </trkpt>
      <trkpt lat="49.40365" lon="5.77646">
        <ele>323.39999389648</ele>
        <time>2022-09-13T11:57:57.000Z</time>
      </trkpt>
      <trkpt lat="49.40368" lon="5.77648">
        <ele>323.60000610352</ele>
        <time>2022-09-13T11:57:58.000Z</time>
      </trkpt>
      <trkpt lat="49.40371" lon="5.77649">
        <ele>323.79998779297</ele>
        <time>2022-09-13T11:57:59.000Z</time>
      </trkpt>
      <trkpt lat="49.40374" lon="5.7765">
        <ele>324</ele>
        <time>2022-09-13T11:58:00.000Z</time>
      </trkpt>
      <trkpt lat="49.40378" lon="5.77651">
        <ele>324.39999389648</ele>
        <time>2022-09-13T11:58:01.000Z</time>
      </trkpt>
      <trkpt lat="49.40381" lon="5.77651">
        <ele>324.79998779297</ele>
        <time>2022-09-13T11:58:02.000Z</time>
      </trkpt>
      <trkpt lat="49.40384" lon="5.7765">
        <ele>325</ele>
        <time>2022-09-13T11:58:03.000Z</time>
      </trkpt>
      <trkpt lat="49.40387" lon="5.77648">
        <ele>325.20001220703</ele>
        <time>2022-09-13T11:58:04.000Z</time>
      </trkpt>
      <trkpt lat="49.4039" lon="5.77646">
        <ele>325.20001220703</ele>
        <time>2022-09-13T11:58:05.000Z</time>
      </trkpt>
      <trkpt lat="49.40394" lon="5.77642">
        <ele>325.39999389648</ele>
        <time>2022-09-13T11:58:06.000Z</time>
      </trkpt>
      <trkpt lat="49.40397" lon="5.77638">
        <ele>325.39999389648</ele>
        <time>2022-09-13T11:58:07.000Z</time>
      </trkpt>
      <trkpt lat="49.404" lon="5.77635">
        <ele>325.60000610352</ele>
        <time>2022-09-13T11:58:08.000Z</time>
      </trkpt>
      <trkpt lat="49.40402" lon="5.77632">
        <ele>325.60000610352</ele>
        <time>2022-09-13T11:58:09.000Z</time>
      </trkpt>
      <trkpt lat="49.40405" lon="5.77629">
        <ele>325.79998779297</ele>
        <time>2022-09-13T11:58:10.000Z</time>
      </trkpt>
      <trkpt lat="49.40409" lon="5.77624">
        <ele>325.79998779297</ele>
        <time>2022-09-13T11:58:11.000Z</time>
      </trkpt>
      <trkpt lat="49.40412" lon="5.7762">
        <ele>326</ele>
        <time>2022-09-13T11:58:12.000Z</time>
      </trkpt>
      <trkpt lat="49.40415" lon="5.77616">
        <ele>326</ele>
        <time>2022-09-13T11:58:13.000Z</time>
      </trkpt>
      <trkpt lat="49.40418" lon="5.77613">
        <ele>326</ele>
        <time>2022-09-13T11:58:14.000Z</time>
      </trkpt>
      <trkpt lat="49.40421" lon="5.77609">
        <ele>326.20001220703</ele>
        <time>2022-09-13T11:58:15.000Z</time>
      </trkpt>
      <trkpt lat="49.40426" lon="5.77605">
        <ele>326.20001220703</ele>
        <time>2022-09-13T11:58:16.000Z</time>
      </trkpt>
      <trkpt lat="49.40429" lon="5.77601">
        <ele>326.20001220703</ele>
        <time>2022-09-13T11:58:17.000Z</time>
      </trkpt>
      <trkpt lat="49.40433" lon="5.77597">
        <ele>326.20001220703</ele>
        <time>2022-09-13T11:58:18.000Z</time>
      </trkpt>
      <trkpt lat="49.40436" lon="5.77594">
        <ele>326.20001220703</ele>
        <time>2022-09-13T11:58:19.000Z</time>
      </trkpt>
      <trkpt lat="49.4044" lon="5.7759">
        <ele>326.20001220703</ele>
        <time>2022-09-13T11:58:20.000Z</time>
      </trkpt>
      <trkpt lat="49.40444" lon="5.77586">
        <ele>326.20001220703</ele>
        <time>2022-09-13T11:58:21.000Z</time>
      </trkpt>
      <trkpt lat="49.40448" lon="5.77582">
        <ele>326.20001220703</ele>
        <time>2022-09-13T11:58:22.000Z</time>
      </trkpt>
      <trkpt lat="49.40451" lon="5.77578">
        <ele>326.39999389648</ele>
        <time>2022-09-13T11:58:23.000Z</time>
      </trkpt>
      <trkpt lat="49.40454" lon="5.77575">
        <ele>326.60000610352</ele>
        <time>2022-09-13T11:58:24.000Z</time>
      </trkpt>
      <trkpt lat="49.40458" lon="5.77572">
        <ele>326.60000610352</ele>
        <time>2022-09-13T11:58:25.000Z</time>
      </trkpt>
      <trkpt lat="49.40462" lon="5.77567">
        <ele>326.60000610352</ele>
        <time>2022-09-13T11:58:26.000Z</time>
      </trkpt>
      <trkpt lat="49.40466" lon="5.77563">
        <ele>326.79998779297</ele>
        <time>2022-09-13T11:58:27.000Z</time>
      </trkpt>
      <trkpt lat="49.40472" lon="5.77556">
        <ele>327</ele>
        <time>2022-09-13T11:58:29.000Z</time>
      </trkpt>
      <trkpt lat="49.40486" lon="5.7754">
        <ele>327.60000610352</ele>
        <time>2022-09-13T11:58:33.000Z</time>
      </trkpt>
      <trkpt lat="49.40489" lon="5.77538">
        <ele>327.79998779297</ele>
        <time>2022-09-13T11:58:34.000Z</time>
      </trkpt>
      <trkpt lat="49.40496" lon="5.77529">
        <ele>328</ele>
        <time>2022-09-13T11:58:36.000Z</time>
      </trkpt>
      <trkpt lat="49.405" lon="5.77526">
        <ele>328.20001220703</ele>
        <time>2022-09-13T11:58:37.000Z</time>
      </trkpt>
      <trkpt lat="49.40506" lon="5.77519">
        <ele>328.39999389648</ele>
        <time>2022-09-13T11:58:39.000Z</time>
      </trkpt>
      <trkpt lat="49.40514" lon="5.7751">
        <ele>328.60000610352</ele>
        <time>2022-09-13T11:58:41.000Z</time>
      </trkpt>
      <trkpt lat="49.40518" lon="5.77507">
        <ele>328.60000610352</ele>
        <time>2022-09-13T11:58:42.000Z</time>
      </trkpt>
      <trkpt lat="49.40522" lon="5.77503">
        <ele>329</ele>
        <time>2022-09-13T11:58:43.000Z</time>
      </trkpt>
      <trkpt lat="49.40524" lon="5.77501">
        <ele>329</ele>
        <time>2022-09-13T11:58:44.000Z</time>
      </trkpt>
      <trkpt lat="49.40529" lon="5.77497">
        <ele>329.20001220703</ele>
        <time>2022-09-13T11:58:45.000Z</time>
      </trkpt>
      <trkpt lat="49.40532" lon="5.77493">
        <ele>329.39999389648</ele>
        <time>2022-09-13T11:58:46.000Z</time>
      </trkpt>
      <trkpt lat="49.40536" lon="5.77489">
        <ele>329.39999389648</ele>
        <time>2022-09-13T11:58:47.000Z</time>
      </trkpt>
      <trkpt lat="49.40539" lon="5.77486">
        <ele>329.60000610352</ele>
        <time>2022-09-13T11:58:48.000Z</time>
      </trkpt>
      <trkpt lat="49.40542" lon="5.77482">
        <ele>329.60000610352</ele>
        <time>2022-09-13T11:58:49.000Z</time>
      </trkpt>
      <trkpt lat="49.40546" lon="5.77478">
        <ele>329.79998779297</ele>
        <time>2022-09-13T11:58:50.000Z</time>
      </trkpt>
      <trkpt lat="49.4055" lon="5.77474">
        <ele>330</ele>
        <time>2022-09-13T11:58:51.000Z</time>
      </trkpt>
      <trkpt lat="49.40554" lon="5.7747">
        <ele>330.20001220703</ele>
        <time>2022-09-13T11:58:52.000Z</time>
      </trkpt>
      <trkpt lat="49.40557" lon="5.77467">
        <ele>330.39999389648</ele>
        <time>2022-09-13T11:58:53.000Z</time>
      </trkpt>
      <trkpt lat="49.4056" lon="5.77463">
        <ele>330.60000610352</ele>
        <time>2022-09-13T11:58:54.000Z</time>
      </trkpt>
      <trkpt lat="49.40565" lon="5.77459">
        <ele>330.79998779297</ele>
        <time>2022-09-13T11:58:55.000Z</time>
      </trkpt>
      <trkpt lat="49.40569" lon="5.77455">
        <ele>331</ele>
        <time>2022-09-13T11:58:56.000Z</time>
      </trkpt>
      <trkpt lat="49.40573" lon="5.77451">
        <ele>331.20001220703</ele>
        <time>2022-09-13T11:58:57.000Z</time>
      </trkpt>
      <trkpt lat="49.40576" lon="5.77448">
        <ele>331.20001220703</ele>
        <time>2022-09-13T11:58:58.000Z</time>
      </trkpt>
      <trkpt lat="49.40581" lon="5.77442">
        <ele>331.39999389648</ele>
        <time>2022-09-13T11:58:59.000Z</time>
      </trkpt>
      <trkpt lat="49.40586" lon="5.77438">
        <ele>331.39999389648</ele>
        <time>2022-09-13T11:59:00.000Z</time>
      </trkpt>
      <trkpt lat="49.4059" lon="5.77434">
        <ele>331.60000610352</ele>
        <time>2022-09-13T11:59:01.000Z</time>
      </trkpt>
      <trkpt lat="49.40594" lon="5.77431">
        <ele>331.60000610352</ele>
        <time>2022-09-13T11:59:02.000Z</time>
      </trkpt>
      <trkpt lat="49.40598" lon="5.77427">
        <ele>331.60000610352</ele>
        <time>2022-09-13T11:59:03.000Z</time>
      </trkpt>
      <trkpt lat="49.40603" lon="5.77422">
        <ele>331.79998779297</ele>
        <time>2022-09-13T11:59:04.000Z</time>
      </trkpt>
      <trkpt lat="49.40607" lon="5.77417">
        <ele>331.79998779297</ele>
        <time>2022-09-13T11:59:05.000Z</time>
      </trkpt>
      <trkpt lat="49.40612" lon="5.77413">
        <ele>331.79998779297</ele>
        <time>2022-09-13T11:59:06.000Z</time>
      </trkpt>
      <trkpt lat="49.40616" lon="5.77408">
        <ele>331.79998779297</ele>
        <time>2022-09-13T11:59:07.000Z</time>
      </trkpt>
      <trkpt lat="49.40621" lon="5.77404">
        <ele>331.79998779297</ele>
        <time>2022-09-13T11:59:08.000Z</time>
      </trkpt>
      <trkpt lat="49.40625" lon="5.77399">
        <ele>331.79998779297</ele>
        <time>2022-09-13T11:59:09.000Z</time>
      </trkpt>
      <trkpt lat="49.40629" lon="5.77395">
        <ele>331.79998779297</ele>
        <time>2022-09-13T11:59:10.000Z</time>
      </trkpt>
      <trkpt lat="49.40633" lon="5.77391">
        <ele>332</ele>
        <time>2022-09-13T11:59:11.000Z</time>
      </trkpt>
      <trkpt lat="49.40636" lon="5.77387">
        <ele>332</ele>
        <time>2022-09-13T11:59:12.000Z</time>
      </trkpt>
      <trkpt lat="49.4064" lon="5.77383">
        <ele>332</ele>
        <time>2022-09-13T11:59:13.000Z</time>
      </trkpt>
      <trkpt lat="49.40645" lon="5.77378">
        <ele>332</ele>
        <time>2022-09-13T11:59:14.000Z</time>
      </trkpt>
      <trkpt lat="49.40684" lon="5.77339">
        <ele>332.39999389648</ele>
        <time>2022-09-13T11:59:23.000Z</time>
      </trkpt>
      <trkpt lat="49.40688" lon="5.77335">
        <ele>332.39999389648</ele>
        <time>2022-09-13T11:59:24.000Z</time>
      </trkpt>
      <trkpt lat="49.40692" lon="5.7733">
        <ele>332.60000610352</ele>
        <time>2022-09-13T11:59:25.000Z</time>
      </trkpt>
      <trkpt lat="49.40708" lon="5.77313">
        <ele>332.79998779297</ele>
        <time>2022-09-13T11:59:29.000Z</time>
      </trkpt>
      <trkpt lat="49.40717" lon="5.77305">
        <ele>332.79998779297</ele>
        <time>2022-09-13T11:59:31.000Z</time>
      </trkpt>
      <trkpt lat="49.40729" lon="5.77292">
        <ele>333.20001220703</ele>
        <time>2022-09-13T11:59:34.000Z</time>
      </trkpt>
      <trkpt lat="49.40732" lon="5.77288">
        <ele>333.39999389648</ele>
        <time>2022-09-13T11:59:35.000Z</time>
      </trkpt>
      <trkpt lat="49.4074" lon="5.77281">
        <ele>333.60000610352</ele>
        <time>2022-09-13T11:59:37.000Z</time>
      </trkpt>
      <trkpt lat="49.40744" lon="5.77277">
        <ele>333.60000610352</ele>
        <time>2022-09-13T11:59:38.000Z</time>
      </trkpt>
      <trkpt lat="49.40748" lon="5.77273">
        <ele>333.79998779297</ele>
        <time>2022-09-13T11:59:39.000Z</time>
      </trkpt>
      <trkpt lat="49.40751" lon="5.7727">
        <ele>333.79998779297</ele>
        <time>2022-09-13T11:59:40.000Z</time>
      </trkpt>
      <trkpt lat="49.40754" lon="5.77267">
        <ele>334</ele>
        <time>2022-09-13T11:59:41.000Z</time>
      </trkpt>
      <trkpt lat="49.40758" lon="5.77263">
        <ele>334</ele>
        <time>2022-09-13T11:59:42.000Z</time>
      </trkpt>
      <trkpt lat="49.40761" lon="5.77259">
        <ele>334</ele>
        <time>2022-09-13T11:59:43.000Z</time>
      </trkpt>
      <trkpt lat="49.40764" lon="5.77255">
        <ele>334</ele>
        <time>2022-09-13T11:59:44.000Z</time>
      </trkpt>
      <trkpt lat="49.40767" lon="5.7725">
        <ele>334</ele>
        <time>2022-09-13T11:59:45.000Z</time>
      </trkpt>
      <trkpt lat="49.40768" lon="5.77246">
        <ele>334</ele>
        <time>2022-09-13T11:59:46.000Z</time>
      </trkpt>
      <trkpt lat="49.4077" lon="5.7724">
        <ele>334</ele>
        <time>2022-09-13T11:59:47.000Z</time>
      </trkpt>
      <trkpt lat="49.40771" lon="5.77233">
        <ele>334</ele>
        <time>2022-09-13T11:59:48.000Z</time>
      </trkpt>
      <trkpt lat="49.40771" lon="5.77227">
        <ele>334</ele>
        <time>2022-09-13T11:59:49.000Z</time>
      </trkpt>
      <trkpt lat="49.40772" lon="5.7722">
        <ele>334</ele>
        <time>2022-09-13T11:59:50.000Z</time>
      </trkpt>
      <trkpt lat="49.40772" lon="5.77215">
        <ele>334</ele>
        <time>2022-09-13T11:59:51.000Z</time>
      </trkpt>
      <trkpt lat="49.40773" lon="5.77156">
        <ele>334.39999389648</ele>
        <time>2022-09-13T11:59:59.000Z</time>
      </trkpt>
      <trkpt lat="49.40774" lon="5.77105">
        <ele>334.39999389648</ele>
        <time>2022-09-13T12:00:06.000Z</time>
      </trkpt>
      <trkpt lat="49.40775" lon="5.77083">
        <ele>334.39999389648</ele>
        <time>2022-09-13T12:00:09.000Z</time>
      </trkpt>
      <trkpt lat="49.40777" lon="5.77032">
        <ele>333.20001220703</ele>
        <time>2022-09-13T12:00:16.000Z</time>
      </trkpt>
      <trkpt lat="49.40777" lon="5.77025">
        <ele>333</ele>
        <time>2022-09-13T12:00:17.000Z</time>
      </trkpt>
      <trkpt lat="49.40777" lon="5.77018">
        <ele>332.79998779297</ele>
        <time>2022-09-13T12:00:18.000Z</time>
      </trkpt>
      <trkpt lat="49.40774" lon="5.77005">
        <ele>332.79998779297</ele>
        <time>2022-09-13T12:00:20.000Z</time>
      </trkpt>
      <trkpt lat="49.40772" lon="5.76999">
        <ele>332.79998779297</ele>
        <time>2022-09-13T12:00:21.000Z</time>
      </trkpt>
      <trkpt lat="49.40769" lon="5.76993">
        <ele>332.79998779297</ele>
        <time>2022-09-13T12:00:22.000Z</time>
      </trkpt>
      <trkpt lat="49.40765" lon="5.76987">
        <ele>332.60000610352</ele>
        <time>2022-09-13T12:00:23.000Z</time>
      </trkpt>
      <trkpt lat="49.40761" lon="5.76982">
        <ele>332.60000610352</ele>
        <time>2022-09-13T12:00:24.000Z</time>
      </trkpt>
      <trkpt lat="49.40756" lon="5.76975">
        <ele>332.60000610352</ele>
        <time>2022-09-13T12:00:25.000Z</time>
      </trkpt>
      <trkpt lat="49.40753" lon="5.76968">
        <ele>332.60000610352</ele>
        <time>2022-09-13T12:00:26.000Z</time>
      </trkpt>
      <trkpt lat="49.40751" lon="5.76961">
        <ele>332.60000610352</ele>
        <time>2022-09-13T12:00:27.000Z</time>
      </trkpt>
      <trkpt lat="49.40751" lon="5.76953">
        <ele>332.60000610352</ele>
        <time>2022-09-13T12:00:28.000Z</time>
      </trkpt>
      <trkpt lat="49.40752" lon="5.76946">
        <ele>332.39999389648</ele>
        <time>2022-09-13T12:00:29.000Z</time>
      </trkpt>
      <trkpt lat="49.40755" lon="5.76939">
        <ele>332.20001220703</ele>
        <time>2022-09-13T12:00:30.000Z</time>
      </trkpt>
      <trkpt lat="49.40759" lon="5.76934">
        <ele>332</ele>
        <time>2022-09-13T12:00:31.000Z</time>
      </trkpt>
      <trkpt lat="49.40768" lon="5.76926">
        <ele>331.20001220703</ele>
        <time>2022-09-13T12:00:33.000Z</time>
      </trkpt>
      <trkpt lat="49.40773" lon="5.76922">
        <ele>330.79998779297</ele>
        <time>2022-09-13T12:00:34.000Z</time>
      </trkpt>
      <trkpt lat="49.40777" lon="5.76919">
        <ele>330.60000610352</ele>
        <time>2022-09-13T12:00:35.000Z</time>
      </trkpt>
      <trkpt lat="49.40781" lon="5.76917">
        <ele>330.60000610352</ele>
        <time>2022-09-13T12:00:36.000Z</time>
      </trkpt>
      <trkpt lat="49.40785" lon="5.76914">
        <ele>330.39999389648</ele>
        <time>2022-09-13T12:00:37.000Z</time>
      </trkpt>
      <trkpt lat="49.40789" lon="5.76911">
        <ele>330.39999389648</ele>
        <time>2022-09-13T12:00:38.000Z</time>
      </trkpt>
      <trkpt lat="49.40793" lon="5.76908">
        <ele>330.39999389648</ele>
        <time>2022-09-13T12:00:39.000Z</time>
      </trkpt>
      <trkpt lat="49.40796" lon="5.76905">
        <ele>330.39999389648</ele>
        <time>2022-09-13T12:00:40.000Z</time>
      </trkpt>
      <trkpt lat="49.40802" lon="5.76898">
        <ele>330.39999389648</ele>
        <time>2022-09-13T12:00:42.000Z</time>
      </trkpt>
      <trkpt lat="49.40806" lon="5.76894">
        <ele>330.39999389648</ele>
        <time>2022-09-13T12:00:43.000Z</time>
      </trkpt>
      <trkpt lat="49.40809" lon="5.76891">
        <ele>330.60000610352</ele>
        <time>2022-09-13T12:00:44.000Z</time>
      </trkpt>
      <trkpt lat="49.40812" lon="5.76888">
        <ele>330.60000610352</ele>
        <time>2022-09-13T12:00:45.000Z</time>
      </trkpt>
      <trkpt lat="49.40815" lon="5.76885">
        <ele>330.60000610352</ele>
        <time>2022-09-13T12:00:46.000Z</time>
      </trkpt>
      <trkpt lat="49.40819" lon="5.76882">
        <ele>330.60000610352</ele>
        <time>2022-09-13T12:00:47.000Z</time>
      </trkpt>
      <trkpt lat="49.40838" lon="5.76858">
        <ele>330.60000610352</ele>
        <time>2022-09-13T12:00:53.000Z</time>
      </trkpt>
      <trkpt lat="49.40839" lon="5.76852">
        <ele>330.60000610352</ele>
        <time>2022-09-13T12:00:54.000Z</time>
      </trkpt>
      <trkpt lat="49.40841" lon="5.76847">
        <ele>330.39999389648</ele>
        <time>2022-09-13T12:00:55.000Z</time>
      </trkpt>
      <trkpt lat="49.40841" lon="5.7684">
        <ele>330.39999389648</ele>
        <time>2022-09-13T12:00:56.000Z</time>
      </trkpt>
      <trkpt lat="49.4084" lon="5.76834">
        <ele>330.39999389648</ele>
        <time>2022-09-13T12:00:57.000Z</time>
      </trkpt>
      <trkpt lat="49.40838" lon="5.76827">
        <ele>330.20001220703</ele>
        <time>2022-09-13T12:00:58.000Z</time>
      </trkpt>
      <trkpt lat="49.40836" lon="5.76819">
        <ele>330.20001220703</ele>
        <time>2022-09-13T12:00:59.000Z</time>
      </trkpt>
      <trkpt lat="49.40834" lon="5.76811">
        <ele>330</ele>
        <time>2022-09-13T12:01:00.000Z</time>
      </trkpt>
      <trkpt lat="49.40829" lon="5.76794">
        <ele>329.60000610352</ele>
        <time>2022-09-13T12:01:02.000Z</time>
      </trkpt>
      <trkpt lat="49.40823" lon="5.76767">
        <ele>328.39999389648</ele>
        <time>2022-09-13T12:01:05.000Z</time>
      </trkpt>
      <trkpt lat="49.40821" lon="5.76759">
        <ele>328.20001220703</ele>
        <time>2022-09-13T12:01:06.000Z</time>
      </trkpt>
      <trkpt lat="49.4082" lon="5.76739">
        <ele>327.60000610352</ele>
        <time>2022-09-13T12:01:08.000Z</time>
      </trkpt>
      <trkpt lat="49.40822" lon="5.7673">
        <ele>327.39999389648</ele>
        <time>2022-09-13T12:01:09.000Z</time>
      </trkpt>
      <trkpt lat="49.40825" lon="5.76723">
        <ele>327.20001220703</ele>
        <time>2022-09-13T12:01:10.000Z</time>
      </trkpt>
      <trkpt lat="49.40828" lon="5.76716">
        <ele>327</ele>
        <time>2022-09-13T12:01:11.000Z</time>
      </trkpt>
      <trkpt lat="49.40832" lon="5.76709">
        <ele>327</ele>
        <time>2022-09-13T12:01:12.000Z</time>
      </trkpt>
      <trkpt lat="49.40836" lon="5.76703">
        <ele>326.79998779297</ele>
        <time>2022-09-13T12:01:13.000Z</time>
      </trkpt>
      <trkpt lat="49.40839" lon="5.76698">
        <ele>326.79998779297</ele>
        <time>2022-09-13T12:01:14.000Z</time>
      </trkpt>
      <trkpt lat="49.40841" lon="5.76692">
        <ele>326.79998779297</ele>
        <time>2022-09-13T12:01:15.000Z</time>
      </trkpt>
      <trkpt lat="49.40843" lon="5.76687">
        <ele>326.79998779297</ele>
        <time>2022-09-13T12:01:16.000Z</time>
      </trkpt>
      <trkpt lat="49.40846" lon="5.76681">
        <ele>326.79998779297</ele>
        <time>2022-09-13T12:01:17.000Z</time>
      </trkpt>
      <trkpt lat="49.40848" lon="5.76676">
        <ele>327</ele>
        <time>2022-09-13T12:01:18.000Z</time>
      </trkpt>
      <trkpt lat="49.40855" lon="5.76668">
        <ele>327</ele>
        <time>2022-09-13T12:01:20.000Z</time>
      </trkpt>
      <trkpt lat="49.40858" lon="5.76665">
        <ele>327.20001220703</ele>
        <time>2022-09-13T12:01:21.000Z</time>
      </trkpt>
      <trkpt lat="49.4086" lon="5.76665">
        <ele>327.20001220703</ele>
        <time>2022-09-13T12:01:22.000Z</time>
      </trkpt>
      <trkpt lat="49.40861" lon="5.76665">
        <ele>327.20001220703</ele>
        <time>2022-09-13T12:01:23.000Z</time>
      </trkpt>
      <trkpt lat="49.40863" lon="5.76665">
        <ele>327.39999389648</ele>
        <time>2022-09-13T12:01:24.000Z</time>
      </trkpt>
      <trkpt lat="49.40865" lon="5.76664">
        <ele>327.39999389648</ele>
        <time>2022-09-13T12:01:25.000Z</time>
      </trkpt>
      <trkpt lat="49.40867" lon="5.76663">
        <ele>327.60000610352</ele>
        <time>2022-09-13T12:01:26.000Z</time>
      </trkpt>
      <trkpt lat="49.4087" lon="5.76662">
        <ele>327.60000610352</ele>
        <time>2022-09-13T12:01:27.000Z</time>
      </trkpt>
      <trkpt lat="49.40872" lon="5.76661">
        <ele>327.79998779297</ele>
        <time>2022-09-13T12:01:28.000Z</time>
      </trkpt>
      <trkpt lat="49.40877" lon="5.7666">
        <ele>328.20001220703</ele>
        <time>2022-09-13T12:01:30.000Z</time>
      </trkpt>
      <trkpt lat="49.40888" lon="5.7666">
        <ele>328.60000610352</ele>
        <time>2022-09-13T12:01:34.000Z</time>
      </trkpt>
      <trkpt lat="49.40896" lon="5.76663">
        <ele>329.20001220703</ele>
        <time>2022-09-13T12:01:37.000Z</time>
      </trkpt>
      <trkpt lat="49.40901" lon="5.76663">
        <ele>329.60000610352</ele>
        <time>2022-09-13T12:01:39.000Z</time>
      </trkpt>
      <trkpt lat="49.40915" lon="5.76663">
        <ele>330.79998779297</ele>
        <time>2022-09-13T12:01:44.000Z</time>
      </trkpt>
      <trkpt lat="49.40918" lon="5.76663">
        <ele>331</ele>
        <time>2022-09-13T12:01:45.000Z</time>
      </trkpt>
      <trkpt lat="49.40921" lon="5.76662">
        <ele>331.20001220703</ele>
        <time>2022-09-13T12:01:46.000Z</time>
      </trkpt>
      <trkpt lat="49.40923" lon="5.76661">
        <ele>331.20001220703</ele>
        <time>2022-09-13T12:01:47.000Z</time>
      </trkpt>
      <trkpt lat="49.40926" lon="5.76659">
        <ele>331.39999389648</ele>
        <time>2022-09-13T12:01:48.000Z</time>
      </trkpt>
      <trkpt lat="49.40927" lon="5.76657">
        <ele>331.39999389648</ele>
        <time>2022-09-13T12:01:49.000Z</time>
      </trkpt>
      <trkpt lat="49.40929" lon="5.76653">
        <ele>331.39999389648</ele>
        <time>2022-09-13T12:01:50.000Z</time>
      </trkpt>
      <trkpt lat="49.40929" lon="5.7665">
        <ele>331.39999389648</ele>
        <time>2022-09-13T12:01:51.000Z</time>
      </trkpt>
      <trkpt lat="49.4093" lon="5.76646">
        <ele>331.60000610352</ele>
        <time>2022-09-13T12:01:52.000Z</time>
      </trkpt>
      <trkpt lat="49.40929" lon="5.76642">
        <ele>331.79998779297</ele>
        <time>2022-09-13T12:01:53.000Z</time>
      </trkpt>
      <trkpt lat="49.40929" lon="5.76638">
        <ele>331.60000610352</ele>
        <time>2022-09-13T12:01:54.000Z</time>
      </trkpt>
      <trkpt lat="49.40929" lon="5.76632">
        <ele>331.79998779297</ele>
        <time>2022-09-13T12:01:55.000Z</time>
      </trkpt>
      <trkpt lat="49.40929" lon="5.76627">
        <ele>331.60000610352</ele>
        <time>2022-09-13T12:01:56.000Z</time>
      </trkpt>
      <trkpt lat="49.40928" lon="5.76622">
        <ele>331.39999389648</ele>
        <time>2022-09-13T12:01:57.000Z</time>
      </trkpt>
      <trkpt lat="49.40928" lon="5.76616">
        <ele>331.20001220703</ele>
        <time>2022-09-13T12:01:58.000Z</time>
      </trkpt>
      <trkpt lat="49.40928" lon="5.76612">
        <ele>331.39999389648</ele>
        <time>2022-09-13T12:01:59.000Z</time>
      </trkpt>
      <trkpt lat="49.40927" lon="5.76605">
        <ele>331</ele>
        <time>2022-09-13T12:02:00.000Z</time>
      </trkpt>
      <trkpt lat="49.40926" lon="5.76599">
        <ele>331</ele>
        <time>2022-09-13T12:02:01.000Z</time>
      </trkpt>
      <trkpt lat="49.40925" lon="5.76593">
        <ele>331</ele>
        <time>2022-09-13T12:02:02.000Z</time>
      </trkpt>
      <trkpt lat="49.40918" lon="5.76568">
        <ele>330.60000610352</ele>
        <time>2022-09-13T12:02:06.000Z</time>
      </trkpt>
      <trkpt lat="49.40915" lon="5.76556">
        <ele>330.60000610352</ele>
        <time>2022-09-13T12:02:08.000Z</time>
      </trkpt>
      <trkpt lat="49.40914" lon="5.76551">
        <ele>330.39999389648</ele>
        <time>2022-09-13T12:02:09.000Z</time>
      </trkpt>
      <trkpt lat="49.40912" lon="5.76546">
        <ele>330.39999389648</ele>
        <time>2022-09-13T12:02:10.000Z</time>
      </trkpt>
      <trkpt lat="49.40907" lon="5.76531">
        <ele>330.20001220703</ele>
        <time>2022-09-13T12:02:13.000Z</time>
      </trkpt>
      <trkpt lat="49.40905" lon="5.76526">
        <ele>330.20001220703</ele>
        <time>2022-09-13T12:02:14.000Z</time>
      </trkpt>
      <trkpt lat="49.40904" lon="5.76521">
        <ele>330.20001220703</ele>
        <time>2022-09-13T12:02:15.000Z</time>
      </trkpt>
      <trkpt lat="49.40903" lon="5.76516">
        <ele>330.20001220703</ele>
        <time>2022-09-13T12:02:16.000Z</time>
      </trkpt>
      <trkpt lat="49.40903" lon="5.76511">
        <ele>330.20001220703</ele>
        <time>2022-09-13T12:02:17.000Z</time>
      </trkpt>
      <trkpt lat="49.40904" lon="5.76507">
        <ele>330.39999389648</ele>
        <time>2022-09-13T12:02:18.000Z</time>
      </trkpt>
      <trkpt lat="49.40905" lon="5.76502">
        <ele>330.60000610352</ele>
        <time>2022-09-13T12:02:19.000Z</time>
      </trkpt>
      <trkpt lat="49.40906" lon="5.76499">
        <ele>330.60000610352</ele>
        <time>2022-09-13T12:02:20.000Z</time>
      </trkpt>
      <trkpt lat="49.40907" lon="5.76496">
        <ele>330.79998779297</ele>
        <time>2022-09-13T12:02:21.000Z</time>
      </trkpt>
      <trkpt lat="49.40909" lon="5.76492">
        <ele>331</ele>
        <time>2022-09-13T12:02:22.000Z</time>
      </trkpt>
      <trkpt lat="49.40911" lon="5.76488">
        <ele>331</ele>
        <time>2022-09-13T12:02:23.000Z</time>
      </trkpt>
      <trkpt lat="49.40913" lon="5.76484">
        <ele>331.20001220703</ele>
        <time>2022-09-13T12:02:24.000Z</time>
      </trkpt>
      <trkpt lat="49.40919" lon="5.7646">
        <ele>332</ele>
        <time>2022-09-13T12:02:29.000Z</time>
      </trkpt>
      <trkpt lat="49.4092" lon="5.7645">
        <ele>332.39999389648</ele>
        <time>2022-09-13T12:02:31.000Z</time>
      </trkpt>
      <trkpt lat="49.40924" lon="5.76416">
        <ele>333</ele>
        <time>2022-09-13T12:02:38.000Z</time>
      </trkpt>
      <trkpt lat="49.40925" lon="5.76404">
        <ele>333.39999389648</ele>
        <time>2022-09-13T12:02:40.000Z</time>
      </trkpt>
      <trkpt lat="49.40928" lon="5.76367">
        <ele>334</ele>
        <time>2022-09-13T12:02:47.000Z</time>
      </trkpt>
      <trkpt lat="49.40928" lon="5.76355">
        <ele>334.39999389648</ele>
        <time>2022-09-13T12:02:49.000Z</time>
      </trkpt>
      <trkpt lat="49.40928" lon="5.76349">
        <ele>334.39999389648</ele>
        <time>2022-09-13T12:02:50.000Z</time>
      </trkpt>
      <trkpt lat="49.40928" lon="5.76344">
        <ele>334.60000610352</ele>
        <time>2022-09-13T12:02:51.000Z</time>
      </trkpt>
      <trkpt lat="49.40928" lon="5.76339">
        <ele>334.60000610352</ele>
        <time>2022-09-13T12:02:52.000Z</time>
      </trkpt>
      <trkpt lat="49.40928" lon="5.76333">
        <ele>334.79998779297</ele>
        <time>2022-09-13T12:02:53.000Z</time>
      </trkpt>
      <trkpt lat="49.40928" lon="5.76327">
        <ele>335</ele>
        <time>2022-09-13T12:02:54.000Z</time>
      </trkpt>
      <trkpt lat="49.40928" lon="5.76322">
        <ele>335</ele>
        <time>2022-09-13T12:02:55.000Z</time>
      </trkpt>
      <trkpt lat="49.40928" lon="5.76317">
        <ele>335.20001220703</ele>
        <time>2022-09-13T12:02:56.000Z</time>
      </trkpt>
      <trkpt lat="49.40928" lon="5.76311">
        <ele>335.20001220703</ele>
        <time>2022-09-13T12:02:57.000Z</time>
      </trkpt>
      <trkpt lat="49.40928" lon="5.76305">
        <ele>335.39999389648</ele>
        <time>2022-09-13T12:02:58.000Z</time>
      </trkpt>
      <trkpt lat="49.40928" lon="5.763">
        <ele>335.39999389648</ele>
        <time>2022-09-13T12:02:59.000Z</time>
      </trkpt>
      <trkpt lat="49.40928" lon="5.76295">
        <ele>335.39999389648</ele>
        <time>2022-09-13T12:03:00.000Z</time>
      </trkpt>
      <trkpt lat="49.40928" lon="5.76291">
        <ele>335.60000610352</ele>
        <time>2022-09-13T12:03:01.000Z</time>
      </trkpt>
      <trkpt lat="49.40928" lon="5.76286">
        <ele>335.60000610352</ele>
        <time>2022-09-13T12:03:02.000Z</time>
      </trkpt>
      <trkpt lat="49.40928" lon="5.76283">
        <ele>335.79998779297</ele>
        <time>2022-09-13T12:03:03.000Z</time>
      </trkpt>
      <trkpt lat="49.40929" lon="5.76279">
        <ele>335.79998779297</ele>
        <time>2022-09-13T12:03:04.000Z</time>
      </trkpt>
      <trkpt lat="49.4093" lon="5.76275">
        <ele>335.79998779297</ele>
        <time>2022-09-13T12:03:05.000Z</time>
      </trkpt>
      <trkpt lat="49.40932" lon="5.76271">
        <ele>335.79998779297</ele>
        <time>2022-09-13T12:03:06.000Z</time>
      </trkpt>
      <trkpt lat="49.40934" lon="5.76266">
        <ele>335.79998779297</ele>
        <time>2022-09-13T12:03:07.000Z</time>
      </trkpt>
      <trkpt lat="49.40936" lon="5.76261">
        <ele>335.79998779297</ele>
        <time>2022-09-13T12:03:08.000Z</time>
      </trkpt>
      <trkpt lat="49.40939" lon="5.76257">
        <ele>336</ele>
        <time>2022-09-13T12:03:09.000Z</time>
      </trkpt>
      <trkpt lat="49.40952" lon="5.76242">
        <ele>336.20001220703</ele>
        <time>2022-09-13T12:03:14.000Z</time>
      </trkpt>
      <trkpt lat="49.40959" lon="5.76233">
        <ele>336.20001220703</ele>
        <time>2022-09-13T12:03:17.000Z</time>
      </trkpt>
      <trkpt lat="49.40962" lon="5.76229">
        <ele>336.39999389648</ele>
        <time>2022-09-13T12:03:18.000Z</time>
      </trkpt>
      <trkpt lat="49.40968" lon="5.76219">
        <ele>336.60000610352</ele>
        <time>2022-09-13T12:03:21.000Z</time>
      </trkpt>
      <trkpt lat="49.40971" lon="5.76214">
        <ele>336.60000610352</ele>
        <time>2022-09-13T12:03:22.000Z</time>
      </trkpt>
      <trkpt lat="49.40993" lon="5.76183">
        <ele>337.79998779297</ele>
        <time>2022-09-13T12:03:31.000Z</time>
      </trkpt>
      <trkpt lat="49.40996" lon="5.7618">
        <ele>337.79998779297</ele>
        <time>2022-09-13T12:03:32.000Z</time>
      </trkpt>
      <trkpt lat="49.41019" lon="5.76154">
        <ele>337.79998779297</ele>
        <time>2022-09-13T12:03:40.000Z</time>
      </trkpt>
      <trkpt lat="49.41044" lon="5.76121">
        <ele>338.20001220703</ele>
        <time>2022-09-13T12:03:48.000Z</time>
      </trkpt>
      <trkpt lat="49.41062" lon="5.76099">
        <ele>338.60000610352</ele>
        <time>2022-09-13T12:03:54.000Z</time>
      </trkpt>
      <trkpt lat="49.41078" lon="5.76078">
        <ele>339</ele>
        <time>2022-09-13T12:03:59.000Z</time>
      </trkpt>
      <trkpt lat="49.41101" lon="5.76043">
        <ele>339.20001220703</ele>
        <time>2022-09-13T12:04:07.000Z</time>
      </trkpt>
      <trkpt lat="49.41116" lon="5.76014">
        <ele>339.79998779297</ele>
        <time>2022-09-13T12:04:13.000Z</time>
      </trkpt>
      <trkpt lat="49.4112" lon="5.76001">
        <ele>340</ele>
        <time>2022-09-13T12:04:15.000Z</time>
      </trkpt>
      <trkpt lat="49.41124" lon="5.75985">
        <ele>340.20001220703</ele>
        <time>2022-09-13T12:04:18.000Z</time>
      </trkpt>
      <trkpt lat="49.41129" lon="5.75959">
        <ele>340.60000610352</ele>
        <time>2022-09-13T12:04:22.000Z</time>
      </trkpt>
      <trkpt lat="49.41134" lon="5.75925">
        <ele>341</ele>
        <time>2022-09-13T12:04:27.000Z</time>
      </trkpt>
      <trkpt lat="49.41136" lon="5.75912">
        <ele>341.39999389648</ele>
        <time>2022-09-13T12:04:29.000Z</time>
      </trkpt>
      <trkpt lat="49.41138" lon="5.75897">
        <ele>341.60000610352</ele>
        <time>2022-09-13T12:04:31.000Z</time>
      </trkpt>
      <trkpt lat="49.41143" lon="5.75863">
        <ele>341.60000610352</ele>
        <time>2022-09-13T12:04:36.000Z</time>
      </trkpt>
      <trkpt lat="49.41146" lon="5.75852">
        <ele>341.39999389648</ele>
        <time>2022-09-13T12:04:38.000Z</time>
      </trkpt>
      <trkpt lat="49.41148" lon="5.75847">
        <ele>341.39999389648</ele>
        <time>2022-09-13T12:04:39.000Z</time>
      </trkpt>
      <trkpt lat="49.41152" lon="5.75842">
        <ele>341.20001220703</ele>
        <time>2022-09-13T12:04:40.000Z</time>
      </trkpt>
      <trkpt lat="49.41156" lon="5.75838">
        <ele>341.20001220703</ele>
        <time>2022-09-13T12:04:41.000Z</time>
      </trkpt>
      <trkpt lat="49.41159" lon="5.75836">
        <ele>341.20001220703</ele>
        <time>2022-09-13T12:04:42.000Z</time>
      </trkpt>
      <trkpt lat="49.41163" lon="5.75834">
        <ele>341</ele>
        <time>2022-09-13T12:04:43.000Z</time>
      </trkpt>
      <trkpt lat="49.41168" lon="5.75832">
        <ele>341</ele>
        <time>2022-09-13T12:04:44.000Z</time>
      </trkpt>
      <trkpt lat="49.41172" lon="5.7583">
        <ele>340.79998779297</ele>
        <time>2022-09-13T12:04:45.000Z</time>
      </trkpt>
      <trkpt lat="49.41175" lon="5.75828">
        <ele>340.79998779297</ele>
        <time>2022-09-13T12:04:46.000Z</time>
      </trkpt>
      <trkpt lat="49.41178" lon="5.75826">
        <ele>340.60000610352</ele>
        <time>2022-09-13T12:04:47.000Z</time>
      </trkpt>
      <trkpt lat="49.41182" lon="5.75823">
        <ele>340.60000610352</ele>
        <time>2022-09-13T12:04:48.000Z</time>
      </trkpt>
      <trkpt lat="49.41186" lon="5.7582">
        <ele>340.60000610352</ele>
        <time>2022-09-13T12:04:49.000Z</time>
      </trkpt>
      <trkpt lat="49.4119" lon="5.75818">
        <ele>340.60000610352</ele>
        <time>2022-09-13T12:04:50.000Z</time>
      </trkpt>
      <trkpt lat="49.41193" lon="5.75816">
        <ele>340.60000610352</ele>
        <time>2022-09-13T12:04:51.000Z</time>
      </trkpt>
      <trkpt lat="49.41196" lon="5.75814">
        <ele>340.60000610352</ele>
        <time>2022-09-13T12:04:52.000Z</time>
      </trkpt>
      <trkpt lat="49.412" lon="5.75811">
        <ele>340.60000610352</ele>
        <time>2022-09-13T12:04:53.000Z</time>
      </trkpt>
      <trkpt lat="49.41216" lon="5.75801">
        <ele>340.39999389648</ele>
        <time>2022-09-13T12:04:57.000Z</time>
      </trkpt>
      <trkpt lat="49.41242" lon="5.75786">
        <ele>340.20001220703</ele>
        <time>2022-09-13T12:05:04.000Z</time>
      </trkpt>
      <trkpt lat="49.41244" lon="5.75784">
        <ele>340.20001220703</ele>
        <time>2022-09-13T12:05:05.000Z</time>
      </trkpt>
      <trkpt lat="49.41256" lon="5.75776">
        <ele>340.39999389648</ele>
        <time>2022-09-13T12:05:08.000Z</time>
      </trkpt>
      <trkpt lat="49.41259" lon="5.75774">
        <ele>340.60000610352</ele>
        <time>2022-09-13T12:05:09.000Z</time>
      </trkpt>
      <trkpt lat="49.41263" lon="5.75772">
        <ele>340.60000610352</ele>
        <time>2022-09-13T12:05:10.000Z</time>
      </trkpt>
      <trkpt lat="49.41265" lon="5.75771">
        <ele>340.79998779297</ele>
        <time>2022-09-13T12:05:11.000Z</time>
      </trkpt>
      <trkpt lat="49.4128" lon="5.75762">
        <ele>341.39999389648</ele>
        <time>2022-09-13T12:05:15.000Z</time>
      </trkpt>
      <trkpt lat="49.41286" lon="5.75758">
        <ele>341.60000610352</ele>
        <time>2022-09-13T12:05:17.000Z</time>
      </trkpt>
      <trkpt lat="49.4129" lon="5.75755">
        <ele>341.60000610352</ele>
        <time>2022-09-13T12:05:18.000Z</time>
      </trkpt>
      <trkpt lat="49.41293" lon="5.75754">
        <ele>341.60000610352</ele>
        <time>2022-09-13T12:05:19.000Z</time>
      </trkpt>
      <trkpt lat="49.41296" lon="5.75755">
        <ele>341.60000610352</ele>
        <time>2022-09-13T12:05:20.000Z</time>
      </trkpt>
      <trkpt lat="49.41297" lon="5.75757">
        <ele>341.60000610352</ele>
        <time>2022-09-13T12:05:21.000Z</time>
      </trkpt>
      <trkpt lat="49.41299" lon="5.7576">
        <ele>341.60000610352</ele>
        <time>2022-09-13T12:05:22.000Z</time>
      </trkpt>
      <trkpt lat="49.413" lon="5.7577">
        <ele>341.60000610352</ele>
        <time>2022-09-13T12:05:24.000Z</time>
      </trkpt>
      <trkpt lat="49.41301" lon="5.75775">
        <ele>341.60000610352</ele>
        <time>2022-09-13T12:05:25.000Z</time>
      </trkpt>
      <trkpt lat="49.41302" lon="5.75778">
        <ele>341.60000610352</ele>
        <time>2022-09-13T12:05:26.000Z</time>
      </trkpt>
      <trkpt lat="49.4131" lon="5.75816">
        <ele>341.60000610352</ele>
        <time>2022-09-13T12:05:34.000Z</time>
      </trkpt>
      <trkpt lat="49.4132" lon="5.75855">
        <ele>342.60000610352</ele>
        <time>2022-09-13T12:05:42.000Z</time>
      </trkpt>
      <trkpt lat="49.41321" lon="5.75859">
        <ele>342.79998779297</ele>
        <time>2022-09-13T12:05:43.000Z</time>
      </trkpt>
      <trkpt lat="49.41323" lon="5.7587">
        <ele>342.79998779297</ele>
        <time>2022-09-13T12:05:46.000Z</time>
      </trkpt>
      <trkpt lat="49.41324" lon="5.75873">
        <ele>343</ele>
        <time>2022-09-13T12:05:47.000Z</time>
      </trkpt>
      <trkpt lat="49.41324" lon="5.75876">
        <ele>343.20001220703</ele>
        <time>2022-09-13T12:05:48.000Z</time>
      </trkpt>
      <trkpt lat="49.41325" lon="5.75879">
        <ele>343.20001220703</ele>
        <time>2022-09-13T12:05:49.000Z</time>
      </trkpt>
      <trkpt lat="49.41326" lon="5.75883">
        <ele>343.20001220703</ele>
        <time>2022-09-13T12:05:50.000Z</time>
      </trkpt>
      <trkpt lat="49.41327" lon="5.75888">
        <ele>343.20001220703</ele>
        <time>2022-09-13T12:05:52.000Z</time>
      </trkpt>
      <trkpt lat="49.41328" lon="5.75891">
        <ele>343.20001220703</ele>
        <time>2022-09-13T12:05:53.000Z</time>
      </trkpt>
      <trkpt lat="49.41329" lon="5.75893">
        <ele>343.39999389648</ele>
        <time>2022-09-13T12:05:54.000Z</time>
      </trkpt>
      <trkpt lat="49.41329" lon="5.75895">
        <ele>343.39999389648</ele>
        <time>2022-09-13T12:05:55.000Z</time>
      </trkpt>
      <trkpt lat="49.41331" lon="5.75896">
        <ele>343.39999389648</ele>
        <time>2022-09-13T12:05:56.000Z</time>
      </trkpt>
      <trkpt lat="49.41333" lon="5.75895">
        <ele>343.39999389648</ele>
        <time>2022-09-13T12:05:57.000Z</time>
      </trkpt>
      <trkpt lat="49.41336" lon="5.75894">
        <ele>343.39999389648</ele>
        <time>2022-09-13T12:05:58.000Z</time>
      </trkpt>
      <trkpt lat="49.41346" lon="5.75891">
        <ele>343.39999389648</ele>
        <time>2022-09-13T12:06:02.000Z</time>
      </trkpt>
      <trkpt lat="49.41349" lon="5.75891">
        <ele>343.39999389648</ele>
        <time>2022-09-13T12:06:03.000Z</time>
      </trkpt>
      <trkpt lat="49.41351" lon="5.75892">
        <ele>343.39999389648</ele>
        <time>2022-09-13T12:06:04.000Z</time>
      </trkpt>
      <trkpt lat="49.41355" lon="5.75893">
        <ele>343.39999389648</ele>
        <time>2022-09-13T12:06:05.000Z</time>
      </trkpt>
      <trkpt lat="49.41367" lon="5.75897">
        <ele>343.20001220703</ele>
        <time>2022-09-13T12:06:09.000Z</time>
      </trkpt>
      <trkpt lat="49.4137" lon="5.75897">
        <ele>343.20001220703</ele>
        <time>2022-09-13T12:06:10.000Z</time>
      </trkpt>
      <trkpt lat="49.41377" lon="5.75898">
        <ele>343.39999389648</ele>
        <time>2022-09-13T12:06:12.000Z</time>
      </trkpt>
      <trkpt lat="49.4138" lon="5.75898">
        <ele>343.39999389648</ele>
        <time>2022-09-13T12:06:13.000Z</time>
      </trkpt>
      <trkpt lat="49.41383" lon="5.75898">
        <ele>343.39999389648</ele>
        <time>2022-09-13T12:06:14.000Z</time>
      </trkpt>
      <trkpt lat="49.41386" lon="5.75901">
        <ele>343.39999389648</ele>
        <time>2022-09-13T12:06:15.000Z</time>
      </trkpt>
      <trkpt lat="49.41392" lon="5.759">
        <ele>343.60000610352</ele>
        <time>2022-09-13T12:06:16.000Z</time>
      </trkpt>
      <trkpt lat="49.41398" lon="5.75899">
        <ele>343.60000610352</ele>
        <time>2022-09-13T12:06:17.000Z</time>
      </trkpt>
      <trkpt lat="49.41405" lon="5.75898">
        <ele>343.79998779297</ele>
        <time>2022-09-13T12:06:18.000Z</time>
      </trkpt>
      <trkpt lat="49.4141" lon="5.75897">
        <ele>343.79998779297</ele>
        <time>2022-09-13T12:06:19.000Z</time>
      </trkpt>
      <trkpt lat="49.41414" lon="5.75897">
        <ele>343.79998779297</ele>
        <time>2022-09-13T12:06:20.000Z</time>
      </trkpt>
      <trkpt lat="49.41422" lon="5.75898">
        <ele>344</ele>
        <time>2022-09-13T12:06:22.000Z</time>
      </trkpt>
      <trkpt lat="49.41438" lon="5.75903">
        <ele>344.20001220703</ele>
        <time>2022-09-13T12:06:26.000Z</time>
      </trkpt>
      <trkpt lat="49.41442" lon="5.75903">
        <ele>344.20001220703</ele>
        <time>2022-09-13T12:06:27.000Z</time>
      </trkpt>
      <trkpt lat="49.41444" lon="5.75902">
        <ele>344.20001220703</ele>
        <time>2022-09-13T12:06:28.000Z</time>
      </trkpt>
      <trkpt lat="49.41447" lon="5.75901">
        <ele>344.20001220703</ele>
        <time>2022-09-13T12:06:29.000Z</time>
      </trkpt>
      <trkpt lat="49.41451" lon="5.759">
        <ele>344.20001220703</ele>
        <time>2022-09-13T12:06:30.000Z</time>
      </trkpt>
      <trkpt lat="49.41468" lon="5.759">
        <ele>344.20001220703</ele>
        <time>2022-09-13T12:06:34.000Z</time>
      </trkpt>
      <trkpt lat="49.41473" lon="5.75899">
        <ele>344.20001220703</ele>
        <time>2022-09-13T12:06:35.000Z</time>
      </trkpt>
      <trkpt lat="49.41479" lon="5.759">
        <ele>344.20001220703</ele>
        <time>2022-09-13T12:06:36.000Z</time>
      </trkpt>
      <trkpt lat="49.41498" lon="5.75894">
        <ele>344.60000610352</ele>
        <time>2022-09-13T12:06:41.000Z</time>
      </trkpt>
      <trkpt lat="49.415" lon="5.75894">
        <ele>344.79998779297</ele>
        <time>2022-09-13T12:06:42.000Z</time>
      </trkpt>
      <trkpt lat="49.41503" lon="5.75893">
        <ele>344.79998779297</ele>
        <time>2022-09-13T12:06:43.000Z</time>
      </trkpt>
      <trkpt lat="49.41513" lon="5.75891">
        <ele>345.20001220703</ele>
        <time>2022-09-13T12:06:46.000Z</time>
      </trkpt>
      <trkpt lat="49.41525" lon="5.75885">
        <ele>346</ele>
        <time>2022-09-13T12:06:50.000Z</time>
      </trkpt>
      <trkpt lat="49.41532" lon="5.75882">
        <ele>346.39999389648</ele>
        <time>2022-09-13T12:06:52.000Z</time>
      </trkpt>
      <trkpt lat="49.41542" lon="5.7588">
        <ele>347.39999389648</ele>
        <time>2022-09-13T12:06:55.000Z</time>
      </trkpt>
      <trkpt lat="49.41544" lon="5.75878">
        <ele>347.60000610352</ele>
        <time>2022-09-13T12:06:56.000Z</time>
      </trkpt>
      <trkpt lat="49.41547" lon="5.75874">
        <ele>348.20001220703</ele>
        <time>2022-09-13T12:06:57.000Z</time>
      </trkpt>
      <trkpt lat="49.41549" lon="5.75871">
        <ele>348.79998779297</ele>
        <time>2022-09-13T12:06:58.000Z</time>
      </trkpt>
      <trkpt lat="49.4155" lon="5.75868">
        <ele>349</ele>
        <time>2022-09-13T12:06:59.000Z</time>
      </trkpt>
      <trkpt lat="49.41552" lon="5.75867">
        <ele>349.20001220703</ele>
        <time>2022-09-13T12:07:00.000Z</time>
      </trkpt>
      <trkpt lat="49.41554" lon="5.75865">
        <ele>349.39999389648</ele>
        <time>2022-09-13T12:07:01.000Z</time>
      </trkpt>
      <trkpt lat="49.41556" lon="5.75863">
        <ele>349.60000610352</ele>
        <time>2022-09-13T12:07:02.000Z</time>
      </trkpt>
      <trkpt lat="49.4156" lon="5.7586">
        <ele>349.79998779297</ele>
        <time>2022-09-13T12:07:03.000Z</time>
      </trkpt>
      <trkpt lat="49.41562" lon="5.75857">
        <ele>350.20001220703</ele>
        <time>2022-09-13T12:07:04.000Z</time>
      </trkpt>
      <trkpt lat="49.41569" lon="5.75854">
        <ele>350.39999389648</ele>
        <time>2022-09-13T12:07:05.000Z</time>
      </trkpt>
      <trkpt lat="49.41572" lon="5.75851">
        <ele>350.79998779297</ele>
        <time>2022-09-13T12:07:06.000Z</time>
      </trkpt>
      <trkpt lat="49.41574" lon="5.75848">
        <ele>351.39999389648</ele>
        <time>2022-09-13T12:07:07.000Z</time>
      </trkpt>
      <trkpt lat="49.4158" lon="5.75844">
        <ele>351.39999389648</ele>
        <time>2022-09-13T12:07:08.000Z</time>
      </trkpt>
      <trkpt lat="49.41583" lon="5.7584">
        <ele>351.60000610352</ele>
        <time>2022-09-13T12:07:09.000Z</time>
      </trkpt>
      <trkpt lat="49.41585" lon="5.75836">
        <ele>351.60000610352</ele>
        <time>2022-09-13T12:07:10.000Z</time>
      </trkpt>
      <trkpt lat="49.41589" lon="5.75832">
        <ele>352</ele>
        <time>2022-09-13T12:07:11.000Z</time>
      </trkpt>
      <trkpt lat="49.4159" lon="5.75829">
        <ele>352</ele>
        <time>2022-09-13T12:07:12.000Z</time>
      </trkpt>
      <trkpt lat="49.41592" lon="5.75826">
        <ele>352.39999389648</ele>
        <time>2022-09-13T12:07:13.000Z</time>
      </trkpt>
      <trkpt lat="49.41596" lon="5.75824">
        <ele>352.60000610352</ele>
        <time>2022-09-13T12:07:14.000Z</time>
      </trkpt>
      <trkpt lat="49.41601" lon="5.75821">
        <ele>352.79998779297</ele>
        <time>2022-09-13T12:07:15.000Z</time>
      </trkpt>
      <trkpt lat="49.41604" lon="5.7582">
        <ele>353.20001220703</ele>
        <time>2022-09-13T12:07:16.000Z</time>
      </trkpt>
      <trkpt lat="49.41606" lon="5.75819">
        <ele>353.39999389648</ele>
        <time>2022-09-13T12:07:17.000Z</time>
      </trkpt>
      <trkpt lat="49.41607" lon="5.75818">
        <ele>353.60000610352</ele>
        <time>2022-09-13T12:07:18.000Z</time>
      </trkpt>
      <trkpt lat="49.41611" lon="5.75814">
        <ele>353.79998779297</ele>
        <time>2022-09-13T12:07:19.000Z</time>
      </trkpt>
      <trkpt lat="49.41615" lon="5.75811">
        <ele>354</ele>
        <time>2022-09-13T12:07:20.000Z</time>
      </trkpt>
      <trkpt lat="49.41618" lon="5.75806">
        <ele>354.39999389648</ele>
        <time>2022-09-13T12:07:21.000Z</time>
      </trkpt>
      <trkpt lat="49.41622" lon="5.75802">
        <ele>354.60000610352</ele>
        <time>2022-09-13T12:07:22.000Z</time>
      </trkpt>
      <trkpt lat="49.41625" lon="5.75798">
        <ele>354.79998779297</ele>
        <time>2022-09-13T12:07:23.000Z</time>
      </trkpt>
      <trkpt lat="49.41628" lon="5.75794">
        <ele>354.79998779297</ele>
        <time>2022-09-13T12:07:24.000Z</time>
      </trkpt>
      <trkpt lat="49.4163" lon="5.75791">
        <ele>355.20001220703</ele>
        <time>2022-09-13T12:07:25.000Z</time>
      </trkpt>
      <trkpt lat="49.41633" lon="5.75789">
        <ele>355.39999389648</ele>
        <time>2022-09-13T12:07:26.000Z</time>
      </trkpt>
      <trkpt lat="49.41634" lon="5.75787">
        <ele>355.39999389648</ele>
        <time>2022-09-13T12:07:27.000Z</time>
      </trkpt>
      <trkpt lat="49.41637" lon="5.75783">
        <ele>355.60000610352</ele>
        <time>2022-09-13T12:07:28.000Z</time>
      </trkpt>
      <trkpt lat="49.41639" lon="5.75779">
        <ele>355.79998779297</ele>
        <time>2022-09-13T12:07:29.000Z</time>
      </trkpt>
      <trkpt lat="49.41643" lon="5.75775">
        <ele>355.79998779297</ele>
        <time>2022-09-13T12:07:30.000Z</time>
      </trkpt>
      <trkpt lat="49.41645" lon="5.75772">
        <ele>355.79998779297</ele>
        <time>2022-09-13T12:07:31.000Z</time>
      </trkpt>
      <trkpt lat="49.41647" lon="5.7577">
        <ele>355.79998779297</ele>
        <time>2022-09-13T12:07:32.000Z</time>
      </trkpt>
      <trkpt lat="49.41651" lon="5.75766">
        <ele>355.79998779297</ele>
        <time>2022-09-13T12:07:33.000Z</time>
      </trkpt>
      <trkpt lat="49.41656" lon="5.75763">
        <ele>355.79998779297</ele>
        <time>2022-09-13T12:07:34.000Z</time>
      </trkpt>
      <trkpt lat="49.41659" lon="5.7576">
        <ele>355.79998779297</ele>
        <time>2022-09-13T12:07:35.000Z</time>
      </trkpt>
      <trkpt lat="49.41662" lon="5.75758">
        <ele>355.79998779297</ele>
        <time>2022-09-13T12:07:36.000Z</time>
      </trkpt>
      <trkpt lat="49.41665" lon="5.75755">
        <ele>355.79998779297</ele>
        <time>2022-09-13T12:07:37.000Z</time>
      </trkpt>
      <trkpt lat="49.41668" lon="5.75752">
        <ele>355.79998779297</ele>
        <time>2022-09-13T12:07:38.000Z</time>
      </trkpt>
      <trkpt lat="49.41671" lon="5.75749">
        <ele>356</ele>
        <time>2022-09-13T12:07:39.000Z</time>
      </trkpt>
      <trkpt lat="49.41674" lon="5.75746">
        <ele>356</ele>
        <time>2022-09-13T12:07:40.000Z</time>
      </trkpt>
      <trkpt lat="49.41677" lon="5.75744">
        <ele>356</ele>
        <time>2022-09-13T12:07:41.000Z</time>
      </trkpt>
      <trkpt lat="49.41681" lon="5.75741">
        <ele>356.20001220703</ele>
        <time>2022-09-13T12:07:42.000Z</time>
      </trkpt>
      <trkpt lat="49.41688" lon="5.75736">
        <ele>356.20001220703</ele>
        <time>2022-09-13T12:07:43.000Z</time>
      </trkpt>
      <trkpt lat="49.41692" lon="5.75732">
        <ele>356.39999389648</ele>
        <time>2022-09-13T12:07:44.000Z</time>
      </trkpt>
      <trkpt lat="49.41694" lon="5.75729">
        <ele>356.39999389648</ele>
        <time>2022-09-13T12:07:45.000Z</time>
      </trkpt>
      <trkpt lat="49.41695" lon="5.75727">
        <ele>356.79998779297</ele>
        <time>2022-09-13T12:07:46.000Z</time>
      </trkpt>
      <trkpt lat="49.41698" lon="5.75723">
        <ele>356.79998779297</ele>
        <time>2022-09-13T12:07:47.000Z</time>
      </trkpt>
      <trkpt lat="49.41701" lon="5.7572">
        <ele>356.79998779297</ele>
        <time>2022-09-13T12:07:48.000Z</time>
      </trkpt>
      <trkpt lat="49.41704" lon="5.75717">
        <ele>357</ele>
        <time>2022-09-13T12:07:49.000Z</time>
      </trkpt>
      <trkpt lat="49.41707" lon="5.75716">
        <ele>357.20001220703</ele>
        <time>2022-09-13T12:07:50.000Z</time>
      </trkpt>
      <trkpt lat="49.41711" lon="5.75713">
        <ele>357.20001220703</ele>
        <time>2022-09-13T12:07:51.000Z</time>
      </trkpt>
      <trkpt lat="49.41717" lon="5.75709">
        <ele>357.20001220703</ele>
        <time>2022-09-13T12:07:52.000Z</time>
      </trkpt>
      <trkpt lat="49.4172" lon="5.75705">
        <ele>357.39999389648</ele>
        <time>2022-09-13T12:07:53.000Z</time>
      </trkpt>
      <trkpt lat="49.41723" lon="5.75701">
        <ele>357.39999389648</ele>
        <time>2022-09-13T12:07:54.000Z</time>
      </trkpt>
      <trkpt lat="49.41724" lon="5.75698">
        <ele>357.60000610352</ele>
        <time>2022-09-13T12:07:55.000Z</time>
      </trkpt>
      <trkpt lat="49.41727" lon="5.75695">
        <ele>357.79998779297</ele>
        <time>2022-09-13T12:07:56.000Z</time>
      </trkpt>
      <trkpt lat="49.4173" lon="5.75691">
        <ele>357.79998779297</ele>
        <time>2022-09-13T12:07:57.000Z</time>
      </trkpt>
      <trkpt lat="49.41732" lon="5.75688">
        <ele>358</ele>
        <time>2022-09-13T12:07:58.000Z</time>
      </trkpt>
      <trkpt lat="49.41736" lon="5.75686">
        <ele>358</ele>
        <time>2022-09-13T12:07:59.000Z</time>
      </trkpt>
      <trkpt lat="49.41739" lon="5.75683">
        <ele>358.20001220703</ele>
        <time>2022-09-13T12:08:00.000Z</time>
      </trkpt>
      <trkpt lat="49.41742" lon="5.7568">
        <ele>358.39999389648</ele>
        <time>2022-09-13T12:08:01.000Z</time>
      </trkpt>
      <trkpt lat="49.41744" lon="5.75676">
        <ele>358.39999389648</ele>
        <time>2022-09-13T12:08:02.000Z</time>
      </trkpt>
      <trkpt lat="49.41746" lon="5.75674">
        <ele>358.60000610352</ele>
        <time>2022-09-13T12:08:03.000Z</time>
      </trkpt>
      <trkpt lat="49.41747" lon="5.75671">
        <ele>358.60000610352</ele>
        <time>2022-09-13T12:08:04.000Z</time>
      </trkpt>
      <trkpt lat="49.41749" lon="5.75669">
        <ele>358.60000610352</ele>
        <time>2022-09-13T12:08:05.000Z</time>
      </trkpt>
      <trkpt lat="49.41751" lon="5.75667">
        <ele>358.79998779297</ele>
        <time>2022-09-13T12:08:06.000Z</time>
      </trkpt>
      <trkpt lat="49.41754" lon="5.75664">
        <ele>358.79998779297</ele>
        <time>2022-09-13T12:08:07.000Z</time>
      </trkpt>
      <trkpt lat="49.41756" lon="5.75662">
        <ele>358.79998779297</ele>
        <time>2022-09-13T12:08:08.000Z</time>
      </trkpt>
      <trkpt lat="49.41759" lon="5.7566">
        <ele>358.79998779297</ele>
        <time>2022-09-13T12:08:09.000Z</time>
      </trkpt>
      <trkpt lat="49.41763" lon="5.75658">
        <ele>358.79998779297</ele>
        <time>2022-09-13T12:08:10.000Z</time>
      </trkpt>
      <trkpt lat="49.41767" lon="5.75656">
        <ele>358.79998779297</ele>
        <time>2022-09-13T12:08:11.000Z</time>
      </trkpt>
      <trkpt lat="49.4177" lon="5.75654">
        <ele>358.79998779297</ele>
        <time>2022-09-13T12:08:12.000Z</time>
      </trkpt>
      <trkpt lat="49.41772" lon="5.75652">
        <ele>359</ele>
        <time>2022-09-13T12:08:13.000Z</time>
      </trkpt>
      <trkpt lat="49.41775" lon="5.75648">
        <ele>359</ele>
        <time>2022-09-13T12:08:14.000Z</time>
      </trkpt>
      <trkpt lat="49.41783" lon="5.75643">
        <ele>359</ele>
        <time>2022-09-13T12:08:16.000Z</time>
      </trkpt>
      <trkpt lat="49.41793" lon="5.75632">
        <ele>358.79998779297</ele>
        <time>2022-09-13T12:08:19.000Z</time>
      </trkpt>
      <trkpt lat="49.41795" lon="5.75629">
        <ele>358.60000610352</ele>
        <time>2022-09-13T12:08:20.000Z</time>
      </trkpt>
      <trkpt lat="49.41798" lon="5.75627">
        <ele>358.60000610352</ele>
        <time>2022-09-13T12:08:21.000Z</time>
      </trkpt>
      <trkpt lat="49.41799" lon="5.75625">
        <ele>358.60000610352</ele>
        <time>2022-09-13T12:08:22.000Z</time>
      </trkpt>
      <trkpt lat="49.418" lon="5.75623">
        <ele>358.60000610352</ele>
        <time>2022-09-13T12:08:23.000Z</time>
      </trkpt>
      <trkpt lat="49.418" lon="5.75623">
        <ele>358.60000610352</ele>
        <time>2022-09-13T12:08:24.000Z</time>
      </trkpt>
      <trkpt lat="49.41801" lon="5.75621">
        <ele>358.39999389648</ele>
        <time>2022-09-13T12:08:25.000Z</time>
      </trkpt>
      <trkpt lat="49.41803" lon="5.75615">
        <ele>358.39999389648</ele>
        <time>2022-09-13T12:08:27.000Z</time>
      </trkpt>
      <trkpt lat="49.41802" lon="5.75612">
        <ele>358.39999389648</ele>
        <time>2022-09-13T12:08:28.000Z</time>
      </trkpt>
      <trkpt lat="49.41805" lon="5.75609">
        <ele>358.20001220703</ele>
        <time>2022-09-13T12:08:29.000Z</time>
      </trkpt>
      <trkpt lat="49.41807" lon="5.75606">
        <ele>358.20001220703</ele>
        <time>2022-09-13T12:08:30.000Z</time>
      </trkpt>
      <trkpt lat="49.41808" lon="5.75602">
        <ele>358.20001220703</ele>
        <time>2022-09-13T12:08:31.000Z</time>
      </trkpt>
      <trkpt lat="49.41808" lon="5.75599">
        <ele>358</ele>
        <time>2022-09-13T12:08:32.000Z</time>
      </trkpt>
      <trkpt lat="49.41814" lon="5.75593">
        <ele>358</ele>
        <time>2022-09-13T12:08:33.000Z</time>
      </trkpt>
      <trkpt lat="49.41815" lon="5.75585">
        <ele>358</ele>
        <time>2022-09-13T12:08:35.000Z</time>
      </trkpt>
      <trkpt lat="49.41816" lon="5.75581">
        <ele>358</ele>
        <time>2022-09-13T12:08:36.000Z</time>
      </trkpt>
      <trkpt lat="49.41816" lon="5.75579">
        <ele>357.79998779297</ele>
        <time>2022-09-13T12:08:37.000Z</time>
      </trkpt>
      <trkpt lat="49.41818" lon="5.75575">
        <ele>357.79998779297</ele>
        <time>2022-09-13T12:08:38.000Z</time>
      </trkpt>
      <trkpt lat="49.41818" lon="5.75575">
        <ele>357.79998779297</ele>
        <time>2022-09-13T12:08:39.000Z</time>
      </trkpt>
      <trkpt lat="49.41818" lon="5.75575">
        <ele>357.79998779297</ele>
        <time>2022-09-13T12:08:40.000Z</time>
      </trkpt>
      <trkpt lat="49.41818" lon="5.75575">
        <ele>357.79998779297</ele>
        <time>2022-09-13T12:08:41.000Z</time>
      </trkpt>
      <trkpt lat="49.41818" lon="5.75575">
        <ele>357.39999389648</ele>
        <time>2022-09-13T12:08:49.000Z</time>
      </trkpt>
      <trkpt lat="49.41818" lon="5.75575">
        <ele>357.20001220703</ele>
        <time>2022-09-13T12:08:53.000Z</time>
      </trkpt>
      <trkpt lat="49.41818" lon="5.75575">
        <ele>356.39999389648</ele>
        <time>2022-09-13T12:09:19.000Z</time>
      </trkpt>
      <trkpt lat="49.41818" lon="5.75568">
        <ele>356.79998779297</ele>
        <time>2022-09-13T12:09:27.000Z</time>
      </trkpt>
      <trkpt lat="49.41819" lon="5.7556">
        <ele>356.79998779297</ele>
        <time>2022-09-13T12:09:29.000Z</time>
      </trkpt>
      <trkpt lat="49.41818" lon="5.75549">
        <ele>356.79998779297</ele>
        <time>2022-09-13T12:09:32.000Z</time>
      </trkpt>
      <trkpt lat="49.41817" lon="5.75544">
        <ele>356.79998779297</ele>
        <time>2022-09-13T12:09:33.000Z</time>
      </trkpt>
      <trkpt lat="49.41816" lon="5.75538">
        <ele>357</ele>
        <time>2022-09-13T12:09:35.000Z</time>
      </trkpt>
      <trkpt lat="49.41809" lon="5.75523">
        <ele>357</ele>
        <time>2022-09-13T12:09:38.000Z</time>
      </trkpt>
      <trkpt lat="49.41807" lon="5.75519">
        <ele>357</ele>
        <time>2022-09-13T12:09:39.000Z</time>
      </trkpt>
      <trkpt lat="49.41803" lon="5.75514">
        <ele>357</ele>
        <time>2022-09-13T12:09:41.000Z</time>
      </trkpt>
      <trkpt lat="49.41801" lon="5.75511">
        <ele>357</ele>
        <time>2022-09-13T12:09:42.000Z</time>
      </trkpt>
      <trkpt lat="49.41799" lon="5.75505">
        <ele>357</ele>
        <time>2022-09-13T12:09:43.000Z</time>
      </trkpt>
      <trkpt lat="49.41791" lon="5.75482">
        <ele>357</ele>
        <time>2022-09-13T12:09:48.000Z</time>
      </trkpt>
      <trkpt lat="49.41791" lon="5.75476">
        <ele>357.20001220703</ele>
        <time>2022-09-13T12:09:49.000Z</time>
      </trkpt>
      <trkpt lat="49.41784" lon="5.75462">
        <ele>357.20001220703</ele>
        <time>2022-09-13T12:09:52.000Z</time>
      </trkpt>
      <trkpt lat="49.41782" lon="5.75457">
        <ele>357.20001220703</ele>
        <time>2022-09-13T12:09:53.000Z</time>
      </trkpt>
      <trkpt lat="49.4178" lon="5.75455">
        <ele>357.20001220703</ele>
        <time>2022-09-13T12:09:54.000Z</time>
      </trkpt>
      <trkpt lat="49.41777" lon="5.75451">
        <ele>357.20001220703</ele>
        <time>2022-09-13T12:09:55.000Z</time>
      </trkpt>
      <trkpt lat="49.41775" lon="5.75449">
        <ele>357.20001220703</ele>
        <time>2022-09-13T12:09:56.000Z</time>
      </trkpt>
      <trkpt lat="49.41774" lon="5.75447">
        <ele>357.20001220703</ele>
        <time>2022-09-13T12:09:57.000Z</time>
      </trkpt>
      <trkpt lat="49.41773" lon="5.75444">
        <ele>357.20001220703</ele>
        <time>2022-09-13T12:09:58.000Z</time>
      </trkpt>
      <trkpt lat="49.41769" lon="5.75437">
        <ele>357.20001220703</ele>
        <time>2022-09-13T12:10:00.000Z</time>
      </trkpt>
      <trkpt lat="49.41767" lon="5.75434">
        <ele>357</ele>
        <time>2022-09-13T12:10:01.000Z</time>
      </trkpt>
      <trkpt lat="49.41768" lon="5.7543">
        <ele>357</ele>
        <time>2022-09-13T12:10:02.000Z</time>
      </trkpt>
      <trkpt lat="49.41769" lon="5.75426">
        <ele>356.79998779297</ele>
        <time>2022-09-13T12:10:03.000Z</time>
      </trkpt>
      <trkpt lat="49.41768" lon="5.75423">
        <ele>356.79998779297</ele>
        <time>2022-09-13T12:10:04.000Z</time>
      </trkpt>
      <trkpt lat="49.41767" lon="5.75419">
        <ele>356.79998779297</ele>
        <time>2022-09-13T12:10:05.000Z</time>
      </trkpt>
      <trkpt lat="49.41766" lon="5.75415">
        <ele>356.79998779297</ele>
        <time>2022-09-13T12:10:06.000Z</time>
      </trkpt>
      <trkpt lat="49.41764" lon="5.7541">
        <ele>356.60000610352</ele>
        <time>2022-09-13T12:10:07.000Z</time>
      </trkpt>
      <trkpt lat="49.41756" lon="5.75394">
        <ele>356.60000610352</ele>
        <time>2022-09-13T12:10:11.000Z</time>
      </trkpt>
      <trkpt lat="49.41751" lon="5.75389">
        <ele>356.39999389648</ele>
        <time>2022-09-13T12:10:12.000Z</time>
      </trkpt>
      <trkpt lat="49.41749" lon="5.75385">
        <ele>356.39999389648</ele>
        <time>2022-09-13T12:10:13.000Z</time>
      </trkpt>
      <trkpt lat="49.41746" lon="5.75377">
        <ele>356.20001220703</ele>
        <time>2022-09-13T12:10:15.000Z</time>
      </trkpt>
      <trkpt lat="49.41745" lon="5.75373">
        <ele>356.20001220703</ele>
        <time>2022-09-13T12:10:16.000Z</time>
      </trkpt>
      <trkpt lat="49.41744" lon="5.75369">
        <ele>356</ele>
        <time>2022-09-13T12:10:17.000Z</time>
      </trkpt>
      <trkpt lat="49.41744" lon="5.75362">
        <ele>356</ele>
        <time>2022-09-13T12:10:18.000Z</time>
      </trkpt>
      <trkpt lat="49.41739" lon="5.75346">
        <ele>356</ele>
        <time>2022-09-13T12:10:21.000Z</time>
      </trkpt>
      <trkpt lat="49.41734" lon="5.75334">
        <ele>356</ele>
        <time>2022-09-13T12:10:23.000Z</time>
      </trkpt>
      <trkpt lat="49.41726" lon="5.75307">
        <ele>356</ele>
        <time>2022-09-13T12:10:28.000Z</time>
      </trkpt>
      <trkpt lat="49.41724" lon="5.75303">
        <ele>356</ele>
        <time>2022-09-13T12:10:29.000Z</time>
      </trkpt>
      <trkpt lat="49.4172" lon="5.75297">
        <ele>356</ele>
        <time>2022-09-13T12:10:30.000Z</time>
      </trkpt>
      <trkpt lat="49.41719" lon="5.75294">
        <ele>356</ele>
        <time>2022-09-13T12:10:31.000Z</time>
      </trkpt>
      <trkpt lat="49.41718" lon="5.75292">
        <ele>356</ele>
        <time>2022-09-13T12:10:32.000Z</time>
      </trkpt>
      <trkpt lat="49.41716" lon="5.75287">
        <ele>355.79998779297</ele>
        <time>2022-09-13T12:10:33.000Z</time>
      </trkpt>
      <trkpt lat="49.41713" lon="5.75283">
        <ele>355.60000610352</ele>
        <time>2022-09-13T12:10:34.000Z</time>
      </trkpt>
      <trkpt lat="49.41711" lon="5.75279">
        <ele>355.39999389648</ele>
        <time>2022-09-13T12:10:35.000Z</time>
      </trkpt>
      <trkpt lat="49.41708" lon="5.75277">
        <ele>355.20001220703</ele>
        <time>2022-09-13T12:10:36.000Z</time>
      </trkpt>
      <trkpt lat="49.41705" lon="5.75274">
        <ele>355</ele>
        <time>2022-09-13T12:10:37.000Z</time>
      </trkpt>
      <trkpt lat="49.41703" lon="5.75273">
        <ele>355</ele>
        <time>2022-09-13T12:10:38.000Z</time>
      </trkpt>
      <trkpt lat="49.41702" lon="5.75272">
        <ele>354.79998779297</ele>
        <time>2022-09-13T12:10:39.000Z</time>
      </trkpt>
      <trkpt lat="49.41701" lon="5.7527">
        <ele>354.79998779297</ele>
        <time>2022-09-13T12:10:40.000Z</time>
      </trkpt>
      <trkpt lat="49.41702" lon="5.75268">
        <ele>354.60000610352</ele>
        <time>2022-09-13T12:10:42.000Z</time>
      </trkpt>
      <trkpt lat="49.41715" lon="5.75256">
        <ele>354.20001220703</ele>
        <time>2022-09-13T12:10:48.000Z</time>
      </trkpt>
      <trkpt lat="49.41719" lon="5.75251">
        <ele>354</ele>
        <time>2022-09-13T12:10:50.000Z</time>
      </trkpt>
      <trkpt lat="49.41721" lon="5.75249">
        <ele>354</ele>
        <time>2022-09-13T12:10:51.000Z</time>
      </trkpt>
      <trkpt lat="49.4173" lon="5.7524">
        <ele>354.20001220703</ele>
        <time>2022-09-13T12:10:55.000Z</time>
      </trkpt>
      <trkpt lat="49.41747" lon="5.75223">
        <ele>354</ele>
        <time>2022-09-13T12:11:01.000Z</time>
      </trkpt>
      <trkpt lat="49.41748" lon="5.75222">
        <ele>353.79998779297</ele>
        <time>2022-09-13T12:11:02.000Z</time>
      </trkpt>
      <trkpt lat="49.41748" lon="5.75222">
        <ele>353.60000610352</ele>
        <time>2022-09-13T12:11:03.000Z</time>
      </trkpt>
      <trkpt lat="49.41748" lon="5.75222">
        <ele>353.60000610352</ele>
        <time>2022-09-13T12:11:04.000Z</time>
      </trkpt>
      <trkpt lat="49.41749" lon="5.75223">
        <ele>353.39999389648</ele>
        <time>2022-09-13T12:11:05.000Z</time>
      </trkpt>
      <trkpt lat="49.41751" lon="5.75225">
        <ele>353.39999389648</ele>
        <time>2022-09-13T12:11:06.000Z</time>
      </trkpt>
      <trkpt lat="49.41752" lon="5.75231">
        <ele>353.20001220703</ele>
        <time>2022-09-13T12:11:08.000Z</time>
      </trkpt>
      <trkpt lat="49.41754" lon="5.75236">
        <ele>353.20001220703</ele>
        <time>2022-09-13T12:11:10.000Z</time>
      </trkpt>
      <trkpt lat="49.41755" lon="5.75238">
        <ele>353.20001220703</ele>
        <time>2022-09-13T12:11:11.000Z</time>
      </trkpt>
      <trkpt lat="49.41767" lon="5.75268">
        <ele>353.60000610352</ele>
        <time>2022-09-13T12:11:19.000Z</time>
      </trkpt>
      <trkpt lat="49.41774" lon="5.75287">
        <ele>354</ele>
        <time>2022-09-13T12:11:23.000Z</time>
      </trkpt>
      <trkpt lat="49.41777" lon="5.75289">
        <ele>354.20001220703</ele>
        <time>2022-09-13T12:11:24.000Z</time>
      </trkpt>
      <trkpt lat="49.41779" lon="5.75292">
        <ele>354.20001220703</ele>
        <time>2022-09-13T12:11:25.000Z</time>
      </trkpt>
      <trkpt lat="49.41782" lon="5.753">
        <ele>354.20001220703</ele>
        <time>2022-09-13T12:11:26.000Z</time>
      </trkpt>
      <trkpt lat="49.41786" lon="5.75311">
        <ele>354.20001220703</ele>
        <time>2022-09-13T12:11:28.000Z</time>
      </trkpt>
      <trkpt lat="49.41788" lon="5.75314">
        <ele>354.39999389648</ele>
        <time>2022-09-13T12:11:29.000Z</time>
      </trkpt>
      <trkpt lat="49.41791" lon="5.75319">
        <ele>354.39999389648</ele>
        <time>2022-09-13T12:11:30.000Z</time>
      </trkpt>
      <trkpt lat="49.41794" lon="5.75323">
        <ele>354.39999389648</ele>
        <time>2022-09-13T12:11:31.000Z</time>
      </trkpt>
      <trkpt lat="49.41796" lon="5.75329">
        <ele>354.60000610352</ele>
        <time>2022-09-13T12:11:32.000Z</time>
      </trkpt>
      <trkpt lat="49.41799" lon="5.7534">
        <ele>354.60000610352</ele>
        <time>2022-09-13T12:11:34.000Z</time>
      </trkpt>
      <trkpt lat="49.41802" lon="5.75345">
        <ele>354.79998779297</ele>
        <time>2022-09-13T12:11:35.000Z</time>
      </trkpt>
      <trkpt lat="49.41805" lon="5.75349">
        <ele>355</ele>
        <time>2022-09-13T12:11:36.000Z</time>
      </trkpt>
      <trkpt lat="49.41814" lon="5.75372">
        <ele>355.20001220703</ele>
        <time>2022-09-13T12:11:41.000Z</time>
      </trkpt>
      <trkpt lat="49.41826" lon="5.75401">
        <ele>355.60000610352</ele>
        <time>2022-09-13T12:11:46.000Z</time>
      </trkpt>
      <trkpt lat="49.4183" lon="5.75406">
        <ele>355.60000610352</ele>
        <time>2022-09-13T12:11:47.000Z</time>
      </trkpt>
      <trkpt lat="49.41832" lon="5.75418">
        <ele>355.60000610352</ele>
        <time>2022-09-13T12:11:49.000Z</time>
      </trkpt>
      <trkpt lat="49.41832" lon="5.7542">
        <ele>355.60000610352</ele>
        <time>2022-09-13T12:11:50.000Z</time>
      </trkpt>
      <trkpt lat="49.41833" lon="5.75422">
        <ele>355.60000610352</ele>
        <time>2022-09-13T12:11:51.000Z</time>
      </trkpt>
      <trkpt lat="49.41833" lon="5.75426">
        <ele>355.60000610352</ele>
        <time>2022-09-13T12:11:52.000Z</time>
      </trkpt>
      <trkpt lat="49.41834" lon="5.7543">
        <ele>355.60000610352</ele>
        <time>2022-09-13T12:11:53.000Z</time>
      </trkpt>
      <trkpt lat="49.41835" lon="5.75433">
        <ele>355.60000610352</ele>
        <time>2022-09-13T12:11:54.000Z</time>
      </trkpt>
      <trkpt lat="49.41836" lon="5.7544">
        <ele>355.20001220703</ele>
        <time>2022-09-13T12:11:56.000Z</time>
      </trkpt>
      <trkpt lat="49.41837" lon="5.75444">
        <ele>355.20001220703</ele>
        <time>2022-09-13T12:11:57.000Z</time>
      </trkpt>
      <trkpt lat="49.41839" lon="5.75449">
        <ele>355.20001220703</ele>
        <time>2022-09-13T12:11:58.000Z</time>
      </trkpt>
      <trkpt lat="49.41845" lon="5.75467">
        <ele>355</ele>
        <time>2022-09-13T12:12:02.000Z</time>
      </trkpt>
      <trkpt lat="49.41851" lon="5.75478">
        <ele>354.79998779297</ele>
        <time>2022-09-13T12:12:06.000Z</time>
      </trkpt>
      <trkpt lat="49.41853" lon="5.75482">
        <ele>354.79998779297</ele>
        <time>2022-09-13T12:12:07.000Z</time>
      </trkpt>
      <trkpt lat="49.41855" lon="5.75488">
        <ele>354.79998779297</ele>
        <time>2022-09-13T12:12:08.000Z</time>
      </trkpt>
      <trkpt lat="49.41865" lon="5.75521">
        <ele>354</ele>
        <time>2022-09-13T12:12:13.000Z</time>
      </trkpt>
      <trkpt lat="49.41868" lon="5.75535">
        <ele>353.20001220703</ele>
        <time>2022-09-13T12:12:15.000Z</time>
      </trkpt>
      <trkpt lat="49.41873" lon="5.75541">
        <ele>353</ele>
        <time>2022-09-13T12:12:16.000Z</time>
      </trkpt>
      <trkpt lat="49.41875" lon="5.75548">
        <ele>352.39999389648</ele>
        <time>2022-09-13T12:12:17.000Z</time>
      </trkpt>
      <trkpt lat="49.41878" lon="5.75556">
        <ele>352.20001220703</ele>
        <time>2022-09-13T12:12:18.000Z</time>
      </trkpt>
      <trkpt lat="49.41881" lon="5.75562">
        <ele>352</ele>
        <time>2022-09-13T12:12:19.000Z</time>
      </trkpt>
      <trkpt lat="49.41885" lon="5.75566">
        <ele>351.39999389648</ele>
        <time>2022-09-13T12:12:20.000Z</time>
      </trkpt>
      <trkpt lat="49.41889" lon="5.75569">
        <ele>351.20001220703</ele>
        <time>2022-09-13T12:12:21.000Z</time>
      </trkpt>
      <trkpt lat="49.41893" lon="5.75569">
        <ele>350.79998779297</ele>
        <time>2022-09-13T12:12:22.000Z</time>
      </trkpt>
      <trkpt lat="49.41902" lon="5.75567">
        <ele>350</ele>
        <time>2022-09-13T12:12:24.000Z</time>
      </trkpt>
      <trkpt lat="49.41911" lon="5.75568">
        <ele>349.79998779297</ele>
        <time>2022-09-13T12:12:25.000Z</time>
      </trkpt>
      <trkpt lat="49.41919" lon="5.75569">
        <ele>348.20001220703</ele>
        <time>2022-09-13T12:12:27.000Z</time>
      </trkpt>
      <trkpt lat="49.41934" lon="5.75569">
        <ele>347.20001220703</ele>
        <time>2022-09-13T12:12:30.000Z</time>
      </trkpt>
      <trkpt lat="49.41942" lon="5.7557">
        <ele>346.79998779297</ele>
        <time>2022-09-13T12:12:31.000Z</time>
      </trkpt>
      <trkpt lat="49.41957" lon="5.75571">
        <ele>346.20001220703</ele>
        <time>2022-09-13T12:12:33.000Z</time>
      </trkpt>
      <trkpt lat="49.41967" lon="5.75569">
        <ele>345.39999389648</ele>
        <time>2022-09-13T12:12:35.000Z</time>
      </trkpt>
      <trkpt lat="49.41974" lon="5.75566">
        <ele>344.60000610352</ele>
        <time>2022-09-13T12:12:36.000Z</time>
      </trkpt>
      <trkpt lat="49.41979" lon="5.75565">
        <ele>344.39999389648</ele>
        <time>2022-09-13T12:12:37.000Z</time>
      </trkpt>
      <trkpt lat="49.41993" lon="5.75563">
        <ele>344</ele>
        <time>2022-09-13T12:12:39.000Z</time>
      </trkpt>
      <trkpt lat="49.41997" lon="5.75563">
        <ele>344</ele>
        <time>2022-09-13T12:12:40.000Z</time>
      </trkpt>
      <trkpt lat="49.42001" lon="5.75564">
        <ele>343.79998779297</ele>
        <time>2022-09-13T12:12:41.000Z</time>
      </trkpt>
      <trkpt lat="49.42005" lon="5.75565">
        <ele>343.60000610352</ele>
        <time>2022-09-13T12:12:42.000Z</time>
      </trkpt>
      <trkpt lat="49.42013" lon="5.75565">
        <ele>343.39999389648</ele>
        <time>2022-09-13T12:12:43.000Z</time>
      </trkpt>
      <trkpt lat="49.4202" lon="5.75566">
        <ele>343.20001220703</ele>
        <time>2022-09-13T12:12:44.000Z</time>
      </trkpt>
      <trkpt lat="49.42027" lon="5.75563">
        <ele>342.79998779297</ele>
        <time>2022-09-13T12:12:45.000Z</time>
      </trkpt>
      <trkpt lat="49.42038" lon="5.75559">
        <ele>342.39999389648</ele>
        <time>2022-09-13T12:12:47.000Z</time>
      </trkpt>
      <trkpt lat="49.42043" lon="5.75556">
        <ele>342.39999389648</ele>
        <time>2022-09-13T12:12:48.000Z</time>
      </trkpt>
      <trkpt lat="49.4205" lon="5.75554">
        <ele>342</ele>
        <time>2022-09-13T12:12:49.000Z</time>
      </trkpt>
      <trkpt lat="49.42053" lon="5.75551">
        <ele>341.79998779297</ele>
        <time>2022-09-13T12:12:50.000Z</time>
      </trkpt>
      <trkpt lat="49.42066" lon="5.75538">
        <ele>341.79998779297</ele>
        <time>2022-09-13T12:12:54.000Z</time>
      </trkpt>
      <trkpt lat="49.4207" lon="5.75532">
        <ele>341.60000610352</ele>
        <time>2022-09-13T12:12:55.000Z</time>
      </trkpt>
      <trkpt lat="49.42075" lon="5.75528">
        <ele>341.60000610352</ele>
        <time>2022-09-13T12:12:56.000Z</time>
      </trkpt>
      <trkpt lat="49.42079" lon="5.75524">
        <ele>341.60000610352</ele>
        <time>2022-09-13T12:12:57.000Z</time>
      </trkpt>
      <trkpt lat="49.42081" lon="5.75522">
        <ele>341.39999389648</ele>
        <time>2022-09-13T12:12:58.000Z</time>
      </trkpt>
      <trkpt lat="49.42085" lon="5.7552">
        <ele>341.39999389648</ele>
        <time>2022-09-13T12:12:59.000Z</time>
      </trkpt>
      <trkpt lat="49.42089" lon="5.75517">
        <ele>341.20001220703</ele>
        <time>2022-09-13T12:13:00.000Z</time>
      </trkpt>
      <trkpt lat="49.42093" lon="5.75514">
        <ele>341.20001220703</ele>
        <time>2022-09-13T12:13:01.000Z</time>
      </trkpt>
      <trkpt lat="49.42104" lon="5.75506">
        <ele>341.20001220703</ele>
        <time>2022-09-13T12:13:04.000Z</time>
      </trkpt>
      <trkpt lat="49.42107" lon="5.75504">
        <ele>341.20001220703</ele>
        <time>2022-09-13T12:13:05.000Z</time>
      </trkpt>
      <trkpt lat="49.4211" lon="5.75501">
        <ele>341.20001220703</ele>
        <time>2022-09-13T12:13:06.000Z</time>
      </trkpt>
      <trkpt lat="49.42123" lon="5.75481">
        <ele>341.20001220703</ele>
        <time>2022-09-13T12:13:10.000Z</time>
      </trkpt>
      <trkpt lat="49.42125" lon="5.75474">
        <ele>341.20001220703</ele>
        <time>2022-09-13T12:13:11.000Z</time>
      </trkpt>
      <trkpt lat="49.42128" lon="5.75469">
        <ele>341.20001220703</ele>
        <time>2022-09-13T12:13:12.000Z</time>
      </trkpt>
      <trkpt lat="49.42138" lon="5.75448">
        <ele>341.20001220703</ele>
        <time>2022-09-13T12:13:16.000Z</time>
      </trkpt>
      <trkpt lat="49.42151" lon="5.75417">
        <ele>341</ele>
        <time>2022-09-13T12:13:23.000Z</time>
      </trkpt>
      <trkpt lat="49.42158" lon="5.75404">
        <ele>341</ele>
        <time>2022-09-13T12:13:26.000Z</time>
      </trkpt>
      <trkpt lat="49.4216" lon="5.754">
        <ele>341</ele>
        <time>2022-09-13T12:13:27.000Z</time>
      </trkpt>
      <trkpt lat="49.42162" lon="5.75396">
        <ele>341</ele>
        <time>2022-09-13T12:13:28.000Z</time>
      </trkpt>
      <trkpt lat="49.42164" lon="5.75392">
        <ele>341</ele>
        <time>2022-09-13T12:13:29.000Z</time>
      </trkpt>
      <trkpt lat="49.42166" lon="5.75388">
        <ele>341</ele>
        <time>2022-09-13T12:13:30.000Z</time>
      </trkpt>
      <trkpt lat="49.42169" lon="5.75379">
        <ele>341</ele>
        <time>2022-09-13T12:13:32.000Z</time>
      </trkpt>
      <trkpt lat="49.42184" lon="5.75348">
        <ele>340.39999389648</ele>
        <time>2022-09-13T12:13:39.000Z</time>
      </trkpt>
      <trkpt lat="49.42193" lon="5.75322">
        <ele>340.20001220703</ele>
        <time>2022-09-13T12:13:44.000Z</time>
      </trkpt>
      <trkpt lat="49.42195" lon="5.75318">
        <ele>340.20001220703</ele>
        <time>2022-09-13T12:13:45.000Z</time>
      </trkpt>
      <trkpt lat="49.42198" lon="5.75308">
        <ele>340.20001220703</ele>
        <time>2022-09-13T12:13:47.000Z</time>
      </trkpt>
      <trkpt lat="49.422" lon="5.75304">
        <ele>340.20001220703</ele>
        <time>2022-09-13T12:13:48.000Z</time>
      </trkpt>
      <trkpt lat="49.42202" lon="5.75299">
        <ele>340.20001220703</ele>
        <time>2022-09-13T12:13:49.000Z</time>
      </trkpt>
      <trkpt lat="49.42204" lon="5.75295">
        <ele>340</ele>
        <time>2022-09-13T12:13:50.000Z</time>
      </trkpt>
      <trkpt lat="49.42207" lon="5.75289">
        <ele>340</ele>
        <time>2022-09-13T12:13:51.000Z</time>
      </trkpt>
      <trkpt lat="49.4221" lon="5.75284">
        <ele>339.79998779297</ele>
        <time>2022-09-13T12:13:52.000Z</time>
      </trkpt>
      <trkpt lat="49.42217" lon="5.75266">
        <ele>339.60000610352</ele>
        <time>2022-09-13T12:13:56.000Z</time>
      </trkpt>
      <trkpt lat="49.42218" lon="5.75263">
        <ele>339.60000610352</ele>
        <time>2022-09-13T12:13:57.000Z</time>
      </trkpt>
      <trkpt lat="49.42219" lon="5.75261">
        <ele>339.60000610352</ele>
        <time>2022-09-13T12:13:58.000Z</time>
      </trkpt>
      <trkpt lat="49.4222" lon="5.75259">
        <ele>339.60000610352</ele>
        <time>2022-09-13T12:13:59.000Z</time>
      </trkpt>
      <trkpt lat="49.42221" lon="5.75256">
        <ele>339.39999389648</ele>
        <time>2022-09-13T12:14:00.000Z</time>
      </trkpt>
      <trkpt lat="49.42222" lon="5.75254">
        <ele>339.39999389648</ele>
        <time>2022-09-13T12:14:01.000Z</time>
      </trkpt>
      <trkpt lat="49.42223" lon="5.75253">
        <ele>339.39999389648</ele>
        <time>2022-09-13T12:14:02.000Z</time>
      </trkpt>
      <trkpt lat="49.42224" lon="5.75253">
        <ele>339.39999389648</ele>
        <time>2022-09-13T12:14:03.000Z</time>
      </trkpt>
      <trkpt lat="49.42224" lon="5.75253">
        <ele>339.60000610352</ele>
        <time>2022-09-13T12:14:04.000Z</time>
      </trkpt>
      <trkpt lat="49.42224" lon="5.75254">
        <ele>339.60000610352</ele>
        <time>2022-09-13T12:14:05.000Z</time>
      </trkpt>
      <trkpt lat="49.42225" lon="5.75256">
        <ele>339.79998779297</ele>
        <time>2022-09-13T12:14:06.000Z</time>
      </trkpt>
      <trkpt lat="49.42225" lon="5.75258">
        <ele>340</ele>
        <time>2022-09-13T12:14:07.000Z</time>
      </trkpt>
      <trkpt lat="49.42226" lon="5.7526">
        <ele>340</ele>
        <time>2022-09-13T12:14:08.000Z</time>
      </trkpt>
      <trkpt lat="49.42226" lon="5.75263">
        <ele>340</ele>
        <time>2022-09-13T12:14:09.000Z</time>
      </trkpt>
      <trkpt lat="49.42226" lon="5.75267">
        <ele>340</ele>
        <time>2022-09-13T12:14:10.000Z</time>
      </trkpt>
      <trkpt lat="49.42228" lon="5.75282">
        <ele>340</ele>
        <time>2022-09-13T12:14:14.000Z</time>
      </trkpt>
      <trkpt lat="49.42228" lon="5.75288">
        <ele>340</ele>
        <time>2022-09-13T12:14:15.000Z</time>
      </trkpt>
      <trkpt lat="49.42227" lon="5.75293">
        <ele>340</ele>
        <time>2022-09-13T12:14:16.000Z</time>
      </trkpt>
      <trkpt lat="49.42225" lon="5.7531">
        <ele>340</ele>
        <time>2022-09-13T12:14:19.000Z</time>
      </trkpt>
      <trkpt lat="49.42225" lon="5.75322">
        <ele>340</ele>
        <time>2022-09-13T12:14:21.000Z</time>
      </trkpt>
      <trkpt lat="49.42224" lon="5.75328">
        <ele>340</ele>
        <time>2022-09-13T12:14:22.000Z</time>
      </trkpt>
      <trkpt lat="49.42224" lon="5.75348">
        <ele>340.60000610352</ele>
        <time>2022-09-13T12:14:25.000Z</time>
      </trkpt>
      <trkpt lat="49.42222" lon="5.75368">
        <ele>341</ele>
        <time>2022-09-13T12:14:28.000Z</time>
      </trkpt>
      <trkpt lat="49.4222" lon="5.75381">
        <ele>341</ele>
        <time>2022-09-13T12:14:30.000Z</time>
      </trkpt>
      <trkpt lat="49.42219" lon="5.75388">
        <ele>341</ele>
        <time>2022-09-13T12:14:31.000Z</time>
      </trkpt>
      <trkpt lat="49.42219" lon="5.75393">
        <ele>341</ele>
        <time>2022-09-13T12:14:32.000Z</time>
      </trkpt>
      <trkpt lat="49.42217" lon="5.75423">
        <ele>341</ele>
        <time>2022-09-13T12:14:36.000Z</time>
      </trkpt>
      <trkpt lat="49.42215" lon="5.75436">
        <ele>341</ele>
        <time>2022-09-13T12:14:38.000Z</time>
      </trkpt>
      <trkpt lat="49.42213" lon="5.75445">
        <ele>341</ele>
        <time>2022-09-13T12:14:39.000Z</time>
      </trkpt>
      <trkpt lat="49.42212" lon="5.75452">
        <ele>341</ele>
        <time>2022-09-13T12:14:40.000Z</time>
      </trkpt>
      <trkpt lat="49.4221" lon="5.75459">
        <ele>341.20001220703</ele>
        <time>2022-09-13T12:14:41.000Z</time>
      </trkpt>
      <trkpt lat="49.422" lon="5.75511">
        <ele>341.79998779297</ele>
        <time>2022-09-13T12:14:48.000Z</time>
      </trkpt>
      <trkpt lat="49.42201" lon="5.75533">
        <ele>341.60000610352</ele>
        <time>2022-09-13T12:14:52.000Z</time>
      </trkpt>
      <trkpt lat="49.42201" lon="5.7554">
        <ele>341.39999389648</ele>
        <time>2022-09-13T12:14:53.000Z</time>
      </trkpt>
      <trkpt lat="49.422" lon="5.75546">
        <ele>341.20001220703</ele>
        <time>2022-09-13T12:14:54.000Z</time>
      </trkpt>
      <trkpt lat="49.42198" lon="5.75572">
        <ele>341</ele>
        <time>2022-09-13T12:14:58.000Z</time>
      </trkpt>
      <trkpt lat="49.42195" lon="5.75587">
        <ele>340.79998779297</ele>
        <time>2022-09-13T12:15:00.000Z</time>
      </trkpt>
      <trkpt lat="49.42196" lon="5.75591">
        <ele>340.79998779297</ele>
        <time>2022-09-13T12:15:01.000Z</time>
      </trkpt>
      <trkpt lat="49.42195" lon="5.75599">
        <ele>340.79998779297</ele>
        <time>2022-09-13T12:15:02.000Z</time>
      </trkpt>
      <trkpt lat="49.42194" lon="5.75604">
        <ele>340.60000610352</ele>
        <time>2022-09-13T12:15:03.000Z</time>
      </trkpt>
      <trkpt lat="49.42192" lon="5.75613">
        <ele>340.60000610352</ele>
        <time>2022-09-13T12:15:04.000Z</time>
      </trkpt>
      <trkpt lat="49.42191" lon="5.7563">
        <ele>340.20001220703</ele>
        <time>2022-09-13T12:15:06.000Z</time>
      </trkpt>
      <trkpt lat="49.42192" lon="5.75641">
        <ele>340.20001220703</ele>
        <time>2022-09-13T12:15:08.000Z</time>
      </trkpt>
      <trkpt lat="49.42192" lon="5.75645">
        <ele>340</ele>
        <time>2022-09-13T12:15:09.000Z</time>
      </trkpt>
      <trkpt lat="49.42191" lon="5.75654">
        <ele>340</ele>
        <time>2022-09-13T12:15:10.000Z</time>
      </trkpt>
      <trkpt lat="49.42191" lon="5.75662">
        <ele>340</ele>
        <time>2022-09-13T12:15:11.000Z</time>
      </trkpt>
      <trkpt lat="49.42193" lon="5.75684">
        <ele>340</ele>
        <time>2022-09-13T12:15:14.000Z</time>
      </trkpt>
      <trkpt lat="49.42193" lon="5.75692">
        <ele>340</ele>
        <time>2022-09-13T12:15:15.000Z</time>
      </trkpt>
      <trkpt lat="49.42194" lon="5.75707">
        <ele>340</ele>
        <time>2022-09-13T12:15:17.000Z</time>
      </trkpt>
      <trkpt lat="49.42195" lon="5.75712">
        <ele>340.20001220703</ele>
        <time>2022-09-13T12:15:18.000Z</time>
      </trkpt>
      <trkpt lat="49.42197" lon="5.75716">
        <ele>340.20001220703</ele>
        <time>2022-09-13T12:15:19.000Z</time>
      </trkpt>
      <trkpt lat="49.42203" lon="5.75723">
        <ele>340.60000610352</ele>
        <time>2022-09-13T12:15:21.000Z</time>
      </trkpt>
      <trkpt lat="49.42205" lon="5.75728">
        <ele>340.79998779297</ele>
        <time>2022-09-13T12:15:22.000Z</time>
      </trkpt>
      <trkpt lat="49.42205" lon="5.75734">
        <ele>340.79998779297</ele>
        <time>2022-09-13T12:15:23.000Z</time>
      </trkpt>
      <trkpt lat="49.42206" lon="5.75741">
        <ele>341</ele>
        <time>2022-09-13T12:15:24.000Z</time>
      </trkpt>
      <trkpt lat="49.42206" lon="5.75752">
        <ele>341</ele>
        <time>2022-09-13T12:15:25.000Z</time>
      </trkpt>
      <trkpt lat="49.42206" lon="5.75759">
        <ele>341</ele>
        <time>2022-09-13T12:15:26.000Z</time>
      </trkpt>
      <trkpt lat="49.42207" lon="5.75764">
        <ele>341</ele>
        <time>2022-09-13T12:15:27.000Z</time>
      </trkpt>
      <trkpt lat="49.42207" lon="5.7577">
        <ele>341</ele>
        <time>2022-09-13T12:15:28.000Z</time>
      </trkpt>
      <trkpt lat="49.42208" lon="5.75776">
        <ele>341.20001220703</ele>
        <time>2022-09-13T12:15:29.000Z</time>
      </trkpt>
      <trkpt lat="49.42211" lon="5.758">
        <ele>341.20001220703</ele>
        <time>2022-09-13T12:15:32.000Z</time>
      </trkpt>
      <trkpt lat="49.42221" lon="5.75839">
        <ele>341.39999389648</ele>
        <time>2022-09-13T12:15:36.000Z</time>
      </trkpt>
      <trkpt lat="49.42221" lon="5.75847">
        <ele>341.39999389648</ele>
        <time>2022-09-13T12:15:37.000Z</time>
      </trkpt>
      <trkpt lat="49.42221" lon="5.75855">
        <ele>341.39999389648</ele>
        <time>2022-09-13T12:15:38.000Z</time>
      </trkpt>
      <trkpt lat="49.42222" lon="5.75862">
        <ele>341.20001220703</ele>
        <time>2022-09-13T12:15:39.000Z</time>
      </trkpt>
      <trkpt lat="49.42222" lon="5.75868">
        <ele>341.20001220703</ele>
        <time>2022-09-13T12:15:40.000Z</time>
      </trkpt>
      <trkpt lat="49.42223" lon="5.75873">
        <ele>341.20001220703</ele>
        <time>2022-09-13T12:15:41.000Z</time>
      </trkpt>
      <trkpt lat="49.42223" lon="5.75876">
        <ele>341.20001220703</ele>
        <time>2022-09-13T12:15:42.000Z</time>
      </trkpt>
      <trkpt lat="49.42224" lon="5.75879">
        <ele>341.20001220703</ele>
        <time>2022-09-13T12:15:43.000Z</time>
      </trkpt>
      <trkpt lat="49.42224" lon="5.75884">
        <ele>341.20001220703</ele>
        <time>2022-09-13T12:15:44.000Z</time>
      </trkpt>
      <trkpt lat="49.42222" lon="5.75899">
        <ele>341.20001220703</ele>
        <time>2022-09-13T12:15:46.000Z</time>
      </trkpt>
      <trkpt lat="49.42221" lon="5.75903">
        <ele>341.20001220703</ele>
        <time>2022-09-13T12:15:47.000Z</time>
      </trkpt>
      <trkpt lat="49.4222" lon="5.75907">
        <ele>341.20001220703</ele>
        <time>2022-09-13T12:15:48.000Z</time>
      </trkpt>
      <trkpt lat="49.42219" lon="5.75912">
        <ele>341.39999389648</ele>
        <time>2022-09-13T12:15:49.000Z</time>
      </trkpt>
      <trkpt lat="49.4222" lon="5.75918">
        <ele>341.39999389648</ele>
        <time>2022-09-13T12:15:50.000Z</time>
      </trkpt>
      <trkpt lat="49.4222" lon="5.75923">
        <ele>341.39999389648</ele>
        <time>2022-09-13T12:15:51.000Z</time>
      </trkpt>
      <trkpt lat="49.4222" lon="5.75932">
        <ele>341.60000610352</ele>
        <time>2022-09-13T12:15:52.000Z</time>
      </trkpt>
      <trkpt lat="49.42221" lon="5.75936">
        <ele>341.60000610352</ele>
        <time>2022-09-13T12:15:53.000Z</time>
      </trkpt>
      <trkpt lat="49.42222" lon="5.75941">
        <ele>341.79998779297</ele>
        <time>2022-09-13T12:15:54.000Z</time>
      </trkpt>
      <trkpt lat="49.42222" lon="5.75948">
        <ele>342</ele>
        <time>2022-09-13T12:15:55.000Z</time>
      </trkpt>
      <trkpt lat="49.42221" lon="5.75954">
        <ele>342</ele>
        <time>2022-09-13T12:15:56.000Z</time>
      </trkpt>
      <trkpt lat="49.42221" lon="5.75959">
        <ele>342.20001220703</ele>
        <time>2022-09-13T12:15:57.000Z</time>
      </trkpt>
      <trkpt lat="49.42222" lon="5.75963">
        <ele>342.20001220703</ele>
        <time>2022-09-13T12:15:58.000Z</time>
      </trkpt>
      <trkpt lat="49.42222" lon="5.75966">
        <ele>342.39999389648</ele>
        <time>2022-09-13T12:15:59.000Z</time>
      </trkpt>
      <trkpt lat="49.42219" lon="5.75977">
        <ele>342.79998779297</ele>
        <time>2022-09-13T12:16:02.000Z</time>
      </trkpt>
      <trkpt lat="49.42218" lon="5.75984">
        <ele>342.79998779297</ele>
        <time>2022-09-13T12:16:03.000Z</time>
      </trkpt>
      <trkpt lat="49.42214" lon="5.76002">
        <ele>343</ele>
        <time>2022-09-13T12:16:05.000Z</time>
      </trkpt>
      <trkpt lat="49.42212" lon="5.76018">
        <ele>343.20001220703</ele>
        <time>2022-09-13T12:16:07.000Z</time>
      </trkpt>
      <trkpt lat="49.42212" lon="5.76022">
        <ele>343.39999389648</ele>
        <time>2022-09-13T12:16:08.000Z</time>
      </trkpt>
      <trkpt lat="49.42212" lon="5.76027">
        <ele>343.60000610352</ele>
        <time>2022-09-13T12:16:09.000Z</time>
      </trkpt>
      <trkpt lat="49.42212" lon="5.76033">
        <ele>343.60000610352</ele>
        <time>2022-09-13T12:16:10.000Z</time>
      </trkpt>
      <trkpt lat="49.42213" lon="5.7606">
        <ele>343.79998779297</ele>
        <time>2022-09-13T12:16:14.000Z</time>
      </trkpt>
      <trkpt lat="49.42213" lon="5.76074">
        <ele>343.79998779297</ele>
        <time>2022-09-13T12:16:15.000Z</time>
      </trkpt>
      <trkpt lat="49.42213" lon="5.76079">
        <ele>344</ele>
        <time>2022-09-13T12:16:16.000Z</time>
      </trkpt>
      <trkpt lat="49.42213" lon="5.76083">
        <ele>344</ele>
        <time>2022-09-13T12:16:17.000Z</time>
      </trkpt>
      <trkpt lat="49.42213" lon="5.7609">
        <ele>344.20001220703</ele>
        <time>2022-09-13T12:16:19.000Z</time>
      </trkpt>
      <trkpt lat="49.42212" lon="5.76098">
        <ele>344.20001220703</ele>
        <time>2022-09-13T12:16:21.000Z</time>
      </trkpt>
      <trkpt lat="49.4221" lon="5.76105">
        <ele>344.20001220703</ele>
        <time>2022-09-13T12:16:22.000Z</time>
      </trkpt>
      <trkpt lat="49.42209" lon="5.76111">
        <ele>344.20001220703</ele>
        <time>2022-09-13T12:16:23.000Z</time>
      </trkpt>
      <trkpt lat="49.42207" lon="5.76119">
        <ele>344.39999389648</ele>
        <time>2022-09-13T12:16:24.000Z</time>
      </trkpt>
      <trkpt lat="49.42206" lon="5.76126">
        <ele>344.39999389648</ele>
        <time>2022-09-13T12:16:25.000Z</time>
      </trkpt>
      <trkpt lat="49.42204" lon="5.76135">
        <ele>344.39999389648</ele>
        <time>2022-09-13T12:16:26.000Z</time>
      </trkpt>
      <trkpt lat="49.42202" lon="5.7615">
        <ele>344.39999389648</ele>
        <time>2022-09-13T12:16:29.000Z</time>
      </trkpt>
      <trkpt lat="49.42201" lon="5.76175">
        <ele>344.39999389648</ele>
        <time>2022-09-13T12:16:33.000Z</time>
      </trkpt>
      <trkpt lat="49.422" lon="5.76183">
        <ele>344.39999389648</ele>
        <time>2022-09-13T12:16:34.000Z</time>
      </trkpt>
      <trkpt lat="49.42201" lon="5.76196">
        <ele>344.39999389648</ele>
        <time>2022-09-13T12:16:36.000Z</time>
      </trkpt>
      <trkpt lat="49.42202" lon="5.76201">
        <ele>344.39999389648</ele>
        <time>2022-09-13T12:16:37.000Z</time>
      </trkpt>
      <trkpt lat="49.42204" lon="5.76206">
        <ele>344.20001220703</ele>
        <time>2022-09-13T12:16:38.000Z</time>
      </trkpt>
      <trkpt lat="49.42205" lon="5.76211">
        <ele>344.20001220703</ele>
        <time>2022-09-13T12:16:39.000Z</time>
      </trkpt>
      <trkpt lat="49.42207" lon="5.76214">
        <ele>344</ele>
        <time>2022-09-13T12:16:40.000Z</time>
      </trkpt>
      <trkpt lat="49.42209" lon="5.76215">
        <ele>344</ele>
        <time>2022-09-13T12:16:41.000Z</time>
      </trkpt>
      <trkpt lat="49.42213" lon="5.76216">
        <ele>344</ele>
        <time>2022-09-13T12:16:42.000Z</time>
      </trkpt>
      <trkpt lat="49.42216" lon="5.76218">
        <ele>343.79998779297</ele>
        <time>2022-09-13T12:16:43.000Z</time>
      </trkpt>
      <trkpt lat="49.42218" lon="5.76221">
        <ele>343.60000610352</ele>
        <time>2022-09-13T12:16:44.000Z</time>
      </trkpt>
      <trkpt lat="49.42219" lon="5.76224">
        <ele>343.60000610352</ele>
        <time>2022-09-13T12:16:45.000Z</time>
      </trkpt>
      <trkpt lat="49.42224" lon="5.76229">
        <ele>343.39999389648</ele>
        <time>2022-09-13T12:16:46.000Z</time>
      </trkpt>
      <trkpt lat="49.42227" lon="5.76231">
        <ele>343.39999389648</ele>
        <time>2022-09-13T12:16:47.000Z</time>
      </trkpt>
      <trkpt lat="49.42228" lon="5.76232">
        <ele>343.20001220703</ele>
        <time>2022-09-13T12:16:48.000Z</time>
      </trkpt>
      <trkpt lat="49.42229" lon="5.76231">
        <ele>343</ele>
        <time>2022-09-13T12:16:49.000Z</time>
      </trkpt>
      <trkpt lat="49.42232" lon="5.7623">
        <ele>342.60000610352</ele>
        <time>2022-09-13T12:16:50.000Z</time>
      </trkpt>
      <trkpt lat="49.42234" lon="5.76225">
        <ele>342.39999389648</ele>
        <time>2022-09-13T12:16:52.000Z</time>
      </trkpt>
      <trkpt lat="49.42236" lon="5.76222">
        <ele>342.20001220703</ele>
        <time>2022-09-13T12:16:53.000Z</time>
      </trkpt>
      <trkpt lat="49.42237" lon="5.76219">
        <ele>342.20001220703</ele>
        <time>2022-09-13T12:16:54.000Z</time>
      </trkpt>
      <trkpt lat="49.4224" lon="5.76214">
        <ele>342</ele>
        <time>2022-09-13T12:16:55.000Z</time>
      </trkpt>
      <trkpt lat="49.42242" lon="5.76205">
        <ele>342</ele>
        <time>2022-09-13T12:16:57.000Z</time>
      </trkpt>
      <trkpt lat="49.42244" lon="5.762">
        <ele>342</ele>
        <time>2022-09-13T12:16:58.000Z</time>
      </trkpt>
      <trkpt lat="49.42245" lon="5.76196">
        <ele>342</ele>
        <time>2022-09-13T12:16:59.000Z</time>
      </trkpt>
      <trkpt lat="49.42246" lon="5.76191">
        <ele>342</ele>
        <time>2022-09-13T12:17:00.000Z</time>
      </trkpt>
      <trkpt lat="49.42252" lon="5.76176">
        <ele>342</ele>
        <time>2022-09-13T12:17:03.000Z</time>
      </trkpt>
      <trkpt lat="49.42265" lon="5.76142">
        <ele>342</ele>
        <time>2022-09-13T12:17:09.000Z</time>
      </trkpt>
      <trkpt lat="49.42267" lon="5.76128">
        <ele>342</ele>
        <time>2022-09-13T12:17:12.000Z</time>
      </trkpt>
      <trkpt lat="49.4227" lon="5.7612">
        <ele>342</ele>
        <time>2022-09-13T12:17:13.000Z</time>
      </trkpt>
      <trkpt lat="49.42273" lon="5.76106">
        <ele>342</ele>
        <time>2022-09-13T12:17:15.000Z</time>
      </trkpt>
      <trkpt lat="49.42275" lon="5.76096">
        <ele>342</ele>
        <time>2022-09-13T12:17:17.000Z</time>
      </trkpt>
      <trkpt lat="49.42278" lon="5.7609">
        <ele>342</ele>
        <time>2022-09-13T12:17:18.000Z</time>
      </trkpt>
      <trkpt lat="49.42282" lon="5.76081">
        <ele>341.79998779297</ele>
        <time>2022-09-13T12:17:19.000Z</time>
      </trkpt>
      <trkpt lat="49.42287" lon="5.76068">
        <ele>341.79998779297</ele>
        <time>2022-09-13T12:17:21.000Z</time>
      </trkpt>
      <trkpt lat="49.42289" lon="5.76063">
        <ele>341.79998779297</ele>
        <time>2022-09-13T12:17:22.000Z</time>
      </trkpt>
      <trkpt lat="49.42291" lon="5.7606">
        <ele>341.79998779297</ele>
        <time>2022-09-13T12:17:23.000Z</time>
      </trkpt>
      <trkpt lat="49.42293" lon="5.76057">
        <ele>341.60000610352</ele>
        <time>2022-09-13T12:17:24.000Z</time>
      </trkpt>
      <trkpt lat="49.42296" lon="5.76057">
        <ele>341.39999389648</ele>
        <time>2022-09-13T12:17:25.000Z</time>
      </trkpt>
      <trkpt lat="49.42298" lon="5.76058">
        <ele>341.39999389648</ele>
        <time>2022-09-13T12:17:26.000Z</time>
      </trkpt>
      <trkpt lat="49.423" lon="5.76059">
        <ele>341.60000610352</ele>
        <time>2022-09-13T12:17:27.000Z</time>
      </trkpt>
      <trkpt lat="49.42301" lon="5.76061">
        <ele>341.60000610352</ele>
        <time>2022-09-13T12:17:28.000Z</time>
      </trkpt>
      <trkpt lat="49.42302" lon="5.76063">
        <ele>341.60000610352</ele>
        <time>2022-09-13T12:17:29.000Z</time>
      </trkpt>
      <trkpt lat="49.42302" lon="5.76066">
        <ele>341.60000610352</ele>
        <time>2022-09-13T12:17:30.000Z</time>
      </trkpt>
      <trkpt lat="49.42303" lon="5.76069">
        <ele>341.39999389648</ele>
        <time>2022-09-13T12:17:31.000Z</time>
      </trkpt>
      <trkpt lat="49.42304" lon="5.76073">
        <ele>341.39999389648</ele>
        <time>2022-09-13T12:17:32.000Z</time>
      </trkpt>
      <trkpt lat="49.42307" lon="5.76086">
        <ele>341.20001220703</ele>
        <time>2022-09-13T12:17:35.000Z</time>
      </trkpt>
      <trkpt lat="49.42314" lon="5.76101">
        <ele>340.60000610352</ele>
        <time>2022-09-13T12:17:38.000Z</time>
      </trkpt>
      <trkpt lat="49.42317" lon="5.76106">
        <ele>340.60000610352</ele>
        <time>2022-09-13T12:17:39.000Z</time>
      </trkpt>
      <trkpt lat="49.42319" lon="5.76111">
        <ele>340.39999389648</ele>
        <time>2022-09-13T12:17:40.000Z</time>
      </trkpt>
      <trkpt lat="49.42321" lon="5.7612">
        <ele>340.20001220703</ele>
        <time>2022-09-13T12:17:42.000Z</time>
      </trkpt>
      <trkpt lat="49.42323" lon="5.76125">
        <ele>340</ele>
        <time>2022-09-13T12:17:43.000Z</time>
      </trkpt>
      <trkpt lat="49.42334" lon="5.76141">
        <ele>340</ele>
        <time>2022-09-13T12:17:46.000Z</time>
      </trkpt>
      <trkpt lat="49.42338" lon="5.76147">
        <ele>340</ele>
        <time>2022-09-13T12:17:47.000Z</time>
      </trkpt>
      <trkpt lat="49.42346" lon="5.76165">
        <ele>339.39999389648</ele>
        <time>2022-09-13T12:17:50.000Z</time>
      </trkpt>
      <trkpt lat="49.42349" lon="5.76172">
        <ele>339.39999389648</ele>
        <time>2022-09-13T12:17:51.000Z</time>
      </trkpt>
      <trkpt lat="49.42353" lon="5.76179">
        <ele>339</ele>
        <time>2022-09-13T12:17:52.000Z</time>
      </trkpt>
      <trkpt lat="49.42363" lon="5.76199">
        <ele>338.20001220703</ele>
        <time>2022-09-13T12:17:55.000Z</time>
      </trkpt>
      <trkpt lat="49.42366" lon="5.76206">
        <ele>337.79998779297</ele>
        <time>2022-09-13T12:17:56.000Z</time>
      </trkpt>
      <trkpt lat="49.4238" lon="5.76236">
        <ele>337</ele>
        <time>2022-09-13T12:18:00.000Z</time>
      </trkpt>
      <trkpt lat="49.42382" lon="5.76243">
        <ele>336.60000610352</ele>
        <time>2022-09-13T12:18:01.000Z</time>
      </trkpt>
      <trkpt lat="49.42384" lon="5.7625">
        <ele>336.20001220703</ele>
        <time>2022-09-13T12:18:02.000Z</time>
      </trkpt>
      <trkpt lat="49.42386" lon="5.76258">
        <ele>335.60000610352</ele>
        <time>2022-09-13T12:18:03.000Z</time>
      </trkpt>
      <trkpt lat="49.42397" lon="5.76278">
        <ele>333.60000610352</ele>
        <time>2022-09-13T12:18:06.000Z</time>
      </trkpt>
      <trkpt lat="49.424" lon="5.76282">
        <ele>333.20001220703</ele>
        <time>2022-09-13T12:18:07.000Z</time>
      </trkpt>
      <trkpt lat="49.42402" lon="5.76285">
        <ele>331.60000610352</ele>
        <time>2022-09-13T12:18:08.000Z</time>
      </trkpt>
      <trkpt lat="49.42402" lon="5.76286">
        <ele>330.60000610352</ele>
        <time>2022-09-13T12:18:09.000Z</time>
      </trkpt>
      <trkpt lat="49.42403" lon="5.76287">
        <ele>330.20001220703</ele>
        <time>2022-09-13T12:18:10.000Z</time>
      </trkpt>
      <trkpt lat="49.42407" lon="5.76286">
        <ele>329.79998779297</ele>
        <time>2022-09-13T12:18:11.000Z</time>
      </trkpt>
      <trkpt lat="49.42413" lon="5.76285">
        <ele>329.60000610352</ele>
        <time>2022-09-13T12:18:12.000Z</time>
      </trkpt>
      <trkpt lat="49.42418" lon="5.76285">
        <ele>329.20001220703</ele>
        <time>2022-09-13T12:18:13.000Z</time>
      </trkpt>
      <trkpt lat="49.42421" lon="5.76283">
        <ele>329</ele>
        <time>2022-09-13T12:18:14.000Z</time>
      </trkpt>
      <trkpt lat="49.42425" lon="5.76281">
        <ele>328</ele>
        <time>2022-09-13T12:18:15.000Z</time>
      </trkpt>
      <trkpt lat="49.42435" lon="5.76276">
        <ele>327</ele>
        <time>2022-09-13T12:18:17.000Z</time>
      </trkpt>
      <trkpt lat="49.42444" lon="5.7627">
        <ele>325.79998779297</ele>
        <time>2022-09-13T12:18:19.000Z</time>
      </trkpt>
      <trkpt lat="49.42448" lon="5.76267">
        <ele>325</ele>
        <time>2022-09-13T12:18:20.000Z</time>
      </trkpt>
      <trkpt lat="49.42453" lon="5.76265">
        <ele>324.79998779297</ele>
        <time>2022-09-13T12:18:21.000Z</time>
      </trkpt>
      <trkpt lat="49.42457" lon="5.76261">
        <ele>324</ele>
        <time>2022-09-13T12:18:22.000Z</time>
      </trkpt>
      <trkpt lat="49.4246" lon="5.76255">
        <ele>323.39999389648</ele>
        <time>2022-09-13T12:18:23.000Z</time>
      </trkpt>
      <trkpt lat="49.42462" lon="5.76252">
        <ele>323</ele>
        <time>2022-09-13T12:18:24.000Z</time>
      </trkpt>
      <trkpt lat="49.42471" lon="5.76241">
        <ele>321.79998779297</ele>
        <time>2022-09-13T12:18:27.000Z</time>
      </trkpt>
      <trkpt lat="49.42477" lon="5.76232">
        <ele>320.79998779297</ele>
        <time>2022-09-13T12:18:29.000Z</time>
      </trkpt>
      <trkpt lat="49.42479" lon="5.76228">
        <ele>319.79998779297</ele>
        <time>2022-09-13T12:18:30.000Z</time>
      </trkpt>
      <trkpt lat="49.42482" lon="5.76222">
        <ele>319</ele>
        <time>2022-09-13T12:18:31.000Z</time>
      </trkpt>
      <trkpt lat="49.42484" lon="5.76216">
        <ele>318</ele>
        <time>2022-09-13T12:18:32.000Z</time>
      </trkpt>
      <trkpt lat="49.42485" lon="5.76211">
        <ele>317.60000610352</ele>
        <time>2022-09-13T12:18:33.000Z</time>
      </trkpt>
      <trkpt lat="49.42488" lon="5.76206">
        <ele>317</ele>
        <time>2022-09-13T12:18:34.000Z</time>
      </trkpt>
      <trkpt lat="49.42489" lon="5.76201">
        <ele>316.79998779297</ele>
        <time>2022-09-13T12:18:35.000Z</time>
      </trkpt>
      <trkpt lat="49.42491" lon="5.76197">
        <ele>316.20001220703</ele>
        <time>2022-09-13T12:18:36.000Z</time>
      </trkpt>
      <trkpt lat="49.42494" lon="5.76185">
        <ele>315.20001220703</ele>
        <time>2022-09-13T12:18:38.000Z</time>
      </trkpt>
      <trkpt lat="49.42495" lon="5.76171">
        <ele>313.79998779297</ele>
        <time>2022-09-13T12:18:40.000Z</time>
      </trkpt>
      <trkpt lat="49.425" lon="5.76158">
        <ele>313</ele>
        <time>2022-09-13T12:18:42.000Z</time>
      </trkpt>
      <trkpt lat="49.42504" lon="5.76154">
        <ele>312</ele>
        <time>2022-09-13T12:18:43.000Z</time>
      </trkpt>
      <trkpt lat="49.42508" lon="5.76154">
        <ele>311.79998779297</ele>
        <time>2022-09-13T12:18:44.000Z</time>
      </trkpt>
      <trkpt lat="49.42511" lon="5.76154">
        <ele>310.20001220703</ele>
        <time>2022-09-13T12:18:45.000Z</time>
      </trkpt>
      <trkpt lat="49.42513" lon="5.76155">
        <ele>309.20001220703</ele>
        <time>2022-09-13T12:18:46.000Z</time>
      </trkpt>
      <trkpt lat="49.42517" lon="5.76155">
        <ele>308.60000610352</ele>
        <time>2022-09-13T12:18:47.000Z</time>
      </trkpt>
      <trkpt lat="49.42521" lon="5.76155">
        <ele>307.39999389648</ele>
        <time>2022-09-13T12:18:48.000Z</time>
      </trkpt>
      <trkpt lat="49.42524" lon="5.76156">
        <ele>307.20001220703</ele>
        <time>2022-09-13T12:18:49.000Z</time>
      </trkpt>
      <trkpt lat="49.42526" lon="5.76157">
        <ele>306</ele>
        <time>2022-09-13T12:18:50.000Z</time>
      </trkpt>
      <trkpt lat="49.42531" lon="5.76157">
        <ele>304.20001220703</ele>
        <time>2022-09-13T12:18:52.000Z</time>
      </trkpt>
      <trkpt lat="49.42532" lon="5.76157">
        <ele>303.79998779297</ele>
        <time>2022-09-13T12:18:53.000Z</time>
      </trkpt>
      <trkpt lat="49.42534" lon="5.76158">
        <ele>303.20001220703</ele>
        <time>2022-09-13T12:18:54.000Z</time>
      </trkpt>
      <trkpt lat="49.42536" lon="5.76158">
        <ele>302</ele>
        <time>2022-09-13T12:18:55.000Z</time>
      </trkpt>
      <trkpt lat="49.42537" lon="5.76158">
        <ele>301.60000610352</ele>
        <time>2022-09-13T12:18:56.000Z</time>
      </trkpt>
      <trkpt lat="49.42539" lon="5.7616">
        <ele>300.60000610352</ele>
        <time>2022-09-13T12:18:57.000Z</time>
      </trkpt>
      <trkpt lat="49.4254" lon="5.7616">
        <ele>300.39999389648</ele>
        <time>2022-09-13T12:18:58.000Z</time>
      </trkpt>
      <trkpt lat="49.42543" lon="5.76162">
        <ele>299.79998779297</ele>
        <time>2022-09-13T12:18:59.000Z</time>
      </trkpt>
      <trkpt lat="49.42546" lon="5.76165">
        <ele>299.60000610352</ele>
        <time>2022-09-13T12:19:00.000Z</time>
      </trkpt>
      <trkpt lat="49.42551" lon="5.76169">
        <ele>298.39999389648</ele>
        <time>2022-09-13T12:19:02.000Z</time>
      </trkpt>
      <trkpt lat="49.42553" lon="5.7617">
        <ele>298.20001220703</ele>
        <time>2022-09-13T12:19:03.000Z</time>
      </trkpt>
      <trkpt lat="49.42555" lon="5.76172">
        <ele>297.60000610352</ele>
        <time>2022-09-13T12:19:04.000Z</time>
      </trkpt>
      <trkpt lat="49.42557" lon="5.76175">
        <ele>297.39999389648</ele>
        <time>2022-09-13T12:19:05.000Z</time>
      </trkpt>
      <trkpt lat="49.42561" lon="5.76179">
        <ele>297</ele>
        <time>2022-09-13T12:19:06.000Z</time>
      </trkpt>
      <trkpt lat="49.42566" lon="5.76185">
        <ele>295.60000610352</ele>
        <time>2022-09-13T12:19:08.000Z</time>
      </trkpt>
      <trkpt lat="49.42573" lon="5.76194">
        <ele>294.20001220703</ele>
        <time>2022-09-13T12:19:10.000Z</time>
      </trkpt>
      <trkpt lat="49.42577" lon="5.76198">
        <ele>293.39999389648</ele>
        <time>2022-09-13T12:19:11.000Z</time>
      </trkpt>
      <trkpt lat="49.4258" lon="5.762">
        <ele>293</ele>
        <time>2022-09-13T12:19:12.000Z</time>
      </trkpt>
      <trkpt lat="49.42583" lon="5.76202">
        <ele>292.20001220703</ele>
        <time>2022-09-13T12:19:13.000Z</time>
      </trkpt>
      <trkpt lat="49.42586" lon="5.76205">
        <ele>291.79998779297</ele>
        <time>2022-09-13T12:19:14.000Z</time>
      </trkpt>
      <trkpt lat="49.42589" lon="5.76208">
        <ele>291</ele>
        <time>2022-09-13T12:19:15.000Z</time>
      </trkpt>
      <trkpt lat="49.42592" lon="5.76211">
        <ele>290</ele>
        <time>2022-09-13T12:19:16.000Z</time>
      </trkpt>
      <trkpt lat="49.42595" lon="5.76214">
        <ele>288.79998779297</ele>
        <time>2022-09-13T12:19:17.000Z</time>
      </trkpt>
      <trkpt lat="49.42606" lon="5.76219">
        <ele>287.39999389648</ele>
        <time>2022-09-13T12:19:19.000Z</time>
      </trkpt>
      <trkpt lat="49.42612" lon="5.7622">
        <ele>286.60000610352</ele>
        <time>2022-09-13T12:19:20.000Z</time>
      </trkpt>
      <trkpt lat="49.42618" lon="5.7622">
        <ele>286.20001220703</ele>
        <time>2022-09-13T12:19:21.000Z</time>
      </trkpt>
      <trkpt lat="49.42626" lon="5.76219">
        <ele>285.20001220703</ele>
        <time>2022-09-13T12:19:23.000Z</time>
      </trkpt>
      <trkpt lat="49.42642" lon="5.76215">
        <ele>283.20001220703</ele>
        <time>2022-09-13T12:19:25.000Z</time>
      </trkpt>
      <trkpt lat="49.42648" lon="5.76208">
        <ele>282.20001220703</ele>
        <time>2022-09-13T12:19:27.000Z</time>
      </trkpt>
      <trkpt lat="49.4265" lon="5.76202">
        <ele>281.79998779297</ele>
        <time>2022-09-13T12:19:28.000Z</time>
      </trkpt>
      <trkpt lat="49.42652" lon="5.76195">
        <ele>280.79998779297</ele>
        <time>2022-09-13T12:19:29.000Z</time>
      </trkpt>
      <trkpt lat="49.42653" lon="5.76189">
        <ele>280.39999389648</ele>
        <time>2022-09-13T12:19:30.000Z</time>
      </trkpt>
      <trkpt lat="49.42653" lon="5.76182">
        <ele>279.60000610352</ele>
        <time>2022-09-13T12:19:31.000Z</time>
      </trkpt>
      <trkpt lat="49.42652" lon="5.76175">
        <ele>278.79998779297</ele>
        <time>2022-09-13T12:19:32.000Z</time>
      </trkpt>
      <trkpt lat="49.42649" lon="5.76167">
        <ele>278.39999389648</ele>
        <time>2022-09-13T12:19:33.000Z</time>
      </trkpt>
      <trkpt lat="49.42646" lon="5.76159">
        <ele>278</ele>
        <time>2022-09-13T12:19:34.000Z</time>
      </trkpt>
      <trkpt lat="49.42641" lon="5.76149">
        <ele>277.79998779297</ele>
        <time>2022-09-13T12:19:35.000Z</time>
      </trkpt>
      <trkpt lat="49.42636" lon="5.76142">
        <ele>277.20001220703</ele>
        <time>2022-09-13T12:19:36.000Z</time>
      </trkpt>
      <trkpt lat="49.42631" lon="5.76134">
        <ele>277.20001220703</ele>
        <time>2022-09-13T12:19:37.000Z</time>
      </trkpt>
      <trkpt lat="49.42622" lon="5.76121">
        <ele>275.79998779297</ele>
        <time>2022-09-13T12:19:39.000Z</time>
      </trkpt>
      <trkpt lat="49.42619" lon="5.76114">
        <ele>275.39999389648</ele>
        <time>2022-09-13T12:19:40.000Z</time>
      </trkpt>
      <trkpt lat="49.42615" lon="5.76108">
        <ele>274.79998779297</ele>
        <time>2022-09-13T12:19:41.000Z</time>
      </trkpt>
      <trkpt lat="49.42613" lon="5.76103">
        <ele>274.60000610352</ele>
        <time>2022-09-13T12:19:42.000Z</time>
      </trkpt>
      <trkpt lat="49.42612" lon="5.76098">
        <ele>274.39999389648</ele>
        <time>2022-09-13T12:19:43.000Z</time>
      </trkpt>
      <trkpt lat="49.42611" lon="5.76096">
        <ele>274.39999389648</ele>
        <time>2022-09-13T12:19:44.000Z</time>
      </trkpt>
      <trkpt lat="49.4261" lon="5.76092">
        <ele>274</ele>
        <time>2022-09-13T12:19:45.000Z</time>
      </trkpt>
      <trkpt lat="49.4261" lon="5.7609">
        <ele>273.60000610352</ele>
        <time>2022-09-13T12:19:46.000Z</time>
      </trkpt>
      <trkpt lat="49.42611" lon="5.76088">
        <ele>273.20001220703</ele>
        <time>2022-09-13T12:19:47.000Z</time>
      </trkpt>
      <trkpt lat="49.42613" lon="5.76087">
        <ele>273</ele>
        <time>2022-09-13T12:19:48.000Z</time>
      </trkpt>
      <trkpt lat="49.42615" lon="5.76086">
        <ele>273</ele>
        <time>2022-09-13T12:19:49.000Z</time>
      </trkpt>
      <trkpt lat="49.42618" lon="5.76085">
        <ele>272.79998779297</ele>
        <time>2022-09-13T12:19:50.000Z</time>
      </trkpt>
      <trkpt lat="49.42622" lon="5.76088">
        <ele>272.60000610352</ele>
        <time>2022-09-13T12:19:52.000Z</time>
      </trkpt>
      <trkpt lat="49.42623" lon="5.76089">
        <ele>272.39999389648</ele>
        <time>2022-09-13T12:19:53.000Z</time>
      </trkpt>
      <trkpt lat="49.42624" lon="5.76089">
        <ele>272.20001220703</ele>
        <time>2022-09-13T12:19:54.000Z</time>
      </trkpt>
      <trkpt lat="49.42625" lon="5.7609">
        <ele>271.79998779297</ele>
        <time>2022-09-13T12:19:55.000Z</time>
      </trkpt>
      <trkpt lat="49.42634" lon="5.76093">
        <ele>271.60000610352</ele>
        <time>2022-09-13T12:20:00.000Z</time>
      </trkpt>
      <trkpt lat="49.42634" lon="5.76093">
        <ele>271.60000610352</ele>
        <time>2022-09-13T12:20:01.000Z</time>
      </trkpt>
      <trkpt lat="49.42635" lon="5.76093">
        <ele>271.60000610352</ele>
        <time>2022-09-13T12:20:02.000Z</time>
      </trkpt>
      <trkpt lat="49.42637" lon="5.76093">
        <ele>271.60000610352</ele>
        <time>2022-09-13T12:20:03.000Z</time>
      </trkpt>
      <trkpt lat="49.4264" lon="5.76095">
        <ele>271.79998779297</ele>
        <time>2022-09-13T12:20:05.000Z</time>
      </trkpt>
      <trkpt lat="49.42642" lon="5.76096">
        <ele>272</ele>
        <time>2022-09-13T12:20:06.000Z</time>
      </trkpt>
      <trkpt lat="49.42644" lon="5.76097">
        <ele>272</ele>
        <time>2022-09-13T12:20:07.000Z</time>
      </trkpt>
      <trkpt lat="49.42646" lon="5.76097">
        <ele>272.20001220703</ele>
        <time>2022-09-13T12:20:08.000Z</time>
      </trkpt>
      <trkpt lat="49.42649" lon="5.76099">
        <ele>272.39999389648</ele>
        <time>2022-09-13T12:20:10.000Z</time>
      </trkpt>
      <trkpt lat="49.4265" lon="5.76099">
        <ele>272.39999389648</ele>
        <time>2022-09-13T12:20:11.000Z</time>
      </trkpt>
      <trkpt lat="49.42651" lon="5.761">
        <ele>272.39999389648</ele>
        <time>2022-09-13T12:20:12.000Z</time>
      </trkpt>
      <trkpt lat="49.42651" lon="5.761">
        <ele>272.39999389648</ele>
        <time>2022-09-13T12:20:13.000Z</time>
      </trkpt>
      <trkpt lat="49.42651" lon="5.761">
        <ele>272.39999389648</ele>
        <time>2022-09-13T12:20:14.000Z</time>
      </trkpt>
      <trkpt lat="49.42655" lon="5.76105">
        <ele>272.60000610352</ele>
        <time>2022-09-13T12:20:16.000Z</time>
      </trkpt>
      <trkpt lat="49.42657" lon="5.76108">
        <ele>272.60000610352</ele>
        <time>2022-09-13T12:20:17.000Z</time>
      </trkpt>
      <trkpt lat="49.4266" lon="5.76113">
        <ele>272.79998779297</ele>
        <time>2022-09-13T12:20:18.000Z</time>
      </trkpt>
      <trkpt lat="49.42662" lon="5.76115">
        <ele>272.79998779297</ele>
        <time>2022-09-13T12:20:19.000Z</time>
      </trkpt>
      <trkpt lat="49.42666" lon="5.76119">
        <ele>273</ele>
        <time>2022-09-13T12:20:20.000Z</time>
      </trkpt>
      <trkpt lat="49.42671" lon="5.76124">
        <ele>273</ele>
        <time>2022-09-13T12:20:22.000Z</time>
      </trkpt>
      <trkpt lat="49.42672" lon="5.76128">
        <ele>273</ele>
        <time>2022-09-13T12:20:23.000Z</time>
      </trkpt>
      <trkpt lat="49.42674" lon="5.76132">
        <ele>273</ele>
        <time>2022-09-13T12:20:24.000Z</time>
      </trkpt>
      <trkpt lat="49.42675" lon="5.76137">
        <ele>273.20001220703</ele>
        <time>2022-09-13T12:20:25.000Z</time>
      </trkpt>
      <trkpt lat="49.42686" lon="5.7615">
        <ele>273.60000610352</ele>
        <time>2022-09-13T12:20:28.000Z</time>
      </trkpt>
      <trkpt lat="49.42689" lon="5.76153">
        <ele>273.60000610352</ele>
        <time>2022-09-13T12:20:29.000Z</time>
      </trkpt>
      <trkpt lat="49.42691" lon="5.76155">
        <ele>273.60000610352</ele>
        <time>2022-09-13T12:20:30.000Z</time>
      </trkpt>
      <trkpt lat="49.42697" lon="5.76161">
        <ele>273.60000610352</ele>
        <time>2022-09-13T12:20:32.000Z</time>
      </trkpt>
      <trkpt lat="49.42707" lon="5.76174">
        <ele>273.60000610352</ele>
        <time>2022-09-13T12:20:35.000Z</time>
      </trkpt>
      <trkpt lat="49.42711" lon="5.7618">
        <ele>273.60000610352</ele>
        <time>2022-09-13T12:20:36.000Z</time>
      </trkpt>
      <trkpt lat="49.42715" lon="5.76184">
        <ele>273.60000610352</ele>
        <time>2022-09-13T12:20:37.000Z</time>
      </trkpt>
      <trkpt lat="49.42717" lon="5.76188">
        <ele>273.79998779297</ele>
        <time>2022-09-13T12:20:38.000Z</time>
      </trkpt>
      <trkpt lat="49.42718" lon="5.76192">
        <ele>273.79998779297</ele>
        <time>2022-09-13T12:20:39.000Z</time>
      </trkpt>
      <trkpt lat="49.42719" lon="5.76196">
        <ele>274</ele>
        <time>2022-09-13T12:20:40.000Z</time>
      </trkpt>
      <trkpt lat="49.42723" lon="5.76201">
        <ele>274</ele>
        <time>2022-09-13T12:20:41.000Z</time>
      </trkpt>
      <trkpt lat="49.42726" lon="5.7621">
        <ele>274.20001220703</ele>
        <time>2022-09-13T12:20:43.000Z</time>
      </trkpt>
      <trkpt lat="49.42731" lon="5.76214">
        <ele>274.39999389648</ele>
        <time>2022-09-13T12:20:44.000Z</time>
      </trkpt>
      <trkpt lat="49.42734" lon="5.76217">
        <ele>274.39999389648</ele>
        <time>2022-09-13T12:20:45.000Z</time>
      </trkpt>
      <trkpt lat="49.42736" lon="5.7622">
        <ele>274.60000610352</ele>
        <time>2022-09-13T12:20:46.000Z</time>
      </trkpt>
      <trkpt lat="49.42736" lon="5.76222">
        <ele>274.79998779297</ele>
        <time>2022-09-13T12:20:47.000Z</time>
      </trkpt>
      <trkpt lat="49.42737" lon="5.76223">
        <ele>275</ele>
        <time>2022-09-13T12:20:48.000Z</time>
      </trkpt>
      <trkpt lat="49.42737" lon="5.76226">
        <ele>275.20001220703</ele>
        <time>2022-09-13T12:20:49.000Z</time>
      </trkpt>
      <trkpt lat="49.42737" lon="5.76229">
        <ele>275.60000610352</ele>
        <time>2022-09-13T12:20:50.000Z</time>
      </trkpt>
      <trkpt lat="49.42737" lon="5.76234">
        <ele>275.79998779297</ele>
        <time>2022-09-13T12:20:51.000Z</time>
      </trkpt>
      <trkpt lat="49.42738" lon="5.76239">
        <ele>276</ele>
        <time>2022-09-13T12:20:52.000Z</time>
      </trkpt>
      <trkpt lat="49.42738" lon="5.76245">
        <ele>276</ele>
        <time>2022-09-13T12:20:53.000Z</time>
      </trkpt>
      <trkpt lat="49.42738" lon="5.76254">
        <ele>276.20001220703</ele>
        <time>2022-09-13T12:20:55.000Z</time>
      </trkpt>
      <trkpt lat="49.42738" lon="5.76259">
        <ele>276.39999389648</ele>
        <time>2022-09-13T12:20:56.000Z</time>
      </trkpt>
      <trkpt lat="49.42738" lon="5.76266">
        <ele>276.39999389648</ele>
        <time>2022-09-13T12:20:57.000Z</time>
      </trkpt>
      <trkpt lat="49.42738" lon="5.76272">
        <ele>276.39999389648</ele>
        <time>2022-09-13T12:20:58.000Z</time>
      </trkpt>
      <trkpt lat="49.42738" lon="5.76276">
        <ele>276.39999389648</ele>
        <time>2022-09-13T12:20:59.000Z</time>
      </trkpt>
      <trkpt lat="49.42739" lon="5.76279">
        <ele>276.39999389648</ele>
        <time>2022-09-13T12:21:00.000Z</time>
      </trkpt>
      <trkpt lat="49.4274" lon="5.76282">
        <ele>276</ele>
        <time>2022-09-13T12:21:01.000Z</time>
      </trkpt>
      <trkpt lat="49.4274" lon="5.76284">
        <ele>276.20001220703</ele>
        <time>2022-09-13T12:21:02.000Z</time>
      </trkpt>
      <trkpt lat="49.4274" lon="5.76288">
        <ele>276.20001220703</ele>
        <time>2022-09-13T12:21:03.000Z</time>
      </trkpt>
      <trkpt lat="49.4274" lon="5.76291">
        <ele>276</ele>
        <time>2022-09-13T12:21:04.000Z</time>
      </trkpt>
      <trkpt lat="49.42739" lon="5.76295">
        <ele>276.20001220703</ele>
        <time>2022-09-13T12:21:05.000Z</time>
      </trkpt>
      <trkpt lat="49.42737" lon="5.76301">
        <ele>276.39999389648</ele>
        <time>2022-09-13T12:21:06.000Z</time>
      </trkpt>
      <trkpt lat="49.42735" lon="5.76313">
        <ele>276.39999389648</ele>
        <time>2022-09-13T12:21:08.000Z</time>
      </trkpt>
      <trkpt lat="49.42734" lon="5.76318">
        <ele>276.39999389648</ele>
        <time>2022-09-13T12:21:09.000Z</time>
      </trkpt>
      <trkpt lat="49.42731" lon="5.76329">
        <ele>276.39999389648</ele>
        <time>2022-09-13T12:21:12.000Z</time>
      </trkpt>
      <trkpt lat="49.4273" lon="5.76331">
        <ele>276.60000610352</ele>
        <time>2022-09-13T12:21:13.000Z</time>
      </trkpt>
      <trkpt lat="49.42729" lon="5.76333">
        <ele>276.60000610352</ele>
        <time>2022-09-13T12:21:14.000Z</time>
      </trkpt>
      <trkpt lat="49.42729" lon="5.76335">
        <ele>276.60000610352</ele>
        <time>2022-09-13T12:21:15.000Z</time>
      </trkpt>
      <trkpt lat="49.42727" lon="5.76338">
        <ele>276.60000610352</ele>
        <time>2022-09-13T12:21:16.000Z</time>
      </trkpt>
      <trkpt lat="49.42724" lon="5.76342">
        <ele>276.60000610352</ele>
        <time>2022-09-13T12:21:17.000Z</time>
      </trkpt>
      <trkpt lat="49.42722" lon="5.76344">
        <ele>276.79998779297</ele>
        <time>2022-09-13T12:21:18.000Z</time>
      </trkpt>
      <trkpt lat="49.42721" lon="5.76346">
        <ele>277</ele>
        <time>2022-09-13T12:21:19.000Z</time>
      </trkpt>
      <trkpt lat="49.42719" lon="5.76349">
        <ele>277.20001220703</ele>
        <time>2022-09-13T12:21:20.000Z</time>
      </trkpt>
      <trkpt lat="49.42718" lon="5.76353">
        <ele>277.39999389648</ele>
        <time>2022-09-13T12:21:21.000Z</time>
      </trkpt>
      <trkpt lat="49.42716" lon="5.76356">
        <ele>277.79998779297</ele>
        <time>2022-09-13T12:21:22.000Z</time>
      </trkpt>
      <trkpt lat="49.42715" lon="5.76357">
        <ele>277.79998779297</ele>
        <time>2022-09-13T12:21:23.000Z</time>
      </trkpt>
      <trkpt lat="49.42715" lon="5.76358">
        <ele>278</ele>
        <time>2022-09-13T12:21:24.000Z</time>
      </trkpt>
      <trkpt lat="49.42713" lon="5.7636">
        <ele>278.20001220703</ele>
        <time>2022-09-13T12:21:25.000Z</time>
      </trkpt>
      <trkpt lat="49.42712" lon="5.76364">
        <ele>278.60000610352</ele>
        <time>2022-09-13T12:21:26.000Z</time>
      </trkpt>
      <trkpt lat="49.42712" lon="5.76371">
        <ele>279.20001220703</ele>
        <time>2022-09-13T12:21:28.000Z</time>
      </trkpt>
      <trkpt lat="49.42712" lon="5.76371">
        <ele>279.60000610352</ele>
        <time>2022-09-13T12:21:29.000Z</time>
      </trkpt>
      <trkpt lat="49.42709" lon="5.76374">
        <ele>279.79998779297</ele>
        <time>2022-09-13T12:21:30.000Z</time>
      </trkpt>
      <trkpt lat="49.42707" lon="5.76379">
        <ele>280.20001220703</ele>
        <time>2022-09-13T12:21:31.000Z</time>
      </trkpt>
      <trkpt lat="49.42705" lon="5.76383">
        <ele>280.39999389648</ele>
        <time>2022-09-13T12:21:32.000Z</time>
      </trkpt>
      <trkpt lat="49.42704" lon="5.7639">
        <ele>280.79998779297</ele>
        <time>2022-09-13T12:21:33.000Z</time>
      </trkpt>
      <trkpt lat="49.42703" lon="5.76393">
        <ele>281</ele>
        <time>2022-09-13T12:21:34.000Z</time>
      </trkpt>
      <trkpt lat="49.42704" lon="5.76394">
        <ele>281.20001220703</ele>
        <time>2022-09-13T12:21:35.000Z</time>
      </trkpt>
      <trkpt lat="49.42702" lon="5.76394">
        <ele>282</ele>
        <time>2022-09-13T12:21:36.000Z</time>
      </trkpt>
      <trkpt lat="49.42701" lon="5.76396">
        <ele>282.39999389648</ele>
        <time>2022-09-13T12:21:37.000Z</time>
      </trkpt>
      <trkpt lat="49.42699" lon="5.76397">
        <ele>283.39999389648</ele>
        <time>2022-09-13T12:21:38.000Z</time>
      </trkpt>
      <trkpt lat="49.42696" lon="5.76398">
        <ele>283.79998779297</ele>
        <time>2022-09-13T12:21:39.000Z</time>
      </trkpt>
      <trkpt lat="49.42694" lon="5.76401">
        <ele>284.39999389648</ele>
        <time>2022-09-13T12:21:40.000Z</time>
      </trkpt>
      <trkpt lat="49.42691" lon="5.76402">
        <ele>284.60000610352</ele>
        <time>2022-09-13T12:21:41.000Z</time>
      </trkpt>
      <trkpt lat="49.42688" lon="5.76404">
        <ele>284.79998779297</ele>
        <time>2022-09-13T12:21:42.000Z</time>
      </trkpt>
      <trkpt lat="49.42687" lon="5.76408">
        <ele>285</ele>
        <time>2022-09-13T12:21:43.000Z</time>
      </trkpt>
      <trkpt lat="49.42685" lon="5.76412">
        <ele>285.20001220703</ele>
        <time>2022-09-13T12:21:44.000Z</time>
      </trkpt>
      <trkpt lat="49.42684" lon="5.76416">
        <ele>285.39999389648</ele>
        <time>2022-09-13T12:21:45.000Z</time>
      </trkpt>
      <trkpt lat="49.42682" lon="5.76418">
        <ele>285.60000610352</ele>
        <time>2022-09-13T12:21:46.000Z</time>
      </trkpt>
      <trkpt lat="49.4268" lon="5.76419">
        <ele>285.79998779297</ele>
        <time>2022-09-13T12:21:47.000Z</time>
      </trkpt>
      <trkpt lat="49.42678" lon="5.7642">
        <ele>285.79998779297</ele>
        <time>2022-09-13T12:21:48.000Z</time>
      </trkpt>
      <trkpt lat="49.42675" lon="5.76422">
        <ele>286.39999389648</ele>
        <time>2022-09-13T12:21:49.000Z</time>
      </trkpt>
      <trkpt lat="49.42671" lon="5.76423">
        <ele>286.79998779297</ele>
        <time>2022-09-13T12:21:50.000Z</time>
      </trkpt>
      <trkpt lat="49.42669" lon="5.76425">
        <ele>286.79998779297</ele>
        <time>2022-09-13T12:21:51.000Z</time>
      </trkpt>
      <trkpt lat="49.42667" lon="5.76427">
        <ele>287</ele>
        <time>2022-09-13T12:21:52.000Z</time>
      </trkpt>
      <trkpt lat="49.42664" lon="5.76431">
        <ele>287</ele>
        <time>2022-09-13T12:21:53.000Z</time>
      </trkpt>
      <trkpt lat="49.42661" lon="5.76435">
        <ele>287.20001220703</ele>
        <time>2022-09-13T12:21:54.000Z</time>
      </trkpt>
      <trkpt lat="49.42658" lon="5.76438">
        <ele>287.20001220703</ele>
        <time>2022-09-13T12:21:55.000Z</time>
      </trkpt>
      <trkpt lat="49.42656" lon="5.7644">
        <ele>287.39999389648</ele>
        <time>2022-09-13T12:21:56.000Z</time>
      </trkpt>
      <trkpt lat="49.42655" lon="5.76443">
        <ele>287.60000610352</ele>
        <time>2022-09-13T12:21:57.000Z</time>
      </trkpt>
      <trkpt lat="49.42653" lon="5.76445">
        <ele>287.79998779297</ele>
        <time>2022-09-13T12:21:58.000Z</time>
      </trkpt>
      <trkpt lat="49.4265" lon="5.76449">
        <ele>287.79998779297</ele>
        <time>2022-09-13T12:21:59.000Z</time>
      </trkpt>
      <trkpt lat="49.42645" lon="5.76456">
        <ele>287.79998779297</ele>
        <time>2022-09-13T12:22:00.000Z</time>
      </trkpt>
      <trkpt lat="49.42642" lon="5.7646">
        <ele>288</ele>
        <time>2022-09-13T12:22:01.000Z</time>
      </trkpt>
      <trkpt lat="49.42639" lon="5.76464">
        <ele>288</ele>
        <time>2022-09-13T12:22:02.000Z</time>
      </trkpt>
      <trkpt lat="49.42636" lon="5.76468">
        <ele>288</ele>
        <time>2022-09-13T12:22:03.000Z</time>
      </trkpt>
      <trkpt lat="49.42635" lon="5.7647">
        <ele>288</ele>
        <time>2022-09-13T12:22:04.000Z</time>
      </trkpt>
      <trkpt lat="49.42632" lon="5.76473">
        <ele>288.20001220703</ele>
        <time>2022-09-13T12:22:05.000Z</time>
      </trkpt>
      <trkpt lat="49.4263" lon="5.76475">
        <ele>288.60000610352</ele>
        <time>2022-09-13T12:22:06.000Z</time>
      </trkpt>
      <trkpt lat="49.42627" lon="5.76478">
        <ele>288.60000610352</ele>
        <time>2022-09-13T12:22:07.000Z</time>
      </trkpt>
      <trkpt lat="49.42624" lon="5.76481">
        <ele>288.60000610352</ele>
        <time>2022-09-13T12:22:08.000Z</time>
      </trkpt>
      <trkpt lat="49.42618" lon="5.76488">
        <ele>288.60000610352</ele>
        <time>2022-09-13T12:22:09.000Z</time>
      </trkpt>
      <trkpt lat="49.42618" lon="5.76488">
        <ele>288.79998779297</ele>
        <time>2022-09-13T12:22:10.000Z</time>
      </trkpt>
      <trkpt lat="49.42616" lon="5.76491">
        <ele>288.79998779297</ele>
        <time>2022-09-13T12:22:11.000Z</time>
      </trkpt>
      <trkpt lat="49.42614" lon="5.76492">
        <ele>288.79998779297</ele>
        <time>2022-09-13T12:22:12.000Z</time>
      </trkpt>
      <trkpt lat="49.4261" lon="5.76495">
        <ele>288.79998779297</ele>
        <time>2022-09-13T12:22:13.000Z</time>
      </trkpt>
      <trkpt lat="49.42608" lon="5.76498">
        <ele>288.79998779297</ele>
        <time>2022-09-13T12:22:14.000Z</time>
      </trkpt>
      <trkpt lat="49.42604" lon="5.765">
        <ele>288.79998779297</ele>
        <time>2022-09-13T12:22:15.000Z</time>
      </trkpt>
      <trkpt lat="49.42602" lon="5.76501">
        <ele>288.79998779297</ele>
        <time>2022-09-13T12:22:16.000Z</time>
      </trkpt>
      <trkpt lat="49.42601" lon="5.76503">
        <ele>288.79998779297</ele>
        <time>2022-09-13T12:22:17.000Z</time>
      </trkpt>
      <trkpt lat="49.42599" lon="5.76507">
        <ele>288.79998779297</ele>
        <time>2022-09-13T12:22:18.000Z</time>
      </trkpt>
      <trkpt lat="49.42597" lon="5.76511">
        <ele>288.79998779297</ele>
        <time>2022-09-13T12:22:19.000Z</time>
      </trkpt>
      <trkpt lat="49.42595" lon="5.76516">
        <ele>288.79998779297</ele>
        <time>2022-09-13T12:22:20.000Z</time>
      </trkpt>
      <trkpt lat="49.42592" lon="5.7652">
        <ele>288.79998779297</ele>
        <time>2022-09-13T12:22:21.000Z</time>
      </trkpt>
      <trkpt lat="49.42586" lon="5.7653">
        <ele>288.79998779297</ele>
        <time>2022-09-13T12:22:23.000Z</time>
      </trkpt>
      <trkpt lat="49.42584" lon="5.76534">
        <ele>289.20001220703</ele>
        <time>2022-09-13T12:22:24.000Z</time>
      </trkpt>
      <trkpt lat="49.42582" lon="5.76537">
        <ele>289.20001220703</ele>
        <time>2022-09-13T12:22:25.000Z</time>
      </trkpt>
      <trkpt lat="49.42576" lon="5.76544">
        <ele>289.39999389648</ele>
        <time>2022-09-13T12:22:26.000Z</time>
      </trkpt>
      <trkpt lat="49.42576" lon="5.76544">
        <ele>289.39999389648</ele>
        <time>2022-09-13T12:22:27.000Z</time>
      </trkpt>
      <trkpt lat="49.42574" lon="5.76547">
        <ele>289.60000610352</ele>
        <time>2022-09-13T12:22:28.000Z</time>
      </trkpt>
      <trkpt lat="49.42569" lon="5.76555">
        <ele>289.79998779297</ele>
        <time>2022-09-13T12:22:30.000Z</time>
      </trkpt>
      <trkpt lat="49.42562" lon="5.76567">
        <ele>290</ele>
        <time>2022-09-13T12:22:32.000Z</time>
      </trkpt>
      <trkpt lat="49.42555" lon="5.76576">
        <ele>290.20001220703</ele>
        <time>2022-09-13T12:22:34.000Z</time>
      </trkpt>
      <trkpt lat="49.42554" lon="5.76578">
        <ele>290.39999389648</ele>
        <time>2022-09-13T12:22:35.000Z</time>
      </trkpt>
      <trkpt lat="49.42554" lon="5.7658">
        <ele>290.39999389648</ele>
        <time>2022-09-13T12:22:36.000Z</time>
      </trkpt>
      <trkpt lat="49.42554" lon="5.76606">
        <ele>290.79998779297</ele>
        <time>2022-09-13T12:22:41.000Z</time>
      </trkpt>
      <trkpt lat="49.42554" lon="5.7661">
        <ele>291</ele>
        <time>2022-09-13T12:22:42.000Z</time>
      </trkpt>
      <trkpt lat="49.42554" lon="5.76619">
        <ele>291</ele>
        <time>2022-09-13T12:22:43.000Z</time>
      </trkpt>
      <trkpt lat="49.42556" lon="5.76638">
        <ele>292</ele>
        <time>2022-09-13T12:22:47.000Z</time>
      </trkpt>
      <trkpt lat="49.42556" lon="5.76646">
        <ele>292.20001220703</ele>
        <time>2022-09-13T12:22:49.000Z</time>
      </trkpt>
      <trkpt lat="49.42556" lon="5.76652">
        <ele>292.20001220703</ele>
        <time>2022-09-13T12:22:50.000Z</time>
      </trkpt>
      <trkpt lat="49.42556" lon="5.76656">
        <ele>292.39999389648</ele>
        <time>2022-09-13T12:22:51.000Z</time>
      </trkpt>
      <trkpt lat="49.42557" lon="5.7666">
        <ele>292.39999389648</ele>
        <time>2022-09-13T12:22:52.000Z</time>
      </trkpt>
      <trkpt lat="49.42558" lon="5.76665">
        <ele>292.39999389648</ele>
        <time>2022-09-13T12:22:53.000Z</time>
      </trkpt>
      <trkpt lat="49.42559" lon="5.7667">
        <ele>292.39999389648</ele>
        <time>2022-09-13T12:22:54.000Z</time>
      </trkpt>
      <trkpt lat="49.42559" lon="5.76676">
        <ele>292.39999389648</ele>
        <time>2022-09-13T12:22:55.000Z</time>
      </trkpt>
      <trkpt lat="49.4256" lon="5.76681">
        <ele>292.39999389648</ele>
        <time>2022-09-13T12:22:56.000Z</time>
      </trkpt>
      <trkpt lat="49.42561" lon="5.76687">
        <ele>292.60000610352</ele>
        <time>2022-09-13T12:22:57.000Z</time>
      </trkpt>
      <trkpt lat="49.42564" lon="5.76696">
        <ele>292.60000610352</ele>
        <time>2022-09-13T12:22:58.000Z</time>
      </trkpt>
      <trkpt lat="49.42565" lon="5.76701">
        <ele>292.60000610352</ele>
        <time>2022-09-13T12:22:59.000Z</time>
      </trkpt>
      <trkpt lat="49.42566" lon="5.76707">
        <ele>292.60000610352</ele>
        <time>2022-09-13T12:23:00.000Z</time>
      </trkpt>
      <trkpt lat="49.42566" lon="5.76709">
        <ele>292.60000610352</ele>
        <time>2022-09-13T12:23:01.000Z</time>
      </trkpt>
      <trkpt lat="49.42567" lon="5.76712">
        <ele>292.60000610352</ele>
        <time>2022-09-13T12:23:02.000Z</time>
      </trkpt>
      <trkpt lat="49.42567" lon="5.76715">
        <ele>292.60000610352</ele>
        <time>2022-09-13T12:23:03.000Z</time>
      </trkpt>
      <trkpt lat="49.42568" lon="5.76716">
        <ele>292.60000610352</ele>
        <time>2022-09-13T12:23:04.000Z</time>
      </trkpt>
      <trkpt lat="49.42577" lon="5.76718">
        <ele>292.60000610352</ele>
        <time>2022-09-13T12:23:05.000Z</time>
      </trkpt>
      <trkpt lat="49.42579" lon="5.76724">
        <ele>293.20001220703</ele>
        <time>2022-09-13T12:23:07.000Z</time>
      </trkpt>
      <trkpt lat="49.42589" lon="5.76729">
        <ele>293.39999389648</ele>
        <time>2022-09-13T12:23:09.000Z</time>
      </trkpt>
      <trkpt lat="49.42591" lon="5.76731">
        <ele>293.79998779297</ele>
        <time>2022-09-13T12:23:10.000Z</time>
      </trkpt>
      <trkpt lat="49.42593" lon="5.76734">
        <ele>294</ele>
        <time>2022-09-13T12:23:11.000Z</time>
      </trkpt>
      <trkpt lat="49.42595" lon="5.76736">
        <ele>294.20001220703</ele>
        <time>2022-09-13T12:23:12.000Z</time>
      </trkpt>
      <trkpt lat="49.42596" lon="5.76737">
        <ele>294.20001220703</ele>
        <time>2022-09-13T12:23:13.000Z</time>
      </trkpt>
      <trkpt lat="49.42599" lon="5.76741">
        <ele>295.39999389648</ele>
        <time>2022-09-13T12:23:15.000Z</time>
      </trkpt>
      <trkpt lat="49.426" lon="5.76743">
        <ele>295.60000610352</ele>
        <time>2022-09-13T12:23:16.000Z</time>
      </trkpt>
      <trkpt lat="49.42606" lon="5.76748">
        <ele>296.20001220703</ele>
        <time>2022-09-13T12:23:17.000Z</time>
      </trkpt>
      <trkpt lat="49.42606" lon="5.76748">
        <ele>296.60000610352</ele>
        <time>2022-09-13T12:23:18.000Z</time>
      </trkpt>
      <trkpt lat="49.42608" lon="5.7675">
        <ele>297</ele>
        <time>2022-09-13T12:23:19.000Z</time>
      </trkpt>
      <trkpt lat="49.42609" lon="5.76752">
        <ele>297.20001220703</ele>
        <time>2022-09-13T12:23:20.000Z</time>
      </trkpt>
      <trkpt lat="49.4261" lon="5.76755">
        <ele>297.60000610352</ele>
        <time>2022-09-13T12:23:21.000Z</time>
      </trkpt>
      <trkpt lat="49.42611" lon="5.76756">
        <ele>297.60000610352</ele>
        <time>2022-09-13T12:23:22.000Z</time>
      </trkpt>
      <trkpt lat="49.42611" lon="5.76758">
        <ele>298.39999389648</ele>
        <time>2022-09-13T12:23:23.000Z</time>
      </trkpt>
      <trkpt lat="49.42612" lon="5.7676">
        <ele>299.20001220703</ele>
        <time>2022-09-13T12:23:24.000Z</time>
      </trkpt>
      <trkpt lat="49.42612" lon="5.76762">
        <ele>299.39999389648</ele>
        <time>2022-09-13T12:23:25.000Z</time>
      </trkpt>
      <trkpt lat="49.42614" lon="5.76764">
        <ele>299.79998779297</ele>
        <time>2022-09-13T12:23:26.000Z</time>
      </trkpt>
      <trkpt lat="49.42614" lon="5.76765">
        <ele>300.20001220703</ele>
        <time>2022-09-13T12:23:27.000Z</time>
      </trkpt>
      <trkpt lat="49.42619" lon="5.76767">
        <ele>301</ele>
        <time>2022-09-13T12:23:28.000Z</time>
      </trkpt>
      <trkpt lat="49.42624" lon="5.76772">
        <ele>301.60000610352</ele>
        <time>2022-09-13T12:23:29.000Z</time>
      </trkpt>
      <trkpt lat="49.42625" lon="5.76774">
        <ele>302.39999389648</ele>
        <time>2022-09-13T12:23:30.000Z</time>
      </trkpt>
      <trkpt lat="49.42631" lon="5.76777">
        <ele>303</ele>
        <time>2022-09-13T12:23:31.000Z</time>
      </trkpt>
      <trkpt lat="49.42633" lon="5.76778">
        <ele>303.39999389648</ele>
        <time>2022-09-13T12:23:32.000Z</time>
      </trkpt>
      <trkpt lat="49.42635" lon="5.76776">
        <ele>304.20001220703</ele>
        <time>2022-09-13T12:23:33.000Z</time>
      </trkpt>
      <trkpt lat="49.42636" lon="5.76774">
        <ele>304.60000610352</ele>
        <time>2022-09-13T12:23:34.000Z</time>
      </trkpt>
      <trkpt lat="49.42636" lon="5.76772">
        <ele>305.39999389648</ele>
        <time>2022-09-13T12:23:35.000Z</time>
      </trkpt>
      <trkpt lat="49.42635" lon="5.7677">
        <ele>305.79998779297</ele>
        <time>2022-09-13T12:23:36.000Z</time>
      </trkpt>
      <trkpt lat="49.42634" lon="5.76767">
        <ele>306.60000610352</ele>
        <time>2022-09-13T12:23:37.000Z</time>
      </trkpt>
      <trkpt lat="49.42633" lon="5.76764">
        <ele>307</ele>
        <time>2022-09-13T12:23:38.000Z</time>
      </trkpt>
      <trkpt lat="49.4263" lon="5.76758">
        <ele>307.39999389648</ele>
        <time>2022-09-13T12:23:39.000Z</time>
      </trkpt>
      <trkpt lat="49.4263" lon="5.76758">
        <ele>307.60000610352</ele>
        <time>2022-09-13T12:23:40.000Z</time>
      </trkpt>
      <trkpt lat="49.42629" lon="5.76756">
        <ele>307.60000610352</ele>
        <time>2022-09-13T12:23:41.000Z</time>
      </trkpt>
      <trkpt lat="49.42628" lon="5.76754">
        <ele>307.79998779297</ele>
        <time>2022-09-13T12:23:42.000Z</time>
      </trkpt>
      <trkpt lat="49.42628" lon="5.7675">
        <ele>307.79998779297</ele>
        <time>2022-09-13T12:23:43.000Z</time>
      </trkpt>
      <trkpt lat="49.42628" lon="5.7675">
        <ele>307.79998779297</ele>
        <time>2022-09-13T12:23:44.000Z</time>
      </trkpt>
      <trkpt lat="49.42628" lon="5.76746">
        <ele>308</ele>
        <time>2022-09-13T12:23:45.000Z</time>
      </trkpt>
      <trkpt lat="49.42627" lon="5.76744">
        <ele>308</ele>
        <time>2022-09-13T12:23:46.000Z</time>
      </trkpt>
      <trkpt lat="49.42627" lon="5.76741">
        <ele>308.20001220703</ele>
        <time>2022-09-13T12:23:47.000Z</time>
      </trkpt>
      <trkpt lat="49.42628" lon="5.76739">
        <ele>308.20001220703</ele>
        <time>2022-09-13T12:23:48.000Z</time>
      </trkpt>
      <trkpt lat="49.42627" lon="5.76736">
        <ele>308.20001220703</ele>
        <time>2022-09-13T12:23:49.000Z</time>
      </trkpt>
      <trkpt lat="49.42626" lon="5.76734">
        <ele>308.20001220703</ele>
        <time>2022-09-13T12:23:50.000Z</time>
      </trkpt>
      <trkpt lat="49.42623" lon="5.76732">
        <ele>308.20001220703</ele>
        <time>2022-09-13T12:23:51.000Z</time>
      </trkpt>
      <trkpt lat="49.4262" lon="5.76729">
        <ele>308.20001220703</ele>
        <time>2022-09-13T12:23:52.000Z</time>
      </trkpt>
      <trkpt lat="49.42618" lon="5.76724">
        <ele>308.20001220703</ele>
        <time>2022-09-13T12:23:53.000Z</time>
      </trkpt>
      <trkpt lat="49.42616" lon="5.7672">
        <ele>308.20001220703</ele>
        <time>2022-09-13T12:23:54.000Z</time>
      </trkpt>
      <trkpt lat="49.42615" lon="5.76715">
        <ele>308.20001220703</ele>
        <time>2022-09-13T12:23:55.000Z</time>
      </trkpt>
      <trkpt lat="49.42614" lon="5.76709">
        <ele>307.79998779297</ele>
        <time>2022-09-13T12:23:56.000Z</time>
      </trkpt>
      <trkpt lat="49.42613" lon="5.76703">
        <ele>307.79998779297</ele>
        <time>2022-09-13T12:23:57.000Z</time>
      </trkpt>
      <trkpt lat="49.42613" lon="5.76698">
        <ele>307.20001220703</ele>
        <time>2022-09-13T12:23:58.000Z</time>
      </trkpt>
      <trkpt lat="49.42613" lon="5.76693">
        <ele>307.20001220703</ele>
        <time>2022-09-13T12:23:59.000Z</time>
      </trkpt>
      <trkpt lat="49.42613" lon="5.7669">
        <ele>307</ele>
        <time>2022-09-13T12:24:00.000Z</time>
      </trkpt>
      <trkpt lat="49.42612" lon="5.76688">
        <ele>307</ele>
        <time>2022-09-13T12:24:01.000Z</time>
      </trkpt>
      <trkpt lat="49.42611" lon="5.76686">
        <ele>307</ele>
        <time>2022-09-13T12:24:02.000Z</time>
      </trkpt>
      <trkpt lat="49.42611" lon="5.76684">
        <ele>307</ele>
        <time>2022-09-13T12:24:03.000Z</time>
      </trkpt>
      <trkpt lat="49.42613" lon="5.76681">
        <ele>307</ele>
        <time>2022-09-13T12:24:04.000Z</time>
      </trkpt>
      <trkpt lat="49.42616" lon="5.76671">
        <ele>307.20001220703</ele>
        <time>2022-09-13T12:24:06.000Z</time>
      </trkpt>
      <trkpt lat="49.42614" lon="5.76667">
        <ele>307.20001220703</ele>
        <time>2022-09-13T12:24:07.000Z</time>
      </trkpt>
      <trkpt lat="49.42608" lon="5.76648">
        <ele>307.79998779297</ele>
        <time>2022-09-13T12:24:10.000Z</time>
      </trkpt>
      <trkpt lat="49.42607" lon="5.76645">
        <ele>307.79998779297</ele>
        <time>2022-09-13T12:24:11.000Z</time>
      </trkpt>
      <trkpt lat="49.42606" lon="5.76639">
        <ele>308.20001220703</ele>
        <time>2022-09-13T12:24:13.000Z</time>
      </trkpt>
      <trkpt lat="49.42606" lon="5.76636">
        <ele>308.60000610352</ele>
        <time>2022-09-13T12:24:14.000Z</time>
      </trkpt>
      <trkpt lat="49.42608" lon="5.76633">
        <ele>308.79998779297</ele>
        <time>2022-09-13T12:24:15.000Z</time>
      </trkpt>
      <trkpt lat="49.4261" lon="5.76628">
        <ele>309</ele>
        <time>2022-09-13T12:24:16.000Z</time>
      </trkpt>
      <trkpt lat="49.4261" lon="5.76623">
        <ele>309</ele>
        <time>2022-09-13T12:24:17.000Z</time>
      </trkpt>
      <trkpt lat="49.42613" lon="5.76605">
        <ele>308.79998779297</ele>
        <time>2022-09-13T12:24:21.000Z</time>
      </trkpt>
      <trkpt lat="49.42614" lon="5.76602">
        <ele>308.79998779297</ele>
        <time>2022-09-13T12:24:22.000Z</time>
      </trkpt>
      <trkpt lat="49.42613" lon="5.76599">
        <ele>308.79998779297</ele>
        <time>2022-09-13T12:24:23.000Z</time>
      </trkpt>
      <trkpt lat="49.42612" lon="5.76592">
        <ele>308.60000610352</ele>
        <time>2022-09-13T12:24:24.000Z</time>
      </trkpt>
      <trkpt lat="49.42612" lon="5.76586">
        <ele>308.60000610352</ele>
        <time>2022-09-13T12:24:25.000Z</time>
      </trkpt>
      <trkpt lat="49.42612" lon="5.76575">
        <ele>308.20001220703</ele>
        <time>2022-09-13T12:24:26.000Z</time>
      </trkpt>
      <trkpt lat="49.42614" lon="5.76571">
        <ele>308.20001220703</ele>
        <time>2022-09-13T12:24:27.000Z</time>
      </trkpt>
      <trkpt lat="49.42615" lon="5.76567">
        <ele>307.79998779297</ele>
        <time>2022-09-13T12:24:28.000Z</time>
      </trkpt>
      <trkpt lat="49.42617" lon="5.76564">
        <ele>307.79998779297</ele>
        <time>2022-09-13T12:24:29.000Z</time>
      </trkpt>
      <trkpt lat="49.42619" lon="5.76561">
        <ele>307.39999389648</ele>
        <time>2022-09-13T12:24:30.000Z</time>
      </trkpt>
      <trkpt lat="49.42621" lon="5.7656">
        <ele>307.39999389648</ele>
        <time>2022-09-13T12:24:31.000Z</time>
      </trkpt>
      <trkpt lat="49.42626" lon="5.76557">
        <ele>307.20001220703</ele>
        <time>2022-09-13T12:24:33.000Z</time>
      </trkpt>
      <trkpt lat="49.42629" lon="5.76555">
        <ele>307.20001220703</ele>
        <time>2022-09-13T12:24:34.000Z</time>
      </trkpt>
      <trkpt lat="49.4263" lon="5.76553">
        <ele>307.20001220703</ele>
        <time>2022-09-13T12:24:35.000Z</time>
      </trkpt>
      <trkpt lat="49.42634" lon="5.7655">
        <ele>307.20001220703</ele>
        <time>2022-09-13T12:24:37.000Z</time>
      </trkpt>
      <trkpt lat="49.42636" lon="5.76549">
        <ele>307.20001220703</ele>
        <time>2022-09-13T12:24:38.000Z</time>
      </trkpt>
      <trkpt lat="49.42637" lon="5.76548">
        <ele>307.20001220703</ele>
        <time>2022-09-13T12:24:39.000Z</time>
      </trkpt>
      <trkpt lat="49.42639" lon="5.76547">
        <ele>307.20001220703</ele>
        <time>2022-09-13T12:24:40.000Z</time>
      </trkpt>
      <trkpt lat="49.42641" lon="5.76545">
        <ele>307.20001220703</ele>
        <time>2022-09-13T12:24:41.000Z</time>
      </trkpt>
      <trkpt lat="49.4265" lon="5.76537">
        <ele>307.39999389648</ele>
        <time>2022-09-13T12:24:44.000Z</time>
      </trkpt>
      <trkpt lat="49.42655" lon="5.76531">
        <ele>307.60000610352</ele>
        <time>2022-09-13T12:24:46.000Z</time>
      </trkpt>
      <trkpt lat="49.42659" lon="5.76529">
        <ele>307.60000610352</ele>
        <time>2022-09-13T12:24:47.000Z</time>
      </trkpt>
      <trkpt lat="49.4267" lon="5.7652">
        <ele>307.60000610352</ele>
        <time>2022-09-13T12:24:50.000Z</time>
      </trkpt>
      <trkpt lat="49.42673" lon="5.76518">
        <ele>307.60000610352</ele>
        <time>2022-09-13T12:24:51.000Z</time>
      </trkpt>
      <trkpt lat="49.42674" lon="5.76516">
        <ele>307.60000610352</ele>
        <time>2022-09-13T12:24:52.000Z</time>
      </trkpt>
      <trkpt lat="49.42676" lon="5.76513">
        <ele>307.60000610352</ele>
        <time>2022-09-13T12:24:53.000Z</time>
      </trkpt>
      <trkpt lat="49.42679" lon="5.7651">
        <ele>307.60000610352</ele>
        <time>2022-09-13T12:24:54.000Z</time>
      </trkpt>
      <trkpt lat="49.42686" lon="5.76506">
        <ele>307.60000610352</ele>
        <time>2022-09-13T12:24:56.000Z</time>
      </trkpt>
      <trkpt lat="49.42689" lon="5.76503">
        <ele>307.60000610352</ele>
        <time>2022-09-13T12:24:57.000Z</time>
      </trkpt>
      <trkpt lat="49.42701" lon="5.7649">
        <ele>307.39999389648</ele>
        <time>2022-09-13T12:25:01.000Z</time>
      </trkpt>
      <trkpt lat="49.42726" lon="5.76475">
        <ele>307</ele>
        <time>2022-09-13T12:25:06.000Z</time>
      </trkpt>
      <trkpt lat="49.42734" lon="5.76474">
        <ele>306.39999389648</ele>
        <time>2022-09-13T12:25:08.000Z</time>
      </trkpt>
      <trkpt lat="49.42738" lon="5.76471">
        <ele>306.20001220703</ele>
        <time>2022-09-13T12:25:09.000Z</time>
      </trkpt>
      <trkpt lat="49.4274" lon="5.76469">
        <ele>306.20001220703</ele>
        <time>2022-09-13T12:25:10.000Z</time>
      </trkpt>
      <trkpt lat="49.42741" lon="5.76465">
        <ele>305.79998779297</ele>
        <time>2022-09-13T12:25:11.000Z</time>
      </trkpt>
      <trkpt lat="49.42744" lon="5.76461">
        <ele>305.60000610352</ele>
        <time>2022-09-13T12:25:12.000Z</time>
      </trkpt>
      <trkpt lat="49.42748" lon="5.76456">
        <ele>305.60000610352</ele>
        <time>2022-09-13T12:25:13.000Z</time>
      </trkpt>
      <trkpt lat="49.42751" lon="5.76452">
        <ele>305.39999389648</ele>
        <time>2022-09-13T12:25:14.000Z</time>
      </trkpt>
      <trkpt lat="49.42754" lon="5.76447">
        <ele>305.20001220703</ele>
        <time>2022-09-13T12:25:15.000Z</time>
      </trkpt>
      <trkpt lat="49.42755" lon="5.76445">
        <ele>305</ele>
        <time>2022-09-13T12:25:16.000Z</time>
      </trkpt>
      <trkpt lat="49.42755" lon="5.76445">
        <ele>304.79998779297</ele>
        <time>2022-09-13T12:25:17.000Z</time>
      </trkpt>
      <trkpt lat="49.42755" lon="5.76443">
        <ele>304.79998779297</ele>
        <time>2022-09-13T12:25:18.000Z</time>
      </trkpt>
      <trkpt lat="49.42755" lon="5.76439">
        <ele>304.79998779297</ele>
        <time>2022-09-13T12:25:19.000Z</time>
      </trkpt>
      <trkpt lat="49.42757" lon="5.76434">
        <ele>304.79998779297</ele>
        <time>2022-09-13T12:25:20.000Z</time>
      </trkpt>
      <trkpt lat="49.4276" lon="5.7643">
        <ele>304.79998779297</ele>
        <time>2022-09-13T12:25:21.000Z</time>
      </trkpt>
      <trkpt lat="49.4276" lon="5.76425">
        <ele>304.79998779297</ele>
        <time>2022-09-13T12:25:23.000Z</time>
      </trkpt>
      <trkpt lat="49.4276" lon="5.76423">
        <ele>304.79998779297</ele>
        <time>2022-09-13T12:25:24.000Z</time>
      </trkpt>
      <trkpt lat="49.4276" lon="5.7642">
        <ele>305.20001220703</ele>
        <time>2022-09-13T12:25:25.000Z</time>
      </trkpt>
      <trkpt lat="49.42761" lon="5.76417">
        <ele>305.39999389648</ele>
        <time>2022-09-13T12:25:26.000Z</time>
      </trkpt>
      <trkpt lat="49.42762" lon="5.76414">
        <ele>305.60000610352</ele>
        <time>2022-09-13T12:25:27.000Z</time>
      </trkpt>
      <trkpt lat="49.42762" lon="5.76413">
        <ele>306</ele>
        <time>2022-09-13T12:25:28.000Z</time>
      </trkpt>
      <trkpt lat="49.42763" lon="5.7641">
        <ele>306.20001220703</ele>
        <time>2022-09-13T12:25:29.000Z</time>
      </trkpt>
      <trkpt lat="49.42762" lon="5.76407">
        <ele>306.39999389648</ele>
        <time>2022-09-13T12:25:30.000Z</time>
      </trkpt>
      <trkpt lat="49.42762" lon="5.76404">
        <ele>306.60000610352</ele>
        <time>2022-09-13T12:25:31.000Z</time>
      </trkpt>
      <trkpt lat="49.42765" lon="5.76401">
        <ele>306.79998779297</ele>
        <time>2022-09-13T12:25:32.000Z</time>
      </trkpt>
      <trkpt lat="49.42767" lon="5.76397">
        <ele>307</ele>
        <time>2022-09-13T12:25:33.000Z</time>
      </trkpt>
      <trkpt lat="49.42771" lon="5.76392">
        <ele>307</ele>
        <time>2022-09-13T12:25:34.000Z</time>
      </trkpt>
      <trkpt lat="49.42773" lon="5.76381">
        <ele>307.39999389648</ele>
        <time>2022-09-13T12:25:36.000Z</time>
      </trkpt>
      <trkpt lat="49.42775" lon="5.76378">
        <ele>307.39999389648</ele>
        <time>2022-09-13T12:25:37.000Z</time>
      </trkpt>
      <trkpt lat="49.42777" lon="5.76373">
        <ele>307.39999389648</ele>
        <time>2022-09-13T12:25:38.000Z</time>
      </trkpt>
      <trkpt lat="49.42777" lon="5.76368">
        <ele>307.39999389648</ele>
        <time>2022-09-13T12:25:39.000Z</time>
      </trkpt>
      <trkpt lat="49.42778" lon="5.76355">
        <ele>307.60000610352</ele>
        <time>2022-09-13T12:25:42.000Z</time>
      </trkpt>
      <trkpt lat="49.4278" lon="5.7635">
        <ele>307.60000610352</ele>
        <time>2022-09-13T12:25:43.000Z</time>
      </trkpt>
      <trkpt lat="49.42782" lon="5.76346">
        <ele>307.39999389648</ele>
        <time>2022-09-13T12:25:44.000Z</time>
      </trkpt>
      <trkpt lat="49.42786" lon="5.76337">
        <ele>307.60000610352</ele>
        <time>2022-09-13T12:25:46.000Z</time>
      </trkpt>
      <trkpt lat="49.42787" lon="5.76334">
        <ele>307.60000610352</ele>
        <time>2022-09-13T12:25:47.000Z</time>
      </trkpt>
      <trkpt lat="49.42788" lon="5.76331">
        <ele>307.79998779297</ele>
        <time>2022-09-13T12:25:48.000Z</time>
      </trkpt>
      <trkpt lat="49.4279" lon="5.76329">
        <ele>308</ele>
        <time>2022-09-13T12:25:49.000Z</time>
      </trkpt>
      <trkpt lat="49.42792" lon="5.76326">
        <ele>308</ele>
        <time>2022-09-13T12:25:50.000Z</time>
      </trkpt>
      <trkpt lat="49.42793" lon="5.76322">
        <ele>308</ele>
        <time>2022-09-13T12:25:51.000Z</time>
      </trkpt>
      <trkpt lat="49.42791" lon="5.76294">
        <ele>308.20001220703</ele>
        <time>2022-09-13T12:25:54.000Z</time>
      </trkpt>
      <trkpt lat="49.42791" lon="5.7629">
        <ele>308.20001220703</ele>
        <time>2022-09-13T12:25:55.000Z</time>
      </trkpt>
      <trkpt lat="49.42794" lon="5.76286">
        <ele>308.20001220703</ele>
        <time>2022-09-13T12:25:56.000Z</time>
      </trkpt>
      <trkpt lat="49.42796" lon="5.76281">
        <ele>308.20001220703</ele>
        <time>2022-09-13T12:25:57.000Z</time>
      </trkpt>
      <trkpt lat="49.42797" lon="5.76268">
        <ele>308</ele>
        <time>2022-09-13T12:26:00.000Z</time>
      </trkpt>
      <trkpt lat="49.42797" lon="5.76265">
        <ele>308</ele>
        <time>2022-09-13T12:26:01.000Z</time>
      </trkpt>
      <trkpt lat="49.42796" lon="5.76263">
        <ele>307.79998779297</ele>
        <time>2022-09-13T12:26:02.000Z</time>
      </trkpt>
      <trkpt lat="49.42797" lon="5.76261">
        <ele>307.79998779297</ele>
        <time>2022-09-13T12:26:03.000Z</time>
      </trkpt>
      <trkpt lat="49.42798" lon="5.76258">
        <ele>307.60000610352</ele>
        <time>2022-09-13T12:26:04.000Z</time>
      </trkpt>
      <trkpt lat="49.42798" lon="5.76254">
        <ele>307.60000610352</ele>
        <time>2022-09-13T12:26:05.000Z</time>
      </trkpt>
      <trkpt lat="49.42794" lon="5.76229">
        <ele>307.20001220703</ele>
        <time>2022-09-13T12:26:09.000Z</time>
      </trkpt>
      <trkpt lat="49.42797" lon="5.76223">
        <ele>307</ele>
        <time>2022-09-13T12:26:10.000Z</time>
      </trkpt>
      <trkpt lat="49.42798" lon="5.76219">
        <ele>306.79998779297</ele>
        <time>2022-09-13T12:26:11.000Z</time>
      </trkpt>
      <trkpt lat="49.42797" lon="5.76216">
        <ele>305.79998779297</ele>
        <time>2022-09-13T12:26:12.000Z</time>
      </trkpt>
      <trkpt lat="49.42796" lon="5.76213">
        <ele>305.60000610352</ele>
        <time>2022-09-13T12:26:13.000Z</time>
      </trkpt>
      <trkpt lat="49.42796" lon="5.76212">
        <ele>305.20001220703</ele>
        <time>2022-09-13T12:26:14.000Z</time>
      </trkpt>
      <trkpt lat="49.42796" lon="5.76211">
        <ele>305.20001220703</ele>
        <time>2022-09-13T12:26:15.000Z</time>
      </trkpt>
      <trkpt lat="49.42796" lon="5.76211">
        <ele>305.20001220703</ele>
        <time>2022-09-13T12:26:16.000Z</time>
      </trkpt>
      <trkpt lat="49.42796" lon="5.76209">
        <ele>305.20001220703</ele>
        <time>2022-09-13T12:26:17.000Z</time>
      </trkpt>
      <trkpt lat="49.42795" lon="5.76203">
        <ele>305.20001220703</ele>
        <time>2022-09-13T12:26:18.000Z</time>
      </trkpt>
      <trkpt lat="49.4279" lon="5.76182">
        <ele>306.20001220703</ele>
        <time>2022-09-13T12:26:24.000Z</time>
      </trkpt>
      <trkpt lat="49.42785" lon="5.7616">
        <ele>306.20001220703</ele>
        <time>2022-09-13T12:26:26.000Z</time>
      </trkpt>
      <trkpt lat="49.42782" lon="5.76153">
        <ele>306.39999389648</ele>
        <time>2022-09-13T12:26:29.000Z</time>
      </trkpt>
      <trkpt lat="49.42784" lon="5.7615">
        <ele>306.60000610352</ele>
        <time>2022-09-13T12:26:30.000Z</time>
      </trkpt>
      <trkpt lat="49.42784" lon="5.76147">
        <ele>306.60000610352</ele>
        <time>2022-09-13T12:26:31.000Z</time>
      </trkpt>
      <trkpt lat="49.42785" lon="5.76145">
        <ele>306.79998779297</ele>
        <time>2022-09-13T12:26:32.000Z</time>
      </trkpt>
      <trkpt lat="49.42784" lon="5.76143">
        <ele>306.79998779297</ele>
        <time>2022-09-13T12:26:33.000Z</time>
      </trkpt>
      <trkpt lat="49.42782" lon="5.76139">
        <ele>307</ele>
        <time>2022-09-13T12:26:34.000Z</time>
      </trkpt>
      <trkpt lat="49.42775" lon="5.76131">
        <ele>307</ele>
        <time>2022-09-13T12:26:36.000Z</time>
      </trkpt>
      <trkpt lat="49.42759" lon="5.76115">
        <ele>306.79998779297</ele>
        <time>2022-09-13T12:26:40.000Z</time>
      </trkpt>
      <trkpt lat="49.42746" lon="5.761">
        <ele>305.20001220703</ele>
        <time>2022-09-13T12:26:43.000Z</time>
      </trkpt>
      <trkpt lat="49.42739" lon="5.76089">
        <ele>304.39999389648</ele>
        <time>2022-09-13T12:26:44.000Z</time>
      </trkpt>
      <trkpt lat="49.4273" lon="5.76082">
        <ele>303.79998779297</ele>
        <time>2022-09-13T12:26:45.000Z</time>
      </trkpt>
      <trkpt lat="49.42725" lon="5.76078">
        <ele>302.60000610352</ele>
        <time>2022-09-13T12:26:46.000Z</time>
      </trkpt>
      <trkpt lat="49.4272" lon="5.76074">
        <ele>302</ele>
        <time>2022-09-13T12:26:47.000Z</time>
      </trkpt>
      <trkpt lat="49.42717" lon="5.76071">
        <ele>300.39999389648</ele>
        <time>2022-09-13T12:26:48.000Z</time>
      </trkpt>
      <trkpt lat="49.42715" lon="5.76067">
        <ele>299.79998779297</ele>
        <time>2022-09-13T12:26:49.000Z</time>
      </trkpt>
      <trkpt lat="49.42713" lon="5.76064">
        <ele>298.20001220703</ele>
        <time>2022-09-13T12:26:50.000Z</time>
      </trkpt>
      <trkpt lat="49.42709" lon="5.76061">
        <ele>296.60000610352</ele>
        <time>2022-09-13T12:26:51.000Z</time>
      </trkpt>
      <trkpt lat="49.42705" lon="5.76058">
        <ele>296</ele>
        <time>2022-09-13T12:26:52.000Z</time>
      </trkpt>
      <trkpt lat="49.42701" lon="5.76055">
        <ele>295.20001220703</ele>
        <time>2022-09-13T12:26:53.000Z</time>
      </trkpt>
      <trkpt lat="49.42685" lon="5.76042">
        <ele>293.79998779297</ele>
        <time>2022-09-13T12:26:55.000Z</time>
      </trkpt>
      <trkpt lat="49.42678" lon="5.76037">
        <ele>292.60000610352</ele>
        <time>2022-09-13T12:26:57.000Z</time>
      </trkpt>
      <trkpt lat="49.42669" lon="5.76031">
        <ele>291.39999389648</ele>
        <time>2022-09-13T12:26:58.000Z</time>
      </trkpt>
      <trkpt lat="49.42655" lon="5.7602">
        <ele>290</ele>
        <time>2022-09-13T12:27:00.000Z</time>
      </trkpt>
      <trkpt lat="49.42649" lon="5.76015">
        <ele>289.20001220703</ele>
        <time>2022-09-13T12:27:01.000Z</time>
      </trkpt>
      <trkpt lat="49.42645" lon="5.76011">
        <ele>287.79998779297</ele>
        <time>2022-09-13T12:27:02.000Z</time>
      </trkpt>
      <trkpt lat="49.42641" lon="5.76006">
        <ele>287.20001220703</ele>
        <time>2022-09-13T12:27:03.000Z</time>
      </trkpt>
      <trkpt lat="49.42638" lon="5.76003">
        <ele>286.20001220703</ele>
        <time>2022-09-13T12:27:04.000Z</time>
      </trkpt>
      <trkpt lat="49.42636" lon="5.76002">
        <ele>286</ele>
        <time>2022-09-13T12:27:05.000Z</time>
      </trkpt>
      <trkpt lat="49.42635" lon="5.76001">
        <ele>284.39999389648</ele>
        <time>2022-09-13T12:27:06.000Z</time>
      </trkpt>
      <trkpt lat="49.42632" lon="5.76">
        <ele>283.39999389648</ele>
        <time>2022-09-13T12:27:07.000Z</time>
      </trkpt>
      <trkpt lat="49.42628" lon="5.75998">
        <ele>282.60000610352</ele>
        <time>2022-09-13T12:27:09.000Z</time>
      </trkpt>
      <trkpt lat="49.42627" lon="5.76">
        <ele>282.20001220703</ele>
        <time>2022-09-13T12:27:10.000Z</time>
      </trkpt>
      <trkpt lat="49.42627" lon="5.76">
        <ele>281.39999389648</ele>
        <time>2022-09-13T12:27:11.000Z</time>
      </trkpt>
      <trkpt lat="49.42626" lon="5.76004">
        <ele>279.79998779297</ele>
        <time>2022-09-13T12:27:13.000Z</time>
      </trkpt>
      <trkpt lat="49.42625" lon="5.76005">
        <ele>279</ele>
        <time>2022-09-13T12:27:14.000Z</time>
      </trkpt>
      <trkpt lat="49.42623" lon="5.76004">
        <ele>278.39999389648</ele>
        <time>2022-09-13T12:27:15.000Z</time>
      </trkpt>
      <trkpt lat="49.42612" lon="5.75978">
        <ele>276.79998779297</ele>
        <time>2022-09-13T12:27:18.000Z</time>
      </trkpt>
      <trkpt lat="49.42611" lon="5.75971">
        <ele>276.60000610352</ele>
        <time>2022-09-13T12:27:19.000Z</time>
      </trkpt>
      <trkpt lat="49.42614" lon="5.75961">
        <ele>275.79998779297</ele>
        <time>2022-09-13T12:27:21.000Z</time>
      </trkpt>
      <trkpt lat="49.42616" lon="5.75956">
        <ele>275.20001220703</ele>
        <time>2022-09-13T12:27:22.000Z</time>
      </trkpt>
      <trkpt lat="49.42619" lon="5.75952">
        <ele>274.60000610352</ele>
        <time>2022-09-13T12:27:23.000Z</time>
      </trkpt>
      <trkpt lat="49.42626" lon="5.75943">
        <ele>274.20001220703</ele>
        <time>2022-09-13T12:27:24.000Z</time>
      </trkpt>
      <trkpt lat="49.42629" lon="5.75937">
        <ele>273.79998779297</ele>
        <time>2022-09-13T12:27:25.000Z</time>
      </trkpt>
      <trkpt lat="49.42633" lon="5.75935">
        <ele>273.60000610352</ele>
        <time>2022-09-13T12:27:26.000Z</time>
      </trkpt>
      <trkpt lat="49.42636" lon="5.75933">
        <ele>273.20001220703</ele>
        <time>2022-09-13T12:27:27.000Z</time>
      </trkpt>
      <trkpt lat="49.4264" lon="5.7593">
        <ele>273</ele>
        <time>2022-09-13T12:27:28.000Z</time>
      </trkpt>
      <trkpt lat="49.42647" lon="5.75925">
        <ele>272.39999389648</ele>
        <time>2022-09-13T12:27:31.000Z</time>
      </trkpt>
      <trkpt lat="49.42653" lon="5.7592">
        <ele>272.39999389648</ele>
        <time>2022-09-13T12:27:32.000Z</time>
      </trkpt>
      <trkpt lat="49.42653" lon="5.7592">
        <ele>272.20001220703</ele>
        <time>2022-09-13T12:27:33.000Z</time>
      </trkpt>
      <trkpt lat="49.42656" lon="5.75918">
        <ele>272.20001220703</ele>
        <time>2022-09-13T12:27:34.000Z</time>
      </trkpt>
      <trkpt lat="49.42661" lon="5.75915">
        <ele>272</ele>
        <time>2022-09-13T12:27:35.000Z</time>
      </trkpt>
      <trkpt lat="49.42661" lon="5.75915">
        <ele>272</ele>
        <time>2022-09-13T12:27:36.000Z</time>
      </trkpt>
      <trkpt lat="49.42664" lon="5.75913">
        <ele>271.79998779297</ele>
        <time>2022-09-13T12:27:37.000Z</time>
      </trkpt>
      <trkpt lat="49.42669" lon="5.75908">
        <ele>271.79998779297</ele>
        <time>2022-09-13T12:27:38.000Z</time>
      </trkpt>
      <trkpt lat="49.42669" lon="5.75908">
        <ele>271.60000610352</ele>
        <time>2022-09-13T12:27:39.000Z</time>
      </trkpt>
      <trkpt lat="49.4267" lon="5.75906">
        <ele>271.60000610352</ele>
        <time>2022-09-13T12:27:40.000Z</time>
      </trkpt>
      <trkpt lat="49.42674" lon="5.759">
        <ele>271.39999389648</ele>
        <time>2022-09-13T12:27:41.000Z</time>
      </trkpt>
      <trkpt lat="49.42676" lon="5.75898">
        <ele>271.39999389648</ele>
        <time>2022-09-13T12:27:42.000Z</time>
      </trkpt>
      <trkpt lat="49.42678" lon="5.75896">
        <ele>271.39999389648</ele>
        <time>2022-09-13T12:27:43.000Z</time>
      </trkpt>
      <trkpt lat="49.42678" lon="5.75896">
        <ele>271.20001220703</ele>
        <time>2022-09-13T12:27:44.000Z</time>
      </trkpt>
      <trkpt lat="49.42683" lon="5.75891">
        <ele>271.20001220703</ele>
        <time>2022-09-13T12:27:45.000Z</time>
      </trkpt>
      <trkpt lat="49.42686" lon="5.75888">
        <ele>271.20001220703</ele>
        <time>2022-09-13T12:27:46.000Z</time>
      </trkpt>
      <trkpt lat="49.4269" lon="5.75883">
        <ele>271.20001220703</ele>
        <time>2022-09-13T12:27:47.000Z</time>
      </trkpt>
      <trkpt lat="49.42693" lon="5.7588">
        <ele>271.20001220703</ele>
        <time>2022-09-13T12:27:48.000Z</time>
      </trkpt>
      <trkpt lat="49.42701" lon="5.75872">
        <ele>271.20001220703</ele>
        <time>2022-09-13T12:27:51.000Z</time>
      </trkpt>
      <trkpt lat="49.42709" lon="5.75866">
        <ele>271.20001220703</ele>
        <time>2022-09-13T12:27:53.000Z</time>
      </trkpt>
      <trkpt lat="49.42718" lon="5.75858">
        <ele>271.39999389648</ele>
        <time>2022-09-13T12:27:56.000Z</time>
      </trkpt>
      <trkpt lat="49.42721" lon="5.75855">
        <ele>271.79998779297</ele>
        <time>2022-09-13T12:27:58.000Z</time>
      </trkpt>
      <trkpt lat="49.42721" lon="5.75855">
        <ele>271.79998779297</ele>
        <time>2022-09-13T12:27:59.000Z</time>
      </trkpt>
      <trkpt lat="49.4273" lon="5.7585">
        <ele>272.39999389648</ele>
        <time>2022-09-13T12:28:01.000Z</time>
      </trkpt>
      <trkpt lat="49.4273" lon="5.7585">
        <ele>272.60000610352</ele>
        <time>2022-09-13T12:28:02.000Z</time>
      </trkpt>
      <trkpt lat="49.42741" lon="5.75844">
        <ele>273</ele>
        <time>2022-09-13T12:28:04.000Z</time>
      </trkpt>
      <trkpt lat="49.42743" lon="5.75843">
        <ele>273</ele>
        <time>2022-09-13T12:28:05.000Z</time>
      </trkpt>
      <trkpt lat="49.42747" lon="5.75842">
        <ele>273.20001220703</ele>
        <time>2022-09-13T12:28:06.000Z</time>
      </trkpt>
      <trkpt lat="49.42751" lon="5.75841">
        <ele>273.39999389648</ele>
        <time>2022-09-13T12:28:07.000Z</time>
      </trkpt>
      <trkpt lat="49.42754" lon="5.75839">
        <ele>273.60000610352</ele>
        <time>2022-09-13T12:28:08.000Z</time>
      </trkpt>
      <trkpt lat="49.42757" lon="5.75838">
        <ele>273.60000610352</ele>
        <time>2022-09-13T12:28:09.000Z</time>
      </trkpt>
      <trkpt lat="49.42772" lon="5.7583">
        <ele>274.60000610352</ele>
        <time>2022-09-13T12:28:15.000Z</time>
      </trkpt>
      <trkpt lat="49.42776" lon="5.75827">
        <ele>274.79998779297</ele>
        <time>2022-09-13T12:28:16.000Z</time>
      </trkpt>
      <trkpt lat="49.42779" lon="5.75826">
        <ele>274.79998779297</ele>
        <time>2022-09-13T12:28:17.000Z</time>
      </trkpt>
      <trkpt lat="49.42779" lon="5.75826">
        <ele>275</ele>
        <time>2022-09-13T12:28:18.000Z</time>
      </trkpt>
      <trkpt lat="49.42786" lon="5.75821">
        <ele>275</ele>
        <time>2022-09-13T12:28:19.000Z</time>
      </trkpt>
      <trkpt lat="49.42789" lon="5.7582">
        <ele>275.20001220703</ele>
        <time>2022-09-13T12:28:20.000Z</time>
      </trkpt>
      <trkpt lat="49.42789" lon="5.7582">
        <ele>275.20001220703</ele>
        <time>2022-09-13T12:28:21.000Z</time>
      </trkpt>
      <trkpt lat="49.42791" lon="5.75818">
        <ele>275.39999389648</ele>
        <time>2022-09-13T12:28:22.000Z</time>
      </trkpt>
      <trkpt lat="49.42798" lon="5.75812">
        <ele>275.39999389648</ele>
        <time>2022-09-13T12:28:23.000Z</time>
      </trkpt>
      <trkpt lat="49.42801" lon="5.7581">
        <ele>275.60000610352</ele>
        <time>2022-09-13T12:28:24.000Z</time>
      </trkpt>
      <trkpt lat="49.42804" lon="5.75807">
        <ele>275.60000610352</ele>
        <time>2022-09-13T12:28:25.000Z</time>
      </trkpt>
      <trkpt lat="49.42806" lon="5.75808">
        <ele>275.60000610352</ele>
        <time>2022-09-13T12:28:26.000Z</time>
      </trkpt>
      <trkpt lat="49.42808" lon="5.75808">
        <ele>275.60000610352</ele>
        <time>2022-09-13T12:28:27.000Z</time>
      </trkpt>
      <trkpt lat="49.42808" lon="5.75808">
        <ele>275.60000610352</ele>
        <time>2022-09-13T12:28:28.000Z</time>
      </trkpt>
      <trkpt lat="49.42813" lon="5.75802">
        <ele>275.60000610352</ele>
        <time>2022-09-13T12:28:29.000Z</time>
      </trkpt>
      <trkpt lat="49.42817" lon="5.75798">
        <ele>275.60000610352</ele>
        <time>2022-09-13T12:28:30.000Z</time>
      </trkpt>
      <trkpt lat="49.42817" lon="5.75798">
        <ele>275.60000610352</ele>
        <time>2022-09-13T12:28:31.000Z</time>
      </trkpt>
      <trkpt lat="49.42824" lon="5.75786">
        <ele>275.39999389648</ele>
        <time>2022-09-13T12:28:32.000Z</time>
      </trkpt>
      <trkpt lat="49.42829" lon="5.7578">
        <ele>275.20001220703</ele>
        <time>2022-09-13T12:28:33.000Z</time>
      </trkpt>
      <trkpt lat="49.42829" lon="5.7578">
        <ele>275.20001220703</ele>
        <time>2022-09-13T12:28:34.000Z</time>
      </trkpt>
      <trkpt lat="49.42837" lon="5.75769">
        <ele>275</ele>
        <time>2022-09-13T12:28:35.000Z</time>
      </trkpt>
      <trkpt lat="49.4285" lon="5.75747">
        <ele>273.60000610352</ele>
        <time>2022-09-13T12:28:39.000Z</time>
      </trkpt>
      <trkpt lat="49.42853" lon="5.75742">
        <ele>273.20001220703</ele>
        <time>2022-09-13T12:28:40.000Z</time>
      </trkpt>
      <trkpt lat="49.42853" lon="5.75742">
        <ele>272.79998779297</ele>
        <time>2022-09-13T12:28:41.000Z</time>
      </trkpt>
      <trkpt lat="49.42857" lon="5.75729">
        <ele>272.39999389648</ele>
        <time>2022-09-13T12:28:42.000Z</time>
      </trkpt>
      <trkpt lat="49.4286" lon="5.75718">
        <ele>272</ele>
        <time>2022-09-13T12:28:43.000Z</time>
      </trkpt>
      <trkpt lat="49.4286" lon="5.75718">
        <ele>271.79998779297</ele>
        <time>2022-09-13T12:28:44.000Z</time>
      </trkpt>
      <trkpt lat="49.42873" lon="5.75685">
        <ele>271.39999389648</ele>
        <time>2022-09-13T12:28:47.000Z</time>
      </trkpt>
      <trkpt lat="49.42878" lon="5.75677">
        <ele>271.20001220703</ele>
        <time>2022-09-13T12:28:49.000Z</time>
      </trkpt>
      <trkpt lat="49.42879" lon="5.75673">
        <ele>271.20001220703</ele>
        <time>2022-09-13T12:28:50.000Z</time>
      </trkpt>
      <trkpt lat="49.42879" lon="5.75673">
        <ele>271.20001220703</ele>
        <time>2022-09-13T12:28:51.000Z</time>
      </trkpt>
      <trkpt lat="49.4288" lon="5.75663">
        <ele>271</ele>
        <time>2022-09-13T12:28:52.000Z</time>
      </trkpt>
      <trkpt lat="49.4288" lon="5.75659">
        <ele>270.79998779297</ele>
        <time>2022-09-13T12:28:53.000Z</time>
      </trkpt>
      <trkpt lat="49.42881" lon="5.75654">
        <ele>270.39999389648</ele>
        <time>2022-09-13T12:28:54.000Z</time>
      </trkpt>
      <trkpt lat="49.42881" lon="5.75649">
        <ele>270.20001220703</ele>
        <time>2022-09-13T12:28:55.000Z</time>
      </trkpt>
      <trkpt lat="49.4288" lon="5.75644">
        <ele>269.79998779297</ele>
        <time>2022-09-13T12:28:57.000Z</time>
      </trkpt>
      <trkpt lat="49.42883" lon="5.75635">
        <ele>269.79998779297</ele>
        <time>2022-09-13T12:28:58.000Z</time>
      </trkpt>
      <trkpt lat="49.42885" lon="5.75629">
        <ele>269.60000610352</ele>
        <time>2022-09-13T12:28:59.000Z</time>
      </trkpt>
      <trkpt lat="49.42885" lon="5.75629">
        <ele>269.60000610352</ele>
        <time>2022-09-13T12:29:00.000Z</time>
      </trkpt>
      <trkpt lat="49.42883" lon="5.75613">
        <ele>269.20001220703</ele>
        <time>2022-09-13T12:29:03.000Z</time>
      </trkpt>
      <trkpt lat="49.42883" lon="5.75613">
        <ele>269</ele>
        <time>2022-09-13T12:29:04.000Z</time>
      </trkpt>
      <trkpt lat="49.42879" lon="5.75601">
        <ele>269</ele>
        <time>2022-09-13T12:29:06.000Z</time>
      </trkpt>
      <trkpt lat="49.42881" lon="5.75596">
        <ele>269</ele>
        <time>2022-09-13T12:29:07.000Z</time>
      </trkpt>
      <trkpt lat="49.42883" lon="5.75593">
        <ele>269.20001220703</ele>
        <time>2022-09-13T12:29:08.000Z</time>
      </trkpt>
      <trkpt lat="49.42883" lon="5.75593">
        <ele>269.20001220703</ele>
        <time>2022-09-13T12:29:09.000Z</time>
      </trkpt>
      <trkpt lat="49.42881" lon="5.75566">
        <ele>269.79998779297</ele>
        <time>2022-09-13T12:29:13.000Z</time>
      </trkpt>
      <trkpt lat="49.4288" lon="5.7556">
        <ele>270</ele>
        <time>2022-09-13T12:29:14.000Z</time>
      </trkpt>
      <trkpt lat="49.42881" lon="5.75538">
        <ele>269.79998779297</ele>
        <time>2022-09-13T12:29:18.000Z</time>
      </trkpt>
      <trkpt lat="49.42881" lon="5.75538">
        <ele>269.79998779297</ele>
        <time>2022-09-13T12:29:19.000Z</time>
      </trkpt>
      <trkpt lat="49.42882" lon="5.75533">
        <ele>269.79998779297</ele>
        <time>2022-09-13T12:29:20.000Z</time>
      </trkpt>
      <trkpt lat="49.42881" lon="5.75523">
        <ele>269.79998779297</ele>
        <time>2022-09-13T12:29:21.000Z</time>
      </trkpt>
      <trkpt lat="49.4288" lon="5.75509">
        <ele>269.39999389648</ele>
        <time>2022-09-13T12:29:25.000Z</time>
      </trkpt>
      <trkpt lat="49.42879" lon="5.75503">
        <ele>269.39999389648</ele>
        <time>2022-09-13T12:29:26.000Z</time>
      </trkpt>
      <trkpt lat="49.42878" lon="5.75499">
        <ele>269.39999389648</ele>
        <time>2022-09-13T12:29:27.000Z</time>
      </trkpt>
      <trkpt lat="49.42878" lon="5.75496">
        <ele>269.39999389648</ele>
        <time>2022-09-13T12:29:28.000Z</time>
      </trkpt>
      <trkpt lat="49.42878" lon="5.75487">
        <ele>269.20001220703</ele>
        <time>2022-09-13T12:29:30.000Z</time>
      </trkpt>
      <trkpt lat="49.42878" lon="5.75487">
        <ele>269.20001220703</ele>
        <time>2022-09-13T12:29:31.000Z</time>
      </trkpt>
      <trkpt lat="49.42877" lon="5.75483">
        <ele>269.20001220703</ele>
        <time>2022-09-13T12:29:32.000Z</time>
      </trkpt>
      <trkpt lat="49.42876" lon="5.7548">
        <ele>269.20001220703</ele>
        <time>2022-09-13T12:29:33.000Z</time>
      </trkpt>
      <trkpt lat="49.42874" lon="5.75472">
        <ele>269</ele>
        <time>2022-09-13T12:29:34.000Z</time>
      </trkpt>
      <trkpt lat="49.42873" lon="5.75467">
        <ele>269</ele>
        <time>2022-09-13T12:29:35.000Z</time>
      </trkpt>
      <trkpt lat="49.42873" lon="5.75467">
        <ele>269</ele>
        <time>2022-09-13T12:29:36.000Z</time>
      </trkpt>
      <trkpt lat="49.42868" lon="5.75448">
        <ele>268.79998779297</ele>
        <time>2022-09-13T12:29:40.000Z</time>
      </trkpt>
      <trkpt lat="49.42865" lon="5.75441">
        <ele>268.79998779297</ele>
        <time>2022-09-13T12:29:42.000Z</time>
      </trkpt>
      <trkpt lat="49.42863" lon="5.75434">
        <ele>268.60000610352</ele>
        <time>2022-09-13T12:29:44.000Z</time>
      </trkpt>
      <trkpt lat="49.42862" lon="5.75431">
        <ele>268.60000610352</ele>
        <time>2022-09-13T12:29:45.000Z</time>
      </trkpt>
      <trkpt lat="49.42861" lon="5.75428">
        <ele>268.79998779297</ele>
        <time>2022-09-13T12:29:46.000Z</time>
      </trkpt>
      <trkpt lat="49.4286" lon="5.75426">
        <ele>268.79998779297</ele>
        <time>2022-09-13T12:29:47.000Z</time>
      </trkpt>
      <trkpt lat="49.4286" lon="5.75423">
        <ele>268.79998779297</ele>
        <time>2022-09-13T12:29:48.000Z</time>
      </trkpt>
      <trkpt lat="49.42859" lon="5.7542">
        <ele>268.79998779297</ele>
        <time>2022-09-13T12:29:49.000Z</time>
      </trkpt>
      <trkpt lat="49.42858" lon="5.75418">
        <ele>268.79998779297</ele>
        <time>2022-09-13T12:29:50.000Z</time>
      </trkpt>
      <trkpt lat="49.42856" lon="5.75415">
        <ele>268.79998779297</ele>
        <time>2022-09-13T12:29:51.000Z</time>
      </trkpt>
      <trkpt lat="49.42855" lon="5.75412">
        <ele>269</ele>
        <time>2022-09-13T12:29:52.000Z</time>
      </trkpt>
      <trkpt lat="49.42854" lon="5.75408">
        <ele>269</ele>
        <time>2022-09-13T12:29:53.000Z</time>
      </trkpt>
      <trkpt lat="49.42853" lon="5.75405">
        <ele>269</ele>
        <time>2022-09-13T12:29:54.000Z</time>
      </trkpt>
      <trkpt lat="49.42851" lon="5.75402">
        <ele>269</ele>
        <time>2022-09-13T12:29:55.000Z</time>
      </trkpt>
      <trkpt lat="49.4285" lon="5.75399">
        <ele>269</ele>
        <time>2022-09-13T12:29:56.000Z</time>
      </trkpt>
      <trkpt lat="49.42849" lon="5.75397">
        <ele>268.79998779297</ele>
        <time>2022-09-13T12:29:57.000Z</time>
      </trkpt>
      <trkpt lat="49.42849" lon="5.75397">
        <ele>268.79998779297</ele>
        <time>2022-09-13T12:29:58.000Z</time>
      </trkpt>
      <trkpt lat="49.42843" lon="5.75379">
        <ele>268.79998779297</ele>
        <time>2022-09-13T12:30:03.000Z</time>
      </trkpt>
      <trkpt lat="49.4284" lon="5.75372">
        <ele>268.79998779297</ele>
        <time>2022-09-13T12:30:04.000Z</time>
      </trkpt>
      <trkpt lat="49.42839" lon="5.75366">
        <ele>268.79998779297</ele>
        <time>2022-09-13T12:30:05.000Z</time>
      </trkpt>
      <trkpt lat="49.42836" lon="5.75357">
        <ele>268.79998779297</ele>
        <time>2022-09-13T12:30:07.000Z</time>
      </trkpt>
      <trkpt lat="49.42831" lon="5.75345">
        <ele>269</ele>
        <time>2022-09-13T12:30:10.000Z</time>
      </trkpt>
      <trkpt lat="49.4283" lon="5.75334">
        <ele>269.20001220703</ele>
        <time>2022-09-13T12:30:12.000Z</time>
      </trkpt>
      <trkpt lat="49.42829" lon="5.75328">
        <ele>269.20001220703</ele>
        <time>2022-09-13T12:30:13.000Z</time>
      </trkpt>
      <trkpt lat="49.42826" lon="5.75323">
        <ele>269.20001220703</ele>
        <time>2022-09-13T12:30:15.000Z</time>
      </trkpt>
      <trkpt lat="49.42824" lon="5.75322">
        <ele>269.20001220703</ele>
        <time>2022-09-13T12:30:16.000Z</time>
      </trkpt>
      <trkpt lat="49.42822" lon="5.75319">
        <ele>269.20001220703</ele>
        <time>2022-09-13T12:30:17.000Z</time>
      </trkpt>
      <trkpt lat="49.42822" lon="5.75317">
        <ele>269.20001220703</ele>
        <time>2022-09-13T12:30:18.000Z</time>
      </trkpt>
      <trkpt lat="49.42822" lon="5.75317">
        <ele>269.20001220703</ele>
        <time>2022-09-13T12:30:19.000Z</time>
      </trkpt>
      <trkpt lat="49.42822" lon="5.75315">
        <ele>269.20001220703</ele>
        <time>2022-09-13T12:30:20.000Z</time>
      </trkpt>
      <trkpt lat="49.42823" lon="5.75312">
        <ele>269</ele>
        <time>2022-09-13T12:30:21.000Z</time>
      </trkpt>
      <trkpt lat="49.42823" lon="5.75312">
        <ele>269</ele>
        <time>2022-09-13T12:30:22.000Z</time>
      </trkpt>
      <trkpt lat="49.42824" lon="5.75313">
        <ele>269</ele>
        <time>2022-09-13T12:30:23.000Z</time>
      </trkpt>
      <trkpt lat="49.42824" lon="5.75315">
        <ele>269</ele>
        <time>2022-09-13T12:30:24.000Z</time>
      </trkpt>
      <trkpt lat="49.42824" lon="5.75318">
        <ele>269</ele>
        <time>2022-09-13T12:30:25.000Z</time>
      </trkpt>
      <trkpt lat="49.42824" lon="5.75321">
        <ele>269</ele>
        <time>2022-09-13T12:30:26.000Z</time>
      </trkpt>
      <trkpt lat="49.42822" lon="5.75325">
        <ele>269</ele>
        <time>2022-09-13T12:30:27.000Z</time>
      </trkpt>
      <trkpt lat="49.42821" lon="5.75329">
        <ele>269</ele>
        <time>2022-09-13T12:30:28.000Z</time>
      </trkpt>
      <trkpt lat="49.42821" lon="5.75329">
        <ele>269</ele>
        <time>2022-09-13T12:30:29.000Z</time>
      </trkpt>
      <trkpt lat="49.42817" lon="5.75336">
        <ele>269</ele>
        <time>2022-09-13T12:30:30.000Z</time>
      </trkpt>
      <trkpt lat="49.42817" lon="5.75339">
        <ele>269</ele>
        <time>2022-09-13T12:30:32.000Z</time>
      </trkpt>
      <trkpt lat="49.42813" lon="5.75346">
        <ele>269</ele>
        <time>2022-09-13T12:30:33.000Z</time>
      </trkpt>
      <trkpt lat="49.42807" lon="5.75353">
        <ele>269.20001220703</ele>
        <time>2022-09-13T12:30:36.000Z</time>
      </trkpt>
      <trkpt lat="49.42802" lon="5.75362">
        <ele>269.20001220703</ele>
        <time>2022-09-13T12:30:39.000Z</time>
      </trkpt>
      <trkpt lat="49.428" lon="5.75367">
        <ele>269.20001220703</ele>
        <time>2022-09-13T12:30:40.000Z</time>
      </trkpt>
      <trkpt lat="49.428" lon="5.75367">
        <ele>269.20001220703</ele>
        <time>2022-09-13T12:30:41.000Z</time>
      </trkpt>
      <trkpt lat="49.42796" lon="5.75371">
        <ele>269.20001220703</ele>
        <time>2022-09-13T12:30:42.000Z</time>
      </trkpt>
      <trkpt lat="49.42782" lon="5.75396">
        <ele>269.79998779297</ele>
        <time>2022-09-13T12:30:50.000Z</time>
      </trkpt>
      <trkpt lat="49.42781" lon="5.75399">
        <ele>269.79998779297</ele>
        <time>2022-09-13T12:30:51.000Z</time>
      </trkpt>
      <trkpt lat="49.42781" lon="5.75402">
        <ele>270.20001220703</ele>
        <time>2022-09-13T12:30:52.000Z</time>
      </trkpt>
      <trkpt lat="49.42781" lon="5.75405">
        <ele>270.20001220703</ele>
        <time>2022-09-13T12:30:53.000Z</time>
      </trkpt>
      <trkpt lat="49.4278" lon="5.75408">
        <ele>270.39999389648</ele>
        <time>2022-09-13T12:30:54.000Z</time>
      </trkpt>
      <trkpt lat="49.4278" lon="5.75412">
        <ele>270.39999389648</ele>
        <time>2022-09-13T12:30:55.000Z</time>
      </trkpt>
      <trkpt lat="49.42779" lon="5.75422">
        <ele>271.20001220703</ele>
        <time>2022-09-13T12:30:59.000Z</time>
      </trkpt>
      <trkpt lat="49.42779" lon="5.75422">
        <ele>271.39999389648</ele>
        <time>2022-09-13T12:31:00.000Z</time>
      </trkpt>
      <trkpt lat="49.4278" lon="5.75427">
        <ele>271.60000610352</ele>
        <time>2022-09-13T12:31:01.000Z</time>
      </trkpt>
      <trkpt lat="49.4278" lon="5.75431">
        <ele>271.60000610352</ele>
        <time>2022-09-13T12:31:02.000Z</time>
      </trkpt>
      <trkpt lat="49.4278" lon="5.75431">
        <ele>271.79998779297</ele>
        <time>2022-09-13T12:31:03.000Z</time>
      </trkpt>
      <trkpt lat="49.42779" lon="5.75436">
        <ele>272.20001220703</ele>
        <time>2022-09-13T12:31:04.000Z</time>
      </trkpt>
      <trkpt lat="49.42779" lon="5.75443">
        <ele>272.39999389648</ele>
        <time>2022-09-13T12:31:05.000Z</time>
      </trkpt>
      <trkpt lat="49.42779" lon="5.75443">
        <ele>273</ele>
        <time>2022-09-13T12:31:06.000Z</time>
      </trkpt>
      <trkpt lat="49.42779" lon="5.75446">
        <ele>273.20001220703</ele>
        <time>2022-09-13T12:31:07.000Z</time>
      </trkpt>
      <trkpt lat="49.4278" lon="5.75451">
        <ele>273.79998779297</ele>
        <time>2022-09-13T12:31:08.000Z</time>
      </trkpt>
      <trkpt lat="49.4278" lon="5.75453">
        <ele>274</ele>
        <time>2022-09-13T12:31:09.000Z</time>
      </trkpt>
      <trkpt lat="49.42781" lon="5.75454">
        <ele>274.20001220703</ele>
        <time>2022-09-13T12:31:10.000Z</time>
      </trkpt>
      <trkpt lat="49.42781" lon="5.75456">
        <ele>274.60000610352</ele>
        <time>2022-09-13T12:31:11.000Z</time>
      </trkpt>
      <trkpt lat="49.4278" lon="5.75459">
        <ele>274.79998779297</ele>
        <time>2022-09-13T12:31:12.000Z</time>
      </trkpt>
      <trkpt lat="49.42778" lon="5.75463">
        <ele>275.20001220703</ele>
        <time>2022-09-13T12:31:13.000Z</time>
      </trkpt>
      <trkpt lat="49.42778" lon="5.75463">
        <ele>275.60000610352</ele>
        <time>2022-09-13T12:31:14.000Z</time>
      </trkpt>
      <trkpt lat="49.42774" lon="5.75474">
        <ele>276</ele>
        <time>2022-09-13T12:31:15.000Z</time>
      </trkpt>
      <trkpt lat="49.42771" lon="5.75477">
        <ele>276.39999389648</ele>
        <time>2022-09-13T12:31:16.000Z</time>
      </trkpt>
      <trkpt lat="49.4277" lon="5.75479">
        <ele>277</ele>
        <time>2022-09-13T12:31:17.000Z</time>
      </trkpt>
      <trkpt lat="49.4277" lon="5.75479">
        <ele>277.39999389648</ele>
        <time>2022-09-13T12:31:18.000Z</time>
      </trkpt>
      <trkpt lat="49.42769" lon="5.75481">
        <ele>278</ele>
        <time>2022-09-13T12:31:19.000Z</time>
      </trkpt>
      <trkpt lat="49.42768" lon="5.75484">
        <ele>278.39999389648</ele>
        <time>2022-09-13T12:31:20.000Z</time>
      </trkpt>
      <trkpt lat="49.42768" lon="5.75484">
        <ele>278.60000610352</ele>
        <time>2022-09-13T12:31:21.000Z</time>
      </trkpt>
      <trkpt lat="49.42766" lon="5.75487">
        <ele>279.20001220703</ele>
        <time>2022-09-13T12:31:22.000Z</time>
      </trkpt>
      <trkpt lat="49.42766" lon="5.75489">
        <ele>279.60000610352</ele>
        <time>2022-09-13T12:31:23.000Z</time>
      </trkpt>
      <trkpt lat="49.42765" lon="5.7549">
        <ele>280.20001220703</ele>
        <time>2022-09-13T12:31:24.000Z</time>
      </trkpt>
      <trkpt lat="49.42765" lon="5.7549">
        <ele>280.39999389648</ele>
        <time>2022-09-13T12:31:25.000Z</time>
      </trkpt>
      <trkpt lat="49.42765" lon="5.75495">
        <ele>281</ele>
        <time>2022-09-13T12:31:26.000Z</time>
      </trkpt>
      <trkpt lat="49.42765" lon="5.75495">
        <ele>281.39999389648</ele>
        <time>2022-09-13T12:31:27.000Z</time>
      </trkpt>
      <trkpt lat="49.42765" lon="5.75498">
        <ele>281.79998779297</ele>
        <time>2022-09-13T12:31:28.000Z</time>
      </trkpt>
      <trkpt lat="49.42764" lon="5.75503">
        <ele>282.39999389648</ele>
        <time>2022-09-13T12:31:29.000Z</time>
      </trkpt>
      <trkpt lat="49.42764" lon="5.75507">
        <ele>282.39999389648</ele>
        <time>2022-09-13T12:31:30.000Z</time>
      </trkpt>
      <trkpt lat="49.42764" lon="5.75511">
        <ele>283.20001220703</ele>
        <time>2022-09-13T12:31:31.000Z</time>
      </trkpt>
      <trkpt lat="49.42764" lon="5.75512">
        <ele>283.39999389648</ele>
        <time>2022-09-13T12:31:32.000Z</time>
      </trkpt>
      <trkpt lat="49.42764" lon="5.75514">
        <ele>284</ele>
        <time>2022-09-13T12:31:33.000Z</time>
      </trkpt>
      <trkpt lat="49.42764" lon="5.75516">
        <ele>284.39999389648</ele>
        <time>2022-09-13T12:31:34.000Z</time>
      </trkpt>
      <trkpt lat="49.42764" lon="5.75516">
        <ele>284.60000610352</ele>
        <time>2022-09-13T12:31:35.000Z</time>
      </trkpt>
      <trkpt lat="49.42764" lon="5.75516">
        <ele>285.20001220703</ele>
        <time>2022-09-13T12:31:36.000Z</time>
      </trkpt>
      <trkpt lat="49.42764" lon="5.75516">
        <ele>285.60000610352</ele>
        <time>2022-09-13T12:31:37.000Z</time>
      </trkpt>
      <trkpt lat="49.42763" lon="5.75521">
        <ele>286.20001220703</ele>
        <time>2022-09-13T12:31:38.000Z</time>
      </trkpt>
      <trkpt lat="49.42763" lon="5.75521">
        <ele>286.39999389648</ele>
        <time>2022-09-13T12:31:39.000Z</time>
      </trkpt>
      <trkpt lat="49.42762" lon="5.75525">
        <ele>287</ele>
        <time>2022-09-13T12:31:40.000Z</time>
      </trkpt>
      <trkpt lat="49.42762" lon="5.75527">
        <ele>287.20001220703</ele>
        <time>2022-09-13T12:31:41.000Z</time>
      </trkpt>
      <trkpt lat="49.42761" lon="5.75527">
        <ele>287.60000610352</ele>
        <time>2022-09-13T12:31:42.000Z</time>
      </trkpt>
      <trkpt lat="49.4276" lon="5.7553">
        <ele>288.20001220703</ele>
        <time>2022-09-13T12:31:43.000Z</time>
      </trkpt>
      <trkpt lat="49.4276" lon="5.7553">
        <ele>288.39999389648</ele>
        <time>2022-09-13T12:31:44.000Z</time>
      </trkpt>
      <trkpt lat="49.42759" lon="5.75538">
        <ele>288.79998779297</ele>
        <time>2022-09-13T12:31:45.000Z</time>
      </trkpt>
      <trkpt lat="49.42758" lon="5.75543">
        <ele>289.39999389648</ele>
        <time>2022-09-13T12:31:46.000Z</time>
      </trkpt>
      <trkpt lat="49.42757" lon="5.75546">
        <ele>290.20001220703</ele>
        <time>2022-09-13T12:31:47.000Z</time>
      </trkpt>
      <trkpt lat="49.42756" lon="5.75549">
        <ele>290.60000610352</ele>
        <time>2022-09-13T12:31:48.000Z</time>
      </trkpt>
      <trkpt lat="49.42756" lon="5.75549">
        <ele>291</ele>
        <time>2022-09-13T12:31:49.000Z</time>
      </trkpt>
      <trkpt lat="49.42751" lon="5.75556">
        <ele>291.60000610352</ele>
        <time>2022-09-13T12:31:50.000Z</time>
      </trkpt>
      <trkpt lat="49.42749" lon="5.75557">
        <ele>291.60000610352</ele>
        <time>2022-09-13T12:31:51.000Z</time>
      </trkpt>
      <trkpt lat="49.42748" lon="5.75559">
        <ele>292.20001220703</ele>
        <time>2022-09-13T12:31:52.000Z</time>
      </trkpt>
      <trkpt lat="49.42745" lon="5.75564">
        <ele>292.39999389648</ele>
        <time>2022-09-13T12:31:53.000Z</time>
      </trkpt>
      <trkpt lat="49.42744" lon="5.75567">
        <ele>293</ele>
        <time>2022-09-13T12:31:54.000Z</time>
      </trkpt>
      <trkpt lat="49.42742" lon="5.7557">
        <ele>293.20001220703</ele>
        <time>2022-09-13T12:31:55.000Z</time>
      </trkpt>
      <trkpt lat="49.4274" lon="5.75572">
        <ele>293.60000610352</ele>
        <time>2022-09-13T12:31:56.000Z</time>
      </trkpt>
      <trkpt lat="49.4274" lon="5.75572">
        <ele>294.39999389648</ele>
        <time>2022-09-13T12:31:57.000Z</time>
      </trkpt>
      <trkpt lat="49.42738" lon="5.75577">
        <ele>294.79998779297</ele>
        <time>2022-09-13T12:31:58.000Z</time>
      </trkpt>
      <trkpt lat="49.42736" lon="5.75579">
        <ele>295.39999389648</ele>
        <time>2022-09-13T12:31:59.000Z</time>
      </trkpt>
      <trkpt lat="49.42733" lon="5.75581">
        <ele>295.60000610352</ele>
        <time>2022-09-13T12:32:00.000Z</time>
      </trkpt>
      <trkpt lat="49.42733" lon="5.75582">
        <ele>296.20001220703</ele>
        <time>2022-09-13T12:32:01.000Z</time>
      </trkpt>
      <trkpt lat="49.42733" lon="5.75582">
        <ele>296.39999389648</ele>
        <time>2022-09-13T12:32:02.000Z</time>
      </trkpt>
      <trkpt lat="49.4273" lon="5.75587">
        <ele>296.60000610352</ele>
        <time>2022-09-13T12:32:03.000Z</time>
      </trkpt>
      <trkpt lat="49.4273" lon="5.75587">
        <ele>296.79998779297</ele>
        <time>2022-09-13T12:32:04.000Z</time>
      </trkpt>
      <trkpt lat="49.42727" lon="5.75594">
        <ele>297.20001220703</ele>
        <time>2022-09-13T12:32:05.000Z</time>
      </trkpt>
      <trkpt lat="49.42726" lon="5.75596">
        <ele>297.60000610352</ele>
        <time>2022-09-13T12:32:06.000Z</time>
      </trkpt>
      <trkpt lat="49.42726" lon="5.75596">
        <ele>297.79998779297</ele>
        <time>2022-09-13T12:32:07.000Z</time>
      </trkpt>
      <trkpt lat="49.42725" lon="5.75598">
        <ele>298.20001220703</ele>
        <time>2022-09-13T12:32:08.000Z</time>
      </trkpt>
      <trkpt lat="49.42723" lon="5.75598">
        <ele>298.39999389648</ele>
        <time>2022-09-13T12:32:09.000Z</time>
      </trkpt>
      <trkpt lat="49.4272" lon="5.75598">
        <ele>298.60000610352</ele>
        <time>2022-09-13T12:32:10.000Z</time>
      </trkpt>
      <trkpt lat="49.4272" lon="5.75598">
        <ele>298.79998779297</ele>
        <time>2022-09-13T12:32:11.000Z</time>
      </trkpt>
      <trkpt lat="49.42715" lon="5.75601">
        <ele>299.39999389648</ele>
        <time>2022-09-13T12:32:12.000Z</time>
      </trkpt>
      <trkpt lat="49.42714" lon="5.75602">
        <ele>299.79998779297</ele>
        <time>2022-09-13T12:32:13.000Z</time>
      </trkpt>
      <trkpt lat="49.42713" lon="5.75603">
        <ele>299.79998779297</ele>
        <time>2022-09-13T12:32:14.000Z</time>
      </trkpt>
      <trkpt lat="49.42713" lon="5.75603">
        <ele>300.39999389648</ele>
        <time>2022-09-13T12:32:15.000Z</time>
      </trkpt>
      <trkpt lat="49.42713" lon="5.75603">
        <ele>300.79998779297</ele>
        <time>2022-09-13T12:32:16.000Z</time>
      </trkpt>
      <trkpt lat="49.42712" lon="5.75604">
        <ele>301.39999389648</ele>
        <time>2022-09-13T12:32:17.000Z</time>
      </trkpt>
      <trkpt lat="49.42711" lon="5.75604">
        <ele>301.79998779297</ele>
        <time>2022-09-13T12:32:18.000Z</time>
      </trkpt>
      <trkpt lat="49.42711" lon="5.75604">
        <ele>302</ele>
        <time>2022-09-13T12:32:19.000Z</time>
      </trkpt>
      <trkpt lat="49.42708" lon="5.75605">
        <ele>302.60000610352</ele>
        <time>2022-09-13T12:32:20.000Z</time>
      </trkpt>
      <trkpt lat="49.42708" lon="5.75605">
        <ele>302.79998779297</ele>
        <time>2022-09-13T12:32:21.000Z</time>
      </trkpt>
      <trkpt lat="49.42704" lon="5.75609">
        <ele>303</ele>
        <time>2022-09-13T12:32:22.000Z</time>
      </trkpt>
      <trkpt lat="49.42704" lon="5.75609">
        <ele>303.20001220703</ele>
        <time>2022-09-13T12:32:23.000Z</time>
      </trkpt>
      <trkpt lat="49.427" lon="5.7561">
        <ele>303.79998779297</ele>
        <time>2022-09-13T12:32:24.000Z</time>
      </trkpt>
      <trkpt lat="49.42699" lon="5.7561">
        <ele>304</ele>
        <time>2022-09-13T12:32:25.000Z</time>
      </trkpt>
      <trkpt lat="49.42699" lon="5.7561">
        <ele>304.20001220703</ele>
        <time>2022-09-13T12:32:26.000Z</time>
      </trkpt>
      <trkpt lat="49.42696" lon="5.75611">
        <ele>304.60000610352</ele>
        <time>2022-09-13T12:32:27.000Z</time>
      </trkpt>
      <trkpt lat="49.42693" lon="5.75612">
        <ele>304.79998779297</ele>
        <time>2022-09-13T12:32:28.000Z</time>
      </trkpt>
      <trkpt lat="49.42693" lon="5.75612">
        <ele>305.20001220703</ele>
        <time>2022-09-13T12:32:29.000Z</time>
      </trkpt>
      <trkpt lat="49.42688" lon="5.75614">
        <ele>305.39999389648</ele>
        <time>2022-09-13T12:32:30.000Z</time>
      </trkpt>
      <trkpt lat="49.42686" lon="5.75614">
        <ele>305.60000610352</ele>
        <time>2022-09-13T12:32:31.000Z</time>
      </trkpt>
      <trkpt lat="49.42685" lon="5.75614">
        <ele>305.79998779297</ele>
        <time>2022-09-13T12:32:32.000Z</time>
      </trkpt>
      <trkpt lat="49.42685" lon="5.75614">
        <ele>306</ele>
        <time>2022-09-13T12:32:33.000Z</time>
      </trkpt>
      <trkpt lat="49.4268" lon="5.75619">
        <ele>306.39999389648</ele>
        <time>2022-09-13T12:32:34.000Z</time>
      </trkpt>
      <trkpt lat="49.42679" lon="5.75621">
        <ele>306.60000610352</ele>
        <time>2022-09-13T12:32:35.000Z</time>
      </trkpt>
      <trkpt lat="49.42677" lon="5.75622">
        <ele>307</ele>
        <time>2022-09-13T12:32:36.000Z</time>
      </trkpt>
      <trkpt lat="49.42675" lon="5.75623">
        <ele>307.20001220703</ele>
        <time>2022-09-13T12:32:37.000Z</time>
      </trkpt>
      <trkpt lat="49.42675" lon="5.75623">
        <ele>307.39999389648</ele>
        <time>2022-09-13T12:32:38.000Z</time>
      </trkpt>
      <trkpt lat="49.42673" lon="5.75623">
        <ele>307.39999389648</ele>
        <time>2022-09-13T12:32:39.000Z</time>
      </trkpt>
      <trkpt lat="49.42672" lon="5.75623">
        <ele>307.79998779297</ele>
        <time>2022-09-13T12:32:40.000Z</time>
      </trkpt>
      <trkpt lat="49.4267" lon="5.75623">
        <ele>308</ele>
        <time>2022-09-13T12:32:41.000Z</time>
      </trkpt>
      <trkpt lat="49.4267" lon="5.75623">
        <ele>308.20001220703</ele>
        <time>2022-09-13T12:32:42.000Z</time>
      </trkpt>
      <trkpt lat="49.42663" lon="5.75626">
        <ele>308.39999389648</ele>
        <time>2022-09-13T12:32:43.000Z</time>
      </trkpt>
      <trkpt lat="49.42659" lon="5.75627">
        <ele>308.60000610352</ele>
        <time>2022-09-13T12:32:44.000Z</time>
      </trkpt>
      <trkpt lat="49.42656" lon="5.75627">
        <ele>308.60000610352</ele>
        <time>2022-09-13T12:32:45.000Z</time>
      </trkpt>
      <trkpt lat="49.42653" lon="5.75627">
        <ele>308.79998779297</ele>
        <time>2022-09-13T12:32:46.000Z</time>
      </trkpt>
      <trkpt lat="49.42651" lon="5.75627">
        <ele>309</ele>
        <time>2022-09-13T12:32:47.000Z</time>
      </trkpt>
      <trkpt lat="49.42648" lon="5.75627">
        <ele>309.20001220703</ele>
        <time>2022-09-13T12:32:48.000Z</time>
      </trkpt>
      <trkpt lat="49.42645" lon="5.75629">
        <ele>309.60000610352</ele>
        <time>2022-09-13T12:32:49.000Z</time>
      </trkpt>
      <trkpt lat="49.42642" lon="5.75632">
        <ele>310</ele>
        <time>2022-09-13T12:32:50.000Z</time>
      </trkpt>
      <trkpt lat="49.4264" lon="5.75631">
        <ele>310</ele>
        <time>2022-09-13T12:32:51.000Z</time>
      </trkpt>
      <trkpt lat="49.4264" lon="5.75631">
        <ele>310.39999389648</ele>
        <time>2022-09-13T12:32:52.000Z</time>
      </trkpt>
      <trkpt lat="49.4264" lon="5.75631">
        <ele>310.60000610352</ele>
        <time>2022-09-13T12:32:53.000Z</time>
      </trkpt>
      <trkpt lat="49.42638" lon="5.75633">
        <ele>310.79998779297</ele>
        <time>2022-09-13T12:32:54.000Z</time>
      </trkpt>
      <trkpt lat="49.42634" lon="5.75634">
        <ele>311</ele>
        <time>2022-09-13T12:32:55.000Z</time>
      </trkpt>
      <trkpt lat="49.42633" lon="5.75635">
        <ele>311.20001220703</ele>
        <time>2022-09-13T12:32:56.000Z</time>
      </trkpt>
      <trkpt lat="49.42632" lon="5.75635">
        <ele>311.79998779297</ele>
        <time>2022-09-13T12:32:57.000Z</time>
      </trkpt>
      <trkpt lat="49.42632" lon="5.75635">
        <ele>311.79998779297</ele>
        <time>2022-09-13T12:32:58.000Z</time>
      </trkpt>
      <trkpt lat="49.42629" lon="5.75635">
        <ele>312.20001220703</ele>
        <time>2022-09-13T12:32:59.000Z</time>
      </trkpt>
      <trkpt lat="49.42629" lon="5.75635">
        <ele>312.20001220703</ele>
        <time>2022-09-13T12:33:00.000Z</time>
      </trkpt>
      <trkpt lat="49.42627" lon="5.75637">
        <ele>312.60000610352</ele>
        <time>2022-09-13T12:33:01.000Z</time>
      </trkpt>
      <trkpt lat="49.42627" lon="5.75637">
        <ele>312.60000610352</ele>
        <time>2022-09-13T12:33:02.000Z</time>
      </trkpt>
      <trkpt lat="49.42621" lon="5.75638">
        <ele>313</ele>
        <time>2022-09-13T12:33:03.000Z</time>
      </trkpt>
      <trkpt lat="49.42619" lon="5.75637">
        <ele>313</ele>
        <time>2022-09-13T12:33:04.000Z</time>
      </trkpt>
      <trkpt lat="49.42617" lon="5.75638">
        <ele>313.39999389648</ele>
        <time>2022-09-13T12:33:05.000Z</time>
      </trkpt>
      <trkpt lat="49.42615" lon="5.75641">
        <ele>313.79998779297</ele>
        <time>2022-09-13T12:33:06.000Z</time>
      </trkpt>
      <trkpt lat="49.42615" lon="5.75641">
        <ele>314</ele>
        <time>2022-09-13T12:33:07.000Z</time>
      </trkpt>
      <trkpt lat="49.42615" lon="5.75641">
        <ele>314.20001220703</ele>
        <time>2022-09-13T12:33:08.000Z</time>
      </trkpt>
      <trkpt lat="49.42611" lon="5.7564">
        <ele>314.39999389648</ele>
        <time>2022-09-13T12:33:09.000Z</time>
      </trkpt>
      <trkpt lat="49.42608" lon="5.7564">
        <ele>314.60000610352</ele>
        <time>2022-09-13T12:33:10.000Z</time>
      </trkpt>
      <trkpt lat="49.42607" lon="5.75642">
        <ele>314.60000610352</ele>
        <time>2022-09-13T12:33:11.000Z</time>
      </trkpt>
      <trkpt lat="49.42603" lon="5.75645">
        <ele>315</ele>
        <time>2022-09-13T12:33:12.000Z</time>
      </trkpt>
      <trkpt lat="49.42601" lon="5.75645">
        <ele>315.20001220703</ele>
        <time>2022-09-13T12:33:13.000Z</time>
      </trkpt>
      <trkpt lat="49.42601" lon="5.75645">
        <ele>315.20001220703</ele>
        <time>2022-09-13T12:33:14.000Z</time>
      </trkpt>
      <trkpt lat="49.42597" lon="5.75644">
        <ele>315.39999389648</ele>
        <time>2022-09-13T12:33:15.000Z</time>
      </trkpt>
      <trkpt lat="49.42594" lon="5.75645">
        <ele>315.60000610352</ele>
        <time>2022-09-13T12:33:16.000Z</time>
      </trkpt>
      <trkpt lat="49.42593" lon="5.75646">
        <ele>315.60000610352</ele>
        <time>2022-09-13T12:33:17.000Z</time>
      </trkpt>
      <trkpt lat="49.42591" lon="5.75646">
        <ele>315.60000610352</ele>
        <time>2022-09-13T12:33:18.000Z</time>
      </trkpt>
      <trkpt lat="49.42591" lon="5.75646">
        <ele>315.79998779297</ele>
        <time>2022-09-13T12:33:19.000Z</time>
      </trkpt>
      <trkpt lat="49.42589" lon="5.75645">
        <ele>316</ele>
        <time>2022-09-13T12:33:20.000Z</time>
      </trkpt>
      <trkpt lat="49.42586" lon="5.75647">
        <ele>316</ele>
        <time>2022-09-13T12:33:21.000Z</time>
      </trkpt>
      <trkpt lat="49.42583" lon="5.75648">
        <ele>316.20001220703</ele>
        <time>2022-09-13T12:33:22.000Z</time>
      </trkpt>
      <trkpt lat="49.4258" lon="5.7565">
        <ele>316.39999389648</ele>
        <time>2022-09-13T12:33:23.000Z</time>
      </trkpt>
      <trkpt lat="49.4258" lon="5.7565">
        <ele>316.60000610352</ele>
        <time>2022-09-13T12:33:24.000Z</time>
      </trkpt>
      <trkpt lat="49.42577" lon="5.75651">
        <ele>316.79998779297</ele>
        <time>2022-09-13T12:33:25.000Z</time>
      </trkpt>
      <trkpt lat="49.42573" lon="5.7565">
        <ele>317</ele>
        <time>2022-09-13T12:33:26.000Z</time>
      </trkpt>
      <trkpt lat="49.42571" lon="5.7565">
        <ele>317.20001220703</ele>
        <time>2022-09-13T12:33:27.000Z</time>
      </trkpt>
      <trkpt lat="49.42569" lon="5.75649">
        <ele>317.39999389648</ele>
        <time>2022-09-13T12:33:28.000Z</time>
      </trkpt>
      <trkpt lat="49.42569" lon="5.75649">
        <ele>317.60000610352</ele>
        <time>2022-09-13T12:33:29.000Z</time>
      </trkpt>
      <trkpt lat="49.42564" lon="5.75651">
        <ele>317.79998779297</ele>
        <time>2022-09-13T12:33:30.000Z</time>
      </trkpt>
      <trkpt lat="49.42564" lon="5.75651">
        <ele>317.79998779297</ele>
        <time>2022-09-13T12:33:31.000Z</time>
      </trkpt>
      <trkpt lat="49.42558" lon="5.75652">
        <ele>318</ele>
        <time>2022-09-13T12:33:32.000Z</time>
      </trkpt>
      <trkpt lat="49.42556" lon="5.75652">
        <ele>318.39999389648</ele>
        <time>2022-09-13T12:33:33.000Z</time>
      </trkpt>
      <trkpt lat="49.42556" lon="5.75652">
        <ele>318.39999389648</ele>
        <time>2022-09-13T12:33:34.000Z</time>
      </trkpt>
      <trkpt lat="49.4255" lon="5.75654">
        <ele>318.79998779297</ele>
        <time>2022-09-13T12:33:35.000Z</time>
      </trkpt>
      <trkpt lat="49.42548" lon="5.75654">
        <ele>319.20001220703</ele>
        <time>2022-09-13T12:33:36.000Z</time>
      </trkpt>
      <trkpt lat="49.42546" lon="5.75652">
        <ele>319.39999389648</ele>
        <time>2022-09-13T12:33:37.000Z</time>
      </trkpt>
      <trkpt lat="49.42544" lon="5.75651">
        <ele>319.39999389648</ele>
        <time>2022-09-13T12:33:38.000Z</time>
      </trkpt>
      <trkpt lat="49.42542" lon="5.7565">
        <ele>319.79998779297</ele>
        <time>2022-09-13T12:33:39.000Z</time>
      </trkpt>
      <trkpt lat="49.42539" lon="5.75653">
        <ele>320.20001220703</ele>
        <time>2022-09-13T12:33:40.000Z</time>
      </trkpt>
      <trkpt lat="49.42536" lon="5.75655">
        <ele>320.39999389648</ele>
        <time>2022-09-13T12:33:41.000Z</time>
      </trkpt>
      <trkpt lat="49.42535" lon="5.75654">
        <ele>320.60000610352</ele>
        <time>2022-09-13T12:33:42.000Z</time>
      </trkpt>
      <trkpt lat="49.42533" lon="5.75654">
        <ele>321</ele>
        <time>2022-09-13T12:33:43.000Z</time>
      </trkpt>
      <trkpt lat="49.42533" lon="5.75654">
        <ele>321.20001220703</ele>
        <time>2022-09-13T12:33:44.000Z</time>
      </trkpt>
      <trkpt lat="49.4253" lon="5.75653">
        <ele>321.60000610352</ele>
        <time>2022-09-13T12:33:45.000Z</time>
      </trkpt>
      <trkpt lat="49.42527" lon="5.75654">
        <ele>321.79998779297</ele>
        <time>2022-09-13T12:33:46.000Z</time>
      </trkpt>
      <trkpt lat="49.42526" lon="5.75652">
        <ele>322.20001220703</ele>
        <time>2022-09-13T12:33:47.000Z</time>
      </trkpt>
      <trkpt lat="49.42525" lon="5.7565">
        <ele>322.39999389648</ele>
        <time>2022-09-13T12:33:48.000Z</time>
      </trkpt>
      <trkpt lat="49.42525" lon="5.7565">
        <ele>323</ele>
        <time>2022-09-13T12:33:49.000Z</time>
      </trkpt>
      <trkpt lat="49.42522" lon="5.75651">
        <ele>323.39999389648</ele>
        <time>2022-09-13T12:33:50.000Z</time>
      </trkpt>
      <trkpt lat="49.4252" lon="5.75652">
        <ele>323.79998779297</ele>
        <time>2022-09-13T12:33:51.000Z</time>
      </trkpt>
      <trkpt lat="49.42518" lon="5.75653">
        <ele>324.20001220703</ele>
        <time>2022-09-13T12:33:52.000Z</time>
      </trkpt>
      <trkpt lat="49.42517" lon="5.75653">
        <ele>324.39999389648</ele>
        <time>2022-09-13T12:33:53.000Z</time>
      </trkpt>
      <trkpt lat="49.42516" lon="5.75653">
        <ele>324.79998779297</ele>
        <time>2022-09-13T12:33:54.000Z</time>
      </trkpt>
      <trkpt lat="49.42515" lon="5.75654">
        <ele>325</ele>
        <time>2022-09-13T12:33:55.000Z</time>
      </trkpt>
      <trkpt lat="49.42511" lon="5.75656">
        <ele>325.20001220703</ele>
        <time>2022-09-13T12:33:56.000Z</time>
      </trkpt>
      <trkpt lat="49.42509" lon="5.75658">
        <ele>325.39999389648</ele>
        <time>2022-09-13T12:33:57.000Z</time>
      </trkpt>
      <trkpt lat="49.42507" lon="5.75661">
        <ele>325.39999389648</ele>
        <time>2022-09-13T12:33:58.000Z</time>
      </trkpt>
      <trkpt lat="49.42505" lon="5.75663">
        <ele>325.60000610352</ele>
        <time>2022-09-13T12:33:59.000Z</time>
      </trkpt>
      <trkpt lat="49.42504" lon="5.75664">
        <ele>325.60000610352</ele>
        <time>2022-09-13T12:34:00.000Z</time>
      </trkpt>
      <trkpt lat="49.42502" lon="5.75665">
        <ele>325.79998779297</ele>
        <time>2022-09-13T12:34:01.000Z</time>
      </trkpt>
      <trkpt lat="49.425" lon="5.75666">
        <ele>325.79998779297</ele>
        <time>2022-09-13T12:34:02.000Z</time>
      </trkpt>
      <trkpt lat="49.42498" lon="5.75667">
        <ele>326</ele>
        <time>2022-09-13T12:34:03.000Z</time>
      </trkpt>
      <trkpt lat="49.42498" lon="5.75667">
        <ele>326</ele>
        <time>2022-09-13T12:34:04.000Z</time>
      </trkpt>
      <trkpt lat="49.42493" lon="5.75671">
        <ele>326.20001220703</ele>
        <time>2022-09-13T12:34:05.000Z</time>
      </trkpt>
      <trkpt lat="49.4249" lon="5.75672">
        <ele>326.20001220703</ele>
        <time>2022-09-13T12:34:06.000Z</time>
      </trkpt>
      <trkpt lat="49.4249" lon="5.75672">
        <ele>326.20001220703</ele>
        <time>2022-09-13T12:34:07.000Z</time>
      </trkpt>
      <trkpt lat="49.42489" lon="5.75672">
        <ele>326.20001220703</ele>
        <time>2022-09-13T12:34:08.000Z</time>
      </trkpt>
      <trkpt lat="49.42487" lon="5.75673">
        <ele>326.20001220703</ele>
        <time>2022-09-13T12:34:09.000Z</time>
      </trkpt>
      <trkpt lat="49.42486" lon="5.75674">
        <ele>326.20001220703</ele>
        <time>2022-09-13T12:34:10.000Z</time>
      </trkpt>
      <trkpt lat="49.42483" lon="5.75677">
        <ele>326.20001220703</ele>
        <time>2022-09-13T12:34:11.000Z</time>
      </trkpt>
      <trkpt lat="49.42481" lon="5.7568">
        <ele>326.20001220703</ele>
        <time>2022-09-13T12:34:12.000Z</time>
      </trkpt>
      <trkpt lat="49.42478" lon="5.75681">
        <ele>326</ele>
        <time>2022-09-13T12:34:13.000Z</time>
      </trkpt>
      <trkpt lat="49.42476" lon="5.75682">
        <ele>326</ele>
        <time>2022-09-13T12:34:14.000Z</time>
      </trkpt>
      <trkpt lat="49.42473" lon="5.75684">
        <ele>325.79998779297</ele>
        <time>2022-09-13T12:34:15.000Z</time>
      </trkpt>
      <trkpt lat="49.42471" lon="5.75685">
        <ele>325.79998779297</ele>
        <time>2022-09-13T12:34:16.000Z</time>
      </trkpt>
      <trkpt lat="49.4247" lon="5.75685">
        <ele>325.79998779297</ele>
        <time>2022-09-13T12:34:17.000Z</time>
      </trkpt>
      <trkpt lat="49.4247" lon="5.75685">
        <ele>325.79998779297</ele>
        <time>2022-09-13T12:34:18.000Z</time>
      </trkpt>
      <trkpt lat="49.42467" lon="5.75685">
        <ele>325.60000610352</ele>
        <time>2022-09-13T12:34:19.000Z</time>
      </trkpt>
      <trkpt lat="49.42466" lon="5.75684">
        <ele>325.39999389648</ele>
        <time>2022-09-13T12:34:20.000Z</time>
      </trkpt>
      <trkpt lat="49.42464" lon="5.75685">
        <ele>325.60000610352</ele>
        <time>2022-09-13T12:34:21.000Z</time>
      </trkpt>
      <trkpt lat="49.4246" lon="5.75689">
        <ele>325.60000610352</ele>
        <time>2022-09-13T12:34:22.000Z</time>
      </trkpt>
      <trkpt lat="49.42459" lon="5.75688">
        <ele>325.60000610352</ele>
        <time>2022-09-13T12:34:23.000Z</time>
      </trkpt>
      <trkpt lat="49.42458" lon="5.75686">
        <ele>325.60000610352</ele>
        <time>2022-09-13T12:34:24.000Z</time>
      </trkpt>
      <trkpt lat="49.42458" lon="5.75684">
        <ele>325.60000610352</ele>
        <time>2022-09-13T12:34:25.000Z</time>
      </trkpt>
      <trkpt lat="49.42458" lon="5.75681">
        <ele>325.60000610352</ele>
        <time>2022-09-13T12:34:26.000Z</time>
      </trkpt>
      <trkpt lat="49.42457" lon="5.7568">
        <ele>325.79998779297</ele>
        <time>2022-09-13T12:34:27.000Z</time>
      </trkpt>
      <trkpt lat="49.42458" lon="5.75675">
        <ele>325.79998779297</ele>
        <time>2022-09-13T12:34:28.000Z</time>
      </trkpt>
      <trkpt lat="49.42458" lon="5.75675">
        <ele>326.20001220703</ele>
        <time>2022-09-13T12:34:29.000Z</time>
      </trkpt>
      <trkpt lat="49.42454" lon="5.75668">
        <ele>326.20001220703</ele>
        <time>2022-09-13T12:34:30.000Z</time>
      </trkpt>
      <trkpt lat="49.42452" lon="5.75665">
        <ele>326.60000610352</ele>
        <time>2022-09-13T12:34:31.000Z</time>
      </trkpt>
      <trkpt lat="49.4245" lon="5.75664">
        <ele>326.60000610352</ele>
        <time>2022-09-13T12:34:32.000Z</time>
      </trkpt>
      <trkpt lat="49.42447" lon="5.7566">
        <ele>327</ele>
        <time>2022-09-13T12:34:33.000Z</time>
      </trkpt>
      <trkpt lat="49.42446" lon="5.75658">
        <ele>327.20001220703</ele>
        <time>2022-09-13T12:34:34.000Z</time>
      </trkpt>
      <trkpt lat="49.42444" lon="5.75656">
        <ele>327.60000610352</ele>
        <time>2022-09-13T12:34:35.000Z</time>
      </trkpt>
      <trkpt lat="49.42442" lon="5.75652">
        <ele>328</ele>
        <time>2022-09-13T12:34:37.000Z</time>
      </trkpt>
      <trkpt lat="49.4244" lon="5.7565">
        <ele>328.39999389648</ele>
        <time>2022-09-13T12:34:38.000Z</time>
      </trkpt>
      <trkpt lat="49.42438" lon="5.75645">
        <ele>329</ele>
        <time>2022-09-13T12:34:40.000Z</time>
      </trkpt>
      <trkpt lat="49.42437" lon="5.75642">
        <ele>329.20001220703</ele>
        <time>2022-09-13T12:34:41.000Z</time>
      </trkpt>
      <trkpt lat="49.42435" lon="5.7564">
        <ele>329.60000610352</ele>
        <time>2022-09-13T12:34:42.000Z</time>
      </trkpt>
      <trkpt lat="49.42435" lon="5.7564">
        <ele>330</ele>
        <time>2022-09-13T12:34:43.000Z</time>
      </trkpt>
      <trkpt lat="49.42433" lon="5.75637">
        <ele>330.20001220703</ele>
        <time>2022-09-13T12:34:44.000Z</time>
      </trkpt>
      <trkpt lat="49.4243" lon="5.75634">
        <ele>331.20001220703</ele>
        <time>2022-09-13T12:34:45.000Z</time>
      </trkpt>
      <trkpt lat="49.42427" lon="5.75632">
        <ele>331.60000610352</ele>
        <time>2022-09-13T12:34:46.000Z</time>
      </trkpt>
      <trkpt lat="49.42425" lon="5.7563">
        <ele>332.39999389648</ele>
        <time>2022-09-13T12:34:47.000Z</time>
      </trkpt>
      <trkpt lat="49.42424" lon="5.75627">
        <ele>332.60000610352</ele>
        <time>2022-09-13T12:34:48.000Z</time>
      </trkpt>
      <trkpt lat="49.42424" lon="5.75627">
        <ele>333.39999389648</ele>
        <time>2022-09-13T12:34:49.000Z</time>
      </trkpt>
      <trkpt lat="49.42422" lon="5.75622">
        <ele>333.79998779297</ele>
        <time>2022-09-13T12:34:50.000Z</time>
      </trkpt>
      <trkpt lat="49.4242" lon="5.75618">
        <ele>334</ele>
        <time>2022-09-13T12:34:51.000Z</time>
      </trkpt>
      <trkpt lat="49.4242" lon="5.75614">
        <ele>334.20001220703</ele>
        <time>2022-09-13T12:34:52.000Z</time>
      </trkpt>
      <trkpt lat="49.42419" lon="5.7561">
        <ele>334.20001220703</ele>
        <time>2022-09-13T12:34:53.000Z</time>
      </trkpt>
      <trkpt lat="49.42419" lon="5.75609">
        <ele>334.60000610352</ele>
        <time>2022-09-13T12:34:54.000Z</time>
      </trkpt>
      <trkpt lat="49.42417" lon="5.75603">
        <ele>334.79998779297</ele>
        <time>2022-09-13T12:34:55.000Z</time>
      </trkpt>
      <trkpt lat="49.42415" lon="5.756">
        <ele>335.20001220703</ele>
        <time>2022-09-13T12:34:56.000Z</time>
      </trkpt>
      <trkpt lat="49.42415" lon="5.756">
        <ele>335.39999389648</ele>
        <time>2022-09-13T12:34:57.000Z</time>
      </trkpt>
      <trkpt lat="49.42409" lon="5.75589">
        <ele>335.79998779297</ele>
        <time>2022-09-13T12:34:58.000Z</time>
      </trkpt>
      <trkpt lat="49.42407" lon="5.75586">
        <ele>336.20001220703</ele>
        <time>2022-09-13T12:34:59.000Z</time>
      </trkpt>
      <trkpt lat="49.42406" lon="5.75584">
        <ele>336.39999389648</ele>
        <time>2022-09-13T12:35:00.000Z</time>
      </trkpt>
      <trkpt lat="49.42405" lon="5.75582">
        <ele>336.79998779297</ele>
        <time>2022-09-13T12:35:01.000Z</time>
      </trkpt>
      <trkpt lat="49.42404" lon="5.75579">
        <ele>336.79998779297</ele>
        <time>2022-09-13T12:35:02.000Z</time>
      </trkpt>
      <trkpt lat="49.42404" lon="5.75577">
        <ele>337</ele>
        <time>2022-09-13T12:35:03.000Z</time>
      </trkpt>
      <trkpt lat="49.42402" lon="5.75575">
        <ele>337.20001220703</ele>
        <time>2022-09-13T12:35:04.000Z</time>
      </trkpt>
      <trkpt lat="49.42402" lon="5.75573">
        <ele>337.60000610352</ele>
        <time>2022-09-13T12:35:05.000Z</time>
      </trkpt>
      <trkpt lat="49.42401" lon="5.7557">
        <ele>337.79998779297</ele>
        <time>2022-09-13T12:35:06.000Z</time>
      </trkpt>
      <trkpt lat="49.42399" lon="5.75568">
        <ele>338</ele>
        <time>2022-09-13T12:35:07.000Z</time>
      </trkpt>
      <trkpt lat="49.42399" lon="5.75565">
        <ele>338.39999389648</ele>
        <time>2022-09-13T12:35:08.000Z</time>
      </trkpt>
      <trkpt lat="49.42399" lon="5.75565">
        <ele>338.60000610352</ele>
        <time>2022-09-13T12:35:09.000Z</time>
      </trkpt>
      <trkpt lat="49.424" lon="5.7556">
        <ele>338.79998779297</ele>
        <time>2022-09-13T12:35:10.000Z</time>
      </trkpt>
      <trkpt lat="49.42399" lon="5.75558">
        <ele>339</ele>
        <time>2022-09-13T12:35:11.000Z</time>
      </trkpt>
      <trkpt lat="49.42399" lon="5.75556">
        <ele>339.20001220703</ele>
        <time>2022-09-13T12:35:12.000Z</time>
      </trkpt>
      <trkpt lat="49.42396" lon="5.7555">
        <ele>339.79998779297</ele>
        <time>2022-09-13T12:35:13.000Z</time>
      </trkpt>
      <trkpt lat="49.42396" lon="5.7555">
        <ele>339.79998779297</ele>
        <time>2022-09-13T12:35:14.000Z</time>
      </trkpt>
      <trkpt lat="49.42394" lon="5.75545">
        <ele>340.20001220703</ele>
        <time>2022-09-13T12:35:15.000Z</time>
      </trkpt>
      <trkpt lat="49.42393" lon="5.75542">
        <ele>340.20001220703</ele>
        <time>2022-09-13T12:35:16.000Z</time>
      </trkpt>
      <trkpt lat="49.42393" lon="5.75539">
        <ele>340.39999389648</ele>
        <time>2022-09-13T12:35:17.000Z</time>
      </trkpt>
      <trkpt lat="49.42393" lon="5.75534">
        <ele>340.60000610352</ele>
        <time>2022-09-13T12:35:18.000Z</time>
      </trkpt>
      <trkpt lat="49.42393" lon="5.75534">
        <ele>340.60000610352</ele>
        <time>2022-09-13T12:35:19.000Z</time>
      </trkpt>
      <trkpt lat="49.42389" lon="5.75525">
        <ele>340.79998779297</ele>
        <time>2022-09-13T12:35:20.000Z</time>
      </trkpt>
      <trkpt lat="49.42387" lon="5.75523">
        <ele>340.79998779297</ele>
        <time>2022-09-13T12:35:21.000Z</time>
      </trkpt>
      <trkpt lat="49.42385" lon="5.7552">
        <ele>340.79998779297</ele>
        <time>2022-09-13T12:35:22.000Z</time>
      </trkpt>
      <trkpt lat="49.42383" lon="5.75518">
        <ele>340.79998779297</ele>
        <time>2022-09-13T12:35:23.000Z</time>
      </trkpt>
      <trkpt lat="49.42381" lon="5.75515">
        <ele>340.79998779297</ele>
        <time>2022-09-13T12:35:24.000Z</time>
      </trkpt>
      <trkpt lat="49.4238" lon="5.75512">
        <ele>341</ele>
        <time>2022-09-13T12:35:25.000Z</time>
      </trkpt>
      <trkpt lat="49.42378" lon="5.75509">
        <ele>341</ele>
        <time>2022-09-13T12:35:26.000Z</time>
      </trkpt>
      <trkpt lat="49.42375" lon="5.75505">
        <ele>341</ele>
        <time>2022-09-13T12:35:27.000Z</time>
      </trkpt>
      <trkpt lat="49.42373" lon="5.75502">
        <ele>341</ele>
        <time>2022-09-13T12:35:28.000Z</time>
      </trkpt>
      <trkpt lat="49.42372" lon="5.755">
        <ele>341.20001220703</ele>
        <time>2022-09-13T12:35:29.000Z</time>
      </trkpt>
      <trkpt lat="49.42371" lon="5.75498">
        <ele>341.20001220703</ele>
        <time>2022-09-13T12:35:30.000Z</time>
      </trkpt>
      <trkpt lat="49.42369" lon="5.75493">
        <ele>341.39999389648</ele>
        <time>2022-09-13T12:35:31.000Z</time>
      </trkpt>
      <trkpt lat="49.42368" lon="5.7549">
        <ele>341.39999389648</ele>
        <time>2022-09-13T12:35:32.000Z</time>
      </trkpt>
      <trkpt lat="49.42368" lon="5.75488">
        <ele>341.60000610352</ele>
        <time>2022-09-13T12:35:33.000Z</time>
      </trkpt>
      <trkpt lat="49.42366" lon="5.75485">
        <ele>341.60000610352</ele>
        <time>2022-09-13T12:35:34.000Z</time>
      </trkpt>
      <trkpt lat="49.42363" lon="5.75479">
        <ele>341.60000610352</ele>
        <time>2022-09-13T12:35:35.000Z</time>
      </trkpt>
      <trkpt lat="49.42363" lon="5.75479">
        <ele>341.79998779297</ele>
        <time>2022-09-13T12:35:36.000Z</time>
      </trkpt>
      <trkpt lat="49.42361" lon="5.75471">
        <ele>342</ele>
        <time>2022-09-13T12:35:37.000Z</time>
      </trkpt>
      <trkpt lat="49.4236" lon="5.75468">
        <ele>342.20001220703</ele>
        <time>2022-09-13T12:35:38.000Z</time>
      </trkpt>
      <trkpt lat="49.4236" lon="5.75468">
        <ele>342.20001220703</ele>
        <time>2022-09-13T12:35:39.000Z</time>
      </trkpt>
      <trkpt lat="49.42353" lon="5.75456">
        <ele>342.39999389648</ele>
        <time>2022-09-13T12:35:40.000Z</time>
      </trkpt>
      <trkpt lat="49.4235" lon="5.75451">
        <ele>342.39999389648</ele>
        <time>2022-09-13T12:35:41.000Z</time>
      </trkpt>
      <trkpt lat="49.42348" lon="5.75448">
        <ele>342.39999389648</ele>
        <time>2022-09-13T12:35:42.000Z</time>
      </trkpt>
      <trkpt lat="49.42346" lon="5.75444">
        <ele>342.39999389648</ele>
        <time>2022-09-13T12:35:43.000Z</time>
      </trkpt>
      <trkpt lat="49.42344" lon="5.75442">
        <ele>342.39999389648</ele>
        <time>2022-09-13T12:35:44.000Z</time>
      </trkpt>
      <trkpt lat="49.42342" lon="5.75439">
        <ele>342.39999389648</ele>
        <time>2022-09-13T12:35:45.000Z</time>
      </trkpt>
      <trkpt lat="49.42341" lon="5.75438">
        <ele>342.39999389648</ele>
        <time>2022-09-13T12:35:46.000Z</time>
      </trkpt>
      <trkpt lat="49.42342" lon="5.75436">
        <ele>342.39999389648</ele>
        <time>2022-09-13T12:35:47.000Z</time>
      </trkpt>
      <trkpt lat="49.42342" lon="5.75434">
        <ele>342.60000610352</ele>
        <time>2022-09-13T12:35:48.000Z</time>
      </trkpt>
      <trkpt lat="49.42342" lon="5.75433">
        <ele>342.60000610352</ele>
        <time>2022-09-13T12:35:49.000Z</time>
      </trkpt>
      <trkpt lat="49.42338" lon="5.75421">
        <ele>342.60000610352</ele>
        <time>2022-09-13T12:35:51.000Z</time>
      </trkpt>
      <trkpt lat="49.42336" lon="5.75416">
        <ele>342.79998779297</ele>
        <time>2022-09-13T12:35:52.000Z</time>
      </trkpt>
      <trkpt lat="49.42334" lon="5.75413">
        <ele>342.79998779297</ele>
        <time>2022-09-13T12:35:53.000Z</time>
      </trkpt>
      <trkpt lat="49.42332" lon="5.75408">
        <ele>342.79998779297</ele>
        <time>2022-09-13T12:35:54.000Z</time>
      </trkpt>
      <trkpt lat="49.42321" lon="5.75382">
        <ele>342.79998779297</ele>
        <time>2022-09-13T12:35:59.000Z</time>
      </trkpt>
      <trkpt lat="49.42316" lon="5.75374">
        <ele>342.79998779297</ele>
        <time>2022-09-13T12:36:01.000Z</time>
      </trkpt>
      <trkpt lat="49.42315" lon="5.75371">
        <ele>342.79998779297</ele>
        <time>2022-09-13T12:36:02.000Z</time>
      </trkpt>
      <trkpt lat="49.42314" lon="5.75368">
        <ele>342.79998779297</ele>
        <time>2022-09-13T12:36:03.000Z</time>
      </trkpt>
      <trkpt lat="49.42313" lon="5.75361">
        <ele>342.79998779297</ele>
        <time>2022-09-13T12:36:04.000Z</time>
      </trkpt>
      <trkpt lat="49.42309" lon="5.75351">
        <ele>342.60000610352</ele>
        <time>2022-09-13T12:36:05.000Z</time>
      </trkpt>
      <trkpt lat="49.42307" lon="5.75342">
        <ele>342.60000610352</ele>
        <time>2022-09-13T12:36:06.000Z</time>
      </trkpt>
      <trkpt lat="49.42305" lon="5.75339">
        <ele>342.60000610352</ele>
        <time>2022-09-13T12:36:07.000Z</time>
      </trkpt>
      <trkpt lat="49.42304" lon="5.75336">
        <ele>342.39999389648</ele>
        <time>2022-09-13T12:36:08.000Z</time>
      </trkpt>
      <trkpt lat="49.42302" lon="5.75332">
        <ele>342.39999389648</ele>
        <time>2022-09-13T12:36:09.000Z</time>
      </trkpt>
      <trkpt lat="49.423" lon="5.75329">
        <ele>342.39999389648</ele>
        <time>2022-09-13T12:36:10.000Z</time>
      </trkpt>
      <trkpt lat="49.423" lon="5.75329">
        <ele>342.39999389648</ele>
        <time>2022-09-13T12:36:11.000Z</time>
      </trkpt>
      <trkpt lat="49.42299" lon="5.75325">
        <ele>342.39999389648</ele>
        <time>2022-09-13T12:36:12.000Z</time>
      </trkpt>
      <trkpt lat="49.42298" lon="5.75323">
        <ele>342.39999389648</ele>
        <time>2022-09-13T12:36:13.000Z</time>
      </trkpt>
      <trkpt lat="49.42297" lon="5.75322">
        <ele>342.39999389648</ele>
        <time>2022-09-13T12:36:14.000Z</time>
      </trkpt>
      <trkpt lat="49.42295" lon="5.75321">
        <ele>342.39999389648</ele>
        <time>2022-09-13T12:36:15.000Z</time>
      </trkpt>
      <trkpt lat="49.42291" lon="5.75309">
        <ele>342.39999389648</ele>
        <time>2022-09-13T12:36:18.000Z</time>
      </trkpt>
      <trkpt lat="49.42291" lon="5.75309">
        <ele>342.39999389648</ele>
        <time>2022-09-13T12:36:19.000Z</time>
      </trkpt>
      <trkpt lat="49.42291" lon="5.75309">
        <ele>342.39999389648</ele>
        <time>2022-09-13T12:36:20.000Z</time>
      </trkpt>
      <trkpt lat="49.42288" lon="5.75306">
        <ele>342.39999389648</ele>
        <time>2022-09-13T12:36:21.000Z</time>
      </trkpt>
      <trkpt lat="49.4228" lon="5.753">
        <ele>342.20001220703</ele>
        <time>2022-09-13T12:36:22.000Z</time>
      </trkpt>
      <trkpt lat="49.42275" lon="5.75289">
        <ele>342.20001220703</ele>
        <time>2022-09-13T12:36:23.000Z</time>
      </trkpt>
      <trkpt lat="49.42273" lon="5.75283">
        <ele>342.20001220703</ele>
        <time>2022-09-13T12:36:24.000Z</time>
      </trkpt>
      <trkpt lat="49.42271" lon="5.75279">
        <ele>342.20001220703</ele>
        <time>2022-09-13T12:36:25.000Z</time>
      </trkpt>
      <trkpt lat="49.4227" lon="5.75276">
        <ele>342.20001220703</ele>
        <time>2022-09-13T12:36:26.000Z</time>
      </trkpt>
      <trkpt lat="49.42267" lon="5.75263">
        <ele>342.20001220703</ele>
        <time>2022-09-13T12:36:28.000Z</time>
      </trkpt>
      <trkpt lat="49.42263" lon="5.75254">
        <ele>342</ele>
        <time>2022-09-13T12:36:31.000Z</time>
      </trkpt>
      <trkpt lat="49.42261" lon="5.75251">
        <ele>342</ele>
        <time>2022-09-13T12:36:32.000Z</time>
      </trkpt>
      <trkpt lat="49.4226" lon="5.7525">
        <ele>342</ele>
        <time>2022-09-13T12:36:33.000Z</time>
      </trkpt>
      <trkpt lat="49.4226" lon="5.75248">
        <ele>342</ele>
        <time>2022-09-13T12:36:34.000Z</time>
      </trkpt>
      <trkpt lat="49.4226" lon="5.75248">
        <ele>342</ele>
        <time>2022-09-13T12:36:35.000Z</time>
      </trkpt>
      <trkpt lat="49.4226" lon="5.75248">
        <ele>342</ele>
        <time>2022-09-13T12:36:36.000Z</time>
      </trkpt>
      <trkpt lat="49.42259" lon="5.75245">
        <ele>342</ele>
        <time>2022-09-13T12:36:38.000Z</time>
      </trkpt>
      <trkpt lat="49.4226" lon="5.75242">
        <ele>342</ele>
        <time>2022-09-13T12:36:40.000Z</time>
      </trkpt>
      <trkpt lat="49.42266" lon="5.75233">
        <ele>341.79998779297</ele>
        <time>2022-09-13T12:36:44.000Z</time>
      </trkpt>
      <trkpt lat="49.4228" lon="5.75213">
        <ele>341.39999389648</ele>
        <time>2022-09-13T12:36:50.000Z</time>
      </trkpt>
      <trkpt lat="49.42284" lon="5.75207">
        <ele>341.20001220703</ele>
        <time>2022-09-13T12:36:51.000Z</time>
      </trkpt>
      <trkpt lat="49.42287" lon="5.75207">
        <ele>341.20001220703</ele>
        <time>2022-09-13T12:36:52.000Z</time>
      </trkpt>
      <trkpt lat="49.42288" lon="5.75207">
        <ele>341.20001220703</ele>
        <time>2022-09-13T12:36:53.000Z</time>
      </trkpt>
      <trkpt lat="49.42295" lon="5.75199">
        <ele>341</ele>
        <time>2022-09-13T12:36:56.000Z</time>
      </trkpt>
      <trkpt lat="49.42299" lon="5.75197">
        <ele>341</ele>
        <time>2022-09-13T12:36:57.000Z</time>
      </trkpt>
      <trkpt lat="49.42303" lon="5.75195">
        <ele>341</ele>
        <time>2022-09-13T12:36:58.000Z</time>
      </trkpt>
      <trkpt lat="49.4231" lon="5.75193">
        <ele>341</ele>
        <time>2022-09-13T12:37:00.000Z</time>
      </trkpt>
      <trkpt lat="49.42314" lon="5.75193">
        <ele>340.79998779297</ele>
        <time>2022-09-13T12:37:01.000Z</time>
      </trkpt>
      <trkpt lat="49.42319" lon="5.75192">
        <ele>341</ele>
        <time>2022-09-13T12:37:02.000Z</time>
      </trkpt>
      <trkpt lat="49.42324" lon="5.7519">
        <ele>340.79998779297</ele>
        <time>2022-09-13T12:37:03.000Z</time>
      </trkpt>
      <trkpt lat="49.42333" lon="5.7518">
        <ele>340.60000610352</ele>
        <time>2022-09-13T12:37:06.000Z</time>
      </trkpt>
      <trkpt lat="49.42336" lon="5.75179">
        <ele>340.60000610352</ele>
        <time>2022-09-13T12:37:07.000Z</time>
      </trkpt>
      <trkpt lat="49.42344" lon="5.75177">
        <ele>340.60000610352</ele>
        <time>2022-09-13T12:37:09.000Z</time>
      </trkpt>
      <trkpt lat="49.42344" lon="5.75177">
        <ele>340.60000610352</ele>
        <time>2022-09-13T12:37:10.000Z</time>
      </trkpt>
      <trkpt lat="49.42351" lon="5.75176">
        <ele>340.60000610352</ele>
        <time>2022-09-13T12:37:11.000Z</time>
      </trkpt>
      <trkpt lat="49.42352" lon="5.75177">
        <ele>340.60000610352</ele>
        <time>2022-09-13T12:37:12.000Z</time>
      </trkpt>
      <trkpt lat="49.42354" lon="5.75178">
        <ele>340.39999389648</ele>
        <time>2022-09-13T12:37:13.000Z</time>
      </trkpt>
      <trkpt lat="49.42356" lon="5.75179">
        <ele>340.39999389648</ele>
        <time>2022-09-13T12:37:14.000Z</time>
      </trkpt>
      <trkpt lat="49.42359" lon="5.75179">
        <ele>340.39999389648</ele>
        <time>2022-09-13T12:37:15.000Z</time>
      </trkpt>
      <trkpt lat="49.42365" lon="5.75178">
        <ele>340.39999389648</ele>
        <time>2022-09-13T12:37:17.000Z</time>
      </trkpt>
      <trkpt lat="49.42368" lon="5.75176">
        <ele>340.39999389648</ele>
        <time>2022-09-13T12:37:18.000Z</time>
      </trkpt>
      <trkpt lat="49.4237" lon="5.75174">
        <ele>340.39999389648</ele>
        <time>2022-09-13T12:37:19.000Z</time>
      </trkpt>
      <trkpt lat="49.42374" lon="5.75171">
        <ele>340.39999389648</ele>
        <time>2022-09-13T12:37:20.000Z</time>
      </trkpt>
      <trkpt lat="49.42375" lon="5.75167">
        <ele>340.39999389648</ele>
        <time>2022-09-13T12:37:21.000Z</time>
      </trkpt>
      <trkpt lat="49.42377" lon="5.75165">
        <ele>340.39999389648</ele>
        <time>2022-09-13T12:37:22.000Z</time>
      </trkpt>
      <trkpt lat="49.4238" lon="5.75164">
        <ele>340.39999389648</ele>
        <time>2022-09-13T12:37:23.000Z</time>
      </trkpt>
      <trkpt lat="49.42382" lon="5.75165">
        <ele>340.60000610352</ele>
        <time>2022-09-13T12:37:24.000Z</time>
      </trkpt>
      <trkpt lat="49.42386" lon="5.75166">
        <ele>340.60000610352</ele>
        <time>2022-09-13T12:37:25.000Z</time>
      </trkpt>
      <trkpt lat="49.4239" lon="5.75165">
        <ele>340.79998779297</ele>
        <time>2022-09-13T12:37:26.000Z</time>
      </trkpt>
      <trkpt lat="49.42393" lon="5.75164">
        <ele>340.79998779297</ele>
        <time>2022-09-13T12:37:27.000Z</time>
      </trkpt>
      <trkpt lat="49.42394" lon="5.75161">
        <ele>340.79998779297</ele>
        <time>2022-09-13T12:37:28.000Z</time>
      </trkpt>
      <trkpt lat="49.42396" lon="5.75158">
        <ele>340.79998779297</ele>
        <time>2022-09-13T12:37:29.000Z</time>
      </trkpt>
      <trkpt lat="49.42398" lon="5.75155">
        <ele>340.79998779297</ele>
        <time>2022-09-13T12:37:30.000Z</time>
      </trkpt>
      <trkpt lat="49.424" lon="5.7515">
        <ele>340.79998779297</ele>
        <time>2022-09-13T12:37:31.000Z</time>
      </trkpt>
      <trkpt lat="49.42402" lon="5.75144">
        <ele>340.79998779297</ele>
        <time>2022-09-13T12:37:32.000Z</time>
      </trkpt>
      <trkpt lat="49.42401" lon="5.7514">
        <ele>341</ele>
        <time>2022-09-13T12:37:33.000Z</time>
      </trkpt>
      <trkpt lat="49.42398" lon="5.75135">
        <ele>341</ele>
        <time>2022-09-13T12:37:34.000Z</time>
      </trkpt>
      <trkpt lat="49.42393" lon="5.75118">
        <ele>340.79998779297</ele>
        <time>2022-09-13T12:37:37.000Z</time>
      </trkpt>
      <trkpt lat="49.4239" lon="5.75115">
        <ele>340.79998779297</ele>
        <time>2022-09-13T12:37:38.000Z</time>
      </trkpt>
      <trkpt lat="49.42389" lon="5.75114">
        <ele>340.79998779297</ele>
        <time>2022-09-13T12:37:39.000Z</time>
      </trkpt>
      <trkpt lat="49.42389" lon="5.75114">
        <ele>340.60000610352</ele>
        <time>2022-09-13T12:37:40.000Z</time>
      </trkpt>
      <trkpt lat="49.42387" lon="5.75108">
        <ele>340.60000610352</ele>
        <time>2022-09-13T12:37:41.000Z</time>
      </trkpt>
      <trkpt lat="49.42385" lon="5.751">
        <ele>340.39999389648</ele>
        <time>2022-09-13T12:37:42.000Z</time>
      </trkpt>
      <trkpt lat="49.42367" lon="5.75067">
        <ele>340.39999389648</ele>
        <time>2022-09-13T12:37:47.000Z</time>
      </trkpt>
      <trkpt lat="49.42357" lon="5.75047">
        <ele>340</ele>
        <time>2022-09-13T12:37:51.000Z</time>
      </trkpt>
      <trkpt lat="49.42355" lon="5.75043">
        <ele>339.79998779297</ele>
        <time>2022-09-13T12:37:52.000Z</time>
      </trkpt>
      <trkpt lat="49.42352" lon="5.75038">
        <ele>339.79998779297</ele>
        <time>2022-09-13T12:37:53.000Z</time>
      </trkpt>
      <trkpt lat="49.42342" lon="5.75008">
        <ele>339.39999389648</ele>
        <time>2022-09-13T12:37:56.000Z</time>
      </trkpt>
      <trkpt lat="49.42334" lon="5.74981">
        <ele>339.20001220703</ele>
        <time>2022-09-13T12:37:58.000Z</time>
      </trkpt>
      <trkpt lat="49.42331" lon="5.74971">
        <ele>339</ele>
        <time>2022-09-13T12:38:00.000Z</time>
      </trkpt>
      <trkpt lat="49.42329" lon="5.74965">
        <ele>339</ele>
        <time>2022-09-13T12:38:01.000Z</time>
      </trkpt>
      <trkpt lat="49.42327" lon="5.74962">
        <ele>339</ele>
        <time>2022-09-13T12:38:02.000Z</time>
      </trkpt>
      <trkpt lat="49.42319" lon="5.74944">
        <ele>338.79998779297</ele>
        <time>2022-09-13T12:38:05.000Z</time>
      </trkpt>
      <trkpt lat="49.42313" lon="5.74933">
        <ele>338.60000610352</ele>
        <time>2022-09-13T12:38:06.000Z</time>
      </trkpt>
      <trkpt lat="49.42312" lon="5.7493">
        <ele>338.60000610352</ele>
        <time>2022-09-13T12:38:07.000Z</time>
      </trkpt>
      <trkpt lat="49.42313" lon="5.74928">
        <ele>338.39999389648</ele>
        <time>2022-09-13T12:38:08.000Z</time>
      </trkpt>
      <trkpt lat="49.42314" lon="5.74926">
        <ele>338.39999389648</ele>
        <time>2022-09-13T12:38:09.000Z</time>
      </trkpt>
      <trkpt lat="49.42314" lon="5.74926">
        <ele>338.39999389648</ele>
        <time>2022-09-13T12:38:10.000Z</time>
      </trkpt>
      <trkpt lat="49.42307" lon="5.74904">
        <ele>338.39999389648</ele>
        <time>2022-09-13T12:38:11.000Z</time>
      </trkpt>
      <trkpt lat="49.42305" lon="5.749">
        <ele>338.39999389648</ele>
        <time>2022-09-13T12:38:12.000Z</time>
      </trkpt>
      <trkpt lat="49.42305" lon="5.74897">
        <ele>338.39999389648</ele>
        <time>2022-09-13T12:38:13.000Z</time>
      </trkpt>
      <trkpt lat="49.42303" lon="5.74894">
        <ele>338.39999389648</ele>
        <time>2022-09-13T12:38:15.000Z</time>
      </trkpt>
      <trkpt lat="49.42295" lon="5.74887">
        <ele>338.39999389648</ele>
        <time>2022-09-13T12:38:16.000Z</time>
      </trkpt>
      <trkpt lat="49.42293" lon="5.74883">
        <ele>338.39999389648</ele>
        <time>2022-09-13T12:38:17.000Z</time>
      </trkpt>
      <trkpt lat="49.42291" lon="5.74878">
        <ele>338.39999389648</ele>
        <time>2022-09-13T12:38:18.000Z</time>
      </trkpt>
      <trkpt lat="49.42287" lon="5.74867">
        <ele>338.39999389648</ele>
        <time>2022-09-13T12:38:20.000Z</time>
      </trkpt>
      <trkpt lat="49.42282" lon="5.74855">
        <ele>338.39999389648</ele>
        <time>2022-09-13T12:38:21.000Z</time>
      </trkpt>
      <trkpt lat="49.4228" lon="5.74852">
        <ele>338.39999389648</ele>
        <time>2022-09-13T12:38:22.000Z</time>
      </trkpt>
      <trkpt lat="49.42278" lon="5.74846">
        <ele>338.39999389648</ele>
        <time>2022-09-13T12:38:23.000Z</time>
      </trkpt>
      <trkpt lat="49.42269" lon="5.74826">
        <ele>338.60000610352</ele>
        <time>2022-09-13T12:38:26.000Z</time>
      </trkpt>
      <trkpt lat="49.42259" lon="5.74797">
        <ele>338.39999389648</ele>
        <time>2022-09-13T12:38:31.000Z</time>
      </trkpt>
      <trkpt lat="49.42259" lon="5.74797">
        <ele>338.20001220703</ele>
        <time>2022-09-13T12:38:32.000Z</time>
      </trkpt>
      <trkpt lat="49.42259" lon="5.74792">
        <ele>338.20001220703</ele>
        <time>2022-09-13T12:38:33.000Z</time>
      </trkpt>
      <trkpt lat="49.42258" lon="5.7479">
        <ele>338</ele>
        <time>2022-09-13T12:38:34.000Z</time>
      </trkpt>
      <trkpt lat="49.42257" lon="5.74788">
        <ele>337.79998779297</ele>
        <time>2022-09-13T12:38:35.000Z</time>
      </trkpt>
      <trkpt lat="49.42254" lon="5.74783">
        <ele>337.79998779297</ele>
        <time>2022-09-13T12:38:36.000Z</time>
      </trkpt>
      <trkpt lat="49.4225" lon="5.74772">
        <ele>337.60000610352</ele>
        <time>2022-09-13T12:38:37.000Z</time>
      </trkpt>
      <trkpt lat="49.42249" lon="5.74769">
        <ele>337.39999389648</ele>
        <time>2022-09-13T12:38:38.000Z</time>
      </trkpt>
      <trkpt lat="49.42249" lon="5.74761">
        <ele>337</ele>
        <time>2022-09-13T12:38:40.000Z</time>
      </trkpt>
      <trkpt lat="49.42249" lon="5.74761">
        <ele>337</ele>
        <time>2022-09-13T12:38:41.000Z</time>
      </trkpt>
      <trkpt lat="49.42248" lon="5.74755">
        <ele>337</ele>
        <time>2022-09-13T12:38:42.000Z</time>
      </trkpt>
      <trkpt lat="49.42246" lon="5.74751">
        <ele>336.79998779297</ele>
        <time>2022-09-13T12:38:43.000Z</time>
      </trkpt>
      <trkpt lat="49.42243" lon="5.74748">
        <ele>336.79998779297</ele>
        <time>2022-09-13T12:38:44.000Z</time>
      </trkpt>
      <trkpt lat="49.42241" lon="5.74742">
        <ele>336.79998779297</ele>
        <time>2022-09-13T12:38:45.000Z</time>
      </trkpt>
      <trkpt lat="49.42223" lon="5.74718">
        <ele>336.60000610352</ele>
        <time>2022-09-13T12:38:50.000Z</time>
      </trkpt>
      <trkpt lat="49.42215" lon="5.74704">
        <ele>336.39999389648</ele>
        <time>2022-09-13T12:38:53.000Z</time>
      </trkpt>
      <trkpt lat="49.42212" lon="5.74699">
        <ele>336.20001220703</ele>
        <time>2022-09-13T12:38:54.000Z</time>
      </trkpt>
      <trkpt lat="49.42209" lon="5.74694">
        <ele>336</ele>
        <time>2022-09-13T12:38:55.000Z</time>
      </trkpt>
      <trkpt lat="49.42207" lon="5.74691">
        <ele>335.60000610352</ele>
        <time>2022-09-13T12:38:56.000Z</time>
      </trkpt>
      <trkpt lat="49.42205" lon="5.74687">
        <ele>335.60000610352</ele>
        <time>2022-09-13T12:38:57.000Z</time>
      </trkpt>
      <trkpt lat="49.42203" lon="5.74682">
        <ele>335.39999389648</ele>
        <time>2022-09-13T12:38:58.000Z</time>
      </trkpt>
      <trkpt lat="49.42197" lon="5.74671">
        <ele>335.20001220703</ele>
        <time>2022-09-13T12:39:00.000Z</time>
      </trkpt>
      <trkpt lat="49.42193" lon="5.74659">
        <ele>335</ele>
        <time>2022-09-13T12:39:01.000Z</time>
      </trkpt>
      <trkpt lat="49.4219" lon="5.74652">
        <ele>335</ele>
        <time>2022-09-13T12:39:02.000Z</time>
      </trkpt>
      <trkpt lat="49.42187" lon="5.74642">
        <ele>334.79998779297</ele>
        <time>2022-09-13T12:39:03.000Z</time>
      </trkpt>
      <trkpt lat="49.42171" lon="5.74603">
        <ele>334.60000610352</ele>
        <time>2022-09-13T12:39:08.000Z</time>
      </trkpt>
      <trkpt lat="49.42166" lon="5.74592">
        <ele>334.60000610352</ele>
        <time>2022-09-13T12:39:11.000Z</time>
      </trkpt>
      <trkpt lat="49.42155" lon="5.74554">
        <ele>334</ele>
        <time>2022-09-13T12:39:14.000Z</time>
      </trkpt>
      <trkpt lat="49.42146" lon="5.74537">
        <ele>333.60000610352</ele>
        <time>2022-09-13T12:39:16.000Z</time>
      </trkpt>
      <trkpt lat="49.42142" lon="5.7453">
        <ele>333.39999389648</ele>
        <time>2022-09-13T12:39:17.000Z</time>
      </trkpt>
      <trkpt lat="49.4214" lon="5.74522">
        <ele>333</ele>
        <time>2022-09-13T12:39:19.000Z</time>
      </trkpt>
      <trkpt lat="49.42139" lon="5.74517">
        <ele>332.79998779297</ele>
        <time>2022-09-13T12:39:20.000Z</time>
      </trkpt>
      <trkpt lat="49.42137" lon="5.74511">
        <ele>332.60000610352</ele>
        <time>2022-09-13T12:39:21.000Z</time>
      </trkpt>
      <trkpt lat="49.42137" lon="5.74511">
        <ele>332.39999389648</ele>
        <time>2022-09-13T12:39:22.000Z</time>
      </trkpt>
      <trkpt lat="49.4213" lon="5.745">
        <ele>332.39999389648</ele>
        <time>2022-09-13T12:39:23.000Z</time>
      </trkpt>
      <trkpt lat="49.42125" lon="5.74491">
        <ele>332.20001220703</ele>
        <time>2022-09-13T12:39:26.000Z</time>
      </trkpt>
      <trkpt lat="49.42124" lon="5.74479">
        <ele>332.20001220703</ele>
        <time>2022-09-13T12:39:27.000Z</time>
      </trkpt>
      <trkpt lat="49.42123" lon="5.74473">
        <ele>332.20001220703</ele>
        <time>2022-09-13T12:39:28.000Z</time>
      </trkpt>
      <trkpt lat="49.42121" lon="5.74467">
        <ele>332.20001220703</ele>
        <time>2022-09-13T12:39:29.000Z</time>
      </trkpt>
      <trkpt lat="49.42119" lon="5.74463">
        <ele>332.20001220703</ele>
        <time>2022-09-13T12:39:30.000Z</time>
      </trkpt>
      <trkpt lat="49.42115" lon="5.74457">
        <ele>332</ele>
        <time>2022-09-13T12:39:31.000Z</time>
      </trkpt>
      <trkpt lat="49.42112" lon="5.74452">
        <ele>332</ele>
        <time>2022-09-13T12:39:32.000Z</time>
      </trkpt>
      <trkpt lat="49.42108" lon="5.74448">
        <ele>332</ele>
        <time>2022-09-13T12:39:33.000Z</time>
      </trkpt>
      <trkpt lat="49.42107" lon="5.74446">
        <ele>332</ele>
        <time>2022-09-13T12:39:34.000Z</time>
      </trkpt>
      <trkpt lat="49.42106" lon="5.74443">
        <ele>331.79998779297</ele>
        <time>2022-09-13T12:39:35.000Z</time>
      </trkpt>
      <trkpt lat="49.42106" lon="5.74443">
        <ele>331.79998779297</ele>
        <time>2022-09-13T12:39:36.000Z</time>
      </trkpt>
      <trkpt lat="49.42103" lon="5.74439">
        <ele>331.79998779297</ele>
        <time>2022-09-13T12:39:37.000Z</time>
      </trkpt>
      <trkpt lat="49.421" lon="5.74437">
        <ele>331.79998779297</ele>
        <time>2022-09-13T12:39:38.000Z</time>
      </trkpt>
      <trkpt lat="49.42093" lon="5.7443">
        <ele>331.60000610352</ele>
        <time>2022-09-13T12:39:40.000Z</time>
      </trkpt>
      <trkpt lat="49.42091" lon="5.74425">
        <ele>331.60000610352</ele>
        <time>2022-09-13T12:39:41.000Z</time>
      </trkpt>
      <trkpt lat="49.4209" lon="5.74422">
        <ele>331.60000610352</ele>
        <time>2022-09-13T12:39:42.000Z</time>
      </trkpt>
      <trkpt lat="49.4209" lon="5.74422">
        <ele>331.60000610352</ele>
        <time>2022-09-13T12:39:43.000Z</time>
      </trkpt>
      <trkpt lat="49.42089" lon="5.74416">
        <ele>331.60000610352</ele>
        <time>2022-09-13T12:39:44.000Z</time>
      </trkpt>
      <trkpt lat="49.42089" lon="5.74411">
        <ele>331.39999389648</ele>
        <time>2022-09-13T12:39:45.000Z</time>
      </trkpt>
      <trkpt lat="49.42089" lon="5.74411">
        <ele>331.39999389648</ele>
        <time>2022-09-13T12:39:46.000Z</time>
      </trkpt>
      <trkpt lat="49.42083" lon="5.74394">
        <ele>331.20001220703</ele>
        <time>2022-09-13T12:39:47.000Z</time>
      </trkpt>
      <trkpt lat="49.42078" lon="5.74378">
        <ele>331.20001220703</ele>
        <time>2022-09-13T12:39:50.000Z</time>
      </trkpt>
      <trkpt lat="49.42075" lon="5.74372">
        <ele>331.20001220703</ele>
        <time>2022-09-13T12:39:51.000Z</time>
      </trkpt>
      <trkpt lat="49.42074" lon="5.74364">
        <ele>331</ele>
        <time>2022-09-13T12:39:53.000Z</time>
      </trkpt>
      <trkpt lat="49.42072" lon="5.74358">
        <ele>331</ele>
        <time>2022-09-13T12:39:54.000Z</time>
      </trkpt>
      <trkpt lat="49.42072" lon="5.74358">
        <ele>330.79998779297</ele>
        <time>2022-09-13T12:39:55.000Z</time>
      </trkpt>
      <trkpt lat="49.42065" lon="5.74344">
        <ele>330.79998779297</ele>
        <time>2022-09-13T12:39:56.000Z</time>
      </trkpt>
      <trkpt lat="49.42062" lon="5.7434">
        <ele>330.60000610352</ele>
        <time>2022-09-13T12:39:57.000Z</time>
      </trkpt>
      <trkpt lat="49.4206" lon="5.74338">
        <ele>330.20001220703</ele>
        <time>2022-09-13T12:39:58.000Z</time>
      </trkpt>
      <trkpt lat="49.4206" lon="5.74335">
        <ele>330.20001220703</ele>
        <time>2022-09-13T12:39:59.000Z</time>
      </trkpt>
      <trkpt lat="49.4206" lon="5.74331">
        <ele>330</ele>
        <time>2022-09-13T12:40:00.000Z</time>
      </trkpt>
      <trkpt lat="49.4206" lon="5.74331">
        <ele>329.79998779297</ele>
        <time>2022-09-13T12:40:01.000Z</time>
      </trkpt>
      <trkpt lat="49.42057" lon="5.74318">
        <ele>329.60000610352</ele>
        <time>2022-09-13T12:40:02.000Z</time>
      </trkpt>
      <trkpt lat="49.42054" lon="5.74306">
        <ele>329.60000610352</ele>
        <time>2022-09-13T12:40:04.000Z</time>
      </trkpt>
      <trkpt lat="49.42044" lon="5.74284">
        <ele>329.39999389648</ele>
        <time>2022-09-13T12:40:08.000Z</time>
      </trkpt>
      <trkpt lat="49.42042" lon="5.74279">
        <ele>329.20001220703</ele>
        <time>2022-09-13T12:40:09.000Z</time>
      </trkpt>
      <trkpt lat="49.42035" lon="5.74258">
        <ele>329</ele>
        <time>2022-09-13T12:40:13.000Z</time>
      </trkpt>
      <trkpt lat="49.42036" lon="5.74255">
        <ele>328.79998779297</ele>
        <time>2022-09-13T12:40:14.000Z</time>
      </trkpt>
      <trkpt lat="49.42037" lon="5.74251">
        <ele>328.60000610352</ele>
        <time>2022-09-13T12:40:15.000Z</time>
      </trkpt>
      <trkpt lat="49.42039" lon="5.74243">
        <ele>328.39999389648</ele>
        <time>2022-09-13T12:40:17.000Z</time>
      </trkpt>
      <trkpt lat="49.42038" lon="5.74232">
        <ele>328.20001220703</ele>
        <time>2022-09-13T12:40:18.000Z</time>
      </trkpt>
      <trkpt lat="49.42037" lon="5.74222">
        <ele>328</ele>
        <time>2022-09-13T12:40:19.000Z</time>
      </trkpt>
      <trkpt lat="49.42035" lon="5.74215">
        <ele>327.79998779297</ele>
        <time>2022-09-13T12:40:20.000Z</time>
      </trkpt>
      <trkpt lat="49.42033" lon="5.74211">
        <ele>327.79998779297</ele>
        <time>2022-09-13T12:40:21.000Z</time>
      </trkpt>
      <trkpt lat="49.4203" lon="5.74203">
        <ele>327.60000610352</ele>
        <time>2022-09-13T12:40:22.000Z</time>
      </trkpt>
      <trkpt lat="49.42027" lon="5.74202">
        <ele>327.60000610352</ele>
        <time>2022-09-13T12:40:23.000Z</time>
      </trkpt>
      <trkpt lat="49.42026" lon="5.74203">
        <ele>327.60000610352</ele>
        <time>2022-09-13T12:40:24.000Z</time>
      </trkpt>
      <trkpt lat="49.42025" lon="5.74204">
        <ele>327.60000610352</ele>
        <time>2022-09-13T12:40:25.000Z</time>
      </trkpt>
      <trkpt lat="49.42023" lon="5.74208">
        <ele>327.60000610352</ele>
        <time>2022-09-13T12:40:26.000Z</time>
      </trkpt>
      <trkpt lat="49.42022" lon="5.74211">
        <ele>327.60000610352</ele>
        <time>2022-09-13T12:40:27.000Z</time>
      </trkpt>
      <trkpt lat="49.42021" lon="5.74213">
        <ele>327.39999389648</ele>
        <time>2022-09-13T12:40:28.000Z</time>
      </trkpt>
      <trkpt lat="49.4202" lon="5.74215">
        <ele>327.39999389648</ele>
        <time>2022-09-13T12:40:29.000Z</time>
      </trkpt>
      <trkpt lat="49.42019" lon="5.74221">
        <ele>327.60000610352</ele>
        <time>2022-09-13T12:40:31.000Z</time>
      </trkpt>
      <trkpt lat="49.42009" lon="5.74244">
        <ele>327.60000610352</ele>
        <time>2022-09-13T12:40:38.000Z</time>
      </trkpt>
      <trkpt lat="49.41995" lon="5.74267">
        <ele>328.60000610352</ele>
        <time>2022-09-13T12:40:45.000Z</time>
      </trkpt>
      <trkpt lat="49.41974" lon="5.74299">
        <ele>329</ele>
        <time>2022-09-13T12:40:55.000Z</time>
      </trkpt>
      <trkpt lat="49.41955" lon="5.74325">
        <ele>329.39999389648</ele>
        <time>2022-09-13T12:41:04.000Z</time>
      </trkpt>
      <trkpt lat="49.41949" lon="5.74333">
        <ele>329.60000610352</ele>
        <time>2022-09-13T12:41:06.000Z</time>
      </trkpt>
      <trkpt lat="49.41947" lon="5.74336">
        <ele>329.79998779297</ele>
        <time>2022-09-13T12:41:07.000Z</time>
      </trkpt>
      <trkpt lat="49.41943" lon="5.74342">
        <ele>330</ele>
        <time>2022-09-13T12:41:09.000Z</time>
      </trkpt>
      <trkpt lat="49.41937" lon="5.7435">
        <ele>330.39999389648</ele>
        <time>2022-09-13T12:41:12.000Z</time>
      </trkpt>
      <trkpt lat="49.41934" lon="5.74352">
        <ele>330.39999389648</ele>
        <time>2022-09-13T12:41:13.000Z</time>
      </trkpt>
      <trkpt lat="49.41932" lon="5.74355">
        <ele>330.39999389648</ele>
        <time>2022-09-13T12:41:14.000Z</time>
      </trkpt>
      <trkpt lat="49.4193" lon="5.74358">
        <ele>330.39999389648</ele>
        <time>2022-09-13T12:41:15.000Z</time>
      </trkpt>
      <trkpt lat="49.41928" lon="5.74361">
        <ele>330.60000610352</ele>
        <time>2022-09-13T12:41:16.000Z</time>
      </trkpt>
      <trkpt lat="49.41917" lon="5.74375">
        <ele>331</ele>
        <time>2022-09-13T12:41:21.000Z</time>
      </trkpt>
      <trkpt lat="49.41903" lon="5.74392">
        <ele>331.60000610352</ele>
        <time>2022-09-13T12:41:27.000Z</time>
      </trkpt>
      <trkpt lat="49.41892" lon="5.74405">
        <ele>331.79998779297</ele>
        <time>2022-09-13T12:41:31.000Z</time>
      </trkpt>
      <trkpt lat="49.41884" lon="5.74415">
        <ele>331.79998779297</ele>
        <time>2022-09-13T12:41:34.000Z</time>
      </trkpt>
      <trkpt lat="49.41868" lon="5.74436">
        <ele>332.79998779297</ele>
        <time>2022-09-13T12:41:40.000Z</time>
      </trkpt>
      <trkpt lat="49.41862" lon="5.74443">
        <ele>332.79998779297</ele>
        <time>2022-09-13T12:41:42.000Z</time>
      </trkpt>
      <trkpt lat="49.41831" lon="5.74479">
        <ele>333.79998779297</ele>
        <time>2022-09-13T12:41:52.000Z</time>
      </trkpt>
      <trkpt lat="49.41827" lon="5.74483">
        <ele>334</ele>
        <time>2022-09-13T12:41:53.000Z</time>
      </trkpt>
      <trkpt lat="49.4182" lon="5.74492">
        <ele>334</ele>
        <time>2022-09-13T12:41:55.000Z</time>
      </trkpt>
      <trkpt lat="49.41813" lon="5.745">
        <ele>334</ele>
        <time>2022-09-13T12:41:57.000Z</time>
      </trkpt>
      <trkpt lat="49.41809" lon="5.74504">
        <ele>334</ele>
        <time>2022-09-13T12:41:59.000Z</time>
      </trkpt>
      <trkpt lat="49.4178" lon="5.74539">
        <ele>333.79998779297</ele>
        <time>2022-09-13T12:42:06.000Z</time>
      </trkpt>
      <trkpt lat="49.41777" lon="5.74543">
        <ele>333.79998779297</ele>
        <time>2022-09-13T12:42:07.000Z</time>
      </trkpt>
      <trkpt lat="49.41767" lon="5.74555">
        <ele>334</ele>
        <time>2022-09-13T12:42:10.000Z</time>
      </trkpt>
      <trkpt lat="49.4176" lon="5.74562">
        <ele>334.20001220703</ele>
        <time>2022-09-13T12:42:12.000Z</time>
      </trkpt>
      <trkpt lat="49.41757" lon="5.74566">
        <ele>334.20001220703</ele>
        <time>2022-09-13T12:42:13.000Z</time>
      </trkpt>
      <trkpt lat="49.41753" lon="5.74569">
        <ele>334.20001220703</ele>
        <time>2022-09-13T12:42:14.000Z</time>
      </trkpt>
      <trkpt lat="49.4175" lon="5.74573">
        <ele>334.39999389648</ele>
        <time>2022-09-13T12:42:15.000Z</time>
      </trkpt>
      <trkpt lat="49.4175" lon="5.74573">
        <ele>334.60000610352</ele>
        <time>2022-09-13T12:42:16.000Z</time>
      </trkpt>
      <trkpt lat="49.41744" lon="5.74579">
        <ele>334.79998779297</ele>
        <time>2022-09-13T12:42:17.000Z</time>
      </trkpt>
      <trkpt lat="49.4174" lon="5.74583">
        <ele>334.79998779297</ele>
        <time>2022-09-13T12:42:18.000Z</time>
      </trkpt>
      <trkpt lat="49.41738" lon="5.74585">
        <ele>335</ele>
        <time>2022-09-13T12:42:19.000Z</time>
      </trkpt>
      <trkpt lat="49.41734" lon="5.74588">
        <ele>335.20001220703</ele>
        <time>2022-09-13T12:42:20.000Z</time>
      </trkpt>
      <trkpt lat="49.41731" lon="5.74591">
        <ele>335.39999389648</ele>
        <time>2022-09-13T12:42:21.000Z</time>
      </trkpt>
      <trkpt lat="49.41727" lon="5.74594">
        <ele>335.39999389648</ele>
        <time>2022-09-13T12:42:22.000Z</time>
      </trkpt>
      <trkpt lat="49.41724" lon="5.74597">
        <ele>335.39999389648</ele>
        <time>2022-09-13T12:42:23.000Z</time>
      </trkpt>
      <trkpt lat="49.41716" lon="5.74602">
        <ele>335.79998779297</ele>
        <time>2022-09-13T12:42:25.000Z</time>
      </trkpt>
      <trkpt lat="49.41684" lon="5.7462">
        <ele>336.20001220703</ele>
        <time>2022-09-13T12:42:34.000Z</time>
      </trkpt>
      <trkpt lat="49.41681" lon="5.74622">
        <ele>336.20001220703</ele>
        <time>2022-09-13T12:42:35.000Z</time>
      </trkpt>
      <trkpt lat="49.41676" lon="5.74625">
        <ele>336.60000610352</ele>
        <time>2022-09-13T12:42:37.000Z</time>
      </trkpt>
      <trkpt lat="49.41672" lon="5.74626">
        <ele>337</ele>
        <time>2022-09-13T12:42:38.000Z</time>
      </trkpt>
      <trkpt lat="49.41671" lon="5.74627">
        <ele>337.20001220703</ele>
        <time>2022-09-13T12:42:39.000Z</time>
      </trkpt>
      <trkpt lat="49.41668" lon="5.74628">
        <ele>337.60000610352</ele>
        <time>2022-09-13T12:42:40.000Z</time>
      </trkpt>
      <trkpt lat="49.41666" lon="5.74629">
        <ele>337.79998779297</ele>
        <time>2022-09-13T12:42:41.000Z</time>
      </trkpt>
      <trkpt lat="49.41664" lon="5.7463">
        <ele>338</ele>
        <time>2022-09-13T12:42:42.000Z</time>
      </trkpt>
      <trkpt lat="49.41661" lon="5.74631">
        <ele>338</ele>
        <time>2022-09-13T12:42:43.000Z</time>
      </trkpt>
      <trkpt lat="49.41658" lon="5.74633">
        <ele>338.20001220703</ele>
        <time>2022-09-13T12:42:44.000Z</time>
      </trkpt>
      <trkpt lat="49.41656" lon="5.74635">
        <ele>338.39999389648</ele>
        <time>2022-09-13T12:42:45.000Z</time>
      </trkpt>
      <trkpt lat="49.41653" lon="5.74637">
        <ele>338.60000610352</ele>
        <time>2022-09-13T12:42:46.000Z</time>
      </trkpt>
      <trkpt lat="49.4165" lon="5.74638">
        <ele>338.79998779297</ele>
        <time>2022-09-13T12:42:47.000Z</time>
      </trkpt>
      <trkpt lat="49.41647" lon="5.74639">
        <ele>339</ele>
        <time>2022-09-13T12:42:48.000Z</time>
      </trkpt>
      <trkpt lat="49.41644" lon="5.74641">
        <ele>339.20001220703</ele>
        <time>2022-09-13T12:42:49.000Z</time>
      </trkpt>
      <trkpt lat="49.41642" lon="5.74642">
        <ele>339.39999389648</ele>
        <time>2022-09-13T12:42:50.000Z</time>
      </trkpt>
      <trkpt lat="49.41639" lon="5.74643">
        <ele>339.60000610352</ele>
        <time>2022-09-13T12:42:51.000Z</time>
      </trkpt>
      <trkpt lat="49.41637" lon="5.74644">
        <ele>340</ele>
        <time>2022-09-13T12:42:52.000Z</time>
      </trkpt>
      <trkpt lat="49.41634" lon="5.74646">
        <ele>340.60000610352</ele>
        <time>2022-09-13T12:42:53.000Z</time>
      </trkpt>
      <trkpt lat="49.41632" lon="5.74648">
        <ele>341.20001220703</ele>
        <time>2022-09-13T12:42:54.000Z</time>
      </trkpt>
      <trkpt lat="49.41629" lon="5.7465">
        <ele>341.60000610352</ele>
        <time>2022-09-13T12:42:55.000Z</time>
      </trkpt>
      <trkpt lat="49.41626" lon="5.74652">
        <ele>342</ele>
        <time>2022-09-13T12:42:56.000Z</time>
      </trkpt>
      <trkpt lat="49.41623" lon="5.74654">
        <ele>342</ele>
        <time>2022-09-13T12:42:57.000Z</time>
      </trkpt>
      <trkpt lat="49.4162" lon="5.74656">
        <ele>342.39999389648</ele>
        <time>2022-09-13T12:42:58.000Z</time>
      </trkpt>
      <trkpt lat="49.41618" lon="5.74658">
        <ele>342.79998779297</ele>
        <time>2022-09-13T12:42:59.000Z</time>
      </trkpt>
      <trkpt lat="49.41615" lon="5.74659">
        <ele>343</ele>
        <time>2022-09-13T12:43:00.000Z</time>
      </trkpt>
      <trkpt lat="49.41612" lon="5.74661">
        <ele>343.60000610352</ele>
        <time>2022-09-13T12:43:01.000Z</time>
      </trkpt>
      <trkpt lat="49.41609" lon="5.74662">
        <ele>343.60000610352</ele>
        <time>2022-09-13T12:43:02.000Z</time>
      </trkpt>
      <trkpt lat="49.41607" lon="5.74664">
        <ele>344.20001220703</ele>
        <time>2022-09-13T12:43:03.000Z</time>
      </trkpt>
      <trkpt lat="49.41604" lon="5.74665">
        <ele>344.39999389648</ele>
        <time>2022-09-13T12:43:04.000Z</time>
      </trkpt>
      <trkpt lat="49.41601" lon="5.74667">
        <ele>344.79998779297</ele>
        <time>2022-09-13T12:43:05.000Z</time>
      </trkpt>
      <trkpt lat="49.41599" lon="5.74669">
        <ele>345.20001220703</ele>
        <time>2022-09-13T12:43:06.000Z</time>
      </trkpt>
      <trkpt lat="49.41596" lon="5.74671">
        <ele>345.39999389648</ele>
        <time>2022-09-13T12:43:07.000Z</time>
      </trkpt>
      <trkpt lat="49.41593" lon="5.74673">
        <ele>345.60000610352</ele>
        <time>2022-09-13T12:43:08.000Z</time>
      </trkpt>
      <trkpt lat="49.4159" lon="5.74674">
        <ele>345.79998779297</ele>
        <time>2022-09-13T12:43:09.000Z</time>
      </trkpt>
      <trkpt lat="49.41588" lon="5.74676">
        <ele>346.20001220703</ele>
        <time>2022-09-13T12:43:10.000Z</time>
      </trkpt>
      <trkpt lat="49.41586" lon="5.74678">
        <ele>346.60000610352</ele>
        <time>2022-09-13T12:43:11.000Z</time>
      </trkpt>
      <trkpt lat="49.41583" lon="5.7468">
        <ele>347.20001220703</ele>
        <time>2022-09-13T12:43:12.000Z</time>
      </trkpt>
      <trkpt lat="49.4158" lon="5.74682">
        <ele>347.39999389648</ele>
        <time>2022-09-13T12:43:13.000Z</time>
      </trkpt>
      <trkpt lat="49.41577" lon="5.74683">
        <ele>347.79998779297</ele>
        <time>2022-09-13T12:43:14.000Z</time>
      </trkpt>
      <trkpt lat="49.41575" lon="5.74685">
        <ele>348</ele>
        <time>2022-09-13T12:43:15.000Z</time>
      </trkpt>
      <trkpt lat="49.41573" lon="5.74687">
        <ele>348.20001220703</ele>
        <time>2022-09-13T12:43:16.000Z</time>
      </trkpt>
      <trkpt lat="49.4157" lon="5.74689">
        <ele>348.60000610352</ele>
        <time>2022-09-13T12:43:17.000Z</time>
      </trkpt>
      <trkpt lat="49.41567" lon="5.74691">
        <ele>348.60000610352</ele>
        <time>2022-09-13T12:43:18.000Z</time>
      </trkpt>
      <trkpt lat="49.41565" lon="5.74693">
        <ele>349</ele>
        <time>2022-09-13T12:43:19.000Z</time>
      </trkpt>
      <trkpt lat="49.41562" lon="5.74696">
        <ele>349.20001220703</ele>
        <time>2022-09-13T12:43:20.000Z</time>
      </trkpt>
      <trkpt lat="49.41559" lon="5.74698">
        <ele>349.20001220703</ele>
        <time>2022-09-13T12:43:21.000Z</time>
      </trkpt>
      <trkpt lat="49.41556" lon="5.747">
        <ele>349.39999389648</ele>
        <time>2022-09-13T12:43:22.000Z</time>
      </trkpt>
      <trkpt lat="49.41553" lon="5.74701">
        <ele>349.60000610352</ele>
        <time>2022-09-13T12:43:23.000Z</time>
      </trkpt>
      <trkpt lat="49.4155" lon="5.74704">
        <ele>350.20001220703</ele>
        <time>2022-09-13T12:43:24.000Z</time>
      </trkpt>
      <trkpt lat="49.41547" lon="5.74706">
        <ele>350.39999389648</ele>
        <time>2022-09-13T12:43:25.000Z</time>
      </trkpt>
      <trkpt lat="49.41545" lon="5.74708">
        <ele>350.60000610352</ele>
        <time>2022-09-13T12:43:26.000Z</time>
      </trkpt>
      <trkpt lat="49.41543" lon="5.74711">
        <ele>350.60000610352</ele>
        <time>2022-09-13T12:43:27.000Z</time>
      </trkpt>
      <trkpt lat="49.4154" lon="5.74715">
        <ele>350.79998779297</ele>
        <time>2022-09-13T12:43:28.000Z</time>
      </trkpt>
      <trkpt lat="49.41537" lon="5.74718">
        <ele>351</ele>
        <time>2022-09-13T12:43:29.000Z</time>
      </trkpt>
      <trkpt lat="49.41535" lon="5.74721">
        <ele>351</ele>
        <time>2022-09-13T12:43:30.000Z</time>
      </trkpt>
      <trkpt lat="49.41533" lon="5.74724">
        <ele>351.20001220703</ele>
        <time>2022-09-13T12:43:31.000Z</time>
      </trkpt>
      <trkpt lat="49.4153" lon="5.74727">
        <ele>351.39999389648</ele>
        <time>2022-09-13T12:43:32.000Z</time>
      </trkpt>
      <trkpt lat="49.41528" lon="5.7473">
        <ele>351.39999389648</ele>
        <time>2022-09-13T12:43:33.000Z</time>
      </trkpt>
      <trkpt lat="49.41526" lon="5.74734">
        <ele>351.60000610352</ele>
        <time>2022-09-13T12:43:34.000Z</time>
      </trkpt>
      <trkpt lat="49.41523" lon="5.74738">
        <ele>351.79998779297</ele>
        <time>2022-09-13T12:43:35.000Z</time>
      </trkpt>
      <trkpt lat="49.41521" lon="5.74741">
        <ele>351.79998779297</ele>
        <time>2022-09-13T12:43:36.000Z</time>
      </trkpt>
      <trkpt lat="49.41519" lon="5.74745">
        <ele>351.79998779297</ele>
        <time>2022-09-13T12:43:37.000Z</time>
      </trkpt>
      <trkpt lat="49.41518" lon="5.74749">
        <ele>351.79998779297</ele>
        <time>2022-09-13T12:43:38.000Z</time>
      </trkpt>
      <trkpt lat="49.41518" lon="5.74749">
        <ele>351.79998779297</ele>
        <time>2022-09-13T12:43:39.000Z</time>
      </trkpt>
      <trkpt lat="49.41515" lon="5.74755">
        <ele>351.79998779297</ele>
        <time>2022-09-13T12:43:40.000Z</time>
      </trkpt>
      <trkpt lat="49.41513" lon="5.74759">
        <ele>351.79998779297</ele>
        <time>2022-09-13T12:43:41.000Z</time>
      </trkpt>
      <trkpt lat="49.41512" lon="5.74761">
        <ele>351.79998779297</ele>
        <time>2022-09-13T12:43:42.000Z</time>
      </trkpt>
      <trkpt lat="49.4151" lon="5.74764">
        <ele>351.79998779297</ele>
        <time>2022-09-13T12:43:43.000Z</time>
      </trkpt>
      <trkpt lat="49.41508" lon="5.74767">
        <ele>351.79998779297</ele>
        <time>2022-09-13T12:43:44.000Z</time>
      </trkpt>
      <trkpt lat="49.41506" lon="5.74769">
        <ele>352</ele>
        <time>2022-09-13T12:43:45.000Z</time>
      </trkpt>
      <trkpt lat="49.41504" lon="5.74772">
        <ele>352</ele>
        <time>2022-09-13T12:43:46.000Z</time>
      </trkpt>
      <trkpt lat="49.41502" lon="5.74775">
        <ele>351.79998779297</ele>
        <time>2022-09-13T12:43:47.000Z</time>
      </trkpt>
      <trkpt lat="49.41499" lon="5.74777">
        <ele>351.79998779297</ele>
        <time>2022-09-13T12:43:48.000Z</time>
      </trkpt>
      <trkpt lat="49.41497" lon="5.74779">
        <ele>351.79998779297</ele>
        <time>2022-09-13T12:43:49.000Z</time>
      </trkpt>
      <trkpt lat="49.41494" lon="5.74782">
        <ele>351.79998779297</ele>
        <time>2022-09-13T12:43:50.000Z</time>
      </trkpt>
      <trkpt lat="49.41491" lon="5.74785">
        <ele>351.79998779297</ele>
        <time>2022-09-13T12:43:51.000Z</time>
      </trkpt>
      <trkpt lat="49.41479" lon="5.74793">
        <ele>351.39999389648</ele>
        <time>2022-09-13T12:43:55.000Z</time>
      </trkpt>
      <trkpt lat="49.41459" lon="5.74808">
        <ele>350.20001220703</ele>
        <time>2022-09-13T12:44:00.000Z</time>
      </trkpt>
      <trkpt lat="49.41426" lon="5.74831">
        <ele>349</ele>
        <time>2022-09-13T12:44:06.000Z</time>
      </trkpt>
      <trkpt lat="49.414" lon="5.7485">
        <ele>347.79998779297</ele>
        <time>2022-09-13T12:44:10.000Z</time>
      </trkpt>
      <trkpt lat="49.41381" lon="5.74864">
        <ele>346.39999389648</ele>
        <time>2022-09-13T12:44:13.000Z</time>
      </trkpt>
      <trkpt lat="49.41375" lon="5.74868">
        <ele>346.20001220703</ele>
        <time>2022-09-13T12:44:14.000Z</time>
      </trkpt>
      <trkpt lat="49.41369" lon="5.74873">
        <ele>345.79998779297</ele>
        <time>2022-09-13T12:44:15.000Z</time>
      </trkpt>
      <trkpt lat="49.41364" lon="5.74876">
        <ele>345.60000610352</ele>
        <time>2022-09-13T12:44:16.000Z</time>
      </trkpt>
      <trkpt lat="49.41358" lon="5.7488">
        <ele>345.20001220703</ele>
        <time>2022-09-13T12:44:17.000Z</time>
      </trkpt>
      <trkpt lat="49.41354" lon="5.74883">
        <ele>345</ele>
        <time>2022-09-13T12:44:18.000Z</time>
      </trkpt>
      <trkpt lat="49.41349" lon="5.74887">
        <ele>344.39999389648</ele>
        <time>2022-09-13T12:44:19.000Z</time>
      </trkpt>
      <trkpt lat="49.41345" lon="5.7489">
        <ele>343.39999389648</ele>
        <time>2022-09-13T12:44:20.000Z</time>
      </trkpt>
      <trkpt lat="49.4134" lon="5.74892">
        <ele>343</ele>
        <time>2022-09-13T12:44:21.000Z</time>
      </trkpt>
      <trkpt lat="49.41336" lon="5.74896">
        <ele>341.79998779297</ele>
        <time>2022-09-13T12:44:22.000Z</time>
      </trkpt>
      <trkpt lat="49.41331" lon="5.74899">
        <ele>341.39999389648</ele>
        <time>2022-09-13T12:44:23.000Z</time>
      </trkpt>
      <trkpt lat="49.41327" lon="5.74902">
        <ele>341</ele>
        <time>2022-09-13T12:44:24.000Z</time>
      </trkpt>
      <trkpt lat="49.41323" lon="5.74905">
        <ele>340.60000610352</ele>
        <time>2022-09-13T12:44:25.000Z</time>
      </trkpt>
      <trkpt lat="49.4131" lon="5.74915">
        <ele>339.60000610352</ele>
        <time>2022-09-13T12:44:28.000Z</time>
      </trkpt>
      <trkpt lat="49.41281" lon="5.74935">
        <ele>338.39999389648</ele>
        <time>2022-09-13T12:44:35.000Z</time>
      </trkpt>
      <trkpt lat="49.41273" lon="5.74941">
        <ele>338.20001220703</ele>
        <time>2022-09-13T12:44:37.000Z</time>
      </trkpt>
      <trkpt lat="49.41269" lon="5.74944">
        <ele>338</ele>
        <time>2022-09-13T12:44:38.000Z</time>
      </trkpt>
      <trkpt lat="49.41265" lon="5.74947">
        <ele>338</ele>
        <time>2022-09-13T12:44:39.000Z</time>
      </trkpt>
      <trkpt lat="49.41261" lon="5.7495">
        <ele>338</ele>
        <time>2022-09-13T12:44:40.000Z</time>
      </trkpt>
      <trkpt lat="49.41257" lon="5.74952">
        <ele>337.79998779297</ele>
        <time>2022-09-13T12:44:41.000Z</time>
      </trkpt>
      <trkpt lat="49.41254" lon="5.74955">
        <ele>337.79998779297</ele>
        <time>2022-09-13T12:44:42.000Z</time>
      </trkpt>
      <trkpt lat="49.4125" lon="5.74958">
        <ele>337.60000610352</ele>
        <time>2022-09-13T12:44:43.000Z</time>
      </trkpt>
      <trkpt lat="49.41246" lon="5.74961">
        <ele>337.39999389648</ele>
        <time>2022-09-13T12:44:44.000Z</time>
      </trkpt>
      <trkpt lat="49.41242" lon="5.74964">
        <ele>337</ele>
        <time>2022-09-13T12:44:45.000Z</time>
      </trkpt>
      <trkpt lat="49.41235" lon="5.7497">
        <ele>336.60000610352</ele>
        <time>2022-09-13T12:44:47.000Z</time>
      </trkpt>
      <trkpt lat="49.41231" lon="5.74973">
        <ele>336.39999389648</ele>
        <time>2022-09-13T12:44:48.000Z</time>
      </trkpt>
      <trkpt lat="49.41219" lon="5.74982">
        <ele>336</ele>
        <time>2022-09-13T12:44:51.000Z</time>
      </trkpt>
      <trkpt lat="49.41208" lon="5.7499">
        <ele>335.39999389648</ele>
        <time>2022-09-13T12:44:54.000Z</time>
      </trkpt>
      <trkpt lat="49.41201" lon="5.74996">
        <ele>335.20001220703</ele>
        <time>2022-09-13T12:44:56.000Z</time>
      </trkpt>
      <trkpt lat="49.41193" lon="5.75001">
        <ele>335</ele>
        <time>2022-09-13T12:44:58.000Z</time>
      </trkpt>
      <trkpt lat="49.41191" lon="5.75003">
        <ele>335</ele>
        <time>2022-09-13T12:44:59.000Z</time>
      </trkpt>
      <trkpt lat="49.41188" lon="5.75005">
        <ele>335</ele>
        <time>2022-09-13T12:45:00.000Z</time>
      </trkpt>
      <trkpt lat="49.41185" lon="5.75008">
        <ele>335</ele>
        <time>2022-09-13T12:45:01.000Z</time>
      </trkpt>
      <trkpt lat="49.41181" lon="5.75011">
        <ele>335</ele>
        <time>2022-09-13T12:45:02.000Z</time>
      </trkpt>
      <trkpt lat="49.41178" lon="5.75013">
        <ele>335</ele>
        <time>2022-09-13T12:45:03.000Z</time>
      </trkpt>
      <trkpt lat="49.41174" lon="5.75015">
        <ele>335</ele>
        <time>2022-09-13T12:45:04.000Z</time>
      </trkpt>
      <trkpt lat="49.41171" lon="5.75018">
        <ele>335.20001220703</ele>
        <time>2022-09-13T12:45:05.000Z</time>
      </trkpt>
      <trkpt lat="49.41168" lon="5.7502">
        <ele>335.20001220703</ele>
        <time>2022-09-13T12:45:06.000Z</time>
      </trkpt>
      <trkpt lat="49.41161" lon="5.75025">
        <ele>335.39999389648</ele>
        <time>2022-09-13T12:45:08.000Z</time>
      </trkpt>
      <trkpt lat="49.4114" lon="5.75037">
        <ele>335.79998779297</ele>
        <time>2022-09-13T12:45:15.000Z</time>
      </trkpt>
      <trkpt lat="49.41137" lon="5.7504">
        <ele>336</ele>
        <time>2022-09-13T12:45:16.000Z</time>
      </trkpt>
      <trkpt lat="49.41134" lon="5.75042">
        <ele>336</ele>
        <time>2022-09-13T12:45:17.000Z</time>
      </trkpt>
      <trkpt lat="49.41131" lon="5.75045">
        <ele>336</ele>
        <time>2022-09-13T12:45:18.000Z</time>
      </trkpt>
      <trkpt lat="49.41119" lon="5.75052">
        <ele>336</ele>
        <time>2022-09-13T12:45:21.000Z</time>
      </trkpt>
      <trkpt lat="49.41112" lon="5.75057">
        <ele>336</ele>
        <time>2022-09-13T12:45:23.000Z</time>
      </trkpt>
      <trkpt lat="49.41109" lon="5.75059">
        <ele>336</ele>
        <time>2022-09-13T12:45:24.000Z</time>
      </trkpt>
      <trkpt lat="49.41105" lon="5.75062">
        <ele>335.79998779297</ele>
        <time>2022-09-13T12:45:25.000Z</time>
      </trkpt>
      <trkpt lat="49.41078" lon="5.7508">
        <ele>335.39999389648</ele>
        <time>2022-09-13T12:45:32.000Z</time>
      </trkpt>
      <trkpt lat="49.41055" lon="5.75096">
        <ele>335.79998779297</ele>
        <time>2022-09-13T12:45:38.000Z</time>
      </trkpt>
      <trkpt lat="49.41051" lon="5.75098">
        <ele>335.79998779297</ele>
        <time>2022-09-13T12:45:39.000Z</time>
      </trkpt>
      <trkpt lat="49.41048" lon="5.75101">
        <ele>335.79998779297</ele>
        <time>2022-09-13T12:45:40.000Z</time>
      </trkpt>
      <trkpt lat="49.4104" lon="5.75106">
        <ele>336</ele>
        <time>2022-09-13T12:45:42.000Z</time>
      </trkpt>
      <trkpt lat="49.41037" lon="5.75109">
        <ele>336</ele>
        <time>2022-09-13T12:45:43.000Z</time>
      </trkpt>
      <trkpt lat="49.41033" lon="5.75112">
        <ele>336.20001220703</ele>
        <time>2022-09-13T12:45:44.000Z</time>
      </trkpt>
      <trkpt lat="49.40992" lon="5.75141">
        <ele>336.79998779297</ele>
        <time>2022-09-13T12:45:54.000Z</time>
      </trkpt>
      <trkpt lat="49.40988" lon="5.75144">
        <ele>336.79998779297</ele>
        <time>2022-09-13T12:45:55.000Z</time>
      </trkpt>
      <trkpt lat="49.40961" lon="5.75162">
        <ele>337.60000610352</ele>
        <time>2022-09-13T12:46:02.000Z</time>
      </trkpt>
      <trkpt lat="49.40958" lon="5.75165">
        <ele>337.60000610352</ele>
        <time>2022-09-13T12:46:03.000Z</time>
      </trkpt>
      <trkpt lat="49.40954" lon="5.75167">
        <ele>337.60000610352</ele>
        <time>2022-09-13T12:46:04.000Z</time>
      </trkpt>
      <trkpt lat="49.40951" lon="5.75171">
        <ele>337.60000610352</ele>
        <time>2022-09-13T12:46:05.000Z</time>
      </trkpt>
      <trkpt lat="49.40948" lon="5.75174">
        <ele>337.79998779297</ele>
        <time>2022-09-13T12:46:06.000Z</time>
      </trkpt>
      <trkpt lat="49.40944" lon="5.75176">
        <ele>338</ele>
        <time>2022-09-13T12:46:07.000Z</time>
      </trkpt>
      <trkpt lat="49.4094" lon="5.75179">
        <ele>338</ele>
        <time>2022-09-13T12:46:08.000Z</time>
      </trkpt>
      <trkpt lat="49.40937" lon="5.75181">
        <ele>338</ele>
        <time>2022-09-13T12:46:09.000Z</time>
      </trkpt>
      <trkpt lat="49.40934" lon="5.75184">
        <ele>338</ele>
        <time>2022-09-13T12:46:10.000Z</time>
      </trkpt>
      <trkpt lat="49.40927" lon="5.75188">
        <ele>338</ele>
        <time>2022-09-13T12:46:12.000Z</time>
      </trkpt>
      <trkpt lat="49.40923" lon="5.75191">
        <ele>338</ele>
        <time>2022-09-13T12:46:13.000Z</time>
      </trkpt>
      <trkpt lat="49.4092" lon="5.75194">
        <ele>338</ele>
        <time>2022-09-13T12:46:14.000Z</time>
      </trkpt>
      <trkpt lat="49.40917" lon="5.75197">
        <ele>338</ele>
        <time>2022-09-13T12:46:15.000Z</time>
      </trkpt>
      <trkpt lat="49.40913" lon="5.75199">
        <ele>338</ele>
        <time>2022-09-13T12:46:16.000Z</time>
      </trkpt>
      <trkpt lat="49.40903" lon="5.75207">
        <ele>338.60000610352</ele>
        <time>2022-09-13T12:46:19.000Z</time>
      </trkpt>
      <trkpt lat="49.40871" lon="5.7523">
        <ele>339.20001220703</ele>
        <time>2022-09-13T12:46:28.000Z</time>
      </trkpt>
      <trkpt lat="49.4086" lon="5.75239">
        <ele>339</ele>
        <time>2022-09-13T12:46:31.000Z</time>
      </trkpt>
      <trkpt lat="49.40841" lon="5.75251">
        <ele>338.79998779297</ele>
        <time>2022-09-13T12:46:36.000Z</time>
      </trkpt>
      <trkpt lat="49.40806" lon="5.75276">
        <ele>339</ele>
        <time>2022-09-13T12:46:45.000Z</time>
      </trkpt>
      <trkpt lat="49.40802" lon="5.75279">
        <ele>339</ele>
        <time>2022-09-13T12:46:46.000Z</time>
      </trkpt>
      <trkpt lat="49.40791" lon="5.75288">
        <ele>339</ele>
        <time>2022-09-13T12:46:49.000Z</time>
      </trkpt>
      <trkpt lat="49.40784" lon="5.75293">
        <ele>339</ele>
        <time>2022-09-13T12:46:51.000Z</time>
      </trkpt>
      <trkpt lat="49.40781" lon="5.75296">
        <ele>338.79998779297</ele>
        <time>2022-09-13T12:46:52.000Z</time>
      </trkpt>
      <trkpt lat="49.40777" lon="5.75299">
        <ele>338.79998779297</ele>
        <time>2022-09-13T12:46:53.000Z</time>
      </trkpt>
      <trkpt lat="49.40774" lon="5.75301">
        <ele>338.60000610352</ele>
        <time>2022-09-13T12:46:54.000Z</time>
      </trkpt>
      <trkpt lat="49.40771" lon="5.75304">
        <ele>338.60000610352</ele>
        <time>2022-09-13T12:46:55.000Z</time>
      </trkpt>
      <trkpt lat="49.40767" lon="5.75306">
        <ele>338.39999389648</ele>
        <time>2022-09-13T12:46:56.000Z</time>
      </trkpt>
      <trkpt lat="49.40764" lon="5.75308">
        <ele>338.20001220703</ele>
        <time>2022-09-13T12:46:57.000Z</time>
      </trkpt>
      <trkpt lat="49.40756" lon="5.75309">
        <ele>337.79998779297</ele>
        <time>2022-09-13T12:46:59.000Z</time>
      </trkpt>
      <trkpt lat="49.40753" lon="5.75306">
        <ele>337.79998779297</ele>
        <time>2022-09-13T12:47:00.000Z</time>
      </trkpt>
      <trkpt lat="49.40751" lon="5.75301">
        <ele>337.79998779297</ele>
        <time>2022-09-13T12:47:01.000Z</time>
      </trkpt>
      <trkpt lat="49.4075" lon="5.75295">
        <ele>337.39999389648</ele>
        <time>2022-09-13T12:47:02.000Z</time>
      </trkpt>
      <trkpt lat="49.40751" lon="5.75288">
        <ele>337.39999389648</ele>
        <time>2022-09-13T12:47:03.000Z</time>
      </trkpt>
      <trkpt lat="49.40751" lon="5.75281">
        <ele>337</ele>
        <time>2022-09-13T12:47:04.000Z</time>
      </trkpt>
      <trkpt lat="49.40751" lon="5.75273">
        <ele>336.79998779297</ele>
        <time>2022-09-13T12:47:05.000Z</time>
      </trkpt>
      <trkpt lat="49.40751" lon="5.75265">
        <ele>336.60000610352</ele>
        <time>2022-09-13T12:47:06.000Z</time>
      </trkpt>
      <trkpt lat="49.40751" lon="5.75249">
        <ele>336.20001220703</ele>
        <time>2022-09-13T12:47:08.000Z</time>
      </trkpt>
      <trkpt lat="49.40752" lon="5.7524">
        <ele>336</ele>
        <time>2022-09-13T12:47:09.000Z</time>
      </trkpt>
      <trkpt lat="49.40752" lon="5.75214">
        <ele>335.60000610352</ele>
        <time>2022-09-13T12:47:12.000Z</time>
      </trkpt>
      <trkpt lat="49.40752" lon="5.75167">
        <ele>335.39999389648</ele>
        <time>2022-09-13T12:47:17.000Z</time>
      </trkpt>
      <trkpt lat="49.40752" lon="5.75148">
        <ele>335.20001220703</ele>
        <time>2022-09-13T12:47:19.000Z</time>
      </trkpt>
      <trkpt lat="49.40753" lon="5.75079">
        <ele>334.79998779297</ele>
        <time>2022-09-13T12:47:26.000Z</time>
      </trkpt>
      <trkpt lat="49.40753" lon="5.75039">
        <ele>334.39999389648</ele>
        <time>2022-09-13T12:47:30.000Z</time>
      </trkpt>
      <trkpt lat="49.40753" lon="5.74975">
        <ele>333.79998779297</ele>
        <time>2022-09-13T12:47:36.000Z</time>
      </trkpt>
      <trkpt lat="49.40753" lon="5.74913">
        <ele>333.39999389648</ele>
        <time>2022-09-13T12:47:42.000Z</time>
      </trkpt>
      <trkpt lat="49.40753" lon="5.74904">
        <ele>333.20001220703</ele>
        <time>2022-09-13T12:47:43.000Z</time>
      </trkpt>
      <trkpt lat="49.40753" lon="5.74894">
        <ele>333.20001220703</ele>
        <time>2022-09-13T12:47:44.000Z</time>
      </trkpt>
      <trkpt lat="49.40753" lon="5.74874">
        <ele>333.20001220703</ele>
        <time>2022-09-13T12:47:46.000Z</time>
      </trkpt>
      <trkpt lat="49.40753" lon="5.74864">
        <ele>333</ele>
        <time>2022-09-13T12:47:47.000Z</time>
      </trkpt>
      <trkpt lat="49.40753" lon="5.74854">
        <ele>333</ele>
        <time>2022-09-13T12:47:48.000Z</time>
      </trkpt>
      <trkpt lat="49.40754" lon="5.74844">
        <ele>333</ele>
        <time>2022-09-13T12:47:49.000Z</time>
      </trkpt>
      <trkpt lat="49.40754" lon="5.74834">
        <ele>333</ele>
        <time>2022-09-13T12:47:50.000Z</time>
      </trkpt>
      <trkpt lat="49.40753" lon="5.74775">
        <ele>332.20001220703</ele>
        <time>2022-09-13T12:47:56.000Z</time>
      </trkpt>
      <trkpt lat="49.40751" lon="5.74706">
        <ele>331.60000610352</ele>
        <time>2022-09-13T12:48:03.000Z</time>
      </trkpt>
      <trkpt lat="49.40749" lon="5.74702">
        <ele>331.39999389648</ele>
        <time>2022-09-13T12:48:04.000Z</time>
      </trkpt>
      <trkpt lat="49.40745" lon="5.74701">
        <ele>331.20001220703</ele>
        <time>2022-09-13T12:48:05.000Z</time>
      </trkpt>
      <trkpt lat="49.4074" lon="5.74702">
        <ele>331.20001220703</ele>
        <time>2022-09-13T12:48:06.000Z</time>
      </trkpt>
      <trkpt lat="49.40736" lon="5.74704">
        <ele>331</ele>
        <time>2022-09-13T12:48:07.000Z</time>
      </trkpt>
      <trkpt lat="49.40732" lon="5.74707">
        <ele>331</ele>
        <time>2022-09-13T12:48:08.000Z</time>
      </trkpt>
      <trkpt lat="49.40728" lon="5.74709">
        <ele>330.79998779297</ele>
        <time>2022-09-13T12:48:09.000Z</time>
      </trkpt>
      <trkpt lat="49.40724" lon="5.74711">
        <ele>330.79998779297</ele>
        <time>2022-09-13T12:48:10.000Z</time>
      </trkpt>
      <trkpt lat="49.40695" lon="5.74727">
        <ele>331.20001220703</ele>
        <time>2022-09-13T12:48:16.000Z</time>
      </trkpt>
      <trkpt lat="49.40656" lon="5.74748">
        <ele>331.39999389648</ele>
        <time>2022-09-13T12:48:24.000Z</time>
      </trkpt>
      <trkpt lat="49.40638" lon="5.74757">
        <ele>331.20001220703</ele>
        <time>2022-09-13T12:48:28.000Z</time>
      </trkpt>
      <trkpt lat="49.4063" lon="5.74763">
        <ele>331.20001220703</ele>
        <time>2022-09-13T12:48:30.000Z</time>
      </trkpt>
      <trkpt lat="49.40625" lon="5.74765">
        <ele>331.20001220703</ele>
        <time>2022-09-13T12:48:31.000Z</time>
      </trkpt>
      <trkpt lat="49.4062" lon="5.74768">
        <ele>331.39999389648</ele>
        <time>2022-09-13T12:48:32.000Z</time>
      </trkpt>
      <trkpt lat="49.40616" lon="5.7477">
        <ele>331.20001220703</ele>
        <time>2022-09-13T12:48:33.000Z</time>
      </trkpt>
      <trkpt lat="49.40595" lon="5.74778">
        <ele>331</ele>
        <time>2022-09-13T12:48:37.000Z</time>
      </trkpt>
      <trkpt lat="49.40547" lon="5.74803">
        <ele>331</ele>
        <time>2022-09-13T12:48:47.000Z</time>
      </trkpt>
      <trkpt lat="49.40498" lon="5.74826">
        <ele>331</ele>
        <time>2022-09-13T12:48:56.000Z</time>
      </trkpt>
      <trkpt lat="49.40493" lon="5.74828">
        <ele>330.60000610352</ele>
        <time>2022-09-13T12:48:58.000Z</time>
      </trkpt>
      <trkpt lat="49.40466" lon="5.74841">
        <ele>329.60000610352</ele>
        <time>2022-09-13T12:49:02.000Z</time>
      </trkpt>
      <trkpt lat="49.40461" lon="5.74843">
        <ele>329.20001220703</ele>
        <time>2022-09-13T12:49:03.000Z</time>
      </trkpt>
      <trkpt lat="49.40433" lon="5.74855">
        <ele>328.60000610352</ele>
        <time>2022-09-13T12:49:08.000Z</time>
      </trkpt>
      <trkpt lat="49.40427" lon="5.74857">
        <ele>328.39999389648</ele>
        <time>2022-09-13T12:49:09.000Z</time>
      </trkpt>
      <trkpt lat="49.40406" lon="5.74866">
        <ele>327.20001220703</ele>
        <time>2022-09-13T12:49:13.000Z</time>
      </trkpt>
      <trkpt lat="49.40401" lon="5.74869">
        <ele>326.79998779297</ele>
        <time>2022-09-13T12:49:14.000Z</time>
      </trkpt>
      <trkpt lat="49.40391" lon="5.74873">
        <ele>326.39999389648</ele>
        <time>2022-09-13T12:49:16.000Z</time>
      </trkpt>
      <trkpt lat="49.40385" lon="5.74875">
        <ele>326</ele>
        <time>2022-09-13T12:49:17.000Z</time>
      </trkpt>
      <trkpt lat="49.40355" lon="5.74889">
        <ele>324.79998779297</ele>
        <time>2022-09-13T12:49:23.000Z</time>
      </trkpt>
      <trkpt lat="49.40345" lon="5.74893">
        <ele>324.20001220703</ele>
        <time>2022-09-13T12:49:25.000Z</time>
      </trkpt>
      <trkpt lat="49.4034" lon="5.74896">
        <ele>324</ele>
        <time>2022-09-13T12:49:26.000Z</time>
      </trkpt>
      <trkpt lat="49.40336" lon="5.74898">
        <ele>323.60000610352</ele>
        <time>2022-09-13T12:49:27.000Z</time>
      </trkpt>
      <trkpt lat="49.40331" lon="5.749">
        <ele>323.20001220703</ele>
        <time>2022-09-13T12:49:28.000Z</time>
      </trkpt>
      <trkpt lat="49.40326" lon="5.74902">
        <ele>323</ele>
        <time>2022-09-13T12:49:29.000Z</time>
      </trkpt>
      <trkpt lat="49.40321" lon="5.74905">
        <ele>322.79998779297</ele>
        <time>2022-09-13T12:49:30.000Z</time>
      </trkpt>
      <trkpt lat="49.40301" lon="5.74913">
        <ele>322</ele>
        <time>2022-09-13T12:49:34.000Z</time>
      </trkpt>
      <trkpt lat="49.40297" lon="5.74916">
        <ele>321.39999389648</ele>
        <time>2022-09-13T12:49:35.000Z</time>
      </trkpt>
      <trkpt lat="49.40292" lon="5.74917">
        <ele>321.39999389648</ele>
        <time>2022-09-13T12:49:36.000Z</time>
      </trkpt>
      <trkpt lat="49.40286" lon="5.74913">
        <ele>320.79998779297</ele>
        <time>2022-09-13T12:49:38.000Z</time>
      </trkpt>
      <trkpt lat="49.40283" lon="5.74908">
        <ele>320.39999389648</ele>
        <time>2022-09-13T12:49:39.000Z</time>
      </trkpt>
      <trkpt lat="49.40282" lon="5.74902">
        <ele>320.20001220703</ele>
        <time>2022-09-13T12:49:40.000Z</time>
      </trkpt>
      <trkpt lat="49.40279" lon="5.74889">
        <ele>319.79998779297</ele>
        <time>2022-09-13T12:49:42.000Z</time>
      </trkpt>
      <trkpt lat="49.40278" lon="5.74882">
        <ele>319.60000610352</ele>
        <time>2022-09-13T12:49:43.000Z</time>
      </trkpt>
      <trkpt lat="49.40276" lon="5.74875">
        <ele>319.39999389648</ele>
        <time>2022-09-13T12:49:44.000Z</time>
      </trkpt>
      <trkpt lat="49.40272" lon="5.74856">
        <ele>318.60000610352</ele>
        <time>2022-09-13T12:49:47.000Z</time>
      </trkpt>
      <trkpt lat="49.40271" lon="5.74849">
        <ele>318.60000610352</ele>
        <time>2022-09-13T12:49:48.000Z</time>
      </trkpt>
      <trkpt lat="49.40268" lon="5.74835">
        <ele>318.20001220703</ele>
        <time>2022-09-13T12:49:50.000Z</time>
      </trkpt>
      <trkpt lat="49.4026" lon="5.7479">
        <ele>317.60000610352</ele>
        <time>2022-09-13T12:49:56.000Z</time>
      </trkpt>
      <trkpt lat="49.40257" lon="5.74785">
        <ele>317.39999389648</ele>
        <time>2022-09-13T12:49:57.000Z</time>
      </trkpt>
      <trkpt lat="49.40254" lon="5.74782">
        <ele>317.20001220703</ele>
        <time>2022-09-13T12:49:58.000Z</time>
      </trkpt>
      <trkpt lat="49.4025" lon="5.74782">
        <ele>317.20001220703</ele>
        <time>2022-09-13T12:49:59.000Z</time>
      </trkpt>
      <trkpt lat="49.40245" lon="5.74783">
        <ele>317</ele>
        <time>2022-09-13T12:50:00.000Z</time>
      </trkpt>
      <trkpt lat="49.4024" lon="5.74786">
        <ele>316.39999389648</ele>
        <time>2022-09-13T12:50:01.000Z</time>
      </trkpt>
      <trkpt lat="49.40234" lon="5.74789">
        <ele>316.20001220703</ele>
        <time>2022-09-13T12:50:02.000Z</time>
      </trkpt>
      <trkpt lat="49.40227" lon="5.74793">
        <ele>315.60000610352</ele>
        <time>2022-09-13T12:50:03.000Z</time>
      </trkpt>
      <trkpt lat="49.40221" lon="5.74796">
        <ele>315.39999389648</ele>
        <time>2022-09-13T12:50:04.000Z</time>
      </trkpt>
      <trkpt lat="49.40213" lon="5.748">
        <ele>315</ele>
        <time>2022-09-13T12:50:05.000Z</time>
      </trkpt>
      <trkpt lat="49.40206" lon="5.74804">
        <ele>314.60000610352</ele>
        <time>2022-09-13T12:50:06.000Z</time>
      </trkpt>
      <trkpt lat="49.40198" lon="5.74807">
        <ele>314</ele>
        <time>2022-09-13T12:50:07.000Z</time>
      </trkpt>
      <trkpt lat="49.40176" lon="5.74815">
        <ele>312.60000610352</ele>
        <time>2022-09-13T12:50:10.000Z</time>
      </trkpt>
      <trkpt lat="49.40171" lon="5.74817">
        <ele>312.39999389648</ele>
        <time>2022-09-13T12:50:11.000Z</time>
      </trkpt>
      <trkpt lat="49.40168" lon="5.7482">
        <ele>311.39999389648</ele>
        <time>2022-09-13T12:50:12.000Z</time>
      </trkpt>
      <trkpt lat="49.40164" lon="5.74822">
        <ele>311</ele>
        <time>2022-09-13T12:50:13.000Z</time>
      </trkpt>
      <trkpt lat="49.40161" lon="5.74823">
        <ele>309.79998779297</ele>
        <time>2022-09-13T12:50:14.000Z</time>
      </trkpt>
      <trkpt lat="49.40156" lon="5.74825">
        <ele>308.39999389648</ele>
        <time>2022-09-13T12:50:15.000Z</time>
      </trkpt>
      <trkpt lat="49.40147" lon="5.74829">
        <ele>307.20001220703</ele>
        <time>2022-09-13T12:50:17.000Z</time>
      </trkpt>
      <trkpt lat="49.40136" lon="5.74833">
        <ele>306.60000610352</ele>
        <time>2022-09-13T12:50:19.000Z</time>
      </trkpt>
      <trkpt lat="49.40125" lon="5.74838">
        <ele>306</ele>
        <time>2022-09-13T12:50:21.000Z</time>
      </trkpt>
      <trkpt lat="49.40113" lon="5.74844">
        <ele>305.39999389648</ele>
        <time>2022-09-13T12:50:23.000Z</time>
      </trkpt>
      <trkpt lat="49.40099" lon="5.74849">
        <ele>304.79998779297</ele>
        <time>2022-09-13T12:50:25.000Z</time>
      </trkpt>
      <trkpt lat="49.40071" lon="5.74859">
        <ele>303.60000610352</ele>
        <time>2022-09-13T12:50:29.000Z</time>
      </trkpt>
      <trkpt lat="49.4004" lon="5.74867">
        <ele>302.39999389648</ele>
        <time>2022-09-13T12:50:33.000Z</time>
      </trkpt>
      <trkpt lat="49.40023" lon="5.74866">
        <ele>302</ele>
        <time>2022-09-13T12:50:35.000Z</time>
      </trkpt>
      <trkpt lat="49.39998" lon="5.74857">
        <ele>301</ele>
        <time>2022-09-13T12:50:38.000Z</time>
      </trkpt>
      <trkpt lat="49.39989" lon="5.74852">
        <ele>300.60000610352</ele>
        <time>2022-09-13T12:50:39.000Z</time>
      </trkpt>
      <trkpt lat="49.39973" lon="5.7484">
        <ele>299.79998779297</ele>
        <time>2022-09-13T12:50:41.000Z</time>
      </trkpt>
      <trkpt lat="49.39945" lon="5.74818">
        <ele>298.20001220703</ele>
        <time>2022-09-13T12:50:44.000Z</time>
      </trkpt>
      <trkpt lat="49.39926" lon="5.74803">
        <ele>297</ele>
        <time>2022-09-13T12:50:46.000Z</time>
      </trkpt>
      <trkpt lat="49.39916" lon="5.74797">
        <ele>296.39999389648</ele>
        <time>2022-09-13T12:50:47.000Z</time>
      </trkpt>
      <trkpt lat="49.39905" lon="5.74794">
        <ele>296.20001220703</ele>
        <time>2022-09-13T12:50:48.000Z</time>
      </trkpt>
      <trkpt lat="49.39894" lon="5.74793">
        <ele>295.20001220703</ele>
        <time>2022-09-13T12:50:49.000Z</time>
      </trkpt>
      <trkpt lat="49.39884" lon="5.74798">
        <ele>294.60000610352</ele>
        <time>2022-09-13T12:50:50.000Z</time>
      </trkpt>
      <trkpt lat="49.39874" lon="5.74806">
        <ele>293.79998779297</ele>
        <time>2022-09-13T12:50:51.000Z</time>
      </trkpt>
      <trkpt lat="49.39865" lon="5.74817">
        <ele>292.79998779297</ele>
        <time>2022-09-13T12:50:52.000Z</time>
      </trkpt>
      <trkpt lat="49.39857" lon="5.74829">
        <ele>292.20001220703</ele>
        <time>2022-09-13T12:50:53.000Z</time>
      </trkpt>
      <trkpt lat="49.3985" lon="5.74842">
        <ele>291.20001220703</ele>
        <time>2022-09-13T12:50:54.000Z</time>
      </trkpt>
      <trkpt lat="49.39843" lon="5.74853">
        <ele>290.79998779297</ele>
        <time>2022-09-13T12:50:55.000Z</time>
      </trkpt>
      <trkpt lat="49.39839" lon="5.74865">
        <ele>289.60000610352</ele>
        <time>2022-09-13T12:50:56.000Z</time>
      </trkpt>
      <trkpt lat="49.39835" lon="5.74877">
        <ele>289</ele>
        <time>2022-09-13T12:50:57.000Z</time>
      </trkpt>
      <trkpt lat="49.39832" lon="5.74888">
        <ele>287.79998779297</ele>
        <time>2022-09-13T12:50:58.000Z</time>
      </trkpt>
      <trkpt lat="49.39828" lon="5.74896">
        <ele>286.79998779297</ele>
        <time>2022-09-13T12:50:59.000Z</time>
      </trkpt>
      <trkpt lat="49.39824" lon="5.749">
        <ele>286</ele>
        <time>2022-09-13T12:51:00.000Z</time>
      </trkpt>
      <trkpt lat="49.39822" lon="5.74904">
        <ele>285.20001220703</ele>
        <time>2022-09-13T12:51:01.000Z</time>
      </trkpt>
      <trkpt lat="49.3982" lon="5.74908">
        <ele>284.79998779297</ele>
        <time>2022-09-13T12:51:02.000Z</time>
      </trkpt>
      <trkpt lat="49.39819" lon="5.74911">
        <ele>283.79998779297</ele>
        <time>2022-09-13T12:51:03.000Z</time>
      </trkpt>
      <trkpt lat="49.39818" lon="5.74916">
        <ele>283.39999389648</ele>
        <time>2022-09-13T12:51:04.000Z</time>
      </trkpt>
      <trkpt lat="49.39817" lon="5.7492">
        <ele>282.60000610352</ele>
        <time>2022-09-13T12:51:05.000Z</time>
      </trkpt>
      <trkpt lat="49.39815" lon="5.74925">
        <ele>282.20001220703</ele>
        <time>2022-09-13T12:51:06.000Z</time>
      </trkpt>
      <trkpt lat="49.39813" lon="5.74936">
        <ele>281.79998779297</ele>
        <time>2022-09-13T12:51:08.000Z</time>
      </trkpt>
      <trkpt lat="49.39811" lon="5.74946">
        <ele>281.60000610352</ele>
        <time>2022-09-13T12:51:10.000Z</time>
      </trkpt>
      <trkpt lat="49.3981" lon="5.74951">
        <ele>281.60000610352</ele>
        <time>2022-09-13T12:51:11.000Z</time>
      </trkpt>
      <trkpt lat="49.39807" lon="5.74972">
        <ele>281.39999389648</ele>
        <time>2022-09-13T12:51:15.000Z</time>
      </trkpt>
      <trkpt lat="49.39802" lon="5.75004">
        <ele>282</ele>
        <time>2022-09-13T12:51:21.000Z</time>
      </trkpt>
      <trkpt lat="49.39797" lon="5.75038">
        <ele>282.60000610352</ele>
        <time>2022-09-13T12:51:27.000Z</time>
      </trkpt>
      <trkpt lat="49.39796" lon="5.75048">
        <ele>282.60000610352</ele>
        <time>2022-09-13T12:51:29.000Z</time>
      </trkpt>
      <trkpt lat="49.39791" lon="5.75077">
        <ele>283.79998779297</ele>
        <time>2022-09-13T12:51:35.000Z</time>
      </trkpt>
      <trkpt lat="49.39789" lon="5.75088">
        <ele>283.79998779297</ele>
        <time>2022-09-13T12:51:36.000Z</time>
      </trkpt>
      <trkpt lat="49.39789" lon="5.75094">
        <ele>284</ele>
        <time>2022-09-13T12:51:37.000Z</time>
      </trkpt>
      <trkpt lat="49.39788" lon="5.75099">
        <ele>284</ele>
        <time>2022-09-13T12:51:38.000Z</time>
      </trkpt>
      <trkpt lat="49.39781" lon="5.75126">
        <ele>284.79998779297</ele>
        <time>2022-09-13T12:51:43.000Z</time>
      </trkpt>
      <trkpt lat="49.39779" lon="5.75131">
        <ele>285</ele>
        <time>2022-09-13T12:51:44.000Z</time>
      </trkpt>
      <trkpt lat="49.39767" lon="5.75168">
        <ele>285.79998779297</ele>
        <time>2022-09-13T12:51:51.000Z</time>
      </trkpt>
      <trkpt lat="49.39765" lon="5.75173">
        <ele>286</ele>
        <time>2022-09-13T12:51:52.000Z</time>
      </trkpt>
      <trkpt lat="49.39763" lon="5.75178">
        <ele>286.20001220703</ele>
        <time>2022-09-13T12:51:53.000Z</time>
      </trkpt>
      <trkpt lat="49.39761" lon="5.75184">
        <ele>286.20001220703</ele>
        <time>2022-09-13T12:51:54.000Z</time>
      </trkpt>
      <trkpt lat="49.39759" lon="5.7519">
        <ele>286.39999389648</ele>
        <time>2022-09-13T12:51:55.000Z</time>
      </trkpt>
      <trkpt lat="49.39757" lon="5.75195">
        <ele>286.39999389648</ele>
        <time>2022-09-13T12:51:56.000Z</time>
      </trkpt>
      <trkpt lat="49.39754" lon="5.75201">
        <ele>286.39999389648</ele>
        <time>2022-09-13T12:51:57.000Z</time>
      </trkpt>
      <trkpt lat="49.39752" lon="5.75205">
        <ele>286.60000610352</ele>
        <time>2022-09-13T12:51:58.000Z</time>
      </trkpt>
      <trkpt lat="49.3975" lon="5.7521">
        <ele>286.60000610352</ele>
        <time>2022-09-13T12:51:59.000Z</time>
      </trkpt>
      <trkpt lat="49.39748" lon="5.75215">
        <ele>287</ele>
        <time>2022-09-13T12:52:00.000Z</time>
      </trkpt>
      <trkpt lat="49.39746" lon="5.7522">
        <ele>287.20001220703</ele>
        <time>2022-09-13T12:52:01.000Z</time>
      </trkpt>
      <trkpt lat="49.39744" lon="5.75225">
        <ele>287.39999389648</ele>
        <time>2022-09-13T12:52:02.000Z</time>
      </trkpt>
      <trkpt lat="49.39743" lon="5.7523">
        <ele>287.60000610352</ele>
        <time>2022-09-13T12:52:03.000Z</time>
      </trkpt>
      <trkpt lat="49.39741" lon="5.75234">
        <ele>287.60000610352</ele>
        <time>2022-09-13T12:52:04.000Z</time>
      </trkpt>
      <trkpt lat="49.39739" lon="5.75239">
        <ele>287.79998779297</ele>
        <time>2022-09-13T12:52:05.000Z</time>
      </trkpt>
      <trkpt lat="49.39737" lon="5.75244">
        <ele>288</ele>
        <time>2022-09-13T12:52:06.000Z</time>
      </trkpt>
      <trkpt lat="49.39734" lon="5.75249">
        <ele>288</ele>
        <time>2022-09-13T12:52:07.000Z</time>
      </trkpt>
      <trkpt lat="49.39732" lon="5.75254">
        <ele>288.20001220703</ele>
        <time>2022-09-13T12:52:08.000Z</time>
      </trkpt>
      <trkpt lat="49.3973" lon="5.75259">
        <ele>288.39999389648</ele>
        <time>2022-09-13T12:52:09.000Z</time>
      </trkpt>
      <trkpt lat="49.39728" lon="5.75264">
        <ele>288.39999389648</ele>
        <time>2022-09-13T12:52:10.000Z</time>
      </trkpt>
      <trkpt lat="49.39726" lon="5.75269">
        <ele>288.60000610352</ele>
        <time>2022-09-13T12:52:11.000Z</time>
      </trkpt>
      <trkpt lat="49.39724" lon="5.75274">
        <ele>288.60000610352</ele>
        <time>2022-09-13T12:52:12.000Z</time>
      </trkpt>
      <trkpt lat="49.39722" lon="5.75279">
        <ele>288.79998779297</ele>
        <time>2022-09-13T12:52:13.000Z</time>
      </trkpt>
      <trkpt lat="49.3972" lon="5.75284">
        <ele>288.79998779297</ele>
        <time>2022-09-13T12:52:14.000Z</time>
      </trkpt>
      <trkpt lat="49.39718" lon="5.75289">
        <ele>289.20001220703</ele>
        <time>2022-09-13T12:52:15.000Z</time>
      </trkpt>
      <trkpt lat="49.39716" lon="5.75294">
        <ele>289.39999389648</ele>
        <time>2022-09-13T12:52:16.000Z</time>
      </trkpt>
      <trkpt lat="49.39714" lon="5.75299">
        <ele>289.60000610352</ele>
        <time>2022-09-13T12:52:17.000Z</time>
      </trkpt>
      <trkpt lat="49.39712" lon="5.75303">
        <ele>289.79998779297</ele>
        <time>2022-09-13T12:52:18.000Z</time>
      </trkpt>
      <trkpt lat="49.39709" lon="5.75308">
        <ele>290.20001220703</ele>
        <time>2022-09-13T12:52:19.000Z</time>
      </trkpt>
      <trkpt lat="49.39706" lon="5.75313">
        <ele>290.60000610352</ele>
        <time>2022-09-13T12:52:20.000Z</time>
      </trkpt>
      <trkpt lat="49.39704" lon="5.75318">
        <ele>290.79998779297</ele>
        <time>2022-09-13T12:52:21.000Z</time>
      </trkpt>
      <trkpt lat="49.39702" lon="5.75323">
        <ele>291</ele>
        <time>2022-09-13T12:52:22.000Z</time>
      </trkpt>
      <trkpt lat="49.39699" lon="5.75328">
        <ele>291</ele>
        <time>2022-09-13T12:52:23.000Z</time>
      </trkpt>
      <trkpt lat="49.39697" lon="5.75333">
        <ele>291</ele>
        <time>2022-09-13T12:52:24.000Z</time>
      </trkpt>
      <trkpt lat="49.39694" lon="5.75338">
        <ele>291.39999389648</ele>
        <time>2022-09-13T12:52:25.000Z</time>
      </trkpt>
      <trkpt lat="49.39692" lon="5.75343">
        <ele>291.60000610352</ele>
        <time>2022-09-13T12:52:26.000Z</time>
      </trkpt>
      <trkpt lat="49.39689" lon="5.75348">
        <ele>291.79998779297</ele>
        <time>2022-09-13T12:52:27.000Z</time>
      </trkpt>
      <trkpt lat="49.39687" lon="5.75354">
        <ele>291.79998779297</ele>
        <time>2022-09-13T12:52:28.000Z</time>
      </trkpt>
      <trkpt lat="49.39685" lon="5.75359">
        <ele>292</ele>
        <time>2022-09-13T12:52:29.000Z</time>
      </trkpt>
      <trkpt lat="49.39682" lon="5.75365">
        <ele>292</ele>
        <time>2022-09-13T12:52:30.000Z</time>
      </trkpt>
      <trkpt lat="49.39679" lon="5.7537">
        <ele>292.20001220703</ele>
        <time>2022-09-13T12:52:31.000Z</time>
      </trkpt>
      <trkpt lat="49.39677" lon="5.75375">
        <ele>292.20001220703</ele>
        <time>2022-09-13T12:52:32.000Z</time>
      </trkpt>
      <trkpt lat="49.39674" lon="5.7538">
        <ele>292.39999389648</ele>
        <time>2022-09-13T12:52:33.000Z</time>
      </trkpt>
      <trkpt lat="49.3967" lon="5.75385">
        <ele>292.39999389648</ele>
        <time>2022-09-13T12:52:34.000Z</time>
      </trkpt>
      <trkpt lat="49.39667" lon="5.7539">
        <ele>292.60000610352</ele>
        <time>2022-09-13T12:52:35.000Z</time>
      </trkpt>
      <trkpt lat="49.39664" lon="5.75395">
        <ele>293</ele>
        <time>2022-09-13T12:52:36.000Z</time>
      </trkpt>
      <trkpt lat="49.39661" lon="5.75399">
        <ele>293</ele>
        <time>2022-09-13T12:52:37.000Z</time>
      </trkpt>
      <trkpt lat="49.39658" lon="5.75404">
        <ele>293.60000610352</ele>
        <time>2022-09-13T12:52:38.000Z</time>
      </trkpt>
      <trkpt lat="49.39654" lon="5.75409">
        <ele>293.79998779297</ele>
        <time>2022-09-13T12:52:39.000Z</time>
      </trkpt>
      <trkpt lat="49.39651" lon="5.75413">
        <ele>294</ele>
        <time>2022-09-13T12:52:40.000Z</time>
      </trkpt>
      <trkpt lat="49.39648" lon="5.75418">
        <ele>294.20001220703</ele>
        <time>2022-09-13T12:52:41.000Z</time>
      </trkpt>
      <trkpt lat="49.39648" lon="5.75418">
        <ele>294.39999389648</ele>
        <time>2022-09-13T12:52:42.000Z</time>
      </trkpt>
      <trkpt lat="49.39641" lon="5.75427">
        <ele>294.60000610352</ele>
        <time>2022-09-13T12:52:43.000Z</time>
      </trkpt>
      <trkpt lat="49.39637" lon="5.75431">
        <ele>294.60000610352</ele>
        <time>2022-09-13T12:52:44.000Z</time>
      </trkpt>
      <trkpt lat="49.39633" lon="5.75435">
        <ele>294.79998779297</ele>
        <time>2022-09-13T12:52:45.000Z</time>
      </trkpt>
      <trkpt lat="49.39629" lon="5.75439">
        <ele>295</ele>
        <time>2022-09-13T12:52:46.000Z</time>
      </trkpt>
      <trkpt lat="49.39626" lon="5.75444">
        <ele>295.20001220703</ele>
        <time>2022-09-13T12:52:47.000Z</time>
      </trkpt>
      <trkpt lat="49.39622" lon="5.75448">
        <ele>295.39999389648</ele>
        <time>2022-09-13T12:52:48.000Z</time>
      </trkpt>
      <trkpt lat="49.39619" lon="5.75452">
        <ele>295.60000610352</ele>
        <time>2022-09-13T12:52:49.000Z</time>
      </trkpt>
      <trkpt lat="49.39615" lon="5.75456">
        <ele>295.60000610352</ele>
        <time>2022-09-13T12:52:50.000Z</time>
      </trkpt>
      <trkpt lat="49.39612" lon="5.75459">
        <ele>295.79998779297</ele>
        <time>2022-09-13T12:52:51.000Z</time>
      </trkpt>
      <trkpt lat="49.39608" lon="5.75463">
        <ele>296.20001220703</ele>
        <time>2022-09-13T12:52:52.000Z</time>
      </trkpt>
      <trkpt lat="49.39604" lon="5.75467">
        <ele>296.39999389648</ele>
        <time>2022-09-13T12:52:53.000Z</time>
      </trkpt>
      <trkpt lat="49.396" lon="5.75472">
        <ele>296.39999389648</ele>
        <time>2022-09-13T12:52:54.000Z</time>
      </trkpt>
      <trkpt lat="49.39595" lon="5.75477">
        <ele>296.60000610352</ele>
        <time>2022-09-13T12:52:55.000Z</time>
      </trkpt>
      <trkpt lat="49.39591" lon="5.75481">
        <ele>296.60000610352</ele>
        <time>2022-09-13T12:52:56.000Z</time>
      </trkpt>
      <trkpt lat="49.39588" lon="5.75485">
        <ele>297</ele>
        <time>2022-09-13T12:52:57.000Z</time>
      </trkpt>
      <trkpt lat="49.39584" lon="5.75488">
        <ele>297.20001220703</ele>
        <time>2022-09-13T12:52:58.000Z</time>
      </trkpt>
      <trkpt lat="49.39581" lon="5.75493">
        <ele>297.39999389648</ele>
        <time>2022-09-13T12:52:59.000Z</time>
      </trkpt>
      <trkpt lat="49.39577" lon="5.75496">
        <ele>297.79998779297</ele>
        <time>2022-09-13T12:53:00.000Z</time>
      </trkpt>
      <trkpt lat="49.39573" lon="5.755">
        <ele>297.79998779297</ele>
        <time>2022-09-13T12:53:01.000Z</time>
      </trkpt>
      <trkpt lat="49.39569" lon="5.75503">
        <ele>298.20001220703</ele>
        <time>2022-09-13T12:53:02.000Z</time>
      </trkpt>
      <trkpt lat="49.39566" lon="5.75507">
        <ele>298.20001220703</ele>
        <time>2022-09-13T12:53:03.000Z</time>
      </trkpt>
      <trkpt lat="49.39562" lon="5.75511">
        <ele>298.20001220703</ele>
        <time>2022-09-13T12:53:04.000Z</time>
      </trkpt>
      <trkpt lat="49.39559" lon="5.75514">
        <ele>298.39999389648</ele>
        <time>2022-09-13T12:53:05.000Z</time>
      </trkpt>
      <trkpt lat="49.39555" lon="5.75517">
        <ele>298.60000610352</ele>
        <time>2022-09-13T12:53:06.000Z</time>
      </trkpt>
      <trkpt lat="49.39551" lon="5.7552">
        <ele>299</ele>
        <time>2022-09-13T12:53:07.000Z</time>
      </trkpt>
      <trkpt lat="49.39548" lon="5.75524">
        <ele>299</ele>
        <time>2022-09-13T12:53:08.000Z</time>
      </trkpt>
      <trkpt lat="49.39544" lon="5.75528">
        <ele>299.60000610352</ele>
        <time>2022-09-13T12:53:09.000Z</time>
      </trkpt>
      <trkpt lat="49.39541" lon="5.75533">
        <ele>299.79998779297</ele>
        <time>2022-09-13T12:53:10.000Z</time>
      </trkpt>
      <trkpt lat="49.39538" lon="5.75536">
        <ele>300.20001220703</ele>
        <time>2022-09-13T12:53:11.000Z</time>
      </trkpt>
      <trkpt lat="49.39535" lon="5.7554">
        <ele>300.39999389648</ele>
        <time>2022-09-13T12:53:12.000Z</time>
      </trkpt>
      <trkpt lat="49.39531" lon="5.75543">
        <ele>300.60000610352</ele>
        <time>2022-09-13T12:53:13.000Z</time>
      </trkpt>
      <trkpt lat="49.39528" lon="5.75546">
        <ele>301</ele>
        <time>2022-09-13T12:53:14.000Z</time>
      </trkpt>
      <trkpt lat="49.39525" lon="5.7555">
        <ele>301</ele>
        <time>2022-09-13T12:53:15.000Z</time>
      </trkpt>
      <trkpt lat="49.39521" lon="5.75553">
        <ele>301.20001220703</ele>
        <time>2022-09-13T12:53:16.000Z</time>
      </trkpt>
      <trkpt lat="49.39518" lon="5.75557">
        <ele>301.20001220703</ele>
        <time>2022-09-13T12:53:17.000Z</time>
      </trkpt>
      <trkpt lat="49.39514" lon="5.7556">
        <ele>301.39999389648</ele>
        <time>2022-09-13T12:53:18.000Z</time>
      </trkpt>
      <trkpt lat="49.39511" lon="5.75564">
        <ele>301.60000610352</ele>
        <time>2022-09-13T12:53:19.000Z</time>
      </trkpt>
      <trkpt lat="49.39509" lon="5.75568">
        <ele>301.79998779297</ele>
        <time>2022-09-13T12:53:20.000Z</time>
      </trkpt>
      <trkpt lat="49.39506" lon="5.75572">
        <ele>302.20001220703</ele>
        <time>2022-09-13T12:53:21.000Z</time>
      </trkpt>
      <trkpt lat="49.39503" lon="5.75578">
        <ele>302.20001220703</ele>
        <time>2022-09-13T12:53:22.000Z</time>
      </trkpt>
      <trkpt lat="49.395" lon="5.75583">
        <ele>302.39999389648</ele>
        <time>2022-09-13T12:53:23.000Z</time>
      </trkpt>
      <trkpt lat="49.39497" lon="5.75587">
        <ele>302.60000610352</ele>
        <time>2022-09-13T12:53:24.000Z</time>
      </trkpt>
      <trkpt lat="49.39495" lon="5.75592">
        <ele>302.79998779297</ele>
        <time>2022-09-13T12:53:25.000Z</time>
      </trkpt>
      <trkpt lat="49.39492" lon="5.75596">
        <ele>303</ele>
        <time>2022-09-13T12:53:26.000Z</time>
      </trkpt>
      <trkpt lat="49.39489" lon="5.75601">
        <ele>303.20001220703</ele>
        <time>2022-09-13T12:53:27.000Z</time>
      </trkpt>
      <trkpt lat="49.39487" lon="5.75605">
        <ele>303.39999389648</ele>
        <time>2022-09-13T12:53:28.000Z</time>
      </trkpt>
      <trkpt lat="49.39484" lon="5.75609">
        <ele>303.60000610352</ele>
        <time>2022-09-13T12:53:29.000Z</time>
      </trkpt>
      <trkpt lat="49.39483" lon="5.75613">
        <ele>304.20001220703</ele>
        <time>2022-09-13T12:53:30.000Z</time>
      </trkpt>
      <trkpt lat="49.3948" lon="5.75617">
        <ele>304.39999389648</ele>
        <time>2022-09-13T12:53:31.000Z</time>
      </trkpt>
      <trkpt lat="49.39479" lon="5.75621">
        <ele>305</ele>
        <time>2022-09-13T12:53:32.000Z</time>
      </trkpt>
      <trkpt lat="49.39477" lon="5.75625">
        <ele>305.20001220703</ele>
        <time>2022-09-13T12:53:33.000Z</time>
      </trkpt>
      <trkpt lat="49.39477" lon="5.75625">
        <ele>305.60000610352</ele>
        <time>2022-09-13T12:53:34.000Z</time>
      </trkpt>
      <trkpt lat="49.39473" lon="5.75632">
        <ele>305.79998779297</ele>
        <time>2022-09-13T12:53:35.000Z</time>
      </trkpt>
      <trkpt lat="49.39472" lon="5.75636">
        <ele>306</ele>
        <time>2022-09-13T12:53:36.000Z</time>
      </trkpt>
      <trkpt lat="49.3947" lon="5.7564">
        <ele>306.39999389648</ele>
        <time>2022-09-13T12:53:37.000Z</time>
      </trkpt>
      <trkpt lat="49.39468" lon="5.75644">
        <ele>306.60000610352</ele>
        <time>2022-09-13T12:53:38.000Z</time>
      </trkpt>
      <trkpt lat="49.39466" lon="5.75647">
        <ele>306.79998779297</ele>
        <time>2022-09-13T12:53:39.000Z</time>
      </trkpt>
      <trkpt lat="49.39464" lon="5.75651">
        <ele>307</ele>
        <time>2022-09-13T12:53:40.000Z</time>
      </trkpt>
      <trkpt lat="49.39463" lon="5.75655">
        <ele>307.20001220703</ele>
        <time>2022-09-13T12:53:41.000Z</time>
      </trkpt>
      <trkpt lat="49.39461" lon="5.75658">
        <ele>307.39999389648</ele>
        <time>2022-09-13T12:53:42.000Z</time>
      </trkpt>
      <trkpt lat="49.39459" lon="5.75662">
        <ele>307.60000610352</ele>
        <time>2022-09-13T12:53:43.000Z</time>
      </trkpt>
      <trkpt lat="49.39457" lon="5.75667">
        <ele>308</ele>
        <time>2022-09-13T12:53:44.000Z</time>
      </trkpt>
      <trkpt lat="49.39454" lon="5.75671">
        <ele>308.39999389648</ele>
        <time>2022-09-13T12:53:45.000Z</time>
      </trkpt>
      <trkpt lat="49.39453" lon="5.75675">
        <ele>309</ele>
        <time>2022-09-13T12:53:46.000Z</time>
      </trkpt>
      <trkpt lat="49.39451" lon="5.75679">
        <ele>309.39999389648</ele>
        <time>2022-09-13T12:53:47.000Z</time>
      </trkpt>
      <trkpt lat="49.39449" lon="5.75683">
        <ele>309.79998779297</ele>
        <time>2022-09-13T12:53:48.000Z</time>
      </trkpt>
      <trkpt lat="49.39447" lon="5.75688">
        <ele>310.20001220703</ele>
        <time>2022-09-13T12:53:49.000Z</time>
      </trkpt>
      <trkpt lat="49.39445" lon="5.75693">
        <ele>310.20001220703</ele>
        <time>2022-09-13T12:53:50.000Z</time>
      </trkpt>
      <trkpt lat="49.39443" lon="5.75697">
        <ele>310.39999389648</ele>
        <time>2022-09-13T12:53:51.000Z</time>
      </trkpt>
      <trkpt lat="49.39441" lon="5.75701">
        <ele>310.60000610352</ele>
        <time>2022-09-13T12:53:52.000Z</time>
      </trkpt>
      <trkpt lat="49.39439" lon="5.75706">
        <ele>310.79998779297</ele>
        <time>2022-09-13T12:53:53.000Z</time>
      </trkpt>
      <trkpt lat="49.39437" lon="5.7571">
        <ele>311</ele>
        <time>2022-09-13T12:53:54.000Z</time>
      </trkpt>
      <trkpt lat="49.39435" lon="5.75715">
        <ele>311</ele>
        <time>2022-09-13T12:53:55.000Z</time>
      </trkpt>
      <trkpt lat="49.39432" lon="5.75719">
        <ele>311.20001220703</ele>
        <time>2022-09-13T12:53:56.000Z</time>
      </trkpt>
      <trkpt lat="49.3943" lon="5.75723">
        <ele>311.20001220703</ele>
        <time>2022-09-13T12:53:57.000Z</time>
      </trkpt>
      <trkpt lat="49.39428" lon="5.75728">
        <ele>311.39999389648</ele>
        <time>2022-09-13T12:53:58.000Z</time>
      </trkpt>
      <trkpt lat="49.39425" lon="5.75733">
        <ele>311.39999389648</ele>
        <time>2022-09-13T12:53:59.000Z</time>
      </trkpt>
      <trkpt lat="49.39423" lon="5.75737">
        <ele>311.39999389648</ele>
        <time>2022-09-13T12:54:00.000Z</time>
      </trkpt>
      <trkpt lat="49.39421" lon="5.75742">
        <ele>311.39999389648</ele>
        <time>2022-09-13T12:54:01.000Z</time>
      </trkpt>
      <trkpt lat="49.39419" lon="5.75747">
        <ele>311.60000610352</ele>
        <time>2022-09-13T12:54:02.000Z</time>
      </trkpt>
      <trkpt lat="49.39418" lon="5.75751">
        <ele>311.60000610352</ele>
        <time>2022-09-13T12:54:03.000Z</time>
      </trkpt>
      <trkpt lat="49.39416" lon="5.75755">
        <ele>311.60000610352</ele>
        <time>2022-09-13T12:54:04.000Z</time>
      </trkpt>
      <trkpt lat="49.39414" lon="5.75759">
        <ele>311.79998779297</ele>
        <time>2022-09-13T12:54:05.000Z</time>
      </trkpt>
      <trkpt lat="49.39412" lon="5.75764">
        <ele>311.79998779297</ele>
        <time>2022-09-13T12:54:06.000Z</time>
      </trkpt>
      <trkpt lat="49.3941" lon="5.75768">
        <ele>311.79998779297</ele>
        <time>2022-09-13T12:54:07.000Z</time>
      </trkpt>
      <trkpt lat="49.39408" lon="5.75772">
        <ele>312</ele>
        <time>2022-09-13T12:54:08.000Z</time>
      </trkpt>
      <trkpt lat="49.39406" lon="5.75777">
        <ele>312</ele>
        <time>2022-09-13T12:54:09.000Z</time>
      </trkpt>
      <trkpt lat="49.39404" lon="5.75782">
        <ele>312.20001220703</ele>
        <time>2022-09-13T12:54:10.000Z</time>
      </trkpt>
      <trkpt lat="49.39402" lon="5.75786">
        <ele>312.20001220703</ele>
        <time>2022-09-13T12:54:11.000Z</time>
      </trkpt>
      <trkpt lat="49.394" lon="5.7579">
        <ele>312.20001220703</ele>
        <time>2022-09-13T12:54:12.000Z</time>
      </trkpt>
      <trkpt lat="49.39397" lon="5.75794">
        <ele>312.20001220703</ele>
        <time>2022-09-13T12:54:13.000Z</time>
      </trkpt>
      <trkpt lat="49.39395" lon="5.75798">
        <ele>312.39999389648</ele>
        <time>2022-09-13T12:54:14.000Z</time>
      </trkpt>
      <trkpt lat="49.39393" lon="5.75803">
        <ele>312.39999389648</ele>
        <time>2022-09-13T12:54:15.000Z</time>
      </trkpt>
      <trkpt lat="49.39393" lon="5.75803">
        <ele>312.39999389648</ele>
        <time>2022-09-13T12:54:16.000Z</time>
      </trkpt>
      <trkpt lat="49.39388" lon="5.75812">
        <ele>312.60000610352</ele>
        <time>2022-09-13T12:54:17.000Z</time>
      </trkpt>
      <trkpt lat="49.39386" lon="5.75816">
        <ele>312.60000610352</ele>
        <time>2022-09-13T12:54:18.000Z</time>
      </trkpt>
      <trkpt lat="49.39384" lon="5.75821">
        <ele>312.60000610352</ele>
        <time>2022-09-13T12:54:19.000Z</time>
      </trkpt>
      <trkpt lat="49.39382" lon="5.75825">
        <ele>312.79998779297</ele>
        <time>2022-09-13T12:54:20.000Z</time>
      </trkpt>
      <trkpt lat="49.39367" lon="5.75862">
        <ele>313</ele>
        <time>2022-09-13T12:54:28.000Z</time>
      </trkpt>
      <trkpt lat="49.39366" lon="5.75867">
        <ele>313.20001220703</ele>
        <time>2022-09-13T12:54:29.000Z</time>
      </trkpt>
      <trkpt lat="49.39366" lon="5.75872">
        <ele>313.20001220703</ele>
        <time>2022-09-13T12:54:30.000Z</time>
      </trkpt>
      <trkpt lat="49.39366" lon="5.75876">
        <ele>313.20001220703</ele>
        <time>2022-09-13T12:54:31.000Z</time>
      </trkpt>
      <trkpt lat="49.39367" lon="5.75881">
        <ele>313.39999389648</ele>
        <time>2022-09-13T12:54:32.000Z</time>
      </trkpt>
      <trkpt lat="49.3937" lon="5.75887">
        <ele>313.39999389648</ele>
        <time>2022-09-13T12:54:33.000Z</time>
      </trkpt>
      <trkpt lat="49.39371" lon="5.75892">
        <ele>313.39999389648</ele>
        <time>2022-09-13T12:54:34.000Z</time>
      </trkpt>
      <trkpt lat="49.39373" lon="5.75897">
        <ele>313.39999389648</ele>
        <time>2022-09-13T12:54:35.000Z</time>
      </trkpt>
      <trkpt lat="49.39384" lon="5.75933">
        <ele>314.20001220703</ele>
        <time>2022-09-13T12:54:42.000Z</time>
      </trkpt>
      <trkpt lat="49.39399" lon="5.75985">
        <ele>314.60000610352</ele>
        <time>2022-09-13T12:54:51.000Z</time>
      </trkpt>
      <trkpt lat="49.39402" lon="5.75997">
        <ele>314.79998779297</ele>
        <time>2022-09-13T12:54:53.000Z</time>
      </trkpt>
      <trkpt lat="49.39415" lon="5.7605">
        <ele>315</ele>
        <time>2022-09-13T12:55:02.000Z</time>
      </trkpt>
      <trkpt lat="49.39432" lon="5.76101">
        <ele>314.79998779297</ele>
        <time>2022-09-13T12:55:10.000Z</time>
      </trkpt>
      <trkpt lat="49.39436" lon="5.76118">
        <ele>314.79998779297</ele>
        <time>2022-09-13T12:55:13.000Z</time>
      </trkpt>
      <trkpt lat="49.39441" lon="5.7613">
        <ele>314.79998779297</ele>
        <time>2022-09-13T12:55:15.000Z</time>
      </trkpt>
      <trkpt lat="49.39443" lon="5.76136">
        <ele>314.79998779297</ele>
        <time>2022-09-13T12:55:16.000Z</time>
      </trkpt>
      <trkpt lat="49.39461" lon="5.76195">
        <ele>314.60000610352</ele>
        <time>2022-09-13T12:55:25.000Z</time>
      </trkpt>
      <trkpt lat="49.3947" lon="5.76226">
        <ele>314.39999389648</ele>
        <time>2022-09-13T12:55:30.000Z</time>
      </trkpt>
      <trkpt lat="49.39472" lon="5.76232">
        <ele>314.39999389648</ele>
        <time>2022-09-13T12:55:31.000Z</time>
      </trkpt>
      <trkpt lat="49.39474" lon="5.76238">
        <ele>314.39999389648</ele>
        <time>2022-09-13T12:55:32.000Z</time>
      </trkpt>
      <trkpt lat="49.39475" lon="5.76244">
        <ele>314.39999389648</ele>
        <time>2022-09-13T12:55:33.000Z</time>
      </trkpt>
      <trkpt lat="49.39477" lon="5.76249">
        <ele>314.39999389648</ele>
        <time>2022-09-13T12:55:34.000Z</time>
      </trkpt>
      <trkpt lat="49.39478" lon="5.76254">
        <ele>314.39999389648</ele>
        <time>2022-09-13T12:55:35.000Z</time>
      </trkpt>
      <trkpt lat="49.3948" lon="5.76261">
        <ele>314.60000610352</ele>
        <time>2022-09-13T12:55:36.000Z</time>
      </trkpt>
      <trkpt lat="49.39482" lon="5.76266">
        <ele>314.60000610352</ele>
        <time>2022-09-13T12:55:37.000Z</time>
      </trkpt>
      <trkpt lat="49.39483" lon="5.76272">
        <ele>314.60000610352</ele>
        <time>2022-09-13T12:55:38.000Z</time>
      </trkpt>
      <trkpt lat="49.39485" lon="5.76277">
        <ele>314.60000610352</ele>
        <time>2022-09-13T12:55:39.000Z</time>
      </trkpt>
      <trkpt lat="49.39487" lon="5.76283">
        <ele>314.60000610352</ele>
        <time>2022-09-13T12:55:40.000Z</time>
      </trkpt>
      <trkpt lat="49.39489" lon="5.7629">
        <ele>314.79998779297</ele>
        <time>2022-09-13T12:55:41.000Z</time>
      </trkpt>
      <trkpt lat="49.39491" lon="5.76295">
        <ele>314.79998779297</ele>
        <time>2022-09-13T12:55:42.000Z</time>
      </trkpt>
      <trkpt lat="49.39511" lon="5.76357">
        <ele>315.39999389648</ele>
        <time>2022-09-13T12:55:53.000Z</time>
      </trkpt>
      <trkpt lat="49.39512" lon="5.76362">
        <ele>315.79998779297</ele>
        <time>2022-09-13T12:55:54.000Z</time>
      </trkpt>
      <trkpt lat="49.39513" lon="5.76367">
        <ele>315.79998779297</ele>
        <time>2022-09-13T12:55:55.000Z</time>
      </trkpt>
      <trkpt lat="49.39513" lon="5.76372">
        <ele>315.79998779297</ele>
        <time>2022-09-13T12:55:56.000Z</time>
      </trkpt>
      <trkpt lat="49.39512" lon="5.76375">
        <ele>315.79998779297</ele>
        <time>2022-09-13T12:55:57.000Z</time>
      </trkpt>
      <trkpt lat="49.39509" lon="5.76377">
        <ele>315.79998779297</ele>
        <time>2022-09-13T12:55:58.000Z</time>
      </trkpt>
      <trkpt lat="49.39506" lon="5.76377">
        <ele>315.79998779297</ele>
        <time>2022-09-13T12:55:59.000Z</time>
      </trkpt>
      <trkpt lat="49.39503" lon="5.76376">
        <ele>316</ele>
        <time>2022-09-13T12:56:00.000Z</time>
      </trkpt>
      <trkpt lat="49.39497" lon="5.76375">
        <ele>316</ele>
        <time>2022-09-13T12:56:02.000Z</time>
      </trkpt>
      <trkpt lat="49.39493" lon="5.76375">
        <ele>316</ele>
        <time>2022-09-13T12:56:03.000Z</time>
      </trkpt>
      <trkpt lat="49.3947" lon="5.76373">
        <ele>315.79998779297</ele>
        <time>2022-09-13T12:56:09.000Z</time>
      </trkpt>
      <trkpt lat="49.39444" lon="5.76373">
        <ele>315.60000610352</ele>
        <time>2022-09-13T12:56:16.000Z</time>
      </trkpt>
      <trkpt lat="49.39442" lon="5.76376">
        <ele>315.60000610352</ele>
        <time>2022-09-13T12:56:17.000Z</time>
      </trkpt>
      <trkpt lat="49.39441" lon="5.7638">
        <ele>315.39999389648</ele>
        <time>2022-09-13T12:56:18.000Z</time>
      </trkpt>
      <trkpt lat="49.39441" lon="5.76384">
        <ele>315.39999389648</ele>
        <time>2022-09-13T12:56:19.000Z</time>
      </trkpt>
      <trkpt lat="49.39443" lon="5.76389">
        <ele>315.39999389648</ele>
        <time>2022-09-13T12:56:20.000Z</time>
      </trkpt>
      <trkpt lat="49.39448" lon="5.76407">
        <ele>315.60000610352</ele>
        <time>2022-09-13T12:56:24.000Z</time>
      </trkpt>
      <trkpt lat="49.39448" lon="5.76412">
        <ele>315.79998779297</ele>
        <time>2022-09-13T12:56:25.000Z</time>
      </trkpt>
      <trkpt lat="49.39448" lon="5.76417">
        <ele>315.79998779297</ele>
        <time>2022-09-13T12:56:26.000Z</time>
      </trkpt>
      <trkpt lat="49.39447" lon="5.76422">
        <ele>316</ele>
        <time>2022-09-13T12:56:27.000Z</time>
      </trkpt>
      <trkpt lat="49.39446" lon="5.76427">
        <ele>315.79998779297</ele>
        <time>2022-09-13T12:56:28.000Z</time>
      </trkpt>
      <trkpt lat="49.39446" lon="5.7643">
        <ele>316</ele>
        <time>2022-09-13T12:56:29.000Z</time>
      </trkpt>
      <trkpt lat="49.39446" lon="5.7643">
        <ele>316</ele>
        <time>2022-09-13T12:56:30.000Z</time>
      </trkpt>
      <trkpt lat="49.39446" lon="5.7643">
        <ele>316</ele>
        <time>2022-09-13T12:56:31.000Z</time>
      </trkpt>
      <trkpt lat="49.39446" lon="5.7643">
        <ele>316</ele>
        <time>2022-09-13T12:56:43.000Z</time>
      </trkpt>
      <trkpt lat="49.39446" lon="5.7643">
        <ele>316</ele>
        <time>2022-09-13T12:56:44.000Z</time>
      </trkpt>
    </trkseg>
  </trk>
</gpx>